<?xml version="1.0" encoding="UTF-8"?>
<gpx version="1.1" creator="https://www.youtrack.es" xsi:schemaLocation="http://www.topografix.com/GPX/1/1 http://www.topografix.com/GPX/1/1/gpx.xsd http://www.garmin.com/xmlschemas/GpxExtensions/v3 http://www.garmin.com/xmlschemas/GpxExtensionsv3.xsd http://www.garmin.com/xmlschemas/TrackPointExtension/v1 http://www.garmin.com/xmlschemas/TrackPointExtensionv1.xsd" xmlns:gpxtpx="http://www.garmin.com/xmlschemas/TrackPointExtension/v1" xmlns:gpxx="http://www.garmin.com/xmlschemas/GpxExtensions/v3" xmlns:xsi="http://www.w3.org/2001/XMLSchema-instance">
  <metadata>
    <link href="https://www.youtrack.es">
      <text>YouTrack.es</text>
    </link>
    <time>2026-05-10T12:09:18Z</time>
  </metadata>
  <trk>
    <src>https://www.youtrack.es</src>
    <link href="https://www.youtrack.es/ruta/17033-cabanelles-llers">
      <text>YouTrack.es</text>
    </link>
    <trkseg>
      <trkpt lat="42.221210" lon="2.820669">
        <ele>177.484</ele>
        <time>2020-10-17T12:09:44Z</time>
      </trkpt>
      <trkpt lat="42.221211" lon="2.820774">
        <ele>177.407</ele>
        <time>2020-10-17T12:09:46Z</time>
      </trkpt>
      <trkpt lat="42.221211" lon="2.820774">
        <ele>177.417</ele>
        <time>2020-10-17T12:09:46Z</time>
      </trkpt>
      <trkpt lat="42.221234" lon="2.820879">
        <ele>177.408</ele>
        <time>2020-10-17T12:09:48Z</time>
      </trkpt>
      <trkpt lat="42.221252" lon="2.820949">
        <ele>177.493</ele>
        <time>2020-10-17T12:09:49Z</time>
      </trkpt>
      <trkpt lat="42.221284" lon="2.821101">
        <ele>177.456</ele>
        <time>2020-10-17T12:09:51Z</time>
      </trkpt>
      <trkpt lat="42.221298" lon="2.821240">
        <ele>177.415</ele>
        <time>2020-10-17T12:09:53Z</time>
      </trkpt>
      <trkpt lat="42.221295" lon="2.821321">
        <ele>177.444</ele>
        <time>2020-10-17T12:09:55Z</time>
      </trkpt>
      <trkpt lat="42.221295" lon="2.821321">
        <ele>177.433</ele>
        <time>2020-10-17T12:09:55Z</time>
      </trkpt>
      <trkpt lat="42.221297" lon="2.821414">
        <ele>177.441</ele>
        <time>2020-10-17T12:10:02Z</time>
      </trkpt>
      <trkpt lat="42.221378" lon="2.821442">
        <ele>177.481</ele>
        <time>2020-10-17T12:10:04Z</time>
      </trkpt>
      <trkpt lat="42.221378" lon="2.821442">
        <ele>177.416</ele>
        <time>2020-10-17T12:10:04Z</time>
      </trkpt>
      <trkpt lat="42.221439" lon="2.821441">
        <ele>177.471</ele>
        <time>2020-10-17T12:10:05Z</time>
      </trkpt>
      <trkpt lat="42.221511" lon="2.821434">
        <ele>177.441</ele>
        <time>2020-10-17T12:10:06Z</time>
      </trkpt>
      <trkpt lat="42.221660" lon="2.821411">
        <ele>177.415</ele>
        <time>2020-10-17T12:10:08Z</time>
      </trkpt>
      <trkpt lat="42.221823" lon="2.821383">
        <ele>177.408</ele>
        <time>2020-10-17T12:10:10Z</time>
      </trkpt>
      <trkpt lat="42.222006" lon="2.821352">
        <ele>177.412</ele>
        <time>2020-10-17T12:10:12Z</time>
      </trkpt>
      <trkpt lat="42.222006" lon="2.821352">
        <ele>177.485</ele>
        <time>2020-10-17T12:10:12Z</time>
      </trkpt>
      <trkpt lat="42.222101" lon="2.821342">
        <ele>177.424</ele>
        <time>2020-10-17T12:10:13Z</time>
      </trkpt>
      <trkpt lat="42.222286" lon="2.821323">
        <ele>177.473</ele>
        <time>2020-10-17T12:10:15Z</time>
      </trkpt>
      <trkpt lat="42.222378" lon="2.821311">
        <ele>177.492</ele>
        <time>2020-10-17T12:10:16Z</time>
      </trkpt>
      <trkpt lat="42.222469" lon="2.821297">
        <ele>177.490</ele>
        <time>2020-10-17T12:10:17Z</time>
      </trkpt>
      <trkpt lat="42.222560" lon="2.821282">
        <ele>177.430</ele>
        <time>2020-10-17T12:10:18Z</time>
      </trkpt>
      <trkpt lat="42.222742" lon="2.821248">
        <ele>177.445</ele>
        <time>2020-10-17T12:10:20Z</time>
      </trkpt>
      <trkpt lat="42.222844" lon="2.821231">
        <ele>177.419</ele>
        <time>2020-10-17T12:10:21Z</time>
      </trkpt>
      <trkpt lat="42.222844" lon="2.821231">
        <ele>177.409</ele>
        <time>2020-10-17T12:10:21Z</time>
      </trkpt>
      <trkpt lat="42.222952" lon="2.821215">
        <ele>177.419</ele>
        <time>2020-10-17T12:10:22Z</time>
      </trkpt>
      <trkpt lat="42.223178" lon="2.821189">
        <ele>177.408</ele>
        <time>2020-10-17T12:10:24Z</time>
      </trkpt>
      <trkpt lat="42.223291" lon="2.821178">
        <ele>177.496</ele>
        <time>2020-10-17T12:10:25Z</time>
      </trkpt>
      <trkpt lat="42.223527" lon="2.821147">
        <ele>177.469</ele>
        <time>2020-10-17T12:10:27Z</time>
      </trkpt>
      <trkpt lat="42.223651" lon="2.821125">
        <ele>177.498</ele>
        <time>2020-10-17T12:10:28Z</time>
      </trkpt>
      <trkpt lat="42.223888" lon="2.821064">
        <ele>181.427</ele>
        <time>2020-10-17T12:10:30Z</time>
      </trkpt>
      <trkpt lat="42.223997" lon="2.821029">
        <ele>185.446</ele>
        <time>2020-10-17T12:10:31Z</time>
      </trkpt>
      <trkpt lat="42.224198" lon="2.820960">
        <ele>188.354</ele>
        <time>2020-10-17T12:10:33Z</time>
      </trkpt>
      <trkpt lat="42.224294" lon="2.820925">
        <ele>190.494</ele>
        <time>2020-10-17T12:10:34Z</time>
      </trkpt>
      <trkpt lat="42.224481" lon="2.820862">
        <ele>192.259</ele>
        <time>2020-10-17T12:10:36Z</time>
      </trkpt>
      <trkpt lat="42.224578" lon="2.820830">
        <ele>193.559</ele>
        <time>2020-10-17T12:10:37Z</time>
      </trkpt>
      <trkpt lat="42.224774" lon="2.820762">
        <ele>194.803</ele>
        <time>2020-10-17T12:10:39Z</time>
      </trkpt>
      <trkpt lat="42.224963" lon="2.820699">
        <ele>196.723</ele>
        <time>2020-10-17T12:10:41Z</time>
      </trkpt>
      <trkpt lat="42.224963" lon="2.820699">
        <ele>196.708</ele>
        <time>2020-10-17T12:10:41Z</time>
      </trkpt>
      <trkpt lat="42.225063" lon="2.820667">
        <ele>197.420</ele>
        <time>2020-10-17T12:10:42Z</time>
      </trkpt>
      <trkpt lat="42.225166" lon="2.820638">
        <ele>198.193</ele>
        <time>2020-10-17T12:10:43Z</time>
      </trkpt>
      <trkpt lat="42.225372" lon="2.820592">
        <ele>199.042</ele>
        <time>2020-10-17T12:10:45Z</time>
      </trkpt>
      <trkpt lat="42.225586" lon="2.820547">
        <ele>200.041</ele>
        <time>2020-10-17T12:10:47Z</time>
      </trkpt>
      <trkpt lat="42.225784" lon="2.820485">
        <ele>201.330</ele>
        <time>2020-10-17T12:10:49Z</time>
      </trkpt>
      <trkpt lat="42.225784" lon="2.820485">
        <ele>201.358</ele>
        <time>2020-10-17T12:10:49Z</time>
      </trkpt>
      <trkpt lat="42.225869" lon="2.820459">
        <ele>201.718</ele>
        <time>2020-10-17T12:10:50Z</time>
      </trkpt>
      <trkpt lat="42.226007" lon="2.820418">
        <ele>202.023</ele>
        <time>2020-10-17T12:10:52Z</time>
      </trkpt>
      <trkpt lat="42.226068" lon="2.820401">
        <ele>202.321</ele>
        <time>2020-10-17T12:10:53Z</time>
      </trkpt>
      <trkpt lat="42.226172" lon="2.820369">
        <ele>202.541</ele>
        <time>2020-10-17T12:10:55Z</time>
      </trkpt>
      <trkpt lat="42.226266" lon="2.820313">
        <ele>202.305</ele>
        <time>2020-10-17T12:10:57Z</time>
      </trkpt>
      <trkpt lat="42.226313" lon="2.820199">
        <ele>202.408</ele>
        <time>2020-10-17T12:10:59Z</time>
      </trkpt>
      <trkpt lat="42.226313" lon="2.820199">
        <ele>202.467</ele>
        <time>2020-10-17T12:10:59Z</time>
      </trkpt>
      <trkpt lat="42.226313" lon="2.820199">
        <ele>202.420</ele>
        <time>2020-10-17T12:10:59Z</time>
      </trkpt>
      <trkpt lat="42.226313" lon="2.820199">
        <ele>202.449</ele>
        <time>2020-10-17T12:10:59Z</time>
      </trkpt>
      <trkpt lat="42.226313" lon="2.820199">
        <ele>202.488</ele>
        <time>2020-10-17T12:10:59Z</time>
      </trkpt>
      <trkpt lat="42.226319" lon="2.820137">
        <ele>202.667</ele>
        <time>2020-10-17T12:11:00Z</time>
      </trkpt>
      <trkpt lat="42.226319" lon="2.820137">
        <ele>202.635</ele>
        <time>2020-10-17T12:11:00Z</time>
      </trkpt>
      <trkpt lat="42.226302" lon="2.820035">
        <ele>203.055</ele>
        <time>2020-10-17T12:11:02Z</time>
      </trkpt>
      <trkpt lat="42.226283" lon="2.819977">
        <ele>203.480</ele>
        <time>2020-10-17T12:11:03Z</time>
      </trkpt>
      <trkpt lat="42.226263" lon="2.819914">
        <ele>203.847</ele>
        <time>2020-10-17T12:11:04Z</time>
      </trkpt>
      <trkpt lat="42.226251" lon="2.819778">
        <ele>204.629</ele>
        <time>2020-10-17T12:11:06Z</time>
      </trkpt>
      <trkpt lat="42.226251" lon="2.819778">
        <ele>204.621</ele>
        <time>2020-10-17T12:11:06Z</time>
      </trkpt>
      <trkpt lat="42.226263" lon="2.819699">
        <ele>205.008</ele>
        <time>2020-10-17T12:11:07Z</time>
      </trkpt>
      <trkpt lat="42.226306" lon="2.819517">
        <ele>205.529</ele>
        <time>2020-10-17T12:11:09Z</time>
      </trkpt>
      <trkpt lat="42.226333" lon="2.819281">
        <ele>206.022</ele>
        <time>2020-10-17T12:11:11Z</time>
      </trkpt>
      <trkpt lat="42.226331" lon="2.819145">
        <ele>206.561</ele>
        <time>2020-10-17T12:11:12Z</time>
      </trkpt>
      <trkpt lat="42.226322" lon="2.819002">
        <ele>206.960</ele>
        <time>2020-10-17T12:11:13Z</time>
      </trkpt>
      <trkpt lat="42.226308" lon="2.818864">
        <ele>207.129</ele>
        <time>2020-10-17T12:11:14Z</time>
      </trkpt>
      <trkpt lat="42.226271" lon="2.818613">
        <ele>207.477</ele>
        <time>2020-10-17T12:11:16Z</time>
      </trkpt>
      <trkpt lat="42.226228" lon="2.818359">
        <ele>207.797</ele>
        <time>2020-10-17T12:11:18Z</time>
      </trkpt>
      <trkpt lat="42.226191" lon="2.818100">
        <ele>207.922</ele>
        <time>2020-10-17T12:11:20Z</time>
      </trkpt>
      <trkpt lat="42.226184" lon="2.817974">
        <ele>208.117</ele>
        <time>2020-10-17T12:11:21Z</time>
      </trkpt>
      <trkpt lat="42.226192" lon="2.817738">
        <ele>208.487</ele>
        <time>2020-10-17T12:11:23Z</time>
      </trkpt>
      <trkpt lat="42.226206" lon="2.817623">
        <ele>208.615</ele>
        <time>2020-10-17T12:11:24Z</time>
      </trkpt>
      <trkpt lat="42.226252" lon="2.817416">
        <ele>208.908</ele>
        <time>2020-10-17T12:11:26Z</time>
      </trkpt>
      <trkpt lat="42.226367" lon="2.817225">
        <ele>209.646</ele>
        <time>2020-10-17T12:11:28Z</time>
      </trkpt>
      <trkpt lat="42.226367" lon="2.817225">
        <ele>209.629</ele>
        <time>2020-10-17T12:11:28Z</time>
      </trkpt>
      <trkpt lat="42.226446" lon="2.817135">
        <ele>209.988</ele>
        <time>2020-10-17T12:11:29Z</time>
      </trkpt>
      <trkpt lat="42.226627" lon="2.816947">
        <ele>210.447</ele>
        <time>2020-10-17T12:11:31Z</time>
      </trkpt>
      <trkpt lat="42.226725" lon="2.816848">
        <ele>210.816</ele>
        <time>2020-10-17T12:11:32Z</time>
      </trkpt>
      <trkpt lat="42.226932" lon="2.816673">
        <ele>211.244</ele>
        <time>2020-10-17T12:11:34Z</time>
      </trkpt>
      <trkpt lat="42.227152" lon="2.816507">
        <ele>212.194</ele>
        <time>2020-10-17T12:11:36Z</time>
      </trkpt>
      <trkpt lat="42.227152" lon="2.816507">
        <ele>212.189</ele>
        <time>2020-10-17T12:11:36Z</time>
      </trkpt>
      <trkpt lat="42.227371" lon="2.816335">
        <ele>212.573</ele>
        <time>2020-10-17T12:11:38Z</time>
      </trkpt>
      <trkpt lat="42.227585" lon="2.816158">
        <ele>213.485</ele>
        <time>2020-10-17T12:11:40Z</time>
      </trkpt>
      <trkpt lat="42.227585" lon="2.816158">
        <ele>213.413</ele>
        <time>2020-10-17T12:11:40Z</time>
      </trkpt>
      <trkpt lat="42.227789" lon="2.815977">
        <ele>213.808</ele>
        <time>2020-10-17T12:11:42Z</time>
      </trkpt>
      <trkpt lat="42.227883" lon="2.815878">
        <ele>214.272</ele>
        <time>2020-10-17T12:11:43Z</time>
      </trkpt>
      <trkpt lat="42.228055" lon="2.815661">
        <ele>214.545</ele>
        <time>2020-10-17T12:11:45Z</time>
      </trkpt>
      <trkpt lat="42.228209" lon="2.815443">
        <ele>214.914</ele>
        <time>2020-10-17T12:11:47Z</time>
      </trkpt>
      <trkpt lat="42.228284" lon="2.815336">
        <ele>215.463</ele>
        <time>2020-10-17T12:11:48Z</time>
      </trkpt>
      <trkpt lat="42.228284" lon="2.815336">
        <ele>215.452</ele>
        <time>2020-10-17T12:11:48Z</time>
      </trkpt>
      <trkpt lat="42.228443" lon="2.815126">
        <ele>215.630</ele>
        <time>2020-10-17T12:11:50Z</time>
      </trkpt>
      <trkpt lat="42.228526" lon="2.815011">
        <ele>215.850</ele>
        <time>2020-10-17T12:11:51Z</time>
      </trkpt>
      <trkpt lat="42.228684" lon="2.814761">
        <ele>216.315</ele>
        <time>2020-10-17T12:11:53Z</time>
      </trkpt>
      <trkpt lat="42.228684" lon="2.814761">
        <ele>216.339</ele>
        <time>2020-10-17T12:11:53Z</time>
      </trkpt>
      <trkpt lat="42.228757" lon="2.814630">
        <ele>216.601</ele>
        <time>2020-10-17T12:11:54Z</time>
      </trkpt>
      <trkpt lat="42.228814" lon="2.814497">
        <ele>216.921</ele>
        <time>2020-10-17T12:11:55Z</time>
      </trkpt>
      <trkpt lat="42.228865" lon="2.814372">
        <ele>217.208</ele>
        <time>2020-10-17T12:11:56Z</time>
      </trkpt>
      <trkpt lat="42.228966" lon="2.814131">
        <ele>217.618</ele>
        <time>2020-10-17T12:11:58Z</time>
      </trkpt>
      <trkpt lat="42.229023" lon="2.814008">
        <ele>218.071</ele>
        <time>2020-10-17T12:11:59Z</time>
      </trkpt>
      <trkpt lat="42.229141" lon="2.813778">
        <ele>218.640</ele>
        <time>2020-10-17T12:12:01Z</time>
      </trkpt>
      <trkpt lat="42.229141" lon="2.813778">
        <ele>218.629</ele>
        <time>2020-10-17T12:12:01Z</time>
      </trkpt>
      <trkpt lat="42.229215" lon="2.813667">
        <ele>218.728</ele>
        <time>2020-10-17T12:12:02Z</time>
      </trkpt>
      <trkpt lat="42.229368" lon="2.813448">
        <ele>218.956</ele>
        <time>2020-10-17T12:12:04Z</time>
      </trkpt>
      <trkpt lat="42.229516" lon="2.813222">
        <ele>219.386</ele>
        <time>2020-10-17T12:12:06Z</time>
      </trkpt>
      <trkpt lat="42.229640" lon="2.812994">
        <ele>219.861</ele>
        <time>2020-10-17T12:12:08Z</time>
      </trkpt>
      <trkpt lat="42.229699" lon="2.812875">
        <ele>220.246</ele>
        <time>2020-10-17T12:12:09Z</time>
      </trkpt>
      <trkpt lat="42.229818" lon="2.812635">
        <ele>220.688</ele>
        <time>2020-10-17T12:12:11Z</time>
      </trkpt>
      <trkpt lat="42.229879" lon="2.812510">
        <ele>220.916</ele>
        <time>2020-10-17T12:12:12Z</time>
      </trkpt>
      <trkpt lat="42.230007" lon="2.812260">
        <ele>221.208</ele>
        <time>2020-10-17T12:12:14Z</time>
      </trkpt>
      <trkpt lat="42.230158" lon="2.812033">
        <ele>221.439</ele>
        <time>2020-10-17T12:12:16Z</time>
      </trkpt>
      <trkpt lat="42.230248" lon="2.811939">
        <ele>221.532</ele>
        <time>2020-10-17T12:12:17Z</time>
      </trkpt>
      <trkpt lat="42.230455" lon="2.811788">
        <ele>221.641</ele>
        <time>2020-10-17T12:12:19Z</time>
      </trkpt>
      <trkpt lat="42.230671" lon="2.811637">
        <ele>221.830</ele>
        <time>2020-10-17T12:12:21Z</time>
      </trkpt>
      <trkpt lat="42.230778" lon="2.811555">
        <ele>222.049</ele>
        <time>2020-10-17T12:12:22Z</time>
      </trkpt>
      <trkpt lat="42.230987" lon="2.811385">
        <ele>222.357</ele>
        <time>2020-10-17T12:12:24Z</time>
      </trkpt>
      <trkpt lat="42.231190" lon="2.811219">
        <ele>222.817</ele>
        <time>2020-10-17T12:12:26Z</time>
      </trkpt>
      <trkpt lat="42.231287" lon="2.811140">
        <ele>223.362</ele>
        <time>2020-10-17T12:12:27Z</time>
      </trkpt>
      <trkpt lat="42.231461" lon="2.810983">
        <ele>224.071</ele>
        <time>2020-10-17T12:12:29Z</time>
      </trkpt>
      <trkpt lat="42.231562" lon="2.810747">
        <ele>224.741</ele>
        <time>2020-10-17T12:12:31Z</time>
      </trkpt>
      <trkpt lat="42.231592" lon="2.810603">
        <ele>225.715</ele>
        <time>2020-10-17T12:12:32Z</time>
      </trkpt>
      <trkpt lat="42.231592" lon="2.810603">
        <ele>225.708</ele>
        <time>2020-10-17T12:12:32Z</time>
      </trkpt>
      <trkpt lat="42.231710" lon="2.810364">
        <ele>226.012</ele>
        <time>2020-10-17T12:12:34Z</time>
      </trkpt>
      <trkpt lat="42.231879" lon="2.810185">
        <ele>225.945</ele>
        <time>2020-10-17T12:12:36Z</time>
      </trkpt>
      <trkpt lat="42.231879" lon="2.810185">
        <ele>225.944</ele>
        <time>2020-10-17T12:12:36Z</time>
      </trkpt>
      <trkpt lat="42.231969" lon="2.810109">
        <ele>225.723</ele>
        <time>2020-10-17T12:12:37Z</time>
      </trkpt>
      <trkpt lat="42.232063" lon="2.810031">
        <ele>225.622</ele>
        <time>2020-10-17T12:12:38Z</time>
      </trkpt>
      <trkpt lat="42.232259" lon="2.809868">
        <ele>225.540</ele>
        <time>2020-10-17T12:12:40Z</time>
      </trkpt>
      <trkpt lat="42.232457" lon="2.809696">
        <ele>225.350</ele>
        <time>2020-10-17T12:12:42Z</time>
      </trkpt>
      <trkpt lat="42.232550" lon="2.809602">
        <ele>225.185</ele>
        <time>2020-10-17T12:12:43Z</time>
      </trkpt>
      <trkpt lat="42.232637" lon="2.809499">
        <ele>225.075</ele>
        <time>2020-10-17T12:12:44Z</time>
      </trkpt>
      <trkpt lat="42.232799" lon="2.809247">
        <ele>224.928</ele>
        <time>2020-10-17T12:12:46Z</time>
      </trkpt>
      <trkpt lat="42.232874" lon="2.809102">
        <ele>224.920</ele>
        <time>2020-10-17T12:12:47Z</time>
      </trkpt>
      <trkpt lat="42.232945" lon="2.808955">
        <ele>225.008</ele>
        <time>2020-10-17T12:12:48Z</time>
      </trkpt>
      <trkpt lat="42.232945" lon="2.808955">
        <ele>225.012</ele>
        <time>2020-10-17T12:12:48Z</time>
      </trkpt>
      <trkpt lat="42.233015" lon="2.808811">
        <ele>225.185</ele>
        <time>2020-10-17T12:12:49Z</time>
      </trkpt>
      <trkpt lat="42.233156" lon="2.808538">
        <ele>225.224</ele>
        <time>2020-10-17T12:12:51Z</time>
      </trkpt>
      <trkpt lat="42.233285" lon="2.808291">
        <ele>225.363</ele>
        <time>2020-10-17T12:12:53Z</time>
      </trkpt>
      <trkpt lat="42.233398" lon="2.808072">
        <ele>225.212</ele>
        <time>2020-10-17T12:12:55Z</time>
      </trkpt>
      <trkpt lat="42.233469" lon="2.807897">
        <ele>225.130</ele>
        <time>2020-10-17T12:12:57Z</time>
      </trkpt>
      <trkpt lat="42.233501" lon="2.807731">
        <ele>225.270</ele>
        <time>2020-10-17T12:12:59Z</time>
      </trkpt>
      <trkpt lat="42.233501" lon="2.807731">
        <ele>225.235</ele>
        <time>2020-10-17T12:12:59Z</time>
      </trkpt>
      <trkpt lat="42.233505" lon="2.807646">
        <ele>225.272</ele>
        <time>2020-10-17T12:13:00Z</time>
      </trkpt>
      <trkpt lat="42.233492" lon="2.807469">
        <ele>225.313</ele>
        <time>2020-10-17T12:13:02Z</time>
      </trkpt>
      <trkpt lat="42.233478" lon="2.807376">
        <ele>225.314</ele>
        <time>2020-10-17T12:13:03Z</time>
      </trkpt>
      <trkpt lat="42.233447" lon="2.807165">
        <ele>225.208</ele>
        <time>2020-10-17T12:13:05Z</time>
      </trkpt>
      <trkpt lat="42.233436" lon="2.807061">
        <ele>225.052</ele>
        <time>2020-10-17T12:13:06Z</time>
      </trkpt>
      <trkpt lat="42.233416" lon="2.806916">
        <ele>224.915</ele>
        <time>2020-10-17T12:13:08Z</time>
      </trkpt>
      <trkpt lat="42.233414" lon="2.806852">
        <ele>224.794</ele>
        <time>2020-10-17T12:13:11Z</time>
      </trkpt>
      <trkpt lat="42.233412" lon="2.806776">
        <ele>224.633</ele>
        <time>2020-10-17T12:13:14Z</time>
      </trkpt>
      <trkpt lat="42.233398" lon="2.806708">
        <ele>224.592</ele>
        <time>2020-10-17T12:13:16Z</time>
      </trkpt>
      <trkpt lat="42.233363" lon="2.806667">
        <ele>224.450</ele>
        <time>2020-10-17T12:13:25Z</time>
      </trkpt>
      <trkpt lat="42.233335" lon="2.806570">
        <ele>224.380</ele>
        <time>2020-10-17T12:13:47Z</time>
      </trkpt>
      <trkpt lat="42.233312" lon="2.806461">
        <ele>224.535</ele>
        <time>2020-10-17T12:13:49Z</time>
      </trkpt>
      <trkpt lat="42.233312" lon="2.806461">
        <ele>224.531</ele>
        <time>2020-10-17T12:13:49Z</time>
      </trkpt>
      <trkpt lat="42.233295" lon="2.806392">
        <ele>224.861</ele>
        <time>2020-10-17T12:13:50Z</time>
      </trkpt>
      <trkpt lat="42.233295" lon="2.806392">
        <ele>224.807</ele>
        <time>2020-10-17T12:13:50Z</time>
      </trkpt>
      <trkpt lat="42.233260" lon="2.806260">
        <ele>224.708</ele>
        <time>2020-10-17T12:13:52Z</time>
      </trkpt>
      <trkpt lat="42.233246" lon="2.806167">
        <ele>224.498</ele>
        <time>2020-10-17T12:13:54Z</time>
      </trkpt>
      <trkpt lat="42.233238" lon="2.806107">
        <ele>224.041</ele>
        <time>2020-10-17T12:13:56Z</time>
      </trkpt>
      <trkpt lat="42.233186" lon="2.806138">
        <ele>224.350</ele>
        <time>2020-10-17T12:14:13Z</time>
      </trkpt>
      <trkpt lat="42.233120" lon="2.806085">
        <ele>226.349</ele>
        <time>2020-10-17T12:15:16Z</time>
      </trkpt>
      <trkpt lat="42.233064" lon="2.806047">
        <ele>227.068</ele>
        <time>2020-10-17T12:15:18Z</time>
      </trkpt>
      <trkpt lat="42.233064" lon="2.806047">
        <ele>227.076</ele>
        <time>2020-10-17T12:15:18Z</time>
      </trkpt>
      <trkpt lat="42.233008" lon="2.806024">
        <ele>227.056</ele>
        <time>2020-10-17T12:15:20Z</time>
      </trkpt>
      <trkpt lat="42.232944" lon="2.806029">
        <ele>226.621</ele>
        <time>2020-10-17T12:15:22Z</time>
      </trkpt>
      <trkpt lat="42.232944" lon="2.806029">
        <ele>226.699</ele>
        <time>2020-10-17T12:15:22Z</time>
      </trkpt>
      <trkpt lat="42.232862" lon="2.806033">
        <ele>225.907</ele>
        <time>2020-10-17T12:15:24Z</time>
      </trkpt>
      <trkpt lat="42.232862" lon="2.806033">
        <ele>225.927</ele>
        <time>2020-10-17T12:15:24Z</time>
      </trkpt>
      <trkpt lat="42.232785" lon="2.806026">
        <ele>225.308</ele>
        <time>2020-10-17T12:15:26Z</time>
      </trkpt>
      <trkpt lat="42.232704" lon="2.806010">
        <ele>224.874</ele>
        <time>2020-10-17T12:15:28Z</time>
      </trkpt>
      <trkpt lat="42.232606" lon="2.805996">
        <ele>224.347</ele>
        <time>2020-10-17T12:15:30Z</time>
      </trkpt>
      <trkpt lat="42.232555" lon="2.805986">
        <ele>223.896</ele>
        <time>2020-10-17T12:15:31Z</time>
      </trkpt>
      <trkpt lat="42.232499" lon="2.805978">
        <ele>223.165</ele>
        <time>2020-10-17T12:15:32Z</time>
      </trkpt>
      <trkpt lat="42.232499" lon="2.805978">
        <ele>223.154</ele>
        <time>2020-10-17T12:15:32Z</time>
      </trkpt>
      <trkpt lat="42.232369" lon="2.805975">
        <ele>222.652</ele>
        <time>2020-10-17T12:15:34Z</time>
      </trkpt>
      <trkpt lat="42.232211" lon="2.805998">
        <ele>221.732</ele>
        <time>2020-10-17T12:15:36Z</time>
      </trkpt>
      <trkpt lat="42.232211" lon="2.805998">
        <ele>221.777</ele>
        <time>2020-10-17T12:15:36Z</time>
      </trkpt>
      <trkpt lat="42.232128" lon="2.806012">
        <ele>221.455</ele>
        <time>2020-10-17T12:15:37Z</time>
      </trkpt>
      <trkpt lat="42.232047" lon="2.806025">
        <ele>221.107</ele>
        <time>2020-10-17T12:15:38Z</time>
      </trkpt>
      <trkpt lat="42.231970" lon="2.806032">
        <ele>220.817</ele>
        <time>2020-10-17T12:15:39Z</time>
      </trkpt>
      <trkpt lat="42.231826" lon="2.806028">
        <ele>220.508</ele>
        <time>2020-10-17T12:15:41Z</time>
      </trkpt>
      <trkpt lat="42.231753" lon="2.806026">
        <ele>220.340</ele>
        <time>2020-10-17T12:15:42Z</time>
      </trkpt>
      <trkpt lat="42.231618" lon="2.806053">
        <ele>220.173</ele>
        <time>2020-10-17T12:15:44Z</time>
      </trkpt>
      <trkpt lat="42.231618" lon="2.806053">
        <ele>220.172</ele>
        <time>2020-10-17T12:15:44Z</time>
      </trkpt>
      <trkpt lat="42.231494" lon="2.806102">
        <ele>219.981</ele>
        <time>2020-10-17T12:15:46Z</time>
      </trkpt>
      <trkpt lat="42.231384" lon="2.806127">
        <ele>219.330</ele>
        <time>2020-10-17T12:15:48Z</time>
      </trkpt>
      <trkpt lat="42.231384" lon="2.806127">
        <ele>219.338</ele>
        <time>2020-10-17T12:15:48Z</time>
      </trkpt>
      <trkpt lat="42.231335" lon="2.806139">
        <ele>219.288</ele>
        <time>2020-10-17T12:15:49Z</time>
      </trkpt>
      <trkpt lat="42.231249" lon="2.806213">
        <ele>219.393</ele>
        <time>2020-10-17T12:15:51Z</time>
      </trkpt>
      <trkpt lat="42.231209" lon="2.806260">
        <ele>219.599</ele>
        <time>2020-10-17T12:15:52Z</time>
      </trkpt>
      <trkpt lat="42.231209" lon="2.806260">
        <ele>219.507</ele>
        <time>2020-10-17T12:15:52Z</time>
      </trkpt>
      <trkpt lat="42.231153" lon="2.806353">
        <ele>219.627</ele>
        <time>2020-10-17T12:15:54Z</time>
      </trkpt>
      <trkpt lat="42.231091" lon="2.806418">
        <ele>219.508</ele>
        <time>2020-10-17T12:15:56Z</time>
      </trkpt>
      <trkpt lat="42.231014" lon="2.806474">
        <ele>219.384</ele>
        <time>2020-10-17T12:15:58Z</time>
      </trkpt>
      <trkpt lat="42.230956" lon="2.806504">
        <ele>219.097</ele>
        <time>2020-10-17T12:15:59Z</time>
      </trkpt>
      <trkpt lat="42.230956" lon="2.806504">
        <ele>219.076</ele>
        <time>2020-10-17T12:15:59Z</time>
      </trkpt>
      <trkpt lat="42.230849" lon="2.806559">
        <ele>218.855</ele>
        <time>2020-10-17T12:16:01Z</time>
      </trkpt>
      <trkpt lat="42.230787" lon="2.806596">
        <ele>218.714</ele>
        <time>2020-10-17T12:16:02Z</time>
      </trkpt>
      <trkpt lat="42.230661" lon="2.806666">
        <ele>218.512</ele>
        <time>2020-10-17T12:16:04Z</time>
      </trkpt>
      <trkpt lat="42.230543" lon="2.806714">
        <ele>218.392</ele>
        <time>2020-10-17T12:16:06Z</time>
      </trkpt>
      <trkpt lat="42.230491" lon="2.806708">
        <ele>217.917</ele>
        <time>2020-10-17T12:16:07Z</time>
      </trkpt>
      <trkpt lat="42.230491" lon="2.806708">
        <ele>217.978</ele>
        <time>2020-10-17T12:16:07Z</time>
      </trkpt>
      <trkpt lat="42.230406" lon="2.806652">
        <ele>217.533</ele>
        <time>2020-10-17T12:16:09Z</time>
      </trkpt>
      <trkpt lat="42.230312" lon="2.806607">
        <ele>217.126</ele>
        <time>2020-10-17T12:16:11Z</time>
      </trkpt>
      <trkpt lat="42.230214" lon="2.806566">
        <ele>216.608</ele>
        <time>2020-10-17T12:16:13Z</time>
      </trkpt>
      <trkpt lat="42.230161" lon="2.806537">
        <ele>216.152</ele>
        <time>2020-10-17T12:16:14Z</time>
      </trkpt>
      <trkpt lat="42.230043" lon="2.806471">
        <ele>215.075</ele>
        <time>2020-10-17T12:16:16Z</time>
      </trkpt>
      <trkpt lat="42.230043" lon="2.806471">
        <ele>215.034</ele>
        <time>2020-10-17T12:16:16Z</time>
      </trkpt>
      <trkpt lat="42.229888" lon="2.806411">
        <ele>214.423</ele>
        <time>2020-10-17T12:16:18Z</time>
      </trkpt>
      <trkpt lat="42.229801" lon="2.806385">
        <ele>213.862</ele>
        <time>2020-10-17T12:16:19Z</time>
      </trkpt>
      <trkpt lat="42.229654" lon="2.806345">
        <ele>212.860</ele>
        <time>2020-10-17T12:16:21Z</time>
      </trkpt>
      <trkpt lat="42.229592" lon="2.806322">
        <ele>211.890</ele>
        <time>2020-10-17T12:16:22Z</time>
      </trkpt>
      <trkpt lat="42.229488" lon="2.806259">
        <ele>210.275</ele>
        <time>2020-10-17T12:16:24Z</time>
      </trkpt>
      <trkpt lat="42.229453" lon="2.806220">
        <ele>208.076</ele>
        <time>2020-10-17T12:16:25Z</time>
      </trkpt>
      <trkpt lat="42.229453" lon="2.806220">
        <ele>208.090</ele>
        <time>2020-10-17T12:16:25Z</time>
      </trkpt>
      <trkpt lat="42.229403" lon="2.806151">
        <ele>206.619</ele>
        <time>2020-10-17T12:16:27Z</time>
      </trkpt>
      <trkpt lat="42.229336" lon="2.806055">
        <ele>204.608</ele>
        <time>2020-10-17T12:16:29Z</time>
      </trkpt>
      <trkpt lat="42.229249" lon="2.805926">
        <ele>202.232</ele>
        <time>2020-10-17T12:16:31Z</time>
      </trkpt>
      <trkpt lat="42.229194" lon="2.805855">
        <ele>200.275</ele>
        <time>2020-10-17T12:16:32Z</time>
      </trkpt>
      <trkpt lat="42.229077" lon="2.805712">
        <ele>197.724</ele>
        <time>2020-10-17T12:16:34Z</time>
      </trkpt>
      <trkpt lat="42.229022" lon="2.805641">
        <ele>194.523</ele>
        <time>2020-10-17T12:16:35Z</time>
      </trkpt>
      <trkpt lat="42.229022" lon="2.805641">
        <ele>194.592</ele>
        <time>2020-10-17T12:16:35Z</time>
      </trkpt>
      <trkpt lat="42.228924" lon="2.805493">
        <ele>192.830</ele>
        <time>2020-10-17T12:16:37Z</time>
      </trkpt>
      <trkpt lat="42.228886" lon="2.805425">
        <ele>191.310</ele>
        <time>2020-10-17T12:16:38Z</time>
      </trkpt>
      <trkpt lat="42.228832" lon="2.805302">
        <ele>188.795</ele>
        <time>2020-10-17T12:16:40Z</time>
      </trkpt>
      <trkpt lat="42.228832" lon="2.805302">
        <ele>188.756</ele>
        <time>2020-10-17T12:16:40Z</time>
      </trkpt>
      <trkpt lat="42.228783" lon="2.805180">
        <ele>187.459</ele>
        <time>2020-10-17T12:16:42Z</time>
      </trkpt>
      <trkpt lat="42.228752" lon="2.805125">
        <ele>185.314</ele>
        <time>2020-10-17T12:16:43Z</time>
      </trkpt>
      <trkpt lat="42.228752" lon="2.805125">
        <ele>185.308</ele>
        <time>2020-10-17T12:16:43Z</time>
      </trkpt>
      <trkpt lat="42.228696" lon="2.805057">
        <ele>183.050</ele>
        <time>2020-10-17T12:16:45Z</time>
      </trkpt>
      <trkpt lat="42.228696" lon="2.805057">
        <ele>183.073</ele>
        <time>2020-10-17T12:16:45Z</time>
      </trkpt>
      <trkpt lat="42.228629" lon="2.805008">
        <ele>181.762</ele>
        <time>2020-10-17T12:16:47Z</time>
      </trkpt>
      <trkpt lat="42.228538" lon="2.804971">
        <ele>178.231</ele>
        <time>2020-10-17T12:16:49Z</time>
      </trkpt>
      <trkpt lat="42.228538" lon="2.804971">
        <ele>178.270</ele>
        <time>2020-10-17T12:16:49Z</time>
      </trkpt>
      <trkpt lat="42.228479" lon="2.804957">
        <ele>176.388</ele>
        <time>2020-10-17T12:16:50Z</time>
      </trkpt>
      <trkpt lat="42.228479" lon="2.804957">
        <ele>176.328</ele>
        <time>2020-10-17T12:16:50Z</time>
      </trkpt>
      <trkpt lat="42.228419" lon="2.804950">
        <ele>175.593</ele>
        <time>2020-10-17T12:16:51Z</time>
      </trkpt>
      <trkpt lat="42.228307" lon="2.804942">
        <ele>174.245</ele>
        <time>2020-10-17T12:16:53Z</time>
      </trkpt>
      <trkpt lat="42.228260" lon="2.804936">
        <ele>172.447</ele>
        <time>2020-10-17T12:16:54Z</time>
      </trkpt>
      <trkpt lat="42.228260" lon="2.804936">
        <ele>172.411</ele>
        <time>2020-10-17T12:16:54Z</time>
      </trkpt>
      <trkpt lat="42.228215" lon="2.804910">
        <ele>171.308</ele>
        <time>2020-10-17T12:16:56Z</time>
      </trkpt>
      <trkpt lat="42.228179" lon="2.804860">
        <ele>169.599</ele>
        <time>2020-10-17T12:16:58Z</time>
      </trkpt>
      <trkpt lat="42.228179" lon="2.804860">
        <ele>169.562</ele>
        <time>2020-10-17T12:16:58Z</time>
      </trkpt>
      <trkpt lat="42.228137" lon="2.804799">
        <ele>168.661</ele>
        <time>2020-10-17T12:17:00Z</time>
      </trkpt>
      <trkpt lat="42.228099" lon="2.804753">
        <ele>167.910</ele>
        <time>2020-10-17T12:17:01Z</time>
      </trkpt>
      <trkpt lat="42.228015" lon="2.804654">
        <ele>167.199</ele>
        <time>2020-10-17T12:17:03Z</time>
      </trkpt>
      <trkpt lat="42.227923" lon="2.804578">
        <ele>166.067</ele>
        <time>2020-10-17T12:17:05Z</time>
      </trkpt>
      <trkpt lat="42.227841" lon="2.804515">
        <ele>164.877</ele>
        <time>2020-10-17T12:17:07Z</time>
      </trkpt>
      <trkpt lat="42.227772" lon="2.804444">
        <ele>163.762</ele>
        <time>2020-10-17T12:17:09Z</time>
      </trkpt>
      <trkpt lat="42.227737" lon="2.804402">
        <ele>162.362</ele>
        <time>2020-10-17T12:17:10Z</time>
      </trkpt>
      <trkpt lat="42.227737" lon="2.804402">
        <ele>162.383</ele>
        <time>2020-10-17T12:17:10Z</time>
      </trkpt>
      <trkpt lat="42.227669" lon="2.804315">
        <ele>161.411</ele>
        <time>2020-10-17T12:17:12Z</time>
      </trkpt>
      <trkpt lat="42.227641" lon="2.804265">
        <ele>160.608</ele>
        <time>2020-10-17T12:17:13Z</time>
      </trkpt>
      <trkpt lat="42.227591" lon="2.804147">
        <ele>159.091</ele>
        <time>2020-10-17T12:17:15Z</time>
      </trkpt>
      <trkpt lat="42.227591" lon="2.804147">
        <ele>159.024</ele>
        <time>2020-10-17T12:17:15Z</time>
      </trkpt>
      <trkpt lat="42.227567" lon="2.804084">
        <ele>158.423</ele>
        <time>2020-10-17T12:17:16Z</time>
      </trkpt>
      <trkpt lat="42.227505" lon="2.803963">
        <ele>157.412</ele>
        <time>2020-10-17T12:17:18Z</time>
      </trkpt>
      <trkpt lat="42.227466" lon="2.803910">
        <ele>155.891</ele>
        <time>2020-10-17T12:17:19Z</time>
      </trkpt>
      <trkpt lat="42.227466" lon="2.803910">
        <ele>155.879</ele>
        <time>2020-10-17T12:17:19Z</time>
      </trkpt>
      <trkpt lat="42.227430" lon="2.803860">
        <ele>155.269</ele>
        <time>2020-10-17T12:17:20Z</time>
      </trkpt>
      <trkpt lat="42.227361" lon="2.803753">
        <ele>154.454</ele>
        <time>2020-10-17T12:17:22Z</time>
      </trkpt>
      <trkpt lat="42.227328" lon="2.803693">
        <ele>153.685</ele>
        <time>2020-10-17T12:17:23Z</time>
      </trkpt>
      <trkpt lat="42.227259" lon="2.803572">
        <ele>152.389</ele>
        <time>2020-10-17T12:17:25Z</time>
      </trkpt>
      <trkpt lat="42.227259" lon="2.803572">
        <ele>152.317</ele>
        <time>2020-10-17T12:17:25Z</time>
      </trkpt>
      <trkpt lat="42.227224" lon="2.803519">
        <ele>151.708</ele>
        <time>2020-10-17T12:17:26Z</time>
      </trkpt>
      <trkpt lat="42.227165" lon="2.803424">
        <ele>150.583</ele>
        <time>2020-10-17T12:17:28Z</time>
      </trkpt>
      <trkpt lat="42.227165" lon="2.803424">
        <ele>150.556</ele>
        <time>2020-10-17T12:17:28Z</time>
      </trkpt>
      <trkpt lat="42.227110" lon="2.803335">
        <ele>149.745</ele>
        <time>2020-10-17T12:17:30Z</time>
      </trkpt>
      <trkpt lat="42.227047" lon="2.803247">
        <ele>148.474</ele>
        <time>2020-10-17T12:17:32Z</time>
      </trkpt>
      <trkpt lat="42.227047" lon="2.803247">
        <ele>148.443</ele>
        <time>2020-10-17T12:17:32Z</time>
      </trkpt>
      <trkpt lat="42.226977" lon="2.803143">
        <ele>147.751</ele>
        <time>2020-10-17T12:17:34Z</time>
      </trkpt>
      <trkpt lat="42.226944" lon="2.803089">
        <ele>147.171</ele>
        <time>2020-10-17T12:17:35Z</time>
      </trkpt>
      <trkpt lat="42.226888" lon="2.802986">
        <ele>145.456</ele>
        <time>2020-10-17T12:17:37Z</time>
      </trkpt>
      <trkpt lat="42.226888" lon="2.802986">
        <ele>145.442</ele>
        <time>2020-10-17T12:17:37Z</time>
      </trkpt>
      <trkpt lat="42.226857" lon="2.802940">
        <ele>144.622</ele>
        <time>2020-10-17T12:17:38Z</time>
      </trkpt>
      <trkpt lat="42.226795" lon="2.802857">
        <ele>143.214</ele>
        <time>2020-10-17T12:17:40Z</time>
      </trkpt>
      <trkpt lat="42.226744" lon="2.802782">
        <ele>141.708</ele>
        <time>2020-10-17T12:17:42Z</time>
      </trkpt>
      <trkpt lat="42.226709" lon="2.802717">
        <ele>140.499</ele>
        <time>2020-10-17T12:17:44Z</time>
      </trkpt>
      <trkpt lat="42.226695" lon="2.802652">
        <ele>138.692</ele>
        <time>2020-10-17T12:17:47Z</time>
      </trkpt>
      <trkpt lat="42.226695" lon="2.802652">
        <ele>138.661</ele>
        <time>2020-10-17T12:17:47Z</time>
      </trkpt>
      <trkpt lat="42.226658" lon="2.802549">
        <ele>137.870</ele>
        <time>2020-10-17T12:17:50Z</time>
      </trkpt>
      <trkpt lat="42.226658" lon="2.802549">
        <ele>137.869</ele>
        <time>2020-10-17T12:17:50Z</time>
      </trkpt>
      <trkpt lat="42.226625" lon="2.802500">
        <ele>137.787</ele>
        <time>2020-10-17T12:17:51Z</time>
      </trkpt>
      <trkpt lat="42.226590" lon="2.802442">
        <ele>137.737</ele>
        <time>2020-10-17T12:17:52Z</time>
      </trkpt>
      <trkpt lat="42.226559" lon="2.802379">
        <ele>137.742</ele>
        <time>2020-10-17T12:17:53Z</time>
      </trkpt>
      <trkpt lat="42.226528" lon="2.802319">
        <ele>137.893</ele>
        <time>2020-10-17T12:17:54Z</time>
      </trkpt>
      <trkpt lat="42.226528" lon="2.802319">
        <ele>137.865</ele>
        <time>2020-10-17T12:17:54Z</time>
      </trkpt>
      <trkpt lat="42.226473" lon="2.802190">
        <ele>137.921</ele>
        <time>2020-10-17T12:17:56Z</time>
      </trkpt>
      <trkpt lat="42.226457" lon="2.802091">
        <ele>138.308</ele>
        <time>2020-10-17T12:17:58Z</time>
      </trkpt>
      <trkpt lat="42.226473" lon="2.801983">
        <ele>139.234</ele>
        <time>2020-10-17T12:18:00Z</time>
      </trkpt>
      <trkpt lat="42.226516" lon="2.801795">
        <ele>142.047</ele>
        <time>2020-10-17T12:18:02Z</time>
      </trkpt>
      <trkpt lat="42.226516" lon="2.801795">
        <ele>142.036</ele>
        <time>2020-10-17T12:18:02Z</time>
      </trkpt>
      <trkpt lat="42.226587" lon="2.801558">
        <ele>143.545</ele>
        <time>2020-10-17T12:18:04Z</time>
      </trkpt>
      <trkpt lat="42.226661" lon="2.801347">
        <ele>146.574</ele>
        <time>2020-10-17T12:18:06Z</time>
      </trkpt>
      <trkpt lat="42.226661" lon="2.801347">
        <ele>146.522</ele>
        <time>2020-10-17T12:18:06Z</time>
      </trkpt>
      <trkpt lat="42.226734" lon="2.801152">
        <ele>148.752</ele>
        <time>2020-10-17T12:18:08Z</time>
      </trkpt>
      <trkpt lat="42.226734" lon="2.801152">
        <ele>148.787</ele>
        <time>2020-10-17T12:18:08Z</time>
      </trkpt>
      <trkpt lat="42.226819" lon="2.800956">
        <ele>150.277</ele>
        <time>2020-10-17T12:18:10Z</time>
      </trkpt>
      <trkpt lat="42.226819" lon="2.800956">
        <ele>150.261</ele>
        <time>2020-10-17T12:18:10Z</time>
      </trkpt>
      <trkpt lat="42.226930" lon="2.800756">
        <ele>151.127</ele>
        <time>2020-10-17T12:18:12Z</time>
      </trkpt>
      <trkpt lat="42.226998" lon="2.800661">
        <ele>152.108</ele>
        <time>2020-10-17T12:18:13Z</time>
      </trkpt>
      <trkpt lat="42.227062" lon="2.800571">
        <ele>153.392</ele>
        <time>2020-10-17T12:18:14Z</time>
      </trkpt>
      <trkpt lat="42.227163" lon="2.800401">
        <ele>155.455</ele>
        <time>2020-10-17T12:18:16Z</time>
      </trkpt>
      <trkpt lat="42.227163" lon="2.800401">
        <ele>155.414</ele>
        <time>2020-10-17T12:18:16Z</time>
      </trkpt>
      <trkpt lat="42.227204" lon="2.800326">
        <ele>156.063</ele>
        <time>2020-10-17T12:18:17Z</time>
      </trkpt>
      <trkpt lat="42.227243" lon="2.800249">
        <ele>156.562</ele>
        <time>2020-10-17T12:18:18Z</time>
      </trkpt>
      <trkpt lat="42.227313" lon="2.800084">
        <ele>157.310</ele>
        <time>2020-10-17T12:18:20Z</time>
      </trkpt>
      <trkpt lat="42.227313" lon="2.800084">
        <ele>157.370</ele>
        <time>2020-10-17T12:18:20Z</time>
      </trkpt>
      <trkpt lat="42.227344" lon="2.799996">
        <ele>157.515</ele>
        <time>2020-10-17T12:18:21Z</time>
      </trkpt>
      <trkpt lat="42.227395" lon="2.799798">
        <ele>157.977</ele>
        <time>2020-10-17T12:18:23Z</time>
      </trkpt>
      <trkpt lat="42.227442" lon="2.799574">
        <ele>158.561</ele>
        <time>2020-10-17T12:18:25Z</time>
      </trkpt>
      <trkpt lat="42.227442" lon="2.799574">
        <ele>158.527</ele>
        <time>2020-10-17T12:18:25Z</time>
      </trkpt>
      <trkpt lat="42.227466" lon="2.799461">
        <ele>158.708</ele>
        <time>2020-10-17T12:18:26Z</time>
      </trkpt>
      <trkpt lat="42.227528" lon="2.799215">
        <ele>158.892</ele>
        <time>2020-10-17T12:18:28Z</time>
      </trkpt>
      <trkpt lat="42.227565" lon="2.799070">
        <ele>159.425</ele>
        <time>2020-10-17T12:18:29Z</time>
      </trkpt>
      <trkpt lat="42.227565" lon="2.799070">
        <ele>159.484</ele>
        <time>2020-10-17T12:18:29Z</time>
      </trkpt>
      <trkpt lat="42.227603" lon="2.798927">
        <ele>159.863</ele>
        <time>2020-10-17T12:18:30Z</time>
      </trkpt>
      <trkpt lat="42.227700" lon="2.798676">
        <ele>160.282</ele>
        <time>2020-10-17T12:18:32Z</time>
      </trkpt>
      <trkpt lat="42.227757" lon="2.798563">
        <ele>160.580</ele>
        <time>2020-10-17T12:18:33Z</time>
      </trkpt>
      <trkpt lat="42.227816" lon="2.798458">
        <ele>160.840</ele>
        <time>2020-10-17T12:18:34Z</time>
      </trkpt>
      <trkpt lat="42.227816" lon="2.798458">
        <ele>160.825</ele>
        <time>2020-10-17T12:18:34Z</time>
      </trkpt>
      <trkpt lat="42.227945" lon="2.798277">
        <ele>160.916</ele>
        <time>2020-10-17T12:18:36Z</time>
      </trkpt>
      <trkpt lat="42.227945" lon="2.798277">
        <ele>160.976</ele>
        <time>2020-10-17T12:18:36Z</time>
      </trkpt>
      <trkpt lat="42.228096" lon="2.798131">
        <ele>160.813</ele>
        <time>2020-10-17T12:18:38Z</time>
      </trkpt>
      <trkpt lat="42.228178" lon="2.798069">
        <ele>160.708</ele>
        <time>2020-10-17T12:18:39Z</time>
      </trkpt>
      <trkpt lat="42.228261" lon="2.798011">
        <ele>160.666</ele>
        <time>2020-10-17T12:18:40Z</time>
      </trkpt>
      <trkpt lat="42.228419" lon="2.797882">
        <ele>160.369</ele>
        <time>2020-10-17T12:18:42Z</time>
      </trkpt>
      <trkpt lat="42.228476" lon="2.797790">
        <ele>160.118</ele>
        <time>2020-10-17T12:18:43Z</time>
      </trkpt>
      <trkpt lat="42.228518" lon="2.797678">
        <ele>159.987</ele>
        <time>2020-10-17T12:18:44Z</time>
      </trkpt>
      <trkpt lat="42.228518" lon="2.797678">
        <ele>159.996</ele>
        <time>2020-10-17T12:18:44Z</time>
      </trkpt>
      <trkpt lat="42.228556" lon="2.797466">
        <ele>159.964</ele>
        <time>2020-10-17T12:18:46Z</time>
      </trkpt>
      <trkpt lat="42.228556" lon="2.797466">
        <ele>159.934</ele>
        <time>2020-10-17T12:18:46Z</time>
      </trkpt>
      <trkpt lat="42.228566" lon="2.797305">
        <ele>160.429</ele>
        <time>2020-10-17T12:18:48Z</time>
      </trkpt>
      <trkpt lat="42.228567" lon="2.797213">
        <ele>161.264</ele>
        <time>2020-10-17T12:18:50Z</time>
      </trkpt>
      <trkpt lat="42.228567" lon="2.797213">
        <ele>161.206</ele>
        <time>2020-10-17T12:18:50Z</time>
      </trkpt>
      <trkpt lat="42.228583" lon="2.797111">
        <ele>161.416</ele>
        <time>2020-10-17T12:18:53Z</time>
      </trkpt>
      <trkpt lat="42.228583" lon="2.797111">
        <ele>161.408</ele>
        <time>2020-10-17T12:18:53Z</time>
      </trkpt>
      <trkpt lat="42.228612" lon="2.796997">
        <ele>161.121</ele>
        <time>2020-10-17T12:18:55Z</time>
      </trkpt>
      <trkpt lat="42.228632" lon="2.796874">
        <ele>160.654</ele>
        <time>2020-10-17T12:18:57Z</time>
      </trkpt>
      <trkpt lat="42.228644" lon="2.796730">
        <ele>160.153</ele>
        <time>2020-10-17T12:18:59Z</time>
      </trkpt>
      <trkpt lat="42.228661" lon="2.796668">
        <ele>159.812</ele>
        <time>2020-10-17T12:19:00Z</time>
      </trkpt>
      <trkpt lat="42.228688" lon="2.796612">
        <ele>159.731</ele>
        <time>2020-10-17T12:19:01Z</time>
      </trkpt>
      <trkpt lat="42.228718" lon="2.796554">
        <ele>159.999</ele>
        <time>2020-10-17T12:19:03Z</time>
      </trkpt>
      <trkpt lat="42.228730" lon="2.796492">
        <ele>160.139</ele>
        <time>2020-10-17T12:19:05Z</time>
      </trkpt>
      <trkpt lat="42.228705" lon="2.796414">
        <ele>160.334</ele>
        <time>2020-10-17T12:19:07Z</time>
      </trkpt>
      <trkpt lat="42.228705" lon="2.796414">
        <ele>160.397</ele>
        <time>2020-10-17T12:19:07Z</time>
      </trkpt>
      <trkpt lat="42.228632" lon="2.796354">
        <ele>160.623</ele>
        <time>2020-10-17T12:19:09Z</time>
      </trkpt>
      <trkpt lat="42.228569" lon="2.796323">
        <ele>160.925</ele>
        <time>2020-10-17T12:19:10Z</time>
      </trkpt>
      <trkpt lat="42.228422" lon="2.796247">
        <ele>161.108</ele>
        <time>2020-10-17T12:19:12Z</time>
      </trkpt>
      <trkpt lat="42.228353" lon="2.796210">
        <ele>161.294</ele>
        <time>2020-10-17T12:19:13Z</time>
      </trkpt>
      <trkpt lat="42.228284" lon="2.796175">
        <ele>161.227</ele>
        <time>2020-10-17T12:19:14Z</time>
      </trkpt>
      <trkpt lat="42.228148" lon="2.796103">
        <ele>161.256</ele>
        <time>2020-10-17T12:19:16Z</time>
      </trkpt>
      <trkpt lat="42.228086" lon="2.796058">
        <ele>161.225</ele>
        <time>2020-10-17T12:19:17Z</time>
      </trkpt>
      <trkpt lat="42.228029" lon="2.796005">
        <ele>161.244</ele>
        <time>2020-10-17T12:19:18Z</time>
      </trkpt>
      <trkpt lat="42.227930" lon="2.795892">
        <ele>161.422</ele>
        <time>2020-10-17T12:19:20Z</time>
      </trkpt>
      <trkpt lat="42.227930" lon="2.795892">
        <ele>161.442</ele>
        <time>2020-10-17T12:19:20Z</time>
      </trkpt>
      <trkpt lat="42.227862" lon="2.795756">
        <ele>161.567</ele>
        <time>2020-10-17T12:19:22Z</time>
      </trkpt>
      <trkpt lat="42.227844" lon="2.795678">
        <ele>161.572</ele>
        <time>2020-10-17T12:19:23Z</time>
      </trkpt>
      <trkpt lat="42.227831" lon="2.795540">
        <ele>161.213</ele>
        <time>2020-10-17T12:19:25Z</time>
      </trkpt>
      <trkpt lat="42.227831" lon="2.795540">
        <ele>161.214</ele>
        <time>2020-10-17T12:19:25Z</time>
      </trkpt>
      <trkpt lat="42.227851" lon="2.795457">
        <ele>161.208</ele>
        <time>2020-10-17T12:19:27Z</time>
      </trkpt>
      <trkpt lat="42.227861" lon="2.795361">
        <ele>161.222</ele>
        <time>2020-10-17T12:19:29Z</time>
      </trkpt>
      <trkpt lat="42.227861" lon="2.795361">
        <ele>161.225</ele>
        <time>2020-10-17T12:19:29Z</time>
      </trkpt>
      <trkpt lat="42.227857" lon="2.795248">
        <ele>161.364</ele>
        <time>2020-10-17T12:19:31Z</time>
      </trkpt>
      <trkpt lat="42.227840" lon="2.795143">
        <ele>161.563</ele>
        <time>2020-10-17T12:19:33Z</time>
      </trkpt>
      <trkpt lat="42.227844" lon="2.795053">
        <ele>161.952</ele>
        <time>2020-10-17T12:19:35Z</time>
      </trkpt>
      <trkpt lat="42.227881" lon="2.794994">
        <ele>162.660</ele>
        <time>2020-10-17T12:19:37Z</time>
      </trkpt>
      <trkpt lat="42.227928" lon="2.794944">
        <ele>163.460</ele>
        <time>2020-10-17T12:19:39Z</time>
      </trkpt>
      <trkpt lat="42.228006" lon="2.794884">
        <ele>164.335</ele>
        <time>2020-10-17T12:19:41Z</time>
      </trkpt>
      <trkpt lat="42.228093" lon="2.794830">
        <ele>165.421</ele>
        <time>2020-10-17T12:19:43Z</time>
      </trkpt>
      <trkpt lat="42.228168" lon="2.794786">
        <ele>166.541</ele>
        <time>2020-10-17T12:19:45Z</time>
      </trkpt>
      <trkpt lat="42.228246" lon="2.794733">
        <ele>167.405</ele>
        <time>2020-10-17T12:19:47Z</time>
      </trkpt>
      <trkpt lat="42.228319" lon="2.794674">
        <ele>168.208</ele>
        <time>2020-10-17T12:19:49Z</time>
      </trkpt>
      <trkpt lat="42.228378" lon="2.794593">
        <ele>168.727</ele>
        <time>2020-10-17T12:19:51Z</time>
      </trkpt>
      <trkpt lat="42.228408" lon="2.794539">
        <ele>169.030</ele>
        <time>2020-10-17T12:19:52Z</time>
      </trkpt>
      <trkpt lat="42.228408" lon="2.794539">
        <ele>169.099</ele>
        <time>2020-10-17T12:19:52Z</time>
      </trkpt>
      <trkpt lat="42.228441" lon="2.794414">
        <ele>169.078</ele>
        <time>2020-10-17T12:19:54Z</time>
      </trkpt>
      <trkpt lat="42.228486" lon="2.794207">
        <ele>169.087</ele>
        <time>2020-10-17T12:19:56Z</time>
      </trkpt>
      <trkpt lat="42.228541" lon="2.793990">
        <ele>169.255</ele>
        <time>2020-10-17T12:19:58Z</time>
      </trkpt>
      <trkpt lat="42.228541" lon="2.793990">
        <ele>169.285</ele>
        <time>2020-10-17T12:19:58Z</time>
      </trkpt>
      <trkpt lat="42.228581" lon="2.793802">
        <ele>169.370</ele>
        <time>2020-10-17T12:20:00Z</time>
      </trkpt>
      <trkpt lat="42.228608" lon="2.793633">
        <ele>170.174</ele>
        <time>2020-10-17T12:20:02Z</time>
      </trkpt>
      <trkpt lat="42.228608" lon="2.793633">
        <ele>170.156</ele>
        <time>2020-10-17T12:20:02Z</time>
      </trkpt>
      <trkpt lat="42.228644" lon="2.793483">
        <ele>170.721</ele>
        <time>2020-10-17T12:20:04Z</time>
      </trkpt>
      <trkpt lat="42.228722" lon="2.793336">
        <ele>172.108</ele>
        <time>2020-10-17T12:20:06Z</time>
      </trkpt>
      <trkpt lat="42.228722" lon="2.793336">
        <ele>172.192</ele>
        <time>2020-10-17T12:20:06Z</time>
      </trkpt>
      <trkpt lat="42.228820" lon="2.793217">
        <ele>173.255</ele>
        <time>2020-10-17T12:20:08Z</time>
      </trkpt>
      <trkpt lat="42.228934" lon="2.793127">
        <ele>175.094</ele>
        <time>2020-10-17T12:20:10Z</time>
      </trkpt>
      <trkpt lat="42.228934" lon="2.793127">
        <ele>175.033</ele>
        <time>2020-10-17T12:20:10Z</time>
      </trkpt>
      <trkpt lat="42.229036" lon="2.793053">
        <ele>175.832</ele>
        <time>2020-10-17T12:20:12Z</time>
      </trkpt>
      <trkpt lat="42.229085" lon="2.793026">
        <ele>176.660</ele>
        <time>2020-10-17T12:20:13Z</time>
      </trkpt>
      <trkpt lat="42.229132" lon="2.793004">
        <ele>177.870</ele>
        <time>2020-10-17T12:20:14Z</time>
      </trkpt>
      <trkpt lat="42.229132" lon="2.793004">
        <ele>177.855</ele>
        <time>2020-10-17T12:20:14Z</time>
      </trkpt>
      <trkpt lat="42.229212" lon="2.792978">
        <ele>178.492</ele>
        <time>2020-10-17T12:20:16Z</time>
      </trkpt>
      <trkpt lat="42.229288" lon="2.792955">
        <ele>178.873</ele>
        <time>2020-10-17T12:20:18Z</time>
      </trkpt>
      <trkpt lat="42.229376" lon="2.792925">
        <ele>179.620</ele>
        <time>2020-10-17T12:20:20Z</time>
      </trkpt>
      <trkpt lat="42.229434" lon="2.792893">
        <ele>180.408</ele>
        <time>2020-10-17T12:20:22Z</time>
      </trkpt>
      <trkpt lat="42.229494" lon="2.792838">
        <ele>181.234</ele>
        <time>2020-10-17T12:20:24Z</time>
      </trkpt>
      <trkpt lat="42.229574" lon="2.792777">
        <ele>182.997</ele>
        <time>2020-10-17T12:20:26Z</time>
      </trkpt>
      <trkpt lat="42.229574" lon="2.792777">
        <ele>182.926</ele>
        <time>2020-10-17T12:20:26Z</time>
      </trkpt>
      <trkpt lat="42.229674" lon="2.792673">
        <ele>183.685</ele>
        <time>2020-10-17T12:20:28Z</time>
      </trkpt>
      <trkpt lat="42.229724" lon="2.792619">
        <ele>184.224</ele>
        <time>2020-10-17T12:20:29Z</time>
      </trkpt>
      <trkpt lat="42.229770" lon="2.792568">
        <ele>184.662</ele>
        <time>2020-10-17T12:20:30Z</time>
      </trkpt>
      <trkpt lat="42.229854" lon="2.792477">
        <ele>185.232</ele>
        <time>2020-10-17T12:20:32Z</time>
      </trkpt>
      <trkpt lat="42.229932" lon="2.792395">
        <ele>185.917</ele>
        <time>2020-10-17T12:20:34Z</time>
      </trkpt>
      <trkpt lat="42.229999" lon="2.792339">
        <ele>187.392</ele>
        <time>2020-10-17T12:20:36Z</time>
      </trkpt>
      <trkpt lat="42.229999" lon="2.792339">
        <ele>187.373</ele>
        <time>2020-10-17T12:20:36Z</time>
      </trkpt>
      <trkpt lat="42.230064" lon="2.792292">
        <ele>188.220</ele>
        <time>2020-10-17T12:20:38Z</time>
      </trkpt>
      <trkpt lat="42.230118" lon="2.792256">
        <ele>189.208</ele>
        <time>2020-10-17T12:20:40Z</time>
      </trkpt>
      <trkpt lat="42.230161" lon="2.792228">
        <ele>190.374</ele>
        <time>2020-10-17T12:20:42Z</time>
      </trkpt>
      <trkpt lat="42.230221" lon="2.792185">
        <ele>191.447</ele>
        <time>2020-10-17T12:20:44Z</time>
      </trkpt>
      <trkpt lat="42.230263" lon="2.792154">
        <ele>192.436</ele>
        <time>2020-10-17T12:20:45Z</time>
      </trkpt>
      <trkpt lat="42.230351" lon="2.792085">
        <ele>193.515</ele>
        <time>2020-10-17T12:20:47Z</time>
      </trkpt>
      <trkpt lat="42.230428" lon="2.792011">
        <ele>194.424</ele>
        <time>2020-10-17T12:20:49Z</time>
      </trkpt>
      <trkpt lat="42.230489" lon="2.791921">
        <ele>195.322</ele>
        <time>2020-10-17T12:20:51Z</time>
      </trkpt>
      <trkpt lat="42.230545" lon="2.791814">
        <ele>196.742</ele>
        <time>2020-10-17T12:20:53Z</time>
      </trkpt>
      <trkpt lat="42.230545" lon="2.791814">
        <ele>196.727</ele>
        <time>2020-10-17T12:20:53Z</time>
      </trkpt>
      <trkpt lat="42.230583" lon="2.791758">
        <ele>197.038</ele>
        <time>2020-10-17T12:20:54Z</time>
      </trkpt>
      <trkpt lat="42.230660" lon="2.791632">
        <ele>197.370</ele>
        <time>2020-10-17T12:20:56Z</time>
      </trkpt>
      <trkpt lat="42.230660" lon="2.791632">
        <ele>197.317</ele>
        <time>2020-10-17T12:20:56Z</time>
      </trkpt>
      <trkpt lat="42.230711" lon="2.791491">
        <ele>197.608</ele>
        <time>2020-10-17T12:20:58Z</time>
      </trkpt>
      <trkpt lat="42.230711" lon="2.791491">
        <ele>197.658</ele>
        <time>2020-10-17T12:20:58Z</time>
      </trkpt>
      <trkpt lat="42.230739" lon="2.791353">
        <ele>197.861</ele>
        <time>2020-10-17T12:21:00Z</time>
      </trkpt>
      <trkpt lat="42.230751" lon="2.791283">
        <ele>198.190</ele>
        <time>2020-10-17T12:21:01Z</time>
      </trkpt>
      <trkpt lat="42.230763" lon="2.791216">
        <ele>198.379</ele>
        <time>2020-10-17T12:21:02Z</time>
      </trkpt>
      <trkpt lat="42.230795" lon="2.791089">
        <ele>198.568</ele>
        <time>2020-10-17T12:21:04Z</time>
      </trkpt>
      <trkpt lat="42.230815" lon="2.791024">
        <ele>198.756</ele>
        <time>2020-10-17T12:21:05Z</time>
      </trkpt>
      <trkpt lat="42.230835" lon="2.790962">
        <ele>198.976</ele>
        <time>2020-10-17T12:21:06Z</time>
      </trkpt>
      <trkpt lat="42.230869" lon="2.790847">
        <ele>199.181</ele>
        <time>2020-10-17T12:21:08Z</time>
      </trkpt>
      <trkpt lat="42.230889" lon="2.790764">
        <ele>199.582</ele>
        <time>2020-10-17T12:21:10Z</time>
      </trkpt>
      <trkpt lat="42.230889" lon="2.790764">
        <ele>199.543</ele>
        <time>2020-10-17T12:21:10Z</time>
      </trkpt>
      <trkpt lat="42.230900" lon="2.790688">
        <ele>199.817</ele>
        <time>2020-10-17T12:21:12Z</time>
      </trkpt>
      <trkpt lat="42.230922" lon="2.790591">
        <ele>200.208</ele>
        <time>2020-10-17T12:21:14Z</time>
      </trkpt>
      <trkpt lat="42.230951" lon="2.790492">
        <ele>200.623</ele>
        <time>2020-10-17T12:21:15Z</time>
      </trkpt>
      <trkpt lat="42.230992" lon="2.790381">
        <ele>201.226</ele>
        <time>2020-10-17T12:21:17Z</time>
      </trkpt>
      <trkpt lat="42.231010" lon="2.790302">
        <ele>202.085</ele>
        <time>2020-10-17T12:21:19Z</time>
      </trkpt>
      <trkpt lat="42.231013" lon="2.790209">
        <ele>203.124</ele>
        <time>2020-10-17T12:21:21Z</time>
      </trkpt>
      <trkpt lat="42.231013" lon="2.790209">
        <ele>203.123</ele>
        <time>2020-10-17T12:21:21Z</time>
      </trkpt>
      <trkpt lat="42.231005" lon="2.790096">
        <ele>204.081</ele>
        <time>2020-10-17T12:21:23Z</time>
      </trkpt>
      <trkpt lat="42.231005" lon="2.790096">
        <ele>204.031</ele>
        <time>2020-10-17T12:21:23Z</time>
      </trkpt>
      <trkpt lat="42.231022" lon="2.789989">
        <ele>205.076</ele>
        <time>2020-10-17T12:21:25Z</time>
      </trkpt>
      <trkpt lat="42.231022" lon="2.789989">
        <ele>205.031</ele>
        <time>2020-10-17T12:21:25Z</time>
      </trkpt>
      <trkpt lat="42.231066" lon="2.789906">
        <ele>205.661</ele>
        <time>2020-10-17T12:21:27Z</time>
      </trkpt>
      <trkpt lat="42.231096" lon="2.789856">
        <ele>206.207</ele>
        <time>2020-10-17T12:21:28Z</time>
      </trkpt>
      <trkpt lat="42.231135" lon="2.789801">
        <ele>206.708</ele>
        <time>2020-10-17T12:21:29Z</time>
      </trkpt>
      <trkpt lat="42.231214" lon="2.789697">
        <ele>207.248</ele>
        <time>2020-10-17T12:21:31Z</time>
      </trkpt>
      <trkpt lat="42.231252" lon="2.789647">
        <ele>207.771</ele>
        <time>2020-10-17T12:21:32Z</time>
      </trkpt>
      <trkpt lat="42.231325" lon="2.789555">
        <ele>208.950</ele>
        <time>2020-10-17T12:21:34Z</time>
      </trkpt>
      <trkpt lat="42.231325" lon="2.789555">
        <ele>208.939</ele>
        <time>2020-10-17T12:21:34Z</time>
      </trkpt>
      <trkpt lat="42.231362" lon="2.789510">
        <ele>209.548</ele>
        <time>2020-10-17T12:21:35Z</time>
      </trkpt>
      <trkpt lat="42.231402" lon="2.789470">
        <ele>210.066</ele>
        <time>2020-10-17T12:21:36Z</time>
      </trkpt>
      <trkpt lat="42.231446" lon="2.789436">
        <ele>210.696</ele>
        <time>2020-10-17T12:21:37Z</time>
      </trkpt>
      <trkpt lat="42.231534" lon="2.789379">
        <ele>211.821</ele>
        <time>2020-10-17T12:21:39Z</time>
      </trkpt>
      <trkpt lat="42.231534" lon="2.789379">
        <ele>211.846</ele>
        <time>2020-10-17T12:21:39Z</time>
      </trkpt>
      <trkpt lat="42.231615" lon="2.789339">
        <ele>212.788</ele>
        <time>2020-10-17T12:21:41Z</time>
      </trkpt>
      <trkpt lat="42.231615" lon="2.789339">
        <ele>212.716</ele>
        <time>2020-10-17T12:21:41Z</time>
      </trkpt>
      <trkpt lat="42.231703" lon="2.789272">
        <ele>213.408</ele>
        <time>2020-10-17T12:21:43Z</time>
      </trkpt>
      <trkpt lat="42.231747" lon="2.789236">
        <ele>214.069</ele>
        <time>2020-10-17T12:21:44Z</time>
      </trkpt>
      <trkpt lat="42.231818" lon="2.789195">
        <ele>214.752</ele>
        <time>2020-10-17T12:21:46Z</time>
      </trkpt>
      <trkpt lat="42.231883" lon="2.789160">
        <ele>215.531</ele>
        <time>2020-10-17T12:21:48Z</time>
      </trkpt>
      <trkpt lat="42.231946" lon="2.789104">
        <ele>216.290</ele>
        <time>2020-10-17T12:21:50Z</time>
      </trkpt>
      <trkpt lat="42.232023" lon="2.789019">
        <ele>217.189</ele>
        <time>2020-10-17T12:21:52Z</time>
      </trkpt>
      <trkpt lat="42.232069" lon="2.788966">
        <ele>217.797</ele>
        <time>2020-10-17T12:21:53Z</time>
      </trkpt>
      <trkpt lat="42.232109" lon="2.788913">
        <ele>218.057</ele>
        <time>2020-10-17T12:21:54Z</time>
      </trkpt>
      <trkpt lat="42.232169" lon="2.788819">
        <ele>218.332</ele>
        <time>2020-10-17T12:21:56Z</time>
      </trkpt>
      <trkpt lat="42.232208" lon="2.788742">
        <ele>218.598</ele>
        <time>2020-10-17T12:21:58Z</time>
      </trkpt>
      <trkpt lat="42.232258" lon="2.788671">
        <ele>218.815</ele>
        <time>2020-10-17T12:22:00Z</time>
      </trkpt>
      <trkpt lat="42.232258" lon="2.788671">
        <ele>218.826</ele>
        <time>2020-10-17T12:22:00Z</time>
      </trkpt>
      <trkpt lat="42.232311" lon="2.788611">
        <ele>219.208</ele>
        <time>2020-10-17T12:22:02Z</time>
      </trkpt>
      <trkpt lat="42.232385" lon="2.788574">
        <ele>220.294</ele>
        <time>2020-10-17T12:22:04Z</time>
      </trkpt>
      <trkpt lat="42.232385" lon="2.788574">
        <ele>220.217</ele>
        <time>2020-10-17T12:22:04Z</time>
      </trkpt>
      <trkpt lat="42.232464" lon="2.788543">
        <ele>220.856</ele>
        <time>2020-10-17T12:22:06Z</time>
      </trkpt>
      <trkpt lat="42.232536" lon="2.788483">
        <ele>222.175</ele>
        <time>2020-10-17T12:22:08Z</time>
      </trkpt>
      <trkpt lat="42.232536" lon="2.788483">
        <ele>222.164</ele>
        <time>2020-10-17T12:22:08Z</time>
      </trkpt>
      <trkpt lat="42.232579" lon="2.788391">
        <ele>222.732</ele>
        <time>2020-10-17T12:22:10Z</time>
      </trkpt>
      <trkpt lat="42.232590" lon="2.788263">
        <ele>223.952</ele>
        <time>2020-10-17T12:22:12Z</time>
      </trkpt>
      <trkpt lat="42.232590" lon="2.788263">
        <ele>223.967</ele>
        <time>2020-10-17T12:22:12Z</time>
      </trkpt>
      <trkpt lat="42.232595" lon="2.788202">
        <ele>224.412</ele>
        <time>2020-10-17T12:22:13Z</time>
      </trkpt>
      <trkpt lat="42.232611" lon="2.788076">
        <ele>225.332</ele>
        <time>2020-10-17T12:22:15Z</time>
      </trkpt>
      <trkpt lat="42.232626" lon="2.787965">
        <ele>227.305</ele>
        <time>2020-10-17T12:22:17Z</time>
      </trkpt>
      <trkpt lat="42.232626" lon="2.787965">
        <ele>227.308</ele>
        <time>2020-10-17T12:22:17Z</time>
      </trkpt>
      <trkpt lat="42.232639" lon="2.787865">
        <ele>228.326</ele>
        <time>2020-10-17T12:22:19Z</time>
      </trkpt>
      <trkpt lat="42.232636" lon="2.787761">
        <ele>229.859</ele>
        <time>2020-10-17T12:22:21Z</time>
      </trkpt>
      <trkpt lat="42.232636" lon="2.787761">
        <ele>229.838</ele>
        <time>2020-10-17T12:22:21Z</time>
      </trkpt>
      <trkpt lat="42.232633" lon="2.787654">
        <ele>230.617</ele>
        <time>2020-10-17T12:22:23Z</time>
      </trkpt>
      <trkpt lat="42.232634" lon="2.787548">
        <ele>232.126</ele>
        <time>2020-10-17T12:22:25Z</time>
      </trkpt>
      <trkpt lat="42.232634" lon="2.787548">
        <ele>232.154</ele>
        <time>2020-10-17T12:22:25Z</time>
      </trkpt>
      <trkpt lat="42.232644" lon="2.787436">
        <ele>232.764</ele>
        <time>2020-10-17T12:22:27Z</time>
      </trkpt>
      <trkpt lat="42.232683" lon="2.787315">
        <ele>233.759</ele>
        <time>2020-10-17T12:22:29Z</time>
      </trkpt>
      <trkpt lat="42.232683" lon="2.787315">
        <ele>233.797</ele>
        <time>2020-10-17T12:22:29Z</time>
      </trkpt>
      <trkpt lat="42.232706" lon="2.787246">
        <ele>233.923</ele>
        <time>2020-10-17T12:22:30Z</time>
      </trkpt>
      <trkpt lat="42.232734" lon="2.787175">
        <ele>234.025</ele>
        <time>2020-10-17T12:22:31Z</time>
      </trkpt>
      <trkpt lat="42.232794" lon="2.787055">
        <ele>234.608</ele>
        <time>2020-10-17T12:22:33Z</time>
      </trkpt>
      <trkpt lat="42.232794" lon="2.787055">
        <ele>234.684</ele>
        <time>2020-10-17T12:22:33Z</time>
      </trkpt>
      <trkpt lat="42.232855" lon="2.786943">
        <ele>234.977</ele>
        <time>2020-10-17T12:22:35Z</time>
      </trkpt>
      <trkpt lat="42.232924" lon="2.786840">
        <ele>234.846</ele>
        <time>2020-10-17T12:22:37Z</time>
      </trkpt>
      <trkpt lat="42.232924" lon="2.786840">
        <ele>234.865</ele>
        <time>2020-10-17T12:22:37Z</time>
      </trkpt>
      <trkpt lat="42.232967" lon="2.786794">
        <ele>234.674</ele>
        <time>2020-10-17T12:22:38Z</time>
      </trkpt>
      <trkpt lat="42.233066" lon="2.786706">
        <ele>234.452</ele>
        <time>2020-10-17T12:22:40Z</time>
      </trkpt>
      <trkpt lat="42.233162" lon="2.786628">
        <ele>235.172</ele>
        <time>2020-10-17T12:22:42Z</time>
      </trkpt>
      <trkpt lat="42.233162" lon="2.786628">
        <ele>235.177</ele>
        <time>2020-10-17T12:22:42Z</time>
      </trkpt>
      <trkpt lat="42.233250" lon="2.786565">
        <ele>235.599</ele>
        <time>2020-10-17T12:22:44Z</time>
      </trkpt>
      <trkpt lat="42.233295" lon="2.786536">
        <ele>236.007</ele>
        <time>2020-10-17T12:22:45Z</time>
      </trkpt>
      <trkpt lat="42.233389" lon="2.786480">
        <ele>236.527</ele>
        <time>2020-10-17T12:22:47Z</time>
      </trkpt>
      <trkpt lat="42.233434" lon="2.786454">
        <ele>237.008</ele>
        <time>2020-10-17T12:22:48Z</time>
      </trkpt>
      <trkpt lat="42.233502" lon="2.786403">
        <ele>237.654</ele>
        <time>2020-10-17T12:22:50Z</time>
      </trkpt>
      <trkpt lat="42.233568" lon="2.786352">
        <ele>238.747</ele>
        <time>2020-10-17T12:22:52Z</time>
      </trkpt>
      <trkpt lat="42.233568" lon="2.786352">
        <ele>238.786</ele>
        <time>2020-10-17T12:22:52Z</time>
      </trkpt>
      <trkpt lat="42.233622" lon="2.786301">
        <ele>239.345</ele>
        <time>2020-10-17T12:22:54Z</time>
      </trkpt>
      <trkpt lat="42.233659" lon="2.786265">
        <ele>240.294</ele>
        <time>2020-10-17T12:22:57Z</time>
      </trkpt>
      <trkpt lat="42.233684" lon="2.786206">
        <ele>241.572</ele>
        <time>2020-10-17T12:23:00Z</time>
      </trkpt>
      <trkpt lat="42.233715" lon="2.786135">
        <ele>242.982</ele>
        <time>2020-10-17T12:23:02Z</time>
      </trkpt>
      <trkpt lat="42.233737" lon="2.786065">
        <ele>244.487</ele>
        <time>2020-10-17T12:23:04Z</time>
      </trkpt>
      <trkpt lat="42.233748" lon="2.785968">
        <ele>245.735</ele>
        <time>2020-10-17T12:23:06Z</time>
      </trkpt>
      <trkpt lat="42.233768" lon="2.785865">
        <ele>246.786</ele>
        <time>2020-10-17T12:23:08Z</time>
      </trkpt>
      <trkpt lat="42.233809" lon="2.785762">
        <ele>247.614</ele>
        <time>2020-10-17T12:23:10Z</time>
      </trkpt>
      <trkpt lat="42.233852" lon="2.785655">
        <ele>248.608</ele>
        <time>2020-10-17T12:23:12Z</time>
      </trkpt>
      <trkpt lat="42.233896" lon="2.785518">
        <ele>250.048</ele>
        <time>2020-10-17T12:23:14Z</time>
      </trkpt>
      <trkpt lat="42.233896" lon="2.785518">
        <ele>250.021</ele>
        <time>2020-10-17T12:23:14Z</time>
      </trkpt>
      <trkpt lat="42.233917" lon="2.785449">
        <ele>250.510</ele>
        <time>2020-10-17T12:23:15Z</time>
      </trkpt>
      <trkpt lat="42.233960" lon="2.785328">
        <ele>251.289</ele>
        <time>2020-10-17T12:23:17Z</time>
      </trkpt>
      <trkpt lat="42.234009" lon="2.785224">
        <ele>252.448</ele>
        <time>2020-10-17T12:23:19Z</time>
      </trkpt>
      <trkpt lat="42.234009" lon="2.785224">
        <ele>252.426</ele>
        <time>2020-10-17T12:23:19Z</time>
      </trkpt>
      <trkpt lat="42.234025" lon="2.785108">
        <ele>252.716</ele>
        <time>2020-10-17T12:23:21Z</time>
      </trkpt>
      <trkpt lat="42.234035" lon="2.784992">
        <ele>253.231</ele>
        <time>2020-10-17T12:23:23Z</time>
      </trkpt>
      <trkpt lat="42.234035" lon="2.784992">
        <ele>253.217</ele>
        <time>2020-10-17T12:23:23Z</time>
      </trkpt>
      <trkpt lat="42.234021" lon="2.784896">
        <ele>253.287</ele>
        <time>2020-10-17T12:23:25Z</time>
      </trkpt>
      <trkpt lat="42.233993" lon="2.784804">
        <ele>253.315</ele>
        <time>2020-10-17T12:23:27Z</time>
      </trkpt>
      <trkpt lat="42.233993" lon="2.784804">
        <ele>253.308</ele>
        <time>2020-10-17T12:23:27Z</time>
      </trkpt>
      <trkpt lat="42.233979" lon="2.784702">
        <ele>253.286</ele>
        <time>2020-10-17T12:23:29Z</time>
      </trkpt>
      <trkpt lat="42.233979" lon="2.784702">
        <ele>253.299</ele>
        <time>2020-10-17T12:23:29Z</time>
      </trkpt>
      <trkpt lat="42.233979" lon="2.784568">
        <ele>253.188</ele>
        <time>2020-10-17T12:23:31Z</time>
      </trkpt>
      <trkpt lat="42.233984" lon="2.784499">
        <ele>253.047</ele>
        <time>2020-10-17T12:23:32Z</time>
      </trkpt>
      <trkpt lat="42.233984" lon="2.784499">
        <ele>253.096</ele>
        <time>2020-10-17T12:23:32Z</time>
      </trkpt>
      <trkpt lat="42.233988" lon="2.784423">
        <ele>253.024</ele>
        <time>2020-10-17T12:23:33Z</time>
      </trkpt>
      <trkpt lat="42.233993" lon="2.784276">
        <ele>253.024</ele>
        <time>2020-10-17T12:23:35Z</time>
      </trkpt>
      <trkpt lat="42.233999" lon="2.784176">
        <ele>253.339</ele>
        <time>2020-10-17T12:23:37Z</time>
      </trkpt>
      <trkpt lat="42.234015" lon="2.784090">
        <ele>253.514</ele>
        <time>2020-10-17T12:23:39Z</time>
      </trkpt>
      <trkpt lat="42.234044" lon="2.783995">
        <ele>253.554</ele>
        <time>2020-10-17T12:23:41Z</time>
      </trkpt>
      <trkpt lat="42.234044" lon="2.783995">
        <ele>253.509</ele>
        <time>2020-10-17T12:23:41Z</time>
      </trkpt>
      <trkpt lat="42.234100" lon="2.783910">
        <ele>253.708</ele>
        <time>2020-10-17T12:23:43Z</time>
      </trkpt>
      <trkpt lat="42.234175" lon="2.783848">
        <ele>254.666</ele>
        <time>2020-10-17T12:23:45Z</time>
      </trkpt>
      <trkpt lat="42.234175" lon="2.783848">
        <ele>254.669</ele>
        <time>2020-10-17T12:23:45Z</time>
      </trkpt>
      <trkpt lat="42.234232" lon="2.783808">
        <ele>255.148</ele>
        <time>2020-10-17T12:23:47Z</time>
      </trkpt>
      <trkpt lat="42.234277" lon="2.783778">
        <ele>256.027</ele>
        <time>2020-10-17T12:23:50Z</time>
      </trkpt>
      <trkpt lat="42.234328" lon="2.783752">
        <ele>257.176</ele>
        <time>2020-10-17T12:23:53Z</time>
      </trkpt>
      <trkpt lat="42.234363" lon="2.783710">
        <ele>258.074</ele>
        <time>2020-10-17T12:23:55Z</time>
      </trkpt>
      <trkpt lat="42.234401" lon="2.783657">
        <ele>258.914</ele>
        <time>2020-10-17T12:23:57Z</time>
      </trkpt>
      <trkpt lat="42.234452" lon="2.783616">
        <ele>260.029</ele>
        <time>2020-10-17T12:23:59Z</time>
      </trkpt>
      <trkpt lat="42.234514" lon="2.783582">
        <ele>260.955</ele>
        <time>2020-10-17T12:24:01Z</time>
      </trkpt>
      <trkpt lat="42.234573" lon="2.783551">
        <ele>261.707</ele>
        <time>2020-10-17T12:24:03Z</time>
      </trkpt>
      <trkpt lat="42.234635" lon="2.783535">
        <ele>262.517</ele>
        <time>2020-10-17T12:24:05Z</time>
      </trkpt>
      <trkpt lat="42.234698" lon="2.783518">
        <ele>263.208</ele>
        <time>2020-10-17T12:24:07Z</time>
      </trkpt>
      <trkpt lat="42.234763" lon="2.783476">
        <ele>264.160</ele>
        <time>2020-10-17T12:24:09Z</time>
      </trkpt>
      <trkpt lat="42.234816" lon="2.783432">
        <ele>265.143</ele>
        <time>2020-10-17T12:24:11Z</time>
      </trkpt>
      <trkpt lat="42.234864" lon="2.783395">
        <ele>266.032</ele>
        <time>2020-10-17T12:24:13Z</time>
      </trkpt>
      <trkpt lat="42.234910" lon="2.783352">
        <ele>267.131</ele>
        <time>2020-10-17T12:24:15Z</time>
      </trkpt>
      <trkpt lat="42.234955" lon="2.783284">
        <ele>268.140</ele>
        <time>2020-10-17T12:24:17Z</time>
      </trkpt>
      <trkpt lat="42.234998" lon="2.783215">
        <ele>269.188</ele>
        <time>2020-10-17T12:24:19Z</time>
      </trkpt>
      <trkpt lat="42.235039" lon="2.783148">
        <ele>270.318</ele>
        <time>2020-10-17T12:24:21Z</time>
      </trkpt>
      <trkpt lat="42.235072" lon="2.783091">
        <ele>271.643</ele>
        <time>2020-10-17T12:24:23Z</time>
      </trkpt>
      <trkpt lat="42.235110" lon="2.783039">
        <ele>274.177</ele>
        <time>2020-10-17T12:24:26Z</time>
      </trkpt>
      <trkpt lat="42.235110" lon="2.783039">
        <ele>274.161</ele>
        <time>2020-10-17T12:24:26Z</time>
      </trkpt>
      <trkpt lat="42.235147" lon="2.782996">
        <ele>275.327</ele>
        <time>2020-10-17T12:24:29Z</time>
      </trkpt>
      <trkpt lat="42.235168" lon="2.782905">
        <ele>276.708</ele>
        <time>2020-10-17T12:24:32Z</time>
      </trkpt>
      <trkpt lat="42.235160" lon="2.782840">
        <ele>277.842</ele>
        <time>2020-10-17T12:24:34Z</time>
      </trkpt>
      <trkpt lat="42.235162" lon="2.782761">
        <ele>278.645</ele>
        <time>2020-10-17T12:24:37Z</time>
      </trkpt>
      <trkpt lat="42.235177" lon="2.782673">
        <ele>279.294</ele>
        <time>2020-10-17T12:24:40Z</time>
      </trkpt>
      <trkpt lat="42.235206" lon="2.782592">
        <ele>280.243</ele>
        <time>2020-10-17T12:24:43Z</time>
      </trkpt>
      <trkpt lat="42.235206" lon="2.782592">
        <ele>280.252</ele>
        <time>2020-10-17T12:24:43Z</time>
      </trkpt>
      <trkpt lat="42.235227" lon="2.782529">
        <ele>280.680</ele>
        <time>2020-10-17T12:24:45Z</time>
      </trkpt>
      <trkpt lat="42.235239" lon="2.782468">
        <ele>281.010</ele>
        <time>2020-10-17T12:24:47Z</time>
      </trkpt>
      <trkpt lat="42.235216" lon="2.782386">
        <ele>281.365</ele>
        <time>2020-10-17T12:24:50Z</time>
      </trkpt>
      <trkpt lat="42.235208" lon="2.782303">
        <ele>281.785</ele>
        <time>2020-10-17T12:24:52Z</time>
      </trkpt>
      <trkpt lat="42.235208" lon="2.782303">
        <ele>281.789</ele>
        <time>2020-10-17T12:24:52Z</time>
      </trkpt>
      <trkpt lat="42.235215" lon="2.782201">
        <ele>281.917</ele>
        <time>2020-10-17T12:24:54Z</time>
      </trkpt>
      <trkpt lat="42.235254" lon="2.782138">
        <ele>282.508</ele>
        <time>2020-10-17T12:24:56Z</time>
      </trkpt>
      <trkpt lat="42.235254" lon="2.782138">
        <ele>282.513</ele>
        <time>2020-10-17T12:24:56Z</time>
      </trkpt>
      <trkpt lat="42.235298" lon="2.782093">
        <ele>282.936</ele>
        <time>2020-10-17T12:24:58Z</time>
      </trkpt>
      <trkpt lat="42.235345" lon="2.782047">
        <ele>283.815</ele>
        <time>2020-10-17T12:25:00Z</time>
      </trkpt>
      <trkpt lat="42.235345" lon="2.782047">
        <ele>283.894</ele>
        <time>2020-10-17T12:25:00Z</time>
      </trkpt>
      <trkpt lat="42.235389" lon="2.782001">
        <ele>284.363</ele>
        <time>2020-10-17T12:25:02Z</time>
      </trkpt>
      <trkpt lat="42.235440" lon="2.781936">
        <ele>285.111</ele>
        <time>2020-10-17T12:25:04Z</time>
      </trkpt>
      <trkpt lat="42.235440" lon="2.781936">
        <ele>285.171</ele>
        <time>2020-10-17T12:25:04Z</time>
      </trkpt>
      <trkpt lat="42.235510" lon="2.781858">
        <ele>285.486</ele>
        <time>2020-10-17T12:25:06Z</time>
      </trkpt>
      <trkpt lat="42.235547" lon="2.781823">
        <ele>286.079</ele>
        <time>2020-10-17T12:25:07Z</time>
      </trkpt>
      <trkpt lat="42.235547" lon="2.781823">
        <ele>286.005</ele>
        <time>2020-10-17T12:25:07Z</time>
      </trkpt>
      <trkpt lat="42.235588" lon="2.781792">
        <ele>286.325</ele>
        <time>2020-10-17T12:25:08Z</time>
      </trkpt>
      <trkpt lat="42.235643" lon="2.781754">
        <ele>286.608</ele>
        <time>2020-10-17T12:25:09Z</time>
      </trkpt>
      <trkpt lat="42.235706" lon="2.781696">
        <ele>287.272</ele>
        <time>2020-10-17T12:25:11Z</time>
      </trkpt>
      <trkpt lat="42.235771" lon="2.781617">
        <ele>288.025</ele>
        <time>2020-10-17T12:25:13Z</time>
      </trkpt>
      <trkpt lat="42.235856" lon="2.781513">
        <ele>288.864</ele>
        <time>2020-10-17T12:25:15Z</time>
      </trkpt>
      <trkpt lat="42.235910" lon="2.781449">
        <ele>289.423</ele>
        <time>2020-10-17T12:25:17Z</time>
      </trkpt>
      <trkpt lat="42.235970" lon="2.781372">
        <ele>289.872</ele>
        <time>2020-10-17T12:25:19Z</time>
      </trkpt>
      <trkpt lat="42.236007" lon="2.781314">
        <ele>290.180</ele>
        <time>2020-10-17T12:25:21Z</time>
      </trkpt>
      <trkpt lat="42.236038" lon="2.781243">
        <ele>290.420</ele>
        <time>2020-10-17T12:25:24Z</time>
      </trkpt>
      <trkpt lat="42.236069" lon="2.781177">
        <ele>290.765</ele>
        <time>2020-10-17T12:25:26Z</time>
      </trkpt>
      <trkpt lat="42.236109" lon="2.781099">
        <ele>291.264</ele>
        <time>2020-10-17T12:25:28Z</time>
      </trkpt>
      <trkpt lat="42.236142" lon="2.781025">
        <ele>291.906</ele>
        <time>2020-10-17T12:25:30Z</time>
      </trkpt>
      <trkpt lat="42.236142" lon="2.781025">
        <ele>291.916</ele>
        <time>2020-10-17T12:25:30Z</time>
      </trkpt>
      <trkpt lat="42.236174" lon="2.780972">
        <ele>292.308</ele>
        <time>2020-10-17T12:25:32Z</time>
      </trkpt>
      <trkpt lat="42.236212" lon="2.780921">
        <ele>292.931</ele>
        <time>2020-10-17T12:25:34Z</time>
      </trkpt>
      <trkpt lat="42.236212" lon="2.780921">
        <ele>292.994</ele>
        <time>2020-10-17T12:25:34Z</time>
      </trkpt>
      <trkpt lat="42.236247" lon="2.780824">
        <ele>293.383</ele>
        <time>2020-10-17T12:25:36Z</time>
      </trkpt>
      <trkpt lat="42.236257" lon="2.780764">
        <ele>293.692</ele>
        <time>2020-10-17T12:25:37Z</time>
      </trkpt>
      <trkpt lat="42.236263" lon="2.780662">
        <ele>294.121</ele>
        <time>2020-10-17T12:25:39Z</time>
      </trkpt>
      <trkpt lat="42.236257" lon="2.780570">
        <ele>294.529</ele>
        <time>2020-10-17T12:25:41Z</time>
      </trkpt>
      <trkpt lat="42.236259" lon="2.780498">
        <ele>295.259</ele>
        <time>2020-10-17T12:25:43Z</time>
      </trkpt>
      <trkpt lat="42.236259" lon="2.780498">
        <ele>295.244</ele>
        <time>2020-10-17T12:25:43Z</time>
      </trkpt>
      <trkpt lat="42.236268" lon="2.780418">
        <ele>295.764</ele>
        <time>2020-10-17T12:25:46Z</time>
      </trkpt>
      <trkpt lat="42.236277" lon="2.780324">
        <ele>296.406</ele>
        <time>2020-10-17T12:25:48Z</time>
      </trkpt>
      <trkpt lat="42.236277" lon="2.780324">
        <ele>296.416</ele>
        <time>2020-10-17T12:25:48Z</time>
      </trkpt>
      <trkpt lat="42.236245" lon="2.780223">
        <ele>296.408</ele>
        <time>2020-10-17T12:25:50Z</time>
      </trkpt>
      <trkpt lat="42.236218" lon="2.780126">
        <ele>296.351</ele>
        <time>2020-10-17T12:25:52Z</time>
      </trkpt>
      <trkpt lat="42.236205" lon="2.780025">
        <ele>296.354</ele>
        <time>2020-10-17T12:25:54Z</time>
      </trkpt>
      <trkpt lat="42.236194" lon="2.779951">
        <ele>296.433</ele>
        <time>2020-10-17T12:25:56Z</time>
      </trkpt>
      <trkpt lat="42.236194" lon="2.779951">
        <ele>296.452</ele>
        <time>2020-10-17T12:25:56Z</time>
      </trkpt>
      <trkpt lat="42.236198" lon="2.779879">
        <ele>296.811</ele>
        <time>2020-10-17T12:25:58Z</time>
      </trkpt>
      <trkpt lat="42.236198" lon="2.779879">
        <ele>296.889</ele>
        <time>2020-10-17T12:25:58Z</time>
      </trkpt>
      <trkpt lat="42.236229" lon="2.779769">
        <ele>297.149</ele>
        <time>2020-10-17T12:26:00Z</time>
      </trkpt>
      <trkpt lat="42.236229" lon="2.779769">
        <ele>297.164</ele>
        <time>2020-10-17T12:26:00Z</time>
      </trkpt>
      <trkpt lat="42.236268" lon="2.779636">
        <ele>297.311</ele>
        <time>2020-10-17T12:26:02Z</time>
      </trkpt>
      <trkpt lat="42.236302" lon="2.779499">
        <ele>297.221</ele>
        <time>2020-10-17T12:26:04Z</time>
      </trkpt>
      <trkpt lat="42.236325" lon="2.779403">
        <ele>297.303</ele>
        <time>2020-10-17T12:26:06Z</time>
      </trkpt>
      <trkpt lat="42.236353" lon="2.779298">
        <ele>297.708</ele>
        <time>2020-10-17T12:26:08Z</time>
      </trkpt>
      <trkpt lat="42.236374" lon="2.779243">
        <ele>298.136</ele>
        <time>2020-10-17T12:26:09Z</time>
      </trkpt>
      <trkpt lat="42.236374" lon="2.779243">
        <ele>298.149</ele>
        <time>2020-10-17T12:26:09Z</time>
      </trkpt>
      <trkpt lat="42.236396" lon="2.779187">
        <ele>298.368</ele>
        <time>2020-10-17T12:26:10Z</time>
      </trkpt>
      <trkpt lat="42.236439" lon="2.779067">
        <ele>298.487</ele>
        <time>2020-10-17T12:26:12Z</time>
      </trkpt>
      <trkpt lat="42.236461" lon="2.778997">
        <ele>298.666</ele>
        <time>2020-10-17T12:26:13Z</time>
      </trkpt>
      <trkpt lat="42.236461" lon="2.778997">
        <ele>298.644</ele>
        <time>2020-10-17T12:26:13Z</time>
      </trkpt>
      <trkpt lat="42.236504" lon="2.778844">
        <ele>298.934</ele>
        <time>2020-10-17T12:26:15Z</time>
      </trkpt>
      <trkpt lat="42.236535" lon="2.778684">
        <ele>299.499</ele>
        <time>2020-10-17T12:26:17Z</time>
      </trkpt>
      <trkpt lat="42.236535" lon="2.778684">
        <ele>299.491</ele>
        <time>2020-10-17T12:26:17Z</time>
      </trkpt>
      <trkpt lat="42.236562" lon="2.778558">
        <ele>299.581</ele>
        <time>2020-10-17T12:26:19Z</time>
      </trkpt>
      <trkpt lat="42.236590" lon="2.778454">
        <ele>299.319</ele>
        <time>2020-10-17T12:26:21Z</time>
      </trkpt>
      <trkpt lat="42.236590" lon="2.778454">
        <ele>299.308</ele>
        <time>2020-10-17T12:26:21Z</time>
      </trkpt>
      <trkpt lat="42.236635" lon="2.778309">
        <ele>299.364</ele>
        <time>2020-10-17T12:26:23Z</time>
      </trkpt>
      <trkpt lat="42.236635" lon="2.778309">
        <ele>299.327</ele>
        <time>2020-10-17T12:26:23Z</time>
      </trkpt>
      <trkpt lat="42.236662" lon="2.778244">
        <ele>299.236</ele>
        <time>2020-10-17T12:26:24Z</time>
      </trkpt>
      <trkpt lat="42.236707" lon="2.778145">
        <ele>299.185</ele>
        <time>2020-10-17T12:26:26Z</time>
      </trkpt>
      <trkpt lat="42.236753" lon="2.778046">
        <ele>299.254</ele>
        <time>2020-10-17T12:26:28Z</time>
      </trkpt>
      <trkpt lat="42.236781" lon="2.777988">
        <ele>299.362</ele>
        <time>2020-10-17T12:26:29Z</time>
      </trkpt>
      <trkpt lat="42.236843" lon="2.777859">
        <ele>299.272</ele>
        <time>2020-10-17T12:26:31Z</time>
      </trkpt>
      <trkpt lat="42.236918" lon="2.777722">
        <ele>299.187</ele>
        <time>2020-10-17T12:26:33Z</time>
      </trkpt>
      <trkpt lat="42.236958" lon="2.777656">
        <ele>298.914</ele>
        <time>2020-10-17T12:26:34Z</time>
      </trkpt>
      <trkpt lat="42.236958" lon="2.777656">
        <ele>298.954</ele>
        <time>2020-10-17T12:26:34Z</time>
      </trkpt>
      <trkpt lat="42.237042" lon="2.777542">
        <ele>298.809</ele>
        <time>2020-10-17T12:26:36Z</time>
      </trkpt>
      <trkpt lat="42.237123" lon="2.777426">
        <ele>298.608</ele>
        <time>2020-10-17T12:26:38Z</time>
      </trkpt>
      <trkpt lat="42.237123" lon="2.777426">
        <ele>298.636</ele>
        <time>2020-10-17T12:26:38Z</time>
      </trkpt>
      <trkpt lat="42.237182" lon="2.777348">
        <ele>298.649</ele>
        <time>2020-10-17T12:26:40Z</time>
      </trkpt>
      <trkpt lat="42.237217" lon="2.777262">
        <ele>299.038</ele>
        <time>2020-10-17T12:26:42Z</time>
      </trkpt>
      <trkpt lat="42.237217" lon="2.777262">
        <ele>299.027</ele>
        <time>2020-10-17T12:26:42Z</time>
      </trkpt>
      <trkpt lat="42.237250" lon="2.777080">
        <ele>299.216</ele>
        <time>2020-10-17T12:26:44Z</time>
      </trkpt>
      <trkpt lat="42.237262" lon="2.776958">
        <ele>299.474</ele>
        <time>2020-10-17T12:26:45Z</time>
      </trkpt>
      <trkpt lat="42.237276" lon="2.776704">
        <ele>299.524</ele>
        <time>2020-10-17T12:26:47Z</time>
      </trkpt>
      <trkpt lat="42.237280" lon="2.776592">
        <ele>299.669</ele>
        <time>2020-10-17T12:26:48Z</time>
      </trkpt>
      <trkpt lat="42.237280" lon="2.776592">
        <ele>299.674</ele>
        <time>2020-10-17T12:26:48Z</time>
      </trkpt>
      <trkpt lat="42.237280" lon="2.776592">
        <ele>299.656</ele>
        <time>2020-10-17T12:26:48Z</time>
      </trkpt>
      <trkpt lat="42.237291" lon="2.776499">
        <ele>299.821</ele>
        <time>2020-10-17T12:26:49Z</time>
      </trkpt>
      <trkpt lat="42.237309" lon="2.776372">
        <ele>300.408</ele>
        <time>2020-10-17T12:26:51Z</time>
      </trkpt>
      <trkpt lat="42.237309" lon="2.776372">
        <ele>300.442</ele>
        <time>2020-10-17T12:26:51Z</time>
      </trkpt>
      <trkpt lat="42.237309" lon="2.776307">
        <ele>300.615</ele>
        <time>2020-10-17T12:26:53Z</time>
      </trkpt>
      <trkpt lat="42.237316" lon="2.776222">
        <ele>300.444</ele>
        <time>2020-10-17T12:26:55Z</time>
      </trkpt>
      <trkpt lat="42.237316" lon="2.776222">
        <ele>300.473</ele>
        <time>2020-10-17T12:26:55Z</time>
      </trkpt>
      <trkpt lat="42.237338" lon="2.776106">
        <ele>300.182</ele>
        <time>2020-10-17T12:26:57Z</time>
      </trkpt>
      <trkpt lat="42.237347" lon="2.776040">
        <ele>299.980</ele>
        <time>2020-10-17T12:26:58Z</time>
      </trkpt>
      <trkpt lat="42.237378" lon="2.775878">
        <ele>299.870</ele>
        <time>2020-10-17T12:27:00Z</time>
      </trkpt>
      <trkpt lat="42.237406" lon="2.775710">
        <ele>300.045</ele>
        <time>2020-10-17T12:27:02Z</time>
      </trkpt>
      <trkpt lat="42.237423" lon="2.775635">
        <ele>300.194</ele>
        <time>2020-10-17T12:27:03Z</time>
      </trkpt>
      <trkpt lat="42.237454" lon="2.775494">
        <ele>300.357</ele>
        <time>2020-10-17T12:27:05Z</time>
      </trkpt>
      <trkpt lat="42.237467" lon="2.775420">
        <ele>300.522</ele>
        <time>2020-10-17T12:27:06Z</time>
      </trkpt>
      <trkpt lat="42.237481" lon="2.775343">
        <ele>300.708</ele>
        <time>2020-10-17T12:27:07Z</time>
      </trkpt>
      <trkpt lat="42.237501" lon="2.775210">
        <ele>301.164</ele>
        <time>2020-10-17T12:27:09Z</time>
      </trkpt>
      <trkpt lat="42.237498" lon="2.775119">
        <ele>301.687</ele>
        <time>2020-10-17T12:27:11Z</time>
      </trkpt>
      <trkpt lat="42.237499" lon="2.775045">
        <ele>302.046</ele>
        <time>2020-10-17T12:27:12Z</time>
      </trkpt>
      <trkpt lat="42.237506" lon="2.774957">
        <ele>302.595</ele>
        <time>2020-10-17T12:27:13Z</time>
      </trkpt>
      <trkpt lat="42.237506" lon="2.774957">
        <ele>302.574</ele>
        <time>2020-10-17T12:27:13Z</time>
      </trkpt>
      <trkpt lat="42.237526" lon="2.774787">
        <ele>302.822</ele>
        <time>2020-10-17T12:27:15Z</time>
      </trkpt>
      <trkpt lat="42.237539" lon="2.774708">
        <ele>303.152</ele>
        <time>2020-10-17T12:27:16Z</time>
      </trkpt>
      <trkpt lat="42.237552" lon="2.774636">
        <ele>303.427</ele>
        <time>2020-10-17T12:27:17Z</time>
      </trkpt>
      <trkpt lat="42.237566" lon="2.774571">
        <ele>304.081</ele>
        <time>2020-10-17T12:27:18Z</time>
      </trkpt>
      <trkpt lat="42.237566" lon="2.774571">
        <ele>304.061</ele>
        <time>2020-10-17T12:27:18Z</time>
      </trkpt>
      <trkpt lat="42.237580" lon="2.774471">
        <ele>304.417</ele>
        <time>2020-10-17T12:27:20Z</time>
      </trkpt>
      <trkpt lat="42.237576" lon="2.774365">
        <ele>305.208</ele>
        <time>2020-10-17T12:27:22Z</time>
      </trkpt>
      <trkpt lat="42.237576" lon="2.774365">
        <ele>305.263</ele>
        <time>2020-10-17T12:27:22Z</time>
      </trkpt>
      <trkpt lat="42.237569" lon="2.774251">
        <ele>305.846</ele>
        <time>2020-10-17T12:27:24Z</time>
      </trkpt>
      <trkpt lat="42.237565" lon="2.774185">
        <ele>306.445</ele>
        <time>2020-10-17T12:27:25Z</time>
      </trkpt>
      <trkpt lat="42.237561" lon="2.774117">
        <ele>307.254</ele>
        <time>2020-10-17T12:27:26Z</time>
      </trkpt>
      <trkpt lat="42.237561" lon="2.774117">
        <ele>307.243</ele>
        <time>2020-10-17T12:27:26Z</time>
      </trkpt>
      <trkpt lat="42.237556" lon="2.774008">
        <ele>307.531</ele>
        <time>2020-10-17T12:27:28Z</time>
      </trkpt>
      <trkpt lat="42.237561" lon="2.773916">
        <ele>307.841</ele>
        <time>2020-10-17T12:27:30Z</time>
      </trkpt>
      <trkpt lat="42.237561" lon="2.773916">
        <ele>307.876</ele>
        <time>2020-10-17T12:27:30Z</time>
      </trkpt>
      <trkpt lat="42.237577" lon="2.773817">
        <ele>308.047</ele>
        <time>2020-10-17T12:27:32Z</time>
      </trkpt>
      <trkpt lat="42.237589" lon="2.773711">
        <ele>308.429</ele>
        <time>2020-10-17T12:27:34Z</time>
      </trkpt>
      <trkpt lat="42.237589" lon="2.773711">
        <ele>308.421</ele>
        <time>2020-10-17T12:27:34Z</time>
      </trkpt>
      <trkpt lat="42.237598" lon="2.773593">
        <ele>308.408</ele>
        <time>2020-10-17T12:27:36Z</time>
      </trkpt>
      <trkpt lat="42.237604" lon="2.773486">
        <ele>308.329</ele>
        <time>2020-10-17T12:27:38Z</time>
      </trkpt>
      <trkpt lat="42.237622" lon="2.773344">
        <ele>307.442</ele>
        <time>2020-10-17T12:27:40Z</time>
      </trkpt>
      <trkpt lat="42.237639" lon="2.773165">
        <ele>306.011</ele>
        <time>2020-10-17T12:27:42Z</time>
      </trkpt>
      <trkpt lat="42.237649" lon="2.773077">
        <ele>304.720</ele>
        <time>2020-10-17T12:27:43Z</time>
      </trkpt>
      <trkpt lat="42.237670" lon="2.772899">
        <ele>303.599</ele>
        <time>2020-10-17T12:27:45Z</time>
      </trkpt>
      <trkpt lat="42.237679" lon="2.772810">
        <ele>302.687</ele>
        <time>2020-10-17T12:27:46Z</time>
      </trkpt>
      <trkpt lat="42.237686" lon="2.772726">
        <ele>301.987</ele>
        <time>2020-10-17T12:27:47Z</time>
      </trkpt>
      <trkpt lat="42.237708" lon="2.772592">
        <ele>301.092</ele>
        <time>2020-10-17T12:27:49Z</time>
      </trkpt>
      <trkpt lat="42.237708" lon="2.772592">
        <ele>301.098</ele>
        <time>2020-10-17T12:27:49Z</time>
      </trkpt>
      <trkpt lat="42.237729" lon="2.772523">
        <ele>300.515</ele>
        <time>2020-10-17T12:27:51Z</time>
      </trkpt>
      <trkpt lat="42.237738" lon="2.772417">
        <ele>299.626</ele>
        <time>2020-10-17T12:27:53Z</time>
      </trkpt>
      <trkpt lat="42.237738" lon="2.772417">
        <ele>299.608</ele>
        <time>2020-10-17T12:27:53Z</time>
      </trkpt>
      <trkpt lat="42.237742" lon="2.772303">
        <ele>299.234</ele>
        <time>2020-10-17T12:27:55Z</time>
      </trkpt>
      <trkpt lat="42.237748" lon="2.772231">
        <ele>298.997</ele>
        <time>2020-10-17T12:27:56Z</time>
      </trkpt>
      <trkpt lat="42.237765" lon="2.772094">
        <ele>298.926</ele>
        <time>2020-10-17T12:27:58Z</time>
      </trkpt>
      <trkpt lat="42.237778" lon="2.772034">
        <ele>298.925</ele>
        <time>2020-10-17T12:27:59Z</time>
      </trkpt>
      <trkpt lat="42.237802" lon="2.771945">
        <ele>299.094</ele>
        <time>2020-10-17T12:28:01Z</time>
      </trkpt>
      <trkpt lat="42.237802" lon="2.771945">
        <ele>299.092</ele>
        <time>2020-10-17T12:28:01Z</time>
      </trkpt>
      <trkpt lat="42.237814" lon="2.771881">
        <ele>299.152</ele>
        <time>2020-10-17T12:28:03Z</time>
      </trkpt>
      <trkpt lat="42.237821" lon="2.771811">
        <ele>299.477</ele>
        <time>2020-10-17T12:28:06Z</time>
      </trkpt>
      <trkpt lat="42.237833" lon="2.771748">
        <ele>300.087</ele>
        <time>2020-10-17T12:28:09Z</time>
      </trkpt>
      <trkpt lat="42.237843" lon="2.771673">
        <ele>301.742</ele>
        <time>2020-10-17T12:28:12Z</time>
      </trkpt>
      <trkpt lat="42.237843" lon="2.771673">
        <ele>301.726</ele>
        <time>2020-10-17T12:28:12Z</time>
      </trkpt>
      <trkpt lat="42.237892" lon="2.771657">
        <ele>307.308</ele>
        <time>2020-10-17T12:28:38Z</time>
      </trkpt>
      <trkpt lat="42.237892" lon="2.771657">
        <ele>307.353</ele>
        <time>2020-10-17T12:28:38Z</time>
      </trkpt>
      <trkpt lat="42.237893" lon="2.771595">
        <ele>307.546</ele>
        <time>2020-10-17T12:28:40Z</time>
      </trkpt>
      <trkpt lat="42.237885" lon="2.771519">
        <ele>307.665</ele>
        <time>2020-10-17T12:28:43Z</time>
      </trkpt>
      <trkpt lat="42.237885" lon="2.771519">
        <ele>307.624</ele>
        <time>2020-10-17T12:28:43Z</time>
      </trkpt>
      <trkpt lat="42.237890" lon="2.771436">
        <ele>307.833</ele>
        <time>2020-10-17T12:28:46Z</time>
      </trkpt>
      <trkpt lat="42.237898" lon="2.771360">
        <ele>308.211</ele>
        <time>2020-10-17T12:28:48Z</time>
      </trkpt>
      <trkpt lat="42.237898" lon="2.771360">
        <ele>308.221</ele>
        <time>2020-10-17T12:28:48Z</time>
      </trkpt>
      <trkpt lat="42.237920" lon="2.771288">
        <ele>308.346</ele>
        <time>2020-10-17T12:28:50Z</time>
      </trkpt>
      <trkpt lat="42.237946" lon="2.771227">
        <ele>308.884</ele>
        <time>2020-10-17T12:28:52Z</time>
      </trkpt>
      <trkpt lat="42.237946" lon="2.771227">
        <ele>308.807</ele>
        <time>2020-10-17T12:28:52Z</time>
      </trkpt>
      <trkpt lat="42.237952" lon="2.771143">
        <ele>309.817</ele>
        <time>2020-10-17T12:28:55Z</time>
      </trkpt>
      <trkpt lat="42.237952" lon="2.771143">
        <ele>309.808</ele>
        <time>2020-10-17T12:28:55Z</time>
      </trkpt>
      <trkpt lat="42.237946" lon="2.771067">
        <ele>310.343</ele>
        <time>2020-10-17T12:28:58Z</time>
      </trkpt>
      <trkpt lat="42.237941" lon="2.771002">
        <ele>310.836</ele>
        <time>2020-10-17T12:29:00Z</time>
      </trkpt>
      <trkpt lat="42.237946" lon="2.770917">
        <ele>311.715</ele>
        <time>2020-10-17T12:29:03Z</time>
      </trkpt>
      <trkpt lat="42.237946" lon="2.770917">
        <ele>311.794</ele>
        <time>2020-10-17T12:29:03Z</time>
      </trkpt>
      <trkpt lat="42.237947" lon="2.770829">
        <ele>312.263</ele>
        <time>2020-10-17T12:29:06Z</time>
      </trkpt>
      <trkpt lat="42.237949" lon="2.770759">
        <ele>313.081</ele>
        <time>2020-10-17T12:29:08Z</time>
      </trkpt>
      <trkpt lat="42.237949" lon="2.770759">
        <ele>313.091</ele>
        <time>2020-10-17T12:29:08Z</time>
      </trkpt>
      <trkpt lat="42.237966" lon="2.770690">
        <ele>313.596</ele>
        <time>2020-10-17T12:29:10Z</time>
      </trkpt>
      <trkpt lat="42.237980" lon="2.770620">
        <ele>314.433</ele>
        <time>2020-10-17T12:29:12Z</time>
      </trkpt>
      <trkpt lat="42.237980" lon="2.770620">
        <ele>314.423</ele>
        <time>2020-10-17T12:29:12Z</time>
      </trkpt>
      <trkpt lat="42.237995" lon="2.770547">
        <ele>314.815</ele>
        <time>2020-10-17T12:29:14Z</time>
      </trkpt>
      <trkpt lat="42.238019" lon="2.770476">
        <ele>315.508</ele>
        <time>2020-10-17T12:29:16Z</time>
      </trkpt>
      <trkpt lat="42.238019" lon="2.770476">
        <ele>315.518</ele>
        <time>2020-10-17T12:29:16Z</time>
      </trkpt>
      <trkpt lat="42.238041" lon="2.770404">
        <ele>316.091</ele>
        <time>2020-10-17T12:29:18Z</time>
      </trkpt>
      <trkpt lat="42.238049" lon="2.770335">
        <ele>316.630</ele>
        <time>2020-10-17T12:29:20Z</time>
      </trkpt>
      <trkpt lat="42.238049" lon="2.770335">
        <ele>316.629</ele>
        <time>2020-10-17T12:29:20Z</time>
      </trkpt>
      <trkpt lat="42.238055" lon="2.770252">
        <ele>317.028</ele>
        <time>2020-10-17T12:29:22Z</time>
      </trkpt>
      <trkpt lat="42.238065" lon="2.770159">
        <ele>317.886</ele>
        <time>2020-10-17T12:29:24Z</time>
      </trkpt>
      <trkpt lat="42.238065" lon="2.770159">
        <ele>317.846</ele>
        <time>2020-10-17T12:29:24Z</time>
      </trkpt>
      <trkpt lat="42.238081" lon="2.770070">
        <ele>318.391</ele>
        <time>2020-10-17T12:29:26Z</time>
      </trkpt>
      <trkpt lat="42.238101" lon="2.769998">
        <ele>319.127</ele>
        <time>2020-10-17T12:29:28Z</time>
      </trkpt>
      <trkpt lat="42.238101" lon="2.769998">
        <ele>319.168</ele>
        <time>2020-10-17T12:29:28Z</time>
      </trkpt>
      <trkpt lat="42.238118" lon="2.769911">
        <ele>319.814</ele>
        <time>2020-10-17T12:29:30Z</time>
      </trkpt>
      <trkpt lat="42.238118" lon="2.769911">
        <ele>319.808</ele>
        <time>2020-10-17T12:29:30Z</time>
      </trkpt>
      <trkpt lat="42.238133" lon="2.769806">
        <ele>320.547</ele>
        <time>2020-10-17T12:29:32Z</time>
      </trkpt>
      <trkpt lat="42.238133" lon="2.769806">
        <ele>320.590</ele>
        <time>2020-10-17T12:29:32Z</time>
      </trkpt>
      <trkpt lat="42.238154" lon="2.769722">
        <ele>321.139</ele>
        <time>2020-10-17T12:29:34Z</time>
      </trkpt>
      <trkpt lat="42.238178" lon="2.769622">
        <ele>321.978</ele>
        <time>2020-10-17T12:29:36Z</time>
      </trkpt>
      <trkpt lat="42.238192" lon="2.769530">
        <ele>322.717</ele>
        <time>2020-10-17T12:29:38Z</time>
      </trkpt>
      <trkpt lat="42.238202" lon="2.769463">
        <ele>323.355</ele>
        <time>2020-10-17T12:29:39Z</time>
      </trkpt>
      <trkpt lat="42.238223" lon="2.769341">
        <ele>324.565</ele>
        <time>2020-10-17T12:29:41Z</time>
      </trkpt>
      <trkpt lat="42.238223" lon="2.769341">
        <ele>324.510</ele>
        <time>2020-10-17T12:29:41Z</time>
      </trkpt>
      <trkpt lat="42.238243" lon="2.769240">
        <ele>325.357</ele>
        <time>2020-10-17T12:29:43Z</time>
      </trkpt>
      <trkpt lat="42.238261" lon="2.769128">
        <ele>326.800</ele>
        <time>2020-10-17T12:29:45Z</time>
      </trkpt>
      <trkpt lat="42.238261" lon="2.769128">
        <ele>326.820</ele>
        <time>2020-10-17T12:29:45Z</time>
      </trkpt>
      <trkpt lat="42.238281" lon="2.769040">
        <ele>327.508</ele>
        <time>2020-10-17T12:29:47Z</time>
      </trkpt>
      <trkpt lat="42.238302" lon="2.768964">
        <ele>328.530</ele>
        <time>2020-10-17T12:29:49Z</time>
      </trkpt>
      <trkpt lat="42.238302" lon="2.768964">
        <ele>328.593</ele>
        <time>2020-10-17T12:29:49Z</time>
      </trkpt>
      <trkpt lat="42.238315" lon="2.768899">
        <ele>328.832</ele>
        <time>2020-10-17T12:29:51Z</time>
      </trkpt>
      <trkpt lat="42.238332" lon="2.768797">
        <ele>329.361</ele>
        <time>2020-10-17T12:29:53Z</time>
      </trkpt>
      <trkpt lat="42.238332" lon="2.768797">
        <ele>329.350</ele>
        <time>2020-10-17T12:29:53Z</time>
      </trkpt>
      <trkpt lat="42.238349" lon="2.768686">
        <ele>329.558</ele>
        <time>2020-10-17T12:29:55Z</time>
      </trkpt>
      <trkpt lat="42.238359" lon="2.768620">
        <ele>329.668</ele>
        <time>2020-10-17T12:29:56Z</time>
      </trkpt>
      <trkpt lat="42.238373" lon="2.768513">
        <ele>329.783</ele>
        <time>2020-10-17T12:29:58Z</time>
      </trkpt>
      <trkpt lat="42.238373" lon="2.768513">
        <ele>329.783</ele>
        <time>2020-10-17T12:29:58Z</time>
      </trkpt>
      <trkpt lat="42.238373" lon="2.768513">
        <ele>329.725</ele>
        <time>2020-10-17T12:29:58Z</time>
      </trkpt>
      <trkpt lat="42.238379" lon="2.768448">
        <ele>329.917</ele>
        <time>2020-10-17T12:29:59Z</time>
      </trkpt>
      <trkpt lat="42.238383" lon="2.768362">
        <ele>330.208</ele>
        <time>2020-10-17T12:30:01Z</time>
      </trkpt>
      <trkpt lat="42.238381" lon="2.768268">
        <ele>330.323</ele>
        <time>2020-10-17T12:30:03Z</time>
      </trkpt>
      <trkpt lat="42.238388" lon="2.768174">
        <ele>330.746</ele>
        <time>2020-10-17T12:30:05Z</time>
      </trkpt>
      <trkpt lat="42.238388" lon="2.768174">
        <ele>330.785</ele>
        <time>2020-10-17T12:30:05Z</time>
      </trkpt>
      <trkpt lat="42.238393" lon="2.768087">
        <ele>330.824</ele>
        <time>2020-10-17T12:30:07Z</time>
      </trkpt>
      <trkpt lat="42.238408" lon="2.767989">
        <ele>331.153</ele>
        <time>2020-10-17T12:30:09Z</time>
      </trkpt>
      <trkpt lat="42.238408" lon="2.767989">
        <ele>331.181</ele>
        <time>2020-10-17T12:30:09Z</time>
      </trkpt>
      <trkpt lat="42.238433" lon="2.767874">
        <ele>331.031</ele>
        <time>2020-10-17T12:30:11Z</time>
      </trkpt>
      <trkpt lat="42.238445" lon="2.767766">
        <ele>330.896</ele>
        <time>2020-10-17T12:30:13Z</time>
      </trkpt>
      <trkpt lat="42.238445" lon="2.767766">
        <ele>330.815</ele>
        <time>2020-10-17T12:30:13Z</time>
      </trkpt>
      <trkpt lat="42.238444" lon="2.767673">
        <ele>330.565</ele>
        <time>2020-10-17T12:30:15Z</time>
      </trkpt>
      <trkpt lat="42.238438" lon="2.767583">
        <ele>330.011</ele>
        <time>2020-10-17T12:30:17Z</time>
      </trkpt>
      <trkpt lat="42.238438" lon="2.767583">
        <ele>330.008</ele>
        <time>2020-10-17T12:30:17Z</time>
      </trkpt>
      <trkpt lat="42.238434" lon="2.767520">
        <ele>329.516</ele>
        <time>2020-10-17T12:30:18Z</time>
      </trkpt>
      <trkpt lat="42.238434" lon="2.767520">
        <ele>329.579</ele>
        <time>2020-10-17T12:30:18Z</time>
      </trkpt>
      <trkpt lat="42.238437" lon="2.767393">
        <ele>329.028</ele>
        <time>2020-10-17T12:30:20Z</time>
      </trkpt>
      <trkpt lat="42.238440" lon="2.767332">
        <ele>328.567</ele>
        <time>2020-10-17T12:30:21Z</time>
      </trkpt>
      <trkpt lat="42.238448" lon="2.767244">
        <ele>327.846</ele>
        <time>2020-10-17T12:30:23Z</time>
      </trkpt>
      <trkpt lat="42.238455" lon="2.767164">
        <ele>327.394</ele>
        <time>2020-10-17T12:30:27Z</time>
      </trkpt>
      <trkpt lat="42.238467" lon="2.767078">
        <ele>327.134</ele>
        <time>2020-10-17T12:30:29Z</time>
      </trkpt>
      <trkpt lat="42.238473" lon="2.766979">
        <ele>327.119</ele>
        <time>2020-10-17T12:30:31Z</time>
      </trkpt>
      <trkpt lat="42.238473" lon="2.766979">
        <ele>327.169</ele>
        <time>2020-10-17T12:30:31Z</time>
      </trkpt>
      <trkpt lat="42.238485" lon="2.766863">
        <ele>327.704</ele>
        <time>2020-10-17T12:30:33Z</time>
      </trkpt>
      <trkpt lat="42.238500" lon="2.766796">
        <ele>328.424</ele>
        <time>2020-10-17T12:30:34Z</time>
      </trkpt>
      <trkpt lat="42.238538" lon="2.766702">
        <ele>330.108</ele>
        <time>2020-10-17T12:30:36Z</time>
      </trkpt>
      <trkpt lat="42.238538" lon="2.766702">
        <ele>330.151</ele>
        <time>2020-10-17T12:30:36Z</time>
      </trkpt>
      <trkpt lat="42.238566" lon="2.766621">
        <ele>330.614</ele>
        <time>2020-10-17T12:30:38Z</time>
      </trkpt>
      <trkpt lat="42.238576" lon="2.766537">
        <ele>331.163</ele>
        <time>2020-10-17T12:30:40Z</time>
      </trkpt>
      <trkpt lat="42.238576" lon="2.766537">
        <ele>331.112</ele>
        <time>2020-10-17T12:30:40Z</time>
      </trkpt>
      <trkpt lat="42.238574" lon="2.766453">
        <ele>331.391</ele>
        <time>2020-10-17T12:30:42Z</time>
      </trkpt>
      <trkpt lat="42.238594" lon="2.766386">
        <ele>331.629</ele>
        <time>2020-10-17T12:30:44Z</time>
      </trkpt>
      <trkpt lat="42.238594" lon="2.766386">
        <ele>331.689</ele>
        <time>2020-10-17T12:30:44Z</time>
      </trkpt>
      <trkpt lat="42.238647" lon="2.766322">
        <ele>331.854</ele>
        <time>2020-10-17T12:30:46Z</time>
      </trkpt>
      <trkpt lat="42.238693" lon="2.766251">
        <ele>332.415</ele>
        <time>2020-10-17T12:30:48Z</time>
      </trkpt>
      <trkpt lat="42.238693" lon="2.766251">
        <ele>332.465</ele>
        <time>2020-10-17T12:30:48Z</time>
      </trkpt>
      <trkpt lat="42.238727" lon="2.766142">
        <ele>332.711</ele>
        <time>2020-10-17T12:30:50Z</time>
      </trkpt>
      <trkpt lat="42.238748" lon="2.766037">
        <ele>333.408</ele>
        <time>2020-10-17T12:30:52Z</time>
      </trkpt>
      <trkpt lat="42.238748" lon="2.766037">
        <ele>333.456</ele>
        <time>2020-10-17T12:30:52Z</time>
      </trkpt>
      <trkpt lat="42.238767" lon="2.765942">
        <ele>333.919</ele>
        <time>2020-10-17T12:30:54Z</time>
      </trkpt>
      <trkpt lat="42.238792" lon="2.765829">
        <ele>334.528</ele>
        <time>2020-10-17T12:30:56Z</time>
      </trkpt>
      <trkpt lat="42.238808" lon="2.765725">
        <ele>335.047</ele>
        <time>2020-10-17T12:30:58Z</time>
      </trkpt>
      <trkpt lat="42.238835" lon="2.765623">
        <ele>335.966</ele>
        <time>2020-10-17T12:31:00Z</time>
      </trkpt>
      <trkpt lat="42.238835" lon="2.765623">
        <ele>335.914</ele>
        <time>2020-10-17T12:31:00Z</time>
      </trkpt>
      <trkpt lat="42.238880" lon="2.765503">
        <ele>336.354</ele>
        <time>2020-10-17T12:31:02Z</time>
      </trkpt>
      <trkpt lat="42.238905" lon="2.765430">
        <ele>336.649</ele>
        <time>2020-10-17T12:31:03Z</time>
      </trkpt>
      <trkpt lat="42.238925" lon="2.765353">
        <ele>336.929</ele>
        <time>2020-10-17T12:31:04Z</time>
      </trkpt>
      <trkpt lat="42.238960" lon="2.765217">
        <ele>337.300</ele>
        <time>2020-10-17T12:31:06Z</time>
      </trkpt>
      <trkpt lat="42.238983" lon="2.765155">
        <ele>337.820</ele>
        <time>2020-10-17T12:31:07Z</time>
      </trkpt>
      <trkpt lat="42.239012" lon="2.765092">
        <ele>338.308</ele>
        <time>2020-10-17T12:31:08Z</time>
      </trkpt>
      <trkpt lat="42.239046" lon="2.765029">
        <ele>339.027</ele>
        <time>2020-10-17T12:31:09Z</time>
      </trkpt>
      <trkpt lat="42.239046" lon="2.765029">
        <ele>339.090</ele>
        <time>2020-10-17T12:31:09Z</time>
      </trkpt>
      <trkpt lat="42.239115" lon="2.764911">
        <ele>339.649</ele>
        <time>2020-10-17T12:31:11Z</time>
      </trkpt>
      <trkpt lat="42.239141" lon="2.764857">
        <ele>340.128</ele>
        <time>2020-10-17T12:31:12Z</time>
      </trkpt>
      <trkpt lat="42.239178" lon="2.764768">
        <ele>340.877</ele>
        <time>2020-10-17T12:31:14Z</time>
      </trkpt>
      <trkpt lat="42.239212" lon="2.764664">
        <ele>341.615</ele>
        <time>2020-10-17T12:31:16Z</time>
      </trkpt>
      <trkpt lat="42.239228" lon="2.764594">
        <ele>342.325</ele>
        <time>2020-10-17T12:31:17Z</time>
      </trkpt>
      <trkpt lat="42.239242" lon="2.764454">
        <ele>343.110</ele>
        <time>2020-10-17T12:31:19Z</time>
      </trkpt>
      <trkpt lat="42.239248" lon="2.764353">
        <ele>344.147</ele>
        <time>2020-10-17T12:31:21Z</time>
      </trkpt>
      <trkpt lat="42.239258" lon="2.764261">
        <ele>345.129</ele>
        <time>2020-10-17T12:31:23Z</time>
      </trkpt>
      <trkpt lat="42.239301" lon="2.764201">
        <ele>347.221</ele>
        <time>2020-10-17T12:31:25Z</time>
      </trkpt>
      <trkpt lat="42.239301" lon="2.764201">
        <ele>347.208</ele>
        <time>2020-10-17T12:31:25Z</time>
      </trkpt>
      <trkpt lat="42.239396" lon="2.764194">
        <ele>348.499</ele>
        <time>2020-10-17T12:31:27Z</time>
      </trkpt>
      <trkpt lat="42.239461" lon="2.764205">
        <ele>349.492</ele>
        <time>2020-10-17T12:31:28Z</time>
      </trkpt>
      <trkpt lat="42.239600" lon="2.764219">
        <ele>351.351</ele>
        <time>2020-10-17T12:31:30Z</time>
      </trkpt>
      <trkpt lat="42.239600" lon="2.764219">
        <ele>351.370</ele>
        <time>2020-10-17T12:31:30Z</time>
      </trkpt>
      <trkpt lat="42.239757" lon="2.764207">
        <ele>352.339</ele>
        <time>2020-10-17T12:31:32Z</time>
      </trkpt>
      <trkpt lat="42.239834" lon="2.764193">
        <ele>353.177</ele>
        <time>2020-10-17T12:31:33Z</time>
      </trkpt>
      <trkpt lat="42.239963" lon="2.764172">
        <ele>354.077</ele>
        <time>2020-10-17T12:31:35Z</time>
      </trkpt>
      <trkpt lat="42.240019" lon="2.764161">
        <ele>354.692</ele>
        <time>2020-10-17T12:31:36Z</time>
      </trkpt>
      <trkpt lat="42.240112" lon="2.764115">
        <ele>355.227</ele>
        <time>2020-10-17T12:31:38Z</time>
      </trkpt>
      <trkpt lat="42.240202" lon="2.764015">
        <ele>355.768</ele>
        <time>2020-10-17T12:31:40Z</time>
      </trkpt>
      <trkpt lat="42.240252" lon="2.763952">
        <ele>356.114</ele>
        <time>2020-10-17T12:31:41Z</time>
      </trkpt>
      <trkpt lat="42.240305" lon="2.763886">
        <ele>356.408</ele>
        <time>2020-10-17T12:31:42Z</time>
      </trkpt>
      <trkpt lat="42.240405" lon="2.763769">
        <ele>356.867</ele>
        <time>2020-10-17T12:31:44Z</time>
      </trkpt>
      <trkpt lat="42.240505" lon="2.763680">
        <ele>357.050</ele>
        <time>2020-10-17T12:31:46Z</time>
      </trkpt>
      <trkpt lat="42.240550" lon="2.763641">
        <ele>357.069</ele>
        <time>2020-10-17T12:31:47Z</time>
      </trkpt>
      <trkpt lat="42.240637" lon="2.763563">
        <ele>356.748</ele>
        <time>2020-10-17T12:31:49Z</time>
      </trkpt>
      <trkpt lat="42.240683" lon="2.763524">
        <ele>356.487</ele>
        <time>2020-10-17T12:31:50Z</time>
      </trkpt>
      <trkpt lat="42.240800" lon="2.763426">
        <ele>355.745</ele>
        <time>2020-10-17T12:31:52Z</time>
      </trkpt>
      <trkpt lat="42.240857" lon="2.763369">
        <ele>355.045</ele>
        <time>2020-10-17T12:31:53Z</time>
      </trkpt>
      <trkpt lat="42.240906" lon="2.763305">
        <ele>354.160</ele>
        <time>2020-10-17T12:31:54Z</time>
      </trkpt>
      <trkpt lat="42.240952" lon="2.763239">
        <ele>352.761</ele>
        <time>2020-10-17T12:31:55Z</time>
      </trkpt>
      <trkpt lat="42.240952" lon="2.763239">
        <ele>352.721</ele>
        <time>2020-10-17T12:31:55Z</time>
      </trkpt>
      <trkpt lat="42.241054" lon="2.763112">
        <ele>352.213</ele>
        <time>2020-10-17T12:31:57Z</time>
      </trkpt>
      <trkpt lat="42.241176" lon="2.763025">
        <ele>352.208</ele>
        <time>2020-10-17T12:31:59Z</time>
      </trkpt>
      <trkpt lat="42.241312" lon="2.762976">
        <ele>352.451</ele>
        <time>2020-10-17T12:32:01Z</time>
      </trkpt>
      <trkpt lat="42.241380" lon="2.762952">
        <ele>352.614</ele>
        <time>2020-10-17T12:32:02Z</time>
      </trkpt>
      <trkpt lat="42.241380" lon="2.762952">
        <ele>352.653</ele>
        <time>2020-10-17T12:32:02Z</time>
      </trkpt>
      <trkpt lat="42.241444" lon="2.762917">
        <ele>352.682</ele>
        <time>2020-10-17T12:32:03Z</time>
      </trkpt>
      <trkpt lat="42.241559" lon="2.762826">
        <ele>352.571</ele>
        <time>2020-10-17T12:32:05Z</time>
      </trkpt>
      <trkpt lat="42.241670" lon="2.762761">
        <ele>352.519</ele>
        <time>2020-10-17T12:32:07Z</time>
      </trkpt>
      <trkpt lat="42.241726" lon="2.762749">
        <ele>352.529</ele>
        <time>2020-10-17T12:32:08Z</time>
      </trkpt>
      <trkpt lat="42.241793" lon="2.762746">
        <ele>352.524</ele>
        <time>2020-10-17T12:32:10Z</time>
      </trkpt>
      <trkpt lat="42.241843" lon="2.762739">
        <ele>352.212</ele>
        <time>2020-10-17T12:32:27Z</time>
      </trkpt>
      <trkpt lat="42.241915" lon="2.762750">
        <ele>352.232</ele>
        <time>2020-10-17T12:32:29Z</time>
      </trkpt>
      <trkpt lat="42.241915" lon="2.762750">
        <ele>352.205</ele>
        <time>2020-10-17T12:32:29Z</time>
      </trkpt>
      <trkpt lat="42.241970" lon="2.762785">
        <ele>352.008</ele>
        <time>2020-10-17T12:32:31Z</time>
      </trkpt>
      <trkpt lat="42.241970" lon="2.762785">
        <ele>352.036</ele>
        <time>2020-10-17T12:32:31Z</time>
      </trkpt>
      <trkpt lat="42.242046" lon="2.762808">
        <ele>351.669</ele>
        <time>2020-10-17T12:32:43Z</time>
      </trkpt>
      <trkpt lat="42.242046" lon="2.762808">
        <ele>351.638</ele>
        <time>2020-10-17T12:32:43Z</time>
      </trkpt>
      <trkpt lat="42.242109" lon="2.762823">
        <ele>351.677</ele>
        <time>2020-10-17T12:32:45Z</time>
      </trkpt>
      <trkpt lat="42.242168" lon="2.762805">
        <ele>351.826</ele>
        <time>2020-10-17T12:32:47Z</time>
      </trkpt>
      <trkpt lat="42.242168" lon="2.762805">
        <ele>351.814</ele>
        <time>2020-10-17T12:32:47Z</time>
      </trkpt>
      <trkpt lat="42.242251" lon="2.762785">
        <ele>352.174</ele>
        <time>2020-10-17T12:32:49Z</time>
      </trkpt>
      <trkpt lat="42.242299" lon="2.762786">
        <ele>352.369</ele>
        <time>2020-10-17T12:32:50Z</time>
      </trkpt>
      <trkpt lat="42.242357" lon="2.762802">
        <ele>352.517</ele>
        <time>2020-10-17T12:32:51Z</time>
      </trkpt>
      <trkpt lat="42.242481" lon="2.762854">
        <ele>352.787</ele>
        <time>2020-10-17T12:32:53Z</time>
      </trkpt>
      <trkpt lat="42.242538" lon="2.762873">
        <ele>352.815</ele>
        <time>2020-10-17T12:32:54Z</time>
      </trkpt>
      <trkpt lat="42.242628" lon="2.762889">
        <ele>353.008</ele>
        <time>2020-10-17T12:32:56Z</time>
      </trkpt>
      <trkpt lat="42.242726" lon="2.762897">
        <ele>353.376</ele>
        <time>2020-10-17T12:32:58Z</time>
      </trkpt>
      <trkpt lat="42.242771" lon="2.762902">
        <ele>353.689</ele>
        <time>2020-10-17T12:32:59Z</time>
      </trkpt>
      <trkpt lat="42.242841" lon="2.762913">
        <ele>353.868</ele>
        <time>2020-10-17T12:33:01Z</time>
      </trkpt>
      <trkpt lat="42.242882" lon="2.762872">
        <ele>354.727</ele>
        <time>2020-10-17T12:33:04Z</time>
      </trkpt>
      <trkpt lat="42.242882" lon="2.762872">
        <ele>354.766</ele>
        <time>2020-10-17T12:33:04Z</time>
      </trkpt>
      <trkpt lat="42.242913" lon="2.762811">
        <ele>355.334</ele>
        <time>2020-10-17T12:33:06Z</time>
      </trkpt>
      <trkpt lat="42.242966" lon="2.762707">
        <ele>356.184</ele>
        <time>2020-10-17T12:33:08Z</time>
      </trkpt>
      <trkpt lat="42.243014" lon="2.762594">
        <ele>357.119</ele>
        <time>2020-10-17T12:33:10Z</time>
      </trkpt>
      <trkpt lat="42.243059" lon="2.762523">
        <ele>358.163</ele>
        <time>2020-10-17T12:33:12Z</time>
      </trkpt>
      <trkpt lat="42.243112" lon="2.762479">
        <ele>359.044</ele>
        <time>2020-10-17T12:33:14Z</time>
      </trkpt>
      <trkpt lat="42.243175" lon="2.762421">
        <ele>359.918</ele>
        <time>2020-10-17T12:33:16Z</time>
      </trkpt>
      <trkpt lat="42.243241" lon="2.762335">
        <ele>360.608</ele>
        <time>2020-10-17T12:33:18Z</time>
      </trkpt>
      <trkpt lat="42.243277" lon="2.762277">
        <ele>361.121</ele>
        <time>2020-10-17T12:33:19Z</time>
      </trkpt>
      <trkpt lat="42.243328" lon="2.762187">
        <ele>361.384</ele>
        <time>2020-10-17T12:33:21Z</time>
      </trkpt>
      <trkpt lat="42.243360" lon="2.762136">
        <ele>361.523</ele>
        <time>2020-10-17T12:33:22Z</time>
      </trkpt>
      <trkpt lat="42.243427" lon="2.762017">
        <ele>361.962</ele>
        <time>2020-10-17T12:33:24Z</time>
      </trkpt>
      <trkpt lat="42.243481" lon="2.761917">
        <ele>362.341</ele>
        <time>2020-10-17T12:33:26Z</time>
      </trkpt>
      <trkpt lat="42.243546" lon="2.761870">
        <ele>362.979</ele>
        <time>2020-10-17T12:33:28Z</time>
      </trkpt>
      <trkpt lat="42.243594" lon="2.761845">
        <ele>363.519</ele>
        <time>2020-10-17T12:33:29Z</time>
      </trkpt>
      <trkpt lat="42.243676" lon="2.761798">
        <ele>364.524</ele>
        <time>2020-10-17T12:33:31Z</time>
      </trkpt>
      <trkpt lat="42.243719" lon="2.761768">
        <ele>365.357</ele>
        <time>2020-10-17T12:33:32Z</time>
      </trkpt>
      <trkpt lat="42.243772" lon="2.761722">
        <ele>366.000</ele>
        <time>2020-10-17T12:33:33Z</time>
      </trkpt>
      <trkpt lat="42.243872" lon="2.761601">
        <ele>366.720</ele>
        <time>2020-10-17T12:33:35Z</time>
      </trkpt>
      <trkpt lat="42.243912" lon="2.761528">
        <ele>367.208</ele>
        <time>2020-10-17T12:33:36Z</time>
      </trkpt>
      <trkpt lat="42.243948" lon="2.761451">
        <ele>367.530</ele>
        <time>2020-10-17T12:33:37Z</time>
      </trkpt>
      <trkpt lat="42.244016" lon="2.761300">
        <ele>367.853</ele>
        <time>2020-10-17T12:33:39Z</time>
      </trkpt>
      <trkpt lat="42.244084" lon="2.761171">
        <ele>368.142</ele>
        <time>2020-10-17T12:33:41Z</time>
      </trkpt>
      <trkpt lat="42.244113" lon="2.761124">
        <ele>368.451</ele>
        <time>2020-10-17T12:33:42Z</time>
      </trkpt>
      <trkpt lat="42.244168" lon="2.761055">
        <ele>368.910</ele>
        <time>2020-10-17T12:33:44Z</time>
      </trkpt>
      <trkpt lat="42.244217" lon="2.761006">
        <ele>369.498</ele>
        <time>2020-10-17T12:33:45Z</time>
      </trkpt>
      <trkpt lat="42.244280" lon="2.760961">
        <ele>369.858</ele>
        <time>2020-10-17T12:33:46Z</time>
      </trkpt>
      <trkpt lat="42.244411" lon="2.760899">
        <ele>370.393</ele>
        <time>2020-10-17T12:33:48Z</time>
      </trkpt>
      <trkpt lat="42.244473" lon="2.760861">
        <ele>370.881</ele>
        <time>2020-10-17T12:33:49Z</time>
      </trkpt>
      <trkpt lat="42.244521" lon="2.760816">
        <ele>371.261</ele>
        <time>2020-10-17T12:33:50Z</time>
      </trkpt>
      <trkpt lat="42.244563" lon="2.760684">
        <ele>371.617</ele>
        <time>2020-10-17T12:33:52Z</time>
      </trkpt>
      <trkpt lat="42.244581" lon="2.760598">
        <ele>371.908</ele>
        <time>2020-10-17T12:33:53Z</time>
      </trkpt>
      <trkpt lat="42.244609" lon="2.760508">
        <ele>372.193</ele>
        <time>2020-10-17T12:33:54Z</time>
      </trkpt>
      <trkpt lat="42.244647" lon="2.760417">
        <ele>372.466</ele>
        <time>2020-10-17T12:33:55Z</time>
      </trkpt>
      <trkpt lat="42.244647" lon="2.760417">
        <ele>372.475</ele>
        <time>2020-10-17T12:33:55Z</time>
      </trkpt>
      <trkpt lat="42.244714" lon="2.760229">
        <ele>372.744</ele>
        <time>2020-10-17T12:33:57Z</time>
      </trkpt>
      <trkpt lat="42.244733" lon="2.760045">
        <ele>373.593</ele>
        <time>2020-10-17T12:33:59Z</time>
      </trkpt>
      <trkpt lat="42.244733" lon="2.760045">
        <ele>373.511</ele>
        <time>2020-10-17T12:33:59Z</time>
      </trkpt>
      <trkpt lat="42.244730" lon="2.759957">
        <ele>373.811</ele>
        <time>2020-10-17T12:34:00Z</time>
      </trkpt>
      <trkpt lat="42.244730" lon="2.759874">
        <ele>374.076</ele>
        <time>2020-10-17T12:34:01Z</time>
      </trkpt>
      <trkpt lat="42.244752" lon="2.759713">
        <ele>374.214</ele>
        <time>2020-10-17T12:34:03Z</time>
      </trkpt>
      <trkpt lat="42.244752" lon="2.759713">
        <ele>374.254</ele>
        <time>2020-10-17T12:34:03Z</time>
      </trkpt>
      <trkpt lat="42.244778" lon="2.759554">
        <ele>374.509</ele>
        <time>2020-10-17T12:34:05Z</time>
      </trkpt>
      <trkpt lat="42.244792" lon="2.759480">
        <ele>374.808</ele>
        <time>2020-10-17T12:34:07Z</time>
      </trkpt>
      <trkpt lat="42.244832" lon="2.759421">
        <ele>375.566</ele>
        <time>2020-10-17T12:34:56Z</time>
      </trkpt>
      <trkpt lat="42.244867" lon="2.759382">
        <ele>376.399</ele>
        <time>2020-10-17T12:34:58Z</time>
      </trkpt>
      <trkpt lat="42.244867" lon="2.759382">
        <ele>376.348</ele>
        <time>2020-10-17T12:34:58Z</time>
      </trkpt>
      <trkpt lat="42.244909" lon="2.759323">
        <ele>376.647</ele>
        <time>2020-10-17T12:35:00Z</time>
      </trkpt>
      <trkpt lat="42.244951" lon="2.759256">
        <ele>376.886</ele>
        <time>2020-10-17T12:35:02Z</time>
      </trkpt>
      <trkpt lat="42.244990" lon="2.759164">
        <ele>377.074</ele>
        <time>2020-10-17T12:35:04Z</time>
      </trkpt>
      <trkpt lat="42.245030" lon="2.759078">
        <ele>377.034</ele>
        <time>2020-10-17T12:35:06Z</time>
      </trkpt>
      <trkpt lat="42.245030" lon="2.759078">
        <ele>377.099</ele>
        <time>2020-10-17T12:35:06Z</time>
      </trkpt>
      <trkpt lat="42.245078" lon="2.758995">
        <ele>377.015</ele>
        <time>2020-10-17T12:35:08Z</time>
      </trkpt>
      <trkpt lat="42.245122" lon="2.758876">
        <ele>377.065</ele>
        <time>2020-10-17T12:35:10Z</time>
      </trkpt>
      <trkpt lat="42.245122" lon="2.758876">
        <ele>377.011</ele>
        <time>2020-10-17T12:35:10Z</time>
      </trkpt>
      <trkpt lat="42.245134" lon="2.758803">
        <ele>377.008</ele>
        <time>2020-10-17T12:35:11Z</time>
      </trkpt>
      <trkpt lat="42.245148" lon="2.758626">
        <ele>377.036</ele>
        <time>2020-10-17T12:35:13Z</time>
      </trkpt>
      <trkpt lat="42.245154" lon="2.758540">
        <ele>376.969</ele>
        <time>2020-10-17T12:35:14Z</time>
      </trkpt>
      <trkpt lat="42.245187" lon="2.758388">
        <ele>376.728</ele>
        <time>2020-10-17T12:35:16Z</time>
      </trkpt>
      <trkpt lat="42.245208" lon="2.758317">
        <ele>376.527</ele>
        <time>2020-10-17T12:35:17Z</time>
      </trkpt>
      <trkpt lat="42.245226" lon="2.758244">
        <ele>376.316</ele>
        <time>2020-10-17T12:35:18Z</time>
      </trkpt>
      <trkpt lat="42.245274" lon="2.758084">
        <ele>376.034</ele>
        <time>2020-10-17T12:35:20Z</time>
      </trkpt>
      <trkpt lat="42.245339" lon="2.757921">
        <ele>375.774</ele>
        <time>2020-10-17T12:35:22Z</time>
      </trkpt>
      <trkpt lat="42.245378" lon="2.757840">
        <ele>375.569</ele>
        <time>2020-10-17T12:35:23Z</time>
      </trkpt>
      <trkpt lat="42.245419" lon="2.757760">
        <ele>375.229</ele>
        <time>2020-10-17T12:35:24Z</time>
      </trkpt>
      <trkpt lat="42.245419" lon="2.757760">
        <ele>375.200</ele>
        <time>2020-10-17T12:35:24Z</time>
      </trkpt>
      <trkpt lat="42.245503" lon="2.757593">
        <ele>375.120</ele>
        <time>2020-10-17T12:35:26Z</time>
      </trkpt>
      <trkpt lat="42.245584" lon="2.757392">
        <ele>374.508</ele>
        <time>2020-10-17T12:35:28Z</time>
      </trkpt>
      <trkpt lat="42.245584" lon="2.757392">
        <ele>374.517</ele>
        <time>2020-10-17T12:35:28Z</time>
      </trkpt>
      <trkpt lat="42.245655" lon="2.757154">
        <ele>373.890</ele>
        <time>2020-10-17T12:35:30Z</time>
      </trkpt>
      <trkpt lat="42.245655" lon="2.757154">
        <ele>373.829</ele>
        <time>2020-10-17T12:35:30Z</time>
      </trkpt>
      <trkpt lat="42.245710" lon="2.756898">
        <ele>373.128</ele>
        <time>2020-10-17T12:35:32Z</time>
      </trkpt>
      <trkpt lat="42.245710" lon="2.756898">
        <ele>373.187</ele>
        <time>2020-10-17T12:35:32Z</time>
      </trkpt>
      <trkpt lat="42.245739" lon="2.756649">
        <ele>372.815</ele>
        <time>2020-10-17T12:35:34Z</time>
      </trkpt>
      <trkpt lat="42.245746" lon="2.756523">
        <ele>372.655</ele>
        <time>2020-10-17T12:35:35Z</time>
      </trkpt>
      <trkpt lat="42.245746" lon="2.756523">
        <ele>372.630</ele>
        <time>2020-10-17T12:35:35Z</time>
      </trkpt>
      <trkpt lat="42.245752" lon="2.756397">
        <ele>372.768</ele>
        <time>2020-10-17T12:35:36Z</time>
      </trkpt>
      <trkpt lat="42.245760" lon="2.756270">
        <ele>372.842</ele>
        <time>2020-10-17T12:35:37Z</time>
      </trkpt>
      <trkpt lat="42.245760" lon="2.756270">
        <ele>372.826</ele>
        <time>2020-10-17T12:35:37Z</time>
      </trkpt>
      <trkpt lat="42.245797" lon="2.756024">
        <ele>372.608</ele>
        <time>2020-10-17T12:35:39Z</time>
      </trkpt>
      <trkpt lat="42.245797" lon="2.756024">
        <ele>372.631</ele>
        <time>2020-10-17T12:35:39Z</time>
      </trkpt>
      <trkpt lat="42.245877" lon="2.755813">
        <ele>372.424</ele>
        <time>2020-10-17T12:35:41Z</time>
      </trkpt>
      <trkpt lat="42.245997" lon="2.755642">
        <ele>372.093</ele>
        <time>2020-10-17T12:35:43Z</time>
      </trkpt>
      <trkpt lat="42.246087" lon="2.755475">
        <ele>371.812</ele>
        <time>2020-10-17T12:35:45Z</time>
      </trkpt>
      <trkpt lat="42.246128" lon="2.755293">
        <ele>371.781</ele>
        <time>2020-10-17T12:35:47Z</time>
      </trkpt>
      <trkpt lat="42.246143" lon="2.755211">
        <ele>371.689</ele>
        <time>2020-10-17T12:35:48Z</time>
      </trkpt>
      <trkpt lat="42.246181" lon="2.755138">
        <ele>372.159</ele>
        <time>2020-10-17T12:35:50Z</time>
      </trkpt>
      <trkpt lat="42.246242" lon="2.755146">
        <ele>372.984</ele>
        <time>2020-10-17T12:35:52Z</time>
      </trkpt>
      <trkpt lat="42.246310" lon="2.755201">
        <ele>374.195</ele>
        <time>2020-10-17T12:35:54Z</time>
      </trkpt>
      <trkpt lat="42.246397" lon="2.755255">
        <ele>375.049</ele>
        <time>2020-10-17T12:35:56Z</time>
      </trkpt>
      <trkpt lat="42.246485" lon="2.755228">
        <ele>375.723</ele>
        <time>2020-10-17T12:35:58Z</time>
      </trkpt>
      <trkpt lat="42.246539" lon="2.755174">
        <ele>376.208</ele>
        <time>2020-10-17T12:35:59Z</time>
      </trkpt>
      <trkpt lat="42.246640" lon="2.754987">
        <ele>376.854</ele>
        <time>2020-10-17T12:36:01Z</time>
      </trkpt>
      <trkpt lat="42.246722" lon="2.754732">
        <ele>377.047</ele>
        <time>2020-10-17T12:36:03Z</time>
      </trkpt>
      <trkpt lat="42.246722" lon="2.754732">
        <ele>377.066</ele>
        <time>2020-10-17T12:36:03Z</time>
      </trkpt>
      <trkpt lat="42.246803" lon="2.754498">
        <ele>377.195</ele>
        <time>2020-10-17T12:36:05Z</time>
      </trkpt>
      <trkpt lat="42.246885" lon="2.754294">
        <ele>377.384</ele>
        <time>2020-10-17T12:36:07Z</time>
      </trkpt>
      <trkpt lat="42.246959" lon="2.754102">
        <ele>377.522</ele>
        <time>2020-10-17T12:36:09Z</time>
      </trkpt>
      <trkpt lat="42.247018" lon="2.753970">
        <ele>377.792</ele>
        <time>2020-10-17T12:36:11Z</time>
      </trkpt>
      <trkpt lat="42.247067" lon="2.753968">
        <ele>377.967</ele>
        <time>2020-10-17T12:36:13Z</time>
      </trkpt>
      <trkpt lat="42.247119" lon="2.754063">
        <ele>378.768</ele>
        <time>2020-10-17T12:36:15Z</time>
      </trkpt>
      <trkpt lat="42.247119" lon="2.754063">
        <ele>378.742</ele>
        <time>2020-10-17T12:36:15Z</time>
      </trkpt>
      <trkpt lat="42.247132" lon="2.754134">
        <ele>379.026</ele>
        <time>2020-10-17T12:36:16Z</time>
      </trkpt>
      <trkpt lat="42.247140" lon="2.754300">
        <ele>379.608</ele>
        <time>2020-10-17T12:36:18Z</time>
      </trkpt>
      <trkpt lat="42.247154" lon="2.754491">
        <ele>380.511</ele>
        <time>2020-10-17T12:36:20Z</time>
      </trkpt>
      <trkpt lat="42.247169" lon="2.754583">
        <ele>381.314</ele>
        <time>2020-10-17T12:36:21Z</time>
      </trkpt>
      <trkpt lat="42.247195" lon="2.754738">
        <ele>382.233</ele>
        <time>2020-10-17T12:36:23Z</time>
      </trkpt>
      <trkpt lat="42.247204" lon="2.754847">
        <ele>382.922</ele>
        <time>2020-10-17T12:36:25Z</time>
      </trkpt>
      <trkpt lat="42.247194" lon="2.754946">
        <ele>383.671</ele>
        <time>2020-10-17T12:36:27Z</time>
      </trkpt>
      <trkpt lat="42.247182" lon="2.755087">
        <ele>384.879</ele>
        <time>2020-10-17T12:36:29Z</time>
      </trkpt>
      <trkpt lat="42.247163" lon="2.755248">
        <ele>386.299</ele>
        <time>2020-10-17T12:36:31Z</time>
      </trkpt>
      <trkpt lat="42.247129" lon="2.755457">
        <ele>387.814</ele>
        <time>2020-10-17T12:36:33Z</time>
      </trkpt>
      <trkpt lat="42.247078" lon="2.755704">
        <ele>389.323</ele>
        <time>2020-10-17T12:36:35Z</time>
      </trkpt>
      <trkpt lat="42.247051" lon="2.755829">
        <ele>390.483</ele>
        <time>2020-10-17T12:36:36Z</time>
      </trkpt>
      <trkpt lat="42.247024" lon="2.755948">
        <ele>391.711</ele>
        <time>2020-10-17T12:36:37Z</time>
      </trkpt>
      <trkpt lat="42.247024" lon="2.755948">
        <ele>391.708</ele>
        <time>2020-10-17T12:36:37Z</time>
      </trkpt>
      <trkpt lat="42.246981" lon="2.756154">
        <ele>392.437</ele>
        <time>2020-10-17T12:36:39Z</time>
      </trkpt>
      <trkpt lat="42.246965" lon="2.756235">
        <ele>393.080</ele>
        <time>2020-10-17T12:36:40Z</time>
      </trkpt>
      <trkpt lat="42.246953" lon="2.756294">
        <ele>393.619</ele>
        <time>2020-10-17T12:36:41Z</time>
      </trkpt>
      <trkpt lat="42.246953" lon="2.756294">
        <ele>393.668</ele>
        <time>2020-10-17T12:36:41Z</time>
      </trkpt>
      <trkpt lat="42.246949" lon="2.756368">
        <ele>393.787</ele>
        <time>2020-10-17T12:36:43Z</time>
      </trkpt>
      <trkpt lat="42.246996" lon="2.756311">
        <ele>393.475</ele>
        <time>2020-10-17T12:36:47Z</time>
      </trkpt>
      <trkpt lat="42.246996" lon="2.756311">
        <ele>393.425</ele>
        <time>2020-10-17T12:36:47Z</time>
      </trkpt>
      <trkpt lat="42.247008" lon="2.756220">
        <ele>393.520</ele>
        <time>2020-10-17T12:36:49Z</time>
      </trkpt>
      <trkpt lat="42.247028" lon="2.756098">
        <ele>393.889</ele>
        <time>2020-10-17T12:36:51Z</time>
      </trkpt>
      <trkpt lat="42.247065" lon="2.755967">
        <ele>394.206</ele>
        <time>2020-10-17T12:36:53Z</time>
      </trkpt>
      <trkpt lat="42.247088" lon="2.755902">
        <ele>394.626</ele>
        <time>2020-10-17T12:36:54Z</time>
      </trkpt>
      <trkpt lat="42.247113" lon="2.755833">
        <ele>395.108</ele>
        <time>2020-10-17T12:36:55Z</time>
      </trkpt>
      <trkpt lat="42.247113" lon="2.755833">
        <ele>395.113</ele>
        <time>2020-10-17T12:36:55Z</time>
      </trkpt>
      <trkpt lat="42.247161" lon="2.755706">
        <ele>395.586</ele>
        <time>2020-10-17T12:36:57Z</time>
      </trkpt>
      <trkpt lat="42.247220" lon="2.755653">
        <ele>396.495</ele>
        <time>2020-10-17T12:36:59Z</time>
      </trkpt>
      <trkpt lat="42.247220" lon="2.755653">
        <ele>396.454</ele>
        <time>2020-10-17T12:36:59Z</time>
      </trkpt>
      <trkpt lat="42.247300" lon="2.755701">
        <ele>396.973</ele>
        <time>2020-10-17T12:37:01Z</time>
      </trkpt>
      <trkpt lat="42.247342" lon="2.755811">
        <ele>398.141</ele>
        <time>2020-10-17T12:37:03Z</time>
      </trkpt>
      <trkpt lat="42.247342" lon="2.755811">
        <ele>398.191</ele>
        <time>2020-10-17T12:37:03Z</time>
      </trkpt>
      <trkpt lat="42.247377" lon="2.755970">
        <ele>398.916</ele>
        <time>2020-10-17T12:37:05Z</time>
      </trkpt>
      <trkpt lat="42.247426" lon="2.756126">
        <ele>400.853</ele>
        <time>2020-10-17T12:37:07Z</time>
      </trkpt>
      <trkpt lat="42.247426" lon="2.756126">
        <ele>400.804</ele>
        <time>2020-10-17T12:37:07Z</time>
      </trkpt>
      <trkpt lat="42.247493" lon="2.756216">
        <ele>402.414</ele>
        <time>2020-10-17T12:37:09Z</time>
      </trkpt>
      <trkpt lat="42.247493" lon="2.756216">
        <ele>402.408</ele>
        <time>2020-10-17T12:37:09Z</time>
      </trkpt>
      <trkpt lat="42.247563" lon="2.756221">
        <ele>403.880</ele>
        <time>2020-10-17T12:37:11Z</time>
      </trkpt>
      <trkpt lat="42.247563" lon="2.756221">
        <ele>403.863</ele>
        <time>2020-10-17T12:37:11Z</time>
      </trkpt>
      <trkpt lat="42.247610" lon="2.756193">
        <ele>404.452</ele>
        <time>2020-10-17T12:37:12Z</time>
      </trkpt>
      <trkpt lat="42.247655" lon="2.756131">
        <ele>405.221</ele>
        <time>2020-10-17T12:37:13Z</time>
      </trkpt>
      <trkpt lat="42.247747" lon="2.755970">
        <ele>406.160</ele>
        <time>2020-10-17T12:37:15Z</time>
      </trkpt>
      <trkpt lat="42.247851" lon="2.755812">
        <ele>407.318</ele>
        <time>2020-10-17T12:37:17Z</time>
      </trkpt>
      <trkpt lat="42.247907" lon="2.755742">
        <ele>408.438</ele>
        <time>2020-10-17T12:37:18Z</time>
      </trkpt>
      <trkpt lat="42.247959" lon="2.755686">
        <ele>409.573</ele>
        <time>2020-10-17T12:37:19Z</time>
      </trkpt>
      <trkpt lat="42.248056" lon="2.755647">
        <ele>410.834</ele>
        <time>2020-10-17T12:37:21Z</time>
      </trkpt>
      <trkpt lat="42.248105" lon="2.755668">
        <ele>411.955</ele>
        <time>2020-10-17T12:37:22Z</time>
      </trkpt>
      <trkpt lat="42.248208" lon="2.755744">
        <ele>413.810</ele>
        <time>2020-10-17T12:37:24Z</time>
      </trkpt>
      <trkpt lat="42.248208" lon="2.755744">
        <ele>413.808</ele>
        <time>2020-10-17T12:37:24Z</time>
      </trkpt>
      <trkpt lat="42.248275" lon="2.755790">
        <ele>414.568</ele>
        <time>2020-10-17T12:37:25Z</time>
      </trkpt>
      <trkpt lat="42.248347" lon="2.755831">
        <ele>415.161</ele>
        <time>2020-10-17T12:37:26Z</time>
      </trkpt>
      <trkpt lat="42.248504" lon="2.755886">
        <ele>416.490</ele>
        <time>2020-10-17T12:37:28Z</time>
      </trkpt>
      <trkpt lat="42.248504" lon="2.755886">
        <ele>416.449</ele>
        <time>2020-10-17T12:37:28Z</time>
      </trkpt>
      <trkpt lat="42.248588" lon="2.755900">
        <ele>416.998</ele>
        <time>2020-10-17T12:37:29Z</time>
      </trkpt>
      <trkpt lat="42.248675" lon="2.755906">
        <ele>417.566</ele>
        <time>2020-10-17T12:37:30Z</time>
      </trkpt>
      <trkpt lat="42.248865" lon="2.755903">
        <ele>418.886</ele>
        <time>2020-10-17T12:37:32Z</time>
      </trkpt>
      <trkpt lat="42.248865" lon="2.755903">
        <ele>418.821</ele>
        <time>2020-10-17T12:37:32Z</time>
      </trkpt>
      <trkpt lat="42.249069" lon="2.755910">
        <ele>419.493</ele>
        <time>2020-10-17T12:37:34Z</time>
      </trkpt>
      <trkpt lat="42.249163" lon="2.755915">
        <ele>419.965</ele>
        <time>2020-10-17T12:37:35Z</time>
      </trkpt>
      <trkpt lat="42.249248" lon="2.755920">
        <ele>420.621</ele>
        <time>2020-10-17T12:37:36Z</time>
      </trkpt>
      <trkpt lat="42.249248" lon="2.755920">
        <ele>420.608</ele>
        <time>2020-10-17T12:37:36Z</time>
      </trkpt>
      <trkpt lat="42.249394" lon="2.755927">
        <ele>421.084</ele>
        <time>2020-10-17T12:37:38Z</time>
      </trkpt>
      <trkpt lat="42.249525" lon="2.755889">
        <ele>421.877</ele>
        <time>2020-10-17T12:37:40Z</time>
      </trkpt>
      <trkpt lat="42.249667" lon="2.755804">
        <ele>423.346</ele>
        <time>2020-10-17T12:37:42Z</time>
      </trkpt>
      <trkpt lat="42.249825" lon="2.755684">
        <ele>426.325</ele>
        <time>2020-10-17T12:37:44Z</time>
      </trkpt>
      <trkpt lat="42.249825" lon="2.755684">
        <ele>426.374</ele>
        <time>2020-10-17T12:37:44Z</time>
      </trkpt>
      <trkpt lat="42.249974" lon="2.755571">
        <ele>427.872</ele>
        <time>2020-10-17T12:37:46Z</time>
      </trkpt>
      <trkpt lat="42.250038" lon="2.755521">
        <ele>429.062</ele>
        <time>2020-10-17T12:37:47Z</time>
      </trkpt>
      <trkpt lat="42.250147" lon="2.755446">
        <ele>430.437</ele>
        <time>2020-10-17T12:37:49Z</time>
      </trkpt>
      <trkpt lat="42.250189" lon="2.755409">
        <ele>431.659</ele>
        <time>2020-10-17T12:37:50Z</time>
      </trkpt>
      <trkpt lat="42.250265" lon="2.755315">
        <ele>433.503</ele>
        <time>2020-10-17T12:37:52Z</time>
      </trkpt>
      <trkpt lat="42.250265" lon="2.755315">
        <ele>433.523</ele>
        <time>2020-10-17T12:37:52Z</time>
      </trkpt>
      <trkpt lat="42.250307" lon="2.755256">
        <ele>434.108</ele>
        <time>2020-10-17T12:37:53Z</time>
      </trkpt>
      <trkpt lat="42.250411" lon="2.755129">
        <ele>435.040</ele>
        <time>2020-10-17T12:37:55Z</time>
      </trkpt>
      <trkpt lat="42.250471" lon="2.755064">
        <ele>436.333</ele>
        <time>2020-10-17T12:37:56Z</time>
      </trkpt>
      <trkpt lat="42.250471" lon="2.755064">
        <ele>436.372</ele>
        <time>2020-10-17T12:37:56Z</time>
      </trkpt>
      <trkpt lat="42.250596" lon="2.754921">
        <ele>437.351</ele>
        <time>2020-10-17T12:37:58Z</time>
      </trkpt>
      <trkpt lat="42.250735" lon="2.754771">
        <ele>438.780</ele>
        <time>2020-10-17T12:38:00Z</time>
      </trkpt>
      <trkpt lat="42.250807" lon="2.754701">
        <ele>440.618</ele>
        <time>2020-10-17T12:38:01Z</time>
      </trkpt>
      <trkpt lat="42.250807" lon="2.754701">
        <ele>440.628</ele>
        <time>2020-10-17T12:38:01Z</time>
      </trkpt>
      <trkpt lat="42.250877" lon="2.754638">
        <ele>441.543</ele>
        <time>2020-10-17T12:38:02Z</time>
      </trkpt>
      <trkpt lat="42.251009" lon="2.754529">
        <ele>442.764</ele>
        <time>2020-10-17T12:38:04Z</time>
      </trkpt>
      <trkpt lat="42.251076" lon="2.754472">
        <ele>443.706</ele>
        <time>2020-10-17T12:38:05Z</time>
      </trkpt>
      <trkpt lat="42.251144" lon="2.754403">
        <ele>444.916</ele>
        <time>2020-10-17T12:38:06Z</time>
      </trkpt>
      <trkpt lat="42.251144" lon="2.754403">
        <ele>444.908</ele>
        <time>2020-10-17T12:38:06Z</time>
      </trkpt>
      <trkpt lat="42.251278" lon="2.754251">
        <ele>445.621</ele>
        <time>2020-10-17T12:38:08Z</time>
      </trkpt>
      <trkpt lat="42.251355" lon="2.754168">
        <ele>446.754</ele>
        <time>2020-10-17T12:38:09Z</time>
      </trkpt>
      <trkpt lat="42.251355" lon="2.754168">
        <ele>446.713</ele>
        <time>2020-10-17T12:38:09Z</time>
      </trkpt>
      <trkpt lat="42.251513" lon="2.753981">
        <ele>447.322</ele>
        <time>2020-10-17T12:38:11Z</time>
      </trkpt>
      <trkpt lat="42.251673" lon="2.753767">
        <ele>448.221</ele>
        <time>2020-10-17T12:38:13Z</time>
      </trkpt>
      <trkpt lat="42.251673" lon="2.753767">
        <ele>448.249</ele>
        <time>2020-10-17T12:38:13Z</time>
      </trkpt>
      <trkpt lat="42.251847" lon="2.753549">
        <ele>448.719</ele>
        <time>2020-10-17T12:38:15Z</time>
      </trkpt>
      <trkpt lat="42.251931" lon="2.753448">
        <ele>449.184</ele>
        <time>2020-10-17T12:38:16Z</time>
      </trkpt>
      <trkpt lat="42.252006" lon="2.753361">
        <ele>449.585</ele>
        <time>2020-10-17T12:38:17Z</time>
      </trkpt>
      <trkpt lat="42.252078" lon="2.753297">
        <ele>450.489</ele>
        <time>2020-10-17T12:38:18Z</time>
      </trkpt>
      <trkpt lat="42.252078" lon="2.753297">
        <ele>450.417</ele>
        <time>2020-10-17T12:38:18Z</time>
      </trkpt>
      <trkpt lat="42.252147" lon="2.753256">
        <ele>450.808</ele>
        <time>2020-10-17T12:38:19Z</time>
      </trkpt>
      <trkpt lat="42.252276" lon="2.753219">
        <ele>451.573</ele>
        <time>2020-10-17T12:38:21Z</time>
      </trkpt>
      <trkpt lat="42.252348" lon="2.753212">
        <ele>452.566</ele>
        <time>2020-10-17T12:38:22Z</time>
      </trkpt>
      <trkpt lat="42.252348" lon="2.753212">
        <ele>452.595</ele>
        <time>2020-10-17T12:38:22Z</time>
      </trkpt>
      <trkpt lat="42.252429" lon="2.753212">
        <ele>452.984</ele>
        <time>2020-10-17T12:38:23Z</time>
      </trkpt>
      <trkpt lat="42.252511" lon="2.753218">
        <ele>453.313</ele>
        <time>2020-10-17T12:38:24Z</time>
      </trkpt>
      <trkpt lat="42.252647" lon="2.753231">
        <ele>454.391</ele>
        <time>2020-10-17T12:38:26Z</time>
      </trkpt>
      <trkpt lat="42.252647" lon="2.753231">
        <ele>454.381</ele>
        <time>2020-10-17T12:38:26Z</time>
      </trkpt>
      <trkpt lat="42.252792" lon="2.753251">
        <ele>455.146</ele>
        <time>2020-10-17T12:38:28Z</time>
      </trkpt>
      <trkpt lat="42.252958" lon="2.753240">
        <ele>456.264</ele>
        <time>2020-10-17T12:38:30Z</time>
      </trkpt>
      <trkpt lat="42.253047" lon="2.753233">
        <ele>457.806</ele>
        <time>2020-10-17T12:38:31Z</time>
      </trkpt>
      <trkpt lat="42.253047" lon="2.753233">
        <ele>457.816</ele>
        <time>2020-10-17T12:38:31Z</time>
      </trkpt>
      <trkpt lat="42.253214" lon="2.753227">
        <ele>459.008</ele>
        <time>2020-10-17T12:38:33Z</time>
      </trkpt>
      <trkpt lat="42.253304" lon="2.753241">
        <ele>460.171</ele>
        <time>2020-10-17T12:38:34Z</time>
      </trkpt>
      <trkpt lat="42.253398" lon="2.753264">
        <ele>461.254</ele>
        <time>2020-10-17T12:38:35Z</time>
      </trkpt>
      <trkpt lat="42.253570" lon="2.753316">
        <ele>462.713</ele>
        <time>2020-10-17T12:38:37Z</time>
      </trkpt>
      <trkpt lat="42.253654" lon="2.753331">
        <ele>464.012</ele>
        <time>2020-10-17T12:38:38Z</time>
      </trkpt>
      <trkpt lat="42.253808" lon="2.753324">
        <ele>466.511</ele>
        <time>2020-10-17T12:38:40Z</time>
      </trkpt>
      <trkpt lat="42.253808" lon="2.753324">
        <ele>466.519</ele>
        <time>2020-10-17T12:38:40Z</time>
      </trkpt>
      <trkpt lat="42.253913" lon="2.753264">
        <ele>468.099</ele>
        <time>2020-10-17T12:38:42Z</time>
      </trkpt>
      <trkpt lat="42.253952" lon="2.753167">
        <ele>470.084</ele>
        <time>2020-10-17T12:38:44Z</time>
      </trkpt>
      <trkpt lat="42.253958" lon="2.753094">
        <ele>471.548</ele>
        <time>2020-10-17T12:38:45Z</time>
      </trkpt>
      <trkpt lat="42.253965" lon="2.752931">
        <ele>472.861</ele>
        <time>2020-10-17T12:38:47Z</time>
      </trkpt>
      <trkpt lat="42.253976" lon="2.752841">
        <ele>473.817</ele>
        <time>2020-10-17T12:38:48Z</time>
      </trkpt>
      <trkpt lat="42.254010" lon="2.752656">
        <ele>474.908</ele>
        <time>2020-10-17T12:38:50Z</time>
      </trkpt>
      <trkpt lat="42.254029" lon="2.752561">
        <ele>475.939</ele>
        <time>2020-10-17T12:38:51Z</time>
      </trkpt>
      <trkpt lat="42.254047" lon="2.752466">
        <ele>477.452</ele>
        <time>2020-10-17T12:38:52Z</time>
      </trkpt>
      <trkpt lat="42.254047" lon="2.752466">
        <ele>477.411</ele>
        <time>2020-10-17T12:38:52Z</time>
      </trkpt>
      <trkpt lat="42.254082" lon="2.752263">
        <ele>478.320</ele>
        <time>2020-10-17T12:38:54Z</time>
      </trkpt>
      <trkpt lat="42.254120" lon="2.752024">
        <ele>479.679</ele>
        <time>2020-10-17T12:38:56Z</time>
      </trkpt>
      <trkpt lat="42.254120" lon="2.752024">
        <ele>479.667</ele>
        <time>2020-10-17T12:38:56Z</time>
      </trkpt>
      <trkpt lat="42.254140" lon="2.751899">
        <ele>480.077</ele>
        <time>2020-10-17T12:38:57Z</time>
      </trkpt>
      <trkpt lat="42.254193" lon="2.751703">
        <ele>480.662</ele>
        <time>2020-10-17T12:38:59Z</time>
      </trkpt>
      <trkpt lat="42.254245" lon="2.751599">
        <ele>481.489</ele>
        <time>2020-10-17T12:39:01Z</time>
      </trkpt>
      <trkpt lat="42.254245" lon="2.751599">
        <ele>481.406</ele>
        <time>2020-10-17T12:39:01Z</time>
      </trkpt>
      <trkpt lat="42.254222" lon="2.751545">
        <ele>482.926</ele>
        <time>2020-10-17T12:39:05Z</time>
      </trkpt>
      <trkpt lat="42.254222" lon="2.751545">
        <ele>482.908</ele>
        <time>2020-10-17T12:39:05Z</time>
      </trkpt>
      <trkpt lat="42.254157" lon="2.751562">
        <ele>484.063</ele>
        <time>2020-10-17T12:39:07Z</time>
      </trkpt>
      <trkpt lat="42.254117" lon="2.751654">
        <ele>486.016</ele>
        <time>2020-10-17T12:39:09Z</time>
      </trkpt>
      <trkpt lat="42.254117" lon="2.751654">
        <ele>486.065</ele>
        <time>2020-10-17T12:39:09Z</time>
      </trkpt>
      <trkpt lat="42.254062" lon="2.751796">
        <ele>487.064</ele>
        <time>2020-10-17T12:39:11Z</time>
      </trkpt>
      <trkpt lat="42.254029" lon="2.751867">
        <ele>487.873</ele>
        <time>2020-10-17T12:39:12Z</time>
      </trkpt>
      <trkpt lat="42.253991" lon="2.751941">
        <ele>488.981</ele>
        <time>2020-10-17T12:39:13Z</time>
      </trkpt>
      <trkpt lat="42.253991" lon="2.751941">
        <ele>488.961</ele>
        <time>2020-10-17T12:39:13Z</time>
      </trkpt>
      <trkpt lat="42.253894" lon="2.752105">
        <ele>489.856</ele>
        <time>2020-10-17T12:39:15Z</time>
      </trkpt>
      <trkpt lat="42.253843" lon="2.752172">
        <ele>490.676</ele>
        <time>2020-10-17T12:39:16Z</time>
      </trkpt>
      <trkpt lat="42.253801" lon="2.752216">
        <ele>492.090</ele>
        <time>2020-10-17T12:39:17Z</time>
      </trkpt>
      <trkpt lat="42.253801" lon="2.752216">
        <ele>492.019</ele>
        <time>2020-10-17T12:39:17Z</time>
      </trkpt>
      <trkpt lat="42.253751" lon="2.752228">
        <ele>493.008</ele>
        <time>2020-10-17T12:39:19Z</time>
      </trkpt>
      <trkpt lat="42.253712" lon="2.752188">
        <ele>495.062</ele>
        <time>2020-10-17T12:39:21Z</time>
      </trkpt>
      <trkpt lat="42.253712" lon="2.752188">
        <ele>495.015</ele>
        <time>2020-10-17T12:39:21Z</time>
      </trkpt>
      <trkpt lat="42.253707" lon="2.752101">
        <ele>495.694</ele>
        <time>2020-10-17T12:39:23Z</time>
      </trkpt>
      <trkpt lat="42.253726" lon="2.752044">
        <ele>496.163</ele>
        <time>2020-10-17T12:39:24Z</time>
      </trkpt>
      <trkpt lat="42.253763" lon="2.751982">
        <ele>496.782</ele>
        <time>2020-10-17T12:39:25Z</time>
      </trkpt>
      <trkpt lat="42.253763" lon="2.751982">
        <ele>496.740</ele>
        <time>2020-10-17T12:39:25Z</time>
      </trkpt>
      <trkpt lat="42.253829" lon="2.751878">
        <ele>497.170</ele>
        <time>2020-10-17T12:39:27Z</time>
      </trkpt>
      <trkpt lat="42.253859" lon="2.751786">
        <ele>497.945</ele>
        <time>2020-10-17T12:39:29Z</time>
      </trkpt>
      <trkpt lat="42.253859" lon="2.751786">
        <ele>497.938</ele>
        <time>2020-10-17T12:39:29Z</time>
      </trkpt>
      <trkpt lat="42.253872" lon="2.751667">
        <ele>498.470</ele>
        <time>2020-10-17T12:39:31Z</time>
      </trkpt>
      <trkpt lat="42.253870" lon="2.751593">
        <ele>498.817</ele>
        <time>2020-10-17T12:39:32Z</time>
      </trkpt>
      <trkpt lat="42.253851" lon="2.751299">
        <ele>499.208</ele>
        <time>2020-10-17T12:39:36Z</time>
      </trkpt>
      <trkpt lat="42.253811" lon="2.751069">
        <ele>499.798</ele>
        <time>2020-10-17T12:39:37Z</time>
      </trkpt>
      <trkpt lat="42.253794" lon="2.750975">
        <ele>500.111</ele>
        <time>2020-10-17T12:39:38Z</time>
      </trkpt>
      <trkpt lat="42.253783" lon="2.750881">
        <ele>501.020</ele>
        <time>2020-10-17T12:39:40Z</time>
      </trkpt>
      <trkpt lat="42.253783" lon="2.750881">
        <ele>501.029</ele>
        <time>2020-10-17T12:39:40Z</time>
      </trkpt>
      <trkpt lat="42.253793" lon="2.750773">
        <ele>501.788</ele>
        <time>2020-10-17T12:39:42Z</time>
      </trkpt>
      <trkpt lat="42.253797" lon="2.750711">
        <ele>502.456</ele>
        <time>2020-10-17T12:39:43Z</time>
      </trkpt>
      <trkpt lat="42.253757" lon="2.750604">
        <ele>503.426</ele>
        <time>2020-10-17T12:39:45Z</time>
      </trkpt>
      <trkpt lat="42.253757" lon="2.750604">
        <ele>503.411</ele>
        <time>2020-10-17T12:39:45Z</time>
      </trkpt>
      <trkpt lat="42.253676" lon="2.750476">
        <ele>503.876</ele>
        <time>2020-10-17T12:39:47Z</time>
      </trkpt>
      <trkpt lat="42.253628" lon="2.750388">
        <ele>504.490</ele>
        <time>2020-10-17T12:39:48Z</time>
      </trkpt>
      <trkpt lat="42.253628" lon="2.750388">
        <ele>504.419</ele>
        <time>2020-10-17T12:39:48Z</time>
      </trkpt>
      <trkpt lat="42.253544" lon="2.750207">
        <ele>504.808</ele>
        <time>2020-10-17T12:39:50Z</time>
      </trkpt>
      <trkpt lat="42.253504" lon="2.750123">
        <ele>505.282</ele>
        <time>2020-10-17T12:39:51Z</time>
      </trkpt>
      <trkpt lat="42.253463" lon="2.750039">
        <ele>505.815</ele>
        <time>2020-10-17T12:39:52Z</time>
      </trkpt>
      <trkpt lat="42.253463" lon="2.750039">
        <ele>505.824</ele>
        <time>2020-10-17T12:39:52Z</time>
      </trkpt>
      <trkpt lat="42.253392" lon="2.749850">
        <ele>506.053</ele>
        <time>2020-10-17T12:39:54Z</time>
      </trkpt>
      <trkpt lat="42.253357" lon="2.749638">
        <ele>506.472</ele>
        <time>2020-10-17T12:39:56Z</time>
      </trkpt>
      <trkpt lat="42.253348" lon="2.749525">
        <ele>506.970</ele>
        <time>2020-10-17T12:39:57Z</time>
      </trkpt>
      <trkpt lat="42.253338" lon="2.749410">
        <ele>507.590</ele>
        <time>2020-10-17T12:39:58Z</time>
      </trkpt>
      <trkpt lat="42.253338" lon="2.749410">
        <ele>507.575</ele>
        <time>2020-10-17T12:39:58Z</time>
      </trkpt>
      <trkpt lat="42.253302" lon="2.749209">
        <ele>507.896</ele>
        <time>2020-10-17T12:40:00Z</time>
      </trkpt>
      <trkpt lat="42.253241" lon="2.749055">
        <ele>508.331</ele>
        <time>2020-10-17T12:40:02Z</time>
      </trkpt>
      <trkpt lat="42.253241" lon="2.749055">
        <ele>508.324</ele>
        <time>2020-10-17T12:40:02Z</time>
      </trkpt>
      <trkpt lat="42.253198" lon="2.748987">
        <ele>508.508</ele>
        <time>2020-10-17T12:40:03Z</time>
      </trkpt>
      <trkpt lat="42.253102" lon="2.748895">
        <ele>509.044</ele>
        <time>2020-10-17T12:40:05Z</time>
      </trkpt>
      <trkpt lat="42.253102" lon="2.748895">
        <ele>509.097</ele>
        <time>2020-10-17T12:40:05Z</time>
      </trkpt>
      <trkpt lat="42.252976" lon="2.748879">
        <ele>509.596</ele>
        <time>2020-10-17T12:40:07Z</time>
      </trkpt>
      <trkpt lat="42.252918" lon="2.748898">
        <ele>510.195</ele>
        <time>2020-10-17T12:40:08Z</time>
      </trkpt>
      <trkpt lat="42.252835" lon="2.748932">
        <ele>510.774</ele>
        <time>2020-10-17T12:40:10Z</time>
      </trkpt>
      <trkpt lat="42.252801" lon="2.748870">
        <ele>511.612</ele>
        <time>2020-10-17T12:40:13Z</time>
      </trkpt>
      <trkpt lat="42.252813" lon="2.748753">
        <ele>512.572</ele>
        <time>2020-10-17T12:40:15Z</time>
      </trkpt>
      <trkpt lat="42.252875" lon="2.748617">
        <ele>514.557</ele>
        <time>2020-10-17T12:40:17Z</time>
      </trkpt>
      <trkpt lat="42.252875" lon="2.748617">
        <ele>514.586</ele>
        <time>2020-10-17T12:40:17Z</time>
      </trkpt>
      <trkpt lat="42.252956" lon="2.748490">
        <ele>515.660</ele>
        <time>2020-10-17T12:40:19Z</time>
      </trkpt>
      <trkpt lat="42.253033" lon="2.748366">
        <ele>516.826</ele>
        <time>2020-10-17T12:40:21Z</time>
      </trkpt>
      <trkpt lat="42.253118" lon="2.748201">
        <ele>518.208</ele>
        <time>2020-10-17T12:40:23Z</time>
      </trkpt>
      <trkpt lat="42.253212" lon="2.748007">
        <ele>519.783</ele>
        <time>2020-10-17T12:40:25Z</time>
      </trkpt>
      <trkpt lat="42.253259" lon="2.747907">
        <ele>521.016</ele>
        <time>2020-10-17T12:40:26Z</time>
      </trkpt>
      <trkpt lat="42.253358" lon="2.747698">
        <ele>522.645</ele>
        <time>2020-10-17T12:40:28Z</time>
      </trkpt>
      <trkpt lat="42.253411" lon="2.747588">
        <ele>523.914</ele>
        <time>2020-10-17T12:40:29Z</time>
      </trkpt>
      <trkpt lat="42.253461" lon="2.747491">
        <ele>525.813</ele>
        <time>2020-10-17T12:40:30Z</time>
      </trkpt>
      <trkpt lat="42.253461" lon="2.747491">
        <ele>525.881</ele>
        <time>2020-10-17T12:40:30Z</time>
      </trkpt>
      <trkpt lat="42.253549" lon="2.747356">
        <ele>526.981</ele>
        <time>2020-10-17T12:40:32Z</time>
      </trkpt>
      <trkpt lat="42.253611" lon="2.747361">
        <ele>529.446</ele>
        <time>2020-10-17T12:40:34Z</time>
      </trkpt>
      <trkpt lat="42.253611" lon="2.747361">
        <ele>529.432</ele>
        <time>2020-10-17T12:40:34Z</time>
      </trkpt>
      <trkpt lat="42.253704" lon="2.747402">
        <ele>530.792</ele>
        <time>2020-10-17T12:40:36Z</time>
      </trkpt>
      <trkpt lat="42.253748" lon="2.747420">
        <ele>532.611</ele>
        <time>2020-10-17T12:40:37Z</time>
      </trkpt>
      <trkpt lat="42.253748" lon="2.747420">
        <ele>532.608</ele>
        <time>2020-10-17T12:40:37Z</time>
      </trkpt>
      <trkpt lat="42.253837" lon="2.747392">
        <ele>534.058</ele>
        <time>2020-10-17T12:40:39Z</time>
      </trkpt>
      <trkpt lat="42.253890" lon="2.747347">
        <ele>535.351</ele>
        <time>2020-10-17T12:40:40Z</time>
      </trkpt>
      <trkpt lat="42.253946" lon="2.747296">
        <ele>536.530</ele>
        <time>2020-10-17T12:40:41Z</time>
      </trkpt>
      <trkpt lat="42.254000" lon="2.747243">
        <ele>538.579</ele>
        <time>2020-10-17T12:40:42Z</time>
      </trkpt>
      <trkpt lat="42.254000" lon="2.747243">
        <ele>538.558</ele>
        <time>2020-10-17T12:40:42Z</time>
      </trkpt>
      <trkpt lat="42.254118" lon="2.747131">
        <ele>539.776</ele>
        <time>2020-10-17T12:40:44Z</time>
      </trkpt>
      <trkpt lat="42.254188" lon="2.747072">
        <ele>540.876</ele>
        <time>2020-10-17T12:40:45Z</time>
      </trkpt>
      <trkpt lat="42.254345" lon="2.746966">
        <ele>541.941</ele>
        <time>2020-10-17T12:40:47Z</time>
      </trkpt>
      <trkpt lat="42.254449" lon="2.746889">
        <ele>543.157</ele>
        <time>2020-10-17T12:40:49Z</time>
      </trkpt>
      <trkpt lat="42.254459" lon="2.746823">
        <ele>545.100</ele>
        <time>2020-10-17T12:40:51Z</time>
      </trkpt>
      <trkpt lat="42.254459" lon="2.746823">
        <ele>545.120</ele>
        <time>2020-10-17T12:40:51Z</time>
      </trkpt>
      <trkpt lat="42.254418" lon="2.746773">
        <ele>546.108</ele>
        <time>2020-10-17T12:40:53Z</time>
      </trkpt>
      <trkpt lat="42.254338" lon="2.746752">
        <ele>547.150</ele>
        <time>2020-10-17T12:40:55Z</time>
      </trkpt>
      <trkpt lat="42.254239" lon="2.746735">
        <ele>548.243</ele>
        <time>2020-10-17T12:40:57Z</time>
      </trkpt>
      <trkpt lat="42.254172" lon="2.746698">
        <ele>549.822</ele>
        <time>2020-10-17T12:40:59Z</time>
      </trkpt>
      <trkpt lat="42.254172" lon="2.746698">
        <ele>549.861</ele>
        <time>2020-10-17T12:40:59Z</time>
      </trkpt>
      <trkpt lat="42.254096" lon="2.746592">
        <ele>550.780</ele>
        <time>2020-10-17T12:41:01Z</time>
      </trkpt>
      <trkpt lat="42.254058" lon="2.746533">
        <ele>551.568</ele>
        <time>2020-10-17T12:41:02Z</time>
      </trkpt>
      <trkpt lat="42.253958" lon="2.746463">
        <ele>553.348</ele>
        <time>2020-10-17T12:41:04Z</time>
      </trkpt>
      <trkpt lat="42.253958" lon="2.746463">
        <ele>553.323</ele>
        <time>2020-10-17T12:41:04Z</time>
      </trkpt>
      <trkpt lat="42.253817" lon="2.746478">
        <ele>554.418</ele>
        <time>2020-10-17T12:41:06Z</time>
      </trkpt>
      <trkpt lat="42.253746" lon="2.746499">
        <ele>555.598</ele>
        <time>2020-10-17T12:41:07Z</time>
      </trkpt>
      <trkpt lat="42.253603" lon="2.746544">
        <ele>556.817</ele>
        <time>2020-10-17T12:41:09Z</time>
      </trkpt>
      <trkpt lat="42.253452" lon="2.746618">
        <ele>558.208</ele>
        <time>2020-10-17T12:41:11Z</time>
      </trkpt>
      <trkpt lat="42.253380" lon="2.746651">
        <ele>559.316</ele>
        <time>2020-10-17T12:41:12Z</time>
      </trkpt>
      <trkpt lat="42.253313" lon="2.746676">
        <ele>560.979</ele>
        <time>2020-10-17T12:41:13Z</time>
      </trkpt>
      <trkpt lat="42.253313" lon="2.746676">
        <ele>560.918</ele>
        <time>2020-10-17T12:41:13Z</time>
      </trkpt>
      <trkpt lat="42.253245" lon="2.746681">
        <ele>561.517</ele>
        <time>2020-10-17T12:41:14Z</time>
      </trkpt>
      <trkpt lat="42.253101" lon="2.746624">
        <ele>562.616</ele>
        <time>2020-10-17T12:41:16Z</time>
      </trkpt>
      <trkpt lat="42.253032" lon="2.746562">
        <ele>564.274</ele>
        <time>2020-10-17T12:41:17Z</time>
      </trkpt>
      <trkpt lat="42.253032" lon="2.746562">
        <ele>564.294</ele>
        <time>2020-10-17T12:41:17Z</time>
      </trkpt>
      <trkpt lat="42.252973" lon="2.746484">
        <ele>565.049</ele>
        <time>2020-10-17T12:41:18Z</time>
      </trkpt>
      <trkpt lat="42.252875" lon="2.746351">
        <ele>566.583</ele>
        <time>2020-10-17T12:41:20Z</time>
      </trkpt>
      <trkpt lat="42.252815" lon="2.746310">
        <ele>568.225</ele>
        <time>2020-10-17T12:41:21Z</time>
      </trkpt>
      <trkpt lat="42.252815" lon="2.746310">
        <ele>568.217</ele>
        <time>2020-10-17T12:41:21Z</time>
      </trkpt>
      <trkpt lat="42.252663" lon="2.746256">
        <ele>569.208</ele>
        <time>2020-10-17T12:41:23Z</time>
      </trkpt>
      <trkpt lat="42.252506" lon="2.746153">
        <ele>570.733</ele>
        <time>2020-10-17T12:41:25Z</time>
      </trkpt>
      <trkpt lat="42.252331" lon="2.746010">
        <ele>573.296</ele>
        <time>2020-10-17T12:41:27Z</time>
      </trkpt>
      <trkpt lat="42.252331" lon="2.746010">
        <ele>573.255</ele>
        <time>2020-10-17T12:41:27Z</time>
      </trkpt>
      <trkpt lat="42.252179" lon="2.745898">
        <ele>574.164</ele>
        <time>2020-10-17T12:41:29Z</time>
      </trkpt>
      <trkpt lat="42.252096" lon="2.745801">
        <ele>575.833</ele>
        <time>2020-10-17T12:41:31Z</time>
      </trkpt>
      <trkpt lat="42.252096" lon="2.745801">
        <ele>575.861</ele>
        <time>2020-10-17T12:41:31Z</time>
      </trkpt>
      <trkpt lat="42.252046" lon="2.745649">
        <ele>576.531</ele>
        <time>2020-10-17T12:41:33Z</time>
      </trkpt>
      <trkpt lat="42.252026" lon="2.745562">
        <ele>577.246</ele>
        <time>2020-10-17T12:41:34Z</time>
      </trkpt>
      <trkpt lat="42.252017" lon="2.745478">
        <ele>578.372</ele>
        <time>2020-10-17T12:41:35Z</time>
      </trkpt>
      <trkpt lat="42.252017" lon="2.745478">
        <ele>578.313</ele>
        <time>2020-10-17T12:41:35Z</time>
      </trkpt>
      <trkpt lat="42.252057" lon="2.745347">
        <ele>579.314</ele>
        <time>2020-10-17T12:41:37Z</time>
      </trkpt>
      <trkpt lat="42.252099" lon="2.745324">
        <ele>580.308</ele>
        <time>2020-10-17T12:41:38Z</time>
      </trkpt>
      <trkpt lat="42.252160" lon="2.745343">
        <ele>582.362</ele>
        <time>2020-10-17T12:41:40Z</time>
      </trkpt>
      <trkpt lat="42.252160" lon="2.745343">
        <ele>582.365</ele>
        <time>2020-10-17T12:41:40Z</time>
      </trkpt>
      <trkpt lat="42.252227" lon="2.745404">
        <ele>583.454</ele>
        <time>2020-10-17T12:41:42Z</time>
      </trkpt>
      <trkpt lat="42.252305" lon="2.745508">
        <ele>585.633</ele>
        <time>2020-10-17T12:41:44Z</time>
      </trkpt>
      <trkpt lat="42.252305" lon="2.745508">
        <ele>585.672</ele>
        <time>2020-10-17T12:41:44Z</time>
      </trkpt>
      <trkpt lat="42.252388" lon="2.745589">
        <ele>586.680</ele>
        <time>2020-10-17T12:41:46Z</time>
      </trkpt>
      <trkpt lat="42.252506" lon="2.745628">
        <ele>588.640</ele>
        <time>2020-10-17T12:41:48Z</time>
      </trkpt>
      <trkpt lat="42.252506" lon="2.745628">
        <ele>588.625</ele>
        <time>2020-10-17T12:41:48Z</time>
      </trkpt>
      <trkpt lat="42.252576" lon="2.745644">
        <ele>589.465</ele>
        <time>2020-10-17T12:41:49Z</time>
      </trkpt>
      <trkpt lat="42.252733" lon="2.745680">
        <ele>590.568</ele>
        <time>2020-10-17T12:41:51Z</time>
      </trkpt>
      <trkpt lat="42.252815" lon="2.745701">
        <ele>591.414</ele>
        <time>2020-10-17T12:41:52Z</time>
      </trkpt>
      <trkpt lat="42.252990" lon="2.745744">
        <ele>592.408</ele>
        <time>2020-10-17T12:41:54Z</time>
      </trkpt>
      <trkpt lat="42.253156" lon="2.745777">
        <ele>593.581</ele>
        <time>2020-10-17T12:41:56Z</time>
      </trkpt>
      <trkpt lat="42.253234" lon="2.745778">
        <ele>594.464</ele>
        <time>2020-10-17T12:41:57Z</time>
      </trkpt>
      <trkpt lat="42.253366" lon="2.745749">
        <ele>595.513</ele>
        <time>2020-10-17T12:41:59Z</time>
      </trkpt>
      <trkpt lat="42.253420" lon="2.745724">
        <ele>596.842</ele>
        <time>2020-10-17T12:42:00Z</time>
      </trkpt>
      <trkpt lat="42.253420" lon="2.745724">
        <ele>596.821</ele>
        <time>2020-10-17T12:42:00Z</time>
      </trkpt>
      <trkpt lat="42.253489" lon="2.745670">
        <ele>597.379</ele>
        <time>2020-10-17T12:42:02Z</time>
      </trkpt>
      <trkpt lat="42.253503" lon="2.745583">
        <ele>598.039</ele>
        <time>2020-10-17T12:42:04Z</time>
      </trkpt>
      <trkpt lat="42.253472" lon="2.745523">
        <ele>598.724</ele>
        <time>2020-10-17T12:42:06Z</time>
      </trkpt>
      <trkpt lat="42.253419" lon="2.745525">
        <ele>599.526</ele>
        <time>2020-10-17T12:42:08Z</time>
      </trkpt>
      <trkpt lat="42.253328" lon="2.745570">
        <ele>600.847</ele>
        <time>2020-10-17T12:42:10Z</time>
      </trkpt>
      <trkpt lat="42.253328" lon="2.745570">
        <ele>600.811</ele>
        <time>2020-10-17T12:42:10Z</time>
      </trkpt>
      <trkpt lat="42.253271" lon="2.745594">
        <ele>601.208</ele>
        <time>2020-10-17T12:42:11Z</time>
      </trkpt>
      <trkpt lat="42.253212" lon="2.745610">
        <ele>601.657</ele>
        <time>2020-10-17T12:42:12Z</time>
      </trkpt>
      <trkpt lat="42.253113" lon="2.745591">
        <ele>602.210</ele>
        <time>2020-10-17T12:42:14Z</time>
      </trkpt>
      <trkpt lat="42.253046" lon="2.745533">
        <ele>602.999</ele>
        <time>2020-10-17T12:42:16Z</time>
      </trkpt>
      <trkpt lat="42.252982" lon="2.745524">
        <ele>603.998</ele>
        <time>2020-10-17T12:42:32Z</time>
      </trkpt>
      <trkpt lat="42.252906" lon="2.745496">
        <ele>604.957</ele>
        <time>2020-10-17T12:42:34Z</time>
      </trkpt>
      <trkpt lat="42.252906" lon="2.745496">
        <ele>604.915</ele>
        <time>2020-10-17T12:42:34Z</time>
      </trkpt>
      <trkpt lat="42.252832" lon="2.745445">
        <ele>604.925</ele>
        <time>2020-10-17T12:42:36Z</time>
      </trkpt>
      <trkpt lat="42.252791" lon="2.745413">
        <ele>604.830</ele>
        <time>2020-10-17T12:42:37Z</time>
      </trkpt>
      <trkpt lat="42.252671" lon="2.745334">
        <ele>604.358</ele>
        <time>2020-10-17T12:42:39Z</time>
      </trkpt>
      <trkpt lat="42.252592" lon="2.745278">
        <ele>603.952</ele>
        <time>2020-10-17T12:42:40Z</time>
      </trkpt>
      <trkpt lat="42.252416" lon="2.745120">
        <ele>603.517</ele>
        <time>2020-10-17T12:42:42Z</time>
      </trkpt>
      <trkpt lat="42.252265" lon="2.744951">
        <ele>603.208</ele>
        <time>2020-10-17T12:42:44Z</time>
      </trkpt>
      <trkpt lat="42.252206" lon="2.744863">
        <ele>603.160</ele>
        <time>2020-10-17T12:42:45Z</time>
      </trkpt>
      <trkpt lat="42.252127" lon="2.744701">
        <ele>603.163</ele>
        <time>2020-10-17T12:42:47Z</time>
      </trkpt>
      <trkpt lat="42.252079" lon="2.744592">
        <ele>603.342</ele>
        <time>2020-10-17T12:42:49Z</time>
      </trkpt>
      <trkpt lat="42.252031" lon="2.744586">
        <ele>603.211</ele>
        <time>2020-10-17T12:42:53Z</time>
      </trkpt>
      <trkpt lat="42.251963" lon="2.744573">
        <ele>602.960</ele>
        <time>2020-10-17T12:42:55Z</time>
      </trkpt>
      <trkpt lat="42.251963" lon="2.744573">
        <ele>602.918</ele>
        <time>2020-10-17T12:42:55Z</time>
      </trkpt>
      <trkpt lat="42.251914" lon="2.744563">
        <ele>602.958</ele>
        <time>2020-10-17T12:42:56Z</time>
      </trkpt>
      <trkpt lat="42.251860" lon="2.744549">
        <ele>602.763</ele>
        <time>2020-10-17T12:42:57Z</time>
      </trkpt>
      <trkpt lat="42.251860" lon="2.744549">
        <ele>602.722</ele>
        <time>2020-10-17T12:42:57Z</time>
      </trkpt>
      <trkpt lat="42.251767" lon="2.744485">
        <ele>602.362</ele>
        <time>2020-10-17T12:42:59Z</time>
      </trkpt>
      <trkpt lat="42.251738" lon="2.744430">
        <ele>602.008</ele>
        <time>2020-10-17T12:43:00Z</time>
      </trkpt>
      <trkpt lat="42.251715" lon="2.744367">
        <ele>601.608</ele>
        <time>2020-10-17T12:43:01Z</time>
      </trkpt>
      <trkpt lat="42.251692" lon="2.744300">
        <ele>601.317</ele>
        <time>2020-10-17T12:43:02Z</time>
      </trkpt>
      <trkpt lat="42.251662" lon="2.744230">
        <ele>600.930</ele>
        <time>2020-10-17T12:43:03Z</time>
      </trkpt>
      <trkpt lat="42.251662" lon="2.744230">
        <ele>600.939</ele>
        <time>2020-10-17T12:43:03Z</time>
      </trkpt>
      <trkpt lat="42.251597" lon="2.744103">
        <ele>601.068</ele>
        <time>2020-10-17T12:43:05Z</time>
      </trkpt>
      <trkpt lat="42.251578" lon="2.744047">
        <ele>601.157</ele>
        <time>2020-10-17T12:43:06Z</time>
      </trkpt>
      <trkpt lat="42.251598" lon="2.743982">
        <ele>601.475</ele>
        <time>2020-10-17T12:43:08Z</time>
      </trkpt>
      <trkpt lat="42.251649" lon="2.743968">
        <ele>601.795</ele>
        <time>2020-10-17T12:43:10Z</time>
      </trkpt>
      <trkpt lat="42.251703" lon="2.743983">
        <ele>602.070</ele>
        <time>2020-10-17T12:43:12Z</time>
      </trkpt>
      <trkpt lat="42.251760" lon="2.744023">
        <ele>602.265</ele>
        <time>2020-10-17T12:43:14Z</time>
      </trkpt>
      <trkpt lat="42.251802" lon="2.744066">
        <ele>602.968</ele>
        <time>2020-10-17T12:43:19Z</time>
      </trkpt>
      <trkpt lat="42.251802" lon="2.744066">
        <ele>602.914</ele>
        <time>2020-10-17T12:43:19Z</time>
      </trkpt>
      <trkpt lat="42.251856" lon="2.744116">
        <ele>603.308</ele>
        <time>2020-10-17T12:43:21Z</time>
      </trkpt>
      <trkpt lat="42.251949" lon="2.744158">
        <ele>603.661</ele>
        <time>2020-10-17T12:43:23Z</time>
      </trkpt>
      <trkpt lat="42.252030" lon="2.744144">
        <ele>603.814</ele>
        <time>2020-10-17T12:43:25Z</time>
      </trkpt>
      <trkpt lat="42.252131" lon="2.744084">
        <ele>604.113</ele>
        <time>2020-10-17T12:43:27Z</time>
      </trkpt>
      <trkpt lat="42.252217" lon="2.744051">
        <ele>604.612</ele>
        <time>2020-10-17T12:43:29Z</time>
      </trkpt>
      <trkpt lat="42.252269" lon="2.744082">
        <ele>605.161</ele>
        <time>2020-10-17T12:43:31Z</time>
      </trkpt>
      <trkpt lat="42.252316" lon="2.744130">
        <ele>606.149</ele>
        <time>2020-10-17T12:43:34Z</time>
      </trkpt>
      <trkpt lat="42.252369" lon="2.744210">
        <ele>607.479</ele>
        <time>2020-10-17T12:43:36Z</time>
      </trkpt>
      <trkpt lat="42.252440" lon="2.744347">
        <ele>609.394</ele>
        <time>2020-10-17T12:43:38Z</time>
      </trkpt>
      <trkpt lat="42.252440" lon="2.744347">
        <ele>609.345</ele>
        <time>2020-10-17T12:43:38Z</time>
      </trkpt>
      <trkpt lat="42.252533" lon="2.744454">
        <ele>610.047</ele>
        <time>2020-10-17T12:43:40Z</time>
      </trkpt>
      <trkpt lat="42.252586" lon="2.744488">
        <ele>611.011</ele>
        <time>2020-10-17T12:43:41Z</time>
      </trkpt>
      <trkpt lat="42.252586" lon="2.744488">
        <ele>611.008</ele>
        <time>2020-10-17T12:43:41Z</time>
      </trkpt>
      <trkpt lat="42.252691" lon="2.744535">
        <ele>611.749</ele>
        <time>2020-10-17T12:43:43Z</time>
      </trkpt>
      <trkpt lat="42.252746" lon="2.744555">
        <ele>612.432</ele>
        <time>2020-10-17T12:43:44Z</time>
      </trkpt>
      <trkpt lat="42.252855" lon="2.744593">
        <ele>613.281</ele>
        <time>2020-10-17T12:43:46Z</time>
      </trkpt>
      <trkpt lat="42.252918" lon="2.744617">
        <ele>613.980</ele>
        <time>2020-10-17T12:43:47Z</time>
      </trkpt>
      <trkpt lat="42.252986" lon="2.744638">
        <ele>614.529</ele>
        <time>2020-10-17T12:43:48Z</time>
      </trkpt>
      <trkpt lat="42.253139" lon="2.744665">
        <ele>615.737</ele>
        <time>2020-10-17T12:43:50Z</time>
      </trkpt>
      <trkpt lat="42.253139" lon="2.744665">
        <ele>615.737</ele>
        <time>2020-10-17T12:43:50Z</time>
      </trkpt>
      <trkpt lat="42.253275" lon="2.744673">
        <ele>616.562</ele>
        <time>2020-10-17T12:43:52Z</time>
      </trkpt>
      <trkpt lat="42.253379" lon="2.744679">
        <ele>617.678</ele>
        <time>2020-10-17T12:43:54Z</time>
      </trkpt>
      <trkpt lat="42.253426" lon="2.744659">
        <ele>618.933</ele>
        <time>2020-10-17T12:43:56Z</time>
      </trkpt>
      <trkpt lat="42.253425" lon="2.744593">
        <ele>620.326</ele>
        <time>2020-10-17T12:43:59Z</time>
      </trkpt>
      <trkpt lat="42.253360" lon="2.744561">
        <ele>622.008</ele>
        <time>2020-10-17T12:44:02Z</time>
      </trkpt>
      <trkpt lat="42.253360" lon="2.744561">
        <ele>622.022</ele>
        <time>2020-10-17T12:44:02Z</time>
      </trkpt>
      <trkpt lat="42.253276" lon="2.744560">
        <ele>622.785</ele>
        <time>2020-10-17T12:44:04Z</time>
      </trkpt>
      <trkpt lat="42.253217" lon="2.744526">
        <ele>623.954</ele>
        <time>2020-10-17T12:44:06Z</time>
      </trkpt>
      <trkpt lat="42.253217" lon="2.744526">
        <ele>623.953</ele>
        <time>2020-10-17T12:44:06Z</time>
      </trkpt>
      <trkpt lat="42.253220" lon="2.744463">
        <ele>624.912</ele>
        <time>2020-10-17T12:44:08Z</time>
      </trkpt>
      <trkpt lat="42.253282" lon="2.744419">
        <ele>626.070</ele>
        <time>2020-10-17T12:44:10Z</time>
      </trkpt>
      <trkpt lat="42.253331" lon="2.744409">
        <ele>626.940</ele>
        <time>2020-10-17T12:44:11Z</time>
      </trkpt>
      <trkpt lat="42.253411" lon="2.744381">
        <ele>628.085</ele>
        <time>2020-10-17T12:44:13Z</time>
      </trkpt>
      <trkpt lat="42.253433" lon="2.744315">
        <ele>629.983</ele>
        <time>2020-10-17T12:44:15Z</time>
      </trkpt>
      <trkpt lat="42.253433" lon="2.744315">
        <ele>629.925</ele>
        <time>2020-10-17T12:44:15Z</time>
      </trkpt>
      <trkpt lat="42.253387" lon="2.744269">
        <ele>630.517</ele>
        <time>2020-10-17T12:44:17Z</time>
      </trkpt>
      <trkpt lat="42.253343" lon="2.744284">
        <ele>630.808</ele>
        <time>2020-10-17T12:44:20Z</time>
      </trkpt>
      <trkpt lat="42.253283" lon="2.744321">
        <ele>631.353</ele>
        <time>2020-10-17T12:44:22Z</time>
      </trkpt>
      <trkpt lat="42.253202" lon="2.744336">
        <ele>632.136</ele>
        <time>2020-10-17T12:44:24Z</time>
      </trkpt>
      <trkpt lat="42.253202" lon="2.744336">
        <ele>632.115</ele>
        <time>2020-10-17T12:44:24Z</time>
      </trkpt>
      <trkpt lat="42.253096" lon="2.744312">
        <ele>632.454</ele>
        <time>2020-10-17T12:44:26Z</time>
      </trkpt>
      <trkpt lat="42.252944" lon="2.744247">
        <ele>632.763</ele>
        <time>2020-10-17T12:44:28Z</time>
      </trkpt>
      <trkpt lat="42.252863" lon="2.744207">
        <ele>633.181</ele>
        <time>2020-10-17T12:44:29Z</time>
      </trkpt>
      <trkpt lat="42.252726" lon="2.744107">
        <ele>633.411</ele>
        <time>2020-10-17T12:44:31Z</time>
      </trkpt>
      <trkpt lat="42.252637" lon="2.743940">
        <ele>633.996</ele>
        <time>2020-10-17T12:44:33Z</time>
      </trkpt>
      <trkpt lat="42.252637" lon="2.743940">
        <ele>633.925</ele>
        <time>2020-10-17T12:44:33Z</time>
      </trkpt>
      <trkpt lat="42.252600" lon="2.743740">
        <ele>634.326</ele>
        <time>2020-10-17T12:44:35Z</time>
      </trkpt>
      <trkpt lat="42.252595" lon="2.743646">
        <ele>634.708</ele>
        <time>2020-10-17T12:44:36Z</time>
      </trkpt>
      <trkpt lat="42.252593" lon="2.743559">
        <ele>635.408</ele>
        <time>2020-10-17T12:44:37Z</time>
      </trkpt>
      <trkpt lat="42.252593" lon="2.743559">
        <ele>635.427</ele>
        <time>2020-10-17T12:44:37Z</time>
      </trkpt>
      <trkpt lat="42.252580" lon="2.743414">
        <ele>635.960</ele>
        <time>2020-10-17T12:44:39Z</time>
      </trkpt>
      <trkpt lat="42.252556" lon="2.743353">
        <ele>636.379</ele>
        <time>2020-10-17T12:44:40Z</time>
      </trkpt>
      <trkpt lat="42.252517" lon="2.743296">
        <ele>636.838</ele>
        <time>2020-10-17T12:44:41Z</time>
      </trkpt>
      <trkpt lat="42.252517" lon="2.743296">
        <ele>636.837</ele>
        <time>2020-10-17T12:44:41Z</time>
      </trkpt>
      <trkpt lat="42.252414" lon="2.743170">
        <ele>637.115</ele>
        <time>2020-10-17T12:44:43Z</time>
      </trkpt>
      <trkpt lat="42.252361" lon="2.743110">
        <ele>637.635</ele>
        <time>2020-10-17T12:44:44Z</time>
      </trkpt>
      <trkpt lat="42.252361" lon="2.743110">
        <ele>637.610</ele>
        <time>2020-10-17T12:44:44Z</time>
      </trkpt>
      <trkpt lat="42.252237" lon="2.743034">
        <ele>638.121</ele>
        <time>2020-10-17T12:44:46Z</time>
      </trkpt>
      <trkpt lat="42.252083" lon="2.743049">
        <ele>638.841</ele>
        <time>2020-10-17T12:44:48Z</time>
      </trkpt>
      <trkpt lat="42.252011" lon="2.743087">
        <ele>639.805</ele>
        <time>2020-10-17T12:44:49Z</time>
      </trkpt>
      <trkpt lat="42.252011" lon="2.743087">
        <ele>639.808</ele>
        <time>2020-10-17T12:44:49Z</time>
      </trkpt>
      <trkpt lat="42.251943" lon="2.743126">
        <ele>640.037</ele>
        <time>2020-10-17T12:44:50Z</time>
      </trkpt>
      <trkpt lat="42.251810" lon="2.743140">
        <ele>640.360</ele>
        <time>2020-10-17T12:44:52Z</time>
      </trkpt>
      <trkpt lat="42.251741" lon="2.743106">
        <ele>641.079</ele>
        <time>2020-10-17T12:44:53Z</time>
      </trkpt>
      <trkpt lat="42.251741" lon="2.743106">
        <ele>641.098</ele>
        <time>2020-10-17T12:44:53Z</time>
      </trkpt>
      <trkpt lat="42.251575" lon="2.742975">
        <ele>641.337</ele>
        <time>2020-10-17T12:44:55Z</time>
      </trkpt>
      <trkpt lat="42.251490" lon="2.742901">
        <ele>641.655</ele>
        <time>2020-10-17T12:44:56Z</time>
      </trkpt>
      <trkpt lat="42.251364" lon="2.742759">
        <ele>642.195</ele>
        <time>2020-10-17T12:44:58Z</time>
      </trkpt>
      <trkpt lat="42.251328" lon="2.742679">
        <ele>642.530</ele>
        <time>2020-10-17T12:44:59Z</time>
      </trkpt>
      <trkpt lat="42.251290" lon="2.742494">
        <ele>643.164</ele>
        <time>2020-10-17T12:45:01Z</time>
      </trkpt>
      <trkpt lat="42.251290" lon="2.742494">
        <ele>643.106</ele>
        <time>2020-10-17T12:45:01Z</time>
      </trkpt>
      <trkpt lat="42.251237" lon="2.742298">
        <ele>643.416</ele>
        <time>2020-10-17T12:45:03Z</time>
      </trkpt>
      <trkpt lat="42.251205" lon="2.742207">
        <ele>643.708</ele>
        <time>2020-10-17T12:45:04Z</time>
      </trkpt>
      <trkpt lat="42.251183" lon="2.742123">
        <ele>644.311</ele>
        <time>2020-10-17T12:45:05Z</time>
      </trkpt>
      <trkpt lat="42.251183" lon="2.742123">
        <ele>644.334</ele>
        <time>2020-10-17T12:45:05Z</time>
      </trkpt>
      <trkpt lat="42.251164" lon="2.741994">
        <ele>644.733</ele>
        <time>2020-10-17T12:45:07Z</time>
      </trkpt>
      <trkpt lat="42.251121" lon="2.741951">
        <ele>645.532</ele>
        <time>2020-10-17T12:45:09Z</time>
      </trkpt>
      <trkpt lat="42.251121" lon="2.741951">
        <ele>645.571</ele>
        <time>2020-10-17T12:45:09Z</time>
      </trkpt>
      <trkpt lat="42.251028" lon="2.742002">
        <ele>646.019</ele>
        <time>2020-10-17T12:45:11Z</time>
      </trkpt>
      <trkpt lat="42.250968" lon="2.742065">
        <ele>646.549</ele>
        <time>2020-10-17T12:45:12Z</time>
      </trkpt>
      <trkpt lat="42.250901" lon="2.742138">
        <ele>647.084</ele>
        <time>2020-10-17T12:45:13Z</time>
      </trkpt>
      <trkpt lat="42.250760" lon="2.742278">
        <ele>648.047</ele>
        <time>2020-10-17T12:45:15Z</time>
      </trkpt>
      <trkpt lat="42.250708" lon="2.742337">
        <ele>648.929</ele>
        <time>2020-10-17T12:45:16Z</time>
      </trkpt>
      <trkpt lat="42.250663" lon="2.742416">
        <ele>649.921</ele>
        <time>2020-10-17T12:45:18Z</time>
      </trkpt>
      <trkpt lat="42.250625" lon="2.742474">
        <ele>651.208</ele>
        <time>2020-10-17T12:45:21Z</time>
      </trkpt>
      <trkpt lat="42.250581" lon="2.742504">
        <ele>652.939</ele>
        <time>2020-10-17T12:45:23Z</time>
      </trkpt>
      <trkpt lat="42.250581" lon="2.742504">
        <ele>652.952</ele>
        <time>2020-10-17T12:45:23Z</time>
      </trkpt>
      <trkpt lat="42.250495" lon="2.742522">
        <ele>653.741</ele>
        <time>2020-10-17T12:45:25Z</time>
      </trkpt>
      <trkpt lat="42.250399" lon="2.742482">
        <ele>654.720</ele>
        <time>2020-10-17T12:45:27Z</time>
      </trkpt>
      <trkpt lat="42.250399" lon="2.742482">
        <ele>654.759</ele>
        <time>2020-10-17T12:45:27Z</time>
      </trkpt>
      <trkpt lat="42.250352" lon="2.742415">
        <ele>655.047</ele>
        <time>2020-10-17T12:45:28Z</time>
      </trkpt>
      <trkpt lat="42.250300" lon="2.742228">
        <ele>655.217</ele>
        <time>2020-10-17T12:45:30Z</time>
      </trkpt>
      <trkpt lat="42.250300" lon="2.742138">
        <ele>655.422</ele>
        <time>2020-10-17T12:45:31Z</time>
      </trkpt>
      <trkpt lat="42.250351" lon="2.742002">
        <ele>655.731</ele>
        <time>2020-10-17T12:45:33Z</time>
      </trkpt>
      <trkpt lat="42.250394" lon="2.741955">
        <ele>656.061</ele>
        <time>2020-10-17T12:45:34Z</time>
      </trkpt>
      <trkpt lat="42.250503" lon="2.741857">
        <ele>656.707</ele>
        <time>2020-10-17T12:45:36Z</time>
      </trkpt>
      <trkpt lat="42.250503" lon="2.741857">
        <ele>656.708</ele>
        <time>2020-10-17T12:45:36Z</time>
      </trkpt>
      <trkpt lat="42.250641" lon="2.741759">
        <ele>657.378</ele>
        <time>2020-10-17T12:45:38Z</time>
      </trkpt>
      <trkpt lat="42.250787" lon="2.741625">
        <ele>658.911</ele>
        <time>2020-10-17T12:45:40Z</time>
      </trkpt>
      <trkpt lat="42.250787" lon="2.741625">
        <ele>658.910</ele>
        <time>2020-10-17T12:45:40Z</time>
      </trkpt>
      <trkpt lat="42.250941" lon="2.741448">
        <ele>659.999</ele>
        <time>2020-10-17T12:45:42Z</time>
      </trkpt>
      <trkpt lat="42.251031" lon="2.741370">
        <ele>660.978</ele>
        <time>2020-10-17T12:45:43Z</time>
      </trkpt>
      <trkpt lat="42.251235" lon="2.741257">
        <ele>662.326</ele>
        <time>2020-10-17T12:45:45Z</time>
      </trkpt>
      <trkpt lat="42.251330" lon="2.741222">
        <ele>663.626</ele>
        <time>2020-10-17T12:45:46Z</time>
      </trkpt>
      <trkpt lat="42.251471" lon="2.741213">
        <ele>665.161</ele>
        <time>2020-10-17T12:45:48Z</time>
      </trkpt>
      <trkpt lat="42.251527" lon="2.741227">
        <ele>666.849</ele>
        <time>2020-10-17T12:45:50Z</time>
      </trkpt>
      <trkpt lat="42.251526" lon="2.741149">
        <ele>670.702</ele>
        <time>2020-10-17T12:45:54Z</time>
      </trkpt>
      <trkpt lat="42.251526" lon="2.741149">
        <ele>670.722</ele>
        <time>2020-10-17T12:45:54Z</time>
      </trkpt>
      <trkpt lat="42.251489" lon="2.741111">
        <ele>671.808</ele>
        <time>2020-10-17T12:45:55Z</time>
      </trkpt>
      <trkpt lat="42.251433" lon="2.741094">
        <ele>672.829</ele>
        <time>2020-10-17T12:45:56Z</time>
      </trkpt>
      <trkpt lat="42.251302" lon="2.741095">
        <ele>674.072</ele>
        <time>2020-10-17T12:45:58Z</time>
      </trkpt>
      <trkpt lat="42.251237" lon="2.741098">
        <ele>675.021</ele>
        <time>2020-10-17T12:45:59Z</time>
      </trkpt>
      <trkpt lat="42.251091" lon="2.741087">
        <ele>676.960</ele>
        <time>2020-10-17T12:46:01Z</time>
      </trkpt>
      <trkpt lat="42.251091" lon="2.741087">
        <ele>676.939</ele>
        <time>2020-10-17T12:46:01Z</time>
      </trkpt>
      <trkpt lat="42.251003" lon="2.741062">
        <ele>677.697</ele>
        <time>2020-10-17T12:46:02Z</time>
      </trkpt>
      <trkpt lat="42.250824" lon="2.740960">
        <ele>678.597</ele>
        <time>2020-10-17T12:46:04Z</time>
      </trkpt>
      <trkpt lat="42.250758" lon="2.740888">
        <ele>679.722</ele>
        <time>2020-10-17T12:46:05Z</time>
      </trkpt>
      <trkpt lat="42.250758" lon="2.740888">
        <ele>679.742</ele>
        <time>2020-10-17T12:46:05Z</time>
      </trkpt>
      <trkpt lat="42.250733" lon="2.740740">
        <ele>680.422</ele>
        <time>2020-10-17T12:46:07Z</time>
      </trkpt>
      <trkpt lat="42.250762" lon="2.740667">
        <ele>681.114</ele>
        <time>2020-10-17T12:46:08Z</time>
      </trkpt>
      <trkpt lat="42.250885" lon="2.740582">
        <ele>682.908</ele>
        <time>2020-10-17T12:46:10Z</time>
      </trkpt>
      <trkpt lat="42.250885" lon="2.740582">
        <ele>682.949</ele>
        <time>2020-10-17T12:46:10Z</time>
      </trkpt>
      <trkpt lat="42.250954" lon="2.740593">
        <ele>683.782</ele>
        <time>2020-10-17T12:46:11Z</time>
      </trkpt>
      <trkpt lat="42.251083" lon="2.740685">
        <ele>685.081</ele>
        <time>2020-10-17T12:46:13Z</time>
      </trkpt>
      <trkpt lat="42.251201" lon="2.740744">
        <ele>686.510</ele>
        <time>2020-10-17T12:46:15Z</time>
      </trkpt>
      <trkpt lat="42.251258" lon="2.740748">
        <ele>687.789</ele>
        <time>2020-10-17T12:46:16Z</time>
      </trkpt>
      <trkpt lat="42.251320" lon="2.740736">
        <ele>689.157</ele>
        <time>2020-10-17T12:46:17Z</time>
      </trkpt>
      <trkpt lat="42.251390" lon="2.740715">
        <ele>690.467</ele>
        <time>2020-10-17T12:46:18Z</time>
      </trkpt>
      <trkpt lat="42.251544" lon="2.740660">
        <ele>691.792</ele>
        <time>2020-10-17T12:46:20Z</time>
      </trkpt>
      <trkpt lat="42.251627" lon="2.740615">
        <ele>692.856</ele>
        <time>2020-10-17T12:46:21Z</time>
      </trkpt>
      <trkpt lat="42.251712" lon="2.740554">
        <ele>693.759</ele>
        <time>2020-10-17T12:46:22Z</time>
      </trkpt>
      <trkpt lat="42.251879" lon="2.740460">
        <ele>694.914</ele>
        <time>2020-10-17T12:46:24Z</time>
      </trkpt>
      <trkpt lat="42.251952" lon="2.740445">
        <ele>696.608</ele>
        <time>2020-10-17T12:46:25Z</time>
      </trkpt>
      <trkpt lat="42.251952" lon="2.740445">
        <ele>696.690</ele>
        <time>2020-10-17T12:46:25Z</time>
      </trkpt>
      <trkpt lat="42.252087" lon="2.740423">
        <ele>697.673</ele>
        <time>2020-10-17T12:46:27Z</time>
      </trkpt>
      <trkpt lat="42.252163" lon="2.740394">
        <ele>698.612</ele>
        <time>2020-10-17T12:46:28Z</time>
      </trkpt>
      <trkpt lat="42.252236" lon="2.740368">
        <ele>699.751</ele>
        <time>2020-10-17T12:46:29Z</time>
      </trkpt>
      <trkpt lat="42.252298" lon="2.740372">
        <ele>700.990</ele>
        <time>2020-10-17T12:46:30Z</time>
      </trkpt>
      <trkpt lat="42.252345" lon="2.740411">
        <ele>702.068</ele>
        <time>2020-10-17T12:46:31Z</time>
      </trkpt>
      <trkpt lat="42.252407" lon="2.740568">
        <ele>703.368</ele>
        <time>2020-10-17T12:46:33Z</time>
      </trkpt>
      <trkpt lat="42.252445" lon="2.740660">
        <ele>704.363</ele>
        <time>2020-10-17T12:46:34Z</time>
      </trkpt>
      <trkpt lat="42.252558" lon="2.740812">
        <ele>705.599</ele>
        <time>2020-10-17T12:46:36Z</time>
      </trkpt>
      <trkpt lat="42.252558" lon="2.740812">
        <ele>705.507</ele>
        <time>2020-10-17T12:46:36Z</time>
      </trkpt>
      <trkpt lat="42.252681" lon="2.740875">
        <ele>706.127</ele>
        <time>2020-10-17T12:46:38Z</time>
      </trkpt>
      <trkpt lat="42.252805" lon="2.740861">
        <ele>707.008</ele>
        <time>2020-10-17T12:46:40Z</time>
      </trkpt>
      <trkpt lat="42.252886" lon="2.740841">
        <ele>708.534</ele>
        <time>2020-10-17T12:46:41Z</time>
      </trkpt>
      <trkpt lat="42.252886" lon="2.740841">
        <ele>708.587</ele>
        <time>2020-10-17T12:46:41Z</time>
      </trkpt>
      <trkpt lat="42.253082" lon="2.740815">
        <ele>709.456</ele>
        <time>2020-10-17T12:46:43Z</time>
      </trkpt>
      <trkpt lat="42.253297" lon="2.740786">
        <ele>710.245</ele>
        <time>2020-10-17T12:46:45Z</time>
      </trkpt>
      <trkpt lat="42.253397" lon="2.740765">
        <ele>710.954</ele>
        <time>2020-10-17T12:46:46Z</time>
      </trkpt>
      <trkpt lat="42.253570" lon="2.740728">
        <ele>711.782</ele>
        <time>2020-10-17T12:46:48Z</time>
      </trkpt>
      <trkpt lat="42.253729" lon="2.740665">
        <ele>712.672</ele>
        <time>2020-10-17T12:46:50Z</time>
      </trkpt>
      <trkpt lat="42.253871" lon="2.740609">
        <ele>713.587</ele>
        <time>2020-10-17T12:46:52Z</time>
      </trkpt>
      <trkpt lat="42.253935" lon="2.740614">
        <ele>714.299</ele>
        <time>2020-10-17T12:46:53Z</time>
      </trkpt>
      <trkpt lat="42.254024" lon="2.740701">
        <ele>715.407</ele>
        <time>2020-10-17T12:46:55Z</time>
      </trkpt>
      <trkpt lat="42.254024" lon="2.740701">
        <ele>715.427</ele>
        <time>2020-10-17T12:46:55Z</time>
      </trkpt>
      <trkpt lat="42.254050" lon="2.740759">
        <ele>716.308</ele>
        <time>2020-10-17T12:46:56Z</time>
      </trkpt>
      <trkpt lat="42.254050" lon="2.740759">
        <ele>716.344</ele>
        <time>2020-10-17T12:46:56Z</time>
      </trkpt>
      <trkpt lat="42.254111" lon="2.740843">
        <ele>717.127</ele>
        <time>2020-10-17T12:46:58Z</time>
      </trkpt>
      <trkpt lat="42.254183" lon="2.740828">
        <ele>718.126</ele>
        <time>2020-10-17T12:47:00Z</time>
      </trkpt>
      <trkpt lat="42.254259" lon="2.740696">
        <ele>719.295</ele>
        <time>2020-10-17T12:47:02Z</time>
      </trkpt>
      <trkpt lat="42.254276" lon="2.740605">
        <ele>720.174</ele>
        <time>2020-10-17T12:47:03Z</time>
      </trkpt>
      <trkpt lat="42.254259" lon="2.740468">
        <ele>721.192</ele>
        <time>2020-10-17T12:47:05Z</time>
      </trkpt>
      <trkpt lat="42.254206" lon="2.740434">
        <ele>722.582</ele>
        <time>2020-10-17T12:47:19Z</time>
      </trkpt>
      <trkpt lat="42.254144" lon="2.740366">
        <ele>723.417</ele>
        <time>2020-10-17T12:47:21Z</time>
      </trkpt>
      <trkpt lat="42.254144" lon="2.740366">
        <ele>723.417</ele>
        <time>2020-10-17T12:47:21Z</time>
      </trkpt>
      <trkpt lat="42.254072" lon="2.740272">
        <ele>723.387</ele>
        <time>2020-10-17T12:47:23Z</time>
      </trkpt>
      <trkpt lat="42.254039" lon="2.740204">
        <ele>723.215</ele>
        <time>2020-10-17T12:47:24Z</time>
      </trkpt>
      <trkpt lat="42.254027" lon="2.740127">
        <ele>723.208</ele>
        <time>2020-10-17T12:47:25Z</time>
      </trkpt>
      <trkpt lat="42.254027" lon="2.740127">
        <ele>723.266</ele>
        <time>2020-10-17T12:47:25Z</time>
      </trkpt>
      <trkpt lat="42.254078" lon="2.739996">
        <ele>723.119</ele>
        <time>2020-10-17T12:47:27Z</time>
      </trkpt>
      <trkpt lat="42.254078" lon="2.739996">
        <ele>723.198</ele>
        <time>2020-10-17T12:47:27Z</time>
      </trkpt>
      <trkpt lat="42.254192" lon="2.739968">
        <ele>723.297</ele>
        <time>2020-10-17T12:47:29Z</time>
      </trkpt>
      <trkpt lat="42.254192" lon="2.739968">
        <ele>723.246</ele>
        <time>2020-10-17T12:47:29Z</time>
      </trkpt>
      <trkpt lat="42.254313" lon="2.740010">
        <ele>723.564</ele>
        <time>2020-10-17T12:47:31Z</time>
      </trkpt>
      <trkpt lat="42.254430" lon="2.740012">
        <ele>723.924</ele>
        <time>2020-10-17T12:47:33Z</time>
      </trkpt>
      <trkpt lat="42.254571" lon="2.739990">
        <ele>724.529</ele>
        <time>2020-10-17T12:47:35Z</time>
      </trkpt>
      <trkpt lat="42.254645" lon="2.739971">
        <ele>725.043</ele>
        <time>2020-10-17T12:47:36Z</time>
      </trkpt>
      <trkpt lat="42.254784" lon="2.739911">
        <ele>726.064</ele>
        <time>2020-10-17T12:47:38Z</time>
      </trkpt>
      <trkpt lat="42.254784" lon="2.739911">
        <ele>726.010</ele>
        <time>2020-10-17T12:47:38Z</time>
      </trkpt>
      <trkpt lat="42.254891" lon="2.739772">
        <ele>727.008</ele>
        <time>2020-10-17T12:47:40Z</time>
      </trkpt>
      <trkpt lat="42.254941" lon="2.739679">
        <ele>728.069</ele>
        <time>2020-10-17T12:47:41Z</time>
      </trkpt>
      <trkpt lat="42.254990" lon="2.739580">
        <ele>729.492</ele>
        <time>2020-10-17T12:47:42Z</time>
      </trkpt>
      <trkpt lat="42.254990" lon="2.739580">
        <ele>729.431</ele>
        <time>2020-10-17T12:47:42Z</time>
      </trkpt>
      <trkpt lat="42.255097" lon="2.739378">
        <ele>730.530</ele>
        <time>2020-10-17T12:47:44Z</time>
      </trkpt>
      <trkpt lat="42.255233" lon="2.739218">
        <ele>732.349</ele>
        <time>2020-10-17T12:47:46Z</time>
      </trkpt>
      <trkpt lat="42.255233" lon="2.739218">
        <ele>732.317</ele>
        <time>2020-10-17T12:47:46Z</time>
      </trkpt>
      <trkpt lat="42.255300" lon="2.739169">
        <ele>733.047</ele>
        <time>2020-10-17T12:47:47Z</time>
      </trkpt>
      <trkpt lat="42.255392" lon="2.739095">
        <ele>733.922</ele>
        <time>2020-10-17T12:47:49Z</time>
      </trkpt>
      <trkpt lat="42.255425" lon="2.739052">
        <ele>735.215</ele>
        <time>2020-10-17T12:47:51Z</time>
      </trkpt>
      <trkpt lat="42.255526" lon="2.738871">
        <ele>740.865</ele>
        <time>2020-10-17T12:49:13Z</time>
      </trkpt>
      <trkpt lat="42.255569" lon="2.738774">
        <ele>741.211</ele>
        <time>2020-10-17T12:49:15Z</time>
      </trkpt>
      <trkpt lat="42.255569" lon="2.738774">
        <ele>741.208</ele>
        <time>2020-10-17T12:49:15Z</time>
      </trkpt>
      <trkpt lat="42.255604" lon="2.738652">
        <ele>741.466</ele>
        <time>2020-10-17T12:49:17Z</time>
      </trkpt>
      <trkpt lat="42.255616" lon="2.738570">
        <ele>741.899</ele>
        <time>2020-10-17T12:49:19Z</time>
      </trkpt>
      <trkpt lat="42.255616" lon="2.738570">
        <ele>741.838</ele>
        <time>2020-10-17T12:49:19Z</time>
      </trkpt>
      <trkpt lat="42.255635" lon="2.738492">
        <ele>742.037</ele>
        <time>2020-10-17T12:49:21Z</time>
      </trkpt>
      <trkpt lat="42.255650" lon="2.738394">
        <ele>742.276</ele>
        <time>2020-10-17T12:49:23Z</time>
      </trkpt>
      <trkpt lat="42.255662" lon="2.738334">
        <ele>742.574</ele>
        <time>2020-10-17T12:49:24Z</time>
      </trkpt>
      <trkpt lat="42.255662" lon="2.738334">
        <ele>742.554</ele>
        <time>2020-10-17T12:49:24Z</time>
      </trkpt>
      <trkpt lat="42.255688" lon="2.738240">
        <ele>742.789</ele>
        <time>2020-10-17T12:49:26Z</time>
      </trkpt>
      <trkpt lat="42.255710" lon="2.738178">
        <ele>743.698</ele>
        <time>2020-10-17T12:49:28Z</time>
      </trkpt>
      <trkpt lat="42.255710" lon="2.738178">
        <ele>743.615</ele>
        <time>2020-10-17T12:49:28Z</time>
      </trkpt>
      <trkpt lat="42.255730" lon="2.738117">
        <ele>744.126</ele>
        <time>2020-10-17T12:49:30Z</time>
      </trkpt>
      <trkpt lat="42.255752" lon="2.738045">
        <ele>744.708</ele>
        <time>2020-10-17T12:49:32Z</time>
      </trkpt>
      <trkpt lat="42.255794" lon="2.737989">
        <ele>745.364</ele>
        <time>2020-10-17T12:49:34Z</time>
      </trkpt>
      <trkpt lat="42.255862" lon="2.737950">
        <ele>745.957</ele>
        <time>2020-10-17T12:49:36Z</time>
      </trkpt>
      <trkpt lat="42.255921" lon="2.737926">
        <ele>746.456</ele>
        <time>2020-10-17T12:49:38Z</time>
      </trkpt>
      <trkpt lat="42.255978" lon="2.737891">
        <ele>747.165</ele>
        <time>2020-10-17T12:49:41Z</time>
      </trkpt>
      <trkpt lat="42.256029" lon="2.737901">
        <ele>750.894</ele>
        <time>2020-10-17T12:50:34Z</time>
      </trkpt>
      <trkpt lat="42.256082" lon="2.737878">
        <ele>753.242</ele>
        <time>2020-10-17T12:50:37Z</time>
      </trkpt>
      <trkpt lat="42.256136" lon="2.737878">
        <ele>755.472</ele>
        <time>2020-10-17T12:50:40Z</time>
      </trkpt>
      <trkpt lat="42.256187" lon="2.737866">
        <ele>757.197</ele>
        <time>2020-10-17T12:50:43Z</time>
      </trkpt>
      <trkpt lat="42.256252" lon="2.737852">
        <ele>758.539</ele>
        <time>2020-10-17T12:50:45Z</time>
      </trkpt>
      <trkpt lat="42.256337" lon="2.737834">
        <ele>759.901</ele>
        <time>2020-10-17T12:50:47Z</time>
      </trkpt>
      <trkpt lat="42.256410" lon="2.737824">
        <ele>761.021</ele>
        <time>2020-10-17T12:50:49Z</time>
      </trkpt>
      <trkpt lat="42.256489" lon="2.737793">
        <ele>762.008</ele>
        <time>2020-10-17T12:50:51Z</time>
      </trkpt>
      <trkpt lat="42.256557" lon="2.737775">
        <ele>762.938</ele>
        <time>2020-10-17T12:50:52Z</time>
      </trkpt>
      <trkpt lat="42.256557" lon="2.737775">
        <ele>762.961</ele>
        <time>2020-10-17T12:50:52Z</time>
      </trkpt>
      <trkpt lat="42.256631" lon="2.737781">
        <ele>763.240</ele>
        <time>2020-10-17T12:50:54Z</time>
      </trkpt>
      <trkpt lat="42.256679" lon="2.737792">
        <ele>763.569</ele>
        <time>2020-10-17T12:50:56Z</time>
      </trkpt>
      <trkpt lat="42.256734" lon="2.737814">
        <ele>763.778</ele>
        <time>2020-10-17T12:50:59Z</time>
      </trkpt>
      <trkpt lat="42.256781" lon="2.737815">
        <ele>763.286</ele>
        <time>2020-10-17T12:51:01Z</time>
      </trkpt>
      <trkpt lat="42.256781" lon="2.737815">
        <ele>763.266</ele>
        <time>2020-10-17T12:51:01Z</time>
      </trkpt>
      <trkpt lat="42.256852" lon="2.737798">
        <ele>762.871</ele>
        <time>2020-10-17T12:51:03Z</time>
      </trkpt>
      <trkpt lat="42.256899" lon="2.737783">
        <ele>762.513</ele>
        <time>2020-10-17T12:51:05Z</time>
      </trkpt>
      <trkpt lat="42.256978" lon="2.737782">
        <ele>761.343</ele>
        <time>2020-10-17T12:51:21Z</time>
      </trkpt>
      <trkpt lat="42.256978" lon="2.737782">
        <ele>761.307</ele>
        <time>2020-10-17T12:51:21Z</time>
      </trkpt>
      <trkpt lat="42.257036" lon="2.737768">
        <ele>760.908</ele>
        <time>2020-10-17T12:51:23Z</time>
      </trkpt>
      <trkpt lat="42.257083" lon="2.737775">
        <ele>760.546</ele>
        <time>2020-10-17T12:51:25Z</time>
      </trkpt>
      <trkpt lat="42.257147" lon="2.737795">
        <ele>760.129</ele>
        <time>2020-10-17T12:51:28Z</time>
      </trkpt>
      <trkpt lat="42.257192" lon="2.737782">
        <ele>759.638</ele>
        <time>2020-10-17T12:51:30Z</time>
      </trkpt>
      <trkpt lat="42.257252" lon="2.737770">
        <ele>758.927</ele>
        <time>2020-10-17T12:51:32Z</time>
      </trkpt>
      <trkpt lat="42.257326" lon="2.737768">
        <ele>757.926</ele>
        <time>2020-10-17T12:51:34Z</time>
      </trkpt>
      <trkpt lat="42.257326" lon="2.737768">
        <ele>757.964</ele>
        <time>2020-10-17T12:51:34Z</time>
      </trkpt>
      <trkpt lat="42.257401" lon="2.737781">
        <ele>757.554</ele>
        <time>2020-10-17T12:51:36Z</time>
      </trkpt>
      <trkpt lat="42.257458" lon="2.737771">
        <ele>756.739</ele>
        <time>2020-10-17T12:51:39Z</time>
      </trkpt>
      <trkpt lat="42.257458" lon="2.737771">
        <ele>756.717</ele>
        <time>2020-10-17T12:51:39Z</time>
      </trkpt>
      <trkpt lat="42.257508" lon="2.737764">
        <ele>756.287</ele>
        <time>2020-10-17T12:51:43Z</time>
      </trkpt>
      <trkpt lat="42.257567" lon="2.737749">
        <ele>755.515</ele>
        <time>2020-10-17T12:51:46Z</time>
      </trkpt>
      <trkpt lat="42.257567" lon="2.737749">
        <ele>755.508</ele>
        <time>2020-10-17T12:51:46Z</time>
      </trkpt>
      <trkpt lat="42.257608" lon="2.737690">
        <ele>755.436</ele>
        <time>2020-10-17T12:51:48Z</time>
      </trkpt>
      <trkpt lat="42.257608" lon="2.737690">
        <ele>755.439</ele>
        <time>2020-10-17T12:51:48Z</time>
      </trkpt>
      <trkpt lat="42.257649" lon="2.737598">
        <ele>755.338</ele>
        <time>2020-10-17T12:51:50Z</time>
      </trkpt>
      <trkpt lat="42.257674" lon="2.737542">
        <ele>755.217</ele>
        <time>2020-10-17T12:51:52Z</time>
      </trkpt>
      <trkpt lat="42.257674" lon="2.737542">
        <ele>755.246</ele>
        <time>2020-10-17T12:51:52Z</time>
      </trkpt>
      <trkpt lat="42.257691" lon="2.737476">
        <ele>755.094</ele>
        <time>2020-10-17T12:51:55Z</time>
      </trkpt>
      <trkpt lat="42.257691" lon="2.737476">
        <ele>755.074</ele>
        <time>2020-10-17T12:51:55Z</time>
      </trkpt>
      <trkpt lat="42.257711" lon="2.737363">
        <ele>754.899</ele>
        <time>2020-10-17T12:51:57Z</time>
      </trkpt>
      <trkpt lat="42.257776" lon="2.737222">
        <ele>754.581</ele>
        <time>2020-10-17T12:51:59Z</time>
      </trkpt>
      <trkpt lat="42.257818" lon="2.737164">
        <ele>754.361</ele>
        <time>2020-10-17T12:52:00Z</time>
      </trkpt>
      <trkpt lat="42.257854" lon="2.737125">
        <ele>754.017</ele>
        <time>2020-10-17T12:52:01Z</time>
      </trkpt>
      <trkpt lat="42.257854" lon="2.737125">
        <ele>754.008</ele>
        <time>2020-10-17T12:52:01Z</time>
      </trkpt>
      <trkpt lat="42.257920" lon="2.737047">
        <ele>754.033</ele>
        <time>2020-10-17T12:52:03Z</time>
      </trkpt>
      <trkpt lat="42.257978" lon="2.736979">
        <ele>753.986</ele>
        <time>2020-10-17T12:52:05Z</time>
      </trkpt>
      <trkpt lat="42.258022" lon="2.736913">
        <ele>753.655</ele>
        <time>2020-10-17T12:52:07Z</time>
      </trkpt>
      <trkpt lat="42.258057" lon="2.736864">
        <ele>753.574</ele>
        <time>2020-10-17T12:52:10Z</time>
      </trkpt>
      <trkpt lat="42.258097" lon="2.736808">
        <ele>753.493</ele>
        <time>2020-10-17T12:52:12Z</time>
      </trkpt>
      <trkpt lat="42.258162" lon="2.736726">
        <ele>752.441</ele>
        <time>2020-10-17T12:52:21Z</time>
      </trkpt>
      <trkpt lat="42.258227" lon="2.736659">
        <ele>752.331</ele>
        <time>2020-10-17T12:52:23Z</time>
      </trkpt>
      <trkpt lat="42.258335" lon="2.736548">
        <ele>752.256</ele>
        <time>2020-10-17T12:52:25Z</time>
      </trkpt>
      <trkpt lat="42.258379" lon="2.736503">
        <ele>752.288</ele>
        <time>2020-10-17T12:52:26Z</time>
      </trkpt>
      <trkpt lat="42.258379" lon="2.736503">
        <ele>752.224</ele>
        <time>2020-10-17T12:52:26Z</time>
      </trkpt>
      <trkpt lat="42.258462" lon="2.736416">
        <ele>752.426</ele>
        <time>2020-10-17T12:52:28Z</time>
      </trkpt>
      <trkpt lat="42.258501" lon="2.736380">
        <ele>752.608</ele>
        <time>2020-10-17T12:52:29Z</time>
      </trkpt>
      <trkpt lat="42.258570" lon="2.736321">
        <ele>752.873</ele>
        <time>2020-10-17T12:52:31Z</time>
      </trkpt>
      <trkpt lat="42.258648" lon="2.736255">
        <ele>753.026</ele>
        <time>2020-10-17T12:52:33Z</time>
      </trkpt>
      <trkpt lat="42.258717" lon="2.736204">
        <ele>753.345</ele>
        <time>2020-10-17T12:52:35Z</time>
      </trkpt>
      <trkpt lat="42.258790" lon="2.736173">
        <ele>753.764</ele>
        <time>2020-10-17T12:52:37Z</time>
      </trkpt>
      <trkpt lat="42.258867" lon="2.736167">
        <ele>754.353</ele>
        <time>2020-10-17T12:52:39Z</time>
      </trkpt>
      <trkpt lat="42.258952" lon="2.736167">
        <ele>755.161</ele>
        <time>2020-10-17T12:52:41Z</time>
      </trkpt>
      <trkpt lat="42.259059" lon="2.736159">
        <ele>756.011</ele>
        <time>2020-10-17T12:52:43Z</time>
      </trkpt>
      <trkpt lat="42.259176" lon="2.736138">
        <ele>756.966</ele>
        <time>2020-10-17T12:52:45Z</time>
      </trkpt>
      <trkpt lat="42.259230" lon="2.736120">
        <ele>757.591</ele>
        <time>2020-10-17T12:52:46Z</time>
      </trkpt>
      <trkpt lat="42.259309" lon="2.736089">
        <ele>758.081</ele>
        <time>2020-10-17T12:52:47Z</time>
      </trkpt>
      <trkpt lat="42.259407" lon="2.736034">
        <ele>758.919</ele>
        <time>2020-10-17T12:52:49Z</time>
      </trkpt>
      <trkpt lat="42.259407" lon="2.736034">
        <ele>758.908</ele>
        <time>2020-10-17T12:52:49Z</time>
      </trkpt>
      <trkpt lat="42.259458" lon="2.736002">
        <ele>759.274</ele>
        <time>2020-10-17T12:52:50Z</time>
      </trkpt>
      <trkpt lat="42.259550" lon="2.735950">
        <ele>759.737</ele>
        <time>2020-10-17T12:52:52Z</time>
      </trkpt>
      <trkpt lat="42.259631" lon="2.735899">
        <ele>760.376</ele>
        <time>2020-10-17T12:52:54Z</time>
      </trkpt>
      <trkpt lat="42.259727" lon="2.735839">
        <ele>761.025</ele>
        <time>2020-10-17T12:52:56Z</time>
      </trkpt>
      <trkpt lat="42.259796" lon="2.735804">
        <ele>761.654</ele>
        <time>2020-10-17T12:52:58Z</time>
      </trkpt>
      <trkpt lat="42.259875" lon="2.735757">
        <ele>762.152</ele>
        <time>2020-10-17T12:53:00Z</time>
      </trkpt>
      <trkpt lat="42.259972" lon="2.735696">
        <ele>762.762</ele>
        <time>2020-10-17T12:53:02Z</time>
      </trkpt>
      <trkpt lat="42.260066" lon="2.735628">
        <ele>764.327</ele>
        <time>2020-10-17T12:53:05Z</time>
      </trkpt>
      <trkpt lat="42.260066" lon="2.735628">
        <ele>764.385</ele>
        <time>2020-10-17T12:53:05Z</time>
      </trkpt>
      <trkpt lat="42.260066" lon="2.735628">
        <ele>764.389</ele>
        <time>2020-10-17T12:53:05Z</time>
      </trkpt>
      <trkpt lat="42.260066" lon="2.735628">
        <ele>764.317</ele>
        <time>2020-10-17T12:53:05Z</time>
      </trkpt>
      <trkpt lat="42.260131" lon="2.735547">
        <ele>764.608</ele>
        <time>2020-10-17T12:53:07Z</time>
      </trkpt>
      <trkpt lat="42.260170" lon="2.735492">
        <ele>764.793</ele>
        <time>2020-10-17T12:53:08Z</time>
      </trkpt>
      <trkpt lat="42.260237" lon="2.735400">
        <ele>764.756</ele>
        <time>2020-10-17T12:53:10Z</time>
      </trkpt>
      <trkpt lat="42.260270" lon="2.735350">
        <ele>764.675</ele>
        <time>2020-10-17T12:53:11Z</time>
      </trkpt>
      <trkpt lat="42.260270" lon="2.735350">
        <ele>764.664</ele>
        <time>2020-10-17T12:53:11Z</time>
      </trkpt>
      <trkpt lat="42.260323" lon="2.735253">
        <ele>764.393</ele>
        <time>2020-10-17T12:53:13Z</time>
      </trkpt>
      <trkpt lat="42.260384" lon="2.735136">
        <ele>764.081</ele>
        <time>2020-10-17T12:53:15Z</time>
      </trkpt>
      <trkpt lat="42.260419" lon="2.735057">
        <ele>763.411</ele>
        <time>2020-10-17T12:53:17Z</time>
      </trkpt>
      <trkpt lat="42.260419" lon="2.735057">
        <ele>763.496</ele>
        <time>2020-10-17T12:53:17Z</time>
      </trkpt>
      <trkpt lat="42.260419" lon="2.734982">
        <ele>762.363</ele>
        <time>2020-10-17T12:53:29Z</time>
      </trkpt>
      <trkpt lat="42.260432" lon="2.734912">
        <ele>760.544</ele>
        <time>2020-10-17T12:53:31Z</time>
      </trkpt>
      <trkpt lat="42.260432" lon="2.734912">
        <ele>760.518</ele>
        <time>2020-10-17T12:53:31Z</time>
      </trkpt>
      <trkpt lat="42.260449" lon="2.734842">
        <ele>759.608</ele>
        <time>2020-10-17T12:53:33Z</time>
      </trkpt>
      <trkpt lat="42.260458" lon="2.734780">
        <ele>758.491</ele>
        <time>2020-10-17T12:53:36Z</time>
      </trkpt>
      <trkpt lat="42.260477" lon="2.734679">
        <ele>756.684</ele>
        <time>2020-10-17T12:53:39Z</time>
      </trkpt>
      <trkpt lat="42.260477" lon="2.734679">
        <ele>756.643</ele>
        <time>2020-10-17T12:53:39Z</time>
      </trkpt>
      <trkpt lat="42.260491" lon="2.734615">
        <ele>756.242</ele>
        <time>2020-10-17T12:53:41Z</time>
      </trkpt>
      <trkpt lat="42.260515" lon="2.734499">
        <ele>756.671</ele>
        <time>2020-10-17T12:54:26Z</time>
      </trkpt>
      <trkpt lat="42.260534" lon="2.734382">
        <ele>756.529</ele>
        <time>2020-10-17T12:54:28Z</time>
      </trkpt>
      <trkpt lat="42.260549" lon="2.734264">
        <ele>756.339</ele>
        <time>2020-10-17T12:54:30Z</time>
      </trkpt>
      <trkpt lat="42.260563" lon="2.734195">
        <ele>756.284</ele>
        <time>2020-10-17T12:54:31Z</time>
      </trkpt>
      <trkpt lat="42.260596" lon="2.734057">
        <ele>756.311</ele>
        <time>2020-10-17T12:54:33Z</time>
      </trkpt>
      <trkpt lat="42.260612" lon="2.733984">
        <ele>756.521</ele>
        <time>2020-10-17T12:54:34Z</time>
      </trkpt>
      <trkpt lat="42.260612" lon="2.733984">
        <ele>756.503</ele>
        <time>2020-10-17T12:54:34Z</time>
      </trkpt>
      <trkpt lat="42.260625" lon="2.733915">
        <ele>756.608</ele>
        <time>2020-10-17T12:54:35Z</time>
      </trkpt>
      <trkpt lat="42.260633" lon="2.733854">
        <ele>756.776</ele>
        <time>2020-10-17T12:54:36Z</time>
      </trkpt>
      <trkpt lat="42.260626" lon="2.733785">
        <ele>756.939</ele>
        <time>2020-10-17T12:54:39Z</time>
      </trkpt>
      <trkpt lat="42.260630" lon="2.733692">
        <ele>757.178</ele>
        <time>2020-10-17T12:54:43Z</time>
      </trkpt>
      <trkpt lat="42.260620" lon="2.733628">
        <ele>757.147</ele>
        <time>2020-10-17T12:54:44Z</time>
      </trkpt>
      <trkpt lat="42.260595" lon="2.733514">
        <ele>757.236</ele>
        <time>2020-10-17T12:54:46Z</time>
      </trkpt>
      <trkpt lat="42.260595" lon="2.733514">
        <ele>757.274</ele>
        <time>2020-10-17T12:54:46Z</time>
      </trkpt>
      <trkpt lat="42.260574" lon="2.733413">
        <ele>757.344</ele>
        <time>2020-10-17T12:54:48Z</time>
      </trkpt>
      <trkpt lat="42.260564" lon="2.733310">
        <ele>757.419</ele>
        <time>2020-10-17T12:54:50Z</time>
      </trkpt>
      <trkpt lat="42.260560" lon="2.733224">
        <ele>757.797</ele>
        <time>2020-10-17T12:54:52Z</time>
      </trkpt>
      <trkpt lat="42.260560" lon="2.733224">
        <ele>757.723</ele>
        <time>2020-10-17T12:54:52Z</time>
      </trkpt>
      <trkpt lat="42.260545" lon="2.733149">
        <ele>757.925</ele>
        <time>2020-10-17T12:54:54Z</time>
      </trkpt>
      <trkpt lat="42.260500" lon="2.733074">
        <ele>758.108</ele>
        <time>2020-10-17T12:54:56Z</time>
      </trkpt>
      <trkpt lat="42.260462" lon="2.732992">
        <ele>758.324</ele>
        <time>2020-10-17T12:54:58Z</time>
      </trkpt>
      <trkpt lat="42.260462" lon="2.732928">
        <ele>758.647</ele>
        <time>2020-10-17T12:55:01Z</time>
      </trkpt>
      <trkpt lat="42.260462" lon="2.732928">
        <ele>758.656</ele>
        <time>2020-10-17T12:55:01Z</time>
      </trkpt>
      <trkpt lat="42.260459" lon="2.732859">
        <ele>759.085</ele>
        <time>2020-10-17T12:55:04Z</time>
      </trkpt>
      <trkpt lat="42.260468" lon="2.732789">
        <ele>759.654</ele>
        <time>2020-10-17T12:55:07Z</time>
      </trkpt>
      <trkpt lat="42.260480" lon="2.732721">
        <ele>760.222</ele>
        <time>2020-10-17T12:55:09Z</time>
      </trkpt>
      <trkpt lat="42.260485" lon="2.732654">
        <ele>760.732</ele>
        <time>2020-10-17T12:55:11Z</time>
      </trkpt>
      <trkpt lat="42.260493" lon="2.732573">
        <ele>761.157</ele>
        <time>2020-10-17T12:55:13Z</time>
      </trkpt>
      <trkpt lat="42.260498" lon="2.732471">
        <ele>761.456</ele>
        <time>2020-10-17T12:55:15Z</time>
      </trkpt>
      <trkpt lat="42.260501" lon="2.732402">
        <ele>761.759</ele>
        <time>2020-10-17T12:55:16Z</time>
      </trkpt>
      <trkpt lat="42.260498" lon="2.732299">
        <ele>761.814</ele>
        <time>2020-10-17T12:55:18Z</time>
      </trkpt>
      <trkpt lat="42.260490" lon="2.732171">
        <ele>761.708</ele>
        <time>2020-10-17T12:55:20Z</time>
      </trkpt>
      <trkpt lat="42.260489" lon="2.732013">
        <ele>761.520</ele>
        <time>2020-10-17T12:55:22Z</time>
      </trkpt>
      <trkpt lat="42.260507" lon="2.731899">
        <ele>761.473</ele>
        <time>2020-10-17T12:55:24Z</time>
      </trkpt>
      <trkpt lat="42.260528" lon="2.731840">
        <ele>761.592</ele>
        <time>2020-10-17T12:55:25Z</time>
      </trkpt>
      <trkpt lat="42.260584" lon="2.731723">
        <ele>762.021</ele>
        <time>2020-10-17T12:55:27Z</time>
      </trkpt>
      <trkpt lat="42.260584" lon="2.731723">
        <ele>762.020</ele>
        <time>2020-10-17T12:55:27Z</time>
      </trkpt>
      <trkpt lat="42.260617" lon="2.731648">
        <ele>762.238</ele>
        <time>2020-10-17T12:55:28Z</time>
      </trkpt>
      <trkpt lat="42.260649" lon="2.731570">
        <ele>762.558</ele>
        <time>2020-10-17T12:55:29Z</time>
      </trkpt>
      <trkpt lat="42.260678" lon="2.731496">
        <ele>762.733</ele>
        <time>2020-10-17T12:55:30Z</time>
      </trkpt>
      <trkpt lat="42.260713" lon="2.731376">
        <ele>763.045</ele>
        <time>2020-10-17T12:55:32Z</time>
      </trkpt>
      <trkpt lat="42.260734" lon="2.731259">
        <ele>763.447</ele>
        <time>2020-10-17T12:55:34Z</time>
      </trkpt>
      <trkpt lat="42.260742" lon="2.731115">
        <ele>763.811</ele>
        <time>2020-10-17T12:55:36Z</time>
      </trkpt>
      <trkpt lat="42.260748" lon="2.731032">
        <ele>764.108</ele>
        <time>2020-10-17T12:55:37Z</time>
      </trkpt>
      <trkpt lat="42.260775" lon="2.730860">
        <ele>764.449</ele>
        <time>2020-10-17T12:55:39Z</time>
      </trkpt>
      <trkpt lat="42.260775" lon="2.730860">
        <ele>764.432</ele>
        <time>2020-10-17T12:55:39Z</time>
      </trkpt>
      <trkpt lat="42.260797" lon="2.730776">
        <ele>764.481</ele>
        <time>2020-10-17T12:55:40Z</time>
      </trkpt>
      <trkpt lat="42.260819" lon="2.730696">
        <ele>764.260</ele>
        <time>2020-10-17T12:55:41Z</time>
      </trkpt>
      <trkpt lat="42.260856" lon="2.730559">
        <ele>764.029</ele>
        <time>2020-10-17T12:55:43Z</time>
      </trkpt>
      <trkpt lat="42.260856" lon="2.730559">
        <ele>764.017</ele>
        <time>2020-10-17T12:55:43Z</time>
      </trkpt>
      <trkpt lat="42.260873" lon="2.730493">
        <ele>763.977</ele>
        <time>2020-10-17T12:55:44Z</time>
      </trkpt>
      <trkpt lat="42.260891" lon="2.730372">
        <ele>763.772</ele>
        <time>2020-10-17T12:55:46Z</time>
      </trkpt>
      <trkpt lat="42.260892" lon="2.730291">
        <ele>763.684</ele>
        <time>2020-10-17T12:55:48Z</time>
      </trkpt>
      <trkpt lat="42.260913" lon="2.730200">
        <ele>763.607</ele>
        <time>2020-10-17T12:55:50Z</time>
      </trkpt>
      <trkpt lat="42.260942" lon="2.730073">
        <ele>763.617</ele>
        <time>2020-10-17T12:55:52Z</time>
      </trkpt>
      <trkpt lat="42.260965" lon="2.729924">
        <ele>763.608</ele>
        <time>2020-10-17T12:55:54Z</time>
      </trkpt>
      <trkpt lat="42.260976" lon="2.729847">
        <ele>763.613</ele>
        <time>2020-10-17T12:55:55Z</time>
      </trkpt>
      <trkpt lat="42.260983" lon="2.729772">
        <ele>763.636</ele>
        <time>2020-10-17T12:55:56Z</time>
      </trkpt>
      <trkpt lat="42.260983" lon="2.729772">
        <ele>763.665</ele>
        <time>2020-10-17T12:55:56Z</time>
      </trkpt>
      <trkpt lat="42.260987" lon="2.729697">
        <ele>763.734</ele>
        <time>2020-10-17T12:55:57Z</time>
      </trkpt>
      <trkpt lat="42.260997" lon="2.729561">
        <ele>763.953</ele>
        <time>2020-10-17T12:55:59Z</time>
      </trkpt>
      <trkpt lat="42.261009" lon="2.729468">
        <ele>764.291</ele>
        <time>2020-10-17T12:56:01Z</time>
      </trkpt>
      <trkpt lat="42.261016" lon="2.729357">
        <ele>764.661</ele>
        <time>2020-10-17T12:56:03Z</time>
      </trkpt>
      <trkpt lat="42.261016" lon="2.729357">
        <ele>764.616</ele>
        <time>2020-10-17T12:56:03Z</time>
      </trkpt>
      <trkpt lat="42.261014" lon="2.729236">
        <ele>764.742</ele>
        <time>2020-10-17T12:56:05Z</time>
      </trkpt>
      <trkpt lat="42.261010" lon="2.729123">
        <ele>764.822</ele>
        <time>2020-10-17T12:56:07Z</time>
      </trkpt>
      <trkpt lat="42.261015" lon="2.729027">
        <ele>764.814</ele>
        <time>2020-10-17T12:56:09Z</time>
      </trkpt>
      <trkpt lat="42.261015" lon="2.728924">
        <ele>764.708</ele>
        <time>2020-10-17T12:56:11Z</time>
      </trkpt>
      <trkpt lat="42.261026" lon="2.728807">
        <ele>764.819</ele>
        <time>2020-10-17T12:56:13Z</time>
      </trkpt>
      <trkpt lat="42.261031" lon="2.728744">
        <ele>764.832</ele>
        <time>2020-10-17T12:56:14Z</time>
      </trkpt>
      <trkpt lat="42.261024" lon="2.728607">
        <ele>764.771</ele>
        <time>2020-10-17T12:56:16Z</time>
      </trkpt>
      <trkpt lat="42.261015" lon="2.728534">
        <ele>764.460</ele>
        <time>2020-10-17T12:56:17Z</time>
      </trkpt>
      <trkpt lat="42.261015" lon="2.728534">
        <ele>764.439</ele>
        <time>2020-10-17T12:56:17Z</time>
      </trkpt>
      <trkpt lat="42.261005" lon="2.728463">
        <ele>764.377</ele>
        <time>2020-10-17T12:56:18Z</time>
      </trkpt>
      <trkpt lat="42.260981" lon="2.728333">
        <ele>764.027</ele>
        <time>2020-10-17T12:56:20Z</time>
      </trkpt>
      <trkpt lat="42.260956" lon="2.728272">
        <ele>763.542</ele>
        <time>2020-10-17T12:56:23Z</time>
      </trkpt>
      <trkpt lat="42.260928" lon="2.728208">
        <ele>762.981</ele>
        <time>2020-10-17T12:56:25Z</time>
      </trkpt>
      <trkpt lat="42.260902" lon="2.728147">
        <ele>762.661</ele>
        <time>2020-10-17T12:56:26Z</time>
      </trkpt>
      <trkpt lat="42.260902" lon="2.728147">
        <ele>762.617</ele>
        <time>2020-10-17T12:56:26Z</time>
      </trkpt>
      <trkpt lat="42.260874" lon="2.728073">
        <ele>762.408</ele>
        <time>2020-10-17T12:56:28Z</time>
      </trkpt>
      <trkpt lat="42.260825" lon="2.728027">
        <ele>762.193</ele>
        <time>2020-10-17T12:56:30Z</time>
      </trkpt>
      <trkpt lat="42.260774" lon="2.727991">
        <ele>761.836</ele>
        <time>2020-10-17T12:56:32Z</time>
      </trkpt>
      <trkpt lat="42.260761" lon="2.727913">
        <ele>761.745</ele>
        <time>2020-10-17T12:56:35Z</time>
      </trkpt>
      <trkpt lat="42.260767" lon="2.727819">
        <ele>761.514</ele>
        <time>2020-10-17T12:56:37Z</time>
      </trkpt>
      <trkpt lat="42.260767" lon="2.727744">
        <ele>761.273</ele>
        <time>2020-10-17T12:56:39Z</time>
      </trkpt>
      <trkpt lat="42.260778" lon="2.727663">
        <ele>760.651</ele>
        <time>2020-10-17T12:56:42Z</time>
      </trkpt>
      <trkpt lat="42.260791" lon="2.727585">
        <ele>760.271</ele>
        <time>2020-10-17T12:56:44Z</time>
      </trkpt>
      <trkpt lat="42.260801" lon="2.727496">
        <ele>760.146</ele>
        <time>2020-10-17T12:56:46Z</time>
      </trkpt>
      <trkpt lat="42.260800" lon="2.727400">
        <ele>760.151</ele>
        <time>2020-10-17T12:56:48Z</time>
      </trkpt>
      <trkpt lat="42.260800" lon="2.727337">
        <ele>760.101</ele>
        <time>2020-10-17T12:56:49Z</time>
      </trkpt>
      <trkpt lat="42.260805" lon="2.727228">
        <ele>760.311</ele>
        <time>2020-10-17T12:56:51Z</time>
      </trkpt>
      <trkpt lat="42.260805" lon="2.727228">
        <ele>760.308</ele>
        <time>2020-10-17T12:56:51Z</time>
      </trkpt>
      <trkpt lat="42.260832" lon="2.727092">
        <ele>760.540</ele>
        <time>2020-10-17T12:56:53Z</time>
      </trkpt>
      <trkpt lat="42.260885" lon="2.726937">
        <ele>760.983</ele>
        <time>2020-10-17T12:56:55Z</time>
      </trkpt>
      <trkpt lat="42.260923" lon="2.726821">
        <ele>762.052</ele>
        <time>2020-10-17T12:56:57Z</time>
      </trkpt>
      <trkpt lat="42.260923" lon="2.726821">
        <ele>762.011</ele>
        <time>2020-10-17T12:56:57Z</time>
      </trkpt>
      <trkpt lat="42.260934" lon="2.726759">
        <ele>762.340</ele>
        <time>2020-10-17T12:56:58Z</time>
      </trkpt>
      <trkpt lat="42.260940" lon="2.726652">
        <ele>762.848</ele>
        <time>2020-10-17T12:57:00Z</time>
      </trkpt>
      <trkpt lat="42.260940" lon="2.726589">
        <ele>763.298</ele>
        <time>2020-10-17T12:57:01Z</time>
      </trkpt>
      <trkpt lat="42.260940" lon="2.726589">
        <ele>763.223</ele>
        <time>2020-10-17T12:57:01Z</time>
      </trkpt>
      <trkpt lat="42.260939" lon="2.726511">
        <ele>763.289</ele>
        <time>2020-10-17T12:57:03Z</time>
      </trkpt>
      <trkpt lat="42.260930" lon="2.726405">
        <ele>763.206</ele>
        <time>2020-10-17T12:57:05Z</time>
      </trkpt>
      <trkpt lat="42.260930" lon="2.726405">
        <ele>763.226</ele>
        <time>2020-10-17T12:57:05Z</time>
      </trkpt>
      <trkpt lat="42.260924" lon="2.726287">
        <ele>763.308</ele>
        <time>2020-10-17T12:57:07Z</time>
      </trkpt>
      <trkpt lat="42.260915" lon="2.726177">
        <ele>763.383</ele>
        <time>2020-10-17T12:57:09Z</time>
      </trkpt>
      <trkpt lat="42.260898" lon="2.726059">
        <ele>763.376</ele>
        <time>2020-10-17T12:57:11Z</time>
      </trkpt>
      <trkpt lat="42.260905" lon="2.725918">
        <ele>763.365</ele>
        <time>2020-10-17T12:57:13Z</time>
      </trkpt>
      <trkpt lat="42.260923" lon="2.725844">
        <ele>763.424</ele>
        <time>2020-10-17T12:57:14Z</time>
      </trkpt>
      <trkpt lat="42.260923" lon="2.725844">
        <ele>763.433</ele>
        <time>2020-10-17T12:57:14Z</time>
      </trkpt>
      <trkpt lat="42.260967" lon="2.725697">
        <ele>764.091</ele>
        <time>2020-10-17T12:57:16Z</time>
      </trkpt>
      <trkpt lat="42.260986" lon="2.725626">
        <ele>764.851</ele>
        <time>2020-10-17T12:57:17Z</time>
      </trkpt>
      <trkpt lat="42.261011" lon="2.725524">
        <ele>766.286</ele>
        <time>2020-10-17T12:57:19Z</time>
      </trkpt>
      <trkpt lat="42.261011" lon="2.725524">
        <ele>766.228</ele>
        <time>2020-10-17T12:57:19Z</time>
      </trkpt>
      <trkpt lat="42.261014" lon="2.725437">
        <ele>766.989</ele>
        <time>2020-10-17T12:57:21Z</time>
      </trkpt>
      <trkpt lat="42.261014" lon="2.725437">
        <ele>766.917</ele>
        <time>2020-10-17T12:57:21Z</time>
      </trkpt>
      <trkpt lat="42.260966" lon="2.725361">
        <ele>767.108</ele>
        <time>2020-10-17T12:57:23Z</time>
      </trkpt>
      <trkpt lat="42.260889" lon="2.725288">
        <ele>767.037</ele>
        <time>2020-10-17T12:57:25Z</time>
      </trkpt>
      <trkpt lat="42.260818" lon="2.725205">
        <ele>766.990</ele>
        <time>2020-10-17T12:57:27Z</time>
      </trkpt>
      <trkpt lat="42.260809" lon="2.725135">
        <ele>766.969</ele>
        <time>2020-10-17T12:57:30Z</time>
      </trkpt>
      <trkpt lat="42.260836" lon="2.725076">
        <ele>766.998</ele>
        <time>2020-10-17T12:57:32Z</time>
      </trkpt>
      <trkpt lat="42.260872" lon="2.725026">
        <ele>767.087</ele>
        <time>2020-10-17T12:57:33Z</time>
      </trkpt>
      <trkpt lat="42.260872" lon="2.725026">
        <ele>767.055</ele>
        <time>2020-10-17T12:57:33Z</time>
      </trkpt>
      <trkpt lat="42.260907" lon="2.724962">
        <ele>767.685</ele>
        <time>2020-10-17T12:57:35Z</time>
      </trkpt>
      <trkpt lat="42.260930" lon="2.724867">
        <ele>768.490</ele>
        <time>2020-10-17T12:57:37Z</time>
      </trkpt>
      <trkpt lat="42.260940" lon="2.724771">
        <ele>769.629</ele>
        <time>2020-10-17T12:57:39Z</time>
      </trkpt>
      <trkpt lat="42.260944" lon="2.724708">
        <ele>770.200</ele>
        <time>2020-10-17T12:57:41Z</time>
      </trkpt>
      <trkpt lat="42.260930" lon="2.724627">
        <ele>770.320</ele>
        <time>2020-10-17T12:57:43Z</time>
      </trkpt>
      <trkpt lat="42.260907" lon="2.724534">
        <ele>769.908</ele>
        <time>2020-10-17T12:57:45Z</time>
      </trkpt>
      <trkpt lat="42.260861" lon="2.724433">
        <ele>769.477</ele>
        <time>2020-10-17T12:57:47Z</time>
      </trkpt>
      <trkpt lat="42.260825" lon="2.724342">
        <ele>769.060</ele>
        <time>2020-10-17T12:57:49Z</time>
      </trkpt>
      <trkpt lat="42.260787" lon="2.724211">
        <ele>768.789</ele>
        <time>2020-10-17T12:57:51Z</time>
      </trkpt>
      <trkpt lat="42.260775" lon="2.724143">
        <ele>768.518</ele>
        <time>2020-10-17T12:57:52Z</time>
      </trkpt>
      <trkpt lat="42.260763" lon="2.723994">
        <ele>768.317</ele>
        <time>2020-10-17T12:57:54Z</time>
      </trkpt>
      <trkpt lat="42.260763" lon="2.723994">
        <ele>768.355</ele>
        <time>2020-10-17T12:57:54Z</time>
      </trkpt>
      <trkpt lat="42.260756" lon="2.723913">
        <ele>768.165</ele>
        <time>2020-10-17T12:57:55Z</time>
      </trkpt>
      <trkpt lat="42.260745" lon="2.723747">
        <ele>768.020</ele>
        <time>2020-10-17T12:57:57Z</time>
      </trkpt>
      <trkpt lat="42.260738" lon="2.723663">
        <ele>767.948</ele>
        <time>2020-10-17T12:57:58Z</time>
      </trkpt>
      <trkpt lat="42.260738" lon="2.723663">
        <ele>767.961</ele>
        <time>2020-10-17T12:57:58Z</time>
      </trkpt>
      <trkpt lat="42.260729" lon="2.723583">
        <ele>767.917</ele>
        <time>2020-10-17T12:57:59Z</time>
      </trkpt>
      <trkpt lat="42.260708" lon="2.723436">
        <ele>767.808</ele>
        <time>2020-10-17T12:58:01Z</time>
      </trkpt>
      <trkpt lat="42.260698" lon="2.723300">
        <ele>768.059</ele>
        <time>2020-10-17T12:58:03Z</time>
      </trkpt>
      <trkpt lat="42.260697" lon="2.723234">
        <ele>768.242</ele>
        <time>2020-10-17T12:58:04Z</time>
      </trkpt>
      <trkpt lat="42.260697" lon="2.723119">
        <ele>768.611</ele>
        <time>2020-10-17T12:58:06Z</time>
      </trkpt>
      <trkpt lat="42.260696" lon="2.723021">
        <ele>769.090</ele>
        <time>2020-10-17T12:58:08Z</time>
      </trkpt>
      <trkpt lat="42.260688" lon="2.722937">
        <ele>769.559</ele>
        <time>2020-10-17T12:58:10Z</time>
      </trkpt>
      <trkpt lat="42.260675" lon="2.722843">
        <ele>770.017</ele>
        <time>2020-10-17T12:58:13Z</time>
      </trkpt>
      <trkpt lat="42.260692" lon="2.722734">
        <ele>770.977</ele>
        <time>2020-10-17T12:58:15Z</time>
      </trkpt>
      <trkpt lat="42.260707" lon="2.722658">
        <ele>772.392</ele>
        <time>2020-10-17T12:58:16Z</time>
      </trkpt>
      <trkpt lat="42.260707" lon="2.722658">
        <ele>772.397</ele>
        <time>2020-10-17T12:58:16Z</time>
      </trkpt>
      <trkpt lat="42.260724" lon="2.722552">
        <ele>773.123</ele>
        <time>2020-10-17T12:58:18Z</time>
      </trkpt>
      <trkpt lat="42.260723" lon="2.722440">
        <ele>774.025</ele>
        <time>2020-10-17T12:58:20Z</time>
      </trkpt>
      <trkpt lat="42.260708" lon="2.722329">
        <ele>775.008</ele>
        <time>2020-10-17T12:58:22Z</time>
      </trkpt>
      <trkpt lat="42.260688" lon="2.722246">
        <ele>775.694</ele>
        <time>2020-10-17T12:58:24Z</time>
      </trkpt>
      <trkpt lat="42.260665" lon="2.722143">
        <ele>775.977</ele>
        <time>2020-10-17T12:58:26Z</time>
      </trkpt>
      <trkpt lat="42.260668" lon="2.722003">
        <ele>776.136</ele>
        <time>2020-10-17T12:58:28Z</time>
      </trkpt>
      <trkpt lat="42.260712" lon="2.721911">
        <ele>777.065</ele>
        <time>2020-10-17T12:58:30Z</time>
      </trkpt>
      <trkpt lat="42.260712" lon="2.721911">
        <ele>777.094</ele>
        <time>2020-10-17T12:58:30Z</time>
      </trkpt>
      <trkpt lat="42.260753" lon="2.721798">
        <ele>777.692</ele>
        <time>2020-10-17T12:58:32Z</time>
      </trkpt>
      <trkpt lat="42.260762" lon="2.721730">
        <ele>778.232</ele>
        <time>2020-10-17T12:58:33Z</time>
      </trkpt>
      <trkpt lat="42.260762" lon="2.721730">
        <ele>778.237</ele>
        <time>2020-10-17T12:58:33Z</time>
      </trkpt>
      <trkpt lat="42.260738" lon="2.721588">
        <ele>778.765</ele>
        <time>2020-10-17T12:58:35Z</time>
      </trkpt>
      <trkpt lat="42.260718" lon="2.721494">
        <ele>779.568</ele>
        <time>2020-10-17T12:58:37Z</time>
      </trkpt>
      <trkpt lat="42.260700" lon="2.721412">
        <ele>780.814</ele>
        <time>2020-10-17T12:58:40Z</time>
      </trkpt>
      <trkpt lat="42.260708" lon="2.721317">
        <ele>781.808</ele>
        <time>2020-10-17T12:58:42Z</time>
      </trkpt>
      <trkpt lat="42.260727" lon="2.721194">
        <ele>782.711</ele>
        <time>2020-10-17T12:58:44Z</time>
      </trkpt>
      <trkpt lat="42.260738" lon="2.721070">
        <ele>783.524</ele>
        <time>2020-10-17T12:58:46Z</time>
      </trkpt>
      <trkpt lat="42.260751" lon="2.720997">
        <ele>784.383</ele>
        <time>2020-10-17T12:58:48Z</time>
      </trkpt>
      <trkpt lat="42.260767" lon="2.720936">
        <ele>785.892</ele>
        <time>2020-10-17T12:58:50Z</time>
      </trkpt>
      <trkpt lat="42.260767" lon="2.720936">
        <ele>785.891</ele>
        <time>2020-10-17T12:58:50Z</time>
      </trkpt>
      <trkpt lat="42.260774" lon="2.720855">
        <ele>786.659</ele>
        <time>2020-10-17T12:58:52Z</time>
      </trkpt>
      <trkpt lat="42.260782" lon="2.720774">
        <ele>788.029</ele>
        <time>2020-10-17T12:58:56Z</time>
      </trkpt>
      <trkpt lat="42.260785" lon="2.720684">
        <ele>789.324</ele>
        <time>2020-10-17T12:58:58Z</time>
      </trkpt>
      <trkpt lat="42.260790" lon="2.720600">
        <ele>790.423</ele>
        <time>2020-10-17T12:59:00Z</time>
      </trkpt>
      <trkpt lat="42.260798" lon="2.720506">
        <ele>791.383</ele>
        <time>2020-10-17T12:59:02Z</time>
      </trkpt>
      <trkpt lat="42.260815" lon="2.720402">
        <ele>791.911</ele>
        <time>2020-10-17T12:59:04Z</time>
      </trkpt>
      <trkpt lat="42.260828" lon="2.720323">
        <ele>792.508</ele>
        <time>2020-10-17T12:59:06Z</time>
      </trkpt>
      <trkpt lat="42.260840" lon="2.720232">
        <ele>793.137</ele>
        <time>2020-10-17T12:59:08Z</time>
      </trkpt>
      <trkpt lat="42.260853" lon="2.720127">
        <ele>793.880</ele>
        <time>2020-10-17T12:59:10Z</time>
      </trkpt>
      <trkpt lat="42.260865" lon="2.720046">
        <ele>794.489</ele>
        <time>2020-10-17T12:59:12Z</time>
      </trkpt>
      <trkpt lat="42.260877" lon="2.719969">
        <ele>794.818</ele>
        <time>2020-10-17T12:59:14Z</time>
      </trkpt>
      <trkpt lat="42.260891" lon="2.719856">
        <ele>795.157</ele>
        <time>2020-10-17T12:59:16Z</time>
      </trkpt>
      <trkpt lat="42.260894" lon="2.719764">
        <ele>795.475</ele>
        <time>2020-10-17T12:59:18Z</time>
      </trkpt>
      <trkpt lat="42.260892" lon="2.719664">
        <ele>795.755</ele>
        <time>2020-10-17T12:59:20Z</time>
      </trkpt>
      <trkpt lat="42.260893" lon="2.719531">
        <ele>796.190</ele>
        <time>2020-10-17T12:59:22Z</time>
      </trkpt>
      <trkpt lat="42.260891" lon="2.719430">
        <ele>796.262</ele>
        <time>2020-10-17T12:59:24Z</time>
      </trkpt>
      <trkpt lat="42.260885" lon="2.719325">
        <ele>796.183</ele>
        <time>2020-10-17T12:59:26Z</time>
      </trkpt>
      <trkpt lat="42.260881" lon="2.719236">
        <ele>795.911</ele>
        <time>2020-10-17T12:59:27Z</time>
      </trkpt>
      <trkpt lat="42.260881" lon="2.719236">
        <ele>795.908</ele>
        <time>2020-10-17T12:59:27Z</time>
      </trkpt>
      <trkpt lat="42.260876" lon="2.719131">
        <ele>795.951</ele>
        <time>2020-10-17T12:59:29Z</time>
      </trkpt>
      <trkpt lat="42.260882" lon="2.719009">
        <ele>795.874</ele>
        <time>2020-10-17T12:59:31Z</time>
      </trkpt>
      <trkpt lat="42.260896" lon="2.718887">
        <ele>795.553</ele>
        <time>2020-10-17T12:59:33Z</time>
      </trkpt>
      <trkpt lat="42.260886" lon="2.718791">
        <ele>795.182</ele>
        <time>2020-10-17T12:59:35Z</time>
      </trkpt>
      <trkpt lat="42.260875" lon="2.718681">
        <ele>794.171</ele>
        <time>2020-10-17T12:59:37Z</time>
      </trkpt>
      <trkpt lat="42.260875" lon="2.718681">
        <ele>794.139</ele>
        <time>2020-10-17T12:59:37Z</time>
      </trkpt>
      <trkpt lat="42.260870" lon="2.718619">
        <ele>793.799</ele>
        <time>2020-10-17T12:59:38Z</time>
      </trkpt>
      <trkpt lat="42.260865" lon="2.718553">
        <ele>793.214</ele>
        <time>2020-10-17T12:59:39Z</time>
      </trkpt>
      <trkpt lat="42.260843" lon="2.718408">
        <ele>792.262</ele>
        <time>2020-10-17T12:59:41Z</time>
      </trkpt>
      <trkpt lat="42.260843" lon="2.718408">
        <ele>792.283</ele>
        <time>2020-10-17T12:59:41Z</time>
      </trkpt>
      <trkpt lat="42.260812" lon="2.718270">
        <ele>791.711</ele>
        <time>2020-10-17T12:59:43Z</time>
      </trkpt>
      <trkpt lat="42.260782" lon="2.718156">
        <ele>790.708</ele>
        <time>2020-10-17T12:59:45Z</time>
      </trkpt>
      <trkpt lat="42.260782" lon="2.718156">
        <ele>790.761</ele>
        <time>2020-10-17T12:59:45Z</time>
      </trkpt>
      <trkpt lat="42.260758" lon="2.718078">
        <ele>790.194</ele>
        <time>2020-10-17T12:59:47Z</time>
      </trkpt>
      <trkpt lat="42.260733" lon="2.717974">
        <ele>789.453</ele>
        <time>2020-10-17T12:59:49Z</time>
      </trkpt>
      <trkpt lat="42.260686" lon="2.717839">
        <ele>788.842</ele>
        <time>2020-10-17T12:59:51Z</time>
      </trkpt>
      <trkpt lat="42.260652" lon="2.717771">
        <ele>788.431</ele>
        <time>2020-10-17T12:59:52Z</time>
      </trkpt>
      <trkpt lat="42.260615" lon="2.717711">
        <ele>788.279</ele>
        <time>2020-10-17T12:59:53Z</time>
      </trkpt>
      <trkpt lat="42.260569" lon="2.717650">
        <ele>788.129</ele>
        <time>2020-10-17T12:59:54Z</time>
      </trkpt>
      <trkpt lat="42.260569" lon="2.717650">
        <ele>788.124</ele>
        <time>2020-10-17T12:59:54Z</time>
      </trkpt>
      <trkpt lat="42.260513" lon="2.717598">
        <ele>788.283</ele>
        <time>2020-10-17T12:59:56Z</time>
      </trkpt>
      <trkpt lat="42.260454" lon="2.717564">
        <ele>788.425</ele>
        <time>2020-10-17T12:59:58Z</time>
      </trkpt>
      <trkpt lat="42.260412" lon="2.717496">
        <ele>788.617</ele>
        <time>2020-10-17T13:00:00Z</time>
      </trkpt>
      <trkpt lat="42.260406" lon="2.717401">
        <ele>788.908</ele>
        <time>2020-10-17T13:00:02Z</time>
      </trkpt>
      <trkpt lat="42.260423" lon="2.717296">
        <ele>789.583</ele>
        <time>2020-10-17T13:00:04Z</time>
      </trkpt>
      <trkpt lat="42.260462" lon="2.717202">
        <ele>790.066</ele>
        <time>2020-10-17T13:00:06Z</time>
      </trkpt>
      <trkpt lat="42.260499" lon="2.717162">
        <ele>790.625</ele>
        <time>2020-10-17T13:00:07Z</time>
      </trkpt>
      <trkpt lat="42.260499" lon="2.717162">
        <ele>790.634</ele>
        <time>2020-10-17T13:00:07Z</time>
      </trkpt>
      <trkpt lat="42.260579" lon="2.717058">
        <ele>790.763</ele>
        <time>2020-10-17T13:00:09Z</time>
      </trkpt>
      <trkpt lat="42.260613" lon="2.716944">
        <ele>790.871</ele>
        <time>2020-10-17T13:00:11Z</time>
      </trkpt>
      <trkpt lat="42.260623" lon="2.716876">
        <ele>791.121</ele>
        <time>2020-10-17T13:00:12Z</time>
      </trkpt>
      <trkpt lat="42.260623" lon="2.716876">
        <ele>791.186</ele>
        <time>2020-10-17T13:00:12Z</time>
      </trkpt>
      <trkpt lat="42.260627" lon="2.716802">
        <ele>791.331</ele>
        <time>2020-10-17T13:00:13Z</time>
      </trkpt>
      <trkpt lat="42.260628" lon="2.716723">
        <ele>791.561</ele>
        <time>2020-10-17T13:00:14Z</time>
      </trkpt>
      <trkpt lat="42.260629" lon="2.716568">
        <ele>791.807</ele>
        <time>2020-10-17T13:00:16Z</time>
      </trkpt>
      <trkpt lat="42.260627" lon="2.716493">
        <ele>792.208</ele>
        <time>2020-10-17T13:00:17Z</time>
      </trkpt>
      <trkpt lat="42.260627" lon="2.716493">
        <ele>792.258</ele>
        <time>2020-10-17T13:00:17Z</time>
      </trkpt>
      <trkpt lat="42.260614" lon="2.716366">
        <ele>792.351</ele>
        <time>2020-10-17T13:00:19Z</time>
      </trkpt>
      <trkpt lat="42.260592" lon="2.716267">
        <ele>792.460</ele>
        <time>2020-10-17T13:00:21Z</time>
      </trkpt>
      <trkpt lat="42.260579" lon="2.716174">
        <ele>792.419</ele>
        <time>2020-10-17T13:00:23Z</time>
      </trkpt>
      <trkpt lat="42.260570" lon="2.716100">
        <ele>792.418</ele>
        <time>2020-10-17T13:00:24Z</time>
      </trkpt>
      <trkpt lat="42.260563" lon="2.715995">
        <ele>792.466</ele>
        <time>2020-10-17T13:00:26Z</time>
      </trkpt>
      <trkpt lat="42.260539" lon="2.715865">
        <ele>792.376</ele>
        <time>2020-10-17T13:00:28Z</time>
      </trkpt>
      <trkpt lat="42.260519" lon="2.715796">
        <ele>792.231</ele>
        <time>2020-10-17T13:00:29Z</time>
      </trkpt>
      <trkpt lat="42.260478" lon="2.715666">
        <ele>792.038</ele>
        <time>2020-10-17T13:00:31Z</time>
      </trkpt>
      <trkpt lat="42.260464" lon="2.715552">
        <ele>791.870</ele>
        <time>2020-10-17T13:00:33Z</time>
      </trkpt>
      <trkpt lat="42.260485" lon="2.715447">
        <ele>791.817</ele>
        <time>2020-10-17T13:00:35Z</time>
      </trkpt>
      <trkpt lat="42.260506" lon="2.715337">
        <ele>791.508</ele>
        <time>2020-10-17T13:00:37Z</time>
      </trkpt>
      <trkpt lat="42.260553" lon="2.715197">
        <ele>791.318</ele>
        <time>2020-10-17T13:00:39Z</time>
      </trkpt>
      <trkpt lat="42.260602" lon="2.715132">
        <ele>791.361</ele>
        <time>2020-10-17T13:00:41Z</time>
      </trkpt>
      <trkpt lat="42.260669" lon="2.715068">
        <ele>791.650</ele>
        <time>2020-10-17T13:00:43Z</time>
      </trkpt>
      <trkpt lat="42.260710" lon="2.715030">
        <ele>792.019</ele>
        <time>2020-10-17T13:00:44Z</time>
      </trkpt>
      <trkpt lat="42.260760" lon="2.714987">
        <ele>792.858</ele>
        <time>2020-10-17T13:00:45Z</time>
      </trkpt>
      <trkpt lat="42.260760" lon="2.714987">
        <ele>792.856</ele>
        <time>2020-10-17T13:00:45Z</time>
      </trkpt>
      <trkpt lat="42.260859" lon="2.714898">
        <ele>793.316</ele>
        <time>2020-10-17T13:00:47Z</time>
      </trkpt>
      <trkpt lat="42.260907" lon="2.714850">
        <ele>793.671</ele>
        <time>2020-10-17T13:00:48Z</time>
      </trkpt>
      <trkpt lat="42.260993" lon="2.714747">
        <ele>793.751</ele>
        <time>2020-10-17T13:00:50Z</time>
      </trkpt>
      <trkpt lat="42.261077" lon="2.714624">
        <ele>793.701</ele>
        <time>2020-10-17T13:00:52Z</time>
      </trkpt>
      <trkpt lat="42.261121" lon="2.714557">
        <ele>793.711</ele>
        <time>2020-10-17T13:00:53Z</time>
      </trkpt>
      <trkpt lat="42.261196" lon="2.714441">
        <ele>794.108</ele>
        <time>2020-10-17T13:00:55Z</time>
      </trkpt>
      <trkpt lat="42.261196" lon="2.714441">
        <ele>794.120</ele>
        <time>2020-10-17T13:00:55Z</time>
      </trkpt>
      <trkpt lat="42.261232" lon="2.714383">
        <ele>794.443</ele>
        <time>2020-10-17T13:00:56Z</time>
      </trkpt>
      <trkpt lat="42.261269" lon="2.714280">
        <ele>795.632</ele>
        <time>2020-10-17T13:00:58Z</time>
      </trkpt>
      <trkpt lat="42.261269" lon="2.714280">
        <ele>795.631</ele>
        <time>2020-10-17T13:00:58Z</time>
      </trkpt>
      <trkpt lat="42.261285" lon="2.714184">
        <ele>796.450</ele>
        <time>2020-10-17T13:01:00Z</time>
      </trkpt>
      <trkpt lat="42.261309" lon="2.714115">
        <ele>798.178</ele>
        <time>2020-10-17T13:01:02Z</time>
      </trkpt>
      <trkpt lat="42.261309" lon="2.714115">
        <ele>798.158</ele>
        <time>2020-10-17T13:01:02Z</time>
      </trkpt>
      <trkpt lat="42.261380" lon="2.714081">
        <ele>799.393</ele>
        <time>2020-10-17T13:01:05Z</time>
      </trkpt>
      <trkpt lat="42.261380" lon="2.714081">
        <ele>799.336</ele>
        <time>2020-10-17T13:01:05Z</time>
      </trkpt>
      <trkpt lat="42.261468" lon="2.714044">
        <ele>799.917</ele>
        <time>2020-10-17T13:01:07Z</time>
      </trkpt>
      <trkpt lat="42.261510" lon="2.714021">
        <ele>800.918</ele>
        <time>2020-10-17T13:01:08Z</time>
      </trkpt>
      <trkpt lat="42.261510" lon="2.714021">
        <ele>800.908</ele>
        <time>2020-10-17T13:01:08Z</time>
      </trkpt>
      <trkpt lat="42.261581" lon="2.713966">
        <ele>801.658</ele>
        <time>2020-10-17T13:01:10Z</time>
      </trkpt>
      <trkpt lat="42.261644" lon="2.713915">
        <ele>802.441</ele>
        <time>2020-10-17T13:01:12Z</time>
      </trkpt>
      <trkpt lat="42.261722" lon="2.713836">
        <ele>803.220</ele>
        <time>2020-10-17T13:01:14Z</time>
      </trkpt>
      <trkpt lat="42.261777" lon="2.713772">
        <ele>804.469</ele>
        <time>2020-10-17T13:01:16Z</time>
      </trkpt>
      <trkpt lat="42.261777" lon="2.713772">
        <ele>804.428</ele>
        <time>2020-10-17T13:01:16Z</time>
      </trkpt>
      <trkpt lat="42.261829" lon="2.713696">
        <ele>804.876</ele>
        <time>2020-10-17T13:01:18Z</time>
      </trkpt>
      <trkpt lat="42.261880" lon="2.713586">
        <ele>805.236</ele>
        <time>2020-10-17T13:01:20Z</time>
      </trkpt>
      <trkpt lat="42.261913" lon="2.713512">
        <ele>805.611</ele>
        <time>2020-10-17T13:01:22Z</time>
      </trkpt>
      <trkpt lat="42.261954" lon="2.713434">
        <ele>805.869</ele>
        <time>2020-10-17T13:01:24Z</time>
      </trkpt>
      <trkpt lat="42.262010" lon="2.713354">
        <ele>805.904</ele>
        <time>2020-10-17T13:01:26Z</time>
      </trkpt>
      <trkpt lat="42.262073" lon="2.713275">
        <ele>805.924</ele>
        <time>2020-10-17T13:01:27Z</time>
      </trkpt>
      <trkpt lat="42.262132" lon="2.713205">
        <ele>805.708</ele>
        <time>2020-10-17T13:01:29Z</time>
      </trkpt>
      <trkpt lat="42.262187" lon="2.713109">
        <ele>805.551</ele>
        <time>2020-10-17T13:01:31Z</time>
      </trkpt>
      <trkpt lat="42.262229" lon="2.712983">
        <ele>805.244</ele>
        <time>2020-10-17T13:01:33Z</time>
      </trkpt>
      <trkpt lat="42.262233" lon="2.712861">
        <ele>804.813</ele>
        <time>2020-10-17T13:01:35Z</time>
      </trkpt>
      <trkpt lat="42.262211" lon="2.712750">
        <ele>804.532</ele>
        <time>2020-10-17T13:01:37Z</time>
      </trkpt>
      <trkpt lat="42.262183" lon="2.712622">
        <ele>804.311</ele>
        <time>2020-10-17T13:01:39Z</time>
      </trkpt>
      <trkpt lat="42.262156" lon="2.712539">
        <ele>804.159</ele>
        <time>2020-10-17T13:01:41Z</time>
      </trkpt>
      <trkpt lat="42.262136" lon="2.712456">
        <ele>804.019</ele>
        <time>2020-10-17T13:01:43Z</time>
      </trkpt>
      <trkpt lat="42.262132" lon="2.712347">
        <ele>804.084</ele>
        <time>2020-10-17T13:01:45Z</time>
      </trkpt>
      <trkpt lat="42.262163" lon="2.712253">
        <ele>804.064</ele>
        <time>2020-10-17T13:01:47Z</time>
      </trkpt>
      <trkpt lat="42.262202" lon="2.712182">
        <ele>804.406</ele>
        <time>2020-10-17T13:01:49Z</time>
      </trkpt>
      <trkpt lat="42.262237" lon="2.712102">
        <ele>805.116</ele>
        <time>2020-10-17T13:01:51Z</time>
      </trkpt>
      <trkpt lat="42.262276" lon="2.712034">
        <ele>805.908</ele>
        <time>2020-10-17T13:01:53Z</time>
      </trkpt>
      <trkpt lat="42.262335" lon="2.711993">
        <ele>806.821</ele>
        <time>2020-10-17T13:01:55Z</time>
      </trkpt>
      <trkpt lat="42.262433" lon="2.712002">
        <ele>807.884</ele>
        <time>2020-10-17T13:01:57Z</time>
      </trkpt>
      <trkpt lat="42.262515" lon="2.712023">
        <ele>808.563</ele>
        <time>2020-10-17T13:01:59Z</time>
      </trkpt>
      <trkpt lat="42.262598" lon="2.712000">
        <ele>809.012</ele>
        <time>2020-10-17T13:02:01Z</time>
      </trkpt>
      <trkpt lat="42.262598" lon="2.712000">
        <ele>809.081</ele>
        <time>2020-10-17T13:02:01Z</time>
      </trkpt>
      <trkpt lat="42.262641" lon="2.711956">
        <ele>808.899</ele>
        <time>2020-10-17T13:02:02Z</time>
      </trkpt>
      <trkpt lat="42.262685" lon="2.711912">
        <ele>808.269</ele>
        <time>2020-10-17T13:02:03Z</time>
      </trkpt>
      <trkpt lat="42.262685" lon="2.711912">
        <ele>808.244</ele>
        <time>2020-10-17T13:02:03Z</time>
      </trkpt>
      <trkpt lat="42.262777" lon="2.711807">
        <ele>808.014</ele>
        <time>2020-10-17T13:02:05Z</time>
      </trkpt>
      <trkpt lat="42.262829" lon="2.711747">
        <ele>807.854</ele>
        <time>2020-10-17T13:02:06Z</time>
      </trkpt>
      <trkpt lat="42.262877" lon="2.711690">
        <ele>807.509</ele>
        <time>2020-10-17T13:02:07Z</time>
      </trkpt>
      <trkpt lat="42.262916" lon="2.711640">
        <ele>807.008</ele>
        <time>2020-10-17T13:02:08Z</time>
      </trkpt>
      <trkpt lat="42.262916" lon="2.711640">
        <ele>807.036</ele>
        <time>2020-10-17T13:02:08Z</time>
      </trkpt>
      <trkpt lat="42.262966" lon="2.711560">
        <ele>806.899</ele>
        <time>2020-10-17T13:02:10Z</time>
      </trkpt>
      <trkpt lat="42.263004" lon="2.711480">
        <ele>806.698</ele>
        <time>2020-10-17T13:02:12Z</time>
      </trkpt>
      <trkpt lat="42.263052" lon="2.711382">
        <ele>806.317</ele>
        <time>2020-10-17T13:02:14Z</time>
      </trkpt>
      <trkpt lat="42.263090" lon="2.711343">
        <ele>805.966</ele>
        <time>2020-10-17T13:02:16Z</time>
      </trkpt>
      <trkpt lat="42.263148" lon="2.711349">
        <ele>805.314</ele>
        <time>2020-10-17T13:02:19Z</time>
      </trkpt>
      <trkpt lat="42.263195" lon="2.711407">
        <ele>804.954</ele>
        <time>2020-10-17T13:02:21Z</time>
      </trkpt>
      <trkpt lat="42.263210" lon="2.711483">
        <ele>804.739</ele>
        <time>2020-10-17T13:02:25Z</time>
      </trkpt>
      <trkpt lat="42.263195" lon="2.711556">
        <ele>804.485</ele>
        <time>2020-10-17T13:02:28Z</time>
      </trkpt>
      <trkpt lat="42.263165" lon="2.711625">
        <ele>803.889</ele>
        <time>2020-10-17T13:02:31Z</time>
      </trkpt>
      <trkpt lat="42.263125" lon="2.711694">
        <ele>803.317</ele>
        <time>2020-10-17T13:02:33Z</time>
      </trkpt>
      <trkpt lat="42.263095" lon="2.711759">
        <ele>802.708</ele>
        <time>2020-10-17T13:02:35Z</time>
      </trkpt>
      <trkpt lat="42.263065" lon="2.711842">
        <ele>802.133</ele>
        <time>2020-10-17T13:02:37Z</time>
      </trkpt>
      <trkpt lat="42.263041" lon="2.711935">
        <ele>801.436</ele>
        <time>2020-10-17T13:02:39Z</time>
      </trkpt>
      <trkpt lat="42.262995" lon="2.712056">
        <ele>800.115</ele>
        <time>2020-10-17T13:02:41Z</time>
      </trkpt>
      <trkpt lat="42.262995" lon="2.712056">
        <ele>800.124</ele>
        <time>2020-10-17T13:02:41Z</time>
      </trkpt>
      <trkpt lat="42.262995" lon="2.712056">
        <ele>800.193</ele>
        <time>2020-10-17T13:02:41Z</time>
      </trkpt>
      <trkpt lat="42.262968" lon="2.712151">
        <ele>799.611</ele>
        <time>2020-10-17T13:02:43Z</time>
      </trkpt>
      <trkpt lat="42.262951" lon="2.712245">
        <ele>798.631</ele>
        <time>2020-10-17T13:02:45Z</time>
      </trkpt>
      <trkpt lat="42.262950" lon="2.712359">
        <ele>797.426</ele>
        <time>2020-10-17T13:02:47Z</time>
      </trkpt>
      <trkpt lat="42.262954" lon="2.712458">
        <ele>796.338</ele>
        <time>2020-10-17T13:02:49Z</time>
      </trkpt>
      <trkpt lat="42.262956" lon="2.712560">
        <ele>795.370</ele>
        <time>2020-10-17T13:02:51Z</time>
      </trkpt>
      <trkpt lat="42.262956" lon="2.712623">
        <ele>794.117</ele>
        <time>2020-10-17T13:02:52Z</time>
      </trkpt>
      <trkpt lat="42.262956" lon="2.712623">
        <ele>794.108</ele>
        <time>2020-10-17T13:02:52Z</time>
      </trkpt>
      <trkpt lat="42.262948" lon="2.712683">
        <ele>793.628</ele>
        <time>2020-10-17T13:02:54Z</time>
      </trkpt>
      <trkpt lat="42.262939" lon="2.712746">
        <ele>793.081</ele>
        <time>2020-10-17T13:02:56Z</time>
      </trkpt>
      <trkpt lat="42.262933" lon="2.712824">
        <ele>791.940</ele>
        <time>2020-10-17T13:03:00Z</time>
      </trkpt>
      <trkpt lat="42.262947" lon="2.712902">
        <ele>790.519</ele>
        <time>2020-10-17T13:03:03Z</time>
      </trkpt>
      <trkpt lat="42.262960" lon="2.712979">
        <ele>789.468</ele>
        <time>2020-10-17T13:03:06Z</time>
      </trkpt>
      <trkpt lat="42.262988" lon="2.713045">
        <ele>788.596</ele>
        <time>2020-10-17T13:03:09Z</time>
      </trkpt>
      <trkpt lat="42.263030" lon="2.713121">
        <ele>787.516</ele>
        <time>2020-10-17T13:03:11Z</time>
      </trkpt>
      <trkpt lat="42.263090" lon="2.713192">
        <ele>786.411</ele>
        <time>2020-10-17T13:03:13Z</time>
      </trkpt>
      <trkpt lat="42.263127" lon="2.713269">
        <ele>785.589</ele>
        <time>2020-10-17T13:03:15Z</time>
      </trkpt>
      <trkpt lat="42.263126" lon="2.713355">
        <ele>784.806</ele>
        <time>2020-10-17T13:03:17Z</time>
      </trkpt>
      <trkpt lat="42.263094" lon="2.713434">
        <ele>784.026</ele>
        <time>2020-10-17T13:03:19Z</time>
      </trkpt>
      <trkpt lat="42.263038" lon="2.713512">
        <ele>783.008</ele>
        <time>2020-10-17T13:03:21Z</time>
      </trkpt>
      <trkpt lat="42.263006" lon="2.713557">
        <ele>782.333</ele>
        <time>2020-10-17T13:03:22Z</time>
      </trkpt>
      <trkpt lat="42.262946" lon="2.713676">
        <ele>781.786</ele>
        <time>2020-10-17T13:03:24Z</time>
      </trkpt>
      <trkpt lat="42.262911" lon="2.713823">
        <ele>781.255</ele>
        <time>2020-10-17T13:03:26Z</time>
      </trkpt>
      <trkpt lat="42.262898" lon="2.713971">
        <ele>780.814</ele>
        <time>2020-10-17T13:03:28Z</time>
      </trkpt>
      <trkpt lat="42.262895" lon="2.714049">
        <ele>780.223</ele>
        <time>2020-10-17T13:03:29Z</time>
      </trkpt>
      <trkpt lat="42.262895" lon="2.714049">
        <ele>780.211</ele>
        <time>2020-10-17T13:03:29Z</time>
      </trkpt>
      <trkpt lat="42.262893" lon="2.714126">
        <ele>779.911</ele>
        <time>2020-10-17T13:03:30Z</time>
      </trkpt>
      <trkpt lat="42.262892" lon="2.714198">
        <ele>779.526</ele>
        <time>2020-10-17T13:03:31Z</time>
      </trkpt>
      <trkpt lat="42.262897" lon="2.714310">
        <ele>778.578</ele>
        <time>2020-10-17T13:03:33Z</time>
      </trkpt>
      <trkpt lat="42.262897" lon="2.714310">
        <ele>778.533</ele>
        <time>2020-10-17T13:03:33Z</time>
      </trkpt>
      <trkpt lat="42.262911" lon="2.714417">
        <ele>777.626</ele>
        <time>2020-10-17T13:03:35Z</time>
      </trkpt>
      <trkpt lat="42.262911" lon="2.714417">
        <ele>777.608</ele>
        <time>2020-10-17T13:03:35Z</time>
      </trkpt>
      <trkpt lat="42.262926" lon="2.714548">
        <ele>777.282</ele>
        <time>2020-10-17T13:03:37Z</time>
      </trkpt>
      <trkpt lat="42.262932" lon="2.714610">
        <ele>776.815</ele>
        <time>2020-10-17T13:03:38Z</time>
      </trkpt>
      <trkpt lat="42.262936" lon="2.714673">
        <ele>776.454</ele>
        <time>2020-10-17T13:03:39Z</time>
      </trkpt>
      <trkpt lat="42.262940" lon="2.714734">
        <ele>776.033</ele>
        <time>2020-10-17T13:03:40Z</time>
      </trkpt>
      <trkpt lat="42.262959" lon="2.714868">
        <ele>775.522</ele>
        <time>2020-10-17T13:03:42Z</time>
      </trkpt>
      <trkpt lat="42.262974" lon="2.714935">
        <ele>774.940</ele>
        <time>2020-10-17T13:03:43Z</time>
      </trkpt>
      <trkpt lat="42.262974" lon="2.714935">
        <ele>774.940</ele>
        <time>2020-10-17T13:03:43Z</time>
      </trkpt>
      <trkpt lat="42.263003" lon="2.715067">
        <ele>774.625</ele>
        <time>2020-10-17T13:03:45Z</time>
      </trkpt>
      <trkpt lat="42.263032" lon="2.715203">
        <ele>774.289</ele>
        <time>2020-10-17T13:03:47Z</time>
      </trkpt>
      <trkpt lat="42.263032" lon="2.715203">
        <ele>774.206</ele>
        <time>2020-10-17T13:03:47Z</time>
      </trkpt>
      <trkpt lat="42.263050" lon="2.715276">
        <ele>774.226</ele>
        <time>2020-10-17T13:03:48Z</time>
      </trkpt>
      <trkpt lat="42.263073" lon="2.715352">
        <ele>774.408</ele>
        <time>2020-10-17T13:03:49Z</time>
      </trkpt>
      <trkpt lat="42.263131" lon="2.715501">
        <ele>774.843</ele>
        <time>2020-10-17T13:03:51Z</time>
      </trkpt>
      <trkpt lat="42.263131" lon="2.715501">
        <ele>774.816</ele>
        <time>2020-10-17T13:03:51Z</time>
      </trkpt>
      <trkpt lat="42.263183" lon="2.715637">
        <ele>774.835</ele>
        <time>2020-10-17T13:03:53Z</time>
      </trkpt>
      <trkpt lat="42.263232" lon="2.715754">
        <ele>774.784</ele>
        <time>2020-10-17T13:03:55Z</time>
      </trkpt>
      <trkpt lat="42.263232" lon="2.715754">
        <ele>774.773</ele>
        <time>2020-10-17T13:03:55Z</time>
      </trkpt>
      <trkpt lat="42.263254" lon="2.715814">
        <ele>774.791</ele>
        <time>2020-10-17T13:03:56Z</time>
      </trkpt>
      <trkpt lat="42.263276" lon="2.715876">
        <ele>774.721</ele>
        <time>2020-10-17T13:03:57Z</time>
      </trkpt>
      <trkpt lat="42.263327" lon="2.716009">
        <ele>774.786</ele>
        <time>2020-10-17T13:03:59Z</time>
      </trkpt>
      <trkpt lat="42.263397" lon="2.716146">
        <ele>774.472</ele>
        <time>2020-10-17T13:04:01Z</time>
      </trkpt>
      <trkpt lat="42.263440" lon="2.716208">
        <ele>774.013</ele>
        <time>2020-10-17T13:04:02Z</time>
      </trkpt>
      <trkpt lat="42.263532" lon="2.716319">
        <ele>773.514</ele>
        <time>2020-10-17T13:04:04Z</time>
      </trkpt>
      <trkpt lat="42.263532" lon="2.716319">
        <ele>773.508</ele>
        <time>2020-10-17T13:04:04Z</time>
      </trkpt>
      <trkpt lat="42.263579" lon="2.716368">
        <ele>773.372</ele>
        <time>2020-10-17T13:04:05Z</time>
      </trkpt>
      <trkpt lat="42.263668" lon="2.716447">
        <ele>772.955</ele>
        <time>2020-10-17T13:04:07Z</time>
      </trkpt>
      <trkpt lat="42.263760" lon="2.716499">
        <ele>772.664</ele>
        <time>2020-10-17T13:04:09Z</time>
      </trkpt>
      <trkpt lat="42.263811" lon="2.716512">
        <ele>772.543</ele>
        <time>2020-10-17T13:04:10Z</time>
      </trkpt>
      <trkpt lat="42.263913" lon="2.716495">
        <ele>772.612</ele>
        <time>2020-10-17T13:04:12Z</time>
      </trkpt>
      <trkpt lat="42.264000" lon="2.716452">
        <ele>772.820</ele>
        <time>2020-10-17T13:04:14Z</time>
      </trkpt>
      <trkpt lat="42.264049" lon="2.716417">
        <ele>772.790</ele>
        <time>2020-10-17T13:04:16Z</time>
      </trkpt>
      <trkpt lat="42.264112" lon="2.716377">
        <ele>772.545</ele>
        <time>2020-10-17T13:04:18Z</time>
      </trkpt>
      <trkpt lat="42.264209" lon="2.716340">
        <ele>772.192</ele>
        <time>2020-10-17T13:04:20Z</time>
      </trkpt>
      <trkpt lat="42.264265" lon="2.716333">
        <ele>771.573</ele>
        <time>2020-10-17T13:04:21Z</time>
      </trkpt>
      <trkpt lat="42.264265" lon="2.716333">
        <ele>771.520</ele>
        <time>2020-10-17T13:04:21Z</time>
      </trkpt>
      <trkpt lat="42.264375" lon="2.716344">
        <ele>771.308</ele>
        <time>2020-10-17T13:04:23Z</time>
      </trkpt>
      <trkpt lat="42.264462" lon="2.716364">
        <ele>770.944</ele>
        <time>2020-10-17T13:04:25Z</time>
      </trkpt>
      <trkpt lat="42.264462" lon="2.716364">
        <ele>770.937</ele>
        <time>2020-10-17T13:04:25Z</time>
      </trkpt>
      <trkpt lat="42.264510" lon="2.716394">
        <ele>770.876</ele>
        <time>2020-10-17T13:04:28Z</time>
      </trkpt>
      <trkpt lat="42.264535" lon="2.716455">
        <ele>770.715</ele>
        <time>2020-10-17T13:04:32Z</time>
      </trkpt>
      <trkpt lat="42.264585" lon="2.716506">
        <ele>770.564</ele>
        <time>2020-10-17T13:04:35Z</time>
      </trkpt>
      <trkpt lat="42.264628" lon="2.716553">
        <ele>770.312</ele>
        <time>2020-10-17T13:04:37Z</time>
      </trkpt>
      <trkpt lat="42.264666" lon="2.716608">
        <ele>770.062</ele>
        <time>2020-10-17T13:04:39Z</time>
      </trkpt>
      <trkpt lat="42.264713" lon="2.716685">
        <ele>769.847</ele>
        <time>2020-10-17T13:04:41Z</time>
      </trkpt>
      <trkpt lat="42.264770" lon="2.716784">
        <ele>770.153</ele>
        <time>2020-10-17T13:04:43Z</time>
      </trkpt>
      <trkpt lat="42.264770" lon="2.716784">
        <ele>770.104</ele>
        <time>2020-10-17T13:04:43Z</time>
      </trkpt>
      <trkpt lat="42.264816" lon="2.716867">
        <ele>770.414</ele>
        <time>2020-10-17T13:04:45Z</time>
      </trkpt>
      <trkpt lat="42.264856" lon="2.716955">
        <ele>771.108</ele>
        <time>2020-10-17T13:04:47Z</time>
      </trkpt>
      <trkpt lat="42.264887" lon="2.717036">
        <ele>771.910</ele>
        <time>2020-10-17T13:04:49Z</time>
      </trkpt>
      <trkpt lat="42.264894" lon="2.717098">
        <ele>773.263</ele>
        <time>2020-10-17T13:04:52Z</time>
      </trkpt>
      <trkpt lat="42.264894" lon="2.717098">
        <ele>773.252</ele>
        <time>2020-10-17T13:04:52Z</time>
      </trkpt>
      <trkpt lat="42.264893" lon="2.717237">
        <ele>774.211</ele>
        <time>2020-10-17T13:04:55Z</time>
      </trkpt>
      <trkpt lat="42.264886" lon="2.717311">
        <ele>775.290</ele>
        <time>2020-10-17T13:04:58Z</time>
      </trkpt>
      <trkpt lat="42.264919" lon="2.717407">
        <ele>775.858</ele>
        <time>2020-10-17T13:05:01Z</time>
      </trkpt>
      <trkpt lat="42.264949" lon="2.717456">
        <ele>776.248</ele>
        <time>2020-10-17T13:05:03Z</time>
      </trkpt>
      <trkpt lat="42.265015" lon="2.717464">
        <ele>776.653</ele>
        <time>2020-10-17T13:07:09Z</time>
      </trkpt>
      <trkpt lat="42.265015" lon="2.717464">
        <ele>776.694</ele>
        <time>2020-10-17T13:07:09Z</time>
      </trkpt>
      <trkpt lat="42.265097" lon="2.717484">
        <ele>776.757</ele>
        <time>2020-10-17T13:07:11Z</time>
      </trkpt>
      <trkpt lat="42.265167" lon="2.717482">
        <ele>776.822</ele>
        <time>2020-10-17T13:07:13Z</time>
      </trkpt>
      <trkpt lat="42.265167" lon="2.717482">
        <ele>776.808</ele>
        <time>2020-10-17T13:07:13Z</time>
      </trkpt>
      <trkpt lat="42.265243" lon="2.717483">
        <ele>776.994</ele>
        <time>2020-10-17T13:07:15Z</time>
      </trkpt>
      <trkpt lat="42.265288" lon="2.717486">
        <ele>777.037</ele>
        <time>2020-10-17T13:07:16Z</time>
      </trkpt>
      <trkpt lat="42.265384" lon="2.717500">
        <ele>776.976</ele>
        <time>2020-10-17T13:07:18Z</time>
      </trkpt>
      <trkpt lat="42.265384" lon="2.717500">
        <ele>776.965</ele>
        <time>2020-10-17T13:07:18Z</time>
      </trkpt>
      <trkpt lat="42.265434" lon="2.717517">
        <ele>776.844</ele>
        <time>2020-10-17T13:07:19Z</time>
      </trkpt>
      <trkpt lat="42.265493" lon="2.717560">
        <ele>776.842</ele>
        <time>2020-10-17T13:07:21Z</time>
      </trkpt>
      <trkpt lat="42.265559" lon="2.717608">
        <ele>776.942</ele>
        <time>2020-10-17T13:07:23Z</time>
      </trkpt>
      <trkpt lat="42.265559" lon="2.717608">
        <ele>776.947</ele>
        <time>2020-10-17T13:07:23Z</time>
      </trkpt>
      <trkpt lat="42.265559" lon="2.717608">
        <ele>776.963</ele>
        <time>2020-10-17T13:07:23Z</time>
      </trkpt>
      <trkpt lat="42.265559" lon="2.717608">
        <ele>776.944</ele>
        <time>2020-10-17T13:07:23Z</time>
      </trkpt>
      <trkpt lat="42.265559" lon="2.717608">
        <ele>776.918</ele>
        <time>2020-10-17T13:07:23Z</time>
      </trkpt>
      <trkpt lat="42.265624" lon="2.717645">
        <ele>776.908</ele>
        <time>2020-10-17T13:07:25Z</time>
      </trkpt>
      <trkpt lat="42.265624" lon="2.717645">
        <ele>776.971</ele>
        <time>2020-10-17T13:07:25Z</time>
      </trkpt>
      <trkpt lat="42.265672" lon="2.717675">
        <ele>776.834</ele>
        <time>2020-10-17T13:07:27Z</time>
      </trkpt>
      <trkpt lat="42.265672" lon="2.717675">
        <ele>776.863</ele>
        <time>2020-10-17T13:07:27Z</time>
      </trkpt>
      <trkpt lat="42.265728" lon="2.717709">
        <ele>776.772</ele>
        <time>2020-10-17T13:07:29Z</time>
      </trkpt>
      <trkpt lat="42.265781" lon="2.717761">
        <ele>776.671</ele>
        <time>2020-10-17T13:07:31Z</time>
      </trkpt>
      <trkpt lat="42.265827" lon="2.717811">
        <ele>776.449</ele>
        <time>2020-10-17T13:07:32Z</time>
      </trkpt>
      <trkpt lat="42.265827" lon="2.717811">
        <ele>776.439</ele>
        <time>2020-10-17T13:07:32Z</time>
      </trkpt>
      <trkpt lat="42.265895" lon="2.717887">
        <ele>776.434</ele>
        <time>2020-10-17T13:07:34Z</time>
      </trkpt>
      <trkpt lat="42.265936" lon="2.717930">
        <ele>776.545</ele>
        <time>2020-10-17T13:07:35Z</time>
      </trkpt>
      <trkpt lat="42.265936" lon="2.717930">
        <ele>776.547</ele>
        <time>2020-10-17T13:07:35Z</time>
      </trkpt>
      <trkpt lat="42.266013" lon="2.718007">
        <ele>776.711</ele>
        <time>2020-10-17T13:07:37Z</time>
      </trkpt>
      <trkpt lat="42.266013" lon="2.718007">
        <ele>776.708</ele>
        <time>2020-10-17T13:07:37Z</time>
      </trkpt>
      <trkpt lat="42.266052" lon="2.718038">
        <ele>776.829</ele>
        <time>2020-10-17T13:07:38Z</time>
      </trkpt>
      <trkpt lat="42.266052" lon="2.718038">
        <ele>776.862</ele>
        <time>2020-10-17T13:07:38Z</time>
      </trkpt>
      <trkpt lat="42.266119" lon="2.718082">
        <ele>776.821</ele>
        <time>2020-10-17T13:07:40Z</time>
      </trkpt>
      <trkpt lat="42.266170" lon="2.718119">
        <ele>776.820</ele>
        <time>2020-10-17T13:07:42Z</time>
      </trkpt>
      <trkpt lat="42.266170" lon="2.718119">
        <ele>776.839</ele>
        <time>2020-10-17T13:07:42Z</time>
      </trkpt>
      <trkpt lat="42.266203" lon="2.718200">
        <ele>776.957</ele>
        <time>2020-10-17T13:07:44Z</time>
      </trkpt>
      <trkpt lat="42.266203" lon="2.718200">
        <ele>776.977</ele>
        <time>2020-10-17T13:07:44Z</time>
      </trkpt>
      <trkpt lat="42.266218" lon="2.718270">
        <ele>776.952</ele>
        <time>2020-10-17T13:07:46Z</time>
      </trkpt>
      <trkpt lat="42.266248" lon="2.718351">
        <ele>776.817</ele>
        <time>2020-10-17T13:07:48Z</time>
      </trkpt>
      <trkpt lat="42.266279" lon="2.718432">
        <ele>776.787</ele>
        <time>2020-10-17T13:07:50Z</time>
      </trkpt>
      <trkpt lat="42.266302" lon="2.718489">
        <ele>776.415</ele>
        <time>2020-10-17T13:07:53Z</time>
      </trkpt>
      <trkpt lat="42.266330" lon="2.718539">
        <ele>776.308</ele>
        <time>2020-10-17T13:07:59Z</time>
      </trkpt>
      <trkpt lat="42.266342" lon="2.718599">
        <ele>776.566</ele>
        <time>2020-10-17T13:08:26Z</time>
      </trkpt>
      <trkpt lat="42.266325" lon="2.718685">
        <ele>776.949</ele>
        <time>2020-10-17T13:08:28Z</time>
      </trkpt>
      <trkpt lat="42.266325" lon="2.718685">
        <ele>776.978</ele>
        <time>2020-10-17T13:08:28Z</time>
      </trkpt>
      <trkpt lat="42.266305" lon="2.718777">
        <ele>777.257</ele>
        <time>2020-10-17T13:08:30Z</time>
      </trkpt>
      <trkpt lat="42.266291" lon="2.718888">
        <ele>777.666</ele>
        <time>2020-10-17T13:08:32Z</time>
      </trkpt>
      <trkpt lat="42.266281" lon="2.718956">
        <ele>777.974</ele>
        <time>2020-10-17T13:08:34Z</time>
      </trkpt>
      <trkpt lat="42.266270" lon="2.719018">
        <ele>778.254</ele>
        <time>2020-10-17T13:08:36Z</time>
      </trkpt>
      <trkpt lat="42.266262" lon="2.719083">
        <ele>778.619</ele>
        <time>2020-10-17T13:08:38Z</time>
      </trkpt>
      <trkpt lat="42.266257" lon="2.719155">
        <ele>779.018</ele>
        <time>2020-10-17T13:08:40Z</time>
      </trkpt>
      <trkpt lat="42.266252" lon="2.719226">
        <ele>779.498</ele>
        <time>2020-10-17T13:08:42Z</time>
      </trkpt>
      <trkpt lat="42.266252" lon="2.719291">
        <ele>779.617</ele>
        <time>2020-10-17T13:08:44Z</time>
      </trkpt>
      <trkpt lat="42.266274" lon="2.719362">
        <ele>777.408</ele>
        <time>2020-10-17T13:09:00Z</time>
      </trkpt>
      <trkpt lat="42.266300" lon="2.719442">
        <ele>775.596</ele>
        <time>2020-10-17T13:09:06Z</time>
      </trkpt>
      <trkpt lat="42.266326" lon="2.719501">
        <ele>774.339</ele>
        <time>2020-10-17T13:09:08Z</time>
      </trkpt>
      <trkpt lat="42.266361" lon="2.719551">
        <ele>773.818</ele>
        <time>2020-10-17T13:09:11Z</time>
      </trkpt>
      <trkpt lat="42.266405" lon="2.719601">
        <ele>773.647</ele>
        <time>2020-10-17T13:09:13Z</time>
      </trkpt>
      <trkpt lat="42.266459" lon="2.719676">
        <ele>773.426</ele>
        <time>2020-10-17T13:09:15Z</time>
      </trkpt>
      <trkpt lat="42.266522" lon="2.719768">
        <ele>773.214</ele>
        <time>2020-10-17T13:09:17Z</time>
      </trkpt>
      <trkpt lat="42.266604" lon="2.719890">
        <ele>773.064</ele>
        <time>2020-10-17T13:09:19Z</time>
      </trkpt>
      <trkpt lat="42.266641" lon="2.719962">
        <ele>772.749</ele>
        <time>2020-10-17T13:09:20Z</time>
      </trkpt>
      <trkpt lat="42.266641" lon="2.719962">
        <ele>772.728</ele>
        <time>2020-10-17T13:09:20Z</time>
      </trkpt>
      <trkpt lat="42.266686" lon="2.720102">
        <ele>772.689</ele>
        <time>2020-10-17T13:09:22Z</time>
      </trkpt>
      <trkpt lat="42.266696" lon="2.720187">
        <ele>772.617</ele>
        <time>2020-10-17T13:09:24Z</time>
      </trkpt>
      <trkpt lat="42.266689" lon="2.720261">
        <ele>773.308</ele>
        <time>2020-10-17T13:09:27Z</time>
      </trkpt>
      <trkpt lat="42.266689" lon="2.720261">
        <ele>773.397</ele>
        <time>2020-10-17T13:09:27Z</time>
      </trkpt>
      <trkpt lat="42.266684" lon="2.720331">
        <ele>773.980</ele>
        <time>2020-10-17T13:09:32Z</time>
      </trkpt>
      <trkpt lat="42.266685" lon="2.720394">
        <ele>774.869</ele>
        <time>2020-10-17T13:09:34Z</time>
      </trkpt>
      <trkpt lat="42.266685" lon="2.720394">
        <ele>774.868</ele>
        <time>2020-10-17T13:09:34Z</time>
      </trkpt>
      <trkpt lat="42.266695" lon="2.720460">
        <ele>774.757</ele>
        <time>2020-10-17T13:09:36Z</time>
      </trkpt>
      <trkpt lat="42.266709" lon="2.720521">
        <ele>774.555</ele>
        <time>2020-10-17T13:09:38Z</time>
      </trkpt>
      <trkpt lat="42.266716" lon="2.720581">
        <ele>774.595</ele>
        <time>2020-10-17T13:09:40Z</time>
      </trkpt>
      <trkpt lat="42.266726" lon="2.720646">
        <ele>774.530</ele>
        <time>2020-10-17T13:09:42Z</time>
      </trkpt>
      <trkpt lat="42.266738" lon="2.720718">
        <ele>774.553</ele>
        <time>2020-10-17T13:09:44Z</time>
      </trkpt>
      <trkpt lat="42.266755" lon="2.720793">
        <ele>774.704</ele>
        <time>2020-10-17T13:09:46Z</time>
      </trkpt>
      <trkpt lat="42.266770" lon="2.720864">
        <ele>775.214</ele>
        <time>2020-10-17T13:09:48Z</time>
      </trkpt>
      <trkpt lat="42.266785" lon="2.720932">
        <ele>775.908</ele>
        <time>2020-10-17T13:09:50Z</time>
      </trkpt>
      <trkpt lat="42.266795" lon="2.721008">
        <ele>776.630</ele>
        <time>2020-10-17T13:09:52Z</time>
      </trkpt>
      <trkpt lat="42.266798" lon="2.721081">
        <ele>777.453</ele>
        <time>2020-10-17T13:09:54Z</time>
      </trkpt>
      <trkpt lat="42.266803" lon="2.721173">
        <ele>778.112</ele>
        <time>2020-10-17T13:09:56Z</time>
      </trkpt>
      <trkpt lat="42.266806" lon="2.721298">
        <ele>778.761</ele>
        <time>2020-10-17T13:09:58Z</time>
      </trkpt>
      <trkpt lat="42.266807" lon="2.721383">
        <ele>779.020</ele>
        <time>2020-10-17T13:10:00Z</time>
      </trkpt>
      <trkpt lat="42.266826" lon="2.721464">
        <ele>779.278</ele>
        <time>2020-10-17T13:10:02Z</time>
      </trkpt>
      <trkpt lat="42.266874" lon="2.721533">
        <ele>779.458</ele>
        <time>2020-10-17T13:10:04Z</time>
      </trkpt>
      <trkpt lat="42.266933" lon="2.721587">
        <ele>780.013</ele>
        <time>2020-10-17T13:10:06Z</time>
      </trkpt>
      <trkpt lat="42.266992" lon="2.721645">
        <ele>780.863</ele>
        <time>2020-10-17T13:10:08Z</time>
      </trkpt>
      <trkpt lat="42.267069" lon="2.721700">
        <ele>781.844</ele>
        <time>2020-10-17T13:10:10Z</time>
      </trkpt>
      <trkpt lat="42.267069" lon="2.721700">
        <ele>781.818</ele>
        <time>2020-10-17T13:10:10Z</time>
      </trkpt>
      <trkpt lat="42.267147" lon="2.721769">
        <ele>781.808</ele>
        <time>2020-10-17T13:10:12Z</time>
      </trkpt>
      <trkpt lat="42.267196" lon="2.721851">
        <ele>781.721</ele>
        <time>2020-10-17T13:10:14Z</time>
      </trkpt>
      <trkpt lat="42.267248" lon="2.721934">
        <ele>781.754</ele>
        <time>2020-10-17T13:10:16Z</time>
      </trkpt>
      <trkpt lat="42.267309" lon="2.722016">
        <ele>781.743</ele>
        <time>2020-10-17T13:10:18Z</time>
      </trkpt>
      <trkpt lat="42.267344" lon="2.722068">
        <ele>781.752</ele>
        <time>2020-10-17T13:10:19Z</time>
      </trkpt>
      <trkpt lat="42.267385" lon="2.722122">
        <ele>781.651</ele>
        <time>2020-10-17T13:10:20Z</time>
      </trkpt>
      <trkpt lat="42.267385" lon="2.722122">
        <ele>781.689</ele>
        <time>2020-10-17T13:10:20Z</time>
      </trkpt>
      <trkpt lat="42.267482" lon="2.722223">
        <ele>781.869</ele>
        <time>2020-10-17T13:10:22Z</time>
      </trkpt>
      <trkpt lat="42.267571" lon="2.722293">
        <ele>782.284</ele>
        <time>2020-10-17T13:10:24Z</time>
      </trkpt>
      <trkpt lat="42.267571" lon="2.722293">
        <ele>782.297</ele>
        <time>2020-10-17T13:10:24Z</time>
      </trkpt>
      <trkpt lat="42.267617" lon="2.722345">
        <ele>782.623</ele>
        <time>2020-10-17T13:10:27Z</time>
      </trkpt>
      <trkpt lat="42.267617" lon="2.722345">
        <ele>782.625</ele>
        <time>2020-10-17T13:10:27Z</time>
      </trkpt>
      <trkpt lat="42.267630" lon="2.722435">
        <ele>782.808</ele>
        <time>2020-10-17T13:10:30Z</time>
      </trkpt>
      <trkpt lat="42.267634" lon="2.722509">
        <ele>782.834</ele>
        <time>2020-10-17T13:10:32Z</time>
      </trkpt>
      <trkpt lat="42.267634" lon="2.722509">
        <ele>782.867</ele>
        <time>2020-10-17T13:10:32Z</time>
      </trkpt>
      <trkpt lat="42.267635" lon="2.722576">
        <ele>782.796</ele>
        <time>2020-10-17T13:10:34Z</time>
      </trkpt>
      <trkpt lat="42.267633" lon="2.722640">
        <ele>782.355</ele>
        <time>2020-10-17T13:10:36Z</time>
      </trkpt>
      <trkpt lat="42.267633" lon="2.722640">
        <ele>782.334</ele>
        <time>2020-10-17T13:10:36Z</time>
      </trkpt>
      <trkpt lat="42.267635" lon="2.722713">
        <ele>781.852</ele>
        <time>2020-10-17T13:10:40Z</time>
      </trkpt>
      <trkpt lat="42.267635" lon="2.722713">
        <ele>781.862</ele>
        <time>2020-10-17T13:10:40Z</time>
      </trkpt>
      <trkpt lat="42.267629" lon="2.722775">
        <ele>781.327</ele>
        <time>2020-10-17T13:10:44Z</time>
      </trkpt>
      <trkpt lat="42.267629" lon="2.722775">
        <ele>781.356</ele>
        <time>2020-10-17T13:10:44Z</time>
      </trkpt>
      <trkpt lat="42.267616" lon="2.722859">
        <ele>781.059</ele>
        <time>2020-10-17T13:10:46Z</time>
      </trkpt>
      <trkpt lat="42.267612" lon="2.722943">
        <ele>780.814</ele>
        <time>2020-10-17T13:10:48Z</time>
      </trkpt>
      <trkpt lat="42.267609" lon="2.723009">
        <ele>780.508</ele>
        <time>2020-10-17T13:10:50Z</time>
      </trkpt>
      <trkpt lat="42.267593" lon="2.723081">
        <ele>780.370</ele>
        <time>2020-10-17T13:10:52Z</time>
      </trkpt>
      <trkpt lat="42.267580" lon="2.723172">
        <ele>780.283</ele>
        <time>2020-10-17T13:10:54Z</time>
      </trkpt>
      <trkpt lat="42.267580" lon="2.723172">
        <ele>780.262</ele>
        <time>2020-10-17T13:10:54Z</time>
      </trkpt>
      <trkpt lat="42.267561" lon="2.723279">
        <ele>780.271</ele>
        <time>2020-10-17T13:10:56Z</time>
      </trkpt>
      <trkpt lat="42.267543" lon="2.723385">
        <ele>780.360</ele>
        <time>2020-10-17T13:10:58Z</time>
      </trkpt>
      <trkpt lat="42.267543" lon="2.723385">
        <ele>780.378</ele>
        <time>2020-10-17T13:10:58Z</time>
      </trkpt>
      <trkpt lat="42.267530" lon="2.723496">
        <ele>780.748</ele>
        <time>2020-10-17T13:11:00Z</time>
      </trkpt>
      <trkpt lat="42.267530" lon="2.723496">
        <ele>780.783</ele>
        <time>2020-10-17T13:11:00Z</time>
      </trkpt>
      <trkpt lat="42.267530" lon="2.723603">
        <ele>780.851</ele>
        <time>2020-10-17T13:11:02Z</time>
      </trkpt>
      <trkpt lat="42.267537" lon="2.723701">
        <ele>780.601</ele>
        <time>2020-10-17T13:11:04Z</time>
      </trkpt>
      <trkpt lat="42.267537" lon="2.723701">
        <ele>780.611</ele>
        <time>2020-10-17T13:11:04Z</time>
      </trkpt>
      <trkpt lat="42.267548" lon="2.723772">
        <ele>780.108</ele>
        <time>2020-10-17T13:11:06Z</time>
      </trkpt>
      <trkpt lat="42.267548" lon="2.723772">
        <ele>780.190</ele>
        <time>2020-10-17T13:11:06Z</time>
      </trkpt>
      <trkpt lat="42.267572" lon="2.723845">
        <ele>779.693</ele>
        <time>2020-10-17T13:11:08Z</time>
      </trkpt>
      <trkpt lat="42.267572" lon="2.723845">
        <ele>779.652</ele>
        <time>2020-10-17T13:11:08Z</time>
      </trkpt>
      <trkpt lat="42.267593" lon="2.723922">
        <ele>778.991</ele>
        <time>2020-10-17T13:11:10Z</time>
      </trkpt>
      <trkpt lat="42.267593" lon="2.723922">
        <ele>778.940</ele>
        <time>2020-10-17T13:11:10Z</time>
      </trkpt>
      <trkpt lat="42.267616" lon="2.723988">
        <ele>778.358</ele>
        <time>2020-10-17T13:11:15Z</time>
      </trkpt>
      <trkpt lat="42.267633" lon="2.724048">
        <ele>777.468</ele>
        <time>2020-10-17T13:11:17Z</time>
      </trkpt>
      <trkpt lat="42.267633" lon="2.724048">
        <ele>777.413</ele>
        <time>2020-10-17T13:11:17Z</time>
      </trkpt>
      <trkpt lat="42.267663" lon="2.724109">
        <ele>776.442</ele>
        <time>2020-10-17T13:11:19Z</time>
      </trkpt>
      <trkpt lat="42.267663" lon="2.724109">
        <ele>776.422</ele>
        <time>2020-10-17T13:11:19Z</time>
      </trkpt>
      <trkpt lat="42.267728" lon="2.724151">
        <ele>775.314</ele>
        <time>2020-10-17T13:11:21Z</time>
      </trkpt>
      <trkpt lat="42.267728" lon="2.724151">
        <ele>775.308</ele>
        <time>2020-10-17T13:11:21Z</time>
      </trkpt>
      <trkpt lat="42.267811" lon="2.724169">
        <ele>774.499</ele>
        <time>2020-10-17T13:11:23Z</time>
      </trkpt>
      <trkpt lat="42.267811" lon="2.724169">
        <ele>774.482</ele>
        <time>2020-10-17T13:11:23Z</time>
      </trkpt>
      <trkpt lat="42.267880" lon="2.724173">
        <ele>774.061</ele>
        <time>2020-10-17T13:11:25Z</time>
      </trkpt>
      <trkpt lat="42.267938" lon="2.724175">
        <ele>773.660</ele>
        <time>2020-10-17T13:11:27Z</time>
      </trkpt>
      <trkpt lat="42.267989" lon="2.724159">
        <ele>773.399</ele>
        <time>2020-10-17T13:11:29Z</time>
      </trkpt>
      <trkpt lat="42.268016" lon="2.724094">
        <ele>772.727</ele>
        <time>2020-10-17T13:11:31Z</time>
      </trkpt>
      <trkpt lat="42.268016" lon="2.724094">
        <ele>772.767</ele>
        <time>2020-10-17T13:11:31Z</time>
      </trkpt>
      <trkpt lat="42.268011" lon="2.724013">
        <ele>772.522</ele>
        <time>2020-10-17T13:11:33Z</time>
      </trkpt>
      <trkpt lat="42.268001" lon="2.723952">
        <ele>771.853</ele>
        <time>2020-10-17T13:11:35Z</time>
      </trkpt>
      <trkpt lat="42.268001" lon="2.723952">
        <ele>771.804</ele>
        <time>2020-10-17T13:11:35Z</time>
      </trkpt>
      <trkpt lat="42.267978" lon="2.723899">
        <ele>770.914</ele>
        <time>2020-10-17T13:11:40Z</time>
      </trkpt>
      <trkpt lat="42.267978" lon="2.723899">
        <ele>770.908</ele>
        <time>2020-10-17T13:11:40Z</time>
      </trkpt>
      <trkpt lat="42.267989" lon="2.723809">
        <ele>770.290</ele>
        <time>2020-10-17T13:11:42Z</time>
      </trkpt>
      <trkpt lat="42.268004" lon="2.723751">
        <ele>769.643</ele>
        <time>2020-10-17T13:11:43Z</time>
      </trkpt>
      <trkpt lat="42.268045" lon="2.723625">
        <ele>768.532</ele>
        <time>2020-10-17T13:11:45Z</time>
      </trkpt>
      <trkpt lat="42.268045" lon="2.723625">
        <ele>768.561</ele>
        <time>2020-10-17T13:11:45Z</time>
      </trkpt>
      <trkpt lat="42.268072" lon="2.723529">
        <ele>768.010</ele>
        <time>2020-10-17T13:11:47Z</time>
      </trkpt>
      <trkpt lat="42.268112" lon="2.723433">
        <ele>766.978</ele>
        <time>2020-10-17T13:11:49Z</time>
      </trkpt>
      <trkpt lat="42.268112" lon="2.723433">
        <ele>766.958</ele>
        <time>2020-10-17T13:11:49Z</time>
      </trkpt>
      <trkpt lat="42.268160" lon="2.723351">
        <ele>766.053</ele>
        <time>2020-10-17T13:11:51Z</time>
      </trkpt>
      <trkpt lat="42.268211" lon="2.723265">
        <ele>764.996</ele>
        <time>2020-10-17T13:11:53Z</time>
      </trkpt>
      <trkpt lat="42.268260" lon="2.723198">
        <ele>764.031</ele>
        <time>2020-10-17T13:11:55Z</time>
      </trkpt>
      <trkpt lat="42.268299" lon="2.723155">
        <ele>763.124</ele>
        <time>2020-10-17T13:11:57Z</time>
      </trkpt>
      <trkpt lat="42.268347" lon="2.723119">
        <ele>762.408</ele>
        <time>2020-10-17T13:12:00Z</time>
      </trkpt>
      <trkpt lat="42.268405" lon="2.723067">
        <ele>761.814</ele>
        <time>2020-10-17T13:12:02Z</time>
      </trkpt>
      <trkpt lat="42.268457" lon="2.723017">
        <ele>761.267</ele>
        <time>2020-10-17T13:12:04Z</time>
      </trkpt>
      <trkpt lat="42.268498" lon="2.722988">
        <ele>760.826</ele>
        <time>2020-10-17T13:12:06Z</time>
      </trkpt>
      <trkpt lat="42.268547" lon="2.722961">
        <ele>760.315</ele>
        <time>2020-10-17T13:12:08Z</time>
      </trkpt>
      <trkpt lat="42.268602" lon="2.722899">
        <ele>759.544</ele>
        <time>2020-10-17T13:12:10Z</time>
      </trkpt>
      <trkpt lat="42.268602" lon="2.722899">
        <ele>759.532</ele>
        <time>2020-10-17T13:12:10Z</time>
      </trkpt>
      <trkpt lat="42.268677" lon="2.722840">
        <ele>759.132</ele>
        <time>2020-10-17T13:12:12Z</time>
      </trkpt>
      <trkpt lat="42.268747" lon="2.722808">
        <ele>758.767</ele>
        <time>2020-10-17T13:12:14Z</time>
      </trkpt>
      <trkpt lat="42.268802" lon="2.722781">
        <ele>758.163</ele>
        <time>2020-10-17T13:12:16Z</time>
      </trkpt>
      <trkpt lat="42.268802" lon="2.722781">
        <ele>758.144</ele>
        <time>2020-10-17T13:12:16Z</time>
      </trkpt>
      <trkpt lat="42.268853" lon="2.722748">
        <ele>755.818</ele>
        <time>2020-10-17T13:12:54Z</time>
      </trkpt>
      <trkpt lat="42.268912" lon="2.722729">
        <ele>754.308</ele>
        <time>2020-10-17T13:13:21Z</time>
      </trkpt>
      <trkpt lat="42.269045" lon="2.722669">
        <ele>749.461</ele>
        <time>2020-10-17T13:16:38Z</time>
      </trkpt>
      <trkpt lat="42.269103" lon="2.722676">
        <ele>752.544</ele>
        <time>2020-10-17T13:17:32Z</time>
      </trkpt>
      <trkpt lat="42.269059" lon="2.722658">
        <ele>753.823</ele>
        <time>2020-10-17T13:18:07Z</time>
      </trkpt>
      <trkpt lat="42.269059" lon="2.722658">
        <ele>753.892</ele>
        <time>2020-10-17T13:18:07Z</time>
      </trkpt>
      <trkpt lat="42.269019" lon="2.722708">
        <ele>754.391</ele>
        <time>2020-10-17T13:18:08Z</time>
      </trkpt>
      <trkpt lat="42.269019" lon="2.722708">
        <ele>754.369</ele>
        <time>2020-10-17T13:18:08Z</time>
      </trkpt>
      <trkpt lat="42.268986" lon="2.722664">
        <ele>754.789</ele>
        <time>2020-10-17T13:18:52Z</time>
      </trkpt>
      <trkpt lat="42.269018" lon="2.722611">
        <ele>753.954</ele>
        <time>2020-10-17T13:19:27Z</time>
      </trkpt>
      <trkpt lat="42.269079" lon="2.722610">
        <ele>753.542</ele>
        <time>2020-10-17T13:19:31Z</time>
      </trkpt>
      <trkpt lat="42.269042" lon="2.722653">
        <ele>754.022</ele>
        <time>2020-10-17T13:21:13Z</time>
      </trkpt>
      <trkpt lat="42.268986" lon="2.722676">
        <ele>754.014</ele>
        <time>2020-10-17T13:21:15Z</time>
      </trkpt>
      <trkpt lat="42.269032" lon="2.722668">
        <ele>753.908</ele>
        <time>2020-10-17T13:22:18Z</time>
      </trkpt>
      <trkpt lat="42.269090" lon="2.722621">
        <ele>753.969</ele>
        <time>2020-10-17T13:22:21Z</time>
      </trkpt>
      <trkpt lat="42.269145" lon="2.722558">
        <ele>753.752</ele>
        <time>2020-10-17T13:22:23Z</time>
      </trkpt>
      <trkpt lat="42.269145" lon="2.722558">
        <ele>753.721</ele>
        <time>2020-10-17T13:22:23Z</time>
      </trkpt>
      <trkpt lat="42.269185" lon="2.722520">
        <ele>753.650</ele>
        <time>2020-10-17T13:22:24Z</time>
      </trkpt>
      <trkpt lat="42.269243" lon="2.722483">
        <ele>753.439</ele>
        <time>2020-10-17T13:22:26Z</time>
      </trkpt>
      <trkpt lat="42.269306" lon="2.722474">
        <ele>753.487</ele>
        <time>2020-10-17T13:22:28Z</time>
      </trkpt>
      <trkpt lat="42.269382" lon="2.722485">
        <ele>753.317</ele>
        <time>2020-10-17T13:22:30Z</time>
      </trkpt>
      <trkpt lat="42.269455" lon="2.722505">
        <ele>753.572</ele>
        <time>2020-10-17T13:22:32Z</time>
      </trkpt>
      <trkpt lat="42.269534" lon="2.722520">
        <ele>754.079</ele>
        <time>2020-10-17T13:22:34Z</time>
      </trkpt>
      <trkpt lat="42.269534" lon="2.722520">
        <ele>754.005</ele>
        <time>2020-10-17T13:22:34Z</time>
      </trkpt>
      <trkpt lat="42.269615" lon="2.722534">
        <ele>753.925</ele>
        <time>2020-10-17T13:22:36Z</time>
      </trkpt>
      <trkpt lat="42.269698" lon="2.722543">
        <ele>753.608</ele>
        <time>2020-10-17T13:22:38Z</time>
      </trkpt>
      <trkpt lat="42.269698" lon="2.722543">
        <ele>753.632</ele>
        <time>2020-10-17T13:22:38Z</time>
      </trkpt>
      <trkpt lat="42.269781" lon="2.722549">
        <ele>753.255</ele>
        <time>2020-10-17T13:22:40Z</time>
      </trkpt>
      <trkpt lat="42.269898" lon="2.722530">
        <ele>752.484</ele>
        <time>2020-10-17T13:22:42Z</time>
      </trkpt>
      <trkpt lat="42.269978" lon="2.722481">
        <ele>751.693</ele>
        <time>2020-10-17T13:22:44Z</time>
      </trkpt>
      <trkpt lat="42.270052" lon="2.722387">
        <ele>750.082</ele>
        <time>2020-10-17T13:22:46Z</time>
      </trkpt>
      <trkpt lat="42.270052" lon="2.722387">
        <ele>750.090</ele>
        <time>2020-10-17T13:22:46Z</time>
      </trkpt>
      <trkpt lat="42.270143" lon="2.722261">
        <ele>748.960</ele>
        <time>2020-10-17T13:22:48Z</time>
      </trkpt>
      <trkpt lat="42.270143" lon="2.722261">
        <ele>748.945</ele>
        <time>2020-10-17T13:22:48Z</time>
      </trkpt>
      <trkpt lat="42.270175" lon="2.722211">
        <ele>748.564</ele>
        <time>2020-10-17T13:22:49Z</time>
      </trkpt>
      <trkpt lat="42.270209" lon="2.722160">
        <ele>748.106</ele>
        <time>2020-10-17T13:22:50Z</time>
      </trkpt>
      <trkpt lat="42.270275" lon="2.722075">
        <ele>747.116</ele>
        <time>2020-10-17T13:22:52Z</time>
      </trkpt>
      <trkpt lat="42.270275" lon="2.722075">
        <ele>747.108</ele>
        <time>2020-10-17T13:22:52Z</time>
      </trkpt>
      <trkpt lat="42.270335" lon="2.721992">
        <ele>746.521</ele>
        <time>2020-10-17T13:22:54Z</time>
      </trkpt>
      <trkpt lat="42.270389" lon="2.721894">
        <ele>745.874</ele>
        <time>2020-10-17T13:22:56Z</time>
      </trkpt>
      <trkpt lat="42.270425" lon="2.721815">
        <ele>745.163</ele>
        <time>2020-10-17T13:22:57Z</time>
      </trkpt>
      <trkpt lat="42.270425" lon="2.721815">
        <ele>745.172</ele>
        <time>2020-10-17T13:22:57Z</time>
      </trkpt>
      <trkpt lat="42.270476" lon="2.721728">
        <ele>744.751</ele>
        <time>2020-10-17T13:22:59Z</time>
      </trkpt>
      <trkpt lat="42.270526" lon="2.721663">
        <ele>744.079</ele>
        <time>2020-10-17T13:23:01Z</time>
      </trkpt>
      <trkpt lat="42.270583" lon="2.721611">
        <ele>743.369</ele>
        <time>2020-10-17T13:23:03Z</time>
      </trkpt>
      <trkpt lat="42.270638" lon="2.721602">
        <ele>742.454</ele>
        <time>2020-10-17T13:23:05Z</time>
      </trkpt>
      <trkpt lat="42.270695" lon="2.721603">
        <ele>741.758</ele>
        <time>2020-10-17T13:23:07Z</time>
      </trkpt>
      <trkpt lat="42.270755" lon="2.721608">
        <ele>740.952</ele>
        <time>2020-10-17T13:23:09Z</time>
      </trkpt>
      <trkpt lat="42.270801" lon="2.721597">
        <ele>740.117</ele>
        <time>2020-10-17T13:23:11Z</time>
      </trkpt>
      <trkpt lat="42.270843" lon="2.721574">
        <ele>739.008</ele>
        <time>2020-10-17T13:23:13Z</time>
      </trkpt>
      <trkpt lat="42.270909" lon="2.721544">
        <ele>737.810</ele>
        <time>2020-10-17T13:23:15Z</time>
      </trkpt>
      <trkpt lat="42.270957" lon="2.721521">
        <ele>736.653</ele>
        <time>2020-10-17T13:23:17Z</time>
      </trkpt>
      <trkpt lat="42.271003" lon="2.721499">
        <ele>735.252</ele>
        <time>2020-10-17T13:23:19Z</time>
      </trkpt>
      <trkpt lat="42.271060" lon="2.721475">
        <ele>733.671</ele>
        <time>2020-10-17T13:23:21Z</time>
      </trkpt>
      <trkpt lat="42.271104" lon="2.721461">
        <ele>732.170</ele>
        <time>2020-10-17T13:23:23Z</time>
      </trkpt>
      <trkpt lat="42.271146" lon="2.721436">
        <ele>730.528</ele>
        <time>2020-10-17T13:23:25Z</time>
      </trkpt>
      <trkpt lat="42.271194" lon="2.721398">
        <ele>728.968</ele>
        <time>2020-10-17T13:23:27Z</time>
      </trkpt>
      <trkpt lat="42.271245" lon="2.721357">
        <ele>727.343</ele>
        <time>2020-10-17T13:23:29Z</time>
      </trkpt>
      <trkpt lat="42.271317" lon="2.721311">
        <ele>725.838</ele>
        <time>2020-10-17T13:23:31Z</time>
      </trkpt>
      <trkpt lat="42.271415" lon="2.721247">
        <ele>724.570</ele>
        <time>2020-10-17T13:23:33Z</time>
      </trkpt>
      <trkpt lat="42.271478" lon="2.721210">
        <ele>723.417</ele>
        <time>2020-10-17T13:23:35Z</time>
      </trkpt>
      <trkpt lat="42.271543" lon="2.721167">
        <ele>722.308</ele>
        <time>2020-10-17T13:23:37Z</time>
      </trkpt>
      <trkpt lat="42.271587" lon="2.721132">
        <ele>721.038</ele>
        <time>2020-10-17T13:23:38Z</time>
      </trkpt>
      <trkpt lat="42.271587" lon="2.721132">
        <ele>721.041</ele>
        <time>2020-10-17T13:23:38Z</time>
      </trkpt>
      <trkpt lat="42.271658" lon="2.721080">
        <ele>720.350</ele>
        <time>2020-10-17T13:23:40Z</time>
      </trkpt>
      <trkpt lat="42.271701" lon="2.721054">
        <ele>719.899</ele>
        <time>2020-10-17T13:23:41Z</time>
      </trkpt>
      <trkpt lat="42.271788" lon="2.721013">
        <ele>719.498</ele>
        <time>2020-10-17T13:23:43Z</time>
      </trkpt>
      <trkpt lat="42.271850" lon="2.720995">
        <ele>719.236</ele>
        <time>2020-10-17T13:23:44Z</time>
      </trkpt>
      <trkpt lat="42.271921" lon="2.720973">
        <ele>719.086</ele>
        <time>2020-10-17T13:23:46Z</time>
      </trkpt>
      <trkpt lat="42.272004" lon="2.720941">
        <ele>719.191</ele>
        <time>2020-10-17T13:23:48Z</time>
      </trkpt>
      <trkpt lat="42.272105" lon="2.720896">
        <ele>719.329</ele>
        <time>2020-10-17T13:23:50Z</time>
      </trkpt>
      <trkpt lat="42.272172" lon="2.720860">
        <ele>719.700</ele>
        <time>2020-10-17T13:23:52Z</time>
      </trkpt>
      <trkpt lat="42.272232" lon="2.720825">
        <ele>720.020</ele>
        <time>2020-10-17T13:23:54Z</time>
      </trkpt>
      <trkpt lat="42.272293" lon="2.720797">
        <ele>719.808</ele>
        <time>2020-10-17T13:23:56Z</time>
      </trkpt>
      <trkpt lat="42.272338" lon="2.720782">
        <ele>719.127</ele>
        <time>2020-10-17T13:23:58Z</time>
      </trkpt>
      <trkpt lat="42.272391" lon="2.720779">
        <ele>718.070</ele>
        <time>2020-10-17T13:24:01Z</time>
      </trkpt>
      <trkpt lat="42.272436" lon="2.720770">
        <ele>716.299</ele>
        <time>2020-10-17T13:24:03Z</time>
      </trkpt>
      <trkpt lat="42.272436" lon="2.720770">
        <ele>716.238</ele>
        <time>2020-10-17T13:24:03Z</time>
      </trkpt>
      <trkpt lat="42.272492" lon="2.720769">
        <ele>715.367</ele>
        <time>2020-10-17T13:24:06Z</time>
      </trkpt>
      <trkpt lat="42.272555" lon="2.720787">
        <ele>714.245</ele>
        <time>2020-10-17T13:24:09Z</time>
      </trkpt>
      <trkpt lat="42.272605" lon="2.720812">
        <ele>712.585</ele>
        <time>2020-10-17T13:24:12Z</time>
      </trkpt>
      <trkpt lat="42.272669" lon="2.720831">
        <ele>711.090</ele>
        <time>2020-10-17T13:24:14Z</time>
      </trkpt>
      <trkpt lat="42.272740" lon="2.720846">
        <ele>709.456</ele>
        <time>2020-10-17T13:24:16Z</time>
      </trkpt>
      <trkpt lat="42.272808" lon="2.720857">
        <ele>707.759</ele>
        <time>2020-10-17T13:24:18Z</time>
      </trkpt>
      <trkpt lat="42.272873" lon="2.720861">
        <ele>706.214</ele>
        <time>2020-10-17T13:24:20Z</time>
      </trkpt>
      <trkpt lat="42.272937" lon="2.720837">
        <ele>704.808</ele>
        <time>2020-10-17T13:24:22Z</time>
      </trkpt>
      <trkpt lat="42.273004" lon="2.720805">
        <ele>703.590</ele>
        <time>2020-10-17T13:24:24Z</time>
      </trkpt>
      <trkpt lat="42.273067" lon="2.720749">
        <ele>702.183</ele>
        <time>2020-10-17T13:24:26Z</time>
      </trkpt>
      <trkpt lat="42.273132" lon="2.720687">
        <ele>700.512</ele>
        <time>2020-10-17T13:24:28Z</time>
      </trkpt>
      <trkpt lat="42.273195" lon="2.720603">
        <ele>699.071</ele>
        <time>2020-10-17T13:24:30Z</time>
      </trkpt>
      <trkpt lat="42.273246" lon="2.720515">
        <ele>696.750</ele>
        <time>2020-10-17T13:24:32Z</time>
      </trkpt>
      <trkpt lat="42.273246" lon="2.720515">
        <ele>696.748</ele>
        <time>2020-10-17T13:24:32Z</time>
      </trkpt>
      <trkpt lat="42.273276" lon="2.720416">
        <ele>695.778</ele>
        <time>2020-10-17T13:24:34Z</time>
      </trkpt>
      <trkpt lat="42.273304" lon="2.720322">
        <ele>694.673</ele>
        <time>2020-10-17T13:24:36Z</time>
      </trkpt>
      <trkpt lat="42.273369" lon="2.720344">
        <ele>693.799</ele>
        <time>2020-10-17T13:24:39Z</time>
      </trkpt>
      <trkpt lat="42.273405" lon="2.720432">
        <ele>692.807</ele>
        <time>2020-10-17T13:24:41Z</time>
      </trkpt>
      <trkpt lat="42.273426" lon="2.720524">
        <ele>691.827</ele>
        <time>2020-10-17T13:24:43Z</time>
      </trkpt>
      <trkpt lat="42.273442" lon="2.720613">
        <ele>690.608</ele>
        <time>2020-10-17T13:24:45Z</time>
      </trkpt>
      <trkpt lat="42.273445" lon="2.720696">
        <ele>689.384</ele>
        <time>2020-10-17T13:24:47Z</time>
      </trkpt>
      <trkpt lat="42.273453" lon="2.720791">
        <ele>687.937</ele>
        <time>2020-10-17T13:24:49Z</time>
      </trkpt>
      <trkpt lat="42.273463" lon="2.720861">
        <ele>686.376</ele>
        <time>2020-10-17T13:24:50Z</time>
      </trkpt>
      <trkpt lat="42.273463" lon="2.720861">
        <ele>686.385</ele>
        <time>2020-10-17T13:24:50Z</time>
      </trkpt>
      <trkpt lat="42.273463" lon="2.720956">
        <ele>685.774</ele>
        <time>2020-10-17T13:24:52Z</time>
      </trkpt>
      <trkpt lat="42.273452" lon="2.721045">
        <ele>685.072</ele>
        <time>2020-10-17T13:24:54Z</time>
      </trkpt>
      <trkpt lat="42.273454" lon="2.721148">
        <ele>684.142</ele>
        <time>2020-10-17T13:24:56Z</time>
      </trkpt>
      <trkpt lat="42.273464" lon="2.721267">
        <ele>683.037</ele>
        <time>2020-10-17T13:24:58Z</time>
      </trkpt>
      <trkpt lat="42.273516" lon="2.721318">
        <ele>682.061</ele>
        <time>2020-10-17T13:25:00Z</time>
      </trkpt>
      <trkpt lat="42.273593" lon="2.721329">
        <ele>680.721</ele>
        <time>2020-10-17T13:25:02Z</time>
      </trkpt>
      <trkpt lat="42.273593" lon="2.721329">
        <ele>680.713</ele>
        <time>2020-10-17T13:25:02Z</time>
      </trkpt>
      <trkpt lat="42.273665" lon="2.721341">
        <ele>680.208</ele>
        <time>2020-10-17T13:25:04Z</time>
      </trkpt>
      <trkpt lat="42.273747" lon="2.721355">
        <ele>679.451</ele>
        <time>2020-10-17T13:25:06Z</time>
      </trkpt>
      <trkpt lat="42.273808" lon="2.721361">
        <ele>678.524</ele>
        <time>2020-10-17T13:25:08Z</time>
      </trkpt>
      <trkpt lat="42.273880" lon="2.721384">
        <ele>677.513</ele>
        <time>2020-10-17T13:25:10Z</time>
      </trkpt>
      <trkpt lat="42.273929" lon="2.721402">
        <ele>676.442</ele>
        <time>2020-10-17T13:25:11Z</time>
      </trkpt>
      <trkpt lat="42.274033" lon="2.721449">
        <ele>675.071</ele>
        <time>2020-10-17T13:25:13Z</time>
      </trkpt>
      <trkpt lat="42.274132" lon="2.721501">
        <ele>673.619</ele>
        <time>2020-10-17T13:25:15Z</time>
      </trkpt>
      <trkpt lat="42.274224" lon="2.721541">
        <ele>671.349</ele>
        <time>2020-10-17T13:25:17Z</time>
      </trkpt>
      <trkpt lat="42.274224" lon="2.721541">
        <ele>671.314</ele>
        <time>2020-10-17T13:25:17Z</time>
      </trkpt>
      <trkpt lat="42.274282" lon="2.721566">
        <ele>670.254</ele>
        <time>2020-10-17T13:25:19Z</time>
      </trkpt>
      <trkpt lat="42.274360" lon="2.721621">
        <ele>668.456</ele>
        <time>2020-10-17T13:25:21Z</time>
      </trkpt>
      <trkpt lat="42.274360" lon="2.721621">
        <ele>668.411</ele>
        <time>2020-10-17T13:25:21Z</time>
      </trkpt>
      <trkpt lat="42.274459" lon="2.721711">
        <ele>667.808</ele>
        <time>2020-10-17T13:25:23Z</time>
      </trkpt>
      <trkpt lat="42.274565" lon="2.721782">
        <ele>666.510</ele>
        <time>2020-10-17T13:25:25Z</time>
      </trkpt>
      <trkpt lat="42.274565" lon="2.721782">
        <ele>666.553</ele>
        <time>2020-10-17T13:25:25Z</time>
      </trkpt>
      <trkpt lat="42.274645" lon="2.721821">
        <ele>665.892</ele>
        <time>2020-10-17T13:25:27Z</time>
      </trkpt>
      <trkpt lat="42.274692" lon="2.721853">
        <ele>663.941</ele>
        <time>2020-10-17T13:25:30Z</time>
      </trkpt>
      <trkpt lat="42.274692" lon="2.721853">
        <ele>663.930</ele>
        <time>2020-10-17T13:25:30Z</time>
      </trkpt>
      <trkpt lat="42.274746" lon="2.721920">
        <ele>662.348</ele>
        <time>2020-10-17T13:25:33Z</time>
      </trkpt>
      <trkpt lat="42.274746" lon="2.721920">
        <ele>662.368</ele>
        <time>2020-10-17T13:25:33Z</time>
      </trkpt>
      <trkpt lat="42.274792" lon="2.721976">
        <ele>661.723</ele>
        <time>2020-10-17T13:25:35Z</time>
      </trkpt>
      <trkpt lat="42.274850" lon="2.722029">
        <ele>661.058</ele>
        <time>2020-10-17T13:25:37Z</time>
      </trkpt>
      <trkpt lat="42.274850" lon="2.722029">
        <ele>661.052</ele>
        <time>2020-10-17T13:25:37Z</time>
      </trkpt>
      <trkpt lat="42.274915" lon="2.722076">
        <ele>660.817</ele>
        <time>2020-10-17T13:25:39Z</time>
      </trkpt>
      <trkpt lat="42.274966" lon="2.722113">
        <ele>660.708</ele>
        <time>2020-10-17T13:25:41Z</time>
      </trkpt>
      <trkpt lat="42.275016" lon="2.722137">
        <ele>660.430</ele>
        <time>2020-10-17T13:25:43Z</time>
      </trkpt>
      <trkpt lat="42.275074" lon="2.722157">
        <ele>660.113</ele>
        <time>2020-10-17T13:25:45Z</time>
      </trkpt>
      <trkpt lat="42.275129" lon="2.722170">
        <ele>659.652</ele>
        <time>2020-10-17T13:25:47Z</time>
      </trkpt>
      <trkpt lat="42.275129" lon="2.722170">
        <ele>659.641</ele>
        <time>2020-10-17T13:25:47Z</time>
      </trkpt>
      <trkpt lat="42.275200" lon="2.722186">
        <ele>659.480</ele>
        <time>2020-10-17T13:25:49Z</time>
      </trkpt>
      <trkpt lat="42.275262" lon="2.722199">
        <ele>658.898</ele>
        <time>2020-10-17T13:25:51Z</time>
      </trkpt>
      <trkpt lat="42.275262" lon="2.722199">
        <ele>658.878</ele>
        <time>2020-10-17T13:25:51Z</time>
      </trkpt>
      <trkpt lat="42.275327" lon="2.722237">
        <ele>658.433</ele>
        <time>2020-10-17T13:25:53Z</time>
      </trkpt>
      <trkpt lat="42.275404" lon="2.722289">
        <ele>657.555</ele>
        <time>2020-10-17T13:25:55Z</time>
      </trkpt>
      <trkpt lat="42.275404" lon="2.722289">
        <ele>657.507</ele>
        <time>2020-10-17T13:25:55Z</time>
      </trkpt>
      <trkpt lat="42.275473" lon="2.722325">
        <ele>657.017</ele>
        <time>2020-10-17T13:25:57Z</time>
      </trkpt>
      <trkpt lat="42.275535" lon="2.722347">
        <ele>656.208</ele>
        <time>2020-10-17T13:25:59Z</time>
      </trkpt>
      <trkpt lat="42.275535" lon="2.722347">
        <ele>656.250</ele>
        <time>2020-10-17T13:25:59Z</time>
      </trkpt>
      <trkpt lat="42.275602" lon="2.722375">
        <ele>655.973</ele>
        <time>2020-10-17T13:26:01Z</time>
      </trkpt>
      <trkpt lat="42.275658" lon="2.722420">
        <ele>655.132</ele>
        <time>2020-10-17T13:26:03Z</time>
      </trkpt>
      <trkpt lat="42.275658" lon="2.722420">
        <ele>655.191</ele>
        <time>2020-10-17T13:26:03Z</time>
      </trkpt>
      <trkpt lat="42.275706" lon="2.722435">
        <ele>654.530</ele>
        <time>2020-10-17T13:26:06Z</time>
      </trkpt>
      <trkpt lat="42.275728" lon="2.722359">
        <ele>652.568</ele>
        <time>2020-10-17T13:26:10Z</time>
      </trkpt>
      <trkpt lat="42.275728" lon="2.722359">
        <ele>652.588</ele>
        <time>2020-10-17T13:26:10Z</time>
      </trkpt>
      <trkpt lat="42.275730" lon="2.722281">
        <ele>651.153</ele>
        <time>2020-10-17T13:26:12Z</time>
      </trkpt>
      <trkpt lat="42.275730" lon="2.722281">
        <ele>651.133</ele>
        <time>2020-10-17T13:26:12Z</time>
      </trkpt>
      <trkpt lat="42.275736" lon="2.722194">
        <ele>650.523</ele>
        <time>2020-10-17T13:26:14Z</time>
      </trkpt>
      <trkpt lat="42.275739" lon="2.722111">
        <ele>649.815</ele>
        <time>2020-10-17T13:26:16Z</time>
      </trkpt>
      <trkpt lat="42.275741" lon="2.722034">
        <ele>649.008</ele>
        <time>2020-10-17T13:26:18Z</time>
      </trkpt>
      <trkpt lat="42.275745" lon="2.721943">
        <ele>648.168</ele>
        <time>2020-10-17T13:26:20Z</time>
      </trkpt>
      <trkpt lat="42.275753" lon="2.721838">
        <ele>646.681</ele>
        <time>2020-10-17T13:26:22Z</time>
      </trkpt>
      <trkpt lat="42.275753" lon="2.721838">
        <ele>646.650</ele>
        <time>2020-10-17T13:26:22Z</time>
      </trkpt>
      <trkpt lat="42.275761" lon="2.721730">
        <ele>646.059</ele>
        <time>2020-10-17T13:26:24Z</time>
      </trkpt>
      <trkpt lat="42.275760" lon="2.721665">
        <ele>645.218</ele>
        <time>2020-10-17T13:26:25Z</time>
      </trkpt>
      <trkpt lat="42.275760" lon="2.721665">
        <ele>645.216</ele>
        <time>2020-10-17T13:26:25Z</time>
      </trkpt>
      <trkpt lat="42.275748" lon="2.721546">
        <ele>644.756</ele>
        <time>2020-10-17T13:26:27Z</time>
      </trkpt>
      <trkpt lat="42.275729" lon="2.721460">
        <ele>644.131</ele>
        <time>2020-10-17T13:26:29Z</time>
      </trkpt>
      <trkpt lat="42.275720" lon="2.721398">
        <ele>643.235</ele>
        <time>2020-10-17T13:26:31Z</time>
      </trkpt>
      <trkpt lat="42.275720" lon="2.721398">
        <ele>643.286</ele>
        <time>2020-10-17T13:26:31Z</time>
      </trkpt>
      <trkpt lat="42.275762" lon="2.721352">
        <ele>642.814</ele>
        <time>2020-10-17T13:26:33Z</time>
      </trkpt>
      <trkpt lat="42.275819" lon="2.721384">
        <ele>642.308</ele>
        <time>2020-10-17T13:26:35Z</time>
      </trkpt>
      <trkpt lat="42.275842" lon="2.721443">
        <ele>641.938</ele>
        <time>2020-10-17T13:26:36Z</time>
      </trkpt>
      <trkpt lat="42.275848" lon="2.721508">
        <ele>641.441</ele>
        <time>2020-10-17T13:26:38Z</time>
      </trkpt>
      <trkpt lat="42.275858" lon="2.721598">
        <ele>640.690</ele>
        <time>2020-10-17T13:26:40Z</time>
      </trkpt>
      <trkpt lat="42.275872" lon="2.721658">
        <ele>639.669</ele>
        <time>2020-10-17T13:26:41Z</time>
      </trkpt>
      <trkpt lat="42.275872" lon="2.721658">
        <ele>639.678</ele>
        <time>2020-10-17T13:26:41Z</time>
      </trkpt>
      <trkpt lat="42.275898" lon="2.721806">
        <ele>639.126</ele>
        <time>2020-10-17T13:26:43Z</time>
      </trkpt>
      <trkpt lat="42.275911" lon="2.721892">
        <ele>638.686</ele>
        <time>2020-10-17T13:26:44Z</time>
      </trkpt>
      <trkpt lat="42.275930" lon="2.722085">
        <ele>638.081</ele>
        <time>2020-10-17T13:26:46Z</time>
      </trkpt>
      <trkpt lat="42.275930" lon="2.722085">
        <ele>638.042</ele>
        <time>2020-10-17T13:26:46Z</time>
      </trkpt>
      <trkpt lat="42.275946" lon="2.722252">
        <ele>637.622</ele>
        <time>2020-10-17T13:26:48Z</time>
      </trkpt>
      <trkpt lat="42.275977" lon="2.722363">
        <ele>636.914</ele>
        <time>2020-10-17T13:26:50Z</time>
      </trkpt>
      <trkpt lat="42.275977" lon="2.722363">
        <ele>636.908</ele>
        <time>2020-10-17T13:26:50Z</time>
      </trkpt>
      <trkpt lat="42.276012" lon="2.722451">
        <ele>636.679</ele>
        <time>2020-10-17T13:26:52Z</time>
      </trkpt>
      <trkpt lat="42.276040" lon="2.722553">
        <ele>636.652</ele>
        <time>2020-10-17T13:26:54Z</time>
      </trkpt>
      <trkpt lat="42.276055" lon="2.722637">
        <ele>636.681</ele>
        <time>2020-10-17T13:26:55Z</time>
      </trkpt>
      <trkpt lat="42.276055" lon="2.722637">
        <ele>636.680</ele>
        <time>2020-10-17T13:26:55Z</time>
      </trkpt>
      <trkpt lat="42.276057" lon="2.722722">
        <ele>636.989</ele>
        <time>2020-10-17T13:26:57Z</time>
      </trkpt>
      <trkpt lat="42.276059" lon="2.722822">
        <ele>637.427</ele>
        <time>2020-10-17T13:26:59Z</time>
      </trkpt>
      <trkpt lat="42.276064" lon="2.722946">
        <ele>637.927</ele>
        <time>2020-10-17T13:27:01Z</time>
      </trkpt>
      <trkpt lat="42.276069" lon="2.723011">
        <ele>638.292</ele>
        <time>2020-10-17T13:27:03Z</time>
      </trkpt>
      <trkpt lat="42.276101" lon="2.723065">
        <ele>638.873</ele>
        <time>2020-10-17T13:27:05Z</time>
      </trkpt>
      <trkpt lat="42.276101" lon="2.723065">
        <ele>638.885</ele>
        <time>2020-10-17T13:27:05Z</time>
      </trkpt>
      <trkpt lat="42.276163" lon="2.723072">
        <ele>639.013</ele>
        <time>2020-10-17T13:27:07Z</time>
      </trkpt>
      <trkpt lat="42.276231" lon="2.723023">
        <ele>639.008</ele>
        <time>2020-10-17T13:27:09Z</time>
      </trkpt>
      <trkpt lat="42.276292" lon="2.722963">
        <ele>638.842</ele>
        <time>2020-10-17T13:27:11Z</time>
      </trkpt>
      <trkpt lat="42.276354" lon="2.722921">
        <ele>638.235</ele>
        <time>2020-10-17T13:27:13Z</time>
      </trkpt>
      <trkpt lat="42.276416" lon="2.722876">
        <ele>637.294</ele>
        <time>2020-10-17T13:27:15Z</time>
      </trkpt>
      <trkpt lat="42.276474" lon="2.722821">
        <ele>635.833</ele>
        <time>2020-10-17T13:27:17Z</time>
      </trkpt>
      <trkpt lat="42.276526" lon="2.722774">
        <ele>634.232</ele>
        <time>2020-10-17T13:27:19Z</time>
      </trkpt>
      <trkpt lat="42.276557" lon="2.722723">
        <ele>632.750</ele>
        <time>2020-10-17T13:27:21Z</time>
      </trkpt>
      <trkpt lat="42.276563" lon="2.722643">
        <ele>631.590</ele>
        <time>2020-10-17T13:27:23Z</time>
      </trkpt>
      <trkpt lat="42.276551" lon="2.722551">
        <ele>630.575</ele>
        <time>2020-10-17T13:27:25Z</time>
      </trkpt>
      <trkpt lat="42.276537" lon="2.722479">
        <ele>629.818</ele>
        <time>2020-10-17T13:27:27Z</time>
      </trkpt>
      <trkpt lat="42.276567" lon="2.722407">
        <ele>629.098</ele>
        <time>2020-10-17T13:27:30Z</time>
      </trkpt>
      <trkpt lat="42.276630" lon="2.722446">
        <ele>628.417</ele>
        <time>2020-10-17T13:27:32Z</time>
      </trkpt>
      <trkpt lat="42.276670" lon="2.722518">
        <ele>627.508</ele>
        <time>2020-10-17T13:27:34Z</time>
      </trkpt>
      <trkpt lat="42.276670" lon="2.722518">
        <ele>627.556</ele>
        <time>2020-10-17T13:27:34Z</time>
      </trkpt>
      <trkpt lat="42.276702" lon="2.722591">
        <ele>627.129</ele>
        <time>2020-10-17T13:27:36Z</time>
      </trkpt>
      <trkpt lat="42.276721" lon="2.722697">
        <ele>626.748</ele>
        <time>2020-10-17T13:27:38Z</time>
      </trkpt>
      <trkpt lat="42.276726" lon="2.722805">
        <ele>626.227</ele>
        <time>2020-10-17T13:27:40Z</time>
      </trkpt>
      <trkpt lat="42.276729" lon="2.722894">
        <ele>625.766</ele>
        <time>2020-10-17T13:27:42Z</time>
      </trkpt>
      <trkpt lat="42.276726" lon="2.722977">
        <ele>625.424</ele>
        <time>2020-10-17T13:27:44Z</time>
      </trkpt>
      <trkpt lat="42.276710" lon="2.723037">
        <ele>624.864</ele>
        <time>2020-10-17T13:27:46Z</time>
      </trkpt>
      <trkpt lat="42.276679" lon="2.723082">
        <ele>624.159</ele>
        <time>2020-10-17T13:27:48Z</time>
      </trkpt>
      <trkpt lat="42.276645" lon="2.723134">
        <ele>623.456</ele>
        <time>2020-10-17T13:27:50Z</time>
      </trkpt>
      <trkpt lat="42.276630" lon="2.723203">
        <ele>622.559</ele>
        <time>2020-10-17T13:27:52Z</time>
      </trkpt>
      <trkpt lat="42.276654" lon="2.723265">
        <ele>621.814</ele>
        <time>2020-10-17T13:27:54Z</time>
      </trkpt>
      <trkpt lat="42.276717" lon="2.723283">
        <ele>621.508</ele>
        <time>2020-10-17T13:27:56Z</time>
      </trkpt>
      <trkpt lat="42.276780" lon="2.723279">
        <ele>621.530</ele>
        <time>2020-10-17T13:27:58Z</time>
      </trkpt>
      <trkpt lat="42.276864" lon="2.723294">
        <ele>621.573</ele>
        <time>2020-10-17T13:28:00Z</time>
      </trkpt>
      <trkpt lat="42.276968" lon="2.723356">
        <ele>621.642</ele>
        <time>2020-10-17T13:28:02Z</time>
      </trkpt>
      <trkpt lat="42.276968" lon="2.723356">
        <ele>621.631</ele>
        <time>2020-10-17T13:28:02Z</time>
      </trkpt>
      <trkpt lat="42.277030" lon="2.723420">
        <ele>621.440</ele>
        <time>2020-10-17T13:28:04Z</time>
      </trkpt>
      <trkpt lat="42.277098" lon="2.723480">
        <ele>621.018</ele>
        <time>2020-10-17T13:28:06Z</time>
      </trkpt>
      <trkpt lat="42.277170" lon="2.723497">
        <ele>620.538</ele>
        <time>2020-10-17T13:28:08Z</time>
      </trkpt>
      <trkpt lat="42.277243" lon="2.723492">
        <ele>619.833</ele>
        <time>2020-10-17T13:28:10Z</time>
      </trkpt>
      <trkpt lat="42.277302" lon="2.723479">
        <ele>618.972</ele>
        <time>2020-10-17T13:28:12Z</time>
      </trkpt>
      <trkpt lat="42.277379" lon="2.723428">
        <ele>617.813</ele>
        <time>2020-10-17T13:28:14Z</time>
      </trkpt>
      <trkpt lat="42.277477" lon="2.723359">
        <ele>616.214</ele>
        <time>2020-10-17T13:28:16Z</time>
      </trkpt>
      <trkpt lat="42.277531" lon="2.723323">
        <ele>614.808</ele>
        <time>2020-10-17T13:28:17Z</time>
      </trkpt>
      <trkpt lat="42.277654" lon="2.723226">
        <ele>610.772</ele>
        <time>2020-10-17T13:28:20Z</time>
      </trkpt>
      <trkpt lat="42.277654" lon="2.723226">
        <ele>610.765</ele>
        <time>2020-10-17T13:28:20Z</time>
      </trkpt>
      <trkpt lat="42.277654" lon="2.723226">
        <ele>610.764</ele>
        <time>2020-10-17T13:28:20Z</time>
      </trkpt>
      <trkpt lat="42.277654" lon="2.723226">
        <ele>610.743</ele>
        <time>2020-10-17T13:28:20Z</time>
      </trkpt>
      <trkpt lat="42.277654" lon="2.723226">
        <ele>610.732</ele>
        <time>2020-10-17T13:28:20Z</time>
      </trkpt>
      <trkpt lat="42.277692" lon="2.723187">
        <ele>609.860</ele>
        <time>2020-10-17T13:28:21Z</time>
      </trkpt>
      <trkpt lat="42.277692" lon="2.723187">
        <ele>609.860</ele>
        <time>2020-10-17T13:28:21Z</time>
      </trkpt>
      <trkpt lat="42.277771" lon="2.723095">
        <ele>609.045</ele>
        <time>2020-10-17T13:28:23Z</time>
      </trkpt>
      <trkpt lat="42.277855" lon="2.722999">
        <ele>607.298</ele>
        <time>2020-10-17T13:28:25Z</time>
      </trkpt>
      <trkpt lat="42.277855" lon="2.722999">
        <ele>607.215</ele>
        <time>2020-10-17T13:28:25Z</time>
      </trkpt>
      <trkpt lat="42.277911" lon="2.722944">
        <ele>606.226</ele>
        <time>2020-10-17T13:28:27Z</time>
      </trkpt>
      <trkpt lat="42.277961" lon="2.722892">
        <ele>604.808</ele>
        <time>2020-10-17T13:28:29Z</time>
      </trkpt>
      <trkpt lat="42.278026" lon="2.722830">
        <ele>603.544</ele>
        <time>2020-10-17T13:28:31Z</time>
      </trkpt>
      <trkpt lat="42.278067" lon="2.722800">
        <ele>602.517</ele>
        <time>2020-10-17T13:28:32Z</time>
      </trkpt>
      <trkpt lat="42.278143" lon="2.722763">
        <ele>600.576</ele>
        <time>2020-10-17T13:28:34Z</time>
      </trkpt>
      <trkpt lat="42.278143" lon="2.722763">
        <ele>600.575</ele>
        <time>2020-10-17T13:28:34Z</time>
      </trkpt>
      <trkpt lat="42.278223" lon="2.722720">
        <ele>599.614</ele>
        <time>2020-10-17T13:28:36Z</time>
      </trkpt>
      <trkpt lat="42.278322" lon="2.722646">
        <ele>598.092</ele>
        <time>2020-10-17T13:28:38Z</time>
      </trkpt>
      <trkpt lat="42.278322" lon="2.722646">
        <ele>598.022</ele>
        <time>2020-10-17T13:28:38Z</time>
      </trkpt>
      <trkpt lat="42.278412" lon="2.722553">
        <ele>596.947</ele>
        <time>2020-10-17T13:28:40Z</time>
      </trkpt>
      <trkpt lat="42.278449" lon="2.722498">
        <ele>595.934</ele>
        <time>2020-10-17T13:28:41Z</time>
      </trkpt>
      <trkpt lat="42.278477" lon="2.722432">
        <ele>594.455</ele>
        <time>2020-10-17T13:28:42Z</time>
      </trkpt>
      <trkpt lat="42.278477" lon="2.722432">
        <ele>594.410</ele>
        <time>2020-10-17T13:28:42Z</time>
      </trkpt>
      <trkpt lat="42.278521" lon="2.722280">
        <ele>593.408</ele>
        <time>2020-10-17T13:28:44Z</time>
      </trkpt>
      <trkpt lat="42.278543" lon="2.722216">
        <ele>592.168</ele>
        <time>2020-10-17T13:28:45Z</time>
      </trkpt>
      <trkpt lat="42.278543" lon="2.722216">
        <ele>592.141</ele>
        <time>2020-10-17T13:28:45Z</time>
      </trkpt>
      <trkpt lat="42.278570" lon="2.722148">
        <ele>591.130</ele>
        <time>2020-10-17T13:28:48Z</time>
      </trkpt>
      <trkpt lat="42.278597" lon="2.722095">
        <ele>589.959</ele>
        <time>2020-10-17T13:28:50Z</time>
      </trkpt>
      <trkpt lat="42.278640" lon="2.722006">
        <ele>588.638</ele>
        <time>2020-10-17T13:28:52Z</time>
      </trkpt>
      <trkpt lat="42.278661" lon="2.721933">
        <ele>587.336</ele>
        <time>2020-10-17T13:28:54Z</time>
      </trkpt>
      <trkpt lat="42.278641" lon="2.721863">
        <ele>585.866</ele>
        <time>2020-10-17T13:28:56Z</time>
      </trkpt>
      <trkpt lat="42.278585" lon="2.721810">
        <ele>584.571</ele>
        <time>2020-10-17T13:28:58Z</time>
      </trkpt>
      <trkpt lat="42.278513" lon="2.721789">
        <ele>583.338</ele>
        <time>2020-10-17T13:29:00Z</time>
      </trkpt>
      <trkpt lat="42.278419" lon="2.721832">
        <ele>582.270</ele>
        <time>2020-10-17T13:29:02Z</time>
      </trkpt>
      <trkpt lat="42.278357" lon="2.721880">
        <ele>580.317</ele>
        <time>2020-10-17T13:29:05Z</time>
      </trkpt>
      <trkpt lat="42.278357" lon="2.721880">
        <ele>580.308</ele>
        <time>2020-10-17T13:29:05Z</time>
      </trkpt>
      <trkpt lat="42.278302" lon="2.721944">
        <ele>579.448</ele>
        <time>2020-10-17T13:29:07Z</time>
      </trkpt>
      <trkpt lat="42.278249" lon="2.722006">
        <ele>578.581</ele>
        <time>2020-10-17T13:29:09Z</time>
      </trkpt>
      <trkpt lat="42.278186" lon="2.722045">
        <ele>577.980</ele>
        <time>2020-10-17T13:29:11Z</time>
      </trkpt>
      <trkpt lat="42.278120" lon="2.722048">
        <ele>577.589</ele>
        <time>2020-10-17T13:29:13Z</time>
      </trkpt>
      <trkpt lat="42.278048" lon="2.722007">
        <ele>577.078</ele>
        <time>2020-10-17T13:29:15Z</time>
      </trkpt>
      <trkpt lat="42.278006" lon="2.721981">
        <ele>576.436</ele>
        <time>2020-10-17T13:29:16Z</time>
      </trkpt>
      <trkpt lat="42.277923" lon="2.721933">
        <ele>575.546</ele>
        <time>2020-10-17T13:29:18Z</time>
      </trkpt>
      <trkpt lat="42.277878" lon="2.721905">
        <ele>574.211</ele>
        <time>2020-10-17T13:29:19Z</time>
      </trkpt>
      <trkpt lat="42.277878" lon="2.721905">
        <ele>574.264</ele>
        <time>2020-10-17T13:29:19Z</time>
      </trkpt>
      <trkpt lat="42.277790" lon="2.721822">
        <ele>573.406</ele>
        <time>2020-10-17T13:29:21Z</time>
      </trkpt>
      <trkpt lat="42.277707" lon="2.721739">
        <ele>571.816</ele>
        <time>2020-10-17T13:29:23Z</time>
      </trkpt>
      <trkpt lat="42.277707" lon="2.721739">
        <ele>571.808</ele>
        <time>2020-10-17T13:29:23Z</time>
      </trkpt>
      <trkpt lat="42.277665" lon="2.721707">
        <ele>571.191</ele>
        <time>2020-10-17T13:29:24Z</time>
      </trkpt>
      <trkpt lat="42.277570" lon="2.721661">
        <ele>569.954</ele>
        <time>2020-10-17T13:29:26Z</time>
      </trkpt>
      <trkpt lat="42.277477" lon="2.721624">
        <ele>568.553</ele>
        <time>2020-10-17T13:29:28Z</time>
      </trkpt>
      <trkpt lat="42.277420" lon="2.721574">
        <ele>567.232</ele>
        <time>2020-10-17T13:29:30Z</time>
      </trkpt>
      <trkpt lat="42.277402" lon="2.721508">
        <ele>565.221</ele>
        <time>2020-10-17T13:29:32Z</time>
      </trkpt>
      <trkpt lat="42.277402" lon="2.721508">
        <ele>565.269</ele>
        <time>2020-10-17T13:29:32Z</time>
      </trkpt>
      <trkpt lat="42.277392" lon="2.721440">
        <ele>564.389</ele>
        <time>2020-10-17T13:29:34Z</time>
      </trkpt>
      <trkpt lat="42.277377" lon="2.721377">
        <ele>563.264</ele>
        <time>2020-10-17T13:29:36Z</time>
      </trkpt>
      <trkpt lat="42.277359" lon="2.721299">
        <ele>561.929</ele>
        <time>2020-10-17T13:29:38Z</time>
      </trkpt>
      <trkpt lat="42.277337" lon="2.721228">
        <ele>560.100</ele>
        <time>2020-10-17T13:29:39Z</time>
      </trkpt>
      <trkpt lat="42.277337" lon="2.721228">
        <ele>560.120</ele>
        <time>2020-10-17T13:29:39Z</time>
      </trkpt>
      <trkpt lat="42.277311" lon="2.721146">
        <ele>559.308</ele>
        <time>2020-10-17T13:29:41Z</time>
      </trkpt>
      <trkpt lat="42.277305" lon="2.721073">
        <ele>558.477</ele>
        <time>2020-10-17T13:29:43Z</time>
      </trkpt>
      <trkpt lat="42.277302" lon="2.720958">
        <ele>557.220</ele>
        <time>2020-10-17T13:29:45Z</time>
      </trkpt>
      <trkpt lat="42.277305" lon="2.720828">
        <ele>556.149</ele>
        <time>2020-10-17T13:29:47Z</time>
      </trkpt>
      <trkpt lat="42.277311" lon="2.720675">
        <ele>555.448</ele>
        <time>2020-10-17T13:29:49Z</time>
      </trkpt>
      <trkpt lat="42.277305" lon="2.720491">
        <ele>555.087</ele>
        <time>2020-10-17T13:29:51Z</time>
      </trkpt>
      <trkpt lat="42.277302" lon="2.720423">
        <ele>554.795</ele>
        <time>2020-10-17T13:29:53Z</time>
      </trkpt>
      <trkpt lat="42.277297" lon="2.720323">
        <ele>554.255</ele>
        <time>2020-10-17T13:29:56Z</time>
      </trkpt>
      <trkpt lat="42.277301" lon="2.720230">
        <ele>553.860</ele>
        <time>2020-10-17T13:29:57Z</time>
      </trkpt>
      <trkpt lat="42.277313" lon="2.720124">
        <ele>553.447</ele>
        <time>2020-10-17T13:29:59Z</time>
      </trkpt>
      <trkpt lat="42.277314" lon="2.720021">
        <ele>552.829</ele>
        <time>2020-10-17T13:30:01Z</time>
      </trkpt>
      <trkpt lat="42.277309" lon="2.719899">
        <ele>552.221</ele>
        <time>2020-10-17T13:30:03Z</time>
      </trkpt>
      <trkpt lat="42.277305" lon="2.719759">
        <ele>551.208</ele>
        <time>2020-10-17T13:30:05Z</time>
      </trkpt>
      <trkpt lat="42.277305" lon="2.719759">
        <ele>551.239</ele>
        <time>2020-10-17T13:30:05Z</time>
      </trkpt>
      <trkpt lat="42.277311" lon="2.719646">
        <ele>550.972</ele>
        <time>2020-10-17T13:30:07Z</time>
      </trkpt>
      <trkpt lat="42.277315" lon="2.719565">
        <ele>550.751</ele>
        <time>2020-10-17T13:30:09Z</time>
      </trkpt>
      <trkpt lat="42.277305" lon="2.719489">
        <ele>550.290</ele>
        <time>2020-10-17T13:30:11Z</time>
      </trkpt>
      <trkpt lat="42.277295" lon="2.719421">
        <ele>549.759</ele>
        <time>2020-10-17T13:30:12Z</time>
      </trkpt>
      <trkpt lat="42.277278" lon="2.719340">
        <ele>548.847</ele>
        <time>2020-10-17T13:30:14Z</time>
      </trkpt>
      <trkpt lat="42.277241" lon="2.719248">
        <ele>547.377</ele>
        <time>2020-10-17T13:30:16Z</time>
      </trkpt>
      <trkpt lat="42.277187" lon="2.719140">
        <ele>545.942</ele>
        <time>2020-10-17T13:30:18Z</time>
      </trkpt>
      <trkpt lat="42.277153" lon="2.719080">
        <ele>544.655</ele>
        <time>2020-10-17T13:30:20Z</time>
      </trkpt>
      <trkpt lat="42.277110" lon="2.719023">
        <ele>543.707</ele>
        <time>2020-10-17T13:30:22Z</time>
      </trkpt>
      <trkpt lat="42.277056" lon="2.718936">
        <ele>542.817</ele>
        <time>2020-10-17T13:30:24Z</time>
      </trkpt>
      <trkpt lat="42.277015" lon="2.718864">
        <ele>541.908</ele>
        <time>2020-10-17T13:30:26Z</time>
      </trkpt>
      <trkpt lat="42.276963" lon="2.718796">
        <ele>540.950</ele>
        <time>2020-10-17T13:30:28Z</time>
      </trkpt>
      <trkpt lat="42.276915" lon="2.718731">
        <ele>540.043</ele>
        <time>2020-10-17T13:30:30Z</time>
      </trkpt>
      <trkpt lat="42.276875" lon="2.718672">
        <ele>539.092</ele>
        <time>2020-10-17T13:30:32Z</time>
      </trkpt>
      <trkpt lat="42.276815" lon="2.718592">
        <ele>538.191</ele>
        <time>2020-10-17T13:30:34Z</time>
      </trkpt>
      <trkpt lat="42.276779" lon="2.718549">
        <ele>537.370</ele>
        <time>2020-10-17T13:30:35Z</time>
      </trkpt>
      <trkpt lat="42.276700" lon="2.718462">
        <ele>535.918</ele>
        <time>2020-10-17T13:30:37Z</time>
      </trkpt>
      <trkpt lat="42.276700" lon="2.718462">
        <ele>535.918</ele>
        <time>2020-10-17T13:30:37Z</time>
      </trkpt>
      <trkpt lat="42.276621" lon="2.718385">
        <ele>534.763</ele>
        <time>2020-10-17T13:30:39Z</time>
      </trkpt>
      <trkpt lat="42.276621" lon="2.718385">
        <ele>534.761</ele>
        <time>2020-10-17T13:30:39Z</time>
      </trkpt>
      <trkpt lat="42.276565" lon="2.718319">
        <ele>534.221</ele>
        <time>2020-10-17T13:30:41Z</time>
      </trkpt>
      <trkpt lat="42.276525" lon="2.718237">
        <ele>533.613</ele>
        <time>2020-10-17T13:30:43Z</time>
      </trkpt>
      <trkpt lat="42.276496" lon="2.718165">
        <ele>532.708</ele>
        <time>2020-10-17T13:30:44Z</time>
      </trkpt>
      <trkpt lat="42.276496" lon="2.718165">
        <ele>532.761</ele>
        <time>2020-10-17T13:30:44Z</time>
      </trkpt>
      <trkpt lat="42.276468" lon="2.718094">
        <ele>532.314</ele>
        <time>2020-10-17T13:30:46Z</time>
      </trkpt>
      <trkpt lat="42.276432" lon="2.718037">
        <ele>532.093</ele>
        <time>2020-10-17T13:30:48Z</time>
      </trkpt>
      <trkpt lat="42.276392" lon="2.717987">
        <ele>531.942</ele>
        <time>2020-10-17T13:30:50Z</time>
      </trkpt>
      <trkpt lat="42.276349" lon="2.717941">
        <ele>531.851</ele>
        <time>2020-10-17T13:30:52Z</time>
      </trkpt>
      <trkpt lat="42.276298" lon="2.717867">
        <ele>531.689</ele>
        <time>2020-10-17T13:30:54Z</time>
      </trkpt>
      <trkpt lat="42.276225" lon="2.717772">
        <ele>531.379</ele>
        <time>2020-10-17T13:30:56Z</time>
      </trkpt>
      <trkpt lat="42.276180" lon="2.717721">
        <ele>531.154</ele>
        <time>2020-10-17T13:30:57Z</time>
      </trkpt>
      <trkpt lat="42.276084" lon="2.717621">
        <ele>531.033</ele>
        <time>2020-10-17T13:30:59Z</time>
      </trkpt>
      <trkpt lat="42.276043" lon="2.717579">
        <ele>531.123</ele>
        <time>2020-10-17T13:31:00Z</time>
      </trkpt>
      <trkpt lat="42.275981" lon="2.717517">
        <ele>531.915</ele>
        <time>2020-10-17T13:31:02Z</time>
      </trkpt>
      <trkpt lat="42.275981" lon="2.717517">
        <ele>531.908</ele>
        <time>2020-10-17T13:31:02Z</time>
      </trkpt>
      <trkpt lat="42.275923" lon="2.717446">
        <ele>532.198</ele>
        <time>2020-10-17T13:31:04Z</time>
      </trkpt>
      <trkpt lat="42.275900" lon="2.717382">
        <ele>532.381</ele>
        <time>2020-10-17T13:31:05Z</time>
      </trkpt>
      <trkpt lat="42.275903" lon="2.717301">
        <ele>532.070</ele>
        <time>2020-10-17T13:31:07Z</time>
      </trkpt>
      <trkpt lat="42.275902" lon="2.717223">
        <ele>531.589</ele>
        <time>2020-10-17T13:31:09Z</time>
      </trkpt>
      <trkpt lat="42.275882" lon="2.717142">
        <ele>530.858</ele>
        <time>2020-10-17T13:31:11Z</time>
      </trkpt>
      <trkpt lat="42.275840" lon="2.717077">
        <ele>529.946</ele>
        <time>2020-10-17T13:31:13Z</time>
      </trkpt>
      <trkpt lat="42.275778" lon="2.717014">
        <ele>528.996</ele>
        <time>2020-10-17T13:31:15Z</time>
      </trkpt>
      <trkpt lat="42.275700" lon="2.716974">
        <ele>528.091</ele>
        <time>2020-10-17T13:31:17Z</time>
      </trkpt>
      <trkpt lat="42.275639" lon="2.716955">
        <ele>527.272</ele>
        <time>2020-10-17T13:31:19Z</time>
      </trkpt>
      <trkpt lat="42.275586" lon="2.716927">
        <ele>526.613</ele>
        <time>2020-10-17T13:31:21Z</time>
      </trkpt>
      <trkpt lat="42.275537" lon="2.716878">
        <ele>526.414</ele>
        <time>2020-10-17T13:31:23Z</time>
      </trkpt>
      <trkpt lat="42.275545" lon="2.716801">
        <ele>526.408</ele>
        <time>2020-10-17T13:31:26Z</time>
      </trkpt>
      <trkpt lat="42.275551" lon="2.716724">
        <ele>526.382</ele>
        <time>2020-10-17T13:31:29Z</time>
      </trkpt>
      <trkpt lat="42.275543" lon="2.716653">
        <ele>526.195</ele>
        <time>2020-10-17T13:31:33Z</time>
      </trkpt>
      <trkpt lat="42.275539" lon="2.716578">
        <ele>526.024</ele>
        <time>2020-10-17T13:31:36Z</time>
      </trkpt>
      <trkpt lat="42.275563" lon="2.716494">
        <ele>525.853</ele>
        <time>2020-10-17T13:31:44Z</time>
      </trkpt>
      <trkpt lat="42.275578" lon="2.716412">
        <ele>526.382</ele>
        <time>2020-10-17T13:31:47Z</time>
      </trkpt>
      <trkpt lat="42.275598" lon="2.716352">
        <ele>527.210</ele>
        <time>2020-10-17T13:31:50Z</time>
      </trkpt>
      <trkpt lat="42.275637" lon="2.716306">
        <ele>528.030</ele>
        <time>2020-10-17T13:31:52Z</time>
      </trkpt>
      <trkpt lat="42.275687" lon="2.716263">
        <ele>528.625</ele>
        <time>2020-10-17T13:31:54Z</time>
      </trkpt>
      <trkpt lat="42.275725" lon="2.716213">
        <ele>529.194</ele>
        <time>2020-10-17T13:31:56Z</time>
      </trkpt>
      <trkpt lat="42.275758" lon="2.716168">
        <ele>529.457</ele>
        <time>2020-10-17T13:31:58Z</time>
      </trkpt>
      <trkpt lat="42.275821" lon="2.716108">
        <ele>529.522</ele>
        <time>2020-10-17T13:32:37Z</time>
      </trkpt>
      <trkpt lat="42.275867" lon="2.716061">
        <ele>529.908</ele>
        <time>2020-10-17T13:32:39Z</time>
      </trkpt>
      <trkpt lat="42.275929" lon="2.716039">
        <ele>532.184</ele>
        <time>2020-10-17T13:32:41Z</time>
      </trkpt>
      <trkpt lat="42.275929" lon="2.716039">
        <ele>532.177</ele>
        <time>2020-10-17T13:32:41Z</time>
      </trkpt>
      <trkpt lat="42.275966" lon="2.716077">
        <ele>533.666</ele>
        <time>2020-10-17T13:32:43Z</time>
      </trkpt>
      <trkpt lat="42.275988" lon="2.716142">
        <ele>535.125</ele>
        <time>2020-10-17T13:32:45Z</time>
      </trkpt>
      <trkpt lat="42.276009" lon="2.716229">
        <ele>536.464</ele>
        <time>2020-10-17T13:32:47Z</time>
      </trkpt>
      <trkpt lat="42.276014" lon="2.716332">
        <ele>537.342</ele>
        <time>2020-10-17T13:32:49Z</time>
      </trkpt>
      <trkpt lat="42.276021" lon="2.716441">
        <ele>538.572</ele>
        <time>2020-10-17T13:32:51Z</time>
      </trkpt>
      <trkpt lat="42.276088" lon="2.716528">
        <ele>539.587</ele>
        <time>2020-10-17T13:32:53Z</time>
      </trkpt>
      <trkpt lat="42.276134" lon="2.716561">
        <ele>540.515</ele>
        <time>2020-10-17T13:32:54Z</time>
      </trkpt>
      <trkpt lat="42.276134" lon="2.716561">
        <ele>540.565</ele>
        <time>2020-10-17T13:32:54Z</time>
      </trkpt>
      <trkpt lat="42.276268" lon="2.716659">
        <ele>540.611</ele>
        <time>2020-10-17T13:32:56Z</time>
      </trkpt>
      <trkpt lat="42.276453" lon="2.716777">
        <ele>540.308</ele>
        <time>2020-10-17T13:32:58Z</time>
      </trkpt>
      <trkpt lat="42.276555" lon="2.716836">
        <ele>539.796</ele>
        <time>2020-10-17T13:32:59Z</time>
      </trkpt>
      <trkpt lat="42.276555" lon="2.716836">
        <ele>539.769</ele>
        <time>2020-10-17T13:32:59Z</time>
      </trkpt>
      <trkpt lat="42.276749" lon="2.716950">
        <ele>538.598</ele>
        <time>2020-10-17T13:33:01Z</time>
      </trkpt>
      <trkpt lat="42.276749" lon="2.716950">
        <ele>538.537</ele>
        <time>2020-10-17T13:33:01Z</time>
      </trkpt>
      <trkpt lat="42.276841" lon="2.717013">
        <ele>537.886</ele>
        <time>2020-10-17T13:33:02Z</time>
      </trkpt>
      <trkpt lat="42.276996" lon="2.717158">
        <ele>536.424</ele>
        <time>2020-10-17T13:33:04Z</time>
      </trkpt>
      <trkpt lat="42.276996" lon="2.717158">
        <ele>536.444</ele>
        <time>2020-10-17T13:33:04Z</time>
      </trkpt>
      <trkpt lat="42.277114" lon="2.717340">
        <ele>535.549</ele>
        <time>2020-10-17T13:33:06Z</time>
      </trkpt>
      <trkpt lat="42.277114" lon="2.717340">
        <ele>535.541</ele>
        <time>2020-10-17T13:33:06Z</time>
      </trkpt>
      <trkpt lat="42.277203" lon="2.717520">
        <ele>535.081</ele>
        <time>2020-10-17T13:33:08Z</time>
      </trkpt>
      <trkpt lat="42.277203" lon="2.717520">
        <ele>535.009</ele>
        <time>2020-10-17T13:33:08Z</time>
      </trkpt>
      <trkpt lat="42.277244" lon="2.717601">
        <ele>534.908</ele>
        <time>2020-10-17T13:33:09Z</time>
      </trkpt>
      <trkpt lat="42.277328" lon="2.717730">
        <ele>534.649</ele>
        <time>2020-10-17T13:33:11Z</time>
      </trkpt>
      <trkpt lat="42.277423" lon="2.717822">
        <ele>534.132</ele>
        <time>2020-10-17T13:33:13Z</time>
      </trkpt>
      <trkpt lat="42.277476" lon="2.717864">
        <ele>533.661</ele>
        <time>2020-10-17T13:33:14Z</time>
      </trkpt>
      <trkpt lat="42.277585" lon="2.717954">
        <ele>533.180</ele>
        <time>2020-10-17T13:33:16Z</time>
      </trkpt>
      <trkpt lat="42.277641" lon="2.718004">
        <ele>532.519</ele>
        <time>2020-10-17T13:33:17Z</time>
      </trkpt>
      <trkpt lat="42.277641" lon="2.718004">
        <ele>532.537</ele>
        <time>2020-10-17T13:33:17Z</time>
      </trkpt>
      <trkpt lat="42.277698" lon="2.718056">
        <ele>532.297</ele>
        <time>2020-10-17T13:33:18Z</time>
      </trkpt>
      <trkpt lat="42.277810" lon="2.718151">
        <ele>531.972</ele>
        <time>2020-10-17T13:33:20Z</time>
      </trkpt>
      <trkpt lat="42.277866" lon="2.718194">
        <ele>531.544</ele>
        <time>2020-10-17T13:33:21Z</time>
      </trkpt>
      <trkpt lat="42.277866" lon="2.718194">
        <ele>531.505</ele>
        <time>2020-10-17T13:33:21Z</time>
      </trkpt>
      <trkpt lat="42.277972" lon="2.718272">
        <ele>531.015</ele>
        <time>2020-10-17T13:33:23Z</time>
      </trkpt>
      <trkpt lat="42.278073" lon="2.718348">
        <ele>530.008</ele>
        <time>2020-10-17T13:33:25Z</time>
      </trkpt>
      <trkpt lat="42.278073" lon="2.718348">
        <ele>530.089</ele>
        <time>2020-10-17T13:33:25Z</time>
      </trkpt>
      <trkpt lat="42.278123" lon="2.718394">
        <ele>529.592</ele>
        <time>2020-10-17T13:33:26Z</time>
      </trkpt>
      <trkpt lat="42.278220" lon="2.718515">
        <ele>528.991</ele>
        <time>2020-10-17T13:33:28Z</time>
      </trkpt>
      <trkpt lat="42.278316" lon="2.718675">
        <ele>528.160</ele>
        <time>2020-10-17T13:33:30Z</time>
      </trkpt>
      <trkpt lat="42.278404" lon="2.718863">
        <ele>527.219</ele>
        <time>2020-10-17T13:33:32Z</time>
      </trkpt>
      <trkpt lat="42.278483" lon="2.719042">
        <ele>526.217</ele>
        <time>2020-10-17T13:33:34Z</time>
      </trkpt>
      <trkpt lat="42.278541" lon="2.719213">
        <ele>525.377</ele>
        <time>2020-10-17T13:33:36Z</time>
      </trkpt>
      <trkpt lat="42.278552" lon="2.719388">
        <ele>524.642</ele>
        <time>2020-10-17T13:33:38Z</time>
      </trkpt>
      <trkpt lat="42.278554" lon="2.719459">
        <ele>524.216</ele>
        <time>2020-10-17T13:33:39Z</time>
      </trkpt>
      <trkpt lat="42.278568" lon="2.719533">
        <ele>523.876</ele>
        <time>2020-10-17T13:33:41Z</time>
      </trkpt>
      <trkpt lat="42.278628" lon="2.719491">
        <ele>523.513</ele>
        <time>2020-10-17T13:33:43Z</time>
      </trkpt>
      <trkpt lat="42.278661" lon="2.719444">
        <ele>523.408</ele>
        <time>2020-10-17T13:33:44Z</time>
      </trkpt>
      <trkpt lat="42.278703" lon="2.719391">
        <ele>523.226</ele>
        <time>2020-10-17T13:33:45Z</time>
      </trkpt>
      <trkpt lat="42.278818" lon="2.719302">
        <ele>523.049</ele>
        <time>2020-10-17T13:33:47Z</time>
      </trkpt>
      <trkpt lat="42.278891" lon="2.719272">
        <ele>522.728</ele>
        <time>2020-10-17T13:33:48Z</time>
      </trkpt>
      <trkpt lat="42.278968" lon="2.719253">
        <ele>522.377</ele>
        <time>2020-10-17T13:33:49Z</time>
      </trkpt>
      <trkpt lat="42.279103" lon="2.719254">
        <ele>521.946</ele>
        <time>2020-10-17T13:33:51Z</time>
      </trkpt>
      <trkpt lat="42.279103" lon="2.719254">
        <ele>521.944</ele>
        <time>2020-10-17T13:33:51Z</time>
      </trkpt>
      <trkpt lat="42.279161" lon="2.719273">
        <ele>521.794</ele>
        <time>2020-10-17T13:33:52Z</time>
      </trkpt>
      <trkpt lat="42.279244" lon="2.719344">
        <ele>521.129</ele>
        <time>2020-10-17T13:33:54Z</time>
      </trkpt>
      <trkpt lat="42.279282" lon="2.719415">
        <ele>520.293</ele>
        <time>2020-10-17T13:33:56Z</time>
      </trkpt>
      <trkpt lat="42.279328" lon="2.719511">
        <ele>517.565</ele>
        <time>2020-10-17T13:34:15Z</time>
      </trkpt>
      <trkpt lat="42.279392" lon="2.719623">
        <ele>516.921</ele>
        <time>2020-10-17T13:34:17Z</time>
      </trkpt>
      <trkpt lat="42.279471" lon="2.719779">
        <ele>516.208</ele>
        <time>2020-10-17T13:34:19Z</time>
      </trkpt>
      <trkpt lat="42.279554" lon="2.719977">
        <ele>515.554</ele>
        <time>2020-10-17T13:34:21Z</time>
      </trkpt>
      <trkpt lat="42.279591" lon="2.720097">
        <ele>515.057</ele>
        <time>2020-10-17T13:34:22Z</time>
      </trkpt>
      <trkpt lat="42.279624" lon="2.720221">
        <ele>514.666</ele>
        <time>2020-10-17T13:34:23Z</time>
      </trkpt>
      <trkpt lat="42.279682" lon="2.720443">
        <ele>514.195</ele>
        <time>2020-10-17T13:34:25Z</time>
      </trkpt>
      <trkpt lat="42.279708" lon="2.720539">
        <ele>513.624</ele>
        <time>2020-10-17T13:34:26Z</time>
      </trkpt>
      <trkpt lat="42.279734" lon="2.720626">
        <ele>513.282</ele>
        <time>2020-10-17T13:34:27Z</time>
      </trkpt>
      <trkpt lat="42.279784" lon="2.720773">
        <ele>512.562</ele>
        <time>2020-10-17T13:34:29Z</time>
      </trkpt>
      <trkpt lat="42.279784" lon="2.720773">
        <ele>512.587</ele>
        <time>2020-10-17T13:34:29Z</time>
      </trkpt>
      <trkpt lat="42.279835" lon="2.720907">
        <ele>512.041</ele>
        <time>2020-10-17T13:34:31Z</time>
      </trkpt>
      <trkpt lat="42.279899" lon="2.721034">
        <ele>511.481</ele>
        <time>2020-10-17T13:34:33Z</time>
      </trkpt>
      <trkpt lat="42.279935" lon="2.721099">
        <ele>510.809</ele>
        <time>2020-10-17T13:34:34Z</time>
      </trkpt>
      <trkpt lat="42.279977" lon="2.721168">
        <ele>510.308</ele>
        <time>2020-10-17T13:34:35Z</time>
      </trkpt>
      <trkpt lat="42.280027" lon="2.721242">
        <ele>509.939</ele>
        <time>2020-10-17T13:34:36Z</time>
      </trkpt>
      <trkpt lat="42.280133" lon="2.721396">
        <ele>509.452</ele>
        <time>2020-10-17T13:34:38Z</time>
      </trkpt>
      <trkpt lat="42.280185" lon="2.721473">
        <ele>508.941</ele>
        <time>2020-10-17T13:34:39Z</time>
      </trkpt>
      <trkpt lat="42.280234" lon="2.721548">
        <ele>508.590</ele>
        <time>2020-10-17T13:34:40Z</time>
      </trkpt>
      <trkpt lat="42.280328" lon="2.721691">
        <ele>508.079</ele>
        <time>2020-10-17T13:34:42Z</time>
      </trkpt>
      <trkpt lat="42.280379" lon="2.721765">
        <ele>507.687</ele>
        <time>2020-10-17T13:34:43Z</time>
      </trkpt>
      <trkpt lat="42.280474" lon="2.721883">
        <ele>507.197</ele>
        <time>2020-10-17T13:34:45Z</time>
      </trkpt>
      <trkpt lat="42.280514" lon="2.721921">
        <ele>506.582</ele>
        <time>2020-10-17T13:34:46Z</time>
      </trkpt>
      <trkpt lat="42.280514" lon="2.721921">
        <ele>506.531</ele>
        <time>2020-10-17T13:34:46Z</time>
      </trkpt>
      <trkpt lat="42.280557" lon="2.721969">
        <ele>506.361</ele>
        <time>2020-10-17T13:34:48Z</time>
      </trkpt>
      <trkpt lat="42.280599" lon="2.722044">
        <ele>506.607</ele>
        <time>2020-10-17T13:34:51Z</time>
      </trkpt>
      <trkpt lat="42.280599" lon="2.722044">
        <ele>506.608</ele>
        <time>2020-10-17T13:34:51Z</time>
      </trkpt>
      <trkpt lat="42.280684" lon="2.722149">
        <ele>507.158</ele>
        <time>2020-10-17T13:34:53Z</time>
      </trkpt>
      <trkpt lat="42.280742" lon="2.722242">
        <ele>507.651</ele>
        <time>2020-10-17T13:34:55Z</time>
      </trkpt>
      <trkpt lat="42.280822" lon="2.722374">
        <ele>508.240</ele>
        <time>2020-10-17T13:34:57Z</time>
      </trkpt>
      <trkpt lat="42.280898" lon="2.722516">
        <ele>509.189</ele>
        <time>2020-10-17T13:34:59Z</time>
      </trkpt>
      <trkpt lat="42.280898" lon="2.722516">
        <ele>509.168</ele>
        <time>2020-10-17T13:34:59Z</time>
      </trkpt>
      <trkpt lat="42.280948" lon="2.722636">
        <ele>509.446</ele>
        <time>2020-10-17T13:35:01Z</time>
      </trkpt>
      <trkpt lat="42.280970" lon="2.722695">
        <ele>509.646</ele>
        <time>2020-10-17T13:35:04Z</time>
      </trkpt>
      <trkpt lat="42.280970" lon="2.722695">
        <ele>509.651</ele>
        <time>2020-10-17T13:35:04Z</time>
      </trkpt>
      <trkpt lat="42.280964" lon="2.722758">
        <ele>509.872</ele>
        <time>2020-10-17T13:35:09Z</time>
      </trkpt>
      <trkpt lat="42.280963" lon="2.722838">
        <ele>510.113</ele>
        <time>2020-10-17T13:35:11Z</time>
      </trkpt>
      <trkpt lat="42.280964" lon="2.722923">
        <ele>510.414</ele>
        <time>2020-10-17T13:35:13Z</time>
      </trkpt>
      <trkpt lat="42.280955" lon="2.723033">
        <ele>510.608</ele>
        <time>2020-10-17T13:35:15Z</time>
      </trkpt>
      <trkpt lat="42.280906" lon="2.723162">
        <ele>510.822</ele>
        <time>2020-10-17T13:35:17Z</time>
      </trkpt>
      <trkpt lat="42.280859" lon="2.723237">
        <ele>511.035</ele>
        <time>2020-10-17T13:35:18Z</time>
      </trkpt>
      <trkpt lat="42.280740" lon="2.723373">
        <ele>511.124</ele>
        <time>2020-10-17T13:35:20Z</time>
      </trkpt>
      <trkpt lat="42.280677" lon="2.723439">
        <ele>511.283</ele>
        <time>2020-10-17T13:35:21Z</time>
      </trkpt>
      <trkpt lat="42.280549" lon="2.723582">
        <ele>511.382</ele>
        <time>2020-10-17T13:35:23Z</time>
      </trkpt>
      <trkpt lat="42.280549" lon="2.723582">
        <ele>511.380</ele>
        <time>2020-10-17T13:35:23Z</time>
      </trkpt>
      <trkpt lat="42.280486" lon="2.723656">
        <ele>511.380</ele>
        <time>2020-10-17T13:35:24Z</time>
      </trkpt>
      <trkpt lat="42.280426" lon="2.723727">
        <ele>511.375</ele>
        <time>2020-10-17T13:35:25Z</time>
      </trkpt>
      <trkpt lat="42.280307" lon="2.723869">
        <ele>511.252</ele>
        <time>2020-10-17T13:35:27Z</time>
      </trkpt>
      <trkpt lat="42.280251" lon="2.723942">
        <ele>511.153</ele>
        <time>2020-10-17T13:35:28Z</time>
      </trkpt>
      <trkpt lat="42.280251" lon="2.723942">
        <ele>511.108</ele>
        <time>2020-10-17T13:35:28Z</time>
      </trkpt>
      <trkpt lat="42.280156" lon="2.724101">
        <ele>511.008</ele>
        <time>2020-10-17T13:35:30Z</time>
      </trkpt>
      <trkpt lat="42.280078" lon="2.724267">
        <ele>511.030</ele>
        <time>2020-10-17T13:35:32Z</time>
      </trkpt>
      <trkpt lat="42.280006" lon="2.724434">
        <ele>511.053</ele>
        <time>2020-10-17T13:35:34Z</time>
      </trkpt>
      <trkpt lat="42.279966" lon="2.724520">
        <ele>511.022</ele>
        <time>2020-10-17T13:35:35Z</time>
      </trkpt>
      <trkpt lat="42.279887" lon="2.724697">
        <ele>511.151</ele>
        <time>2020-10-17T13:35:37Z</time>
      </trkpt>
      <trkpt lat="42.279847" lon="2.724796">
        <ele>511.240</ele>
        <time>2020-10-17T13:35:38Z</time>
      </trkpt>
      <trkpt lat="42.279847" lon="2.724796">
        <ele>511.238</ele>
        <time>2020-10-17T13:35:38Z</time>
      </trkpt>
      <trkpt lat="42.279776" lon="2.724997">
        <ele>511.368</ele>
        <time>2020-10-17T13:35:40Z</time>
      </trkpt>
      <trkpt lat="42.279687" lon="2.725210">
        <ele>511.773</ele>
        <time>2020-10-17T13:35:42Z</time>
      </trkpt>
      <trkpt lat="42.279687" lon="2.725210">
        <ele>511.716</ele>
        <time>2020-10-17T13:35:42Z</time>
      </trkpt>
      <trkpt lat="42.279583" lon="2.725431">
        <ele>512.176</ele>
        <time>2020-10-17T13:35:44Z</time>
      </trkpt>
      <trkpt lat="42.279583" lon="2.725431">
        <ele>512.113</ele>
        <time>2020-10-17T13:35:44Z</time>
      </trkpt>
      <trkpt lat="42.279486" lon="2.725641">
        <ele>512.208</ele>
        <time>2020-10-17T13:35:46Z</time>
      </trkpt>
      <trkpt lat="42.279439" lon="2.725746">
        <ele>512.226</ele>
        <time>2020-10-17T13:35:47Z</time>
      </trkpt>
      <trkpt lat="42.279439" lon="2.725746">
        <ele>512.269</ele>
        <time>2020-10-17T13:35:47Z</time>
      </trkpt>
      <trkpt lat="42.279347" lon="2.725978">
        <ele>512.478</ele>
        <time>2020-10-17T13:35:49Z</time>
      </trkpt>
      <trkpt lat="42.279291" lon="2.726107">
        <ele>512.637</ele>
        <time>2020-10-17T13:35:50Z</time>
      </trkpt>
      <trkpt lat="42.279186" lon="2.726361">
        <ele>512.926</ele>
        <time>2020-10-17T13:35:52Z</time>
      </trkpt>
      <trkpt lat="42.279093" lon="2.726613">
        <ele>513.254</ele>
        <time>2020-10-17T13:35:54Z</time>
      </trkpt>
      <trkpt lat="42.279007" lon="2.726853">
        <ele>513.374</ele>
        <time>2020-10-17T13:35:56Z</time>
      </trkpt>
      <trkpt lat="42.278959" lon="2.726961">
        <ele>513.279</ele>
        <time>2020-10-17T13:35:57Z</time>
      </trkpt>
      <trkpt lat="42.278959" lon="2.726961">
        <ele>513.224</ele>
        <time>2020-10-17T13:35:57Z</time>
      </trkpt>
      <trkpt lat="42.278841" lon="2.727157">
        <ele>512.604</ele>
        <time>2020-10-17T13:35:59Z</time>
      </trkpt>
      <trkpt lat="42.278681" lon="2.727330">
        <ele>511.614</ele>
        <time>2020-10-17T13:36:01Z</time>
      </trkpt>
      <trkpt lat="42.278597" lon="2.727401">
        <ele>510.608</ele>
        <time>2020-10-17T13:36:02Z</time>
      </trkpt>
      <trkpt lat="42.278468" lon="2.727524">
        <ele>509.297</ele>
        <time>2020-10-17T13:36:04Z</time>
      </trkpt>
      <trkpt lat="42.278427" lon="2.727593">
        <ele>507.740</ele>
        <time>2020-10-17T13:36:05Z</time>
      </trkpt>
      <trkpt lat="42.278427" lon="2.727593">
        <ele>507.779</ele>
        <time>2020-10-17T13:36:05Z</time>
      </trkpt>
      <trkpt lat="42.278407" lon="2.727665">
        <ele>507.188</ele>
        <time>2020-10-17T13:36:06Z</time>
      </trkpt>
      <trkpt lat="42.278410" lon="2.727819">
        <ele>505.727</ele>
        <time>2020-10-17T13:36:08Z</time>
      </trkpt>
      <trkpt lat="42.278410" lon="2.727819">
        <ele>505.745</ele>
        <time>2020-10-17T13:36:08Z</time>
      </trkpt>
      <trkpt lat="42.278387" lon="2.727964">
        <ele>505.125</ele>
        <time>2020-10-17T13:36:10Z</time>
      </trkpt>
      <trkpt lat="42.278347" lon="2.728020">
        <ele>504.640</ele>
        <time>2020-10-17T13:36:11Z</time>
      </trkpt>
      <trkpt lat="42.278289" lon="2.728061">
        <ele>504.195</ele>
        <time>2020-10-17T13:36:12Z</time>
      </trkpt>
      <trkpt lat="42.278221" lon="2.728096">
        <ele>503.749</ele>
        <time>2020-10-17T13:36:13Z</time>
      </trkpt>
      <trkpt lat="42.278093" lon="2.728158">
        <ele>503.223</ele>
        <time>2020-10-17T13:36:15Z</time>
      </trkpt>
      <trkpt lat="42.278038" lon="2.728197">
        <ele>502.808</ele>
        <time>2020-10-17T13:36:16Z</time>
      </trkpt>
      <trkpt lat="42.277992" lon="2.728244">
        <ele>502.334</ele>
        <time>2020-10-17T13:36:17Z</time>
      </trkpt>
      <trkpt lat="42.277953" lon="2.728301">
        <ele>501.927</ele>
        <time>2020-10-17T13:36:18Z</time>
      </trkpt>
      <trkpt lat="42.277912" lon="2.728369">
        <ele>501.286</ele>
        <time>2020-10-17T13:36:19Z</time>
      </trkpt>
      <trkpt lat="42.277912" lon="2.728369">
        <ele>501.295</ele>
        <time>2020-10-17T13:36:19Z</time>
      </trkpt>
      <trkpt lat="42.277819" lon="2.728477">
        <ele>500.374</ele>
        <time>2020-10-17T13:36:21Z</time>
      </trkpt>
      <trkpt lat="42.277725" lon="2.728498">
        <ele>498.892</ele>
        <time>2020-10-17T13:36:23Z</time>
      </trkpt>
      <trkpt lat="42.277725" lon="2.728498">
        <ele>498.832</ele>
        <time>2020-10-17T13:36:23Z</time>
      </trkpt>
      <trkpt lat="42.277654" lon="2.728446">
        <ele>498.327</ele>
        <time>2020-10-17T13:36:25Z</time>
      </trkpt>
      <trkpt lat="42.277566" lon="2.728381">
        <ele>497.374</ele>
        <time>2020-10-17T13:36:27Z</time>
      </trkpt>
      <trkpt lat="42.277566" lon="2.728381">
        <ele>497.356</ele>
        <time>2020-10-17T13:36:27Z</time>
      </trkpt>
      <trkpt lat="42.277513" lon="2.728351">
        <ele>496.921</ele>
        <time>2020-10-17T13:36:28Z</time>
      </trkpt>
      <trkpt lat="42.277393" lon="2.728298">
        <ele>496.108</ele>
        <time>2020-10-17T13:36:30Z</time>
      </trkpt>
      <trkpt lat="42.277330" lon="2.728261">
        <ele>495.142</ele>
        <time>2020-10-17T13:36:31Z</time>
      </trkpt>
      <trkpt lat="42.277330" lon="2.728261">
        <ele>495.145</ele>
        <time>2020-10-17T13:36:31Z</time>
      </trkpt>
      <trkpt lat="42.277269" lon="2.728219">
        <ele>494.894</ele>
        <time>2020-10-17T13:36:32Z</time>
      </trkpt>
      <trkpt lat="42.277148" lon="2.728140">
        <ele>494.493</ele>
        <time>2020-10-17T13:36:34Z</time>
      </trkpt>
      <trkpt lat="42.277083" lon="2.728105">
        <ele>494.032</ele>
        <time>2020-10-17T13:36:35Z</time>
      </trkpt>
      <trkpt lat="42.277083" lon="2.728105">
        <ele>494.010</ele>
        <time>2020-10-17T13:36:35Z</time>
      </trkpt>
      <trkpt lat="42.276967" lon="2.728041">
        <ele>493.840</ele>
        <time>2020-10-17T13:36:37Z</time>
      </trkpt>
      <trkpt lat="42.276858" lon="2.727992">
        <ele>493.625</ele>
        <time>2020-10-17T13:36:39Z</time>
      </trkpt>
      <trkpt lat="42.276802" lon="2.727974">
        <ele>493.484</ele>
        <time>2020-10-17T13:36:40Z</time>
      </trkpt>
      <trkpt lat="42.276802" lon="2.727974">
        <ele>493.407</ele>
        <time>2020-10-17T13:36:40Z</time>
      </trkpt>
      <trkpt lat="42.276744" lon="2.727946">
        <ele>493.217</ele>
        <time>2020-10-17T13:36:41Z</time>
      </trkpt>
      <trkpt lat="42.276631" lon="2.727856">
        <ele>492.908</ele>
        <time>2020-10-17T13:36:43Z</time>
      </trkpt>
      <trkpt lat="42.276512" lon="2.727748">
        <ele>492.523</ele>
        <time>2020-10-17T13:36:45Z</time>
      </trkpt>
      <trkpt lat="42.276385" lon="2.727679">
        <ele>492.276</ele>
        <time>2020-10-17T13:36:47Z</time>
      </trkpt>
      <trkpt lat="42.276272" lon="2.727689">
        <ele>491.795</ele>
        <time>2020-10-17T13:36:49Z</time>
      </trkpt>
      <trkpt lat="42.276182" lon="2.727717">
        <ele>491.184</ele>
        <time>2020-10-17T13:36:51Z</time>
      </trkpt>
      <trkpt lat="42.276125" lon="2.727791">
        <ele>490.483</ele>
        <time>2020-10-17T13:36:53Z</time>
      </trkpt>
      <trkpt lat="42.276133" lon="2.727898">
        <ele>489.631</ele>
        <time>2020-10-17T13:36:55Z</time>
      </trkpt>
      <trkpt lat="42.276163" lon="2.727950">
        <ele>488.911</ele>
        <time>2020-10-17T13:36:56Z</time>
      </trkpt>
      <trkpt lat="42.276163" lon="2.727950">
        <ele>488.916</ele>
        <time>2020-10-17T13:36:56Z</time>
      </trkpt>
      <trkpt lat="42.276201" lon="2.728002">
        <ele>488.675</ele>
        <time>2020-10-17T13:36:57Z</time>
      </trkpt>
      <trkpt lat="42.276265" lon="2.728118">
        <ele>488.528</ele>
        <time>2020-10-17T13:36:59Z</time>
      </trkpt>
      <trkpt lat="42.276302" lon="2.728276">
        <ele>488.020</ele>
        <time>2020-10-17T13:37:01Z</time>
      </trkpt>
      <trkpt lat="42.276302" lon="2.728276">
        <ele>488.008</ele>
        <time>2020-10-17T13:37:01Z</time>
      </trkpt>
      <trkpt lat="42.276313" lon="2.728364">
        <ele>487.992</ele>
        <time>2020-10-17T13:37:02Z</time>
      </trkpt>
      <trkpt lat="42.276325" lon="2.728549">
        <ele>487.845</ele>
        <time>2020-10-17T13:37:04Z</time>
      </trkpt>
      <trkpt lat="42.276327" lon="2.728745">
        <ele>487.544</ele>
        <time>2020-10-17T13:37:06Z</time>
      </trkpt>
      <trkpt lat="42.276321" lon="2.728840">
        <ele>487.353</ele>
        <time>2020-10-17T13:37:07Z</time>
      </trkpt>
      <trkpt lat="42.276290" lon="2.729009">
        <ele>487.392</ele>
        <time>2020-10-17T13:37:09Z</time>
      </trkpt>
      <trkpt lat="42.276271" lon="2.729076">
        <ele>487.310</ele>
        <time>2020-10-17T13:37:10Z</time>
      </trkpt>
      <trkpt lat="42.276271" lon="2.729076">
        <ele>487.370</ele>
        <time>2020-10-17T13:37:10Z</time>
      </trkpt>
      <trkpt lat="42.276212" lon="2.729205">
        <ele>487.245</ele>
        <time>2020-10-17T13:37:12Z</time>
      </trkpt>
      <trkpt lat="42.276095" lon="2.729303">
        <ele>487.131</ele>
        <time>2020-10-17T13:37:14Z</time>
      </trkpt>
      <trkpt lat="42.276020" lon="2.729357">
        <ele>487.061</ele>
        <time>2020-10-17T13:37:15Z</time>
      </trkpt>
      <trkpt lat="42.276020" lon="2.729357">
        <ele>487.007</ele>
        <time>2020-10-17T13:37:15Z</time>
      </trkpt>
      <trkpt lat="42.275950" lon="2.729411">
        <ele>486.708</ele>
        <time>2020-10-17T13:37:16Z</time>
      </trkpt>
      <trkpt lat="42.275877" lon="2.729465">
        <ele>486.338</ele>
        <time>2020-10-17T13:37:17Z</time>
      </trkpt>
      <trkpt lat="42.275723" lon="2.729566">
        <ele>485.561</ele>
        <time>2020-10-17T13:37:19Z</time>
      </trkpt>
      <trkpt lat="42.275723" lon="2.729566">
        <ele>485.520</ele>
        <time>2020-10-17T13:37:19Z</time>
      </trkpt>
      <trkpt lat="42.275644" lon="2.729594">
        <ele>485.349</ele>
        <time>2020-10-17T13:37:20Z</time>
      </trkpt>
      <trkpt lat="42.275488" lon="2.729578">
        <ele>485.228</ele>
        <time>2020-10-17T13:37:22Z</time>
      </trkpt>
      <trkpt lat="42.275432" lon="2.729545">
        <ele>485.096</ele>
        <time>2020-10-17T13:37:23Z</time>
      </trkpt>
      <trkpt lat="42.275432" lon="2.729545">
        <ele>485.066</ele>
        <time>2020-10-17T13:37:23Z</time>
      </trkpt>
      <trkpt lat="42.275388" lon="2.729508">
        <ele>484.911</ele>
        <time>2020-10-17T13:37:24Z</time>
      </trkpt>
      <trkpt lat="42.275343" lon="2.729495">
        <ele>484.643</ele>
        <time>2020-10-17T13:37:26Z</time>
      </trkpt>
      <trkpt lat="42.275355" lon="2.729608">
        <ele>484.464</ele>
        <time>2020-10-17T13:37:29Z</time>
      </trkpt>
      <trkpt lat="42.275381" lon="2.729678">
        <ele>484.310</ele>
        <time>2020-10-17T13:37:30Z</time>
      </trkpt>
      <trkpt lat="42.275446" lon="2.729832">
        <ele>484.408</ele>
        <time>2020-10-17T13:37:32Z</time>
      </trkpt>
      <trkpt lat="42.275474" lon="2.729916">
        <ele>484.539</ele>
        <time>2020-10-17T13:37:33Z</time>
      </trkpt>
      <trkpt lat="42.275493" lon="2.730095">
        <ele>484.482</ele>
        <time>2020-10-17T13:37:35Z</time>
      </trkpt>
      <trkpt lat="42.275475" lon="2.730183">
        <ele>484.231</ele>
        <time>2020-10-17T13:37:36Z</time>
      </trkpt>
      <trkpt lat="42.275475" lon="2.730183">
        <ele>484.210</ele>
        <time>2020-10-17T13:37:36Z</time>
      </trkpt>
      <trkpt lat="42.275426" lon="2.730280">
        <ele>484.179</ele>
        <time>2020-10-17T13:37:38Z</time>
      </trkpt>
      <trkpt lat="42.275378" lon="2.730320">
        <ele>483.767</ele>
        <time>2020-10-17T13:37:40Z</time>
      </trkpt>
      <trkpt lat="42.275316" lon="2.730316">
        <ele>482.617</ele>
        <time>2020-10-17T13:37:43Z</time>
      </trkpt>
      <trkpt lat="42.275296" lon="2.730256">
        <ele>482.292</ele>
        <time>2020-10-17T13:37:46Z</time>
      </trkpt>
      <trkpt lat="42.275321" lon="2.730191">
        <ele>482.333</ele>
        <time>2020-10-17T13:37:48Z</time>
      </trkpt>
      <trkpt lat="42.275342" lon="2.730108">
        <ele>482.723</ele>
        <time>2020-10-17T13:37:49Z</time>
      </trkpt>
      <trkpt lat="42.275342" lon="2.730108">
        <ele>482.715</ele>
        <time>2020-10-17T13:37:49Z</time>
      </trkpt>
      <trkpt lat="42.275335" lon="2.730014">
        <ele>483.008</ele>
        <time>2020-10-17T13:37:51Z</time>
      </trkpt>
      <trkpt lat="42.275324" lon="2.729895">
        <ele>483.568</ele>
        <time>2020-10-17T13:37:53Z</time>
      </trkpt>
      <trkpt lat="42.275317" lon="2.729818">
        <ele>484.151</ele>
        <time>2020-10-17T13:37:54Z</time>
      </trkpt>
      <trkpt lat="42.275282" lon="2.729745">
        <ele>484.740</ele>
        <time>2020-10-17T13:37:56Z</time>
      </trkpt>
      <trkpt lat="42.275214" lon="2.729768">
        <ele>485.289</ele>
        <time>2020-10-17T13:37:58Z</time>
      </trkpt>
      <trkpt lat="42.275172" lon="2.729855">
        <ele>485.578</ele>
        <time>2020-10-17T13:38:00Z</time>
      </trkpt>
      <trkpt lat="42.275163" lon="2.729988">
        <ele>485.896</ele>
        <time>2020-10-17T13:38:02Z</time>
      </trkpt>
      <trkpt lat="42.275126" lon="2.730134">
        <ele>485.956</ele>
        <time>2020-10-17T13:38:04Z</time>
      </trkpt>
      <trkpt lat="42.275097" lon="2.730206">
        <ele>486.091</ele>
        <time>2020-10-17T13:38:05Z</time>
      </trkpt>
      <trkpt lat="42.275097" lon="2.730206">
        <ele>486.012</ele>
        <time>2020-10-17T13:38:05Z</time>
      </trkpt>
      <trkpt lat="42.275062" lon="2.730277">
        <ele>486.132</ele>
        <time>2020-10-17T13:38:06Z</time>
      </trkpt>
      <trkpt lat="42.274975" lon="2.730428">
        <ele>486.305</ele>
        <time>2020-10-17T13:38:08Z</time>
      </trkpt>
      <trkpt lat="42.274868" lon="2.730614">
        <ele>486.608</ele>
        <time>2020-10-17T13:38:10Z</time>
      </trkpt>
      <trkpt lat="42.274810" lon="2.730717">
        <ele>486.836</ele>
        <time>2020-10-17T13:38:11Z</time>
      </trkpt>
      <trkpt lat="42.274698" lon="2.730928">
        <ele>486.929</ele>
        <time>2020-10-17T13:38:13Z</time>
      </trkpt>
      <trkpt lat="42.274587" lon="2.731153">
        <ele>486.948</ele>
        <time>2020-10-17T13:38:15Z</time>
      </trkpt>
      <trkpt lat="42.274587" lon="2.731153">
        <ele>486.997</ele>
        <time>2020-10-17T13:38:15Z</time>
      </trkpt>
      <trkpt lat="42.274587" lon="2.731153">
        <ele>486.916</ele>
        <time>2020-10-17T13:38:15Z</time>
      </trkpt>
      <trkpt lat="42.274587" lon="2.731153">
        <ele>486.934</ele>
        <time>2020-10-17T13:38:15Z</time>
      </trkpt>
      <trkpt lat="42.274587" lon="2.731153">
        <ele>486.924</ele>
        <time>2020-10-17T13:38:15Z</time>
      </trkpt>
      <trkpt lat="42.274529" lon="2.731267">
        <ele>486.919</ele>
        <time>2020-10-17T13:38:16Z</time>
      </trkpt>
      <trkpt lat="42.274414" lon="2.731485">
        <ele>486.957</ele>
        <time>2020-10-17T13:38:18Z</time>
      </trkpt>
      <trkpt lat="42.274360" lon="2.731591">
        <ele>486.900</ele>
        <time>2020-10-17T13:38:19Z</time>
      </trkpt>
      <trkpt lat="42.274360" lon="2.731591">
        <ele>486.920</ele>
        <time>2020-10-17T13:38:19Z</time>
      </trkpt>
      <trkpt lat="42.274264" lon="2.731806">
        <ele>487.308</ele>
        <time>2020-10-17T13:38:21Z</time>
      </trkpt>
      <trkpt lat="42.274264" lon="2.731806">
        <ele>487.380</ele>
        <time>2020-10-17T13:38:21Z</time>
      </trkpt>
      <trkpt lat="42.274199" lon="2.731985">
        <ele>488.043</ele>
        <time>2020-10-17T13:38:23Z</time>
      </trkpt>
      <trkpt lat="42.274171" lon="2.732051">
        <ele>488.792</ele>
        <time>2020-10-17T13:38:24Z</time>
      </trkpt>
      <trkpt lat="42.274119" lon="2.732152">
        <ele>489.981</ele>
        <time>2020-10-17T13:38:26Z</time>
      </trkpt>
      <trkpt lat="42.274046" lon="2.732238">
        <ele>491.640</ele>
        <time>2020-10-17T13:38:28Z</time>
      </trkpt>
      <trkpt lat="42.273988" lon="2.732279">
        <ele>494.048</ele>
        <time>2020-10-17T13:38:29Z</time>
      </trkpt>
      <trkpt lat="42.273988" lon="2.732279">
        <ele>494.088</ele>
        <time>2020-10-17T13:38:29Z</time>
      </trkpt>
      <trkpt lat="42.273856" lon="2.732320">
        <ele>495.523</ele>
        <time>2020-10-17T13:38:31Z</time>
      </trkpt>
      <trkpt lat="42.273789" lon="2.732326">
        <ele>496.899</ele>
        <time>2020-10-17T13:38:32Z</time>
      </trkpt>
      <trkpt lat="42.273671" lon="2.732337">
        <ele>498.507</ele>
        <time>2020-10-17T13:38:34Z</time>
      </trkpt>
      <trkpt lat="42.273575" lon="2.732390">
        <ele>500.027</ele>
        <time>2020-10-17T13:38:36Z</time>
      </trkpt>
      <trkpt lat="42.273528" lon="2.732432">
        <ele>501.608</ele>
        <time>2020-10-17T13:38:37Z</time>
      </trkpt>
      <trkpt lat="42.273528" lon="2.732432">
        <ele>501.654</ele>
        <time>2020-10-17T13:38:37Z</time>
      </trkpt>
      <trkpt lat="42.273428" lon="2.732507">
        <ele>501.987</ele>
        <time>2020-10-17T13:38:39Z</time>
      </trkpt>
      <trkpt lat="42.273376" lon="2.732540">
        <ele>502.166</ele>
        <time>2020-10-17T13:38:40Z</time>
      </trkpt>
      <trkpt lat="42.273294" lon="2.732636">
        <ele>502.225</ele>
        <time>2020-10-17T13:38:42Z</time>
      </trkpt>
      <trkpt lat="42.273294" lon="2.732636">
        <ele>502.264</ele>
        <time>2020-10-17T13:38:42Z</time>
      </trkpt>
      <trkpt lat="42.273270" lon="2.732703">
        <ele>501.972</ele>
        <time>2020-10-17T13:38:43Z</time>
      </trkpt>
      <trkpt lat="42.273270" lon="2.732703">
        <ele>501.962</ele>
        <time>2020-10-17T13:38:43Z</time>
      </trkpt>
      <trkpt lat="42.273260" lon="2.732780">
        <ele>501.757</ele>
        <time>2020-10-17T13:38:44Z</time>
      </trkpt>
      <trkpt lat="42.273256" lon="2.732940">
        <ele>501.589</ele>
        <time>2020-10-17T13:38:46Z</time>
      </trkpt>
      <trkpt lat="42.273256" lon="2.732940">
        <ele>501.506</ele>
        <time>2020-10-17T13:38:46Z</time>
      </trkpt>
      <trkpt lat="42.273246" lon="2.733016">
        <ele>501.426</ele>
        <time>2020-10-17T13:38:47Z</time>
      </trkpt>
      <trkpt lat="42.273226" lon="2.733087">
        <ele>501.308</ele>
        <time>2020-10-17T13:38:48Z</time>
      </trkpt>
      <trkpt lat="42.273174" lon="2.733202">
        <ele>501.423</ele>
        <time>2020-10-17T13:38:50Z</time>
      </trkpt>
      <trkpt lat="42.273174" lon="2.733202">
        <ele>501.476</ele>
        <time>2020-10-17T13:38:50Z</time>
      </trkpt>
      <trkpt lat="42.273123" lon="2.733344">
        <ele>501.435</ele>
        <time>2020-10-17T13:38:52Z</time>
      </trkpt>
      <trkpt lat="42.273104" lon="2.733438">
        <ele>501.654</ele>
        <time>2020-10-17T13:38:53Z</time>
      </trkpt>
      <trkpt lat="42.273083" lon="2.733648">
        <ele>501.973</ele>
        <time>2020-10-17T13:38:55Z</time>
      </trkpt>
      <trkpt lat="42.273072" lon="2.733773">
        <ele>502.181</ele>
        <time>2020-10-17T13:38:56Z</time>
      </trkpt>
      <trkpt lat="42.273047" lon="2.734026">
        <ele>502.861</ele>
        <time>2020-10-17T13:38:58Z</time>
      </trkpt>
      <trkpt lat="42.273047" lon="2.734026">
        <ele>502.896</ele>
        <time>2020-10-17T13:38:58Z</time>
      </trkpt>
      <trkpt lat="42.273033" lon="2.734150">
        <ele>502.989</ele>
        <time>2020-10-17T13:38:59Z</time>
      </trkpt>
      <trkpt lat="42.273016" lon="2.734262">
        <ele>502.806</ele>
        <time>2020-10-17T13:39:00Z</time>
      </trkpt>
      <trkpt lat="42.272971" lon="2.734429">
        <ele>502.726</ele>
        <time>2020-10-17T13:39:02Z</time>
      </trkpt>
      <trkpt lat="42.272971" lon="2.734429">
        <ele>502.708</ele>
        <time>2020-10-17T13:39:02Z</time>
      </trkpt>
      <trkpt lat="42.272948" lon="2.734502">
        <ele>502.833</ele>
        <time>2020-10-17T13:39:03Z</time>
      </trkpt>
      <trkpt lat="42.272928" lon="2.734569">
        <ele>502.946</ele>
        <time>2020-10-17T13:39:04Z</time>
      </trkpt>
      <trkpt lat="42.272895" lon="2.734692">
        <ele>503.265</ele>
        <time>2020-10-17T13:39:06Z</time>
      </trkpt>
      <trkpt lat="42.272882" lon="2.734836">
        <ele>503.544</ele>
        <time>2020-10-17T13:39:08Z</time>
      </trkpt>
      <trkpt lat="42.272910" lon="2.734948">
        <ele>504.213</ele>
        <time>2020-10-17T13:39:14Z</time>
      </trkpt>
      <trkpt lat="42.272897" lon="2.735015">
        <ele>504.881</ele>
        <time>2020-10-17T13:39:15Z</time>
      </trkpt>
      <trkpt lat="42.272918" lon="2.735099">
        <ele>505.151</ele>
        <time>2020-10-17T13:39:17Z</time>
      </trkpt>
      <trkpt lat="42.272918" lon="2.735264">
        <ele>505.266</ele>
        <time>2020-10-17T13:39:18Z</time>
      </trkpt>
      <trkpt lat="42.272914" lon="2.735325">
        <ele>505.323</ele>
        <time>2020-10-17T13:39:19Z</time>
      </trkpt>
      <trkpt lat="42.272895" lon="2.735402">
        <ele>505.483</ele>
        <time>2020-10-17T13:39:20Z</time>
      </trkpt>
      <trkpt lat="42.272895" lon="2.735402">
        <ele>505.411</ele>
        <time>2020-10-17T13:39:20Z</time>
      </trkpt>
      <trkpt lat="42.272853" lon="2.735438">
        <ele>505.408</ele>
        <time>2020-10-17T13:39:22Z</time>
      </trkpt>
      <trkpt lat="42.272847" lon="2.735531">
        <ele>505.497</ele>
        <time>2020-10-17T13:39:23Z</time>
      </trkpt>
      <trkpt lat="42.272847" lon="2.735531">
        <ele>505.470</ele>
        <time>2020-10-17T13:39:23Z</time>
      </trkpt>
      <trkpt lat="42.272844" lon="2.735595">
        <ele>505.449</ele>
        <time>2020-10-17T13:39:24Z</time>
      </trkpt>
      <trkpt lat="42.272840" lon="2.735676">
        <ele>505.498</ele>
        <time>2020-10-17T13:39:25Z</time>
      </trkpt>
      <trkpt lat="42.272841" lon="2.735759">
        <ele>505.537</ele>
        <time>2020-10-17T13:39:27Z</time>
      </trkpt>
      <trkpt lat="42.272841" lon="2.735759">
        <ele>505.545</ele>
        <time>2020-10-17T13:39:27Z</time>
      </trkpt>
      <trkpt lat="42.272848" lon="2.735901">
        <ele>505.795</ele>
        <time>2020-10-17T13:39:28Z</time>
      </trkpt>
      <trkpt lat="42.272879" lon="2.736110">
        <ele>506.370</ele>
        <time>2020-10-17T13:39:30Z</time>
      </trkpt>
      <trkpt lat="42.272908" lon="2.736227">
        <ele>506.833</ele>
        <time>2020-10-17T13:39:31Z</time>
      </trkpt>
      <trkpt lat="42.272939" lon="2.736343">
        <ele>507.223</ele>
        <time>2020-10-17T13:39:32Z</time>
      </trkpt>
      <trkpt lat="42.272976" lon="2.736503">
        <ele>507.715</ele>
        <time>2020-10-17T13:39:34Z</time>
      </trkpt>
      <trkpt lat="42.273000" lon="2.736620">
        <ele>508.108</ele>
        <time>2020-10-17T13:39:35Z</time>
      </trkpt>
      <trkpt lat="42.272982" lon="2.736705">
        <ele>508.618</ele>
        <time>2020-10-17T13:39:38Z</time>
      </trkpt>
      <trkpt lat="42.272984" lon="2.736803">
        <ele>509.041</ele>
        <time>2020-10-17T13:39:39Z</time>
      </trkpt>
      <trkpt lat="42.272987" lon="2.736903">
        <ele>509.430</ele>
        <time>2020-10-17T13:39:40Z</time>
      </trkpt>
      <trkpt lat="42.272972" lon="2.736970">
        <ele>509.789</ele>
        <time>2020-10-17T13:39:42Z</time>
      </trkpt>
      <trkpt lat="42.273000" lon="2.737020">
        <ele>510.228</ele>
        <time>2020-10-17T13:39:44Z</time>
      </trkpt>
      <trkpt lat="42.273000" lon="2.737020">
        <ele>510.286</ele>
        <time>2020-10-17T13:39:44Z</time>
      </trkpt>
      <trkpt lat="42.273008" lon="2.737091">
        <ele>510.466</ele>
        <time>2020-10-17T13:39:45Z</time>
      </trkpt>
      <trkpt lat="42.273002" lon="2.737151">
        <ele>510.441</ele>
        <time>2020-10-17T13:39:46Z</time>
      </trkpt>
      <trkpt lat="42.273010" lon="2.737331">
        <ele>509.355</ele>
        <time>2020-10-17T13:39:48Z</time>
      </trkpt>
      <trkpt lat="42.273035" lon="2.737419">
        <ele>507.507</ele>
        <time>2020-10-17T13:39:49Z</time>
      </trkpt>
      <trkpt lat="42.273035" lon="2.737419">
        <ele>507.517</ele>
        <time>2020-10-17T13:39:49Z</time>
      </trkpt>
      <trkpt lat="42.273083" lon="2.737512">
        <ele>506.908</ele>
        <time>2020-10-17T13:39:51Z</time>
      </trkpt>
      <trkpt lat="42.273173" lon="2.737724">
        <ele>506.280</ele>
        <time>2020-10-17T13:39:52Z</time>
      </trkpt>
      <trkpt lat="42.273236" lon="2.737945">
        <ele>504.983</ele>
        <time>2020-10-17T13:39:54Z</time>
      </trkpt>
      <trkpt lat="42.273236" lon="2.737945">
        <ele>504.962</ele>
        <time>2020-10-17T13:39:54Z</time>
      </trkpt>
      <trkpt lat="42.273251" lon="2.738108">
        <ele>504.361</ele>
        <time>2020-10-17T13:39:56Z</time>
      </trkpt>
      <trkpt lat="42.273267" lon="2.738193">
        <ele>503.570</ele>
        <time>2020-10-17T13:39:57Z</time>
      </trkpt>
      <trkpt lat="42.273267" lon="2.738193">
        <ele>503.548</ele>
        <time>2020-10-17T13:39:57Z</time>
      </trkpt>
      <trkpt lat="42.273296" lon="2.738281">
        <ele>502.918</ele>
        <time>2020-10-17T13:39:58Z</time>
      </trkpt>
      <trkpt lat="42.273335" lon="2.738366">
        <ele>502.293</ele>
        <time>2020-10-17T13:39:59Z</time>
      </trkpt>
      <trkpt lat="42.273439" lon="2.738519">
        <ele>501.024</ele>
        <time>2020-10-17T13:40:01Z</time>
      </trkpt>
      <trkpt lat="42.273498" lon="2.738583">
        <ele>499.104</ele>
        <time>2020-10-17T13:40:02Z</time>
      </trkpt>
      <trkpt lat="42.273498" lon="2.738583">
        <ele>499.114</ele>
        <time>2020-10-17T13:40:02Z</time>
      </trkpt>
      <trkpt lat="42.273622" lon="2.738706">
        <ele>498.008</ele>
        <time>2020-10-17T13:40:04Z</time>
      </trkpt>
      <trkpt lat="42.273681" lon="2.738762">
        <ele>496.977</ele>
        <time>2020-10-17T13:40:05Z</time>
      </trkpt>
      <trkpt lat="42.273780" lon="2.738845">
        <ele>495.530</ele>
        <time>2020-10-17T13:40:07Z</time>
      </trkpt>
      <trkpt lat="42.273871" lon="2.738925">
        <ele>493.829</ele>
        <time>2020-10-17T13:40:09Z</time>
      </trkpt>
      <trkpt lat="42.273941" lon="2.739054">
        <ele>491.858</ele>
        <time>2020-10-17T13:40:11Z</time>
      </trkpt>
      <trkpt lat="42.273964" lon="2.739134">
        <ele>490.327</ele>
        <time>2020-10-17T13:40:12Z</time>
      </trkpt>
      <trkpt lat="42.273962" lon="2.739326">
        <ele>487.375</ele>
        <time>2020-10-17T13:40:14Z</time>
      </trkpt>
      <trkpt lat="42.273962" lon="2.739326">
        <ele>487.335</ele>
        <time>2020-10-17T13:40:14Z</time>
      </trkpt>
      <trkpt lat="42.273923" lon="2.739530">
        <ele>486.120</ele>
        <time>2020-10-17T13:40:16Z</time>
      </trkpt>
      <trkpt lat="42.273870" lon="2.739726">
        <ele>484.981</ele>
        <time>2020-10-17T13:40:18Z</time>
      </trkpt>
      <trkpt lat="42.273840" lon="2.739825">
        <ele>483.361</ele>
        <time>2020-10-17T13:40:19Z</time>
      </trkpt>
      <trkpt lat="42.273840" lon="2.739825">
        <ele>483.317</ele>
        <time>2020-10-17T13:40:19Z</time>
      </trkpt>
      <trkpt lat="42.273809" lon="2.739923">
        <ele>482.708</ele>
        <time>2020-10-17T13:40:20Z</time>
      </trkpt>
      <trkpt lat="42.273741" lon="2.740102">
        <ele>481.833</ele>
        <time>2020-10-17T13:40:22Z</time>
      </trkpt>
      <trkpt lat="42.273708" lon="2.740181">
        <ele>480.646</ele>
        <time>2020-10-17T13:40:23Z</time>
      </trkpt>
      <trkpt lat="42.273708" lon="2.740181">
        <ele>480.615</ele>
        <time>2020-10-17T13:40:23Z</time>
      </trkpt>
      <trkpt lat="42.273665" lon="2.740246">
        <ele>480.034</ele>
        <time>2020-10-17T13:40:24Z</time>
      </trkpt>
      <trkpt lat="42.273560" lon="2.740311">
        <ele>479.343</ele>
        <time>2020-10-17T13:40:26Z</time>
      </trkpt>
      <trkpt lat="42.273425" lon="2.740345">
        <ele>478.551</ele>
        <time>2020-10-17T13:40:28Z</time>
      </trkpt>
      <trkpt lat="42.273290" lon="2.740422">
        <ele>477.671</ele>
        <time>2020-10-17T13:40:30Z</time>
      </trkpt>
      <trkpt lat="42.273233" lon="2.740476">
        <ele>476.556</ele>
        <time>2020-10-17T13:40:31Z</time>
      </trkpt>
      <trkpt lat="42.273233" lon="2.740476">
        <ele>476.547</ele>
        <time>2020-10-17T13:40:31Z</time>
      </trkpt>
      <trkpt lat="42.273141" lon="2.740580">
        <ele>475.929</ele>
        <time>2020-10-17T13:40:33Z</time>
      </trkpt>
      <trkpt lat="42.273098" lon="2.740629">
        <ele>475.421</ele>
        <time>2020-10-17T13:40:34Z</time>
      </trkpt>
      <trkpt lat="42.273026" lon="2.740730">
        <ele>474.308</ele>
        <time>2020-10-17T13:40:36Z</time>
      </trkpt>
      <trkpt lat="42.273026" lon="2.740730">
        <ele>474.389</ele>
        <time>2020-10-17T13:40:36Z</time>
      </trkpt>
      <trkpt lat="42.272998" lon="2.740790">
        <ele>473.872</ele>
        <time>2020-10-17T13:40:37Z</time>
      </trkpt>
      <trkpt lat="42.272934" lon="2.740902">
        <ele>473.131</ele>
        <time>2020-10-17T13:40:39Z</time>
      </trkpt>
      <trkpt lat="42.272885" lon="2.740949">
        <ele>471.970</ele>
        <time>2020-10-17T13:40:40Z</time>
      </trkpt>
      <trkpt lat="42.272885" lon="2.740949">
        <ele>471.969</ele>
        <time>2020-10-17T13:40:40Z</time>
      </trkpt>
      <trkpt lat="42.272825" lon="2.740995">
        <ele>471.447</ele>
        <time>2020-10-17T13:40:41Z</time>
      </trkpt>
      <trkpt lat="42.272696" lon="2.741102">
        <ele>470.717</ele>
        <time>2020-10-17T13:40:43Z</time>
      </trkpt>
      <trkpt lat="42.272631" lon="2.741165">
        <ele>469.612</ele>
        <time>2020-10-17T13:40:44Z</time>
      </trkpt>
      <trkpt lat="42.272631" lon="2.741165">
        <ele>469.619</ele>
        <time>2020-10-17T13:40:44Z</time>
      </trkpt>
      <trkpt lat="42.272510" lon="2.741301">
        <ele>469.009</ele>
        <time>2020-10-17T13:40:46Z</time>
      </trkpt>
      <trkpt lat="42.272459" lon="2.741382">
        <ele>467.819</ele>
        <time>2020-10-17T13:40:47Z</time>
      </trkpt>
      <trkpt lat="42.272459" lon="2.741382">
        <ele>467.808</ele>
        <time>2020-10-17T13:40:47Z</time>
      </trkpt>
      <trkpt lat="42.272422" lon="2.741467">
        <ele>467.126</ele>
        <time>2020-10-17T13:40:48Z</time>
      </trkpt>
      <trkpt lat="42.272422" lon="2.741467">
        <ele>467.159</ele>
        <time>2020-10-17T13:40:48Z</time>
      </trkpt>
      <trkpt lat="42.272395" lon="2.741548">
        <ele>466.758</ele>
        <time>2020-10-17T13:40:49Z</time>
      </trkpt>
      <trkpt lat="42.272385" lon="2.741618">
        <ele>466.247</ele>
        <time>2020-10-17T13:40:50Z</time>
      </trkpt>
      <trkpt lat="42.272387" lon="2.741715">
        <ele>465.326</ele>
        <time>2020-10-17T13:40:52Z</time>
      </trkpt>
      <trkpt lat="42.272342" lon="2.741778">
        <ele>464.034</ele>
        <time>2020-10-17T13:40:54Z</time>
      </trkpt>
      <trkpt lat="42.272243" lon="2.741767">
        <ele>462.584</ele>
        <time>2020-10-17T13:40:56Z</time>
      </trkpt>
      <trkpt lat="42.272186" lon="2.741742">
        <ele>460.469</ele>
        <time>2020-10-17T13:40:57Z</time>
      </trkpt>
      <trkpt lat="42.272186" lon="2.741742">
        <ele>460.417</ele>
        <time>2020-10-17T13:40:57Z</time>
      </trkpt>
      <trkpt lat="42.272066" lon="2.741728">
        <ele>459.487</ele>
        <time>2020-10-17T13:40:59Z</time>
      </trkpt>
      <trkpt lat="42.272012" lon="2.741757">
        <ele>458.615</ele>
        <time>2020-10-17T13:41:00Z</time>
      </trkpt>
      <trkpt lat="42.271910" lon="2.741871">
        <ele>457.808</ele>
        <time>2020-10-17T13:41:02Z</time>
      </trkpt>
      <trkpt lat="42.271823" lon="2.742002">
        <ele>457.046</ele>
        <time>2020-10-17T13:41:04Z</time>
      </trkpt>
      <trkpt lat="42.271766" lon="2.742123">
        <ele>456.329</ele>
        <time>2020-10-17T13:41:06Z</time>
      </trkpt>
      <trkpt lat="42.271740" lon="2.742185">
        <ele>455.788</ele>
        <time>2020-10-17T13:41:07Z</time>
      </trkpt>
      <trkpt lat="42.271657" lon="2.742309">
        <ele>455.147</ele>
        <time>2020-10-17T13:41:09Z</time>
      </trkpt>
      <trkpt lat="42.271596" lon="2.742364">
        <ele>454.336</ele>
        <time>2020-10-17T13:41:10Z</time>
      </trkpt>
      <trkpt lat="42.271596" lon="2.742364">
        <ele>454.324</ele>
        <time>2020-10-17T13:41:10Z</time>
      </trkpt>
      <trkpt lat="42.271478" lon="2.742439">
        <ele>454.084</ele>
        <time>2020-10-17T13:41:12Z</time>
      </trkpt>
      <trkpt lat="42.271375" lon="2.742491">
        <ele>454.049</ele>
        <time>2020-10-17T13:41:14Z</time>
      </trkpt>
      <trkpt lat="42.271286" lon="2.742548">
        <ele>454.521</ele>
        <time>2020-10-17T13:41:16Z</time>
      </trkpt>
      <trkpt lat="42.271229" lon="2.742579">
        <ele>455.241</ele>
        <time>2020-10-17T13:41:17Z</time>
      </trkpt>
      <trkpt lat="42.271229" lon="2.742579">
        <ele>455.205</ele>
        <time>2020-10-17T13:41:17Z</time>
      </trkpt>
      <trkpt lat="42.271169" lon="2.742598">
        <ele>455.308</ele>
        <time>2020-10-17T13:41:18Z</time>
      </trkpt>
      <trkpt lat="42.271109" lon="2.742597">
        <ele>455.137</ele>
        <time>2020-10-17T13:41:19Z</time>
      </trkpt>
      <trkpt lat="42.271029" lon="2.742520">
        <ele>454.180</ele>
        <time>2020-10-17T13:41:21Z</time>
      </trkpt>
      <trkpt lat="42.271029" lon="2.742520">
        <ele>454.129</ele>
        <time>2020-10-17T13:41:21Z</time>
      </trkpt>
      <trkpt lat="42.271007" lon="2.742363">
        <ele>453.758</ele>
        <time>2020-10-17T13:41:23Z</time>
      </trkpt>
      <trkpt lat="42.270996" lon="2.742281">
        <ele>453.367</ele>
        <time>2020-10-17T13:41:24Z</time>
      </trkpt>
      <trkpt lat="42.270935" lon="2.742125">
        <ele>452.775</ele>
        <time>2020-10-17T13:41:26Z</time>
      </trkpt>
      <trkpt lat="42.270883" lon="2.742050">
        <ele>451.935</ele>
        <time>2020-10-17T13:41:27Z</time>
      </trkpt>
      <trkpt lat="42.270823" lon="2.741974">
        <ele>450.970</ele>
        <time>2020-10-17T13:41:28Z</time>
      </trkpt>
      <trkpt lat="42.270699" lon="2.741832">
        <ele>448.973</ele>
        <time>2020-10-17T13:41:30Z</time>
      </trkpt>
      <trkpt lat="42.270699" lon="2.741832">
        <ele>448.985</ele>
        <time>2020-10-17T13:41:30Z</time>
      </trkpt>
      <trkpt lat="42.270601" lon="2.741711">
        <ele>447.913</ele>
        <time>2020-10-17T13:41:32Z</time>
      </trkpt>
      <trkpt lat="42.270569" lon="2.741661">
        <ele>446.608</ele>
        <time>2020-10-17T13:41:33Z</time>
      </trkpt>
      <trkpt lat="42.270569" lon="2.741661">
        <ele>446.652</ele>
        <time>2020-10-17T13:41:33Z</time>
      </trkpt>
      <trkpt lat="42.270534" lon="2.741595">
        <ele>446.045</ele>
        <time>2020-10-17T13:41:35Z</time>
      </trkpt>
      <trkpt lat="42.270490" lon="2.741556">
        <ele>445.574</ele>
        <time>2020-10-17T13:41:37Z</time>
      </trkpt>
      <trkpt lat="42.270448" lon="2.741617">
        <ele>445.133</ele>
        <time>2020-10-17T13:41:39Z</time>
      </trkpt>
      <trkpt lat="42.270443" lon="2.741716">
        <ele>444.932</ele>
        <time>2020-10-17T13:41:41Z</time>
      </trkpt>
      <trkpt lat="42.270462" lon="2.741795">
        <ele>444.660</ele>
        <time>2020-10-17T13:41:42Z</time>
      </trkpt>
      <trkpt lat="42.270462" lon="2.741795">
        <ele>444.630</ele>
        <time>2020-10-17T13:41:42Z</time>
      </trkpt>
      <trkpt lat="42.270497" lon="2.741887">
        <ele>444.555</ele>
        <time>2020-10-17T13:41:43Z</time>
      </trkpt>
      <trkpt lat="42.270539" lon="2.741983">
        <ele>444.419</ele>
        <time>2020-10-17T13:41:44Z</time>
      </trkpt>
      <trkpt lat="42.270583" lon="2.742081">
        <ele>444.109</ele>
        <time>2020-10-17T13:41:45Z</time>
      </trkpt>
      <trkpt lat="42.270663" lon="2.742289">
        <ele>443.819</ele>
        <time>2020-10-17T13:41:47Z</time>
      </trkpt>
      <trkpt lat="42.270689" lon="2.742406">
        <ele>443.408</ele>
        <time>2020-10-17T13:41:48Z</time>
      </trkpt>
      <trkpt lat="42.270708" lon="2.742635">
        <ele>442.946</ele>
        <time>2020-10-17T13:41:50Z</time>
      </trkpt>
      <trkpt lat="42.270713" lon="2.742861">
        <ele>442.199</ele>
        <time>2020-10-17T13:41:52Z</time>
      </trkpt>
      <trkpt lat="42.270713" lon="2.742980">
        <ele>441.478</ele>
        <time>2020-10-17T13:41:53Z</time>
      </trkpt>
      <trkpt lat="42.270709" lon="2.743210">
        <ele>440.577</ele>
        <time>2020-10-17T13:41:55Z</time>
      </trkpt>
      <trkpt lat="42.270709" lon="2.743210">
        <ele>440.596</ele>
        <time>2020-10-17T13:41:55Z</time>
      </trkpt>
      <trkpt lat="42.270704" lon="2.743315">
        <ele>440.284</ele>
        <time>2020-10-17T13:41:56Z</time>
      </trkpt>
      <trkpt lat="42.270697" lon="2.743413">
        <ele>440.094</ele>
        <time>2020-10-17T13:41:57Z</time>
      </trkpt>
      <trkpt lat="42.270672" lon="2.743572">
        <ele>440.049</ele>
        <time>2020-10-17T13:41:59Z</time>
      </trkpt>
      <trkpt lat="42.270658" lon="2.743649">
        <ele>440.038</ele>
        <time>2020-10-17T13:42:00Z</time>
      </trkpt>
      <trkpt lat="42.270658" lon="2.743649">
        <ele>440.070</ele>
        <time>2020-10-17T13:42:00Z</time>
      </trkpt>
      <trkpt lat="42.270650" lon="2.743729">
        <ele>440.017</ele>
        <time>2020-10-17T13:42:01Z</time>
      </trkpt>
      <trkpt lat="42.270667" lon="2.743881">
        <ele>439.708</ele>
        <time>2020-10-17T13:42:03Z</time>
      </trkpt>
      <trkpt lat="42.270698" lon="2.743941">
        <ele>439.638</ele>
        <time>2020-10-17T13:42:04Z</time>
      </trkpt>
      <trkpt lat="42.270698" lon="2.743941">
        <ele>439.661</ele>
        <time>2020-10-17T13:42:04Z</time>
      </trkpt>
      <trkpt lat="42.270783" lon="2.743989">
        <ele>439.450</ele>
        <time>2020-10-17T13:42:06Z</time>
      </trkpt>
      <trkpt lat="42.270851" lon="2.743992">
        <ele>439.059</ele>
        <time>2020-10-17T13:42:07Z</time>
      </trkpt>
      <trkpt lat="42.271009" lon="2.743923">
        <ele>438.228</ele>
        <time>2020-10-17T13:42:09Z</time>
      </trkpt>
      <trkpt lat="42.271141" lon="2.743864">
        <ele>437.166</ele>
        <time>2020-10-17T13:42:11Z</time>
      </trkpt>
      <trkpt lat="42.271262" lon="2.743859">
        <ele>435.056</ele>
        <time>2020-10-17T13:42:13Z</time>
      </trkpt>
      <trkpt lat="42.271262" lon="2.743859">
        <ele>435.041</ele>
        <time>2020-10-17T13:42:13Z</time>
      </trkpt>
      <trkpt lat="42.271326" lon="2.743869">
        <ele>434.372</ele>
        <time>2020-10-17T13:42:14Z</time>
      </trkpt>
      <trkpt lat="42.271398" lon="2.743872">
        <ele>433.513</ele>
        <time>2020-10-17T13:42:15Z</time>
      </trkpt>
      <trkpt lat="42.271475" lon="2.743869">
        <ele>432.914</ele>
        <time>2020-10-17T13:42:16Z</time>
      </trkpt>
      <trkpt lat="42.271652" lon="2.743827">
        <ele>431.808</ele>
        <time>2020-10-17T13:42:18Z</time>
      </trkpt>
      <trkpt lat="42.271652" lon="2.743827">
        <ele>431.822</ele>
        <time>2020-10-17T13:42:18Z</time>
      </trkpt>
      <trkpt lat="42.271843" lon="2.743812">
        <ele>431.285</ele>
        <time>2020-10-17T13:42:20Z</time>
      </trkpt>
      <trkpt lat="42.271992" lon="2.743880">
        <ele>430.734</ele>
        <time>2020-10-17T13:42:22Z</time>
      </trkpt>
      <trkpt lat="42.272106" lon="2.743997">
        <ele>430.133</ele>
        <time>2020-10-17T13:42:24Z</time>
      </trkpt>
      <trkpt lat="42.272156" lon="2.744057">
        <ele>429.222</ele>
        <time>2020-10-17T13:42:25Z</time>
      </trkpt>
      <trkpt lat="42.272156" lon="2.744057">
        <ele>429.230</ele>
        <time>2020-10-17T13:42:25Z</time>
      </trkpt>
      <trkpt lat="42.272232" lon="2.744179">
        <ele>428.760</ele>
        <time>2020-10-17T13:42:27Z</time>
      </trkpt>
      <trkpt lat="42.272234" lon="2.744288">
        <ele>428.095</ele>
        <time>2020-10-17T13:42:29Z</time>
      </trkpt>
      <trkpt lat="42.272221" lon="2.744349">
        <ele>427.393</ele>
        <time>2020-10-17T13:42:31Z</time>
      </trkpt>
      <trkpt lat="42.272280" lon="2.744320">
        <ele>426.565</ele>
        <time>2020-10-17T13:42:35Z</time>
      </trkpt>
      <trkpt lat="42.272371" lon="2.744271">
        <ele>424.521</ele>
        <time>2020-10-17T13:43:02Z</time>
      </trkpt>
      <trkpt lat="42.272434" lon="2.744318">
        <ele>424.308</ele>
        <time>2020-10-17T13:43:04Z</time>
      </trkpt>
      <trkpt lat="42.272499" lon="2.744298">
        <ele>422.834</ele>
        <time>2020-10-17T13:43:22Z</time>
      </trkpt>
      <trkpt lat="42.272499" lon="2.744298">
        <ele>422.817</ele>
        <time>2020-10-17T13:43:22Z</time>
      </trkpt>
      <trkpt lat="42.272547" lon="2.744293">
        <ele>422.636</ele>
        <time>2020-10-17T13:43:24Z</time>
      </trkpt>
      <trkpt lat="42.272485" lon="2.744288">
        <ele>422.365</ele>
        <time>2020-10-17T13:44:05Z</time>
      </trkpt>
      <trkpt lat="42.272485" lon="2.744288">
        <ele>422.354</ele>
        <time>2020-10-17T13:44:05Z</time>
      </trkpt>
      <trkpt lat="42.272429" lon="2.744293">
        <ele>422.752</ele>
        <time>2020-10-17T13:44:09Z</time>
      </trkpt>
      <trkpt lat="42.272429" lon="2.744293">
        <ele>422.752</ele>
        <time>2020-10-17T13:44:09Z</time>
      </trkpt>
      <trkpt lat="42.272380" lon="2.744286">
        <ele>422.167</ele>
        <time>2020-10-17T13:44:12Z</time>
      </trkpt>
      <trkpt lat="42.272380" lon="2.744286">
        <ele>422.198</ele>
        <time>2020-10-17T13:44:12Z</time>
      </trkpt>
      <trkpt lat="42.272335" lon="2.744284">
        <ele>420.115</ele>
        <time>2020-10-17T13:44:18Z</time>
      </trkpt>
      <trkpt lat="42.272335" lon="2.744284">
        <ele>420.126</ele>
        <time>2020-10-17T13:44:18Z</time>
      </trkpt>
      <trkpt lat="42.272376" lon="2.744333">
        <ele>419.108</ele>
        <time>2020-10-17T13:44:22Z</time>
      </trkpt>
      <trkpt lat="42.272376" lon="2.744333">
        <ele>419.164</ele>
        <time>2020-10-17T13:44:22Z</time>
      </trkpt>
      <trkpt lat="42.272332" lon="2.744322">
        <ele>418.047</ele>
        <time>2020-10-17T13:44:28Z</time>
      </trkpt>
      <trkpt lat="42.272332" lon="2.744322">
        <ele>418.066</ele>
        <time>2020-10-17T13:44:28Z</time>
      </trkpt>
      <trkpt lat="42.272531" lon="2.744290">
        <ele>419.935</ele>
        <time>2020-10-17T14:13:13Z</time>
      </trkpt>
      <trkpt lat="42.272573" lon="2.744265">
        <ele>422.384</ele>
        <time>2020-10-17T14:13:52Z</time>
      </trkpt>
      <trkpt lat="42.272543" lon="2.744209">
        <ele>422.992</ele>
        <time>2020-10-17T14:13:56Z</time>
      </trkpt>
      <trkpt lat="42.272501" lon="2.744257">
        <ele>422.472</ele>
        <time>2020-10-17T14:13:59Z</time>
      </trkpt>
      <trkpt lat="42.272511" lon="2.744316">
        <ele>421.557</ele>
        <time>2020-10-17T14:14:01Z</time>
      </trkpt>
      <trkpt lat="42.272527" lon="2.744381">
        <ele>420.386</ele>
        <time>2020-10-17T14:14:03Z</time>
      </trkpt>
      <trkpt lat="42.272531" lon="2.744443">
        <ele>419.160</ele>
        <time>2020-10-17T14:14:05Z</time>
      </trkpt>
      <trkpt lat="42.272508" lon="2.744500">
        <ele>418.026</ele>
        <time>2020-10-17T14:14:08Z</time>
      </trkpt>
      <trkpt lat="42.272464" lon="2.744529">
        <ele>417.208</ele>
        <time>2020-10-17T14:14:11Z</time>
      </trkpt>
      <trkpt lat="42.272411" lon="2.744541">
        <ele>416.783</ele>
        <time>2020-10-17T14:14:14Z</time>
      </trkpt>
      <trkpt lat="42.272357" lon="2.744567">
        <ele>416.016</ele>
        <time>2020-10-17T14:14:17Z</time>
      </trkpt>
      <trkpt lat="42.272302" lon="2.744621">
        <ele>415.225</ele>
        <time>2020-10-17T14:14:20Z</time>
      </trkpt>
      <trkpt lat="42.272264" lon="2.744683">
        <ele>414.494</ele>
        <time>2020-10-17T14:14:23Z</time>
      </trkpt>
      <trkpt lat="42.272219" lon="2.744744">
        <ele>413.883</ele>
        <time>2020-10-17T14:14:26Z</time>
      </trkpt>
      <trkpt lat="42.272186" lon="2.744799">
        <ele>413.171</ele>
        <time>2020-10-17T14:14:28Z</time>
      </trkpt>
      <trkpt lat="42.272152" lon="2.744861">
        <ele>412.261</ele>
        <time>2020-10-17T14:14:30Z</time>
      </trkpt>
      <trkpt lat="42.272121" lon="2.744917">
        <ele>411.226</ele>
        <time>2020-10-17T14:14:32Z</time>
      </trkpt>
      <trkpt lat="42.272089" lon="2.744972">
        <ele>410.121</ele>
        <time>2020-10-17T14:14:34Z</time>
      </trkpt>
      <trkpt lat="42.272056" lon="2.745042">
        <ele>408.941</ele>
        <time>2020-10-17T14:14:36Z</time>
      </trkpt>
      <trkpt lat="42.272012" lon="2.745129">
        <ele>407.905</ele>
        <time>2020-10-17T14:14:38Z</time>
      </trkpt>
      <trkpt lat="42.271951" lon="2.745242">
        <ele>407.108</ele>
        <time>2020-10-17T14:14:40Z</time>
      </trkpt>
      <trkpt lat="42.271906" lon="2.745364">
        <ele>406.777</ele>
        <time>2020-10-17T14:14:42Z</time>
      </trkpt>
      <trkpt lat="42.271876" lon="2.745472">
        <ele>406.330</ele>
        <time>2020-10-17T14:14:44Z</time>
      </trkpt>
      <trkpt lat="42.271848" lon="2.745586">
        <ele>405.839</ele>
        <time>2020-10-17T14:14:46Z</time>
      </trkpt>
      <trkpt lat="42.271819" lon="2.745698">
        <ele>405.568</ele>
        <time>2020-10-17T14:14:48Z</time>
      </trkpt>
      <trkpt lat="42.271789" lon="2.745816">
        <ele>405.497</ele>
        <time>2020-10-17T14:14:50Z</time>
      </trkpt>
      <trkpt lat="42.271765" lon="2.745954">
        <ele>405.365</ele>
        <time>2020-10-17T14:14:52Z</time>
      </trkpt>
      <trkpt lat="42.271758" lon="2.746026">
        <ele>405.375</ele>
        <time>2020-10-17T14:14:53Z</time>
      </trkpt>
      <trkpt lat="42.271742" lon="2.746167">
        <ele>405.380</ele>
        <time>2020-10-17T14:14:55Z</time>
      </trkpt>
      <trkpt lat="42.271721" lon="2.746304">
        <ele>405.349</ele>
        <time>2020-10-17T14:14:57Z</time>
      </trkpt>
      <trkpt lat="42.271703" lon="2.746439">
        <ele>405.402</ele>
        <time>2020-10-17T14:14:59Z</time>
      </trkpt>
      <trkpt lat="42.271692" lon="2.746553">
        <ele>405.522</ele>
        <time>2020-10-17T14:15:01Z</time>
      </trkpt>
      <trkpt lat="42.271700" lon="2.746649">
        <ele>405.508</ele>
        <time>2020-10-17T14:15:03Z</time>
      </trkpt>
      <trkpt lat="42.271721" lon="2.746724">
        <ele>405.659</ele>
        <time>2020-10-17T14:15:05Z</time>
      </trkpt>
      <trkpt lat="42.271756" lon="2.746794">
        <ele>405.662</ele>
        <time>2020-10-17T14:15:07Z</time>
      </trkpt>
      <trkpt lat="42.271813" lon="2.746872">
        <ele>405.721</ele>
        <time>2020-10-17T14:15:09Z</time>
      </trkpt>
      <trkpt lat="42.271866" lon="2.746963">
        <ele>405.880</ele>
        <time>2020-10-17T14:15:11Z</time>
      </trkpt>
      <trkpt lat="42.271907" lon="2.747046">
        <ele>405.739</ele>
        <time>2020-10-17T14:15:13Z</time>
      </trkpt>
      <trkpt lat="42.271935" lon="2.747122">
        <ele>405.887</ele>
        <time>2020-10-17T14:15:16Z</time>
      </trkpt>
      <trkpt lat="42.271959" lon="2.747190">
        <ele>406.097</ele>
        <time>2020-10-17T14:15:19Z</time>
      </trkpt>
      <trkpt lat="42.272017" lon="2.747213">
        <ele>406.532</ele>
        <time>2020-10-17T14:15:22Z</time>
      </trkpt>
      <trkpt lat="42.272062" lon="2.747199">
        <ele>406.828</ele>
        <time>2020-10-17T14:15:25Z</time>
      </trkpt>
      <trkpt lat="42.272107" lon="2.747184">
        <ele>406.789</ele>
        <time>2020-10-17T14:15:28Z</time>
      </trkpt>
      <trkpt lat="42.272150" lon="2.747154">
        <ele>406.417</ele>
        <time>2020-10-17T14:15:30Z</time>
      </trkpt>
      <trkpt lat="42.272207" lon="2.747105">
        <ele>406.008</ele>
        <time>2020-10-17T14:15:32Z</time>
      </trkpt>
      <trkpt lat="42.272253" lon="2.747065">
        <ele>405.767</ele>
        <time>2020-10-17T14:15:33Z</time>
      </trkpt>
      <trkpt lat="42.272317" lon="2.747002">
        <ele>405.380</ele>
        <time>2020-10-17T14:15:35Z</time>
      </trkpt>
      <trkpt lat="42.272385" lon="2.746913">
        <ele>404.879</ele>
        <time>2020-10-17T14:15:37Z</time>
      </trkpt>
      <trkpt lat="42.272484" lon="2.746822">
        <ele>404.248</ele>
        <time>2020-10-17T14:15:39Z</time>
      </trkpt>
      <trkpt lat="42.272531" lon="2.746793">
        <ele>403.717</ele>
        <time>2020-10-17T14:15:40Z</time>
      </trkpt>
      <trkpt lat="42.272624" lon="2.746730">
        <ele>403.215</ele>
        <time>2020-10-17T14:15:42Z</time>
      </trkpt>
      <trkpt lat="42.272701" lon="2.746663">
        <ele>402.945</ele>
        <time>2020-10-17T14:15:44Z</time>
      </trkpt>
      <trkpt lat="42.272747" lon="2.746623">
        <ele>402.650</ele>
        <time>2020-10-17T14:15:45Z</time>
      </trkpt>
      <trkpt lat="42.272795" lon="2.746563">
        <ele>402.425</ele>
        <time>2020-10-17T14:15:47Z</time>
      </trkpt>
      <trkpt lat="42.272839" lon="2.746488">
        <ele>402.226</ele>
        <time>2020-10-17T14:15:49Z</time>
      </trkpt>
      <trkpt lat="42.272899" lon="2.746400">
        <ele>402.008</ele>
        <time>2020-10-17T14:15:51Z</time>
      </trkpt>
      <trkpt lat="42.272943" lon="2.746351">
        <ele>401.808</ele>
        <time>2020-10-17T14:15:53Z</time>
      </trkpt>
      <trkpt lat="42.272990" lon="2.746295">
        <ele>401.667</ele>
        <time>2020-10-17T14:15:55Z</time>
      </trkpt>
      <trkpt lat="42.273025" lon="2.746239">
        <ele>401.520</ele>
        <time>2020-10-17T14:15:57Z</time>
      </trkpt>
      <trkpt lat="42.273048" lon="2.746182">
        <ele>401.439</ele>
        <time>2020-10-17T14:16:02Z</time>
      </trkpt>
      <trkpt lat="42.273075" lon="2.746122">
        <ele>401.428</ele>
        <time>2020-10-17T14:16:04Z</time>
      </trkpt>
      <trkpt lat="42.273103" lon="2.746052">
        <ele>401.647</ele>
        <time>2020-10-17T14:16:06Z</time>
      </trkpt>
      <trkpt lat="42.273136" lon="2.745981">
        <ele>401.885</ele>
        <time>2020-10-17T14:16:08Z</time>
      </trkpt>
      <trkpt lat="42.273175" lon="2.745901">
        <ele>401.945</ele>
        <time>2020-10-17T14:16:10Z</time>
      </trkpt>
      <trkpt lat="42.273225" lon="2.745862">
        <ele>402.230</ele>
        <time>2020-10-17T14:16:13Z</time>
      </trkpt>
      <trkpt lat="42.273286" lon="2.745842">
        <ele>402.364</ele>
        <time>2020-10-17T14:16:16Z</time>
      </trkpt>
      <trkpt lat="42.273359" lon="2.745791">
        <ele>402.306</ele>
        <time>2020-10-17T14:16:18Z</time>
      </trkpt>
      <trkpt lat="42.273398" lon="2.745754">
        <ele>402.416</ele>
        <time>2020-10-17T14:16:19Z</time>
      </trkpt>
      <trkpt lat="42.273453" lon="2.745683">
        <ele>402.508</ele>
        <time>2020-10-17T14:16:21Z</time>
      </trkpt>
      <trkpt lat="42.273504" lon="2.745607">
        <ele>403.271</ele>
        <time>2020-10-17T14:16:22Z</time>
      </trkpt>
      <trkpt lat="42.273571" lon="2.745525">
        <ele>403.884</ele>
        <time>2020-10-17T14:16:24Z</time>
      </trkpt>
      <trkpt lat="42.273615" lon="2.745492">
        <ele>404.373</ele>
        <time>2020-10-17T14:16:25Z</time>
      </trkpt>
      <trkpt lat="42.273656" lon="2.745465">
        <ele>404.762</ele>
        <time>2020-10-17T14:16:26Z</time>
      </trkpt>
      <trkpt lat="42.273715" lon="2.745419">
        <ele>404.831</ele>
        <time>2020-10-17T14:16:27Z</time>
      </trkpt>
      <trkpt lat="42.273767" lon="2.745372">
        <ele>404.619</ele>
        <time>2020-10-17T14:16:29Z</time>
      </trkpt>
      <trkpt lat="42.273811" lon="2.745328">
        <ele>404.419</ele>
        <time>2020-10-17T14:16:31Z</time>
      </trkpt>
      <trkpt lat="42.273823" lon="2.745265">
        <ele>404.014</ele>
        <time>2020-10-17T14:16:33Z</time>
      </trkpt>
      <trkpt lat="42.273823" lon="2.745193">
        <ele>403.415</ele>
        <time>2020-10-17T14:16:35Z</time>
      </trkpt>
      <trkpt lat="42.273837" lon="2.745131">
        <ele>403.065</ele>
        <time>2020-10-17T14:16:37Z</time>
      </trkpt>
      <trkpt lat="42.273860" lon="2.745057">
        <ele>402.911</ele>
        <time>2020-10-17T14:16:39Z</time>
      </trkpt>
      <trkpt lat="42.273883" lon="2.745002">
        <ele>402.908</ele>
        <time>2020-10-17T14:16:40Z</time>
      </trkpt>
      <trkpt lat="42.273914" lon="2.744945">
        <ele>403.256</ele>
        <time>2020-10-17T14:16:42Z</time>
      </trkpt>
      <trkpt lat="42.273959" lon="2.744891">
        <ele>403.639</ele>
        <time>2020-10-17T14:16:44Z</time>
      </trkpt>
      <trkpt lat="42.274017" lon="2.744836">
        <ele>403.998</ele>
        <time>2020-10-17T14:16:46Z</time>
      </trkpt>
      <trkpt lat="42.274061" lon="2.744791">
        <ele>403.957</ele>
        <time>2020-10-17T14:16:48Z</time>
      </trkpt>
      <trkpt lat="42.274113" lon="2.744742">
        <ele>403.616</ele>
        <time>2020-10-17T14:16:50Z</time>
      </trkpt>
      <trkpt lat="42.274184" lon="2.744671">
        <ele>403.294</ele>
        <time>2020-10-17T14:16:52Z</time>
      </trkpt>
      <trkpt lat="42.274240" lon="2.744604">
        <ele>402.784</ele>
        <time>2020-10-17T14:16:54Z</time>
      </trkpt>
      <trkpt lat="42.274299" lon="2.744532">
        <ele>402.369</ele>
        <time>2020-10-17T14:16:56Z</time>
      </trkpt>
      <trkpt lat="42.274369" lon="2.744434">
        <ele>401.954</ele>
        <time>2020-10-17T14:16:58Z</time>
      </trkpt>
      <trkpt lat="42.274407" lon="2.744354">
        <ele>401.456</ele>
        <time>2020-10-17T14:17:00Z</time>
      </trkpt>
      <trkpt lat="42.274425" lon="2.744251">
        <ele>400.411</ele>
        <time>2020-10-17T14:17:02Z</time>
      </trkpt>
      <trkpt lat="42.274423" lon="2.744190">
        <ele>399.608</ele>
        <time>2020-10-17T14:17:03Z</time>
      </trkpt>
      <trkpt lat="42.274405" lon="2.744104">
        <ele>398.930</ele>
        <time>2020-10-17T14:17:04Z</time>
      </trkpt>
      <trkpt lat="42.274370" lon="2.744026">
        <ele>397.963</ele>
        <time>2020-10-17T14:17:06Z</time>
      </trkpt>
      <trkpt lat="42.274333" lon="2.743939">
        <ele>396.372</ele>
        <time>2020-10-17T14:17:08Z</time>
      </trkpt>
      <trkpt lat="42.274267" lon="2.743835">
        <ele>394.541</ele>
        <time>2020-10-17T14:17:10Z</time>
      </trkpt>
      <trkpt lat="42.274202" lon="2.743755">
        <ele>392.590</ele>
        <time>2020-10-17T14:17:12Z</time>
      </trkpt>
      <trkpt lat="42.274162" lon="2.743710">
        <ele>391.098</ele>
        <time>2020-10-17T14:17:13Z</time>
      </trkpt>
      <trkpt lat="42.274120" lon="2.743671">
        <ele>389.998</ele>
        <time>2020-10-17T14:17:14Z</time>
      </trkpt>
      <trkpt lat="42.274051" lon="2.743571">
        <ele>388.713</ele>
        <time>2020-10-17T14:17:16Z</time>
      </trkpt>
      <trkpt lat="42.274006" lon="2.743504">
        <ele>387.127</ele>
        <time>2020-10-17T14:17:18Z</time>
      </trkpt>
      <trkpt lat="42.273956" lon="2.743422">
        <ele>385.568</ele>
        <time>2020-10-17T14:17:20Z</time>
      </trkpt>
      <trkpt lat="42.273899" lon="2.743332">
        <ele>384.414</ele>
        <time>2020-10-17T14:17:22Z</time>
      </trkpt>
      <trkpt lat="42.273852" lon="2.743285">
        <ele>383.708</ele>
        <time>2020-10-17T14:17:24Z</time>
      </trkpt>
      <trkpt lat="42.273807" lon="2.743243">
        <ele>383.287</ele>
        <time>2020-10-17T14:17:26Z</time>
      </trkpt>
      <trkpt lat="42.273762" lon="2.743198">
        <ele>382.740</ele>
        <time>2020-10-17T14:17:28Z</time>
      </trkpt>
      <trkpt lat="42.273709" lon="2.743151">
        <ele>382.189</ele>
        <time>2020-10-17T14:17:31Z</time>
      </trkpt>
      <trkpt lat="42.273671" lon="2.743067">
        <ele>381.528</ele>
        <time>2020-10-17T14:17:34Z</time>
      </trkpt>
      <trkpt lat="42.273706" lon="2.742998">
        <ele>381.187</ele>
        <time>2020-10-17T14:17:37Z</time>
      </trkpt>
      <trkpt lat="42.273769" lon="2.742954">
        <ele>380.885</ele>
        <time>2020-10-17T14:17:39Z</time>
      </trkpt>
      <trkpt lat="42.273818" lon="2.742924">
        <ele>380.795</ele>
        <time>2020-10-17T14:17:40Z</time>
      </trkpt>
      <trkpt lat="42.273893" lon="2.742871">
        <ele>380.470</ele>
        <time>2020-10-17T14:17:42Z</time>
      </trkpt>
      <trkpt lat="42.273958" lon="2.742803">
        <ele>379.965</ele>
        <time>2020-10-17T14:17:44Z</time>
      </trkpt>
      <trkpt lat="42.274002" lon="2.742714">
        <ele>379.168</ele>
        <time>2020-10-17T14:17:46Z</time>
      </trkpt>
      <trkpt lat="42.274040" lon="2.742643">
        <ele>378.114</ele>
        <time>2020-10-17T14:17:48Z</time>
      </trkpt>
      <trkpt lat="42.274069" lon="2.742588">
        <ele>377.108</ele>
        <time>2020-10-17T14:17:50Z</time>
      </trkpt>
      <trkpt lat="42.274150" lon="2.742592">
        <ele>375.071</ele>
        <time>2020-10-17T14:17:58Z</time>
      </trkpt>
      <trkpt lat="42.274207" lon="2.742632">
        <ele>374.494</ele>
        <time>2020-10-17T14:18:00Z</time>
      </trkpt>
      <trkpt lat="42.274250" lon="2.742685">
        <ele>374.183</ele>
        <time>2020-10-17T14:18:02Z</time>
      </trkpt>
      <trkpt lat="42.274291" lon="2.742734">
        <ele>373.932</ele>
        <time>2020-10-17T14:18:04Z</time>
      </trkpt>
      <trkpt lat="42.274334" lon="2.742772">
        <ele>373.571</ele>
        <time>2020-10-17T14:18:07Z</time>
      </trkpt>
      <trkpt lat="42.274394" lon="2.742805">
        <ele>372.989</ele>
        <time>2020-10-17T14:18:11Z</time>
      </trkpt>
      <trkpt lat="42.274448" lon="2.742833">
        <ele>372.569</ele>
        <time>2020-10-17T14:18:13Z</time>
      </trkpt>
      <trkpt lat="42.274514" lon="2.742886">
        <ele>372.084</ele>
        <time>2020-10-17T14:18:15Z</time>
      </trkpt>
      <trkpt lat="42.274570" lon="2.742949">
        <ele>371.354</ele>
        <time>2020-10-17T14:18:17Z</time>
      </trkpt>
      <trkpt lat="42.274611" lon="2.743007">
        <ele>370.656</ele>
        <time>2020-10-17T14:18:19Z</time>
      </trkpt>
      <trkpt lat="42.274644" lon="2.743059">
        <ele>369.911</ele>
        <time>2020-10-17T14:18:21Z</time>
      </trkpt>
      <trkpt lat="42.274699" lon="2.743115">
        <ele>368.908</ele>
        <time>2020-10-17T14:18:24Z</time>
      </trkpt>
      <trkpt lat="42.274747" lon="2.743134">
        <ele>368.190</ele>
        <time>2020-10-17T14:18:26Z</time>
      </trkpt>
      <trkpt lat="42.274804" lon="2.743171">
        <ele>367.633</ele>
        <time>2020-10-17T14:18:28Z</time>
      </trkpt>
      <trkpt lat="42.274863" lon="2.743230">
        <ele>367.242</ele>
        <time>2020-10-17T14:18:30Z</time>
      </trkpt>
      <trkpt lat="42.274916" lon="2.743294">
        <ele>366.911</ele>
        <time>2020-10-17T14:18:32Z</time>
      </trkpt>
      <trkpt lat="42.274965" lon="2.743354">
        <ele>366.620</ele>
        <time>2020-10-17T14:18:34Z</time>
      </trkpt>
      <trkpt lat="42.275016" lon="2.743411">
        <ele>366.258</ele>
        <time>2020-10-17T14:18:36Z</time>
      </trkpt>
      <trkpt lat="42.275064" lon="2.743487">
        <ele>365.888</ele>
        <time>2020-10-17T14:18:38Z</time>
      </trkpt>
      <trkpt lat="42.275087" lon="2.743578">
        <ele>365.323</ele>
        <time>2020-10-17T14:18:40Z</time>
      </trkpt>
      <trkpt lat="42.275088" lon="2.743684">
        <ele>364.521</ele>
        <time>2020-10-17T14:18:42Z</time>
      </trkpt>
      <trkpt lat="42.275081" lon="2.743786">
        <ele>363.541</ele>
        <time>2020-10-17T14:18:44Z</time>
      </trkpt>
      <trkpt lat="42.275080" lon="2.743883">
        <ele>362.505</ele>
        <time>2020-10-17T14:18:46Z</time>
      </trkpt>
      <trkpt lat="42.275091" lon="2.743977">
        <ele>361.708</ele>
        <time>2020-10-17T14:18:48Z</time>
      </trkpt>
      <trkpt lat="42.275109" lon="2.744074">
        <ele>360.897</ele>
        <time>2020-10-17T14:18:50Z</time>
      </trkpt>
      <trkpt lat="42.275123" lon="2.744176">
        <ele>359.940</ele>
        <time>2020-10-17T14:18:52Z</time>
      </trkpt>
      <trkpt lat="42.275117" lon="2.744289">
        <ele>359.139</ele>
        <time>2020-10-17T14:18:54Z</time>
      </trkpt>
      <trkpt lat="42.275103" lon="2.744392">
        <ele>358.298</ele>
        <time>2020-10-17T14:18:56Z</time>
      </trkpt>
      <trkpt lat="42.275104" lon="2.744499">
        <ele>357.367</ele>
        <time>2020-10-17T14:18:58Z</time>
      </trkpt>
      <trkpt lat="42.275127" lon="2.744613">
        <ele>356.715</ele>
        <time>2020-10-17T14:19:00Z</time>
      </trkpt>
      <trkpt lat="42.275147" lon="2.744726">
        <ele>356.135</ele>
        <time>2020-10-17T14:19:02Z</time>
      </trkpt>
      <trkpt lat="42.275157" lon="2.744788">
        <ele>355.570</ele>
        <time>2020-10-17T14:19:03Z</time>
      </trkpt>
      <trkpt lat="42.275168" lon="2.744854">
        <ele>355.026</ele>
        <time>2020-10-17T14:19:04Z</time>
      </trkpt>
      <trkpt lat="42.275187" lon="2.744977">
        <ele>354.547</ele>
        <time>2020-10-17T14:19:06Z</time>
      </trkpt>
      <trkpt lat="42.275197" lon="2.745070">
        <ele>354.011</ele>
        <time>2020-10-17T14:19:08Z</time>
      </trkpt>
      <trkpt lat="42.275206" lon="2.745137">
        <ele>353.708</ele>
        <time>2020-10-17T14:19:10Z</time>
      </trkpt>
      <trkpt lat="42.275219" lon="2.745205">
        <ele>353.447</ele>
        <time>2020-10-17T14:19:12Z</time>
      </trkpt>
      <trkpt lat="42.275244" lon="2.745283">
        <ele>353.130</ele>
        <time>2020-10-17T14:19:14Z</time>
      </trkpt>
      <trkpt lat="42.275274" lon="2.745368">
        <ele>352.949</ele>
        <time>2020-10-17T14:19:16Z</time>
      </trkpt>
      <trkpt lat="42.275311" lon="2.745466">
        <ele>352.948</ele>
        <time>2020-10-17T14:19:18Z</time>
      </trkpt>
      <trkpt lat="42.275335" lon="2.745519">
        <ele>352.967</ele>
        <time>2020-10-17T14:19:19Z</time>
      </trkpt>
      <trkpt lat="42.275378" lon="2.745611">
        <ele>352.825</ele>
        <time>2020-10-17T14:19:21Z</time>
      </trkpt>
      <trkpt lat="42.275425" lon="2.745683">
        <ele>352.715</ele>
        <time>2020-10-17T14:19:23Z</time>
      </trkpt>
      <trkpt lat="42.275471" lon="2.745761">
        <ele>352.290</ele>
        <time>2020-10-17T14:19:25Z</time>
      </trkpt>
      <trkpt lat="42.275489" lon="2.745818">
        <ele>351.754</ele>
        <time>2020-10-17T14:19:26Z</time>
      </trkpt>
      <trkpt lat="42.275502" lon="2.745880">
        <ele>351.256</ele>
        <time>2020-10-17T14:19:27Z</time>
      </trkpt>
      <trkpt lat="42.275510" lon="2.745948">
        <ele>350.711</ele>
        <time>2020-10-17T14:19:28Z</time>
      </trkpt>
      <trkpt lat="42.275514" lon="2.746018">
        <ele>350.408</ele>
        <time>2020-10-17T14:19:29Z</time>
      </trkpt>
      <trkpt lat="42.275518" lon="2.746082">
        <ele>350.140</ele>
        <time>2020-10-17T14:19:30Z</time>
      </trkpt>
      <trkpt lat="42.275529" lon="2.746196">
        <ele>349.883</ele>
        <time>2020-10-17T14:19:32Z</time>
      </trkpt>
      <trkpt lat="42.275534" lon="2.746284">
        <ele>349.642</ele>
        <time>2020-10-17T14:19:34Z</time>
      </trkpt>
      <trkpt lat="42.275540" lon="2.746344">
        <ele>349.681</ele>
        <time>2020-10-17T14:19:37Z</time>
      </trkpt>
      <trkpt lat="42.275564" lon="2.746397">
        <ele>349.540</ele>
        <time>2020-10-17T14:19:39Z</time>
      </trkpt>
      <trkpt lat="42.275595" lon="2.746447">
        <ele>349.158</ele>
        <time>2020-10-17T14:19:41Z</time>
      </trkpt>
      <trkpt lat="42.275648" lon="2.746442">
        <ele>348.438</ele>
        <time>2020-10-17T14:19:47Z</time>
      </trkpt>
      <trkpt lat="42.275706" lon="2.746408">
        <ele>347.843</ele>
        <time>2020-10-17T14:19:50Z</time>
      </trkpt>
      <trkpt lat="42.275775" lon="2.746382">
        <ele>347.385</ele>
        <time>2020-10-17T14:19:52Z</time>
      </trkpt>
      <trkpt lat="42.275865" lon="2.746333">
        <ele>346.689</ele>
        <time>2020-10-17T14:19:54Z</time>
      </trkpt>
      <trkpt lat="42.276502" lon="2.746023">
        <ele>343.417</ele>
        <time>2020-10-17T14:20:10Z</time>
      </trkpt>
      <trkpt lat="42.276553" lon="2.745994">
        <ele>341.108</ele>
        <time>2020-10-17T14:20:12Z</time>
      </trkpt>
      <trkpt lat="42.276604" lon="2.745936">
        <ele>339.073</ele>
        <time>2020-10-17T14:20:14Z</time>
      </trkpt>
      <trkpt lat="42.276657" lon="2.745864">
        <ele>335.086</ele>
        <time>2020-10-17T14:20:19Z</time>
      </trkpt>
      <trkpt lat="42.276724" lon="2.745785">
        <ele>331.385</ele>
        <time>2020-10-17T14:20:21Z</time>
      </trkpt>
      <trkpt lat="42.276769" lon="2.745729">
        <ele>328.794</ele>
        <time>2020-10-17T14:20:22Z</time>
      </trkpt>
      <trkpt lat="42.276809" lon="2.745680">
        <ele>326.943</ele>
        <time>2020-10-17T14:20:23Z</time>
      </trkpt>
      <trkpt lat="42.276844" lon="2.745621">
        <ele>325.711</ele>
        <time>2020-10-17T14:20:25Z</time>
      </trkpt>
      <trkpt lat="42.276871" lon="2.745567">
        <ele>324.621</ele>
        <time>2020-10-17T14:20:26Z</time>
      </trkpt>
      <trkpt lat="42.276909" lon="2.745499">
        <ele>323.856</ele>
        <time>2020-10-17T14:20:28Z</time>
      </trkpt>
      <trkpt lat="42.276945" lon="2.745437">
        <ele>322.958</ele>
        <time>2020-10-17T14:20:30Z</time>
      </trkpt>
      <trkpt lat="42.276989" lon="2.745368">
        <ele>321.952</ele>
        <time>2020-10-17T14:20:31Z</time>
      </trkpt>
      <trkpt lat="42.277032" lon="2.745303">
        <ele>321.117</ele>
        <time>2020-10-17T14:20:33Z</time>
      </trkpt>
      <trkpt lat="42.277091" lon="2.745253">
        <ele>320.508</ele>
        <time>2020-10-17T14:20:35Z</time>
      </trkpt>
      <trkpt lat="42.277146" lon="2.745260">
        <ele>320.120</ele>
        <time>2020-10-17T14:20:37Z</time>
      </trkpt>
      <trkpt lat="42.277188" lon="2.745326">
        <ele>319.643</ele>
        <time>2020-10-17T14:20:39Z</time>
      </trkpt>
      <trkpt lat="42.277180" lon="2.745416">
        <ele>319.292</ele>
        <time>2020-10-17T14:20:41Z</time>
      </trkpt>
      <trkpt lat="42.277158" lon="2.745471">
        <ele>318.541</ele>
        <time>2020-10-17T14:20:42Z</time>
      </trkpt>
      <trkpt lat="42.277114" lon="2.745561">
        <ele>317.670</ele>
        <time>2020-10-17T14:20:44Z</time>
      </trkpt>
      <trkpt lat="42.277077" lon="2.745630">
        <ele>316.928</ele>
        <time>2020-10-17T14:20:46Z</time>
      </trkpt>
      <trkpt lat="42.277041" lon="2.745695">
        <ele>316.378</ele>
        <time>2020-10-17T14:20:47Z</time>
      </trkpt>
      <trkpt lat="42.277010" lon="2.745750">
        <ele>315.833</ele>
        <time>2020-10-17T14:20:49Z</time>
      </trkpt>
      <trkpt lat="42.276975" lon="2.745808">
        <ele>315.357</ele>
        <time>2020-10-17T14:20:51Z</time>
      </trkpt>
      <trkpt lat="42.276944" lon="2.745855">
        <ele>314.900</ele>
        <time>2020-10-17T14:20:52Z</time>
      </trkpt>
      <trkpt lat="42.276887" lon="2.745915">
        <ele>314.520</ele>
        <time>2020-10-17T14:20:54Z</time>
      </trkpt>
      <trkpt lat="42.276817" lon="2.745986">
        <ele>314.308</ele>
        <time>2020-10-17T14:20:56Z</time>
      </trkpt>
      <trkpt lat="42.276747" lon="2.746051">
        <ele>314.160</ele>
        <time>2020-10-17T14:20:58Z</time>
      </trkpt>
      <trkpt lat="42.276678" lon="2.746103">
        <ele>313.673</ele>
        <time>2020-10-17T14:21:00Z</time>
      </trkpt>
      <trkpt lat="42.276614" lon="2.746156">
        <ele>312.742</ele>
        <time>2020-10-17T14:21:02Z</time>
      </trkpt>
      <trkpt lat="42.276545" lon="2.746223">
        <ele>311.651</ele>
        <time>2020-10-17T14:21:04Z</time>
      </trkpt>
      <trkpt lat="42.276483" lon="2.746282">
        <ele>310.480</ele>
        <time>2020-10-17T14:21:06Z</time>
      </trkpt>
      <trkpt lat="42.276422" lon="2.746321">
        <ele>309.028</ele>
        <time>2020-10-17T14:21:08Z</time>
      </trkpt>
      <trkpt lat="42.276399" lon="2.746378">
        <ele>308.168</ele>
        <time>2020-10-17T14:21:17Z</time>
      </trkpt>
      <trkpt lat="42.276349" lon="2.746440">
        <ele>307.843</ele>
        <time>2020-10-17T14:21:20Z</time>
      </trkpt>
      <trkpt lat="42.276309" lon="2.746471">
        <ele>307.812</ele>
        <time>2020-10-17T14:21:22Z</time>
      </trkpt>
      <trkpt lat="42.276234" lon="2.746506">
        <ele>308.232</ele>
        <time>2020-10-17T14:21:38Z</time>
      </trkpt>
      <trkpt lat="42.276171" lon="2.746562">
        <ele>308.405</ele>
        <time>2020-10-17T14:21:40Z</time>
      </trkpt>
      <trkpt lat="42.276106" lon="2.746618">
        <ele>308.608</ele>
        <time>2020-10-17T14:21:42Z</time>
      </trkpt>
      <trkpt lat="42.276049" lon="2.746672">
        <ele>308.756</ele>
        <time>2020-10-17T14:21:44Z</time>
      </trkpt>
      <trkpt lat="42.275994" lon="2.746727">
        <ele>308.689</ele>
        <time>2020-10-17T14:21:46Z</time>
      </trkpt>
      <trkpt lat="42.275946" lon="2.746782">
        <ele>308.588</ele>
        <time>2020-10-17T14:21:48Z</time>
      </trkpt>
      <trkpt lat="42.275901" lon="2.746844">
        <ele>308.467</ele>
        <time>2020-10-17T14:21:50Z</time>
      </trkpt>
      <trkpt lat="42.275870" lon="2.746909">
        <ele>308.236</ele>
        <time>2020-10-17T14:21:52Z</time>
      </trkpt>
      <trkpt lat="42.275895" lon="2.746970">
        <ele>308.254</ele>
        <time>2020-10-17T14:21:56Z</time>
      </trkpt>
      <trkpt lat="42.275869" lon="2.747149">
        <ele>311.434</ele>
        <time>2020-10-17T14:22:34Z</time>
      </trkpt>
      <trkpt lat="42.275842" lon="2.747233">
        <ele>311.869</ele>
        <time>2020-10-17T14:22:37Z</time>
      </trkpt>
      <trkpt lat="42.275829" lon="2.747321">
        <ele>311.946</ele>
        <time>2020-10-17T14:22:39Z</time>
      </trkpt>
      <trkpt lat="42.275813" lon="2.747402">
        <ele>311.888</ele>
        <time>2020-10-17T14:22:41Z</time>
      </trkpt>
      <trkpt lat="42.275802" lon="2.747466">
        <ele>311.516</ele>
        <time>2020-10-17T14:22:43Z</time>
      </trkpt>
      <trkpt lat="42.275772" lon="2.747560">
        <ele>311.108</ele>
        <time>2020-10-17T14:22:46Z</time>
      </trkpt>
      <trkpt lat="42.275772" lon="2.747560">
        <ele>311.179</ele>
        <time>2020-10-17T14:22:46Z</time>
      </trkpt>
      <trkpt lat="42.275772" lon="2.747560">
        <ele>311.132</ele>
        <time>2020-10-17T14:22:46Z</time>
      </trkpt>
      <trkpt lat="42.275744" lon="2.747636">
        <ele>310.911</ele>
        <time>2020-10-17T14:22:48Z</time>
      </trkpt>
      <trkpt lat="42.275727" lon="2.747720">
        <ele>311.140</ele>
        <time>2020-10-17T14:22:50Z</time>
      </trkpt>
      <trkpt lat="42.275738" lon="2.747792">
        <ele>311.259</ele>
        <time>2020-10-17T14:22:52Z</time>
      </trkpt>
      <trkpt lat="42.275770" lon="2.747862">
        <ele>311.667</ele>
        <time>2020-10-17T14:22:54Z</time>
      </trkpt>
      <trkpt lat="42.275808" lon="2.747935">
        <ele>312.647</ele>
        <time>2020-10-17T14:22:56Z</time>
      </trkpt>
      <trkpt lat="42.275904" lon="2.748079">
        <ele>315.672</ele>
        <time>2020-10-17T14:23:00Z</time>
      </trkpt>
      <trkpt lat="42.275904" lon="2.748079">
        <ele>315.668</ele>
        <time>2020-10-17T14:23:00Z</time>
      </trkpt>
      <trkpt lat="42.275904" lon="2.748079">
        <ele>315.642</ele>
        <time>2020-10-17T14:23:00Z</time>
      </trkpt>
      <trkpt lat="42.275904" lon="2.748079">
        <ele>315.626</ele>
        <time>2020-10-17T14:23:00Z</time>
      </trkpt>
      <trkpt lat="42.275949" lon="2.748140">
        <ele>316.708</ele>
        <time>2020-10-17T14:23:02Z</time>
      </trkpt>
      <trkpt lat="42.275991" lon="2.748181">
        <ele>318.041</ele>
        <time>2020-10-17T14:23:04Z</time>
      </trkpt>
      <trkpt lat="42.276033" lon="2.748212">
        <ele>319.474</ele>
        <time>2020-10-17T14:23:06Z</time>
      </trkpt>
      <trkpt lat="42.276090" lon="2.748253">
        <ele>320.443</ele>
        <time>2020-10-17T14:23:08Z</time>
      </trkpt>
      <trkpt lat="42.276151" lon="2.748295">
        <ele>321.412</ele>
        <time>2020-10-17T14:23:10Z</time>
      </trkpt>
      <trkpt lat="42.276269" lon="2.748376">
        <ele>322.741</ele>
        <time>2020-10-17T14:23:14Z</time>
      </trkpt>
      <trkpt lat="42.276269" lon="2.748376">
        <ele>322.769</ele>
        <time>2020-10-17T14:23:14Z</time>
      </trkpt>
      <trkpt lat="42.276269" lon="2.748376">
        <ele>322.739</ele>
        <time>2020-10-17T14:23:14Z</time>
      </trkpt>
      <trkpt lat="42.276269" lon="2.748376">
        <ele>322.774</ele>
        <time>2020-10-17T14:23:14Z</time>
      </trkpt>
      <trkpt lat="42.276328" lon="2.748438">
        <ele>322.766</ele>
        <time>2020-10-17T14:23:16Z</time>
      </trkpt>
      <trkpt lat="42.276384" lon="2.748502">
        <ele>322.529</ele>
        <time>2020-10-17T14:23:18Z</time>
      </trkpt>
      <trkpt lat="42.276427" lon="2.748558">
        <ele>322.021</ele>
        <time>2020-10-17T14:23:20Z</time>
      </trkpt>
      <trkpt lat="42.276451" lon="2.748655">
        <ele>319.908</ele>
        <time>2020-10-17T14:23:26Z</time>
      </trkpt>
      <trkpt lat="42.276467" lon="2.748739">
        <ele>318.021</ele>
        <time>2020-10-17T14:23:28Z</time>
      </trkpt>
      <trkpt lat="42.276432" lon="2.748943">
        <ele>312.434</ele>
        <time>2020-10-17T14:23:33Z</time>
      </trkpt>
      <trkpt lat="42.276432" lon="2.748943">
        <ele>312.433</ele>
        <time>2020-10-17T14:23:33Z</time>
      </trkpt>
      <trkpt lat="42.276432" lon="2.748943">
        <ele>312.482</ele>
        <time>2020-10-17T14:23:33Z</time>
      </trkpt>
      <trkpt lat="42.276432" lon="2.748943">
        <ele>312.491</ele>
        <time>2020-10-17T14:23:33Z</time>
      </trkpt>
      <trkpt lat="42.276410" lon="2.749031">
        <ele>311.519</ele>
        <time>2020-10-17T14:23:35Z</time>
      </trkpt>
      <trkpt lat="42.276380" lon="2.749110">
        <ele>310.929</ele>
        <time>2020-10-17T14:23:37Z</time>
      </trkpt>
      <trkpt lat="42.276332" lon="2.749179">
        <ele>310.684</ele>
        <time>2020-10-17T14:23:39Z</time>
      </trkpt>
      <trkpt lat="42.276245" lon="2.749313">
        <ele>310.012</ele>
        <time>2020-10-17T14:23:42Z</time>
      </trkpt>
      <trkpt lat="42.276245" lon="2.749313">
        <ele>310.032</ele>
        <time>2020-10-17T14:23:42Z</time>
      </trkpt>
      <trkpt lat="42.276245" lon="2.749313">
        <ele>310.005</ele>
        <time>2020-10-17T14:23:42Z</time>
      </trkpt>
      <trkpt lat="42.276195" lon="2.749395">
        <ele>309.808</ele>
        <time>2020-10-17T14:23:44Z</time>
      </trkpt>
      <trkpt lat="42.276144" lon="2.749472">
        <ele>309.866</ele>
        <time>2020-10-17T14:23:46Z</time>
      </trkpt>
      <trkpt lat="42.276090" lon="2.749545">
        <ele>309.779</ele>
        <time>2020-10-17T14:23:48Z</time>
      </trkpt>
      <trkpt lat="42.275924" lon="2.749849">
        <ele>307.848</ele>
        <time>2020-10-17T14:23:53Z</time>
      </trkpt>
      <trkpt lat="42.275924" lon="2.749849">
        <ele>307.837</ele>
        <time>2020-10-17T14:23:53Z</time>
      </trkpt>
      <trkpt lat="42.275924" lon="2.749849">
        <ele>307.856</ele>
        <time>2020-10-17T14:23:53Z</time>
      </trkpt>
      <trkpt lat="42.275924" lon="2.749849">
        <ele>307.894</ele>
        <time>2020-10-17T14:23:53Z</time>
      </trkpt>
      <trkpt lat="42.275869" lon="2.749992">
        <ele>306.834</ele>
        <time>2020-10-17T14:23:55Z</time>
      </trkpt>
      <trkpt lat="42.275828" lon="2.750114">
        <ele>305.839</ele>
        <time>2020-10-17T14:23:57Z</time>
      </trkpt>
      <trkpt lat="42.275810" lon="2.750191">
        <ele>304.422</ele>
        <time>2020-10-17T14:23:59Z</time>
      </trkpt>
      <trkpt lat="42.275762" lon="2.750304">
        <ele>300.962</ele>
        <time>2020-10-17T14:24:03Z</time>
      </trkpt>
      <trkpt lat="42.275762" lon="2.750304">
        <ele>300.908</ele>
        <time>2020-10-17T14:24:03Z</time>
      </trkpt>
      <trkpt lat="42.275762" lon="2.750304">
        <ele>300.908</ele>
        <time>2020-10-17T14:24:03Z</time>
      </trkpt>
      <trkpt lat="42.275762" lon="2.750304">
        <ele>300.927</ele>
        <time>2020-10-17T14:24:03Z</time>
      </trkpt>
      <trkpt lat="42.275709" lon="2.750374">
        <ele>299.310</ele>
        <time>2020-10-17T14:24:05Z</time>
      </trkpt>
      <trkpt lat="42.275630" lon="2.750446">
        <ele>297.939</ele>
        <time>2020-10-17T14:24:07Z</time>
      </trkpt>
      <trkpt lat="42.275581" lon="2.750486">
        <ele>296.948</ele>
        <time>2020-10-17T14:24:08Z</time>
      </trkpt>
      <trkpt lat="42.275533" lon="2.750525">
        <ele>296.267</ele>
        <time>2020-10-17T14:24:09Z</time>
      </trkpt>
      <trkpt lat="42.275402" lon="2.750655">
        <ele>294.625</ele>
        <time>2020-10-17T14:24:13Z</time>
      </trkpt>
      <trkpt lat="42.275402" lon="2.750655">
        <ele>294.635</ele>
        <time>2020-10-17T14:24:13Z</time>
      </trkpt>
      <trkpt lat="42.275402" lon="2.750655">
        <ele>294.680</ele>
        <time>2020-10-17T14:24:13Z</time>
      </trkpt>
      <trkpt lat="42.275402" lon="2.750655">
        <ele>294.632</ele>
        <time>2020-10-17T14:24:13Z</time>
      </trkpt>
      <trkpt lat="42.275350" lon="2.750720">
        <ele>294.592</ele>
        <time>2020-10-17T14:24:15Z</time>
      </trkpt>
      <trkpt lat="42.275310" lon="2.750792">
        <ele>294.311</ele>
        <time>2020-10-17T14:24:17Z</time>
      </trkpt>
      <trkpt lat="42.275299" lon="2.750864">
        <ele>294.108</ele>
        <time>2020-10-17T14:24:19Z</time>
      </trkpt>
      <trkpt lat="42.275272" lon="2.750991">
        <ele>293.928</ele>
        <time>2020-10-17T14:24:22Z</time>
      </trkpt>
      <trkpt lat="42.275272" lon="2.750991">
        <ele>293.921</ele>
        <time>2020-10-17T14:24:22Z</time>
      </trkpt>
      <trkpt lat="42.275272" lon="2.750991">
        <ele>293.930</ele>
        <time>2020-10-17T14:24:22Z</time>
      </trkpt>
      <trkpt lat="42.275237" lon="2.751072">
        <ele>293.749</ele>
        <time>2020-10-17T14:24:24Z</time>
      </trkpt>
      <trkpt lat="42.275189" lon="2.751154">
        <ele>293.458</ele>
        <time>2020-10-17T14:24:26Z</time>
      </trkpt>
      <trkpt lat="42.275124" lon="2.751247">
        <ele>293.236</ele>
        <time>2020-10-17T14:24:28Z</time>
      </trkpt>
      <trkpt lat="42.274989" lon="2.751369">
        <ele>293.436</ele>
        <time>2020-10-17T14:24:33Z</time>
      </trkpt>
      <trkpt lat="42.274989" lon="2.751369">
        <ele>293.431</ele>
        <time>2020-10-17T14:24:33Z</time>
      </trkpt>
      <trkpt lat="42.274989" lon="2.751369">
        <ele>293.495</ele>
        <time>2020-10-17T14:24:33Z</time>
      </trkpt>
      <trkpt lat="42.274989" lon="2.751369">
        <ele>293.449</ele>
        <time>2020-10-17T14:24:33Z</time>
      </trkpt>
      <trkpt lat="42.274948" lon="2.751428">
        <ele>293.823</ele>
        <time>2020-10-17T14:24:37Z</time>
      </trkpt>
      <trkpt lat="42.274911" lon="2.751474">
        <ele>294.008</ele>
        <time>2020-10-17T14:24:39Z</time>
      </trkpt>
      <trkpt lat="42.274778" lon="2.751577">
        <ele>294.094</ele>
        <time>2020-10-17T14:24:43Z</time>
      </trkpt>
      <trkpt lat="42.274778" lon="2.751577">
        <ele>294.087</ele>
        <time>2020-10-17T14:24:43Z</time>
      </trkpt>
      <trkpt lat="42.274778" lon="2.751577">
        <ele>294.086</ele>
        <time>2020-10-17T14:24:43Z</time>
      </trkpt>
      <trkpt lat="42.274778" lon="2.751577">
        <ele>294.075</ele>
        <time>2020-10-17T14:24:43Z</time>
      </trkpt>
      <trkpt lat="42.274726" lon="2.751619">
        <ele>293.924</ele>
        <time>2020-10-17T14:24:45Z</time>
      </trkpt>
      <trkpt lat="42.274679" lon="2.751678">
        <ele>293.942</ele>
        <time>2020-10-17T14:24:47Z</time>
      </trkpt>
      <trkpt lat="42.274620" lon="2.751756">
        <ele>294.062</ele>
        <time>2020-10-17T14:24:49Z</time>
      </trkpt>
      <trkpt lat="42.274541" lon="2.751861">
        <ele>294.157</ele>
        <time>2020-10-17T14:24:52Z</time>
      </trkpt>
      <trkpt lat="42.274541" lon="2.751861">
        <ele>294.119</ele>
        <time>2020-10-17T14:24:52Z</time>
      </trkpt>
      <trkpt lat="42.274541" lon="2.751861">
        <ele>294.109</ele>
        <time>2020-10-17T14:24:52Z</time>
      </trkpt>
      <trkpt lat="42.274506" lon="2.751941">
        <ele>293.719</ele>
        <time>2020-10-17T14:24:54Z</time>
      </trkpt>
      <trkpt lat="42.274464" lon="2.752047">
        <ele>293.108</ele>
        <time>2020-10-17T14:24:56Z</time>
      </trkpt>
      <trkpt lat="42.274423" lon="2.752162">
        <ele>292.266</ele>
        <time>2020-10-17T14:24:58Z</time>
      </trkpt>
      <trkpt lat="42.274324" lon="2.752403">
        <ele>289.999</ele>
        <time>2020-10-17T14:25:03Z</time>
      </trkpt>
      <trkpt lat="42.274324" lon="2.752403">
        <ele>289.918</ele>
        <time>2020-10-17T14:25:03Z</time>
      </trkpt>
      <trkpt lat="42.274324" lon="2.752403">
        <ele>289.957</ele>
        <time>2020-10-17T14:25:03Z</time>
      </trkpt>
      <trkpt lat="42.274324" lon="2.752403">
        <ele>289.966</ele>
        <time>2020-10-17T14:25:03Z</time>
      </trkpt>
      <trkpt lat="42.274281" lon="2.752494">
        <ele>289.244</ele>
        <time>2020-10-17T14:25:05Z</time>
      </trkpt>
      <trkpt lat="42.274233" lon="2.752576">
        <ele>288.484</ele>
        <time>2020-10-17T14:25:07Z</time>
      </trkpt>
      <trkpt lat="42.274179" lon="2.752652">
        <ele>287.739</ele>
        <time>2020-10-17T14:25:09Z</time>
      </trkpt>
      <trkpt lat="42.274080" lon="2.752834">
        <ele>285.921</ele>
        <time>2020-10-17T14:25:13Z</time>
      </trkpt>
      <trkpt lat="42.274080" lon="2.752834">
        <ele>285.941</ele>
        <time>2020-10-17T14:25:13Z</time>
      </trkpt>
      <trkpt lat="42.274080" lon="2.752834">
        <ele>285.905</ele>
        <time>2020-10-17T14:25:13Z</time>
      </trkpt>
      <trkpt lat="42.274080" lon="2.752834">
        <ele>285.908</ele>
        <time>2020-10-17T14:25:13Z</time>
      </trkpt>
      <trkpt lat="42.274023" lon="2.752943">
        <ele>285.497</ele>
        <time>2020-10-17T14:25:15Z</time>
      </trkpt>
      <trkpt lat="42.273967" lon="2.753051">
        <ele>285.170</ele>
        <time>2020-10-17T14:25:17Z</time>
      </trkpt>
      <trkpt lat="42.273926" lon="2.753158">
        <ele>284.969</ele>
        <time>2020-10-17T14:25:19Z</time>
      </trkpt>
      <trkpt lat="42.273912" lon="2.753399">
        <ele>284.228</ele>
        <time>2020-10-17T14:25:23Z</time>
      </trkpt>
      <trkpt lat="42.273912" lon="2.753399">
        <ele>284.257</ele>
        <time>2020-10-17T14:25:23Z</time>
      </trkpt>
      <trkpt lat="42.273912" lon="2.753399">
        <ele>284.245</ele>
        <time>2020-10-17T14:25:23Z</time>
      </trkpt>
      <trkpt lat="42.273912" lon="2.753399">
        <ele>284.235</ele>
        <time>2020-10-17T14:25:23Z</time>
      </trkpt>
      <trkpt lat="42.273923" lon="2.753473">
        <ele>283.980</ele>
        <time>2020-10-17T14:25:24Z</time>
      </trkpt>
      <trkpt lat="42.273953" lon="2.753622">
        <ele>283.531</ele>
        <time>2020-10-17T14:25:26Z</time>
      </trkpt>
      <trkpt lat="42.273993" lon="2.753752">
        <ele>283.261</ele>
        <time>2020-10-17T14:25:28Z</time>
      </trkpt>
      <trkpt lat="42.274065" lon="2.753949">
        <ele>284.007</ele>
        <time>2020-10-17T14:25:32Z</time>
      </trkpt>
      <trkpt lat="42.274065" lon="2.753949">
        <ele>284.008</ele>
        <time>2020-10-17T14:25:32Z</time>
      </trkpt>
      <trkpt lat="42.274065" lon="2.753949">
        <ele>284.018</ele>
        <time>2020-10-17T14:25:32Z</time>
      </trkpt>
      <trkpt lat="42.274093" lon="2.754043">
        <ele>284.691</ele>
        <time>2020-10-17T14:25:34Z</time>
      </trkpt>
      <trkpt lat="42.274104" lon="2.754134">
        <ele>285.080</ele>
        <time>2020-10-17T14:25:36Z</time>
      </trkpt>
      <trkpt lat="42.274108" lon="2.754253">
        <ele>285.329</ele>
        <time>2020-10-17T14:25:38Z</time>
      </trkpt>
      <trkpt lat="42.274032" lon="2.754583">
        <ele>285.128</ele>
        <time>2020-10-17T14:25:43Z</time>
      </trkpt>
      <trkpt lat="42.274032" lon="2.754583">
        <ele>285.146</ele>
        <time>2020-10-17T14:25:43Z</time>
      </trkpt>
      <trkpt lat="42.274032" lon="2.754583">
        <ele>285.186</ele>
        <time>2020-10-17T14:25:43Z</time>
      </trkpt>
      <trkpt lat="42.274032" lon="2.754583">
        <ele>285.181</ele>
        <time>2020-10-17T14:25:43Z</time>
      </trkpt>
      <trkpt lat="42.273995" lon="2.754670">
        <ele>284.615</ele>
        <time>2020-10-17T14:25:45Z</time>
      </trkpt>
      <trkpt lat="42.273955" lon="2.754746">
        <ele>284.165</ele>
        <time>2020-10-17T14:25:47Z</time>
      </trkpt>
      <trkpt lat="42.273888" lon="2.754821">
        <ele>283.711</ele>
        <time>2020-10-17T14:25:49Z</time>
      </trkpt>
      <trkpt lat="42.273737" lon="2.754985">
        <ele>282.408</ele>
        <time>2020-10-17T14:25:53Z</time>
      </trkpt>
      <trkpt lat="42.273737" lon="2.754985">
        <ele>282.486</ele>
        <time>2020-10-17T14:25:53Z</time>
      </trkpt>
      <trkpt lat="42.273737" lon="2.754985">
        <ele>282.449</ele>
        <time>2020-10-17T14:25:53Z</time>
      </trkpt>
      <trkpt lat="42.273737" lon="2.754985">
        <ele>282.488</ele>
        <time>2020-10-17T14:25:53Z</time>
      </trkpt>
      <trkpt lat="42.273640" lon="2.755065">
        <ele>282.027</ele>
        <time>2020-10-17T14:25:55Z</time>
      </trkpt>
      <trkpt lat="42.273552" lon="2.755126">
        <ele>281.626</ele>
        <time>2020-10-17T14:25:57Z</time>
      </trkpt>
      <trkpt lat="42.273496" lon="2.755172">
        <ele>281.474</ele>
        <time>2020-10-17T14:25:59Z</time>
      </trkpt>
      <trkpt lat="42.273458" lon="2.755292">
        <ele>281.584</ele>
        <time>2020-10-17T14:26:03Z</time>
      </trkpt>
      <trkpt lat="42.273458" lon="2.755292">
        <ele>281.529</ele>
        <time>2020-10-17T14:26:03Z</time>
      </trkpt>
      <trkpt lat="42.273458" lon="2.755292">
        <ele>281.542</ele>
        <time>2020-10-17T14:26:03Z</time>
      </trkpt>
      <trkpt lat="42.273458" lon="2.755292">
        <ele>281.522</ele>
        <time>2020-10-17T14:26:03Z</time>
      </trkpt>
      <trkpt lat="42.273429" lon="2.755366">
        <ele>281.514</ele>
        <time>2020-10-17T14:26:05Z</time>
      </trkpt>
      <trkpt lat="42.273388" lon="2.755430">
        <ele>281.508</ele>
        <time>2020-10-17T14:26:07Z</time>
      </trkpt>
      <trkpt lat="42.273329" lon="2.755471">
        <ele>281.569</ele>
        <time>2020-10-17T14:26:09Z</time>
      </trkpt>
      <trkpt lat="42.273195" lon="2.755418">
        <ele>281.452</ele>
        <time>2020-10-17T14:26:13Z</time>
      </trkpt>
      <trkpt lat="42.273195" lon="2.755418">
        <ele>281.491</ele>
        <time>2020-10-17T14:26:13Z</time>
      </trkpt>
      <trkpt lat="42.273195" lon="2.755418">
        <ele>281.450</ele>
        <time>2020-10-17T14:26:13Z</time>
      </trkpt>
      <trkpt lat="42.273195" lon="2.755418">
        <ele>281.439</ele>
        <time>2020-10-17T14:26:13Z</time>
      </trkpt>
      <trkpt lat="42.273161" lon="2.755357">
        <ele>280.777</ele>
        <time>2020-10-17T14:26:15Z</time>
      </trkpt>
      <trkpt lat="42.273145" lon="2.755277">
        <ele>279.847</ele>
        <time>2020-10-17T14:26:17Z</time>
      </trkpt>
      <trkpt lat="42.273133" lon="2.755185">
        <ele>278.712</ele>
        <time>2020-10-17T14:26:19Z</time>
      </trkpt>
      <trkpt lat="42.273143" lon="2.755002">
        <ele>276.158</ele>
        <time>2020-10-17T14:26:23Z</time>
      </trkpt>
      <trkpt lat="42.273143" lon="2.755002">
        <ele>276.152</ele>
        <time>2020-10-17T14:26:23Z</time>
      </trkpt>
      <trkpt lat="42.273143" lon="2.755002">
        <ele>276.117</ele>
        <time>2020-10-17T14:26:23Z</time>
      </trkpt>
      <trkpt lat="42.273143" lon="2.755002">
        <ele>276.108</ele>
        <time>2020-10-17T14:26:23Z</time>
      </trkpt>
      <trkpt lat="42.273080" lon="2.755009">
        <ele>276.730</ele>
        <time>2020-10-17T14:26:32Z</time>
      </trkpt>
      <trkpt lat="42.273080" lon="2.755009">
        <ele>276.723</ele>
        <time>2020-10-17T14:26:32Z</time>
      </trkpt>
      <trkpt lat="42.273080" lon="2.755009">
        <ele>276.732</ele>
        <time>2020-10-17T14:26:32Z</time>
      </trkpt>
      <trkpt lat="42.272998" lon="2.754976">
        <ele>278.171</ele>
        <time>2020-10-17T14:26:39Z</time>
      </trkpt>
      <trkpt lat="42.273071" lon="2.754958">
        <ele>281.920</ele>
        <time>2020-10-17T14:26:59Z</time>
      </trkpt>
      <trkpt lat="42.272949" lon="2.754989">
        <ele>282.928</ele>
        <time>2020-10-17T14:27:34Z</time>
      </trkpt>
      <trkpt lat="42.272949" lon="2.754989">
        <ele>282.978</ele>
        <time>2020-10-17T14:27:34Z</time>
      </trkpt>
      <trkpt lat="42.272949" lon="2.754989">
        <ele>282.933</ele>
        <time>2020-10-17T14:27:34Z</time>
      </trkpt>
      <trkpt lat="42.272949" lon="2.754989">
        <ele>282.938</ele>
        <time>2020-10-17T14:27:34Z</time>
      </trkpt>
      <trkpt lat="42.272933" lon="2.755052">
        <ele>282.870</ele>
        <time>2020-10-17T14:27:36Z</time>
      </trkpt>
      <trkpt lat="42.272958" lon="2.755140">
        <ele>281.617</ele>
        <time>2020-10-17T14:28:10Z</time>
      </trkpt>
      <trkpt lat="42.272970" lon="2.755229">
        <ele>280.608</ele>
        <time>2020-10-17T14:28:12Z</time>
      </trkpt>
      <trkpt lat="42.272984" lon="2.755423">
        <ele>279.078</ele>
        <time>2020-10-17T14:28:16Z</time>
      </trkpt>
      <trkpt lat="42.272984" lon="2.755423">
        <ele>279.081</ele>
        <time>2020-10-17T14:28:16Z</time>
      </trkpt>
      <trkpt lat="42.272984" lon="2.755423">
        <ele>279.070</ele>
        <time>2020-10-17T14:28:16Z</time>
      </trkpt>
      <trkpt lat="42.272984" lon="2.755423">
        <ele>279.089</ele>
        <time>2020-10-17T14:28:16Z</time>
      </trkpt>
      <trkpt lat="42.272987" lon="2.755526">
        <ele>278.858</ele>
        <time>2020-10-17T14:28:18Z</time>
      </trkpt>
      <trkpt lat="42.272980" lon="2.755634">
        <ele>278.566</ele>
        <time>2020-10-17T14:28:20Z</time>
      </trkpt>
      <trkpt lat="42.272968" lon="2.755731">
        <ele>278.146</ele>
        <time>2020-10-17T14:28:22Z</time>
      </trkpt>
      <trkpt lat="42.272965" lon="2.755797">
        <ele>277.981</ele>
        <time>2020-10-17T14:28:24Z</time>
      </trkpt>
      <trkpt lat="42.272955" lon="2.755868">
        <ele>277.934</ele>
        <time>2020-10-17T14:28:26Z</time>
      </trkpt>
      <trkpt lat="42.272881" lon="2.756074">
        <ele>278.655</ele>
        <time>2020-10-17T14:28:30Z</time>
      </trkpt>
      <trkpt lat="42.272881" lon="2.756074">
        <ele>278.610</ele>
        <time>2020-10-17T14:28:30Z</time>
      </trkpt>
      <trkpt lat="42.272881" lon="2.756074">
        <ele>278.608</ele>
        <time>2020-10-17T14:28:30Z</time>
      </trkpt>
      <trkpt lat="42.272843" lon="2.756158">
        <ele>278.848</ele>
        <time>2020-10-17T14:28:32Z</time>
      </trkpt>
      <trkpt lat="42.272823" lon="2.756261">
        <ele>279.191</ele>
        <time>2020-10-17T14:28:34Z</time>
      </trkpt>
      <trkpt lat="42.272813" lon="2.756381">
        <ele>279.620</ele>
        <time>2020-10-17T14:28:36Z</time>
      </trkpt>
      <trkpt lat="42.272864" lon="2.756649">
        <ele>284.189</ele>
        <time>2020-10-17T14:28:41Z</time>
      </trkpt>
      <trkpt lat="42.272864" lon="2.756649">
        <ele>284.198</ele>
        <time>2020-10-17T14:28:41Z</time>
      </trkpt>
      <trkpt lat="42.272864" lon="2.756649">
        <ele>284.116</ele>
        <time>2020-10-17T14:28:41Z</time>
      </trkpt>
      <trkpt lat="42.272864" lon="2.756649">
        <ele>284.146</ele>
        <time>2020-10-17T14:28:41Z</time>
      </trkpt>
      <trkpt lat="42.272887" lon="2.756728">
        <ele>285.261</ele>
        <time>2020-10-17T14:28:42Z</time>
      </trkpt>
      <trkpt lat="42.272912" lon="2.756803">
        <ele>286.247</ele>
        <time>2020-10-17T14:28:43Z</time>
      </trkpt>
      <trkpt lat="42.272985" lon="2.756928">
        <ele>287.629</ele>
        <time>2020-10-17T14:28:45Z</time>
      </trkpt>
      <trkpt lat="42.273071" lon="2.757016">
        <ele>289.021</ele>
        <time>2020-10-17T14:28:47Z</time>
      </trkpt>
      <trkpt lat="42.273166" lon="2.757118">
        <ele>291.208</ele>
        <time>2020-10-17T14:28:51Z</time>
      </trkpt>
      <trkpt lat="42.273166" lon="2.757118">
        <ele>291.229</ele>
        <time>2020-10-17T14:28:51Z</time>
      </trkpt>
      <trkpt lat="42.273166" lon="2.757118">
        <ele>291.242</ele>
        <time>2020-10-17T14:28:51Z</time>
      </trkpt>
      <trkpt lat="42.273166" lon="2.757118">
        <ele>291.221</ele>
        <time>2020-10-17T14:28:51Z</time>
      </trkpt>
      <trkpt lat="42.273207" lon="2.757200">
        <ele>291.650</ele>
        <time>2020-10-17T14:28:53Z</time>
      </trkpt>
      <trkpt lat="42.273253" lon="2.757306">
        <ele>292.039</ele>
        <time>2020-10-17T14:28:55Z</time>
      </trkpt>
      <trkpt lat="42.273281" lon="2.757378">
        <ele>292.277</ele>
        <time>2020-10-17T14:28:56Z</time>
      </trkpt>
      <trkpt lat="42.273309" lon="2.757460">
        <ele>292.627</ele>
        <time>2020-10-17T14:28:57Z</time>
      </trkpt>
      <trkpt lat="42.273369" lon="2.757819">
        <ele>293.642</ele>
        <time>2020-10-17T14:29:01Z</time>
      </trkpt>
      <trkpt lat="42.273369" lon="2.757819">
        <ele>293.639</ele>
        <time>2020-10-17T14:29:01Z</time>
      </trkpt>
      <trkpt lat="42.273369" lon="2.757819">
        <ele>293.601</ele>
        <time>2020-10-17T14:29:01Z</time>
      </trkpt>
      <trkpt lat="42.273369" lon="2.757819">
        <ele>293.621</ele>
        <time>2020-10-17T14:29:01Z</time>
      </trkpt>
      <trkpt lat="42.273367" lon="2.757903">
        <ele>293.508</ele>
        <time>2020-10-17T14:29:02Z</time>
      </trkpt>
      <trkpt lat="42.273361" lon="2.757982">
        <ele>293.238</ele>
        <time>2020-10-17T14:29:03Z</time>
      </trkpt>
      <trkpt lat="42.273324" lon="2.758161">
        <ele>292.431</ele>
        <time>2020-10-17T14:29:05Z</time>
      </trkpt>
      <trkpt lat="42.273296" lon="2.758255">
        <ele>291.710</ele>
        <time>2020-10-17T14:29:06Z</time>
      </trkpt>
      <trkpt lat="42.273190" lon="2.758680">
        <ele>289.939</ele>
        <time>2020-10-17T14:29:11Z</time>
      </trkpt>
      <trkpt lat="42.273190" lon="2.758680">
        <ele>289.988</ele>
        <time>2020-10-17T14:29:11Z</time>
      </trkpt>
      <trkpt lat="42.273190" lon="2.758680">
        <ele>289.976</ele>
        <time>2020-10-17T14:29:11Z</time>
      </trkpt>
      <trkpt lat="42.273190" lon="2.758680">
        <ele>289.966</ele>
        <time>2020-10-17T14:29:11Z</time>
      </trkpt>
      <trkpt lat="42.273155" lon="2.758854">
        <ele>289.721</ele>
        <time>2020-10-17T14:29:13Z</time>
      </trkpt>
      <trkpt lat="42.273138" lon="2.758942">
        <ele>289.518</ele>
        <time>2020-10-17T14:29:14Z</time>
      </trkpt>
      <trkpt lat="42.273124" lon="2.759029">
        <ele>289.498</ele>
        <time>2020-10-17T14:29:15Z</time>
      </trkpt>
      <trkpt lat="42.273114" lon="2.759110">
        <ele>289.117</ele>
        <time>2020-10-17T14:29:16Z</time>
      </trkpt>
      <trkpt lat="42.273065" lon="2.759487">
        <ele>287.608</ele>
        <time>2020-10-17T14:29:21Z</time>
      </trkpt>
      <trkpt lat="42.273065" lon="2.759487">
        <ele>287.686</ele>
        <time>2020-10-17T14:29:21Z</time>
      </trkpt>
      <trkpt lat="42.273065" lon="2.759487">
        <ele>287.669</ele>
        <time>2020-10-17T14:29:21Z</time>
      </trkpt>
      <trkpt lat="42.273065" lon="2.759487">
        <ele>287.618</ele>
        <time>2020-10-17T14:29:21Z</time>
      </trkpt>
      <trkpt lat="42.273047" lon="2.759561">
        <ele>287.337</ele>
        <time>2020-10-17T14:29:22Z</time>
      </trkpt>
      <trkpt lat="42.273027" lon="2.759632">
        <ele>286.996</ele>
        <time>2020-10-17T14:29:23Z</time>
      </trkpt>
      <trkpt lat="42.272990" lon="2.759759">
        <ele>286.354</ele>
        <time>2020-10-17T14:29:25Z</time>
      </trkpt>
      <trkpt lat="42.272971" lon="2.759824">
        <ele>285.874</ele>
        <time>2020-10-17T14:29:26Z</time>
      </trkpt>
      <trkpt lat="42.272874" lon="2.760067">
        <ele>284.289</ele>
        <time>2020-10-17T14:29:31Z</time>
      </trkpt>
      <trkpt lat="42.272874" lon="2.760067">
        <ele>284.224</ele>
        <time>2020-10-17T14:29:31Z</time>
      </trkpt>
      <trkpt lat="42.272874" lon="2.760067">
        <ele>284.204</ele>
        <time>2020-10-17T14:29:31Z</time>
      </trkpt>
      <trkpt lat="42.272874" lon="2.760067">
        <ele>284.214</ele>
        <time>2020-10-17T14:29:31Z</time>
      </trkpt>
      <trkpt lat="42.272826" lon="2.760114">
        <ele>283.808</ele>
        <time>2020-10-17T14:29:35Z</time>
      </trkpt>
      <trkpt lat="42.272771" lon="2.760184">
        <ele>283.417</ele>
        <time>2020-10-17T14:29:37Z</time>
      </trkpt>
      <trkpt lat="42.272619" lon="2.760372">
        <ele>282.020</ele>
        <time>2020-10-17T14:29:41Z</time>
      </trkpt>
      <trkpt lat="42.272619" lon="2.760372">
        <ele>282.029</ele>
        <time>2020-10-17T14:29:41Z</time>
      </trkpt>
      <trkpt lat="42.272619" lon="2.760372">
        <ele>282.028</ele>
        <time>2020-10-17T14:29:41Z</time>
      </trkpt>
      <trkpt lat="42.272619" lon="2.760372">
        <ele>282.077</ele>
        <time>2020-10-17T14:29:41Z</time>
      </trkpt>
      <trkpt lat="42.272574" lon="2.760417">
        <ele>281.375</ele>
        <time>2020-10-17T14:29:42Z</time>
      </trkpt>
      <trkpt lat="42.272467" lon="2.760482">
        <ele>280.275</ele>
        <time>2020-10-17T14:29:44Z</time>
      </trkpt>
      <trkpt lat="42.272409" lon="2.760484">
        <ele>279.470</ele>
        <time>2020-10-17T14:29:45Z</time>
      </trkpt>
      <trkpt lat="42.272317" lon="2.760453">
        <ele>278.744</ele>
        <time>2020-10-17T14:29:47Z</time>
      </trkpt>
      <trkpt lat="42.272250" lon="2.760411">
        <ele>277.605</ele>
        <time>2020-10-17T14:29:51Z</time>
      </trkpt>
      <trkpt lat="42.272250" lon="2.760411">
        <ele>277.615</ele>
        <time>2020-10-17T14:29:51Z</time>
      </trkpt>
      <trkpt lat="42.272250" lon="2.760411">
        <ele>277.608</ele>
        <time>2020-10-17T14:29:51Z</time>
      </trkpt>
      <trkpt lat="42.272250" lon="2.760411">
        <ele>277.629</ele>
        <time>2020-10-17T14:29:51Z</time>
      </trkpt>
      <trkpt lat="42.272191" lon="2.760383">
        <ele>277.622</ele>
        <time>2020-10-17T14:30:04Z</time>
      </trkpt>
      <trkpt lat="42.272130" lon="2.760366">
        <ele>277.431</ele>
        <time>2020-10-17T14:30:07Z</time>
      </trkpt>
      <trkpt lat="42.272082" lon="2.760358">
        <ele>277.190</ele>
        <time>2020-10-17T14:30:11Z</time>
      </trkpt>
      <trkpt lat="42.272031" lon="2.760354">
        <ele>277.669</ele>
        <time>2020-10-17T14:30:31Z</time>
      </trkpt>
      <trkpt lat="42.272031" lon="2.760354">
        <ele>277.677</ele>
        <time>2020-10-17T14:30:31Z</time>
      </trkpt>
      <trkpt lat="42.272031" lon="2.760354">
        <ele>277.687</ele>
        <time>2020-10-17T14:30:31Z</time>
      </trkpt>
      <trkpt lat="42.272031" lon="2.760354">
        <ele>277.692</ele>
        <time>2020-10-17T14:30:31Z</time>
      </trkpt>
      <trkpt lat="42.271979" lon="2.760351">
        <ele>277.776</ele>
        <time>2020-10-17T14:30:44Z</time>
      </trkpt>
      <trkpt lat="42.271905" lon="2.760344">
        <ele>278.090</ele>
        <time>2020-10-17T14:30:46Z</time>
      </trkpt>
      <trkpt lat="42.271758" lon="2.760249">
        <ele>278.819</ele>
        <time>2020-10-17T14:30:51Z</time>
      </trkpt>
      <trkpt lat="42.271758" lon="2.760249">
        <ele>278.808</ele>
        <time>2020-10-17T14:30:51Z</time>
      </trkpt>
      <trkpt lat="42.271758" lon="2.760249">
        <ele>278.882</ele>
        <time>2020-10-17T14:30:51Z</time>
      </trkpt>
      <trkpt lat="42.271758" lon="2.760249">
        <ele>278.855</ele>
        <time>2020-10-17T14:30:51Z</time>
      </trkpt>
      <trkpt lat="42.271706" lon="2.760226">
        <ele>279.074</ele>
        <time>2020-10-17T14:30:53Z</time>
      </trkpt>
      <trkpt lat="42.271650" lon="2.760201">
        <ele>279.283</ele>
        <time>2020-10-17T14:30:55Z</time>
      </trkpt>
      <trkpt lat="42.271595" lon="2.760168">
        <ele>279.442</ele>
        <time>2020-10-17T14:30:57Z</time>
      </trkpt>
      <trkpt lat="42.271509" lon="2.760114">
        <ele>279.960</ele>
        <time>2020-10-17T14:31:01Z</time>
      </trkpt>
      <trkpt lat="42.271509" lon="2.760114">
        <ele>279.990</ele>
        <time>2020-10-17T14:31:01Z</time>
      </trkpt>
      <trkpt lat="42.271509" lon="2.760114">
        <ele>279.945</ele>
        <time>2020-10-17T14:31:01Z</time>
      </trkpt>
      <trkpt lat="42.271509" lon="2.760114">
        <ele>279.917</ele>
        <time>2020-10-17T14:31:01Z</time>
      </trkpt>
      <trkpt lat="42.271460" lon="2.760106">
        <ele>280.187</ele>
        <time>2020-10-17T14:31:04Z</time>
      </trkpt>
      <trkpt lat="42.271369" lon="2.760282">
        <ele>279.815</ele>
        <time>2020-10-17T14:31:11Z</time>
      </trkpt>
      <trkpt lat="42.271369" lon="2.760282">
        <ele>279.808</ele>
        <time>2020-10-17T14:31:11Z</time>
      </trkpt>
      <trkpt lat="42.271369" lon="2.760282">
        <ele>279.896</ele>
        <time>2020-10-17T14:31:11Z</time>
      </trkpt>
      <trkpt lat="42.271369" lon="2.760282">
        <ele>279.889</ele>
        <time>2020-10-17T14:31:11Z</time>
      </trkpt>
      <trkpt lat="42.271339" lon="2.760383">
        <ele>279.448</ele>
        <time>2020-10-17T14:31:13Z</time>
      </trkpt>
      <trkpt lat="42.271324" lon="2.760474">
        <ele>278.917</ele>
        <time>2020-10-17T14:31:15Z</time>
      </trkpt>
      <trkpt lat="42.271324" lon="2.760563">
        <ele>278.516</ele>
        <time>2020-10-17T14:31:17Z</time>
      </trkpt>
      <trkpt lat="42.271340" lon="2.760689">
        <ele>278.234</ele>
        <time>2020-10-17T14:31:21Z</time>
      </trkpt>
      <trkpt lat="42.271340" lon="2.760689">
        <ele>278.214</ele>
        <time>2020-10-17T14:31:21Z</time>
      </trkpt>
      <trkpt lat="42.271340" lon="2.760689">
        <ele>278.239</ele>
        <time>2020-10-17T14:31:21Z</time>
      </trkpt>
      <trkpt lat="42.271340" lon="2.760689">
        <ele>278.242</ele>
        <time>2020-10-17T14:31:21Z</time>
      </trkpt>
      <trkpt lat="42.271365" lon="2.760751">
        <ele>278.122</ele>
        <time>2020-10-17T14:31:23Z</time>
      </trkpt>
      <trkpt lat="42.271379" lon="2.760817">
        <ele>277.814</ele>
        <time>2020-10-17T14:31:25Z</time>
      </trkpt>
      <trkpt lat="42.271379" lon="2.760881">
        <ele>276.908</ele>
        <time>2020-10-17T14:31:29Z</time>
      </trkpt>
      <trkpt lat="42.271379" lon="2.760881">
        <ele>276.979</ele>
        <time>2020-10-17T14:31:29Z</time>
      </trkpt>
      <trkpt lat="42.271392" lon="2.760949">
        <ele>276.672</ele>
        <time>2020-10-17T14:31:37Z</time>
      </trkpt>
      <trkpt lat="42.271442" lon="2.760977">
        <ele>276.681</ele>
        <time>2020-10-17T14:31:41Z</time>
      </trkpt>
      <trkpt lat="42.271442" lon="2.760977">
        <ele>276.670</ele>
        <time>2020-10-17T14:31:41Z</time>
      </trkpt>
      <trkpt lat="42.271442" lon="2.760977">
        <ele>276.649</ele>
        <time>2020-10-17T14:31:41Z</time>
      </trkpt>
      <trkpt lat="42.271442" lon="2.760977">
        <ele>276.677</ele>
        <time>2020-10-17T14:31:41Z</time>
      </trkpt>
      <trkpt lat="42.271491" lon="2.761005">
        <ele>276.697</ele>
        <time>2020-10-17T14:31:43Z</time>
      </trkpt>
      <trkpt lat="42.271537" lon="2.761047">
        <ele>276.222</ele>
        <time>2020-10-17T14:31:51Z</time>
      </trkpt>
      <trkpt lat="42.271537" lon="2.761047">
        <ele>276.286</ele>
        <time>2020-10-17T14:31:51Z</time>
      </trkpt>
      <trkpt lat="42.271537" lon="2.761047">
        <ele>276.260</ele>
        <time>2020-10-17T14:31:51Z</time>
      </trkpt>
      <trkpt lat="42.271537" lon="2.761047">
        <ele>276.226</ele>
        <time>2020-10-17T14:31:51Z</time>
      </trkpt>
      <trkpt lat="42.271519" lon="2.761104">
        <ele>276.108</ele>
        <time>2020-10-17T14:31:56Z</time>
      </trkpt>
      <trkpt lat="42.271468" lon="2.761186">
        <ele>275.593</ele>
        <time>2020-10-17T14:32:01Z</time>
      </trkpt>
      <trkpt lat="42.271468" lon="2.761186">
        <ele>275.596</ele>
        <time>2020-10-17T14:32:01Z</time>
      </trkpt>
      <trkpt lat="42.271468" lon="2.761186">
        <ele>275.515</ele>
        <time>2020-10-17T14:32:01Z</time>
      </trkpt>
      <trkpt lat="42.271468" lon="2.761186">
        <ele>275.544</ele>
        <time>2020-10-17T14:32:01Z</time>
      </trkpt>
      <trkpt lat="42.271373" lon="2.761233">
        <ele>275.013</ele>
        <time>2020-10-17T14:32:07Z</time>
      </trkpt>
      <trkpt lat="42.271323" lon="2.761281">
        <ele>274.931</ele>
        <time>2020-10-17T14:32:10Z</time>
      </trkpt>
      <trkpt lat="42.271323" lon="2.761281">
        <ele>274.981</ele>
        <time>2020-10-17T14:32:10Z</time>
      </trkpt>
      <trkpt lat="42.271323" lon="2.761281">
        <ele>274.926</ele>
        <time>2020-10-17T14:32:10Z</time>
      </trkpt>
      <trkpt lat="42.271293" lon="2.761337">
        <ele>275.064</ele>
        <time>2020-10-17T14:32:13Z</time>
      </trkpt>
      <trkpt lat="42.271255" lon="2.761370">
        <ele>275.006</ele>
        <time>2020-10-17T14:32:16Z</time>
      </trkpt>
      <trkpt lat="42.271265" lon="2.761279">
        <ele>276.816</ele>
        <time>2020-10-17T14:32:54Z</time>
      </trkpt>
      <trkpt lat="42.271285" lon="2.761221">
        <ele>277.908</ele>
        <time>2020-10-17T14:33:04Z</time>
      </trkpt>
      <trkpt lat="42.271266" lon="2.761165">
        <ele>278.181</ele>
        <time>2020-10-17T14:33:12Z</time>
      </trkpt>
      <trkpt lat="42.271210" lon="2.761106">
        <ele>275.864</ele>
        <time>2020-10-17T14:33:36Z</time>
      </trkpt>
      <trkpt lat="42.271198" lon="2.761221">
        <ele>275.013</ele>
        <time>2020-10-17T14:33:41Z</time>
      </trkpt>
      <trkpt lat="42.271198" lon="2.761221">
        <ele>275.012</ele>
        <time>2020-10-17T14:33:41Z</time>
      </trkpt>
      <trkpt lat="42.271198" lon="2.761221">
        <ele>275.041</ele>
        <time>2020-10-17T14:33:41Z</time>
      </trkpt>
      <trkpt lat="42.271198" lon="2.761221">
        <ele>275.029</ele>
        <time>2020-10-17T14:33:41Z</time>
      </trkpt>
      <trkpt lat="42.271197" lon="2.761283">
        <ele>274.449</ele>
        <time>2020-10-17T14:33:44Z</time>
      </trkpt>
      <trkpt lat="42.271189" lon="2.761380">
        <ele>273.564</ele>
        <time>2020-10-17T14:33:51Z</time>
      </trkpt>
      <trkpt lat="42.271189" lon="2.761380">
        <ele>273.556</ele>
        <time>2020-10-17T14:33:51Z</time>
      </trkpt>
      <trkpt lat="42.271189" lon="2.761380">
        <ele>273.559</ele>
        <time>2020-10-17T14:33:51Z</time>
      </trkpt>
      <trkpt lat="42.271189" lon="2.761380">
        <ele>273.514</ele>
        <time>2020-10-17T14:33:51Z</time>
      </trkpt>
      <trkpt lat="42.271175" lon="2.761481">
        <ele>273.608</ele>
        <time>2020-10-17T14:34:33Z</time>
      </trkpt>
      <trkpt lat="42.271174" lon="2.761566">
        <ele>273.820</ele>
        <time>2020-10-17T14:34:35Z</time>
      </trkpt>
      <trkpt lat="42.271178" lon="2.761653">
        <ele>274.123</ele>
        <time>2020-10-17T14:34:37Z</time>
      </trkpt>
      <trkpt lat="42.271179" lon="2.761742">
        <ele>274.662</ele>
        <time>2020-10-17T14:34:39Z</time>
      </trkpt>
      <trkpt lat="42.271176" lon="2.761820">
        <ele>275.051</ele>
        <time>2020-10-17T14:34:41Z</time>
      </trkpt>
      <trkpt lat="42.271168" lon="2.761886">
        <ele>275.430</ele>
        <time>2020-10-17T14:34:43Z</time>
      </trkpt>
      <trkpt lat="42.271160" lon="2.761946">
        <ele>275.998</ele>
        <time>2020-10-17T14:34:46Z</time>
      </trkpt>
      <trkpt lat="42.271149" lon="2.762012">
        <ele>276.428</ele>
        <time>2020-10-17T14:34:48Z</time>
      </trkpt>
      <trkpt lat="42.271135" lon="2.762118">
        <ele>276.693</ele>
        <time>2020-10-17T14:34:50Z</time>
      </trkpt>
      <trkpt lat="42.271132" lon="2.762210">
        <ele>276.774</ele>
        <time>2020-10-17T14:34:52Z</time>
      </trkpt>
      <trkpt lat="42.271116" lon="2.762270">
        <ele>276.456</ele>
        <time>2020-10-17T14:34:54Z</time>
      </trkpt>
      <trkpt lat="42.271078" lon="2.762339">
        <ele>276.021</ele>
        <time>2020-10-17T14:34:56Z</time>
      </trkpt>
      <trkpt lat="42.271041" lon="2.762412">
        <ele>275.208</ele>
        <time>2020-10-17T14:34:58Z</time>
      </trkpt>
      <trkpt lat="42.271018" lon="2.762482">
        <ele>274.152</ele>
        <time>2020-10-17T14:35:00Z</time>
      </trkpt>
      <trkpt lat="42.270985" lon="2.762577">
        <ele>273.265</ele>
        <time>2020-10-17T14:35:02Z</time>
      </trkpt>
      <trkpt lat="42.270937" lon="2.762680">
        <ele>272.574</ele>
        <time>2020-10-17T14:35:04Z</time>
      </trkpt>
      <trkpt lat="42.270908" lon="2.762731">
        <ele>272.043</ele>
        <time>2020-10-17T14:35:05Z</time>
      </trkpt>
      <trkpt lat="42.270877" lon="2.762776">
        <ele>271.722</ele>
        <time>2020-10-17T14:35:06Z</time>
      </trkpt>
      <trkpt lat="42.270817" lon="2.762854">
        <ele>271.320</ele>
        <time>2020-10-17T14:35:08Z</time>
      </trkpt>
      <trkpt lat="42.270759" lon="2.762934">
        <ele>271.150</ele>
        <time>2020-10-17T14:35:10Z</time>
      </trkpt>
      <trkpt lat="42.270729" lon="2.762987">
        <ele>271.095</ele>
        <time>2020-10-17T14:35:11Z</time>
      </trkpt>
      <trkpt lat="42.270672" lon="2.763089">
        <ele>271.153</ele>
        <time>2020-10-17T14:35:13Z</time>
      </trkpt>
      <trkpt lat="42.270642" lon="2.763134">
        <ele>271.204</ele>
        <time>2020-10-17T14:35:14Z</time>
      </trkpt>
      <trkpt lat="42.270601" lon="2.763205">
        <ele>271.214</ele>
        <time>2020-10-17T14:35:16Z</time>
      </trkpt>
      <trkpt lat="42.270588" lon="2.763279">
        <ele>271.108</ele>
        <time>2020-10-17T14:35:18Z</time>
      </trkpt>
      <trkpt lat="42.270581" lon="2.763339">
        <ele>270.720</ele>
        <time>2020-10-17T14:35:21Z</time>
      </trkpt>
      <trkpt lat="42.270609" lon="2.763440">
        <ele>270.093</ele>
        <time>2020-10-17T14:35:25Z</time>
      </trkpt>
      <trkpt lat="42.270601" lon="2.763547">
        <ele>269.412</ele>
        <time>2020-10-17T14:35:27Z</time>
      </trkpt>
      <trkpt lat="42.270593" lon="2.763645">
        <ele>268.851</ele>
        <time>2020-10-17T14:35:29Z</time>
      </trkpt>
      <trkpt lat="42.270578" lon="2.763734">
        <ele>268.350</ele>
        <time>2020-10-17T14:35:31Z</time>
      </trkpt>
      <trkpt lat="42.270551" lon="2.763804">
        <ele>268.018</ele>
        <time>2020-10-17T14:35:33Z</time>
      </trkpt>
      <trkpt lat="42.270522" lon="2.763868">
        <ele>267.958</ele>
        <time>2020-10-17T14:35:35Z</time>
      </trkpt>
      <trkpt lat="42.270496" lon="2.763948">
        <ele>267.923</ele>
        <time>2020-10-17T14:35:37Z</time>
      </trkpt>
      <trkpt lat="42.270465" lon="2.764041">
        <ele>268.097</ele>
        <time>2020-10-17T14:35:39Z</time>
      </trkpt>
      <trkpt lat="42.270431" lon="2.764136">
        <ele>268.523</ele>
        <time>2020-10-17T14:35:41Z</time>
      </trkpt>
      <trkpt lat="42.270368" lon="2.764223">
        <ele>269.225</ele>
        <time>2020-10-17T14:35:43Z</time>
      </trkpt>
      <trkpt lat="42.270290" lon="2.764297">
        <ele>269.908</ele>
        <time>2020-10-17T14:35:45Z</time>
      </trkpt>
      <trkpt lat="42.270224" lon="2.764354">
        <ele>270.594</ele>
        <time>2020-10-17T14:35:47Z</time>
      </trkpt>
      <trkpt lat="42.270177" lon="2.764392">
        <ele>271.047</ele>
        <time>2020-10-17T14:35:49Z</time>
      </trkpt>
      <trkpt lat="42.270136" lon="2.764433">
        <ele>272.136</ele>
        <time>2020-10-17T14:35:59Z</time>
      </trkpt>
      <trkpt lat="42.270071" lon="2.764376">
        <ele>273.115</ele>
        <time>2020-10-17T14:36:01Z</time>
      </trkpt>
      <trkpt lat="42.270020" lon="2.764315">
        <ele>274.084</ele>
        <time>2020-10-17T14:36:03Z</time>
      </trkpt>
      <trkpt lat="42.269953" lon="2.764264">
        <ele>275.962</ele>
        <time>2020-10-17T14:36:09Z</time>
      </trkpt>
      <trkpt lat="42.269883" lon="2.764240">
        <ele>276.532</ele>
        <time>2020-10-17T14:36:11Z</time>
      </trkpt>
      <trkpt lat="42.269784" lon="2.764216">
        <ele>277.237</ele>
        <time>2020-10-17T14:36:13Z</time>
      </trkpt>
      <trkpt lat="42.269677" lon="2.764178">
        <ele>277.834</ele>
        <time>2020-10-17T14:36:15Z</time>
      </trkpt>
      <trkpt lat="42.269580" lon="2.764139">
        <ele>278.455</ele>
        <time>2020-10-17T14:36:17Z</time>
      </trkpt>
      <trkpt lat="42.269516" lon="2.764117">
        <ele>279.310</ele>
        <time>2020-10-17T14:36:19Z</time>
      </trkpt>
      <trkpt lat="42.269462" lon="2.764093">
        <ele>280.608</ele>
        <time>2020-10-17T14:36:22Z</time>
      </trkpt>
      <trkpt lat="42.269417" lon="2.764042">
        <ele>281.938</ele>
        <time>2020-10-17T14:36:24Z</time>
      </trkpt>
      <trkpt lat="42.269356" lon="2.763955">
        <ele>283.161</ele>
        <time>2020-10-17T14:36:26Z</time>
      </trkpt>
      <trkpt lat="42.269326" lon="2.763901">
        <ele>283.970</ele>
        <time>2020-10-17T14:36:27Z</time>
      </trkpt>
      <trkpt lat="42.269257" lon="2.763786">
        <ele>284.729</ele>
        <time>2020-10-17T14:36:29Z</time>
      </trkpt>
      <trkpt lat="42.269222" lon="2.763719">
        <ele>285.228</ele>
        <time>2020-10-17T14:36:30Z</time>
      </trkpt>
      <trkpt lat="42.269190" lon="2.763650">
        <ele>285.586</ele>
        <time>2020-10-17T14:36:31Z</time>
      </trkpt>
      <trkpt lat="42.269136" lon="2.763508">
        <ele>285.596</ele>
        <time>2020-10-17T14:36:33Z</time>
      </trkpt>
      <trkpt lat="42.269085" lon="2.763381">
        <ele>285.491</ele>
        <time>2020-10-17T14:36:35Z</time>
      </trkpt>
      <trkpt lat="42.269033" lon="2.763267">
        <ele>285.254</ele>
        <time>2020-10-17T14:36:37Z</time>
      </trkpt>
      <trkpt lat="42.269007" lon="2.763217">
        <ele>285.056</ele>
        <time>2020-10-17T14:36:38Z</time>
      </trkpt>
      <trkpt lat="42.268957" lon="2.763123">
        <ele>284.611</ele>
        <time>2020-10-17T14:36:40Z</time>
      </trkpt>
      <trkpt lat="42.268920" lon="2.763026">
        <ele>284.008</ele>
        <time>2020-10-17T14:36:42Z</time>
      </trkpt>
      <trkpt lat="42.268880" lon="2.762933">
        <ele>283.210</ele>
        <time>2020-10-17T14:36:44Z</time>
      </trkpt>
      <trkpt lat="42.268877" lon="2.762871">
        <ele>282.563</ele>
        <time>2020-10-17T14:36:48Z</time>
      </trkpt>
      <trkpt lat="42.268852" lon="2.762783">
        <ele>282.122</ele>
        <time>2020-10-17T14:36:51Z</time>
      </trkpt>
      <trkpt lat="42.268810" lon="2.762700">
        <ele>281.741</ele>
        <time>2020-10-17T14:36:53Z</time>
      </trkpt>
      <trkpt lat="42.268776" lon="2.762619">
        <ele>281.730</ele>
        <time>2020-10-17T14:36:55Z</time>
      </trkpt>
      <trkpt lat="42.268746" lon="2.762533">
        <ele>281.968</ele>
        <time>2020-10-17T14:36:57Z</time>
      </trkpt>
      <trkpt lat="42.268722" lon="2.762436">
        <ele>282.268</ele>
        <time>2020-10-17T14:36:59Z</time>
      </trkpt>
      <trkpt lat="42.268700" lon="2.762338">
        <ele>282.443</ele>
        <time>2020-10-17T14:37:01Z</time>
      </trkpt>
      <trkpt lat="42.268671" lon="2.762245">
        <ele>282.424</ele>
        <time>2020-10-17T14:37:03Z</time>
      </trkpt>
      <trkpt lat="42.268641" lon="2.762164">
        <ele>282.604</ele>
        <time>2020-10-17T14:37:05Z</time>
      </trkpt>
      <trkpt lat="42.268601" lon="2.762090">
        <ele>283.114</ele>
        <time>2020-10-17T14:37:07Z</time>
      </trkpt>
      <trkpt lat="42.268560" lon="2.762029">
        <ele>283.508</ele>
        <time>2020-10-17T14:37:09Z</time>
      </trkpt>
      <trkpt lat="42.268521" lon="2.761985">
        <ele>284.057</ele>
        <time>2020-10-17T14:37:11Z</time>
      </trkpt>
      <trkpt lat="42.268487" lon="2.761927">
        <ele>284.920</ele>
        <time>2020-10-17T14:37:13Z</time>
      </trkpt>
      <trkpt lat="42.268452" lon="2.761863">
        <ele>286.199</ele>
        <time>2020-10-17T14:37:15Z</time>
      </trkpt>
      <trkpt lat="42.268418" lon="2.761807">
        <ele>287.418</ele>
        <time>2020-10-17T14:37:17Z</time>
      </trkpt>
      <trkpt lat="42.268374" lon="2.761763">
        <ele>288.717</ele>
        <time>2020-10-17T14:37:19Z</time>
      </trkpt>
      <trkpt lat="42.268323" lon="2.761720">
        <ele>290.135</ele>
        <time>2020-10-17T14:37:21Z</time>
      </trkpt>
      <trkpt lat="42.268266" lon="2.761678">
        <ele>291.645</ele>
        <time>2020-10-17T14:37:23Z</time>
      </trkpt>
      <trkpt lat="42.268187" lon="2.761628">
        <ele>292.960</ele>
        <time>2020-10-17T14:37:25Z</time>
      </trkpt>
      <trkpt lat="42.268101" lon="2.761578">
        <ele>294.334</ele>
        <time>2020-10-17T14:37:27Z</time>
      </trkpt>
      <trkpt lat="42.268022" lon="2.761515">
        <ele>295.455</ele>
        <time>2020-10-17T14:37:29Z</time>
      </trkpt>
      <trkpt lat="42.267984" lon="2.761478">
        <ele>296.310</ele>
        <time>2020-10-17T14:37:30Z</time>
      </trkpt>
      <trkpt lat="42.267909" lon="2.761412">
        <ele>297.208</ele>
        <time>2020-10-17T14:37:32Z</time>
      </trkpt>
      <trkpt lat="42.267829" lon="2.761352">
        <ele>298.018</ele>
        <time>2020-10-17T14:37:34Z</time>
      </trkpt>
      <trkpt lat="42.267763" lon="2.761283">
        <ele>298.881</ele>
        <time>2020-10-17T14:37:36Z</time>
      </trkpt>
      <trkpt lat="42.267721" lon="2.761233">
        <ele>299.680</ele>
        <time>2020-10-17T14:37:38Z</time>
      </trkpt>
      <trkpt lat="42.267680" lon="2.761180">
        <ele>300.259</ele>
        <time>2020-10-17T14:37:41Z</time>
      </trkpt>
      <trkpt lat="42.267643" lon="2.761115">
        <ele>301.028</ele>
        <time>2020-10-17T14:37:44Z</time>
      </trkpt>
      <trkpt lat="42.267602" lon="2.761053">
        <ele>301.636</ele>
        <time>2020-10-17T14:37:46Z</time>
      </trkpt>
      <trkpt lat="42.267554" lon="2.760995">
        <ele>302.216</ele>
        <time>2020-10-17T14:37:48Z</time>
      </trkpt>
      <trkpt lat="42.267515" lon="2.760942">
        <ele>302.781</ele>
        <time>2020-10-17T14:37:50Z</time>
      </trkpt>
      <trkpt lat="42.267493" lon="2.760873">
        <ele>303.312</ele>
        <time>2020-10-17T14:37:52Z</time>
      </trkpt>
      <trkpt lat="42.267480" lon="2.760796">
        <ele>303.832</ele>
        <time>2020-10-17T14:37:54Z</time>
      </trkpt>
      <trkpt lat="42.267468" lon="2.760715">
        <ele>304.005</ele>
        <time>2020-10-17T14:37:56Z</time>
      </trkpt>
      <trkpt lat="42.267451" lon="2.760625">
        <ele>303.908</ele>
        <time>2020-10-17T14:37:58Z</time>
      </trkpt>
      <trkpt lat="42.267432" lon="2.760539">
        <ele>303.956</ele>
        <time>2020-10-17T14:38:00Z</time>
      </trkpt>
      <trkpt lat="42.267410" lon="2.760474">
        <ele>304.099</ele>
        <time>2020-10-17T14:38:02Z</time>
      </trkpt>
      <trkpt lat="42.267373" lon="2.760435">
        <ele>304.138</ele>
        <time>2020-10-17T14:38:04Z</time>
      </trkpt>
      <trkpt lat="42.267326" lon="2.760393">
        <ele>304.347</ele>
        <time>2020-10-17T14:38:06Z</time>
      </trkpt>
      <trkpt lat="42.267277" lon="2.760339">
        <ele>304.746</ele>
        <time>2020-10-17T14:38:08Z</time>
      </trkpt>
      <trkpt lat="42.267224" lon="2.760281">
        <ele>304.914</ele>
        <time>2020-10-17T14:38:10Z</time>
      </trkpt>
      <trkpt lat="42.267171" lon="2.760209">
        <ele>304.824</ele>
        <time>2020-10-17T14:38:12Z</time>
      </trkpt>
      <trkpt lat="42.267124" lon="2.760121">
        <ele>304.989</ele>
        <time>2020-10-17T14:38:14Z</time>
      </trkpt>
      <trkpt lat="42.267090" lon="2.760033">
        <ele>305.581</ele>
        <time>2020-10-17T14:38:16Z</time>
      </trkpt>
      <trkpt lat="42.267063" lon="2.759945">
        <ele>306.361</ele>
        <time>2020-10-17T14:38:18Z</time>
      </trkpt>
      <trkpt lat="42.267034" lon="2.759852">
        <ele>307.217</ele>
        <time>2020-10-17T14:38:20Z</time>
      </trkpt>
      <trkpt lat="42.267007" lon="2.759768">
        <ele>308.208</ele>
        <time>2020-10-17T14:38:22Z</time>
      </trkpt>
      <trkpt lat="42.266984" lon="2.759700">
        <ele>309.313</ele>
        <time>2020-10-17T14:38:24Z</time>
      </trkpt>
      <trkpt lat="42.266959" lon="2.759621">
        <ele>310.226</ele>
        <time>2020-10-17T14:38:26Z</time>
      </trkpt>
      <trkpt lat="42.266934" lon="2.759525">
        <ele>311.055</ele>
        <time>2020-10-17T14:38:28Z</time>
      </trkpt>
      <trkpt lat="42.266909" lon="2.759420">
        <ele>311.994</ele>
        <time>2020-10-17T14:38:30Z</time>
      </trkpt>
      <trkpt lat="42.266885" lon="2.759319">
        <ele>312.723</ele>
        <time>2020-10-17T14:38:32Z</time>
      </trkpt>
      <trkpt lat="42.266871" lon="2.759209">
        <ele>313.311</ele>
        <time>2020-10-17T14:38:34Z</time>
      </trkpt>
      <trkpt lat="42.266860" lon="2.759106">
        <ele>314.121</ele>
        <time>2020-10-17T14:38:36Z</time>
      </trkpt>
      <trkpt lat="42.266866" lon="2.759024">
        <ele>315.216</ele>
        <time>2020-10-17T14:38:38Z</time>
      </trkpt>
      <trkpt lat="42.266882" lon="2.758947">
        <ele>316.494</ele>
        <time>2020-10-17T14:38:41Z</time>
      </trkpt>
      <trkpt lat="42.266890" lon="2.758859">
        <ele>317.557</ele>
        <time>2020-10-17T14:38:44Z</time>
      </trkpt>
      <trkpt lat="42.266896" lon="2.758796">
        <ele>318.622</ele>
        <time>2020-10-17T14:38:46Z</time>
      </trkpt>
      <trkpt lat="42.266896" lon="2.758718">
        <ele>319.508</ele>
        <time>2020-10-17T14:38:48Z</time>
      </trkpt>
      <trkpt lat="42.266890" lon="2.758643">
        <ele>320.224</ele>
        <time>2020-10-17T14:38:50Z</time>
      </trkpt>
      <trkpt lat="42.266883" lon="2.758568">
        <ele>320.787</ele>
        <time>2020-10-17T14:38:52Z</time>
      </trkpt>
      <trkpt lat="42.266879" lon="2.758495">
        <ele>321.076</ele>
        <time>2020-10-17T14:38:54Z</time>
      </trkpt>
      <trkpt lat="42.266881" lon="2.758430">
        <ele>321.525</ele>
        <time>2020-10-17T14:38:56Z</time>
      </trkpt>
      <trkpt lat="42.266886" lon="2.758363">
        <ele>322.284</ele>
        <time>2020-10-17T14:38:58Z</time>
      </trkpt>
      <trkpt lat="42.266875" lon="2.758292">
        <ele>322.822</ele>
        <time>2020-10-17T14:39:00Z</time>
      </trkpt>
      <trkpt lat="42.266833" lon="2.758250">
        <ele>323.782</ele>
        <time>2020-10-17T14:39:02Z</time>
      </trkpt>
      <trkpt lat="42.266766" lon="2.758235">
        <ele>325.287</ele>
        <time>2020-10-17T14:39:04Z</time>
      </trkpt>
      <trkpt lat="42.266693" lon="2.758243">
        <ele>326.666</ele>
        <time>2020-10-17T14:39:06Z</time>
      </trkpt>
      <trkpt lat="42.266624" lon="2.758296">
        <ele>327.729</ele>
        <time>2020-10-17T14:39:08Z</time>
      </trkpt>
      <trkpt lat="42.266586" lon="2.758394">
        <ele>328.721</ele>
        <time>2020-10-17T14:39:10Z</time>
      </trkpt>
      <trkpt lat="42.266566" lon="2.758497">
        <ele>329.208</ele>
        <time>2020-10-17T14:39:12Z</time>
      </trkpt>
      <trkpt lat="42.266566" lon="2.758613">
        <ele>329.591</ele>
        <time>2020-10-17T14:39:14Z</time>
      </trkpt>
      <trkpt lat="42.266561" lon="2.758716">
        <ele>329.154</ele>
        <time>2020-10-17T14:39:16Z</time>
      </trkpt>
      <trkpt lat="42.266526" lon="2.758790">
        <ele>328.813</ele>
        <time>2020-10-17T14:39:18Z</time>
      </trkpt>
      <trkpt lat="42.266476" lon="2.758817">
        <ele>328.742</ele>
        <time>2020-10-17T14:39:20Z</time>
      </trkpt>
      <trkpt lat="42.266423" lon="2.758831">
        <ele>329.091</ele>
        <time>2020-10-17T14:39:22Z</time>
      </trkpt>
      <trkpt lat="42.266393" lon="2.758878">
        <ele>329.239</ele>
        <time>2020-10-17T14:39:25Z</time>
      </trkpt>
      <trkpt lat="42.266407" lon="2.758947">
        <ele>329.329</ele>
        <time>2020-10-17T14:39:27Z</time>
      </trkpt>
      <trkpt lat="42.266420" lon="2.759006">
        <ele>329.714</ele>
        <time>2020-10-17T14:39:29Z</time>
      </trkpt>
      <trkpt lat="42.266446" lon="2.759097">
        <ele>330.689</ele>
        <time>2020-10-17T14:39:32Z</time>
      </trkpt>
      <trkpt lat="42.266456" lon="2.759180">
        <ele>331.406</ele>
        <time>2020-10-17T14:39:34Z</time>
      </trkpt>
      <trkpt lat="42.266446" lon="2.759271">
        <ele>331.926</ele>
        <time>2020-10-17T14:39:36Z</time>
      </trkpt>
      <trkpt lat="42.266422" lon="2.759366">
        <ele>332.208</ele>
        <time>2020-10-17T14:39:38Z</time>
      </trkpt>
      <trkpt lat="42.266391" lon="2.759450">
        <ele>332.473</ele>
        <time>2020-10-17T14:39:40Z</time>
      </trkpt>
      <trkpt lat="42.266357" lon="2.759508">
        <ele>332.636</ele>
        <time>2020-10-17T14:39:42Z</time>
      </trkpt>
      <trkpt lat="42.266309" lon="2.759543">
        <ele>332.865</ele>
        <time>2020-10-17T14:39:44Z</time>
      </trkpt>
      <trkpt lat="42.266253" lon="2.759558">
        <ele>333.174</ele>
        <time>2020-10-17T14:39:46Z</time>
      </trkpt>
      <trkpt lat="42.266191" lon="2.759575">
        <ele>333.513</ele>
        <time>2020-10-17T14:39:48Z</time>
      </trkpt>
      <trkpt lat="42.266145" lon="2.759593">
        <ele>333.841</ele>
        <time>2020-10-17T14:39:50Z</time>
      </trkpt>
      <trkpt lat="42.266079" lon="2.759617">
        <ele>334.131</ele>
        <time>2020-10-17T14:39:53Z</time>
      </trkpt>
      <trkpt lat="42.266034" lon="2.759642">
        <ele>334.476</ele>
        <time>2020-10-17T14:39:55Z</time>
      </trkpt>
      <trkpt lat="42.265990" lon="2.759671">
        <ele>334.631</ele>
        <time>2020-10-17T14:39:57Z</time>
      </trkpt>
      <trkpt lat="42.265941" lon="2.759708">
        <ele>334.861</ele>
        <time>2020-10-17T14:39:59Z</time>
      </trkpt>
      <trkpt lat="42.265880" lon="2.759741">
        <ele>334.907</ele>
        <time>2020-10-17T14:40:01Z</time>
      </trkpt>
      <trkpt lat="42.265805" lon="2.759777">
        <ele>334.908</ele>
        <time>2020-10-17T14:40:03Z</time>
      </trkpt>
      <trkpt lat="42.265723" lon="2.759810">
        <ele>334.818</ele>
        <time>2020-10-17T14:40:05Z</time>
      </trkpt>
      <trkpt lat="42.265654" lon="2.759839">
        <ele>334.741</ele>
        <time>2020-10-17T14:40:07Z</time>
      </trkpt>
      <trkpt lat="42.265590" lon="2.759860">
        <ele>334.890</ele>
        <time>2020-10-17T14:40:09Z</time>
      </trkpt>
      <trkpt lat="42.265537" lon="2.759877">
        <ele>335.179</ele>
        <time>2020-10-17T14:40:11Z</time>
      </trkpt>
      <trkpt lat="42.265486" lon="2.759911">
        <ele>335.538</ele>
        <time>2020-10-17T14:40:13Z</time>
      </trkpt>
      <trkpt lat="42.265426" lon="2.759972">
        <ele>336.436</ele>
        <time>2020-10-17T14:40:15Z</time>
      </trkpt>
      <trkpt lat="42.265364" lon="2.760038">
        <ele>337.536</ele>
        <time>2020-10-17T14:40:17Z</time>
      </trkpt>
      <trkpt lat="42.265316" lon="2.760086">
        <ele>338.581</ele>
        <time>2020-10-17T14:40:19Z</time>
      </trkpt>
      <trkpt lat="42.265268" lon="2.760138">
        <ele>339.467</ele>
        <time>2020-10-17T14:40:21Z</time>
      </trkpt>
      <trkpt lat="42.265246" lon="2.760194">
        <ele>340.881</ele>
        <time>2020-10-17T14:40:25Z</time>
      </trkpt>
      <trkpt lat="42.265233" lon="2.760276">
        <ele>341.919</ele>
        <time>2020-10-17T14:40:28Z</time>
      </trkpt>
      <trkpt lat="42.265204" lon="2.760331">
        <ele>342.808</ele>
        <time>2020-10-17T14:40:30Z</time>
      </trkpt>
      <trkpt lat="42.265162" lon="2.760391">
        <ele>343.641</ele>
        <time>2020-10-17T14:40:32Z</time>
      </trkpt>
      <trkpt lat="42.265120" lon="2.760456">
        <ele>344.524</ele>
        <time>2020-10-17T14:40:34Z</time>
      </trkpt>
      <trkpt lat="42.265083" lon="2.760509">
        <ele>345.193</ele>
        <time>2020-10-17T14:40:36Z</time>
      </trkpt>
      <trkpt lat="42.265044" lon="2.760566">
        <ele>345.722</ele>
        <time>2020-10-17T14:40:38Z</time>
      </trkpt>
      <trkpt lat="42.264993" lon="2.760652">
        <ele>346.051</ele>
        <time>2020-10-17T14:40:40Z</time>
      </trkpt>
      <trkpt lat="42.264966" lon="2.760708">
        <ele>346.369</ele>
        <time>2020-10-17T14:40:41Z</time>
      </trkpt>
      <trkpt lat="42.264915" lon="2.760831">
        <ele>346.329</ele>
        <time>2020-10-17T14:40:43Z</time>
      </trkpt>
      <trkpt lat="42.264859" lon="2.760980">
        <ele>346.554</ele>
        <time>2020-10-17T14:40:45Z</time>
      </trkpt>
      <trkpt lat="42.264826" lon="2.761050">
        <ele>346.677</ele>
        <time>2020-10-17T14:40:46Z</time>
      </trkpt>
      <trkpt lat="42.264786" lon="2.761114">
        <ele>346.661</ele>
        <time>2020-10-17T14:40:47Z</time>
      </trkpt>
      <trkpt lat="42.264693" lon="2.761236">
        <ele>346.527</ele>
        <time>2020-10-17T14:40:49Z</time>
      </trkpt>
      <trkpt lat="42.264596" lon="2.761351">
        <ele>346.508</ele>
        <time>2020-10-17T14:40:51Z</time>
      </trkpt>
      <trkpt lat="42.264507" lon="2.761448">
        <ele>346.552</ele>
        <time>2020-10-17T14:40:53Z</time>
      </trkpt>
      <trkpt lat="42.264469" lon="2.761489">
        <ele>346.625</ele>
        <time>2020-10-17T14:40:54Z</time>
      </trkpt>
      <trkpt lat="42.264415" lon="2.761540">
        <ele>346.884</ele>
        <time>2020-10-17T14:40:56Z</time>
      </trkpt>
      <trkpt lat="42.264371" lon="2.761574">
        <ele>347.183</ele>
        <time>2020-10-17T14:40:58Z</time>
      </trkpt>
      <trkpt lat="42.264316" lon="2.761658">
        <ele>347.392</ele>
        <time>2020-10-17T14:41:00Z</time>
      </trkpt>
      <trkpt lat="42.264276" lon="2.761775">
        <ele>347.510</ele>
        <time>2020-10-17T14:41:02Z</time>
      </trkpt>
      <trkpt lat="42.264288" lon="2.761858">
        <ele>347.770</ele>
        <time>2020-10-17T14:41:04Z</time>
      </trkpt>
      <trkpt lat="42.264316" lon="2.761921">
        <ele>348.175</ele>
        <time>2020-10-17T14:41:06Z</time>
      </trkpt>
      <trkpt lat="42.264329" lon="2.761984">
        <ele>348.788</ele>
        <time>2020-10-17T14:41:09Z</time>
      </trkpt>
      <trkpt lat="42.264289" lon="2.762037">
        <ele>349.624</ele>
        <time>2020-10-17T14:41:12Z</time>
      </trkpt>
      <trkpt lat="42.264244" lon="2.762063">
        <ele>350.426</ele>
        <time>2020-10-17T14:41:14Z</time>
      </trkpt>
      <trkpt lat="42.264168" lon="2.762056">
        <ele>351.208</ele>
        <time>2020-10-17T14:41:16Z</time>
      </trkpt>
      <trkpt lat="42.264071" lon="2.762047">
        <ele>351.853</ele>
        <time>2020-10-17T14:41:18Z</time>
      </trkpt>
      <trkpt lat="42.263984" lon="2.762027">
        <ele>352.436</ele>
        <time>2020-10-17T14:41:20Z</time>
      </trkpt>
      <trkpt lat="42.263911" lon="2.761992">
        <ele>352.975</ele>
        <time>2020-10-17T14:41:22Z</time>
      </trkpt>
      <trkpt lat="42.263870" lon="2.761966">
        <ele>353.224</ele>
        <time>2020-10-17T14:41:23Z</time>
      </trkpt>
      <trkpt lat="42.263785" lon="2.761894">
        <ele>353.663</ele>
        <time>2020-10-17T14:41:25Z</time>
      </trkpt>
      <trkpt lat="42.263738" lon="2.761839">
        <ele>353.931</ele>
        <time>2020-10-17T14:41:26Z</time>
      </trkpt>
      <trkpt lat="42.263687" lon="2.761771">
        <ele>354.271</ele>
        <time>2020-10-17T14:41:27Z</time>
      </trkpt>
      <trkpt lat="42.263635" lon="2.761694">
        <ele>354.556</ele>
        <time>2020-10-17T14:41:28Z</time>
      </trkpt>
      <trkpt lat="42.263542" lon="2.761562">
        <ele>355.139</ele>
        <time>2020-10-17T14:41:30Z</time>
      </trkpt>
      <trkpt lat="42.263501" lon="2.761507">
        <ele>355.501</ele>
        <time>2020-10-17T14:41:31Z</time>
      </trkpt>
      <trkpt lat="42.263424" lon="2.761400">
        <ele>356.121</ele>
        <time>2020-10-17T14:41:33Z</time>
      </trkpt>
      <trkpt lat="42.263390" lon="2.761351">
        <ele>356.708</ele>
        <time>2020-10-17T14:41:34Z</time>
      </trkpt>
      <trkpt lat="42.263356" lon="2.761275">
        <ele>357.488</ele>
        <time>2020-10-17T14:41:36Z</time>
      </trkpt>
      <trkpt lat="42.263315" lon="2.761187">
        <ele>358.151</ele>
        <time>2020-10-17T14:41:38Z</time>
      </trkpt>
      <trkpt lat="42.263285" lon="2.761120">
        <ele>358.550</ele>
        <time>2020-10-17T14:41:40Z</time>
      </trkpt>
      <trkpt lat="42.263246" lon="2.761065">
        <ele>358.739</ele>
        <time>2020-10-17T14:41:44Z</time>
      </trkpt>
      <trkpt lat="42.263201" lon="2.760994">
        <ele>358.988</ele>
        <time>2020-10-17T14:41:47Z</time>
      </trkpt>
      <trkpt lat="42.263171" lon="2.760926">
        <ele>359.366</ele>
        <time>2020-10-17T14:41:49Z</time>
      </trkpt>
      <trkpt lat="42.263152" lon="2.760823">
        <ele>359.886</ele>
        <time>2020-10-17T14:41:51Z</time>
      </trkpt>
      <trkpt lat="42.263153" lon="2.760713">
        <ele>360.471</ele>
        <time>2020-10-17T14:41:53Z</time>
      </trkpt>
      <trkpt lat="42.263155" lon="2.760616">
        <ele>361.071</ele>
        <time>2020-10-17T14:41:55Z</time>
      </trkpt>
      <trkpt lat="42.263151" lon="2.760519">
        <ele>361.641</ele>
        <time>2020-10-17T14:41:57Z</time>
      </trkpt>
      <trkpt lat="42.263158" lon="2.760398">
        <ele>362.215</ele>
        <time>2020-10-17T14:41:59Z</time>
      </trkpt>
      <trkpt lat="42.263148" lon="2.760288">
        <ele>363.008</ele>
        <time>2020-10-17T14:42:01Z</time>
      </trkpt>
      <trkpt lat="42.263088" lon="2.760227">
        <ele>364.032</ele>
        <time>2020-10-17T14:42:03Z</time>
      </trkpt>
      <trkpt lat="42.263005" lon="2.760214">
        <ele>365.435</ele>
        <time>2020-10-17T14:42:05Z</time>
      </trkpt>
      <trkpt lat="42.262919" lon="2.760255">
        <ele>367.014</ele>
        <time>2020-10-17T14:42:07Z</time>
      </trkpt>
      <trkpt lat="42.262855" lon="2.760298">
        <ele>368.473</ele>
        <time>2020-10-17T14:42:09Z</time>
      </trkpt>
      <trkpt lat="42.262811" lon="2.760319">
        <ele>369.752</ele>
        <time>2020-10-17T14:42:11Z</time>
      </trkpt>
      <trkpt lat="42.262755" lon="2.760357">
        <ele>371.090</ele>
        <time>2020-10-17T14:42:14Z</time>
      </trkpt>
      <trkpt lat="42.262709" lon="2.760413">
        <ele>372.150</ele>
        <time>2020-10-17T14:42:17Z</time>
      </trkpt>
      <trkpt lat="42.262670" lon="2.760458">
        <ele>373.145</ele>
        <time>2020-10-17T14:42:20Z</time>
      </trkpt>
      <trkpt lat="42.262623" lon="2.760476">
        <ele>373.917</ele>
        <time>2020-10-17T14:42:22Z</time>
      </trkpt>
      <trkpt lat="42.262570" lon="2.760485">
        <ele>374.787</ele>
        <time>2020-10-17T14:42:24Z</time>
      </trkpt>
      <trkpt lat="42.262515" lon="2.760473">
        <ele>375.815</ele>
        <time>2020-10-17T14:42:27Z</time>
      </trkpt>
      <trkpt lat="42.262505" lon="2.760395">
        <ele>376.708</ele>
        <time>2020-10-17T14:42:31Z</time>
      </trkpt>
      <trkpt lat="42.262478" lon="2.760333">
        <ele>377.216</ele>
        <time>2020-10-17T14:42:35Z</time>
      </trkpt>
      <trkpt lat="42.262423" lon="2.760370">
        <ele>377.799</ele>
        <time>2020-10-17T14:42:38Z</time>
      </trkpt>
      <trkpt lat="42.262390" lon="2.760439">
        <ele>377.898</ele>
        <time>2020-10-17T14:42:40Z</time>
      </trkpt>
      <trkpt lat="42.262383" lon="2.760501">
        <ele>377.837</ele>
        <time>2020-10-17T14:42:41Z</time>
      </trkpt>
      <trkpt lat="42.262388" lon="2.760577">
        <ele>377.836</ele>
        <time>2020-10-17T14:42:42Z</time>
      </trkpt>
      <trkpt lat="42.262423" lon="2.760695">
        <ele>377.524</ele>
        <time>2020-10-17T14:42:44Z</time>
      </trkpt>
      <trkpt lat="42.262421" lon="2.760782">
        <ele>377.564</ele>
        <time>2020-10-17T14:42:46Z</time>
      </trkpt>
      <trkpt lat="42.262375" lon="2.760797">
        <ele>377.459</ele>
        <time>2020-10-17T14:42:51Z</time>
      </trkpt>
      <trkpt lat="42.262332" lon="2.760853">
        <ele>377.395</ele>
        <time>2020-10-17T14:43:53Z</time>
      </trkpt>
      <trkpt lat="42.262313" lon="2.760929">
        <ele>377.449</ele>
        <time>2020-10-17T14:43:55Z</time>
      </trkpt>
      <trkpt lat="42.262299" lon="2.760988">
        <ele>377.423</ele>
        <time>2020-10-17T14:43:56Z</time>
      </trkpt>
      <trkpt lat="42.262262" lon="2.761139">
        <ele>377.308</ele>
        <time>2020-10-17T14:43:58Z</time>
      </trkpt>
      <trkpt lat="42.262198" lon="2.761311">
        <ele>377.284</ele>
        <time>2020-10-17T14:44:00Z</time>
      </trkpt>
      <trkpt lat="42.262116" lon="2.761461">
        <ele>377.087</ele>
        <time>2020-10-17T14:44:02Z</time>
      </trkpt>
      <trkpt lat="42.262024" lon="2.761566">
        <ele>376.926</ele>
        <time>2020-10-17T14:44:04Z</time>
      </trkpt>
      <trkpt lat="42.261974" lon="2.761622">
        <ele>376.785</ele>
        <time>2020-10-17T14:44:05Z</time>
      </trkpt>
      <trkpt lat="42.261889" lon="2.761750">
        <ele>376.614</ele>
        <time>2020-10-17T14:44:07Z</time>
      </trkpt>
      <trkpt lat="42.261817" lon="2.761926">
        <ele>376.672</ele>
        <time>2020-10-17T14:44:09Z</time>
      </trkpt>
      <trkpt lat="42.261750" lon="2.762122">
        <ele>376.632</ele>
        <time>2020-10-17T14:44:11Z</time>
      </trkpt>
      <trkpt lat="42.261672" lon="2.762321">
        <ele>376.687</ele>
        <time>2020-10-17T14:44:13Z</time>
      </trkpt>
      <trkpt lat="42.261580" lon="2.762542">
        <ele>376.737</ele>
        <time>2020-10-17T14:44:15Z</time>
      </trkpt>
      <trkpt lat="42.261534" lon="2.762673">
        <ele>376.749</ele>
        <time>2020-10-17T14:44:16Z</time>
      </trkpt>
      <trkpt lat="42.261463" lon="2.762970">
        <ele>377.013</ele>
        <time>2020-10-17T14:44:18Z</time>
      </trkpt>
      <trkpt lat="42.261383" lon="2.763271">
        <ele>377.308</ele>
        <time>2020-10-17T14:44:20Z</time>
      </trkpt>
      <trkpt lat="42.261335" lon="2.763426">
        <ele>377.528</ele>
        <time>2020-10-17T14:44:21Z</time>
      </trkpt>
      <trkpt lat="42.261242" lon="2.763716">
        <ele>377.791</ele>
        <time>2020-10-17T14:44:23Z</time>
      </trkpt>
      <trkpt lat="42.261195" lon="2.763860">
        <ele>377.940</ele>
        <time>2020-10-17T14:44:24Z</time>
      </trkpt>
      <trkpt lat="42.261103" lon="2.764141">
        <ele>378.099</ele>
        <time>2020-10-17T14:44:26Z</time>
      </trkpt>
      <trkpt lat="42.261024" lon="2.764392">
        <ele>378.068</ele>
        <time>2020-10-17T14:44:28Z</time>
      </trkpt>
      <trkpt lat="42.260994" lon="2.764612">
        <ele>378.176</ele>
        <time>2020-10-17T14:44:30Z</time>
      </trkpt>
      <trkpt lat="42.261041" lon="2.764839">
        <ele>378.356</ele>
        <time>2020-10-17T14:44:32Z</time>
      </trkpt>
      <trkpt lat="42.261086" lon="2.764971">
        <ele>378.521</ele>
        <time>2020-10-17T14:44:33Z</time>
      </trkpt>
      <trkpt lat="42.261147" lon="2.765106">
        <ele>378.623</ele>
        <time>2020-10-17T14:44:34Z</time>
      </trkpt>
      <trkpt lat="42.261325" lon="2.765350">
        <ele>378.783</ele>
        <time>2020-10-17T14:44:36Z</time>
      </trkpt>
      <trkpt lat="42.261449" lon="2.765463">
        <ele>379.011</ele>
        <time>2020-10-17T14:44:37Z</time>
      </trkpt>
      <trkpt lat="42.261693" lon="2.765686">
        <ele>379.508</ele>
        <time>2020-10-17T14:44:39Z</time>
      </trkpt>
      <trkpt lat="42.261788" lon="2.765811">
        <ele>379.877</ele>
        <time>2020-10-17T14:44:40Z</time>
      </trkpt>
      <trkpt lat="42.261872" lon="2.765939">
        <ele>379.940</ele>
        <time>2020-10-17T14:44:41Z</time>
      </trkpt>
      <trkpt lat="42.261948" lon="2.766069">
        <ele>379.989</ele>
        <time>2020-10-17T14:44:42Z</time>
      </trkpt>
      <trkpt lat="42.262076" lon="2.766329">
        <ele>379.628</ele>
        <time>2020-10-17T14:44:44Z</time>
      </trkpt>
      <trkpt lat="42.262131" lon="2.766459">
        <ele>379.377</ele>
        <time>2020-10-17T14:44:45Z</time>
      </trkpt>
      <trkpt lat="42.262219" lon="2.766724">
        <ele>378.985</ele>
        <time>2020-10-17T14:44:47Z</time>
      </trkpt>
      <trkpt lat="42.262235" lon="2.766864">
        <ele>378.625</ele>
        <time>2020-10-17T14:44:48Z</time>
      </trkpt>
      <trkpt lat="42.262217" lon="2.767146">
        <ele>378.290</ele>
        <time>2020-10-17T14:44:50Z</time>
      </trkpt>
      <trkpt lat="42.262177" lon="2.767296">
        <ele>377.946</ele>
        <time>2020-10-17T14:44:51Z</time>
      </trkpt>
      <trkpt lat="42.262125" lon="2.767448">
        <ele>377.788</ele>
        <time>2020-10-17T14:44:52Z</time>
      </trkpt>
      <trkpt lat="42.261996" lon="2.767738">
        <ele>377.516</ele>
        <time>2020-10-17T14:44:54Z</time>
      </trkpt>
      <trkpt lat="42.261927" lon="2.767880">
        <ele>377.308</ele>
        <time>2020-10-17T14:44:55Z</time>
      </trkpt>
      <trkpt lat="42.261852" lon="2.768019">
        <ele>377.399</ele>
        <time>2020-10-17T14:44:56Z</time>
      </trkpt>
      <trkpt lat="42.261688" lon="2.768290">
        <ele>377.282</ele>
        <time>2020-10-17T14:44:58Z</time>
      </trkpt>
      <trkpt lat="42.261519" lon="2.768550">
        <ele>377.021</ele>
        <time>2020-10-17T14:45:00Z</time>
      </trkpt>
      <trkpt lat="42.261436" lon="2.768677">
        <ele>376.880</ele>
        <time>2020-10-17T14:45:01Z</time>
      </trkpt>
      <trkpt lat="42.261355" lon="2.768803">
        <ele>376.649</ele>
        <time>2020-10-17T14:45:02Z</time>
      </trkpt>
      <trkpt lat="42.261277" lon="2.768917">
        <ele>376.467</ele>
        <time>2020-10-17T14:45:03Z</time>
      </trkpt>
      <trkpt lat="42.261137" lon="2.769101">
        <ele>376.197</ele>
        <time>2020-10-17T14:45:05Z</time>
      </trkpt>
      <trkpt lat="42.261078" lon="2.769165">
        <ele>375.862</ele>
        <time>2020-10-17T14:45:06Z</time>
      </trkpt>
      <trkpt lat="42.260989" lon="2.769249">
        <ele>375.442</ele>
        <time>2020-10-17T14:45:08Z</time>
      </trkpt>
      <trkpt lat="42.260943" lon="2.769293">
        <ele>374.722</ele>
        <time>2020-10-17T14:45:10Z</time>
      </trkpt>
      <trkpt lat="42.261901" lon="2.768031">
        <ele>368.314</ele>
        <time>2020-10-17T14:46:47Z</time>
      </trkpt>
      <trkpt lat="42.261929" lon="2.768097">
        <ele>368.408</ele>
        <time>2020-10-17T14:46:49Z</time>
      </trkpt>
      <trkpt lat="42.261922" lon="2.768190">
        <ele>368.719</ele>
        <time>2020-10-17T14:46:51Z</time>
      </trkpt>
      <trkpt lat="42.261928" lon="2.768270">
        <ele>368.942</ele>
        <time>2020-10-17T14:46:53Z</time>
      </trkpt>
      <trkpt lat="42.261957" lon="2.768343">
        <ele>369.121</ele>
        <time>2020-10-17T14:46:55Z</time>
      </trkpt>
      <trkpt lat="42.262013" lon="2.768443">
        <ele>369.090</ele>
        <time>2020-10-17T14:46:57Z</time>
      </trkpt>
      <trkpt lat="42.262081" lon="2.768569">
        <ele>368.869</ele>
        <time>2020-10-17T14:46:59Z</time>
      </trkpt>
      <trkpt lat="42.262124" lon="2.768678">
        <ele>368.787</ele>
        <time>2020-10-17T14:47:01Z</time>
      </trkpt>
      <trkpt lat="42.262129" lon="2.768790">
        <ele>368.427</ele>
        <time>2020-10-17T14:47:03Z</time>
      </trkpt>
      <trkpt lat="42.262112" lon="2.768904">
        <ele>367.972</ele>
        <time>2020-10-17T14:47:05Z</time>
      </trkpt>
      <trkpt lat="42.262097" lon="2.768962">
        <ele>367.556</ele>
        <time>2020-10-17T14:47:06Z</time>
      </trkpt>
      <trkpt lat="42.262084" lon="2.769025">
        <ele>367.159</ele>
        <time>2020-10-17T14:47:07Z</time>
      </trkpt>
      <trkpt lat="42.262039" lon="2.769169">
        <ele>366.414</ele>
        <time>2020-10-17T14:47:09Z</time>
      </trkpt>
      <trkpt lat="42.262009" lon="2.769246">
        <ele>365.808</ele>
        <time>2020-10-17T14:47:10Z</time>
      </trkpt>
      <trkpt lat="42.261973" lon="2.769387">
        <ele>365.290</ele>
        <time>2020-10-17T14:47:12Z</time>
      </trkpt>
      <trkpt lat="42.261965" lon="2.769512">
        <ele>364.683</ele>
        <time>2020-10-17T14:47:14Z</time>
      </trkpt>
      <trkpt lat="42.261959" lon="2.769641">
        <ele>364.182</ele>
        <time>2020-10-17T14:47:16Z</time>
      </trkpt>
      <trkpt lat="42.261955" lon="2.769707">
        <ele>363.841</ele>
        <time>2020-10-17T14:47:17Z</time>
      </trkpt>
      <trkpt lat="42.261951" lon="2.769770">
        <ele>363.530</ele>
        <time>2020-10-17T14:47:18Z</time>
      </trkpt>
      <trkpt lat="42.261947" lon="2.769869">
        <ele>363.248</ele>
        <time>2020-10-17T14:47:20Z</time>
      </trkpt>
      <trkpt lat="42.261943" lon="2.769980">
        <ele>362.988</ele>
        <time>2020-10-17T14:47:22Z</time>
      </trkpt>
      <trkpt lat="42.261945" lon="2.770116">
        <ele>362.743</ele>
        <time>2020-10-17T14:47:24Z</time>
      </trkpt>
      <trkpt lat="42.261947" lon="2.770194">
        <ele>362.625</ele>
        <time>2020-10-17T14:47:25Z</time>
      </trkpt>
      <trkpt lat="42.261927" lon="2.770341">
        <ele>362.526</ele>
        <time>2020-10-17T14:47:27Z</time>
      </trkpt>
      <trkpt lat="42.261902" lon="2.770459">
        <ele>362.308</ele>
        <time>2020-10-17T14:47:29Z</time>
      </trkpt>
      <trkpt lat="42.261931" lon="2.770529">
        <ele>361.608</ele>
        <time>2020-10-17T14:47:32Z</time>
      </trkpt>
      <trkpt lat="42.261964" lon="2.770582">
        <ele>361.067</ele>
        <time>2020-10-17T14:47:34Z</time>
      </trkpt>
      <trkpt lat="42.262017" lon="2.770667">
        <ele>360.150</ele>
        <time>2020-10-17T14:47:35Z</time>
      </trkpt>
      <trkpt lat="42.262081" lon="2.770763">
        <ele>359.239</ele>
        <time>2020-10-17T14:47:37Z</time>
      </trkpt>
      <trkpt lat="42.262136" lon="2.770849">
        <ele>358.278</ele>
        <time>2020-10-17T14:47:39Z</time>
      </trkpt>
      <trkpt lat="42.262175" lon="2.770930">
        <ele>357.327</ele>
        <time>2020-10-17T14:47:41Z</time>
      </trkpt>
      <trkpt lat="42.262098" lon="2.770958">
        <ele>353.775</ele>
        <time>2020-10-17T14:48:18Z</time>
      </trkpt>
      <trkpt lat="42.262008" lon="2.770938">
        <ele>353.295</ele>
        <time>2020-10-17T14:48:20Z</time>
      </trkpt>
      <trkpt lat="42.261953" lon="2.770924">
        <ele>352.840</ele>
        <time>2020-10-17T14:48:21Z</time>
      </trkpt>
      <trkpt lat="42.261893" lon="2.770897">
        <ele>352.458</ele>
        <time>2020-10-17T14:48:22Z</time>
      </trkpt>
      <trkpt lat="42.261831" lon="2.770858">
        <ele>351.952</ele>
        <time>2020-10-17T14:48:23Z</time>
      </trkpt>
      <trkpt lat="42.261726" lon="2.770757">
        <ele>351.217</ele>
        <time>2020-10-17T14:48:25Z</time>
      </trkpt>
      <trkpt lat="42.261658" lon="2.770682">
        <ele>350.208</ele>
        <time>2020-10-17T14:48:27Z</time>
      </trkpt>
      <trkpt lat="42.261616" lon="2.770658">
        <ele>349.090</ele>
        <time>2020-10-17T14:48:29Z</time>
      </trkpt>
      <trkpt lat="42.261575" lon="2.770692">
        <ele>348.113</ele>
        <time>2020-10-17T14:48:31Z</time>
      </trkpt>
      <trkpt lat="42.261517" lon="2.770779">
        <ele>347.442</ele>
        <time>2020-10-17T14:48:33Z</time>
      </trkpt>
      <trkpt lat="42.261491" lon="2.770842">
        <ele>346.951</ele>
        <time>2020-10-17T14:48:34Z</time>
      </trkpt>
      <trkpt lat="42.261455" lon="2.770973">
        <ele>346.420</ele>
        <time>2020-10-17T14:48:36Z</time>
      </trkpt>
      <trkpt lat="42.261431" lon="2.771071">
        <ele>345.798</ele>
        <time>2020-10-17T14:48:38Z</time>
      </trkpt>
      <trkpt lat="42.261402" lon="2.771198">
        <ele>344.838</ele>
        <time>2020-10-17T14:48:40Z</time>
      </trkpt>
      <trkpt lat="42.261396" lon="2.771266">
        <ele>343.953</ele>
        <time>2020-10-17T14:48:41Z</time>
      </trkpt>
      <trkpt lat="42.261393" lon="2.771399">
        <ele>343.012</ele>
        <time>2020-10-17T14:48:43Z</time>
      </trkpt>
      <trkpt lat="42.261399" lon="2.771533">
        <ele>342.132</ele>
        <time>2020-10-17T14:48:45Z</time>
      </trkpt>
      <trkpt lat="42.261400" lon="2.771636">
        <ele>341.405</ele>
        <time>2020-10-17T14:48:47Z</time>
      </trkpt>
      <trkpt lat="42.261387" lon="2.771735">
        <ele>340.808</ele>
        <time>2020-10-17T14:48:49Z</time>
      </trkpt>
      <trkpt lat="42.261356" lon="2.771844">
        <ele>340.566</ele>
        <time>2020-10-17T14:48:51Z</time>
      </trkpt>
      <trkpt lat="42.261329" lon="2.771934">
        <ele>340.219</ele>
        <time>2020-10-17T14:48:53Z</time>
      </trkpt>
      <trkpt lat="42.261290" lon="2.771986">
        <ele>340.078</ele>
        <time>2020-10-17T14:48:57Z</time>
      </trkpt>
      <trkpt lat="42.261245" lon="2.772034">
        <ele>339.987</ele>
        <time>2020-10-17T14:49:00Z</time>
      </trkpt>
      <trkpt lat="42.261205" lon="2.772075">
        <ele>339.916</ele>
        <time>2020-10-17T14:49:02Z</time>
      </trkpt>
      <trkpt lat="42.261149" lon="2.772131">
        <ele>340.024</ele>
        <time>2020-10-17T14:49:04Z</time>
      </trkpt>
      <trkpt lat="42.261099" lon="2.772177">
        <ele>340.184</ele>
        <time>2020-10-17T14:49:06Z</time>
      </trkpt>
      <trkpt lat="42.261043" lon="2.772222">
        <ele>340.189</ele>
        <time>2020-10-17T14:49:08Z</time>
      </trkpt>
      <trkpt lat="42.260970" lon="2.772272">
        <ele>339.944</ele>
        <time>2020-10-17T14:49:10Z</time>
      </trkpt>
      <trkpt lat="42.260928" lon="2.772295">
        <ele>339.705</ele>
        <time>2020-10-17T14:49:11Z</time>
      </trkpt>
      <trkpt lat="42.260843" lon="2.772330">
        <ele>339.415</ele>
        <time>2020-10-17T14:49:13Z</time>
      </trkpt>
      <trkpt lat="42.260747" lon="2.772373">
        <ele>339.008</ele>
        <time>2020-10-17T14:49:15Z</time>
      </trkpt>
      <trkpt lat="42.260676" lon="2.772431">
        <ele>338.719</ele>
        <time>2020-10-17T14:49:17Z</time>
      </trkpt>
      <trkpt lat="42.260617" lon="2.772517">
        <ele>338.542</ele>
        <time>2020-10-17T14:49:19Z</time>
      </trkpt>
      <trkpt lat="42.260586" lon="2.772650">
        <ele>338.421</ele>
        <time>2020-10-17T14:49:21Z</time>
      </trkpt>
      <trkpt lat="42.260593" lon="2.772765">
        <ele>338.430</ele>
        <time>2020-10-17T14:49:23Z</time>
      </trkpt>
      <trkpt lat="42.260608" lon="2.772823">
        <ele>338.689</ele>
        <time>2020-10-17T14:49:24Z</time>
      </trkpt>
      <trkpt lat="42.260650" lon="2.772937">
        <ele>338.917</ele>
        <time>2020-10-17T14:49:26Z</time>
      </trkpt>
      <trkpt lat="42.260678" lon="2.773023">
        <ele>339.237</ele>
        <time>2020-10-17T14:49:28Z</time>
      </trkpt>
      <trkpt lat="42.260699" lon="2.773097">
        <ele>339.642</ele>
        <time>2020-10-17T14:49:30Z</time>
      </trkpt>
      <trkpt lat="42.260738" lon="2.773211">
        <ele>341.669</ele>
        <time>2020-10-17T14:49:53Z</time>
      </trkpt>
      <trkpt lat="42.260740" lon="2.773283">
        <ele>342.904</ele>
        <time>2020-10-17T14:49:55Z</time>
      </trkpt>
      <trkpt lat="42.260709" lon="2.773337">
        <ele>344.324</ele>
        <time>2020-10-17T14:49:57Z</time>
      </trkpt>
      <trkpt lat="42.260648" lon="2.773383">
        <ele>345.408</ele>
        <time>2020-10-17T14:49:59Z</time>
      </trkpt>
      <trkpt lat="42.260605" lon="2.773417">
        <ele>346.131</ele>
        <time>2020-10-17T14:50:00Z</time>
      </trkpt>
      <trkpt lat="42.260538" lon="2.773468">
        <ele>346.644</ele>
        <time>2020-10-17T14:50:02Z</time>
      </trkpt>
      <trkpt lat="42.260482" lon="2.773518">
        <ele>347.043</ele>
        <time>2020-10-17T14:50:04Z</time>
      </trkpt>
      <trkpt lat="42.260431" lon="2.773566">
        <ele>347.652</ele>
        <time>2020-10-17T14:50:06Z</time>
      </trkpt>
      <trkpt lat="42.260387" lon="2.773611">
        <ele>348.011</ele>
        <time>2020-10-17T14:50:08Z</time>
      </trkpt>
      <trkpt lat="42.260346" lon="2.773655">
        <ele>348.419</ele>
        <time>2020-10-17T14:50:10Z</time>
      </trkpt>
      <trkpt lat="42.260309" lon="2.773694">
        <ele>348.969</ele>
        <time>2020-10-17T14:50:12Z</time>
      </trkpt>
      <trkpt lat="42.260262" lon="2.773725">
        <ele>349.464</ele>
        <time>2020-10-17T14:50:15Z</time>
      </trkpt>
      <trkpt lat="42.260094" lon="2.773831">
        <ele>349.738</ele>
        <time>2020-10-17T14:50:40Z</time>
      </trkpt>
      <trkpt lat="42.260062" lon="2.773876">
        <ele>349.270</ele>
        <time>2020-10-17T14:50:44Z</time>
      </trkpt>
      <trkpt lat="42.260032" lon="2.773933">
        <ele>349.117</ele>
        <time>2020-10-17T14:50:48Z</time>
      </trkpt>
      <trkpt lat="42.260004" lon="2.773994">
        <ele>349.008</ele>
        <time>2020-10-17T14:50:50Z</time>
      </trkpt>
      <trkpt lat="42.259978" lon="2.774058">
        <ele>348.868</ele>
        <time>2020-10-17T14:50:52Z</time>
      </trkpt>
      <trkpt lat="42.259954" lon="2.774121">
        <ele>348.521</ele>
        <time>2020-10-17T14:50:55Z</time>
      </trkpt>
      <trkpt lat="42.259891" lon="2.774125">
        <ele>348.560</ele>
        <time>2020-10-17T14:50:58Z</time>
      </trkpt>
      <trkpt lat="42.259817" lon="2.774063">
        <ele>348.599</ele>
        <time>2020-10-17T14:51:00Z</time>
      </trkpt>
      <trkpt lat="42.259725" lon="2.773962">
        <ele>347.988</ele>
        <time>2020-10-17T14:51:02Z</time>
      </trkpt>
      <trkpt lat="42.259662" lon="2.773905">
        <ele>347.356</ele>
        <time>2020-10-17T14:51:03Z</time>
      </trkpt>
      <trkpt lat="42.259595" lon="2.773848">
        <ele>346.826</ele>
        <time>2020-10-17T14:51:04Z</time>
      </trkpt>
      <trkpt lat="42.259459" lon="2.773727">
        <ele>346.291</ele>
        <time>2020-10-17T14:51:06Z</time>
      </trkpt>
      <trkpt lat="42.259330" lon="2.773601">
        <ele>345.396</ele>
        <time>2020-10-17T14:51:08Z</time>
      </trkpt>
      <trkpt lat="42.259265" lon="2.773545">
        <ele>344.431</ele>
        <time>2020-10-17T14:51:09Z</time>
      </trkpt>
      <trkpt lat="42.259152" lon="2.773446">
        <ele>343.524</ele>
        <time>2020-10-17T14:51:11Z</time>
      </trkpt>
      <trkpt lat="42.259058" lon="2.773409">
        <ele>342.608</ele>
        <time>2020-10-17T14:51:13Z</time>
      </trkpt>
      <trkpt lat="42.259011" lon="2.773421">
        <ele>341.884</ele>
        <time>2020-10-17T14:51:14Z</time>
      </trkpt>
      <trkpt lat="42.258903" lon="2.773487">
        <ele>341.127</ele>
        <time>2020-10-17T14:51:16Z</time>
      </trkpt>
      <trkpt lat="42.258849" lon="2.773536">
        <ele>340.626</ele>
        <time>2020-10-17T14:51:17Z</time>
      </trkpt>
      <trkpt lat="42.258761" lon="2.773671">
        <ele>340.065</ele>
        <time>2020-10-17T14:51:19Z</time>
      </trkpt>
      <trkpt lat="42.258668" lon="2.773827">
        <ele>339.384</ele>
        <time>2020-10-17T14:51:21Z</time>
      </trkpt>
      <trkpt lat="42.258616" lon="2.773902">
        <ele>338.712</ele>
        <time>2020-10-17T14:51:22Z</time>
      </trkpt>
      <trkpt lat="42.258493" lon="2.774062">
        <ele>338.022</ele>
        <time>2020-10-17T14:51:24Z</time>
      </trkpt>
      <trkpt lat="42.258358" lon="2.774250">
        <ele>337.147</ele>
        <time>2020-10-17T14:51:26Z</time>
      </trkpt>
      <trkpt lat="42.258293" lon="2.774359">
        <ele>336.496</ele>
        <time>2020-10-17T14:51:27Z</time>
      </trkpt>
      <trkpt lat="42.258172" lon="2.774591">
        <ele>335.531</ele>
        <time>2020-10-17T14:51:29Z</time>
      </trkpt>
      <trkpt lat="42.258063" lon="2.774836">
        <ele>334.624</ele>
        <time>2020-10-17T14:51:31Z</time>
      </trkpt>
      <trkpt lat="42.257961" lon="2.775085">
        <ele>333.808</ele>
        <time>2020-10-17T14:51:33Z</time>
      </trkpt>
      <trkpt lat="42.257868" lon="2.775337">
        <ele>333.064</ele>
        <time>2020-10-17T14:51:35Z</time>
      </trkpt>
      <trkpt lat="42.257776" lon="2.775552">
        <ele>332.387</ele>
        <time>2020-10-17T14:51:37Z</time>
      </trkpt>
      <trkpt lat="42.257728" lon="2.775635">
        <ele>331.746</ele>
        <time>2020-10-17T14:51:38Z</time>
      </trkpt>
      <trkpt lat="42.257676" lon="2.775693">
        <ele>331.195</ele>
        <time>2020-10-17T14:51:39Z</time>
      </trkpt>
      <trkpt lat="42.257576" lon="2.775762">
        <ele>330.464</ele>
        <time>2020-10-17T14:51:41Z</time>
      </trkpt>
      <trkpt lat="42.257528" lon="2.775786">
        <ele>329.882</ele>
        <time>2020-10-17T14:51:42Z</time>
      </trkpt>
      <trkpt lat="42.257427" lon="2.775806">
        <ele>329.182</ele>
        <time>2020-10-17T14:51:44Z</time>
      </trkpt>
      <trkpt lat="42.257304" lon="2.775796">
        <ele>328.447</ele>
        <time>2020-10-17T14:51:46Z</time>
      </trkpt>
      <trkpt lat="42.257198" lon="2.775789">
        <ele>327.992</ele>
        <time>2020-10-17T14:51:48Z</time>
      </trkpt>
      <trkpt lat="42.257116" lon="2.775788">
        <ele>327.573</ele>
        <time>2020-10-17T14:51:50Z</time>
      </trkpt>
      <trkpt lat="42.257064" lon="2.775793">
        <ele>327.220</ele>
        <time>2020-10-17T14:51:51Z</time>
      </trkpt>
      <trkpt lat="42.257015" lon="2.775798">
        <ele>327.108</ele>
        <time>2020-10-17T14:51:52Z</time>
      </trkpt>
      <trkpt lat="42.256957" lon="2.775810">
        <ele>327.154</ele>
        <time>2020-10-17T14:51:54Z</time>
      </trkpt>
      <trkpt lat="42.256907" lon="2.775809">
        <ele>327.817</ele>
        <time>2020-10-17T14:52:28Z</time>
      </trkpt>
      <trkpt lat="42.256861" lon="2.775845">
        <ele>328.366</ele>
        <time>2020-10-17T14:52:31Z</time>
      </trkpt>
      <trkpt lat="42.256942" lon="2.775851">
        <ele>328.145</ele>
        <time>2020-10-17T14:53:01Z</time>
      </trkpt>
      <trkpt lat="42.256998" lon="2.775852">
        <ele>328.574</ele>
        <time>2020-10-17T14:53:04Z</time>
      </trkpt>
      <trkpt lat="42.257046" lon="2.775862">
        <ele>329.082</ele>
        <time>2020-10-17T14:53:06Z</time>
      </trkpt>
      <trkpt lat="42.257106" lon="2.775876">
        <ele>329.732</ele>
        <time>2020-10-17T14:53:08Z</time>
      </trkpt>
      <trkpt lat="42.257174" lon="2.775895">
        <ele>330.347</ele>
        <time>2020-10-17T14:53:10Z</time>
      </trkpt>
      <trkpt lat="42.257254" lon="2.775926">
        <ele>330.892</ele>
        <time>2020-10-17T14:53:12Z</time>
      </trkpt>
      <trkpt lat="42.257333" lon="2.775970">
        <ele>331.373</ele>
        <time>2020-10-17T14:53:14Z</time>
      </trkpt>
      <trkpt lat="42.257374" lon="2.775996">
        <ele>331.720</ele>
        <time>2020-10-17T14:53:15Z</time>
      </trkpt>
      <trkpt lat="42.257449" lon="2.776059">
        <ele>331.908</ele>
        <time>2020-10-17T14:53:17Z</time>
      </trkpt>
      <trkpt lat="42.257482" lon="2.776137">
        <ele>332.184</ele>
        <time>2020-10-17T14:53:19Z</time>
      </trkpt>
      <trkpt lat="42.257478" lon="2.776237">
        <ele>332.377</ele>
        <time>2020-10-17T14:53:21Z</time>
      </trkpt>
      <trkpt lat="42.257465" lon="2.776350">
        <ele>332.586</ele>
        <time>2020-10-17T14:53:23Z</time>
      </trkpt>
      <trkpt lat="42.257454" lon="2.776410">
        <ele>332.665</ele>
        <time>2020-10-17T14:53:24Z</time>
      </trkpt>
      <trkpt lat="42.257442" lon="2.776473">
        <ele>332.624</ele>
        <time>2020-10-17T14:53:25Z</time>
      </trkpt>
      <trkpt lat="42.257432" lon="2.776542">
        <ele>332.632</ele>
        <time>2020-10-17T14:53:26Z</time>
      </trkpt>
      <trkpt lat="42.257401" lon="2.776670">
        <ele>332.672</ele>
        <time>2020-10-17T14:53:28Z</time>
      </trkpt>
      <trkpt lat="42.257358" lon="2.776765">
        <ele>332.617</ele>
        <time>2020-10-17T14:53:30Z</time>
      </trkpt>
      <trkpt lat="42.257325" lon="2.776825">
        <ele>332.645</ele>
        <time>2020-10-17T14:53:32Z</time>
      </trkpt>
      <trkpt lat="42.257302" lon="2.776882">
        <ele>332.547</ele>
        <time>2020-10-17T14:53:33Z</time>
      </trkpt>
      <trkpt lat="42.257275" lon="2.776983">
        <ele>332.411</ele>
        <time>2020-10-17T14:53:35Z</time>
      </trkpt>
      <trkpt lat="42.257254" lon="2.777094">
        <ele>332.408</ele>
        <time>2020-10-17T14:53:37Z</time>
      </trkpt>
      <trkpt lat="42.257238" lon="2.777171">
        <ele>332.489</ele>
        <time>2020-10-17T14:53:38Z</time>
      </trkpt>
      <trkpt lat="42.257223" lon="2.777291">
        <ele>332.552</ele>
        <time>2020-10-17T14:53:40Z</time>
      </trkpt>
      <trkpt lat="42.257200" lon="2.777423">
        <ele>332.591</ele>
        <time>2020-10-17T14:53:42Z</time>
      </trkpt>
      <trkpt lat="42.257162" lon="2.777573">
        <ele>332.350</ele>
        <time>2020-10-17T14:53:44Z</time>
      </trkpt>
      <trkpt lat="42.257132" lon="2.777670">
        <ele>332.079</ele>
        <time>2020-10-17T14:53:46Z</time>
      </trkpt>
      <trkpt lat="42.257081" lon="2.777787">
        <ele>331.727</ele>
        <time>2020-10-17T14:53:48Z</time>
      </trkpt>
      <trkpt lat="42.257052" lon="2.777845">
        <ele>331.467</ele>
        <time>2020-10-17T14:53:49Z</time>
      </trkpt>
      <trkpt lat="42.256991" lon="2.777949">
        <ele>330.852</ele>
        <time>2020-10-17T14:53:51Z</time>
      </trkpt>
      <trkpt lat="42.256936" lon="2.778034">
        <ele>329.969</ele>
        <time>2020-10-17T14:53:53Z</time>
      </trkpt>
      <trkpt lat="42.256897" lon="2.778096">
        <ele>329.104</ele>
        <time>2020-10-17T14:53:55Z</time>
      </trkpt>
      <trkpt lat="42.256862" lon="2.778154">
        <ele>328.124</ele>
        <time>2020-10-17T14:53:58Z</time>
      </trkpt>
      <trkpt lat="42.256828" lon="2.778233">
        <ele>326.408</ele>
        <time>2020-10-17T14:54:01Z</time>
      </trkpt>
      <trkpt lat="42.256825" lon="2.778317">
        <ele>324.481</ele>
        <time>2020-10-17T14:54:03Z</time>
      </trkpt>
      <trkpt lat="42.256874" lon="2.778362">
        <ele>322.684</ele>
        <time>2020-10-17T14:54:05Z</time>
      </trkpt>
      <trkpt lat="42.256958" lon="2.778357">
        <ele>321.273</ele>
        <time>2020-10-17T14:54:07Z</time>
      </trkpt>
      <trkpt lat="42.257030" lon="2.778323">
        <ele>320.072</ele>
        <time>2020-10-17T14:54:09Z</time>
      </trkpt>
      <trkpt lat="42.257093" lon="2.778274">
        <ele>319.141</ele>
        <time>2020-10-17T14:54:11Z</time>
      </trkpt>
      <trkpt lat="42.257144" lon="2.778232">
        <ele>318.459</ele>
        <time>2020-10-17T14:54:13Z</time>
      </trkpt>
      <trkpt lat="42.257197" lon="2.778193">
        <ele>317.849</ele>
        <time>2020-10-17T14:54:18Z</time>
      </trkpt>
      <trkpt lat="42.257243" lon="2.778153">
        <ele>317.594</ele>
        <time>2020-10-17T14:54:20Z</time>
      </trkpt>
      <trkpt lat="42.257314" lon="2.778086">
        <ele>317.379</ele>
        <time>2020-10-17T14:54:22Z</time>
      </trkpt>
      <trkpt lat="42.257354" lon="2.778052">
        <ele>317.105</ele>
        <time>2020-10-17T14:54:23Z</time>
      </trkpt>
      <trkpt lat="42.257396" lon="2.778015">
        <ele>316.825</ele>
        <time>2020-10-17T14:54:24Z</time>
      </trkpt>
      <trkpt lat="42.257503" lon="2.777934">
        <ele>316.508</ele>
        <time>2020-10-17T14:54:26Z</time>
      </trkpt>
      <trkpt lat="42.257559" lon="2.777897">
        <ele>316.362</ele>
        <time>2020-10-17T14:54:27Z</time>
      </trkpt>
      <trkpt lat="42.257618" lon="2.777860">
        <ele>316.195</ele>
        <time>2020-10-17T14:54:28Z</time>
      </trkpt>
      <trkpt lat="42.257743" lon="2.777785">
        <ele>315.774</ele>
        <time>2020-10-17T14:54:30Z</time>
      </trkpt>
      <trkpt lat="42.257806" lon="2.777747">
        <ele>315.323</ele>
        <time>2020-10-17T14:54:31Z</time>
      </trkpt>
      <trkpt lat="42.257926" lon="2.777679">
        <ele>314.942</ele>
        <time>2020-10-17T14:54:33Z</time>
      </trkpt>
      <trkpt lat="42.258036" lon="2.777623">
        <ele>314.560</ele>
        <time>2020-10-17T14:54:35Z</time>
      </trkpt>
      <trkpt lat="42.258092" lon="2.777594">
        <ele>314.290</ele>
        <time>2020-10-17T14:54:36Z</time>
      </trkpt>
      <trkpt lat="42.258147" lon="2.777563">
        <ele>313.865</ele>
        <time>2020-10-17T14:54:37Z</time>
      </trkpt>
      <trkpt lat="42.258244" lon="2.777497">
        <ele>313.198</ele>
        <time>2020-10-17T14:54:39Z</time>
      </trkpt>
      <trkpt lat="42.258293" lon="2.777455">
        <ele>312.415</ele>
        <time>2020-10-17T14:54:40Z</time>
      </trkpt>
      <trkpt lat="42.258387" lon="2.777371">
        <ele>311.426</ele>
        <time>2020-10-17T14:54:42Z</time>
      </trkpt>
      <trkpt lat="42.258431" lon="2.777334">
        <ele>310.708</ele>
        <time>2020-10-17T14:54:43Z</time>
      </trkpt>
      <trkpt lat="42.258470" lon="2.777301">
        <ele>310.314</ele>
        <time>2020-10-17T14:54:44Z</time>
      </trkpt>
      <trkpt lat="42.258517" lon="2.777256">
        <ele>309.587</ele>
        <time>2020-10-17T14:54:46Z</time>
      </trkpt>
      <trkpt lat="42.258540" lon="2.777153">
        <ele>308.246</ele>
        <time>2020-10-17T14:54:50Z</time>
      </trkpt>
      <trkpt lat="42.258557" lon="2.777090">
        <ele>307.145</ele>
        <time>2020-10-17T14:54:52Z</time>
      </trkpt>
      <trkpt lat="42.258587" lon="2.777033">
        <ele>306.054</ele>
        <time>2020-10-17T14:54:54Z</time>
      </trkpt>
      <trkpt lat="42.258623" lon="2.776965">
        <ele>305.022</ele>
        <time>2020-10-17T14:54:56Z</time>
      </trkpt>
      <trkpt lat="42.258647" lon="2.776900">
        <ele>304.132</ele>
        <time>2020-10-17T14:54:58Z</time>
      </trkpt>
      <trkpt lat="42.258692" lon="2.776787">
        <ele>303.587</ele>
        <time>2020-10-17T14:55:00Z</time>
      </trkpt>
      <trkpt lat="42.258735" lon="2.776716">
        <ele>303.122</ele>
        <time>2020-10-17T14:55:02Z</time>
      </trkpt>
      <trkpt lat="42.258795" lon="2.776686">
        <ele>302.762</ele>
        <time>2020-10-17T14:55:04Z</time>
      </trkpt>
      <trkpt lat="42.258846" lon="2.776713">
        <ele>302.308</ele>
        <time>2020-10-17T14:55:06Z</time>
      </trkpt>
      <trkpt lat="42.258883" lon="2.776778">
        <ele>301.908</ele>
        <time>2020-10-17T14:55:08Z</time>
      </trkpt>
      <trkpt lat="42.258935" lon="2.776880">
        <ele>301.717</ele>
        <time>2020-10-17T14:55:10Z</time>
      </trkpt>
      <trkpt lat="42.258964" lon="2.776952">
        <ele>301.650</ele>
        <time>2020-10-17T14:55:12Z</time>
      </trkpt>
      <trkpt lat="42.258981" lon="2.777016">
        <ele>301.649</ele>
        <time>2020-10-17T14:55:14Z</time>
      </trkpt>
      <trkpt lat="42.258997" lon="2.777084">
        <ele>301.878</ele>
        <time>2020-10-17T14:55:16Z</time>
      </trkpt>
      <trkpt lat="42.259012" lon="2.777163">
        <ele>301.867</ele>
        <time>2020-10-17T14:55:18Z</time>
      </trkpt>
      <trkpt lat="42.259019" lon="2.777244">
        <ele>301.835</ele>
        <time>2020-10-17T14:55:20Z</time>
      </trkpt>
      <trkpt lat="42.259012" lon="2.777331">
        <ele>301.865</ele>
        <time>2020-10-17T14:55:22Z</time>
      </trkpt>
      <trkpt lat="42.258988" lon="2.777402">
        <ele>301.770</ele>
        <time>2020-10-17T14:55:24Z</time>
      </trkpt>
      <trkpt lat="42.258957" lon="2.777468">
        <ele>301.669</ele>
        <time>2020-10-17T14:55:26Z</time>
      </trkpt>
      <trkpt lat="42.258920" lon="2.777561">
        <ele>301.404</ele>
        <time>2020-10-17T14:55:28Z</time>
      </trkpt>
      <trkpt lat="42.258892" lon="2.777660">
        <ele>301.424</ele>
        <time>2020-10-17T14:55:30Z</time>
      </trkpt>
      <trkpt lat="42.258876" lon="2.777726">
        <ele>301.408</ele>
        <time>2020-10-17T14:55:32Z</time>
      </trkpt>
      <trkpt lat="42.256943" lon="2.775879">
        <ele>324.811</ele>
        <time>2020-10-17T16:01:41Z</time>
      </trkpt>
      <trkpt lat="42.256848" lon="2.775876">
        <ele>324.594</ele>
        <time>2020-10-17T16:01:43Z</time>
      </trkpt>
      <trkpt lat="42.256695" lon="2.775880">
        <ele>324.393</ele>
        <time>2020-10-17T16:01:45Z</time>
      </trkpt>
      <trkpt lat="42.256622" lon="2.775908">
        <ele>324.292</ele>
        <time>2020-10-17T16:01:47Z</time>
      </trkpt>
      <trkpt lat="42.256546" lon="2.775942">
        <ele>324.271</ele>
        <time>2020-10-17T16:01:49Z</time>
      </trkpt>
      <trkpt lat="42.256479" lon="2.775974">
        <ele>324.589</ele>
        <time>2020-10-17T16:01:52Z</time>
      </trkpt>
      <trkpt lat="42.256363" lon="2.776015">
        <ele>324.969</ele>
        <time>2020-10-17T16:01:54Z</time>
      </trkpt>
      <trkpt lat="42.256308" lon="2.776031">
        <ele>324.914</ele>
        <time>2020-10-17T16:01:56Z</time>
      </trkpt>
      <trkpt lat="42.256232" lon="2.776067">
        <ele>324.795</ele>
        <time>2020-10-17T16:01:58Z</time>
      </trkpt>
      <trkpt lat="42.256122" lon="2.776133">
        <ele>324.549</ele>
        <time>2020-10-17T16:02:00Z</time>
      </trkpt>
      <trkpt lat="42.256053" lon="2.776173">
        <ele>324.423</ele>
        <time>2020-10-17T16:02:01Z</time>
      </trkpt>
      <trkpt lat="42.255916" lon="2.776240">
        <ele>324.308</ele>
        <time>2020-10-17T16:02:03Z</time>
      </trkpt>
      <trkpt lat="42.255856" lon="2.776260">
        <ele>324.284</ele>
        <time>2020-10-17T16:02:04Z</time>
      </trkpt>
      <trkpt lat="42.255788" lon="2.776266">
        <ele>324.267</ele>
        <time>2020-10-17T16:02:06Z</time>
      </trkpt>
      <trkpt lat="42.255806" lon="2.776359">
        <ele>326.166</ele>
        <time>2020-10-17T16:02:28Z</time>
      </trkpt>
      <trkpt lat="42.255757" lon="2.776334">
        <ele>326.795</ele>
        <time>2020-10-17T16:02:40Z</time>
      </trkpt>
      <trkpt lat="42.255734" lon="2.776257">
        <ele>326.914</ele>
        <time>2020-10-17T16:02:42Z</time>
      </trkpt>
      <trkpt lat="42.255765" lon="2.776186">
        <ele>326.942</ele>
        <time>2020-10-17T16:02:44Z</time>
      </trkpt>
      <trkpt lat="42.255834" lon="2.776113">
        <ele>326.412</ele>
        <time>2020-10-17T16:02:46Z</time>
      </trkpt>
      <trkpt lat="42.255890" lon="2.776055">
        <ele>325.857</ele>
        <time>2020-10-17T16:02:47Z</time>
      </trkpt>
      <trkpt lat="42.255925" lon="2.776017">
        <ele>325.295</ele>
        <time>2020-10-17T16:02:48Z</time>
      </trkpt>
      <trkpt lat="42.255963" lon="2.775966">
        <ele>324.649</ele>
        <time>2020-10-17T16:02:49Z</time>
      </trkpt>
      <trkpt lat="42.256002" lon="2.775908">
        <ele>324.123</ele>
        <time>2020-10-17T16:02:50Z</time>
      </trkpt>
      <trkpt lat="42.256080" lon="2.775768">
        <ele>323.508</ele>
        <time>2020-10-17T16:02:52Z</time>
      </trkpt>
      <trkpt lat="42.256118" lon="2.775687">
        <ele>322.944</ele>
        <time>2020-10-17T16:02:53Z</time>
      </trkpt>
      <trkpt lat="42.256158" lon="2.775598">
        <ele>322.367</ele>
        <time>2020-10-17T16:02:54Z</time>
      </trkpt>
      <trkpt lat="42.256245" lon="2.775413">
        <ele>321.876</ele>
        <time>2020-10-17T16:02:56Z</time>
      </trkpt>
      <trkpt lat="42.256289" lon="2.775309">
        <ele>321.595</ele>
        <time>2020-10-17T16:02:57Z</time>
      </trkpt>
      <trkpt lat="42.256335" lon="2.775192">
        <ele>321.324</ele>
        <time>2020-10-17T16:02:58Z</time>
      </trkpt>
      <trkpt lat="42.256423" lon="2.774951">
        <ele>321.262</ele>
        <time>2020-10-17T16:03:00Z</time>
      </trkpt>
      <trkpt lat="42.256491" lon="2.774704">
        <ele>321.282</ele>
        <time>2020-10-17T16:03:02Z</time>
      </trkpt>
      <trkpt lat="42.256507" lon="2.774569">
        <ele>321.287</ele>
        <time>2020-10-17T16:03:03Z</time>
      </trkpt>
      <trkpt lat="42.256503" lon="2.774274">
        <ele>321.432</ele>
        <time>2020-10-17T16:03:05Z</time>
      </trkpt>
      <trkpt lat="42.256502" lon="2.774000">
        <ele>321.792</ele>
        <time>2020-10-17T16:03:07Z</time>
      </trkpt>
      <trkpt lat="42.256538" lon="2.773891">
        <ele>322.311</ele>
        <time>2020-10-17T16:03:08Z</time>
      </trkpt>
      <trkpt lat="42.256699" lon="2.773748">
        <ele>323.008</ele>
        <time>2020-10-17T16:03:10Z</time>
      </trkpt>
      <trkpt lat="42.256910" lon="2.773650">
        <ele>323.798</ele>
        <time>2020-10-17T16:03:12Z</time>
      </trkpt>
      <trkpt lat="42.257117" lon="2.773523">
        <ele>324.511</ele>
        <time>2020-10-17T16:03:14Z</time>
      </trkpt>
      <trkpt lat="42.257221" lon="2.773437">
        <ele>325.130</ele>
        <time>2020-10-17T16:03:15Z</time>
      </trkpt>
      <trkpt lat="42.257435" lon="2.773237">
        <ele>325.739</ele>
        <time>2020-10-17T16:03:17Z</time>
      </trkpt>
      <trkpt lat="42.257665" lon="2.773019">
        <ele>326.218</ele>
        <time>2020-10-17T16:03:19Z</time>
      </trkpt>
      <trkpt lat="42.257912" lon="2.772810">
        <ele>326.816</ele>
        <time>2020-10-17T16:03:21Z</time>
      </trkpt>
      <trkpt lat="42.258037" lon="2.772716">
        <ele>327.436</ele>
        <time>2020-10-17T16:03:22Z</time>
      </trkpt>
      <trkpt lat="42.258162" lon="2.772625">
        <ele>327.961</ele>
        <time>2020-10-17T16:03:23Z</time>
      </trkpt>
      <trkpt lat="42.258407" lon="2.772441">
        <ele>328.476</ele>
        <time>2020-10-17T16:03:25Z</time>
      </trkpt>
      <trkpt lat="42.258654" lon="2.772231">
        <ele>329.290</ele>
        <time>2020-10-17T16:03:27Z</time>
      </trkpt>
      <trkpt lat="42.258783" lon="2.772117">
        <ele>329.919</ele>
        <time>2020-10-17T16:03:28Z</time>
      </trkpt>
      <trkpt lat="42.259039" lon="2.771889">
        <ele>330.708</ele>
        <time>2020-10-17T16:03:30Z</time>
      </trkpt>
      <trkpt lat="42.259169" lon="2.771778">
        <ele>331.472</ele>
        <time>2020-10-17T16:03:31Z</time>
      </trkpt>
      <trkpt lat="42.259418" lon="2.771570">
        <ele>332.295</ele>
        <time>2020-10-17T16:03:33Z</time>
      </trkpt>
      <trkpt lat="42.259541" lon="2.771467">
        <ele>332.874</ele>
        <time>2020-10-17T16:03:34Z</time>
      </trkpt>
      <trkpt lat="42.259659" lon="2.771364">
        <ele>333.553</ele>
        <time>2020-10-17T16:03:35Z</time>
      </trkpt>
      <trkpt lat="42.259866" lon="2.771143">
        <ele>335.152</ele>
        <time>2020-10-17T16:03:37Z</time>
      </trkpt>
      <trkpt lat="42.259959" lon="2.771020">
        <ele>336.460</ele>
        <time>2020-10-17T16:03:38Z</time>
      </trkpt>
      <trkpt lat="42.260124" lon="2.770758">
        <ele>337.650</ele>
        <time>2020-10-17T16:03:40Z</time>
      </trkpt>
      <trkpt lat="42.260206" lon="2.770621">
        <ele>338.635</ele>
        <time>2020-10-17T16:03:41Z</time>
      </trkpt>
      <trkpt lat="42.260368" lon="2.770343">
        <ele>339.679</ele>
        <time>2020-10-17T16:03:43Z</time>
      </trkpt>
      <trkpt lat="42.260538" lon="2.770054">
        <ele>340.405</ele>
        <time>2020-10-17T16:03:45Z</time>
      </trkpt>
      <trkpt lat="42.260625" lon="2.769908">
        <ele>341.025</ele>
        <time>2020-10-17T16:03:46Z</time>
      </trkpt>
      <trkpt lat="42.260713" lon="2.769766">
        <ele>341.508</ele>
        <time>2020-10-17T16:03:47Z</time>
      </trkpt>
      <trkpt lat="42.260889" lon="2.769483">
        <ele>342.012</ele>
        <time>2020-10-17T16:03:49Z</time>
      </trkpt>
      <trkpt lat="42.260979" lon="2.769340">
        <ele>342.325</ele>
        <time>2020-10-17T16:03:50Z</time>
      </trkpt>
      <trkpt lat="42.261071" lon="2.769198">
        <ele>342.544</ele>
        <time>2020-10-17T16:03:51Z</time>
      </trkpt>
      <trkpt lat="42.261252" lon="2.768921">
        <ele>342.773</ele>
        <time>2020-10-17T16:03:53Z</time>
      </trkpt>
      <trkpt lat="42.261339" lon="2.768789">
        <ele>342.842</ele>
        <time>2020-10-17T16:03:54Z</time>
      </trkpt>
      <trkpt lat="42.261497" lon="2.768547">
        <ele>342.950</ele>
        <time>2020-10-17T16:03:56Z</time>
      </trkpt>
      <trkpt lat="42.261622" lon="2.768351">
        <ele>343.260</ele>
        <time>2020-10-17T16:03:58Z</time>
      </trkpt>
      <trkpt lat="42.261706" lon="2.768204">
        <ele>343.625</ele>
        <time>2020-10-17T16:04:00Z</time>
      </trkpt>
      <trkpt lat="42.261741" lon="2.768113">
        <ele>343.919</ele>
        <time>2020-10-17T16:04:02Z</time>
      </trkpt>
      <trkpt lat="42.261763" lon="2.768056">
        <ele>344.309</ele>
        <time>2020-10-17T16:04:05Z</time>
      </trkpt>
      <trkpt lat="42.261806" lon="2.768037">
        <ele>345.919</ele>
        <time>2020-10-17T16:04:16Z</time>
      </trkpt>
      <trkpt lat="42.261849" lon="2.768094">
        <ele>347.608</ele>
        <time>2020-10-17T16:04:53Z</time>
      </trkpt>
      <trkpt lat="42.261875" lon="2.768167">
        <ele>348.826</ele>
        <time>2020-10-17T16:04:55Z</time>
      </trkpt>
      <trkpt lat="42.261900" lon="2.768241">
        <ele>349.889</ele>
        <time>2020-10-17T16:04:57Z</time>
      </trkpt>
      <trkpt lat="42.261942" lon="2.768322">
        <ele>350.638</ele>
        <time>2020-10-17T16:04:59Z</time>
      </trkpt>
      <trkpt lat="42.261996" lon="2.768387">
        <ele>351.377</ele>
        <time>2020-10-17T16:05:01Z</time>
      </trkpt>
      <trkpt lat="42.262053" lon="2.768473">
        <ele>351.936</ele>
        <time>2020-10-17T16:05:03Z</time>
      </trkpt>
      <trkpt lat="42.262091" lon="2.768566">
        <ele>352.414</ele>
        <time>2020-10-17T16:05:05Z</time>
      </trkpt>
      <trkpt lat="42.262104" lon="2.768657">
        <ele>352.964</ele>
        <time>2020-10-17T16:05:07Z</time>
      </trkpt>
      <trkpt lat="42.262105" lon="2.768732">
        <ele>353.389</ele>
        <time>2020-10-17T16:05:08Z</time>
      </trkpt>
      <trkpt lat="42.262099" lon="2.768806">
        <ele>353.759</ele>
        <time>2020-10-17T16:05:10Z</time>
      </trkpt>
      <trkpt lat="42.262086" lon="2.768882">
        <ele>354.203</ele>
        <time>2020-10-17T16:05:12Z</time>
      </trkpt>
      <trkpt lat="42.262046" lon="2.769040">
        <ele>354.723</ele>
        <time>2020-10-17T16:05:14Z</time>
      </trkpt>
      <trkpt lat="42.262041" lon="2.769145">
        <ele>354.908</ele>
        <time>2020-10-17T16:05:16Z</time>
      </trkpt>
      <trkpt lat="42.262046" lon="2.769264">
        <ele>355.170</ele>
        <time>2020-10-17T16:05:18Z</time>
      </trkpt>
      <trkpt lat="42.262046" lon="2.769329">
        <ele>355.223</ele>
        <time>2020-10-17T16:05:19Z</time>
      </trkpt>
      <trkpt lat="42.262052" lon="2.769464">
        <ele>355.212</ele>
        <time>2020-10-17T16:05:21Z</time>
      </trkpt>
      <trkpt lat="42.262054" lon="2.769532">
        <ele>355.221</ele>
        <time>2020-10-17T16:05:22Z</time>
      </trkpt>
      <trkpt lat="42.262055" lon="2.769601">
        <ele>355.260</ele>
        <time>2020-10-17T16:05:23Z</time>
      </trkpt>
      <trkpt lat="42.262060" lon="2.769731">
        <ele>355.288</ele>
        <time>2020-10-17T16:05:25Z</time>
      </trkpt>
      <trkpt lat="42.262065" lon="2.769844">
        <ele>355.288</ele>
        <time>2020-10-17T16:05:27Z</time>
      </trkpt>
      <trkpt lat="42.262073" lon="2.769969">
        <ele>355.193</ele>
        <time>2020-10-17T16:05:29Z</time>
      </trkpt>
      <trkpt lat="42.262077" lon="2.770046">
        <ele>354.941</ele>
        <time>2020-10-17T16:05:30Z</time>
      </trkpt>
      <trkpt lat="42.262067" lon="2.770197">
        <ele>354.881</ele>
        <time>2020-10-17T16:05:32Z</time>
      </trkpt>
      <trkpt lat="42.262059" lon="2.770265">
        <ele>354.709</ele>
        <time>2020-10-17T16:05:33Z</time>
      </trkpt>
      <trkpt lat="42.262061" lon="2.770359">
        <ele>354.408</ele>
        <time>2020-10-17T16:05:35Z</time>
      </trkpt>
      <trkpt lat="42.262089" lon="2.770427">
        <ele>353.679</ele>
        <time>2020-10-17T16:05:37Z</time>
      </trkpt>
      <trkpt lat="42.262132" lon="2.770523">
        <ele>352.142</ele>
        <time>2020-10-17T16:05:39Z</time>
      </trkpt>
      <trkpt lat="42.262157" lon="2.770601">
        <ele>350.611</ele>
        <time>2020-10-17T16:05:41Z</time>
      </trkpt>
      <trkpt lat="42.262187" lon="2.770692">
        <ele>348.970</ele>
        <time>2020-10-17T16:05:43Z</time>
      </trkpt>
      <trkpt lat="42.262226" lon="2.770807">
        <ele>347.299</ele>
        <time>2020-10-17T16:05:45Z</time>
      </trkpt>
      <trkpt lat="42.262249" lon="2.770896">
        <ele>346.087</ele>
        <time>2020-10-17T16:05:47Z</time>
      </trkpt>
      <trkpt lat="42.262281" lon="2.771002">
        <ele>345.097</ele>
        <time>2020-10-17T16:05:49Z</time>
      </trkpt>
      <trkpt lat="42.262344" lon="2.771130">
        <ele>344.162</ele>
        <time>2020-10-17T16:05:51Z</time>
      </trkpt>
      <trkpt lat="42.262378" lon="2.771195">
        <ele>343.425</ele>
        <time>2020-10-17T16:05:52Z</time>
      </trkpt>
      <trkpt lat="42.262401" lon="2.771256">
        <ele>342.926</ele>
        <time>2020-10-17T16:05:53Z</time>
      </trkpt>
      <trkpt lat="42.262409" lon="2.771338">
        <ele>342.608</ele>
        <time>2020-10-17T16:05:54Z</time>
      </trkpt>
      <trkpt lat="42.262397" lon="2.771435">
        <ele>342.308</ele>
        <time>2020-10-17T16:05:56Z</time>
      </trkpt>
      <trkpt lat="42.262400" lon="2.771548">
        <ele>341.937</ele>
        <time>2020-10-17T16:05:58Z</time>
      </trkpt>
      <trkpt lat="42.262415" lon="2.771686">
        <ele>341.440</ele>
        <time>2020-10-17T16:06:00Z</time>
      </trkpt>
      <trkpt lat="42.262443" lon="2.771823">
        <ele>341.049</ele>
        <time>2020-10-17T16:06:02Z</time>
      </trkpt>
      <trkpt lat="42.262489" lon="2.771952">
        <ele>340.688</ele>
        <time>2020-10-17T16:06:04Z</time>
      </trkpt>
      <trkpt lat="42.262523" lon="2.772015">
        <ele>340.427</ele>
        <time>2020-10-17T16:06:05Z</time>
      </trkpt>
      <trkpt lat="42.262607" lon="2.772131">
        <ele>340.275</ele>
        <time>2020-10-17T16:06:07Z</time>
      </trkpt>
      <trkpt lat="42.262698" lon="2.772238">
        <ele>340.075</ele>
        <time>2020-10-17T16:06:09Z</time>
      </trkpt>
      <trkpt lat="42.262781" lon="2.772319">
        <ele>339.820</ele>
        <time>2020-10-17T16:06:11Z</time>
      </trkpt>
      <trkpt lat="42.262800" lon="2.772417">
        <ele>339.273</ele>
        <time>2020-10-17T16:06:20Z</time>
      </trkpt>
      <trkpt lat="42.262827" lon="2.772486">
        <ele>339.185</ele>
        <time>2020-10-17T16:06:21Z</time>
      </trkpt>
      <trkpt lat="42.262875" lon="2.772595">
        <ele>338.713</ele>
        <time>2020-10-17T16:06:23Z</time>
      </trkpt>
      <trkpt lat="42.262931" lon="2.772719">
        <ele>338.308</ele>
        <time>2020-10-17T16:06:25Z</time>
      </trkpt>
      <trkpt lat="42.262931" lon="2.772719">
        <ele>338.352</ele>
        <time>2020-10-17T16:06:25Z</time>
      </trkpt>
      <trkpt lat="42.262989" lon="2.772842">
        <ele>338.135</ele>
        <time>2020-10-17T16:06:27Z</time>
      </trkpt>
      <trkpt lat="42.263057" lon="2.772959">
        <ele>337.984</ele>
        <time>2020-10-17T16:06:29Z</time>
      </trkpt>
      <trkpt lat="42.263135" lon="2.773063">
        <ele>337.773</ele>
        <time>2020-10-17T16:06:31Z</time>
      </trkpt>
      <trkpt lat="42.263200" lon="2.773135">
        <ele>337.572</ele>
        <time>2020-10-17T16:06:33Z</time>
      </trkpt>
      <trkpt lat="42.263246" lon="2.773224">
        <ele>337.290</ele>
        <time>2020-10-17T16:06:35Z</time>
      </trkpt>
      <trkpt lat="42.263241" lon="2.773352">
        <ele>336.890</ele>
        <time>2020-10-17T16:06:37Z</time>
      </trkpt>
      <trkpt lat="42.263224" lon="2.773422">
        <ele>336.615</ele>
        <time>2020-10-17T16:06:38Z</time>
      </trkpt>
      <trkpt lat="42.263202" lon="2.773491">
        <ele>336.499</ele>
        <time>2020-10-17T16:06:39Z</time>
      </trkpt>
      <trkpt lat="42.263180" lon="2.773563">
        <ele>336.207</ele>
        <time>2020-10-17T16:06:40Z</time>
      </trkpt>
      <trkpt lat="42.263167" lon="2.773713">
        <ele>335.727</ele>
        <time>2020-10-17T16:06:42Z</time>
      </trkpt>
      <trkpt lat="42.263178" lon="2.773790">
        <ele>335.308</ele>
        <time>2020-10-17T16:06:43Z</time>
      </trkpt>
      <trkpt lat="42.263197" lon="2.773860">
        <ele>334.944</ele>
        <time>2020-10-17T16:06:44Z</time>
      </trkpt>
      <trkpt lat="42.263239" lon="2.773989">
        <ele>334.627</ele>
        <time>2020-10-17T16:06:46Z</time>
      </trkpt>
      <trkpt lat="42.263255" lon="2.774051">
        <ele>334.436</ele>
        <time>2020-10-17T16:06:47Z</time>
      </trkpt>
      <trkpt lat="42.263270" lon="2.774180">
        <ele>334.265</ele>
        <time>2020-10-17T16:06:49Z</time>
      </trkpt>
      <trkpt lat="42.263272" lon="2.774322">
        <ele>334.154</ele>
        <time>2020-10-17T16:06:51Z</time>
      </trkpt>
      <trkpt lat="42.263290" lon="2.774466">
        <ele>333.922</ele>
        <time>2020-10-17T16:06:53Z</time>
      </trkpt>
      <trkpt lat="42.263327" lon="2.774595">
        <ele>333.692</ele>
        <time>2020-10-17T16:06:55Z</time>
      </trkpt>
      <trkpt lat="42.263347" lon="2.774658">
        <ele>333.457</ele>
        <time>2020-10-17T16:06:56Z</time>
      </trkpt>
      <trkpt lat="42.263366" lon="2.774725">
        <ele>333.354</ele>
        <time>2020-10-17T16:06:57Z</time>
      </trkpt>
      <trkpt lat="42.263383" lon="2.774797">
        <ele>333.256</ele>
        <time>2020-10-17T16:06:58Z</time>
      </trkpt>
      <trkpt lat="42.263398" lon="2.774872">
        <ele>333.211</ele>
        <time>2020-10-17T16:06:59Z</time>
      </trkpt>
      <trkpt lat="42.263411" lon="2.774947">
        <ele>333.208</ele>
        <time>2020-10-17T16:07:00Z</time>
      </trkpt>
      <trkpt lat="42.263432" lon="2.775095">
        <ele>333.350</ele>
        <time>2020-10-17T16:07:02Z</time>
      </trkpt>
      <trkpt lat="42.263436" lon="2.775231">
        <ele>333.613</ele>
        <time>2020-10-17T16:07:04Z</time>
      </trkpt>
      <trkpt lat="42.263430" lon="2.775301">
        <ele>333.842</ele>
        <time>2020-10-17T16:07:05Z</time>
      </trkpt>
      <trkpt lat="42.263415" lon="2.775437">
        <ele>334.171</ele>
        <time>2020-10-17T16:07:07Z</time>
      </trkpt>
      <trkpt lat="42.263410" lon="2.775503">
        <ele>334.220</ele>
        <time>2020-10-17T16:07:08Z</time>
      </trkpt>
      <trkpt lat="42.263408" lon="2.775571">
        <ele>334.338</ele>
        <time>2020-10-17T16:07:09Z</time>
      </trkpt>
      <trkpt lat="42.263412" lon="2.775691">
        <ele>334.768</ele>
        <time>2020-10-17T16:07:11Z</time>
      </trkpt>
      <trkpt lat="42.263441" lon="2.775803">
        <ele>335.443</ele>
        <time>2020-10-17T16:07:13Z</time>
      </trkpt>
      <trkpt lat="42.263477" lon="2.775862">
        <ele>336.026</ele>
        <time>2020-10-17T16:07:14Z</time>
      </trkpt>
      <trkpt lat="42.263524" lon="2.775917">
        <ele>336.547</ele>
        <time>2020-10-17T16:07:15Z</time>
      </trkpt>
      <trkpt lat="42.263629" lon="2.776036">
        <ele>337.211</ele>
        <time>2020-10-17T16:07:17Z</time>
      </trkpt>
      <trkpt lat="42.263679" lon="2.776103">
        <ele>337.708</ele>
        <time>2020-10-17T16:07:18Z</time>
      </trkpt>
      <trkpt lat="42.263745" lon="2.776226">
        <ele>338.217</ele>
        <time>2020-10-17T16:07:20Z</time>
      </trkpt>
      <trkpt lat="42.263719" lon="2.776327">
        <ele>338.680</ele>
        <time>2020-10-17T16:07:22Z</time>
      </trkpt>
      <trkpt lat="42.263688" lon="2.776378">
        <ele>338.899</ele>
        <time>2020-10-17T16:07:23Z</time>
      </trkpt>
      <trkpt lat="42.263649" lon="2.776446">
        <ele>338.848</ele>
        <time>2020-10-17T16:07:24Z</time>
      </trkpt>
      <trkpt lat="42.263573" lon="2.776613">
        <ele>338.447</ele>
        <time>2020-10-17T16:07:26Z</time>
      </trkpt>
      <trkpt lat="42.263497" lon="2.776749">
        <ele>338.145</ele>
        <time>2020-10-17T16:07:28Z</time>
      </trkpt>
      <trkpt lat="42.263403" lon="2.776852">
        <ele>337.895</ele>
        <time>2020-10-17T16:07:30Z</time>
      </trkpt>
      <trkpt lat="42.263360" lon="2.776897">
        <ele>337.530</ele>
        <time>2020-10-17T16:07:31Z</time>
      </trkpt>
      <trkpt lat="42.263304" lon="2.776972">
        <ele>337.298</ele>
        <time>2020-10-17T16:07:33Z</time>
      </trkpt>
      <trkpt lat="42.263293" lon="2.777064">
        <ele>336.915</ele>
        <time>2020-10-17T16:07:35Z</time>
      </trkpt>
      <trkpt lat="42.263315" lon="2.777187">
        <ele>336.726</ele>
        <time>2020-10-17T16:07:37Z</time>
      </trkpt>
      <trkpt lat="42.263329" lon="2.777254">
        <ele>336.508</ele>
        <time>2020-10-17T16:07:38Z</time>
      </trkpt>
      <trkpt lat="42.263345" lon="2.777389">
        <ele>336.084</ele>
        <time>2020-10-17T16:07:40Z</time>
      </trkpt>
      <trkpt lat="42.263344" lon="2.777458">
        <ele>335.247</ele>
        <time>2020-10-17T16:07:41Z</time>
      </trkpt>
      <trkpt lat="42.263336" lon="2.777594">
        <ele>334.556</ele>
        <time>2020-10-17T16:07:43Z</time>
      </trkpt>
      <trkpt lat="42.263340" lon="2.777738">
        <ele>334.175</ele>
        <time>2020-10-17T16:07:45Z</time>
      </trkpt>
      <trkpt lat="42.263343" lon="2.777809">
        <ele>333.864</ele>
        <time>2020-10-17T16:07:46Z</time>
      </trkpt>
      <trkpt lat="42.263345" lon="2.777880">
        <ele>333.632</ele>
        <time>2020-10-17T16:07:47Z</time>
      </trkpt>
      <trkpt lat="42.263348" lon="2.777989">
        <ele>333.462</ele>
        <time>2020-10-17T16:07:49Z</time>
      </trkpt>
      <trkpt lat="42.263339" lon="2.778074">
        <ele>332.997</ele>
        <time>2020-10-17T16:07:51Z</time>
      </trkpt>
      <trkpt lat="42.263332" lon="2.778136">
        <ele>332.489</ele>
        <time>2020-10-17T16:07:52Z</time>
      </trkpt>
      <trkpt lat="42.263334" lon="2.778232">
        <ele>331.806</ele>
        <time>2020-10-17T16:07:54Z</time>
      </trkpt>
      <trkpt lat="42.263345" lon="2.778357">
        <ele>331.126</ele>
        <time>2020-10-17T16:07:56Z</time>
      </trkpt>
      <trkpt lat="42.263339" lon="2.778519">
        <ele>330.208</ele>
        <time>2020-10-17T16:07:58Z</time>
      </trkpt>
      <trkpt lat="42.263321" lon="2.778683">
        <ele>329.593</ele>
        <time>2020-10-17T16:08:00Z</time>
      </trkpt>
      <trkpt lat="42.263310" lon="2.778761">
        <ele>329.146</ele>
        <time>2020-10-17T16:08:01Z</time>
      </trkpt>
      <trkpt lat="42.263300" lon="2.778834">
        <ele>328.895</ele>
        <time>2020-10-17T16:08:02Z</time>
      </trkpt>
      <trkpt lat="42.263287" lon="2.778960">
        <ele>328.714</ele>
        <time>2020-10-17T16:08:04Z</time>
      </trkpt>
      <trkpt lat="42.263283" lon="2.779022">
        <ele>328.613</ele>
        <time>2020-10-17T16:08:05Z</time>
      </trkpt>
      <trkpt lat="42.263273" lon="2.779141">
        <ele>328.511</ele>
        <time>2020-10-17T16:08:07Z</time>
      </trkpt>
      <trkpt lat="42.263266" lon="2.779209">
        <ele>328.351</ele>
        <time>2020-10-17T16:08:08Z</time>
      </trkpt>
      <trkpt lat="42.263241" lon="2.779394">
        <ele>327.836</ele>
        <time>2020-10-17T16:08:10Z</time>
      </trkpt>
      <trkpt lat="42.263230" lon="2.779463">
        <ele>327.175</ele>
        <time>2020-10-17T16:08:11Z</time>
      </trkpt>
      <trkpt lat="42.263198" lon="2.779595">
        <ele>326.128</ele>
        <time>2020-10-17T16:08:13Z</time>
      </trkpt>
      <trkpt lat="42.263178" lon="2.779660">
        <ele>325.420</ele>
        <time>2020-10-17T16:08:14Z</time>
      </trkpt>
      <trkpt lat="42.263123" lon="2.779788">
        <ele>325.008</ele>
        <time>2020-10-17T16:08:16Z</time>
      </trkpt>
      <trkpt lat="42.263086" lon="2.779855">
        <ele>324.972</ele>
        <time>2020-10-17T16:08:17Z</time>
      </trkpt>
      <trkpt lat="42.263048" lon="2.779922">
        <ele>324.895</ele>
        <time>2020-10-17T16:08:18Z</time>
      </trkpt>
      <trkpt lat="42.263007" lon="2.779988">
        <ele>324.644</ele>
        <time>2020-10-17T16:08:19Z</time>
      </trkpt>
      <trkpt lat="42.262933" lon="2.780111">
        <ele>324.313</ele>
        <time>2020-10-17T16:08:21Z</time>
      </trkpt>
      <trkpt lat="42.262900" lon="2.780164">
        <ele>324.242</ele>
        <time>2020-10-17T16:08:22Z</time>
      </trkpt>
      <trkpt lat="42.262872" lon="2.780211">
        <ele>324.310</ele>
        <time>2020-10-17T16:08:23Z</time>
      </trkpt>
      <trkpt lat="42.262825" lon="2.780283">
        <ele>324.420</ele>
        <time>2020-10-17T16:08:25Z</time>
      </trkpt>
      <trkpt lat="42.262764" lon="2.780372">
        <ele>324.585</ele>
        <time>2020-10-17T16:08:27Z</time>
      </trkpt>
      <trkpt lat="42.262678" lon="2.780471">
        <ele>324.687</ele>
        <time>2020-10-17T16:08:29Z</time>
      </trkpt>
      <trkpt lat="42.262633" lon="2.780574">
        <ele>324.642</ele>
        <time>2020-10-17T16:08:31Z</time>
      </trkpt>
      <trkpt lat="42.262637" lon="2.780696">
        <ele>324.126</ele>
        <time>2020-10-17T16:08:33Z</time>
      </trkpt>
      <trkpt lat="42.262659" lon="2.780853">
        <ele>323.508</ele>
        <time>2020-10-17T16:08:35Z</time>
      </trkpt>
      <trkpt lat="42.262664" lon="2.780996">
        <ele>322.773</ele>
        <time>2020-10-17T16:08:37Z</time>
      </trkpt>
      <trkpt lat="42.262659" lon="2.781059">
        <ele>322.026</ele>
        <time>2020-10-17T16:08:38Z</time>
      </trkpt>
      <trkpt lat="42.262632" lon="2.781174">
        <ele>321.295</ele>
        <time>2020-10-17T16:08:40Z</time>
      </trkpt>
      <trkpt lat="42.262614" lon="2.781253">
        <ele>320.454</ele>
        <time>2020-10-17T16:08:42Z</time>
      </trkpt>
      <trkpt lat="42.262603" lon="2.781347">
        <ele>319.543</ele>
        <time>2020-10-17T16:08:44Z</time>
      </trkpt>
      <trkpt lat="42.262593" lon="2.781457">
        <ele>318.491</ele>
        <time>2020-10-17T16:08:46Z</time>
      </trkpt>
      <trkpt lat="42.262567" lon="2.781559">
        <ele>317.391</ele>
        <time>2020-10-17T16:08:48Z</time>
      </trkpt>
      <trkpt lat="42.262519" lon="2.781721">
        <ele>316.346</ele>
        <time>2020-10-17T16:08:50Z</time>
      </trkpt>
      <trkpt lat="42.262503" lon="2.781790">
        <ele>315.696</ele>
        <time>2020-10-17T16:08:51Z</time>
      </trkpt>
      <trkpt lat="42.262472" lon="2.781943">
        <ele>315.131</ele>
        <time>2020-10-17T16:08:53Z</time>
      </trkpt>
      <trkpt lat="42.262456" lon="2.782108">
        <ele>314.824</ele>
        <time>2020-10-17T16:08:55Z</time>
      </trkpt>
      <trkpt lat="42.262459" lon="2.782254">
        <ele>314.708</ele>
        <time>2020-10-17T16:08:57Z</time>
      </trkpt>
      <trkpt lat="42.262468" lon="2.782314">
        <ele>314.664</ele>
        <time>2020-10-17T16:08:58Z</time>
      </trkpt>
      <trkpt lat="42.262481" lon="2.782423">
        <ele>314.597</ele>
        <time>2020-10-17T16:09:00Z</time>
      </trkpt>
      <trkpt lat="42.262488" lon="2.782533">
        <ele>314.196</ele>
        <time>2020-10-17T16:09:02Z</time>
      </trkpt>
      <trkpt lat="42.262490" lon="2.782624">
        <ele>313.825</ele>
        <time>2020-10-17T16:09:03Z</time>
      </trkpt>
      <trkpt lat="42.262495" lon="2.782728">
        <ele>313.444</ele>
        <time>2020-10-17T16:09:05Z</time>
      </trkpt>
      <trkpt lat="42.262497" lon="2.782835">
        <ele>313.122</ele>
        <time>2020-10-17T16:09:07Z</time>
      </trkpt>
      <trkpt lat="42.262528" lon="2.782938">
        <ele>312.782</ele>
        <time>2020-10-17T16:09:09Z</time>
      </trkpt>
      <trkpt lat="42.262610" lon="2.783037">
        <ele>312.117</ele>
        <time>2020-10-17T16:09:11Z</time>
      </trkpt>
      <trkpt lat="42.262665" lon="2.783093">
        <ele>311.664</ele>
        <time>2020-10-17T16:09:12Z</time>
      </trkpt>
      <trkpt lat="42.262756" lon="2.783218">
        <ele>311.106</ele>
        <time>2020-10-17T16:09:14Z</time>
      </trkpt>
      <trkpt lat="42.262804" lon="2.783363">
        <ele>310.716</ele>
        <time>2020-10-17T16:09:16Z</time>
      </trkpt>
      <trkpt lat="42.262817" lon="2.783442">
        <ele>310.508</ele>
        <time>2020-10-17T16:09:17Z</time>
      </trkpt>
      <trkpt lat="42.262825" lon="2.783619">
        <ele>310.131</ele>
        <time>2020-10-17T16:09:19Z</time>
      </trkpt>
      <trkpt lat="42.262795" lon="2.783793">
        <ele>309.254</ele>
        <time>2020-10-17T16:09:21Z</time>
      </trkpt>
      <trkpt lat="42.262743" lon="2.783920">
        <ele>308.193</ele>
        <time>2020-10-17T16:09:23Z</time>
      </trkpt>
      <trkpt lat="42.262697" lon="2.784020">
        <ele>306.782</ele>
        <time>2020-10-17T16:09:25Z</time>
      </trkpt>
      <trkpt lat="42.262666" lon="2.784124">
        <ele>305.311</ele>
        <time>2020-10-17T16:09:27Z</time>
      </trkpt>
      <trkpt lat="42.262638" lon="2.784240">
        <ele>303.449</ele>
        <time>2020-10-17T16:09:29Z</time>
      </trkpt>
      <trkpt lat="42.262592" lon="2.784267">
        <ele>301.899</ele>
        <time>2020-10-17T16:09:32Z</time>
      </trkpt>
      <trkpt lat="42.262600" lon="2.784332">
        <ele>300.774</ele>
        <time>2020-10-17T16:09:35Z</time>
      </trkpt>
      <trkpt lat="42.262536" lon="2.784410">
        <ele>298.657</ele>
        <time>2020-10-17T16:10:22Z</time>
      </trkpt>
      <trkpt lat="42.262588" lon="2.784406">
        <ele>299.700</ele>
        <time>2020-10-17T16:10:30Z</time>
      </trkpt>
      <trkpt lat="42.262630" lon="2.784340">
        <ele>300.820</ele>
        <time>2020-10-17T16:10:32Z</time>
      </trkpt>
      <trkpt lat="42.262684" lon="2.784266">
        <ele>301.808</ele>
        <time>2020-10-17T16:10:34Z</time>
      </trkpt>
      <trkpt lat="42.262734" lon="2.784203">
        <ele>302.530</ele>
        <time>2020-10-17T16:10:35Z</time>
      </trkpt>
      <trkpt lat="42.262809" lon="2.784121">
        <ele>303.063</ele>
        <time>2020-10-17T16:10:37Z</time>
      </trkpt>
      <trkpt lat="42.262887" lon="2.784024">
        <ele>303.542</ele>
        <time>2020-10-17T16:10:39Z</time>
      </trkpt>
      <trkpt lat="42.262943" lon="2.783887">
        <ele>303.531</ele>
        <time>2020-10-17T16:10:41Z</time>
      </trkpt>
      <trkpt lat="42.263006" lon="2.783735">
        <ele>303.280</ele>
        <time>2020-10-17T16:10:43Z</time>
      </trkpt>
      <trkpt lat="42.263039" lon="2.783671">
        <ele>303.088</ele>
        <time>2020-10-17T16:10:44Z</time>
      </trkpt>
      <trkpt lat="42.263097" lon="2.783558">
        <ele>303.068</ele>
        <time>2020-10-17T16:10:46Z</time>
      </trkpt>
      <trkpt lat="42.263134" lon="2.783468">
        <ele>302.983</ele>
        <time>2020-10-17T16:10:48Z</time>
      </trkpt>
      <trkpt lat="42.263121" lon="2.783390">
        <ele>302.631</ele>
        <time>2020-10-17T16:10:50Z</time>
      </trkpt>
      <trkpt lat="42.263069" lon="2.783322">
        <ele>302.261</ele>
        <time>2020-10-17T16:10:52Z</time>
      </trkpt>
      <trkpt lat="42.263013" lon="2.783263">
        <ele>301.507</ele>
        <time>2020-10-17T16:10:54Z</time>
      </trkpt>
      <trkpt lat="42.262953" lon="2.783224">
        <ele>300.708</ele>
        <time>2020-10-17T16:10:56Z</time>
      </trkpt>
      <trkpt lat="42.262898" lon="2.783155">
        <ele>300.088</ele>
        <time>2020-10-17T16:10:58Z</time>
      </trkpt>
      <trkpt lat="42.262882" lon="2.783039">
        <ele>299.291</ele>
        <time>2020-10-17T16:11:00Z</time>
      </trkpt>
      <trkpt lat="42.262889" lon="2.782972">
        <ele>298.710</ele>
        <time>2020-10-17T16:11:01Z</time>
      </trkpt>
      <trkpt lat="42.262935" lon="2.782808">
        <ele>297.979</ele>
        <time>2020-10-17T16:11:03Z</time>
      </trkpt>
      <trkpt lat="42.262964" lon="2.782719">
        <ele>297.218</ele>
        <time>2020-10-17T16:11:04Z</time>
      </trkpt>
      <trkpt lat="42.263027" lon="2.782533">
        <ele>296.466</ele>
        <time>2020-10-17T16:11:06Z</time>
      </trkpt>
      <trkpt lat="42.263111" lon="2.782354">
        <ele>295.746</ele>
        <time>2020-10-17T16:11:08Z</time>
      </trkpt>
      <trkpt lat="42.263169" lon="2.782286">
        <ele>295.231</ele>
        <time>2020-10-17T16:11:09Z</time>
      </trkpt>
      <trkpt lat="42.263300" lon="2.782227">
        <ele>294.661</ele>
        <time>2020-10-17T16:11:11Z</time>
      </trkpt>
      <trkpt lat="42.263372" lon="2.782230">
        <ele>294.221</ele>
        <time>2020-10-17T16:11:12Z</time>
      </trkpt>
      <trkpt lat="42.263499" lon="2.782293">
        <ele>293.713</ele>
        <time>2020-10-17T16:11:14Z</time>
      </trkpt>
      <trkpt lat="42.263553" lon="2.782323">
        <ele>293.308</ele>
        <time>2020-10-17T16:11:15Z</time>
      </trkpt>
      <trkpt lat="42.263660" lon="2.782355">
        <ele>292.931</ele>
        <time>2020-10-17T16:11:17Z</time>
      </trkpt>
      <trkpt lat="42.263715" lon="2.782358">
        <ele>292.694</ele>
        <time>2020-10-17T16:11:18Z</time>
      </trkpt>
      <trkpt lat="42.263822" lon="2.782344">
        <ele>292.683</ele>
        <time>2020-10-17T16:11:20Z</time>
      </trkpt>
      <trkpt lat="42.263876" lon="2.782336">
        <ele>292.512</ele>
        <time>2020-10-17T16:11:21Z</time>
      </trkpt>
      <trkpt lat="42.263991" lon="2.782298">
        <ele>292.511</ele>
        <time>2020-10-17T16:11:23Z</time>
      </trkpt>
      <trkpt lat="42.264106" lon="2.782208">
        <ele>292.679</ele>
        <time>2020-10-17T16:11:25Z</time>
      </trkpt>
      <trkpt lat="42.264164" lon="2.782151">
        <ele>292.749</ele>
        <time>2020-10-17T16:11:26Z</time>
      </trkpt>
      <trkpt lat="42.264251" lon="2.782037">
        <ele>292.814</ele>
        <time>2020-10-17T16:11:28Z</time>
      </trkpt>
      <trkpt lat="42.264283" lon="2.781978">
        <ele>292.833</ele>
        <time>2020-10-17T16:11:29Z</time>
      </trkpt>
      <trkpt lat="42.264347" lon="2.781869">
        <ele>292.623</ele>
        <time>2020-10-17T16:11:31Z</time>
      </trkpt>
      <trkpt lat="42.264387" lon="2.781817">
        <ele>292.515</ele>
        <time>2020-10-17T16:11:32Z</time>
      </trkpt>
      <trkpt lat="42.264433" lon="2.781766">
        <ele>292.408</ele>
        <time>2020-10-17T16:11:33Z</time>
      </trkpt>
      <trkpt lat="42.264531" lon="2.781677">
        <ele>292.238</ele>
        <time>2020-10-17T16:11:35Z</time>
      </trkpt>
      <trkpt lat="42.264587" lon="2.781651">
        <ele>291.811</ele>
        <time>2020-10-17T16:11:36Z</time>
      </trkpt>
      <trkpt lat="42.264702" lon="2.781623">
        <ele>291.220</ele>
        <time>2020-10-17T16:11:38Z</time>
      </trkpt>
      <trkpt lat="42.264809" lon="2.781560">
        <ele>290.329</ele>
        <time>2020-10-17T16:11:40Z</time>
      </trkpt>
      <trkpt lat="42.264889" lon="2.781438">
        <ele>289.628</ele>
        <time>2020-10-17T16:11:42Z</time>
      </trkpt>
      <trkpt lat="42.264925" lon="2.781371">
        <ele>288.876</ele>
        <time>2020-10-17T16:11:43Z</time>
      </trkpt>
      <trkpt lat="42.265006" lon="2.781263">
        <ele>287.746</ele>
        <time>2020-10-17T16:11:45Z</time>
      </trkpt>
      <trkpt lat="42.265114" lon="2.781190">
        <ele>286.571</ele>
        <time>2020-10-17T16:11:47Z</time>
      </trkpt>
      <trkpt lat="42.265231" lon="2.781148">
        <ele>285.665</ele>
        <time>2020-10-17T16:11:49Z</time>
      </trkpt>
      <trkpt lat="42.265292" lon="2.781143">
        <ele>285.068</ele>
        <time>2020-10-17T16:11:50Z</time>
      </trkpt>
      <trkpt lat="42.265357" lon="2.781143">
        <ele>284.614</ele>
        <time>2020-10-17T16:11:51Z</time>
      </trkpt>
      <trkpt lat="42.265482" lon="2.781142">
        <ele>284.308</ele>
        <time>2020-10-17T16:11:53Z</time>
      </trkpt>
      <trkpt lat="42.265544" lon="2.781124">
        <ele>284.081</ele>
        <time>2020-10-17T16:11:54Z</time>
      </trkpt>
      <trkpt lat="42.265672" lon="2.781046">
        <ele>283.854</ele>
        <time>2020-10-17T16:11:56Z</time>
      </trkpt>
      <trkpt lat="42.265796" lon="2.780943">
        <ele>283.633</ele>
        <time>2020-10-17T16:11:58Z</time>
      </trkpt>
      <trkpt lat="42.265857" lon="2.780891">
        <ele>283.382</ele>
        <time>2020-10-17T16:11:59Z</time>
      </trkpt>
      <trkpt lat="42.265968" lon="2.780802">
        <ele>282.971</ele>
        <time>2020-10-17T16:12:01Z</time>
      </trkpt>
      <trkpt lat="42.266085" lon="2.780707">
        <ele>282.419</ele>
        <time>2020-10-17T16:12:03Z</time>
      </trkpt>
      <trkpt lat="42.266206" lon="2.780598">
        <ele>281.629</ele>
        <time>2020-10-17T16:12:05Z</time>
      </trkpt>
      <trkpt lat="42.266265" lon="2.780543">
        <ele>280.914</ele>
        <time>2020-10-17T16:12:06Z</time>
      </trkpt>
      <trkpt lat="42.266357" lon="2.780461">
        <ele>280.245</ele>
        <time>2020-10-17T16:12:08Z</time>
      </trkpt>
      <trkpt lat="42.266413" lon="2.780392">
        <ele>279.347</ele>
        <time>2020-10-17T16:12:10Z</time>
      </trkpt>
      <trkpt lat="42.266475" lon="2.780259">
        <ele>278.311</ele>
        <time>2020-10-17T16:12:12Z</time>
      </trkpt>
      <trkpt lat="42.266539" lon="2.780100">
        <ele>277.508</ele>
        <time>2020-10-17T16:12:14Z</time>
      </trkpt>
      <trkpt lat="42.266570" lon="2.780018">
        <ele>276.829</ele>
        <time>2020-10-17T16:12:15Z</time>
      </trkpt>
      <trkpt lat="42.266624" lon="2.779860">
        <ele>275.932</ele>
        <time>2020-10-17T16:12:17Z</time>
      </trkpt>
      <trkpt lat="42.266642" lon="2.779783">
        <ele>275.311</ele>
        <time>2020-10-17T16:12:18Z</time>
      </trkpt>
      <trkpt lat="42.266638" lon="2.779643">
        <ele>274.540</ele>
        <time>2020-10-17T16:12:20Z</time>
      </trkpt>
      <trkpt lat="42.266617" lon="2.779586">
        <ele>273.879</ele>
        <time>2020-10-17T16:12:21Z</time>
      </trkpt>
      <trkpt lat="42.266595" lon="2.779525">
        <ele>273.287</ele>
        <time>2020-10-17T16:12:22Z</time>
      </trkpt>
      <trkpt lat="42.266534" lon="2.779410">
        <ele>272.397</ele>
        <time>2020-10-17T16:12:24Z</time>
      </trkpt>
      <trkpt lat="42.266461" lon="2.779276">
        <ele>271.322</ele>
        <time>2020-10-17T16:12:26Z</time>
      </trkpt>
      <trkpt lat="42.266421" lon="2.779208">
        <ele>270.234</ele>
        <time>2020-10-17T16:12:27Z</time>
      </trkpt>
      <trkpt lat="42.266378" lon="2.779155">
        <ele>269.255</ele>
        <time>2020-10-17T16:12:28Z</time>
      </trkpt>
      <trkpt lat="42.266332" lon="2.779124">
        <ele>268.210</ele>
        <time>2020-10-17T16:12:29Z</time>
      </trkpt>
      <trkpt lat="42.266259" lon="2.779058">
        <ele>266.908</ele>
        <time>2020-10-17T16:12:31Z</time>
      </trkpt>
      <trkpt lat="42.266249" lon="2.778949">
        <ele>265.268</ele>
        <time>2020-10-17T16:12:33Z</time>
      </trkpt>
      <trkpt lat="42.266272" lon="2.778885">
        <ele>263.951</ele>
        <time>2020-10-17T16:12:34Z</time>
      </trkpt>
      <trkpt lat="42.266318" lon="2.778815">
        <ele>262.760</ele>
        <time>2020-10-17T16:12:35Z</time>
      </trkpt>
      <trkpt lat="42.266425" lon="2.778674">
        <ele>260.949</ele>
        <time>2020-10-17T16:12:37Z</time>
      </trkpt>
      <trkpt lat="42.266467" lon="2.778609">
        <ele>259.418</ele>
        <time>2020-10-17T16:12:38Z</time>
      </trkpt>
      <trkpt lat="42.266527" lon="2.778467">
        <ele>257.856</ele>
        <time>2020-10-17T16:12:40Z</time>
      </trkpt>
      <trkpt lat="42.266562" lon="2.778297">
        <ele>256.636</ele>
        <time>2020-10-17T16:12:42Z</time>
      </trkpt>
      <trkpt lat="42.266576" lon="2.778209">
        <ele>255.981</ele>
        <time>2020-10-17T16:12:43Z</time>
      </trkpt>
      <trkpt lat="42.266587" lon="2.778130">
        <ele>255.481</ele>
        <time>2020-10-17T16:12:44Z</time>
      </trkpt>
      <trkpt lat="42.266596" lon="2.777989">
        <ele>255.161</ele>
        <time>2020-10-17T16:12:46Z</time>
      </trkpt>
      <trkpt lat="42.266585" lon="2.777842">
        <ele>254.617</ele>
        <time>2020-10-17T16:12:48Z</time>
      </trkpt>
      <trkpt lat="42.266555" lon="2.777688">
        <ele>253.908</ele>
        <time>2020-10-17T16:12:50Z</time>
      </trkpt>
      <trkpt lat="42.266532" lon="2.777610">
        <ele>253.213</ele>
        <time>2020-10-17T16:12:51Z</time>
      </trkpt>
      <trkpt lat="42.266474" lon="2.777463">
        <ele>252.546</ele>
        <time>2020-10-17T16:12:53Z</time>
      </trkpt>
      <trkpt lat="42.266443" lon="2.777386">
        <ele>251.995</ele>
        <time>2020-10-17T16:12:54Z</time>
      </trkpt>
      <trkpt lat="42.266418" lon="2.777300">
        <ele>251.594</ele>
        <time>2020-10-17T16:12:55Z</time>
      </trkpt>
      <trkpt lat="42.266413" lon="2.777095">
        <ele>251.373</ele>
        <time>2020-10-17T16:12:57Z</time>
      </trkpt>
      <trkpt lat="42.266430" lon="2.776914">
        <ele>250.441</ele>
        <time>2020-10-17T16:12:59Z</time>
      </trkpt>
      <trkpt lat="42.266435" lon="2.776802">
        <ele>249.661</ele>
        <time>2020-10-17T16:13:01Z</time>
      </trkpt>
      <trkpt lat="42.266419" lon="2.776722">
        <ele>248.696</ele>
        <time>2020-10-17T16:13:03Z</time>
      </trkpt>
      <trkpt lat="42.266373" lon="2.776653">
        <ele>247.424</ele>
        <time>2020-10-17T16:13:05Z</time>
      </trkpt>
      <trkpt lat="42.266309" lon="2.776613">
        <ele>246.104</ele>
        <time>2020-10-17T16:13:07Z</time>
      </trkpt>
      <trkpt lat="42.266264" lon="2.776569">
        <ele>244.914</ele>
        <time>2020-10-17T16:13:09Z</time>
      </trkpt>
      <trkpt lat="42.266303" lon="2.776520">
        <ele>243.808</ele>
        <time>2020-10-17T16:13:11Z</time>
      </trkpt>
      <trkpt lat="42.266386" lon="2.776497">
        <ele>243.077</ele>
        <time>2020-10-17T16:13:13Z</time>
      </trkpt>
      <trkpt lat="42.266495" lon="2.776430">
        <ele>242.170</ele>
        <time>2020-10-17T16:13:15Z</time>
      </trkpt>
      <trkpt lat="42.266539" lon="2.776368">
        <ele>241.439</ele>
        <time>2020-10-17T16:13:16Z</time>
      </trkpt>
      <trkpt lat="42.266581" lon="2.776294">
        <ele>240.818</ele>
        <time>2020-10-17T16:13:17Z</time>
      </trkpt>
      <trkpt lat="42.266618" lon="2.776218">
        <ele>240.037</ele>
        <time>2020-10-17T16:13:18Z</time>
      </trkpt>
      <trkpt lat="42.266652" lon="2.776137">
        <ele>239.525</ele>
        <time>2020-10-17T16:13:19Z</time>
      </trkpt>
      <trkpt lat="42.266713" lon="2.775973">
        <ele>239.045</ele>
        <time>2020-10-17T16:13:21Z</time>
      </trkpt>
      <trkpt lat="42.266773" lon="2.775811">
        <ele>238.650</ele>
        <time>2020-10-17T16:13:23Z</time>
      </trkpt>
      <trkpt lat="42.266802" lon="2.775736">
        <ele>238.163</ele>
        <time>2020-10-17T16:13:24Z</time>
      </trkpt>
      <trkpt lat="42.266857" lon="2.775593">
        <ele>237.344</ele>
        <time>2020-10-17T16:13:26Z</time>
      </trkpt>
      <trkpt lat="42.266884" lon="2.775522">
        <ele>236.718</ele>
        <time>2020-10-17T16:13:27Z</time>
      </trkpt>
      <trkpt lat="42.266917" lon="2.775459">
        <ele>236.108</ele>
        <time>2020-10-17T16:13:28Z</time>
      </trkpt>
      <trkpt lat="42.266990" lon="2.775362">
        <ele>235.381</ele>
        <time>2020-10-17T16:13:30Z</time>
      </trkpt>
      <trkpt lat="42.267026" lon="2.775267">
        <ele>234.824</ele>
        <time>2020-10-17T16:13:32Z</time>
      </trkpt>
      <trkpt lat="42.267015" lon="2.775167">
        <ele>234.243</ele>
        <time>2020-10-17T16:13:34Z</time>
      </trkpt>
      <trkpt lat="42.266981" lon="2.775073">
        <ele>233.722</ele>
        <time>2020-10-17T16:13:36Z</time>
      </trkpt>
      <trkpt lat="42.266967" lon="2.774938">
        <ele>233.361</ele>
        <time>2020-10-17T16:13:38Z</time>
      </trkpt>
      <trkpt lat="42.266992" lon="2.774818">
        <ele>232.919</ele>
        <time>2020-10-17T16:13:40Z</time>
      </trkpt>
      <trkpt lat="42.267029" lon="2.774690">
        <ele>232.119</ele>
        <time>2020-10-17T16:13:42Z</time>
      </trkpt>
      <trkpt lat="42.267048" lon="2.774618">
        <ele>231.284</ele>
        <time>2020-10-17T16:13:43Z</time>
      </trkpt>
      <trkpt lat="42.267066" lon="2.774545">
        <ele>230.447</ele>
        <time>2020-10-17T16:13:44Z</time>
      </trkpt>
      <trkpt lat="42.267114" lon="2.774423">
        <ele>229.429</ele>
        <time>2020-10-17T16:13:46Z</time>
      </trkpt>
      <trkpt lat="42.267154" lon="2.774390">
        <ele>228.521</ele>
        <time>2020-10-17T16:13:47Z</time>
      </trkpt>
      <trkpt lat="42.267255" lon="2.774339">
        <ele>227.708</ele>
        <time>2020-10-17T16:13:49Z</time>
      </trkpt>
      <trkpt lat="42.267359" lon="2.774270">
        <ele>226.939</ele>
        <time>2020-10-17T16:13:51Z</time>
      </trkpt>
      <trkpt lat="42.267415" lon="2.774216">
        <ele>226.382</ele>
        <time>2020-10-17T16:13:52Z</time>
      </trkpt>
      <trkpt lat="42.267472" lon="2.774152">
        <ele>225.891</ele>
        <time>2020-10-17T16:13:53Z</time>
      </trkpt>
      <trkpt lat="42.267587" lon="2.774021">
        <ele>225.290</ele>
        <time>2020-10-17T16:13:55Z</time>
      </trkpt>
      <trkpt lat="42.267699" lon="2.773917">
        <ele>224.649</ele>
        <time>2020-10-17T16:13:57Z</time>
      </trkpt>
      <trkpt lat="42.267752" lon="2.773873">
        <ele>224.177</ele>
        <time>2020-10-17T16:13:58Z</time>
      </trkpt>
      <trkpt lat="42.267797" lon="2.773825">
        <ele>223.857</ele>
        <time>2020-10-17T16:13:59Z</time>
      </trkpt>
      <trkpt lat="42.267859" lon="2.773692">
        <ele>223.592</ele>
        <time>2020-10-17T16:14:01Z</time>
      </trkpt>
      <trkpt lat="42.267881" lon="2.773615">
        <ele>223.261</ele>
        <time>2020-10-17T16:14:02Z</time>
      </trkpt>
      <trkpt lat="42.267917" lon="2.773467">
        <ele>222.921</ele>
        <time>2020-10-17T16:14:04Z</time>
      </trkpt>
      <trkpt lat="42.267915" lon="2.773352">
        <ele>222.513</ele>
        <time>2020-10-17T16:14:06Z</time>
      </trkpt>
      <trkpt lat="42.267890" lon="2.773211">
        <ele>222.008</ele>
        <time>2020-10-17T16:14:08Z</time>
      </trkpt>
      <trkpt lat="42.267862" lon="2.773041">
        <ele>221.121</ele>
        <time>2020-10-17T16:14:10Z</time>
      </trkpt>
      <trkpt lat="42.267853" lon="2.772953">
        <ele>220.294</ele>
        <time>2020-10-17T16:14:11Z</time>
      </trkpt>
      <trkpt lat="42.267846" lon="2.772870">
        <ele>219.323</ele>
        <time>2020-10-17T16:14:12Z</time>
      </trkpt>
      <trkpt lat="42.267837" lon="2.772789">
        <ele>218.382</ele>
        <time>2020-10-17T16:14:13Z</time>
      </trkpt>
      <trkpt lat="42.267808" lon="2.772618">
        <ele>217.011</ele>
        <time>2020-10-17T16:14:15Z</time>
      </trkpt>
      <trkpt lat="42.267792" lon="2.772529">
        <ele>215.999</ele>
        <time>2020-10-17T16:14:16Z</time>
      </trkpt>
      <trkpt lat="42.267775" lon="2.772372">
        <ele>214.679</ele>
        <time>2020-10-17T16:14:18Z</time>
      </trkpt>
      <trkpt lat="42.267799" lon="2.772239">
        <ele>213.294</ele>
        <time>2020-10-17T16:14:20Z</time>
      </trkpt>
      <trkpt lat="42.267869" lon="2.772081">
        <ele>212.192</ele>
        <time>2020-10-17T16:14:22Z</time>
      </trkpt>
      <trkpt lat="42.267906" lon="2.771998">
        <ele>211.373</ele>
        <time>2020-10-17T16:14:23Z</time>
      </trkpt>
      <trkpt lat="42.267960" lon="2.771845">
        <ele>210.720</ele>
        <time>2020-10-17T16:14:25Z</time>
      </trkpt>
      <trkpt lat="42.267998" lon="2.771707">
        <ele>210.208</ele>
        <time>2020-10-17T16:14:27Z</time>
      </trkpt>
      <trkpt lat="42.268009" lon="2.771641">
        <ele>209.764</ele>
        <time>2020-10-17T16:14:28Z</time>
      </trkpt>
      <trkpt lat="42.268007" lon="2.771531">
        <ele>209.277</ele>
        <time>2020-10-17T16:14:30Z</time>
      </trkpt>
      <trkpt lat="42.267980" lon="2.771425">
        <ele>208.616</ele>
        <time>2020-10-17T16:14:32Z</time>
      </trkpt>
      <trkpt lat="42.267937" lon="2.771313">
        <ele>208.055</ele>
        <time>2020-10-17T16:14:34Z</time>
      </trkpt>
      <trkpt lat="42.267911" lon="2.771256">
        <ele>207.614</ele>
        <time>2020-10-17T16:14:35Z</time>
      </trkpt>
      <trkpt lat="42.267855" lon="2.771178">
        <ele>207.552</ele>
        <time>2020-10-17T16:14:37Z</time>
      </trkpt>
      <trkpt lat="42.267792" lon="2.771124">
        <ele>207.472</ele>
        <time>2020-10-17T16:14:39Z</time>
      </trkpt>
      <trkpt lat="42.267720" lon="2.771070">
        <ele>207.437</ele>
        <time>2020-10-17T16:14:41Z</time>
      </trkpt>
      <trkpt lat="42.267635" lon="2.771031">
        <ele>207.428</ele>
        <time>2020-10-17T16:14:43Z</time>
      </trkpt>
      <trkpt lat="42.267586" lon="2.771017">
        <ele>207.489</ele>
        <time>2020-10-17T16:14:44Z</time>
      </trkpt>
      <trkpt lat="42.267473" lon="2.770987">
        <ele>207.417</ele>
        <time>2020-10-17T16:14:46Z</time>
      </trkpt>
      <trkpt lat="42.267404" lon="2.770967">
        <ele>207.408</ele>
        <time>2020-10-17T16:14:47Z</time>
      </trkpt>
      <trkpt lat="42.267253" lon="2.770918">
        <ele>207.497</ele>
        <time>2020-10-17T16:14:49Z</time>
      </trkpt>
      <trkpt lat="42.267180" lon="2.770891">
        <ele>207.230</ele>
        <time>2020-10-17T16:14:50Z</time>
      </trkpt>
      <trkpt lat="42.267108" lon="2.770865">
        <ele>207.149</ele>
        <time>2020-10-17T16:14:51Z</time>
      </trkpt>
      <trkpt lat="42.266971" lon="2.770818">
        <ele>207.498</ele>
        <time>2020-10-17T16:14:53Z</time>
      </trkpt>
      <trkpt lat="42.266824" lon="2.770769">
        <ele>208.147</ele>
        <time>2020-10-17T16:14:55Z</time>
      </trkpt>
      <trkpt lat="42.266749" lon="2.770741">
        <ele>209.015</ele>
        <time>2020-10-17T16:14:56Z</time>
      </trkpt>
      <trkpt lat="42.266677" lon="2.770712">
        <ele>210.385</ele>
        <time>2020-10-17T16:14:57Z</time>
      </trkpt>
      <trkpt lat="42.266615" lon="2.770674">
        <ele>211.710</ele>
        <time>2020-10-17T16:14:58Z</time>
      </trkpt>
      <trkpt lat="42.266550" lon="2.770567">
        <ele>213.583</ele>
        <time>2020-10-17T16:15:00Z</time>
      </trkpt>
      <trkpt lat="42.266544" lon="2.770493">
        <ele>215.225</ele>
        <time>2020-10-17T16:15:01Z</time>
      </trkpt>
      <trkpt lat="42.266557" lon="2.770406">
        <ele>216.817</ele>
        <time>2020-10-17T16:15:02Z</time>
      </trkpt>
      <trkpt lat="42.266621" lon="2.770223">
        <ele>218.608</ele>
        <time>2020-10-17T16:15:04Z</time>
      </trkpt>
      <trkpt lat="42.266720" lon="2.770068">
        <ele>220.343</ele>
        <time>2020-10-17T16:15:06Z</time>
      </trkpt>
      <trkpt lat="42.266839" lon="2.769957">
        <ele>221.736</ele>
        <time>2020-10-17T16:15:08Z</time>
      </trkpt>
      <trkpt lat="42.266978" lon="2.769872">
        <ele>222.955</ele>
        <time>2020-10-17T16:15:10Z</time>
      </trkpt>
      <trkpt lat="42.267047" lon="2.769829">
        <ele>223.784</ele>
        <time>2020-10-17T16:15:11Z</time>
      </trkpt>
      <trkpt lat="42.267186" lon="2.769747">
        <ele>224.793</ele>
        <time>2020-10-17T16:15:13Z</time>
      </trkpt>
      <trkpt lat="42.267258" lon="2.769713">
        <ele>225.671</ele>
        <time>2020-10-17T16:15:14Z</time>
      </trkpt>
      <trkpt lat="42.267393" lon="2.769674">
        <ele>226.671</ele>
        <time>2020-10-17T16:15:16Z</time>
      </trkpt>
      <trkpt lat="42.267453" lon="2.769660">
        <ele>227.496</ele>
        <time>2020-10-17T16:15:17Z</time>
      </trkpt>
      <trkpt lat="42.267568" lon="2.769627">
        <ele>228.083</ele>
        <time>2020-10-17T16:15:19Z</time>
      </trkpt>
      <trkpt lat="42.267713" lon="2.769608">
        <ele>228.425</ele>
        <time>2020-10-17T16:15:21Z</time>
      </trkpt>
      <trkpt lat="42.267863" lon="2.769607">
        <ele>228.817</ele>
        <time>2020-10-17T16:15:23Z</time>
      </trkpt>
      <trkpt lat="42.267987" lon="2.769615">
        <ele>229.208</ele>
        <time>2020-10-17T16:15:25Z</time>
      </trkpt>
      <trkpt lat="42.268074" lon="2.769596">
        <ele>229.773</ele>
        <time>2020-10-17T16:15:27Z</time>
      </trkpt>
      <trkpt lat="42.268154" lon="2.769571">
        <ele>230.376</ele>
        <time>2020-10-17T16:15:29Z</time>
      </trkpt>
      <trkpt lat="42.268212" lon="2.769628">
        <ele>230.975</ele>
        <time>2020-10-17T16:15:31Z</time>
      </trkpt>
      <trkpt lat="42.268206" lon="2.769747">
        <ele>231.774</ele>
        <time>2020-10-17T16:15:33Z</time>
      </trkpt>
      <trkpt lat="42.268172" lon="2.769802">
        <ele>232.553</ele>
        <time>2020-10-17T16:15:34Z</time>
      </trkpt>
      <trkpt lat="42.268112" lon="2.769848">
        <ele>233.211</ele>
        <time>2020-10-17T16:15:35Z</time>
      </trkpt>
      <trkpt lat="42.267971" lon="2.769905">
        <ele>234.151</ele>
        <time>2020-10-17T16:15:37Z</time>
      </trkpt>
      <trkpt lat="42.267854" lon="2.769958">
        <ele>235.256</ele>
        <time>2020-10-17T16:15:39Z</time>
      </trkpt>
      <trkpt lat="42.267808" lon="2.769997">
        <ele>235.955</ele>
        <time>2020-10-17T16:15:40Z</time>
      </trkpt>
      <trkpt lat="42.267774" lon="2.770126">
        <ele>236.207</ele>
        <time>2020-10-17T16:15:42Z</time>
      </trkpt>
      <trkpt lat="42.267792" lon="2.770210">
        <ele>236.517</ele>
        <time>2020-10-17T16:15:43Z</time>
      </trkpt>
      <trkpt lat="42.267892" lon="2.770344">
        <ele>236.908</ele>
        <time>2020-10-17T16:15:45Z</time>
      </trkpt>
      <trkpt lat="42.267958" lon="2.770353">
        <ele>237.460</ele>
        <time>2020-10-17T16:15:46Z</time>
      </trkpt>
      <trkpt lat="42.268028" lon="2.770307">
        <ele>237.913</ele>
        <time>2020-10-17T16:15:47Z</time>
      </trkpt>
      <trkpt lat="42.268134" lon="2.770161">
        <ele>238.842</ele>
        <time>2020-10-17T16:15:49Z</time>
      </trkpt>
      <trkpt lat="42.268215" lon="2.770026">
        <ele>239.691</ele>
        <time>2020-10-17T16:15:51Z</time>
      </trkpt>
      <trkpt lat="42.268253" lon="2.769989">
        <ele>240.470</ele>
        <time>2020-10-17T16:15:52Z</time>
      </trkpt>
      <trkpt lat="42.268323" lon="2.769987">
        <ele>241.658</ele>
        <time>2020-10-17T16:15:54Z</time>
      </trkpt>
      <trkpt lat="42.268410" lon="2.770030">
        <ele>243.268</ele>
        <time>2020-10-17T16:15:56Z</time>
      </trkpt>
      <trkpt lat="42.268453" lon="2.770069">
        <ele>244.343</ele>
        <time>2020-10-17T16:15:57Z</time>
      </trkpt>
      <trkpt lat="42.268495" lon="2.770117">
        <ele>245.375</ele>
        <time>2020-10-17T16:15:58Z</time>
      </trkpt>
      <trkpt lat="42.268540" lon="2.770181">
        <ele>246.228</ele>
        <time>2020-10-17T16:16:00Z</time>
      </trkpt>
      <trkpt lat="42.268577" lon="2.770103">
        <ele>248.220</ele>
        <time>2020-10-17T16:16:02Z</time>
      </trkpt>
      <trkpt lat="42.268632" lon="2.770051">
        <ele>250.108</ele>
        <time>2020-10-17T16:16:03Z</time>
      </trkpt>
      <trkpt lat="42.268720" lon="2.769938">
        <ele>252.322</ele>
        <time>2020-10-17T16:16:05Z</time>
      </trkpt>
      <trkpt lat="42.268821" lon="2.769812">
        <ele>254.535</ele>
        <time>2020-10-17T16:16:07Z</time>
      </trkpt>
      <trkpt lat="42.268878" lon="2.769750">
        <ele>256.234</ele>
        <time>2020-10-17T16:16:08Z</time>
      </trkpt>
      <trkpt lat="42.268996" lon="2.769638">
        <ele>257.943</ele>
        <time>2020-10-17T16:16:10Z</time>
      </trkpt>
      <trkpt lat="42.269113" lon="2.769545">
        <ele>259.852</ele>
        <time>2020-10-17T16:16:12Z</time>
      </trkpt>
      <trkpt lat="42.269216" lon="2.769478">
        <ele>261.820</ele>
        <time>2020-10-17T16:16:14Z</time>
      </trkpt>
      <trkpt lat="42.269316" lon="2.769423">
        <ele>263.980</ele>
        <time>2020-10-17T16:16:16Z</time>
      </trkpt>
      <trkpt lat="42.269360" lon="2.769394">
        <ele>265.515</ele>
        <time>2020-10-17T16:16:17Z</time>
      </trkpt>
      <trkpt lat="42.269420" lon="2.769337">
        <ele>267.138</ele>
        <time>2020-10-17T16:16:19Z</time>
      </trkpt>
      <trkpt lat="42.269473" lon="2.769250">
        <ele>268.670</ele>
        <time>2020-10-17T16:16:21Z</time>
      </trkpt>
      <trkpt lat="42.269516" lon="2.769164">
        <ele>269.817</ele>
        <time>2020-10-17T16:16:23Z</time>
      </trkpt>
      <trkpt lat="42.269547" lon="2.769093">
        <ele>270.708</ele>
        <time>2020-10-17T16:16:25Z</time>
      </trkpt>
      <trkpt lat="42.269573" lon="2.769042">
        <ele>271.358</ele>
        <time>2020-10-17T16:16:27Z</time>
      </trkpt>
      <trkpt lat="42.269604" lon="2.768995">
        <ele>271.751</ele>
        <time>2020-10-17T16:16:29Z</time>
      </trkpt>
      <trkpt lat="42.269636" lon="2.768927">
        <ele>272.040</ele>
        <time>2020-10-17T16:16:32Z</time>
      </trkpt>
      <trkpt lat="42.269671" lon="2.768866">
        <ele>272.329</ele>
        <time>2020-10-17T16:16:35Z</time>
      </trkpt>
      <trkpt lat="42.270246" lon="2.768870">
        <ele>276.218</ele>
        <time>2020-10-17T16:16:53Z</time>
      </trkpt>
      <trkpt lat="42.270311" lon="2.768879">
        <ele>278.846</ele>
        <time>2020-10-17T16:16:55Z</time>
      </trkpt>
      <trkpt lat="42.270374" lon="2.768908">
        <ele>280.796</ele>
        <time>2020-10-17T16:16:57Z</time>
      </trkpt>
      <trkpt lat="42.270428" lon="2.768933">
        <ele>282.221</ele>
        <time>2020-10-17T16:16:59Z</time>
      </trkpt>
      <trkpt lat="42.270496" lon="2.768928">
        <ele>283.528</ele>
        <time>2020-10-17T16:17:01Z</time>
      </trkpt>
      <trkpt lat="42.270565" lon="2.768923">
        <ele>284.789</ele>
        <time>2020-10-17T16:17:03Z</time>
      </trkpt>
      <trkpt lat="42.270599" lon="2.768973">
        <ele>285.917</ele>
        <time>2020-10-17T16:17:05Z</time>
      </trkpt>
      <trkpt lat="42.270546" lon="2.769050">
        <ele>287.208</ele>
        <time>2020-10-17T16:17:07Z</time>
      </trkpt>
      <trkpt lat="42.270499" lon="2.769061">
        <ele>288.387</ele>
        <time>2020-10-17T16:17:08Z</time>
      </trkpt>
      <trkpt lat="42.270418" lon="2.769061">
        <ele>289.780</ele>
        <time>2020-10-17T16:17:10Z</time>
      </trkpt>
      <trkpt lat="42.270355" lon="2.769067">
        <ele>291.159</ele>
        <time>2020-10-17T16:17:12Z</time>
      </trkpt>
      <trkpt lat="42.270300" lon="2.769081">
        <ele>292.558</ele>
        <time>2020-10-17T16:17:14Z</time>
      </trkpt>
      <trkpt lat="42.270251" lon="2.769101">
        <ele>293.987</ele>
        <time>2020-10-17T16:17:16Z</time>
      </trkpt>
      <trkpt lat="42.270200" lon="2.769124">
        <ele>295.415</ele>
        <time>2020-10-17T16:17:18Z</time>
      </trkpt>
      <trkpt lat="42.270173" lon="2.769182">
        <ele>297.315</ele>
        <time>2020-10-17T16:17:20Z</time>
      </trkpt>
      <trkpt lat="42.270221" lon="2.769225">
        <ele>299.280</ele>
        <time>2020-10-17T16:17:22Z</time>
      </trkpt>
      <trkpt lat="42.270318" lon="2.769183">
        <ele>300.822</ele>
        <time>2020-10-17T16:17:24Z</time>
      </trkpt>
      <trkpt lat="42.270372" lon="2.769146">
        <ele>301.762</ele>
        <time>2020-10-17T16:17:25Z</time>
      </trkpt>
      <trkpt lat="42.270475" lon="2.769126">
        <ele>302.308</ele>
        <time>2020-10-17T16:17:27Z</time>
      </trkpt>
      <trkpt lat="42.270519" lon="2.769140">
        <ele>302.908</ele>
        <time>2020-10-17T16:17:28Z</time>
      </trkpt>
      <trkpt lat="42.270560" lon="2.769169">
        <ele>303.797</ele>
        <time>2020-10-17T16:17:30Z</time>
      </trkpt>
      <trkpt lat="42.270606" lon="2.769201">
        <ele>304.980</ele>
        <time>2020-10-17T16:17:36Z</time>
      </trkpt>
      <trkpt lat="42.270684" lon="2.769173">
        <ele>305.749</ele>
        <time>2020-10-17T16:17:38Z</time>
      </trkpt>
      <trkpt lat="42.270742" lon="2.769147">
        <ele>306.158</ele>
        <time>2020-10-17T16:17:40Z</time>
      </trkpt>
      <trkpt lat="42.270788" lon="2.769124">
        <ele>306.497</ele>
        <time>2020-10-17T16:17:42Z</time>
      </trkpt>
      <trkpt lat="42.270856" lon="2.769105">
        <ele>306.665</ele>
        <time>2020-10-17T16:17:44Z</time>
      </trkpt>
      <trkpt lat="42.270961" lon="2.769079">
        <ele>306.525</ele>
        <time>2020-10-17T16:17:46Z</time>
      </trkpt>
      <trkpt lat="42.271078" lon="2.769046">
        <ele>306.560</ele>
        <time>2020-10-17T16:17:48Z</time>
      </trkpt>
      <trkpt lat="42.271150" lon="2.769021">
        <ele>307.085</ele>
        <time>2020-10-17T16:17:50Z</time>
      </trkpt>
      <trkpt lat="42.271214" lon="2.769032">
        <ele>307.789</ele>
        <time>2020-10-17T16:17:52Z</time>
      </trkpt>
      <trkpt lat="42.271254" lon="2.769108">
        <ele>308.717</ele>
        <time>2020-10-17T16:17:54Z</time>
      </trkpt>
      <trkpt lat="42.271241" lon="2.769218">
        <ele>309.908</ele>
        <time>2020-10-17T16:17:56Z</time>
      </trkpt>
      <trkpt lat="42.271166" lon="2.769301">
        <ele>310.853</ele>
        <time>2020-10-17T16:17:58Z</time>
      </trkpt>
      <trkpt lat="42.271110" lon="2.769337">
        <ele>311.456</ele>
        <time>2020-10-17T16:17:59Z</time>
      </trkpt>
      <trkpt lat="42.270989" lon="2.769403">
        <ele>311.825</ele>
        <time>2020-10-17T16:18:01Z</time>
      </trkpt>
      <trkpt lat="42.270926" lon="2.769439">
        <ele>312.184</ele>
        <time>2020-10-17T16:18:02Z</time>
      </trkpt>
      <trkpt lat="42.270866" lon="2.769474">
        <ele>312.323</ele>
        <time>2020-10-17T16:18:03Z</time>
      </trkpt>
      <trkpt lat="42.270807" lon="2.769505">
        <ele>312.451</ele>
        <time>2020-10-17T16:18:04Z</time>
      </trkpt>
      <trkpt lat="42.270751" lon="2.769532">
        <ele>312.561</ele>
        <time>2020-10-17T16:18:05Z</time>
      </trkpt>
      <trkpt lat="42.270643" lon="2.769578">
        <ele>312.796</ele>
        <time>2020-10-17T16:18:07Z</time>
      </trkpt>
      <trkpt lat="42.270582" lon="2.769607">
        <ele>312.954</ele>
        <time>2020-10-17T16:18:08Z</time>
      </trkpt>
      <trkpt lat="42.270518" lon="2.769636">
        <ele>313.256</ele>
        <time>2020-10-17T16:18:09Z</time>
      </trkpt>
      <trkpt lat="42.270456" lon="2.769662">
        <ele>313.411</ele>
        <time>2020-10-17T16:18:10Z</time>
      </trkpt>
      <trkpt lat="42.270400" lon="2.769686">
        <ele>313.708</ele>
        <time>2020-10-17T16:18:11Z</time>
      </trkpt>
      <trkpt lat="42.270332" lon="2.769733">
        <ele>314.250</ele>
        <time>2020-10-17T16:18:13Z</time>
      </trkpt>
      <trkpt lat="42.270280" lon="2.769801">
        <ele>314.983</ele>
        <time>2020-10-17T16:18:15Z</time>
      </trkpt>
      <trkpt lat="42.270267" lon="2.769908">
        <ele>316.312</ele>
        <time>2020-10-17T16:18:17Z</time>
      </trkpt>
      <trkpt lat="42.270281" lon="2.769971">
        <ele>317.751</ele>
        <time>2020-10-17T16:18:18Z</time>
      </trkpt>
      <trkpt lat="42.270368" lon="2.770074">
        <ele>319.530</ele>
        <time>2020-10-17T16:18:20Z</time>
      </trkpt>
      <trkpt lat="42.270481" lon="2.770087">
        <ele>321.448</ele>
        <time>2020-10-17T16:18:22Z</time>
      </trkpt>
      <trkpt lat="42.270534" lon="2.770051">
        <ele>323.068</ele>
        <time>2020-10-17T16:18:23Z</time>
      </trkpt>
      <trkpt lat="42.270634" lon="2.769954">
        <ele>324.713</ele>
        <time>2020-10-17T16:18:25Z</time>
      </trkpt>
      <trkpt lat="42.270743" lon="2.769869">
        <ele>326.573</ele>
        <time>2020-10-17T16:18:27Z</time>
      </trkpt>
      <trkpt lat="42.270866" lon="2.769824">
        <ele>328.385</ele>
        <time>2020-10-17T16:18:29Z</time>
      </trkpt>
      <trkpt lat="42.270923" lon="2.769817">
        <ele>329.713</ele>
        <time>2020-10-17T16:18:30Z</time>
      </trkpt>
      <trkpt lat="42.271007" lon="2.769836">
        <ele>331.108</ele>
        <time>2020-10-17T16:18:32Z</time>
      </trkpt>
      <trkpt lat="42.271081" lon="2.769857">
        <ele>332.582</ele>
        <time>2020-10-17T16:18:34Z</time>
      </trkpt>
      <trkpt lat="42.271129" lon="2.769861">
        <ele>333.615</ele>
        <time>2020-10-17T16:18:35Z</time>
      </trkpt>
      <trkpt lat="42.271241" lon="2.769844">
        <ele>334.754</ele>
        <time>2020-10-17T16:18:37Z</time>
      </trkpt>
      <trkpt lat="42.271301" lon="2.769823">
        <ele>335.693</ele>
        <time>2020-10-17T16:18:38Z</time>
      </trkpt>
      <trkpt lat="42.271415" lon="2.769771">
        <ele>336.742</ele>
        <time>2020-10-17T16:18:40Z</time>
      </trkpt>
      <trkpt lat="42.271470" lon="2.769741">
        <ele>337.660</ele>
        <time>2020-10-17T16:18:41Z</time>
      </trkpt>
      <trkpt lat="42.271579" lon="2.769668">
        <ele>338.670</ele>
        <time>2020-10-17T16:18:43Z</time>
      </trkpt>
      <trkpt lat="42.271682" lon="2.769593">
        <ele>339.655</ele>
        <time>2020-10-17T16:18:45Z</time>
      </trkpt>
      <trkpt lat="42.271719" lon="2.769555">
        <ele>340.628</ele>
        <time>2020-10-17T16:18:46Z</time>
      </trkpt>
      <trkpt lat="42.271764" lon="2.769489">
        <ele>342.089</ele>
        <time>2020-10-17T16:18:48Z</time>
      </trkpt>
      <trkpt lat="42.271809" lon="2.769415">
        <ele>343.417</ele>
        <time>2020-10-17T16:18:50Z</time>
      </trkpt>
      <trkpt lat="42.271866" lon="2.769322">
        <ele>344.808</ele>
        <time>2020-10-17T16:18:52Z</time>
      </trkpt>
      <trkpt lat="42.271918" lon="2.769216">
        <ele>346.047</ele>
        <time>2020-10-17T16:18:54Z</time>
      </trkpt>
      <trkpt lat="42.271948" lon="2.769148">
        <ele>347.090</ele>
        <time>2020-10-17T16:18:55Z</time>
      </trkpt>
      <trkpt lat="42.272031" lon="2.769026">
        <ele>348.259</ele>
        <time>2020-10-17T16:18:57Z</time>
      </trkpt>
      <trkpt lat="42.272130" lon="2.768944">
        <ele>349.648</ele>
        <time>2020-10-17T16:18:59Z</time>
      </trkpt>
      <trkpt lat="42.272175" lon="2.768909">
        <ele>350.827</ele>
        <time>2020-10-17T16:19:00Z</time>
      </trkpt>
      <trkpt lat="42.272246" lon="2.768855">
        <ele>352.355</ele>
        <time>2020-10-17T16:19:02Z</time>
      </trkpt>
      <trkpt lat="42.272304" lon="2.768792">
        <ele>353.955</ele>
        <time>2020-10-17T16:19:04Z</time>
      </trkpt>
      <trkpt lat="42.272365" lon="2.768696">
        <ele>355.370</ele>
        <time>2020-10-17T16:19:06Z</time>
      </trkpt>
      <trkpt lat="42.272442" lon="2.768545">
        <ele>356.688</ele>
        <time>2020-10-17T16:19:08Z</time>
      </trkpt>
      <trkpt lat="42.272504" lon="2.768383">
        <ele>357.824</ele>
        <time>2020-10-17T16:19:10Z</time>
      </trkpt>
      <trkpt lat="42.272525" lon="2.768294">
        <ele>358.626</ele>
        <time>2020-10-17T16:19:11Z</time>
      </trkpt>
      <trkpt lat="42.272563" lon="2.768114">
        <ele>359.208</ele>
        <time>2020-10-17T16:19:13Z</time>
      </trkpt>
      <trkpt lat="42.272590" lon="2.767956">
        <ele>359.583</ele>
        <time>2020-10-17T16:19:15Z</time>
      </trkpt>
      <trkpt lat="42.272595" lon="2.767893">
        <ele>359.676</ele>
        <time>2020-10-17T16:19:16Z</time>
      </trkpt>
      <trkpt lat="42.272612" lon="2.767778">
        <ele>359.575</ele>
        <time>2020-10-17T16:19:18Z</time>
      </trkpt>
      <trkpt lat="42.272680" lon="2.767621">
        <ele>359.234</ele>
        <time>2020-10-17T16:19:20Z</time>
      </trkpt>
      <trkpt lat="42.272777" lon="2.767489">
        <ele>359.283</ele>
        <time>2020-10-17T16:19:22Z</time>
      </trkpt>
      <trkpt lat="42.272824" lon="2.767451">
        <ele>359.291</ele>
        <time>2020-10-17T16:19:23Z</time>
      </trkpt>
      <trkpt lat="42.272894" lon="2.767408">
        <ele>359.321</ele>
        <time>2020-10-17T16:19:25Z</time>
      </trkpt>
      <trkpt lat="42.272947" lon="2.767354">
        <ele>359.646</ele>
        <time>2020-10-17T16:19:27Z</time>
      </trkpt>
      <trkpt lat="42.273003" lon="2.767269">
        <ele>359.925</ele>
        <time>2020-10-17T16:19:29Z</time>
      </trkpt>
      <trkpt lat="42.273036" lon="2.767218">
        <ele>360.126</ele>
        <time>2020-10-17T16:19:30Z</time>
      </trkpt>
      <trkpt lat="42.273114" lon="2.767122">
        <ele>360.108</ele>
        <time>2020-10-17T16:19:32Z</time>
      </trkpt>
      <trkpt lat="42.273171" lon="2.767037">
        <ele>360.108</ele>
        <time>2020-10-17T16:19:34Z</time>
      </trkpt>
      <trkpt lat="42.273192" lon="2.766977">
        <ele>360.047</ele>
        <time>2020-10-17T16:19:35Z</time>
      </trkpt>
      <trkpt lat="42.273193" lon="2.766838">
        <ele>360.130</ele>
        <time>2020-10-17T16:19:37Z</time>
      </trkpt>
      <trkpt lat="42.273175" lon="2.766764">
        <ele>360.319</ele>
        <time>2020-10-17T16:19:38Z</time>
      </trkpt>
      <trkpt lat="42.273146" lon="2.766632">
        <ele>360.268</ele>
        <time>2020-10-17T16:19:40Z</time>
      </trkpt>
      <trkpt lat="42.273151" lon="2.766529">
        <ele>359.857</ele>
        <time>2020-10-17T16:19:42Z</time>
      </trkpt>
      <trkpt lat="42.273178" lon="2.766450">
        <ele>359.295</ele>
        <time>2020-10-17T16:19:44Z</time>
      </trkpt>
      <trkpt lat="42.273193" lon="2.766353">
        <ele>358.765</ele>
        <time>2020-10-17T16:19:46Z</time>
      </trkpt>
      <trkpt lat="42.273173" lon="2.766230">
        <ele>358.490</ele>
        <time>2020-10-17T16:19:48Z</time>
      </trkpt>
      <trkpt lat="42.273145" lon="2.766161">
        <ele>358.238</ele>
        <time>2020-10-17T16:19:49Z</time>
      </trkpt>
      <trkpt lat="42.273064" lon="2.766061">
        <ele>357.870</ele>
        <time>2020-10-17T16:19:51Z</time>
      </trkpt>
      <trkpt lat="42.272969" lon="2.766006">
        <ele>357.417</ele>
        <time>2020-10-17T16:19:53Z</time>
      </trkpt>
      <trkpt lat="42.272915" lon="2.765935">
        <ele>357.008</ele>
        <time>2020-10-17T16:19:55Z</time>
      </trkpt>
      <trkpt lat="42.272895" lon="2.765805">
        <ele>357.078</ele>
        <time>2020-10-17T16:19:57Z</time>
      </trkpt>
      <trkpt lat="42.272894" lon="2.765647">
        <ele>357.131</ele>
        <time>2020-10-17T16:19:59Z</time>
      </trkpt>
      <trkpt lat="42.272905" lon="2.765570">
        <ele>357.280</ele>
        <time>2020-10-17T16:20:00Z</time>
      </trkpt>
      <trkpt lat="42.272948" lon="2.765428">
        <ele>357.079</ele>
        <time>2020-10-17T16:20:02Z</time>
      </trkpt>
      <trkpt lat="42.272975" lon="2.765358">
        <ele>356.798</ele>
        <time>2020-10-17T16:20:03Z</time>
      </trkpt>
      <trkpt lat="42.273018" lon="2.765262">
        <ele>356.446</ele>
        <time>2020-10-17T16:20:05Z</time>
      </trkpt>
      <trkpt lat="42.273041" lon="2.765197">
        <ele>355.836</ele>
        <time>2020-10-17T16:20:07Z</time>
      </trkpt>
      <trkpt lat="42.273058" lon="2.765109">
        <ele>355.511</ele>
        <time>2020-10-17T16:20:09Z</time>
      </trkpt>
      <trkpt lat="42.273076" lon="2.765003">
        <ele>355.652</ele>
        <time>2020-10-17T16:20:11Z</time>
      </trkpt>
      <trkpt lat="42.273103" lon="2.764904">
        <ele>356.053</ele>
        <time>2020-10-17T16:20:13Z</time>
      </trkpt>
      <trkpt lat="42.273128" lon="2.764817">
        <ele>356.608</ele>
        <time>2020-10-17T16:20:15Z</time>
      </trkpt>
      <trkpt lat="42.273131" lon="2.764727">
        <ele>357.108</ele>
        <time>2020-10-17T16:20:17Z</time>
      </trkpt>
      <trkpt lat="42.273098" lon="2.764615">
        <ele>357.470</ele>
        <time>2020-10-17T16:20:19Z</time>
      </trkpt>
      <trkpt lat="42.273048" lon="2.764471">
        <ele>357.663</ele>
        <time>2020-10-17T16:20:21Z</time>
      </trkpt>
      <trkpt lat="42.273026" lon="2.764417">
        <ele>357.632</ele>
        <time>2020-10-17T16:20:22Z</time>
      </trkpt>
      <trkpt lat="42.273002" lon="2.764361">
        <ele>357.671</ele>
        <time>2020-10-17T16:20:23Z</time>
      </trkpt>
      <trkpt lat="42.272968" lon="2.764212">
        <ele>357.630</ele>
        <time>2020-10-17T16:20:25Z</time>
      </trkpt>
      <trkpt lat="42.272975" lon="2.764151">
        <ele>357.798</ele>
        <time>2020-10-17T16:20:26Z</time>
      </trkpt>
      <trkpt lat="42.272981" lon="2.764085">
        <ele>357.828</ele>
        <time>2020-10-17T16:20:27Z</time>
      </trkpt>
      <trkpt lat="42.272970" lon="2.763939">
        <ele>357.873</ele>
        <time>2020-10-17T16:20:29Z</time>
      </trkpt>
      <trkpt lat="42.272942" lon="2.763798">
        <ele>357.992</ele>
        <time>2020-10-17T16:20:31Z</time>
      </trkpt>
      <trkpt lat="42.272918" lon="2.763694">
        <ele>358.273</ele>
        <time>2020-10-17T16:20:33Z</time>
      </trkpt>
      <trkpt lat="42.272925" lon="2.763586">
        <ele>358.620</ele>
        <time>2020-10-17T16:20:35Z</time>
      </trkpt>
      <trkpt lat="42.272974" lon="2.763470">
        <ele>359.008</ele>
        <time>2020-10-17T16:20:37Z</time>
      </trkpt>
      <trkpt lat="42.273013" lon="2.763421">
        <ele>359.484</ele>
        <time>2020-10-17T16:20:38Z</time>
      </trkpt>
      <trkpt lat="42.273091" lon="2.763348">
        <ele>359.997</ele>
        <time>2020-10-17T16:20:40Z</time>
      </trkpt>
      <trkpt lat="42.273175" lon="2.763253">
        <ele>360.526</ele>
        <time>2020-10-17T16:20:42Z</time>
      </trkpt>
      <trkpt lat="42.273220" lon="2.763206">
        <ele>361.155</ele>
        <time>2020-10-17T16:20:43Z</time>
      </trkpt>
      <trkpt lat="42.273271" lon="2.763162">
        <ele>361.694</ele>
        <time>2020-10-17T16:20:44Z</time>
      </trkpt>
      <trkpt lat="42.273319" lon="2.763119">
        <ele>362.162</ele>
        <time>2020-10-17T16:20:45Z</time>
      </trkpt>
      <trkpt lat="42.273402" lon="2.763028">
        <ele>362.522</ele>
        <time>2020-10-17T16:20:47Z</time>
      </trkpt>
      <trkpt lat="42.273473" lon="2.762928">
        <ele>363.017</ele>
        <time>2020-10-17T16:20:49Z</time>
      </trkpt>
      <trkpt lat="42.273540" lon="2.762819">
        <ele>363.452</ele>
        <time>2020-10-17T16:20:51Z</time>
      </trkpt>
      <trkpt lat="42.273607" lon="2.762708">
        <ele>363.753</ele>
        <time>2020-10-17T16:20:53Z</time>
      </trkpt>
      <trkpt lat="42.273687" lon="2.762622">
        <ele>364.208</ele>
        <time>2020-10-17T16:20:55Z</time>
      </trkpt>
      <trkpt lat="42.273783" lon="2.762549">
        <ele>365.008</ele>
        <time>2020-10-17T16:20:57Z</time>
      </trkpt>
      <trkpt lat="42.273839" lon="2.762500">
        <ele>365.780</ele>
        <time>2020-10-17T16:20:58Z</time>
      </trkpt>
      <trkpt lat="42.273960" lon="2.762378">
        <ele>366.473</ele>
        <time>2020-10-17T16:21:00Z</time>
      </trkpt>
      <trkpt lat="42.274021" lon="2.762316">
        <ele>367.042</ele>
        <time>2020-10-17T16:21:01Z</time>
      </trkpt>
      <trkpt lat="42.274128" lon="2.762202">
        <ele>367.741</ele>
        <time>2020-10-17T16:21:03Z</time>
      </trkpt>
      <trkpt lat="42.274177" lon="2.762151">
        <ele>368.320</ele>
        <time>2020-10-17T16:21:04Z</time>
      </trkpt>
      <trkpt lat="42.274274" lon="2.762057">
        <ele>369.038</ele>
        <time>2020-10-17T16:21:06Z</time>
      </trkpt>
      <trkpt lat="42.274371" lon="2.761969">
        <ele>369.878</ele>
        <time>2020-10-17T16:21:08Z</time>
      </trkpt>
      <trkpt lat="42.274423" lon="2.761925">
        <ele>370.693</ele>
        <time>2020-10-17T16:21:09Z</time>
      </trkpt>
      <trkpt lat="42.274522" lon="2.761839">
        <ele>371.668</ele>
        <time>2020-10-17T16:21:11Z</time>
      </trkpt>
      <trkpt lat="42.274567" lon="2.761794">
        <ele>372.542</ele>
        <time>2020-10-17T16:21:12Z</time>
      </trkpt>
      <trkpt lat="42.274608" lon="2.761742">
        <ele>373.326</ele>
        <time>2020-10-17T16:21:13Z</time>
      </trkpt>
      <trkpt lat="42.274682" lon="2.761618">
        <ele>374.508</ele>
        <time>2020-10-17T16:21:15Z</time>
      </trkpt>
      <trkpt lat="42.274717" lon="2.761549">
        <ele>375.341</ele>
        <time>2020-10-17T16:21:16Z</time>
      </trkpt>
      <trkpt lat="42.274779" lon="2.761405">
        <ele>376.054</ele>
        <time>2020-10-17T16:21:18Z</time>
      </trkpt>
      <trkpt lat="42.274834" lon="2.761283">
        <ele>376.623</ele>
        <time>2020-10-17T16:21:20Z</time>
      </trkpt>
      <trkpt lat="42.274895" lon="2.761215">
        <ele>377.362</ele>
        <time>2020-10-17T16:21:22Z</time>
      </trkpt>
      <trkpt lat="42.274933" lon="2.761172">
        <ele>377.911</ele>
        <time>2020-10-17T16:21:23Z</time>
      </trkpt>
      <trkpt lat="42.274977" lon="2.761118">
        <ele>378.539</ele>
        <time>2020-10-17T16:21:24Z</time>
      </trkpt>
      <trkpt lat="42.275090" lon="2.760974">
        <ele>379.219</ele>
        <time>2020-10-17T16:21:26Z</time>
      </trkpt>
      <trkpt lat="42.275153" lon="2.760902">
        <ele>379.774</ele>
        <time>2020-10-17T16:21:27Z</time>
      </trkpt>
      <trkpt lat="42.275278" lon="2.760781">
        <ele>380.456</ele>
        <time>2020-10-17T16:21:29Z</time>
      </trkpt>
      <trkpt lat="42.275331" lon="2.760720">
        <ele>381.059</ele>
        <time>2020-10-17T16:21:30Z</time>
      </trkpt>
      <trkpt lat="42.275378" lon="2.760658">
        <ele>381.514</ele>
        <time>2020-10-17T16:21:31Z</time>
      </trkpt>
      <trkpt lat="42.275422" lon="2.760604">
        <ele>382.008</ele>
        <time>2020-10-17T16:21:32Z</time>
      </trkpt>
      <trkpt lat="42.275509" lon="2.760529">
        <ele>382.590</ele>
        <time>2020-10-17T16:21:34Z</time>
      </trkpt>
      <trkpt lat="42.275554" lon="2.760500">
        <ele>383.033</ele>
        <time>2020-10-17T16:21:35Z</time>
      </trkpt>
      <trkpt lat="42.275599" lon="2.760474">
        <ele>383.552</ele>
        <time>2020-10-17T16:21:36Z</time>
      </trkpt>
      <trkpt lat="42.275682" lon="2.760417">
        <ele>384.161</ele>
        <time>2020-10-17T16:21:38Z</time>
      </trkpt>
      <trkpt lat="42.275747" lon="2.760352">
        <ele>384.690</ele>
        <time>2020-10-17T16:21:40Z</time>
      </trkpt>
      <trkpt lat="42.275826" lon="2.760301">
        <ele>384.858</ele>
        <time>2020-10-17T16:21:42Z</time>
      </trkpt>
      <trkpt lat="42.275943" lon="2.760247">
        <ele>384.818</ele>
        <time>2020-10-17T16:21:44Z</time>
      </trkpt>
      <trkpt lat="42.276048" lon="2.760170">
        <ele>385.063</ele>
        <time>2020-10-17T16:21:46Z</time>
      </trkpt>
      <trkpt lat="42.276125" lon="2.760077">
        <ele>385.495</ele>
        <time>2020-10-17T16:21:48Z</time>
      </trkpt>
      <trkpt lat="42.276190" lon="2.759967">
        <ele>385.849</ele>
        <time>2020-10-17T16:21:50Z</time>
      </trkpt>
      <trkpt lat="42.276222" lon="2.759903">
        <ele>386.123</ele>
        <time>2020-10-17T16:21:51Z</time>
      </trkpt>
      <trkpt lat="42.276278" lon="2.759763">
        <ele>386.508</ele>
        <time>2020-10-17T16:21:53Z</time>
      </trkpt>
      <trkpt lat="42.276304" lon="2.759692">
        <ele>387.034</ele>
        <time>2020-10-17T16:21:54Z</time>
      </trkpt>
      <trkpt lat="42.276330" lon="2.759626">
        <ele>387.597</ele>
        <time>2020-10-17T16:21:55Z</time>
      </trkpt>
      <trkpt lat="42.276355" lon="2.759562">
        <ele>387.926</ele>
        <time>2020-10-17T16:21:56Z</time>
      </trkpt>
      <trkpt lat="42.276406" lon="2.759431">
        <ele>388.565</ele>
        <time>2020-10-17T16:21:58Z</time>
      </trkpt>
      <trkpt lat="42.276466" lon="2.759285">
        <ele>389.174</ele>
        <time>2020-10-17T16:22:00Z</time>
      </trkpt>
      <trkpt lat="42.276502" lon="2.759203">
        <ele>389.652</ele>
        <time>2020-10-17T16:22:01Z</time>
      </trkpt>
      <trkpt lat="42.276580" lon="2.759031">
        <ele>390.192</ele>
        <time>2020-10-17T16:22:03Z</time>
      </trkpt>
      <trkpt lat="42.276660" lon="2.758869">
        <ele>390.437</ele>
        <time>2020-10-17T16:22:05Z</time>
      </trkpt>
      <trkpt lat="42.276697" lon="2.758784">
        <ele>390.574</ele>
        <time>2020-10-17T16:22:06Z</time>
      </trkpt>
      <trkpt lat="42.276730" lon="2.758696">
        <ele>390.556</ele>
        <time>2020-10-17T16:22:07Z</time>
      </trkpt>
      <trkpt lat="42.276783" lon="2.758526">
        <ele>390.521</ele>
        <time>2020-10-17T16:22:09Z</time>
      </trkpt>
      <trkpt lat="42.276806" lon="2.758446">
        <ele>390.508</ele>
        <time>2020-10-17T16:22:10Z</time>
      </trkpt>
      <trkpt lat="42.276828" lon="2.758366">
        <ele>390.452</ele>
        <time>2020-10-17T16:22:11Z</time>
      </trkpt>
      <trkpt lat="42.276872" lon="2.758213">
        <ele>390.475</ele>
        <time>2020-10-17T16:22:13Z</time>
      </trkpt>
      <trkpt lat="42.276914" lon="2.758048">
        <ele>390.594</ele>
        <time>2020-10-17T16:22:15Z</time>
      </trkpt>
      <trkpt lat="42.276935" lon="2.757955">
        <ele>390.693</ele>
        <time>2020-10-17T16:22:16Z</time>
      </trkpt>
      <trkpt lat="42.276979" lon="2.757746">
        <ele>390.732</ele>
        <time>2020-10-17T16:22:18Z</time>
      </trkpt>
      <trkpt lat="42.276999" lon="2.757640">
        <ele>390.740</ele>
        <time>2020-10-17T16:22:19Z</time>
      </trkpt>
      <trkpt lat="42.277031" lon="2.757462">
        <ele>390.850</ele>
        <time>2020-10-17T16:22:21Z</time>
      </trkpt>
      <trkpt lat="42.277060" lon="2.757340">
        <ele>391.185</ele>
        <time>2020-10-17T16:22:23Z</time>
      </trkpt>
      <trkpt lat="42.277077" lon="2.757282">
        <ele>391.349</ele>
        <time>2020-10-17T16:22:24Z</time>
      </trkpt>
      <trkpt lat="42.277130" lon="2.757147">
        <ele>391.802</ele>
        <time>2020-10-17T16:22:26Z</time>
      </trkpt>
      <trkpt lat="42.277169" lon="2.757010">
        <ele>392.522</ele>
        <time>2020-10-17T16:22:28Z</time>
      </trkpt>
      <trkpt lat="42.277175" lon="2.756908">
        <ele>393.308</ele>
        <time>2020-10-17T16:22:30Z</time>
      </trkpt>
      <trkpt lat="42.277182" lon="2.756821">
        <ele>394.359</ele>
        <time>2020-10-17T16:22:32Z</time>
      </trkpt>
      <trkpt lat="42.277212" lon="2.756728">
        <ele>395.852</ele>
        <time>2020-10-17T16:22:34Z</time>
      </trkpt>
      <trkpt lat="42.277235" lon="2.756611">
        <ele>397.371</ele>
        <time>2020-10-17T16:22:36Z</time>
      </trkpt>
      <trkpt lat="42.277218" lon="2.756486">
        <ele>398.650</ele>
        <time>2020-10-17T16:22:38Z</time>
      </trkpt>
      <trkpt lat="42.277199" lon="2.756389">
        <ele>399.529</ele>
        <time>2020-10-17T16:22:40Z</time>
      </trkpt>
      <trkpt lat="42.277208" lon="2.756288">
        <ele>400.117</ele>
        <time>2020-10-17T16:22:42Z</time>
      </trkpt>
      <trkpt lat="42.277252" lon="2.756197">
        <ele>400.567</ele>
        <time>2020-10-17T16:22:44Z</time>
      </trkpt>
      <trkpt lat="42.277284" lon="2.756153">
        <ele>400.732</ele>
        <time>2020-10-17T16:22:45Z</time>
      </trkpt>
      <trkpt lat="42.277335" lon="2.756078">
        <ele>400.942</ele>
        <time>2020-10-17T16:22:47Z</time>
      </trkpt>
      <trkpt lat="42.277386" lon="2.755995">
        <ele>401.022</ele>
        <time>2020-10-17T16:22:49Z</time>
      </trkpt>
      <trkpt lat="42.277440" lon="2.755907">
        <ele>401.114</ele>
        <time>2020-10-17T16:22:51Z</time>
      </trkpt>
      <trkpt lat="42.277494" lon="2.755831">
        <ele>401.608</ele>
        <time>2020-10-17T16:22:53Z</time>
      </trkpt>
      <trkpt lat="42.277545" lon="2.755760">
        <ele>402.219</ele>
        <time>2020-10-17T16:22:55Z</time>
      </trkpt>
      <trkpt lat="42.277598" lon="2.755674">
        <ele>403.182</ele>
        <time>2020-10-17T16:22:57Z</time>
      </trkpt>
      <trkpt lat="42.277641" lon="2.755582">
        <ele>404.461</ele>
        <time>2020-10-17T16:22:59Z</time>
      </trkpt>
      <trkpt lat="42.277681" lon="2.755501">
        <ele>406.070</ele>
        <time>2020-10-17T16:23:01Z</time>
      </trkpt>
      <trkpt lat="42.277722" lon="2.755438">
        <ele>407.729</ele>
        <time>2020-10-17T16:23:03Z</time>
      </trkpt>
      <trkpt lat="42.277767" lon="2.755382">
        <ele>409.027</ele>
        <time>2020-10-17T16:23:05Z</time>
      </trkpt>
      <trkpt lat="42.277805" lon="2.755348">
        <ele>409.967</ele>
        <time>2020-10-17T16:23:06Z</time>
      </trkpt>
      <trkpt lat="42.277854" lon="2.755313">
        <ele>410.952</ele>
        <time>2020-10-17T16:23:07Z</time>
      </trkpt>
      <trkpt lat="42.278128" lon="2.754984">
        <ele>412.816</ele>
        <time>2020-10-17T16:23:15Z</time>
      </trkpt>
      <trkpt lat="42.278210" lon="2.754907">
        <ele>414.276</ele>
        <time>2020-10-17T16:23:17Z</time>
      </trkpt>
      <trkpt lat="42.278274" lon="2.754866">
        <ele>415.213</ele>
        <time>2020-10-17T16:23:19Z</time>
      </trkpt>
      <trkpt lat="42.278346" lon="2.754831">
        <ele>415.908</ele>
        <time>2020-10-17T16:23:21Z</time>
      </trkpt>
      <trkpt lat="42.278409" lon="2.754790">
        <ele>416.536</ele>
        <time>2020-10-17T16:23:23Z</time>
      </trkpt>
      <trkpt lat="42.278464" lon="2.754736">
        <ele>417.139</ele>
        <time>2020-10-17T16:23:25Z</time>
      </trkpt>
      <trkpt lat="42.278523" lon="2.754679">
        <ele>417.728</ele>
        <time>2020-10-17T16:23:27Z</time>
      </trkpt>
      <trkpt lat="42.278560" lon="2.754644">
        <ele>418.277</ele>
        <time>2020-10-17T16:23:28Z</time>
      </trkpt>
      <trkpt lat="42.278599" lon="2.754603">
        <ele>418.716</ele>
        <time>2020-10-17T16:23:29Z</time>
      </trkpt>
      <trkpt lat="42.278677" lon="2.754520">
        <ele>419.024</ele>
        <time>2020-10-17T16:23:31Z</time>
      </trkpt>
      <trkpt lat="42.278745" lon="2.754459">
        <ele>419.684</ele>
        <time>2020-10-17T16:23:33Z</time>
      </trkpt>
      <trkpt lat="42.278815" lon="2.754404">
        <ele>420.319</ele>
        <time>2020-10-17T16:23:35Z</time>
      </trkpt>
      <trkpt lat="42.278875" lon="2.754350">
        <ele>421.085</ele>
        <time>2020-10-17T16:23:37Z</time>
      </trkpt>
      <trkpt lat="42.278924" lon="2.754295">
        <ele>421.789</ele>
        <time>2020-10-17T16:23:39Z</time>
      </trkpt>
      <trkpt lat="42.278957" lon="2.754248">
        <ele>422.317</ele>
        <time>2020-10-17T16:23:41Z</time>
      </trkpt>
      <trkpt lat="42.278988" lon="2.754198">
        <ele>422.908</ele>
        <time>2020-10-17T16:23:44Z</time>
      </trkpt>
      <trkpt lat="42.279018" lon="2.754150">
        <ele>423.583</ele>
        <time>2020-10-17T16:23:46Z</time>
      </trkpt>
      <trkpt lat="42.279049" lon="2.754069">
        <ele>424.316</ele>
        <time>2020-10-17T16:23:48Z</time>
      </trkpt>
      <trkpt lat="42.279070" lon="2.753987">
        <ele>425.095</ele>
        <time>2020-10-17T16:23:50Z</time>
      </trkpt>
      <trkpt lat="42.279081" lon="2.753915">
        <ele>425.584</ele>
        <time>2020-10-17T16:23:52Z</time>
      </trkpt>
      <trkpt lat="42.279094" lon="2.753847">
        <ele>426.073</ele>
        <time>2020-10-17T16:23:54Z</time>
      </trkpt>
      <trkpt lat="42.279102" lon="2.753677">
        <ele>426.661</ele>
        <time>2020-10-17T16:23:57Z</time>
      </trkpt>
      <trkpt lat="42.279084" lon="2.753605">
        <ele>427.271</ele>
        <time>2020-10-17T16:23:59Z</time>
      </trkpt>
      <trkpt lat="42.279071" lon="2.753524">
        <ele>427.616</ele>
        <time>2020-10-17T16:24:01Z</time>
      </trkpt>
      <trkpt lat="42.279067" lon="2.753410">
        <ele>428.023</ele>
        <time>2020-10-17T16:24:02Z</time>
      </trkpt>
      <trkpt lat="42.279075" lon="2.753348">
        <ele>428.283</ele>
        <time>2020-10-17T16:24:04Z</time>
      </trkpt>
      <trkpt lat="42.279109" lon="2.753271">
        <ele>428.511</ele>
        <time>2020-10-17T16:24:07Z</time>
      </trkpt>
      <trkpt lat="42.279171" lon="2.753234">
        <ele>428.908</ele>
        <time>2020-10-17T16:24:09Z</time>
      </trkpt>
      <trkpt lat="42.279241" lon="2.753216">
        <ele>429.457</ele>
        <time>2020-10-17T16:24:11Z</time>
      </trkpt>
      <trkpt lat="42.279316" lon="2.753201">
        <ele>430.050</ele>
        <time>2020-10-17T16:24:13Z</time>
      </trkpt>
      <trkpt lat="42.279387" lon="2.753186">
        <ele>430.739</ele>
        <time>2020-10-17T16:24:15Z</time>
      </trkpt>
      <trkpt lat="42.279460" lon="2.753176">
        <ele>431.558</ele>
        <time>2020-10-17T16:24:17Z</time>
      </trkpt>
      <trkpt lat="42.279557" lon="2.753161">
        <ele>432.537</ele>
        <time>2020-10-17T16:24:19Z</time>
      </trkpt>
      <trkpt lat="42.279636" lon="2.753151">
        <ele>433.645</ele>
        <time>2020-10-17T16:24:21Z</time>
      </trkpt>
      <trkpt lat="42.279713" lon="2.753142">
        <ele>434.815</ele>
        <time>2020-10-17T16:24:23Z</time>
      </trkpt>
      <trkpt lat="42.279759" lon="2.753138">
        <ele>435.780</ele>
        <time>2020-10-17T16:24:24Z</time>
      </trkpt>
      <trkpt lat="42.279867" lon="2.753142">
        <ele>436.688</ele>
        <time>2020-10-17T16:24:26Z</time>
      </trkpt>
      <trkpt lat="42.279978" lon="2.753155">
        <ele>437.724</ele>
        <time>2020-10-17T16:24:28Z</time>
      </trkpt>
      <trkpt lat="42.280089" lon="2.753159">
        <ele>439.026</ele>
        <time>2020-10-17T16:24:30Z</time>
      </trkpt>
      <trkpt lat="42.280193" lon="2.753153">
        <ele>440.408</ele>
        <time>2020-10-17T16:24:32Z</time>
      </trkpt>
      <trkpt lat="42.280281" lon="2.753159">
        <ele>441.653</ele>
        <time>2020-10-17T16:24:34Z</time>
      </trkpt>
      <trkpt lat="42.280353" lon="2.753177">
        <ele>442.526</ele>
        <time>2020-10-17T16:24:36Z</time>
      </trkpt>
      <trkpt lat="42.280404" lon="2.753163">
        <ele>443.695</ele>
        <time>2020-10-17T16:24:38Z</time>
      </trkpt>
      <trkpt lat="42.280454" lon="2.753123">
        <ele>444.854</ele>
        <time>2020-10-17T16:24:40Z</time>
      </trkpt>
      <trkpt lat="42.280502" lon="2.753062">
        <ele>445.753</ele>
        <time>2020-10-17T16:24:42Z</time>
      </trkpt>
      <trkpt lat="42.280549" lon="2.753028">
        <ele>446.381</ele>
        <time>2020-10-17T16:24:43Z</time>
      </trkpt>
      <trkpt lat="42.280639" lon="2.753019">
        <ele>446.971</ele>
        <time>2020-10-17T16:24:45Z</time>
      </trkpt>
      <trkpt lat="42.280713" lon="2.753022">
        <ele>447.796</ele>
        <time>2020-10-17T16:24:46Z</time>
      </trkpt>
      <trkpt lat="42.280789" lon="2.753032">
        <ele>448.322</ele>
        <time>2020-10-17T16:24:48Z</time>
      </trkpt>
      <trkpt lat="42.280881" lon="2.753088">
        <ele>449.562</ele>
        <time>2020-10-17T16:24:49Z</time>
      </trkpt>
      <trkpt lat="42.280990" lon="2.753160">
        <ele>450.808</ele>
        <time>2020-10-17T16:24:51Z</time>
      </trkpt>
      <trkpt lat="42.281046" lon="2.753186">
        <ele>451.708</ele>
        <time>2020-10-17T16:24:52Z</time>
      </trkpt>
      <trkpt lat="42.281102" lon="2.753201">
        <ele>452.467</ele>
        <time>2020-10-17T16:24:53Z</time>
      </trkpt>
      <trkpt lat="42.281204" lon="2.753204">
        <ele>452.960</ele>
        <time>2020-10-17T16:24:55Z</time>
      </trkpt>
      <trkpt lat="42.281291" lon="2.753200">
        <ele>453.579</ele>
        <time>2020-10-17T16:24:57Z</time>
      </trkpt>
      <trkpt lat="42.281335" lon="2.753239">
        <ele>454.238</ele>
        <time>2020-10-17T16:24:59Z</time>
      </trkpt>
      <trkpt lat="42.281387" lon="2.753231">
        <ele>454.827</ele>
        <time>2020-10-17T16:25:01Z</time>
      </trkpt>
      <trkpt lat="42.281437" lon="2.753220">
        <ele>455.415</ele>
        <time>2020-10-17T16:25:02Z</time>
      </trkpt>
      <trkpt lat="42.281487" lon="2.753210">
        <ele>456.075</ele>
        <time>2020-10-17T16:25:03Z</time>
      </trkpt>
      <trkpt lat="42.281565" lon="2.753199">
        <ele>457.010</ele>
        <time>2020-10-17T16:25:04Z</time>
      </trkpt>
      <trkpt lat="42.281628" lon="2.753179">
        <ele>457.998</ele>
        <time>2020-10-17T16:25:06Z</time>
      </trkpt>
      <trkpt lat="42.281676" lon="2.753158">
        <ele>458.615</ele>
        <time>2020-10-17T16:25:07Z</time>
      </trkpt>
      <trkpt lat="42.281727" lon="2.753132">
        <ele>459.326</ele>
        <time>2020-10-17T16:25:08Z</time>
      </trkpt>
      <trkpt lat="42.281808" lon="2.753091">
        <ele>460.008</ele>
        <time>2020-10-17T16:25:09Z</time>
      </trkpt>
      <trkpt lat="42.281855" lon="2.753060">
        <ele>461.014</ele>
        <time>2020-10-17T16:25:10Z</time>
      </trkpt>
      <trkpt lat="42.281904" lon="2.753032">
        <ele>461.857</ele>
        <time>2020-10-17T16:25:11Z</time>
      </trkpt>
      <trkpt lat="42.282012" lon="2.752960">
        <ele>462.716</ele>
        <time>2020-10-17T16:25:13Z</time>
      </trkpt>
      <trkpt lat="42.282073" lon="2.752918">
        <ele>463.315</ele>
        <time>2020-10-17T16:25:14Z</time>
      </trkpt>
      <trkpt lat="42.282201" lon="2.752823">
        <ele>463.984</ele>
        <time>2020-10-17T16:25:16Z</time>
      </trkpt>
      <trkpt lat="42.282328" lon="2.752732">
        <ele>464.842</ele>
        <time>2020-10-17T16:25:18Z</time>
      </trkpt>
      <trkpt lat="42.282450" lon="2.752657">
        <ele>465.952</ele>
        <time>2020-10-17T16:25:20Z</time>
      </trkpt>
      <trkpt lat="42.282506" lon="2.752625">
        <ele>466.767</ele>
        <time>2020-10-17T16:25:21Z</time>
      </trkpt>
      <trkpt lat="42.282560" lon="2.752593">
        <ele>467.343</ele>
        <time>2020-10-17T16:25:22Z</time>
      </trkpt>
      <trkpt lat="42.282666" lon="2.752522">
        <ele>467.864</ele>
        <time>2020-10-17T16:25:24Z</time>
      </trkpt>
      <trkpt lat="42.282765" lon="2.752451">
        <ele>468.510</ele>
        <time>2020-10-17T16:25:26Z</time>
      </trkpt>
      <trkpt lat="42.282832" lon="2.752400">
        <ele>469.308</ele>
        <time>2020-10-17T16:25:28Z</time>
      </trkpt>
      <trkpt lat="42.282900" lon="2.752370">
        <ele>470.249</ele>
        <time>2020-10-17T16:25:30Z</time>
      </trkpt>
      <trkpt lat="42.282980" lon="2.752352">
        <ele>471.022</ele>
        <time>2020-10-17T16:25:32Z</time>
      </trkpt>
      <trkpt lat="42.283025" lon="2.752343">
        <ele>471.671</ele>
        <time>2020-10-17T16:25:33Z</time>
      </trkpt>
      <trkpt lat="42.283126" lon="2.752323">
        <ele>472.210</ele>
        <time>2020-10-17T16:25:35Z</time>
      </trkpt>
      <trkpt lat="42.283182" lon="2.752309">
        <ele>472.739</ele>
        <time>2020-10-17T16:25:36Z</time>
      </trkpt>
      <trkpt lat="42.283242" lon="2.752294">
        <ele>473.217</ele>
        <time>2020-10-17T16:25:37Z</time>
      </trkpt>
      <trkpt lat="42.283357" lon="2.752266">
        <ele>473.987</ele>
        <time>2020-10-17T16:25:39Z</time>
      </trkpt>
      <trkpt lat="42.283413" lon="2.752255">
        <ele>474.542</ele>
        <time>2020-10-17T16:25:40Z</time>
      </trkpt>
      <trkpt lat="42.283469" lon="2.752248">
        <ele>475.035</ele>
        <time>2020-10-17T16:25:41Z</time>
      </trkpt>
      <trkpt lat="42.283584" lon="2.752250">
        <ele>475.686</ele>
        <time>2020-10-17T16:25:43Z</time>
      </trkpt>
      <trkpt lat="42.283647" lon="2.752254">
        <ele>476.014</ele>
        <time>2020-10-17T16:25:44Z</time>
      </trkpt>
      <trkpt lat="42.283774" lon="2.752259">
        <ele>476.408</ele>
        <time>2020-10-17T16:25:46Z</time>
      </trkpt>
      <trkpt lat="42.283898" lon="2.752248">
        <ele>476.898</ele>
        <time>2020-10-17T16:25:48Z</time>
      </trkpt>
      <trkpt lat="42.283958" lon="2.752238">
        <ele>477.231</ele>
        <time>2020-10-17T16:25:49Z</time>
      </trkpt>
      <trkpt lat="42.284073" lon="2.752215">
        <ele>477.840</ele>
        <time>2020-10-17T16:25:51Z</time>
      </trkpt>
      <trkpt lat="42.284130" lon="2.752203">
        <ele>478.469</ele>
        <time>2020-10-17T16:25:52Z</time>
      </trkpt>
      <trkpt lat="42.284186" lon="2.752193">
        <ele>479.028</ele>
        <time>2020-10-17T16:25:53Z</time>
      </trkpt>
      <trkpt lat="42.284300" lon="2.752177">
        <ele>480.066</ele>
        <time>2020-10-17T16:25:55Z</time>
      </trkpt>
      <trkpt lat="42.284360" lon="2.752172">
        <ele>480.826</ele>
        <time>2020-10-17T16:25:56Z</time>
      </trkpt>
      <trkpt lat="42.284423" lon="2.752171">
        <ele>481.531</ele>
        <time>2020-10-17T16:25:57Z</time>
      </trkpt>
      <trkpt lat="42.284489" lon="2.752175">
        <ele>482.047</ele>
        <time>2020-10-17T16:25:58Z</time>
      </trkpt>
      <trkpt lat="42.284617" lon="2.752194">
        <ele>482.729</ele>
        <time>2020-10-17T16:26:00Z</time>
      </trkpt>
      <trkpt lat="42.284680" lon="2.752205">
        <ele>483.221</ele>
        <time>2020-10-17T16:26:01Z</time>
      </trkpt>
      <trkpt lat="42.284802" lon="2.752229">
        <ele>483.708</ele>
        <time>2020-10-17T16:26:03Z</time>
      </trkpt>
      <trkpt lat="42.284864" lon="2.752240">
        <ele>484.079</ele>
        <time>2020-10-17T16:26:04Z</time>
      </trkpt>
      <trkpt lat="42.284927" lon="2.752249">
        <ele>484.312</ele>
        <time>2020-10-17T16:26:05Z</time>
      </trkpt>
      <trkpt lat="42.285068" lon="2.752271">
        <ele>484.821</ele>
        <time>2020-10-17T16:26:07Z</time>
      </trkpt>
      <trkpt lat="42.285149" lon="2.752282">
        <ele>485.370</ele>
        <time>2020-10-17T16:26:08Z</time>
      </trkpt>
      <trkpt lat="42.285302" lon="2.752311">
        <ele>485.959</ele>
        <time>2020-10-17T16:26:10Z</time>
      </trkpt>
      <trkpt lat="42.285428" lon="2.752346">
        <ele>486.847</ele>
        <time>2020-10-17T16:26:12Z</time>
      </trkpt>
      <trkpt lat="42.285481" lon="2.752351">
        <ele>487.537</ele>
        <time>2020-10-17T16:26:13Z</time>
      </trkpt>
      <trkpt lat="42.285532" lon="2.752344">
        <ele>488.112</ele>
        <time>2020-10-17T16:26:14Z</time>
      </trkpt>
      <trkpt lat="42.285640" lon="2.752298">
        <ele>488.937</ele>
        <time>2020-10-17T16:26:16Z</time>
      </trkpt>
      <trkpt lat="42.285754" lon="2.752224">
        <ele>490.049</ele>
        <time>2020-10-17T16:26:18Z</time>
      </trkpt>
      <trkpt lat="42.285814" lon="2.752181">
        <ele>490.913</ele>
        <time>2020-10-17T16:26:19Z</time>
      </trkpt>
      <trkpt lat="42.285934" lon="2.752090">
        <ele>491.908</ele>
        <time>2020-10-17T16:26:21Z</time>
      </trkpt>
      <trkpt lat="42.286046" lon="2.751990">
        <ele>493.038</ele>
        <time>2020-10-17T16:26:23Z</time>
      </trkpt>
      <trkpt lat="42.286158" lon="2.751877">
        <ele>494.171</ele>
        <time>2020-10-17T16:26:25Z</time>
      </trkpt>
      <trkpt lat="42.286217" lon="2.751818">
        <ele>495.030</ele>
        <time>2020-10-17T16:26:26Z</time>
      </trkpt>
      <trkpt lat="42.286274" lon="2.751759">
        <ele>495.789</ele>
        <time>2020-10-17T16:26:27Z</time>
      </trkpt>
      <trkpt lat="42.286374" lon="2.751637">
        <ele>496.428</ele>
        <time>2020-10-17T16:26:29Z</time>
      </trkpt>
      <trkpt lat="42.286415" lon="2.751571">
        <ele>496.956</ele>
        <time>2020-10-17T16:26:30Z</time>
      </trkpt>
      <trkpt lat="42.286445" lon="2.751507">
        <ele>497.326</ele>
        <time>2020-10-17T16:26:31Z</time>
      </trkpt>
      <trkpt lat="42.286480" lon="2.751374">
        <ele>497.771</ele>
        <time>2020-10-17T16:26:33Z</time>
      </trkpt>
      <trkpt lat="42.286489" lon="2.751301">
        <ele>498.073</ele>
        <time>2020-10-17T16:26:34Z</time>
      </trkpt>
      <trkpt lat="42.286493" lon="2.751151">
        <ele>498.485</ele>
        <time>2020-10-17T16:26:36Z</time>
      </trkpt>
      <trkpt lat="42.286488" lon="2.751071">
        <ele>498.813</ele>
        <time>2020-10-17T16:26:37Z</time>
      </trkpt>
      <trkpt lat="42.286469" lon="2.750894">
        <ele>499.308</ele>
        <time>2020-10-17T16:26:39Z</time>
      </trkpt>
      <trkpt lat="42.286451" lon="2.750716">
        <ele>499.692</ele>
        <time>2020-10-17T16:26:41Z</time>
      </trkpt>
      <trkpt lat="42.286458" lon="2.750596">
        <ele>499.795</ele>
        <time>2020-10-17T16:26:43Z</time>
      </trkpt>
      <trkpt lat="42.286496" lon="2.750550">
        <ele>499.284</ele>
        <time>2020-10-17T16:26:45Z</time>
      </trkpt>
      <trkpt lat="42.286571" lon="2.750546">
        <ele>498.763</ele>
        <time>2020-10-17T16:26:47Z</time>
      </trkpt>
      <trkpt lat="42.286700" lon="2.750580">
        <ele>497.992</ele>
        <time>2020-10-17T16:26:49Z</time>
      </trkpt>
      <trkpt lat="42.286740" lon="2.750626">
        <ele>496.910</ele>
        <time>2020-10-17T16:26:50Z</time>
      </trkpt>
      <trkpt lat="42.286809" lon="2.750739">
        <ele>496.510</ele>
        <time>2020-10-17T16:26:52Z</time>
      </trkpt>
      <trkpt lat="42.286834" lon="2.750804">
        <ele>496.465</ele>
        <time>2020-10-17T16:26:53Z</time>
      </trkpt>
      <trkpt lat="42.286862" lon="2.750951">
        <ele>496.632</ele>
        <time>2020-10-17T16:26:55Z</time>
      </trkpt>
      <trkpt lat="42.286888" lon="2.751098">
        <ele>497.192</ele>
        <time>2020-10-17T16:26:57Z</time>
      </trkpt>
      <trkpt lat="42.286905" lon="2.751161">
        <ele>497.611</ele>
        <time>2020-10-17T16:26:58Z</time>
      </trkpt>
      <trkpt lat="42.286940" lon="2.751245">
        <ele>498.308</ele>
        <time>2020-10-17T16:27:00Z</time>
      </trkpt>
      <trkpt lat="42.286986" lon="2.751311">
        <ele>498.928</ele>
        <time>2020-10-17T16:27:02Z</time>
      </trkpt>
      <trkpt lat="42.286993" lon="2.751373">
        <ele>498.241</ele>
        <time>2020-10-17T16:27:14Z</time>
      </trkpt>
      <trkpt lat="42.287017" lon="2.751447">
        <ele>497.790</ele>
        <time>2020-10-17T16:27:16Z</time>
      </trkpt>
      <trkpt lat="42.287037" lon="2.751513">
        <ele>497.479</ele>
        <time>2020-10-17T16:27:18Z</time>
      </trkpt>
      <trkpt lat="42.287071" lon="2.751570">
        <ele>497.178</ele>
        <time>2020-10-17T16:27:21Z</time>
      </trkpt>
      <trkpt lat="42.287103" lon="2.751616">
        <ele>497.046</ele>
        <time>2020-10-17T16:27:24Z</time>
      </trkpt>
      <trkpt lat="42.287155" lon="2.751657">
        <ele>497.486</ele>
        <time>2020-10-17T16:27:28Z</time>
      </trkpt>
      <trkpt lat="42.287208" lon="2.751721">
        <ele>497.811</ele>
        <time>2020-10-17T16:27:30Z</time>
      </trkpt>
      <trkpt lat="42.287239" lon="2.751767">
        <ele>498.222</ele>
        <time>2020-10-17T16:27:32Z</time>
      </trkpt>
      <trkpt lat="42.287283" lon="2.751832">
        <ele>498.662</ele>
        <time>2020-10-17T16:27:35Z</time>
      </trkpt>
      <trkpt lat="42.287324" lon="2.751878">
        <ele>498.908</ele>
        <time>2020-10-17T16:27:38Z</time>
      </trkpt>
      <trkpt lat="42.287363" lon="2.751921">
        <ele>499.108</ele>
        <time>2020-10-17T16:27:41Z</time>
      </trkpt>
      <trkpt lat="42.287394" lon="2.751972">
        <ele>499.387</ele>
        <time>2020-10-17T16:27:44Z</time>
      </trkpt>
      <trkpt lat="42.287428" lon="2.752025">
        <ele>499.510</ele>
        <time>2020-10-17T16:27:46Z</time>
      </trkpt>
      <trkpt lat="42.287464" lon="2.752079">
        <ele>499.579</ele>
        <time>2020-10-17T16:27:48Z</time>
      </trkpt>
      <trkpt lat="42.287504" lon="2.752141">
        <ele>499.458</ele>
        <time>2020-10-17T16:27:51Z</time>
      </trkpt>
      <trkpt lat="42.287539" lon="2.752188">
        <ele>499.467</ele>
        <time>2020-10-17T16:27:53Z</time>
      </trkpt>
      <trkpt lat="42.287580" lon="2.752236">
        <ele>499.335</ele>
        <time>2020-10-17T16:27:55Z</time>
      </trkpt>
      <trkpt lat="42.287621" lon="2.752282">
        <ele>499.335</ele>
        <time>2020-10-17T16:27:57Z</time>
      </trkpt>
      <trkpt lat="42.287660" lon="2.752326">
        <ele>499.540</ele>
        <time>2020-10-17T16:27:59Z</time>
      </trkpt>
      <trkpt lat="42.287710" lon="2.752380">
        <ele>499.591</ele>
        <time>2020-10-17T16:28:02Z</time>
      </trkpt>
      <trkpt lat="42.287746" lon="2.752420">
        <ele>499.481</ele>
        <time>2020-10-17T16:28:04Z</time>
      </trkpt>
      <trkpt lat="42.287793" lon="2.752475">
        <ele>499.319</ele>
        <time>2020-10-17T16:28:06Z</time>
      </trkpt>
      <trkpt lat="42.287829" lon="2.752514">
        <ele>499.408</ele>
        <time>2020-10-17T16:28:08Z</time>
      </trkpt>
      <trkpt lat="42.287872" lon="2.752555">
        <ele>499.774</ele>
        <time>2020-10-17T16:28:10Z</time>
      </trkpt>
      <trkpt lat="42.287917" lon="2.752595">
        <ele>500.117</ele>
        <time>2020-10-17T16:28:12Z</time>
      </trkpt>
      <trkpt lat="42.287963" lon="2.752624">
        <ele>500.576</ele>
        <time>2020-10-17T16:28:14Z</time>
      </trkpt>
      <trkpt lat="42.288021" lon="2.752649">
        <ele>500.985</ele>
        <time>2020-10-17T16:28:16Z</time>
      </trkpt>
      <trkpt lat="42.288077" lon="2.752678">
        <ele>501.254</ele>
        <time>2020-10-17T16:28:18Z</time>
      </trkpt>
      <trkpt lat="42.288153" lon="2.752712">
        <ele>501.562</ele>
        <time>2020-10-17T16:28:20Z</time>
      </trkpt>
      <trkpt lat="42.288196" lon="2.752743">
        <ele>501.932</ele>
        <time>2020-10-17T16:28:21Z</time>
      </trkpt>
      <trkpt lat="42.288258" lon="2.752788">
        <ele>502.397</ele>
        <time>2020-10-17T16:28:23Z</time>
      </trkpt>
      <trkpt lat="42.288315" lon="2.752834">
        <ele>502.677</ele>
        <time>2020-10-17T16:28:25Z</time>
      </trkpt>
      <trkpt lat="42.288369" lon="2.752891">
        <ele>503.261</ele>
        <time>2020-10-17T16:28:27Z</time>
      </trkpt>
      <trkpt lat="42.288417" lon="2.752938">
        <ele>503.727</ele>
        <time>2020-10-17T16:28:29Z</time>
      </trkpt>
      <trkpt lat="42.288459" lon="2.752982">
        <ele>504.208</ele>
        <time>2020-10-17T16:28:31Z</time>
      </trkpt>
      <trkpt lat="42.288498" lon="2.753024">
        <ele>504.922</ele>
        <time>2020-10-17T16:28:33Z</time>
      </trkpt>
      <trkpt lat="42.288536" lon="2.753060">
        <ele>506.065</ele>
        <time>2020-10-17T16:28:35Z</time>
      </trkpt>
      <trkpt lat="42.288575" lon="2.753096">
        <ele>507.324</ele>
        <time>2020-10-17T16:28:36Z</time>
      </trkpt>
      <trkpt lat="42.288623" lon="2.753139">
        <ele>508.573</ele>
        <time>2020-10-17T16:28:39Z</time>
      </trkpt>
      <trkpt lat="42.288664" lon="2.753181">
        <ele>509.522</ele>
        <time>2020-10-17T16:28:40Z</time>
      </trkpt>
      <trkpt lat="42.288701" lon="2.753223">
        <ele>510.330</ele>
        <time>2020-10-17T16:28:42Z</time>
      </trkpt>
      <trkpt lat="42.288738" lon="2.753278">
        <ele>511.380</ele>
        <time>2020-10-17T16:28:44Z</time>
      </trkpt>
      <trkpt lat="42.288781" lon="2.753338">
        <ele>512.665</ele>
        <time>2020-10-17T16:28:46Z</time>
      </trkpt>
      <trkpt lat="42.288796" lon="2.753419">
        <ele>514.012</ele>
        <time>2020-10-17T16:28:49Z</time>
      </trkpt>
      <trkpt lat="42.288798" lon="2.753500">
        <ele>515.432</ele>
        <time>2020-10-17T16:28:51Z</time>
      </trkpt>
      <trkpt lat="42.288816" lon="2.753572">
        <ele>516.605</ele>
        <time>2020-10-17T16:28:53Z</time>
      </trkpt>
      <trkpt lat="42.288844" lon="2.753667">
        <ele>517.808</ele>
        <time>2020-10-17T16:28:55Z</time>
      </trkpt>
      <trkpt lat="42.288873" lon="2.753746">
        <ele>519.296</ele>
        <time>2020-10-17T16:28:57Z</time>
      </trkpt>
      <trkpt lat="42.288910" lon="2.753824">
        <ele>520.479</ele>
        <time>2020-10-17T16:28:59Z</time>
      </trkpt>
      <trkpt lat="42.288966" lon="2.753905">
        <ele>521.388</ele>
        <time>2020-10-17T16:29:01Z</time>
      </trkpt>
      <trkpt lat="42.289005" lon="2.753945">
        <ele>522.187</ele>
        <time>2020-10-17T16:29:03Z</time>
      </trkpt>
      <trkpt lat="42.289054" lon="2.753992">
        <ele>522.916</ele>
        <time>2020-10-17T16:29:05Z</time>
      </trkpt>
      <trkpt lat="42.289121" lon="2.754056">
        <ele>523.514</ele>
        <time>2020-10-17T16:29:07Z</time>
      </trkpt>
      <trkpt lat="42.289197" lon="2.754107">
        <ele>523.884</ele>
        <time>2020-10-17T16:29:09Z</time>
      </trkpt>
      <trkpt lat="42.289274" lon="2.754148">
        <ele>523.819</ele>
        <time>2020-10-17T16:29:11Z</time>
      </trkpt>
      <trkpt lat="42.289325" lon="2.754161">
        <ele>523.785</ele>
        <time>2020-10-17T16:29:13Z</time>
      </trkpt>
      <trkpt lat="42.289372" lon="2.754183">
        <ele>523.689</ele>
        <time>2020-10-17T16:29:15Z</time>
      </trkpt>
      <trkpt lat="42.289432" lon="2.754217">
        <ele>523.217</ele>
        <time>2020-10-17T16:29:17Z</time>
      </trkpt>
      <trkpt lat="42.289475" lon="2.754247">
        <ele>522.808</ele>
        <time>2020-10-17T16:29:19Z</time>
      </trkpt>
      <trkpt lat="42.289524" lon="2.754297">
        <ele>522.713</ele>
        <time>2020-10-17T16:29:21Z</time>
      </trkpt>
      <trkpt lat="42.289554" lon="2.754360">
        <ele>522.756</ele>
        <time>2020-10-17T16:29:24Z</time>
      </trkpt>
      <trkpt lat="42.289565" lon="2.754422">
        <ele>522.555</ele>
        <time>2020-10-17T16:29:26Z</time>
      </trkpt>
      <trkpt lat="42.289577" lon="2.754487">
        <ele>522.514</ele>
        <time>2020-10-17T16:29:28Z</time>
      </trkpt>
      <trkpt lat="42.289599" lon="2.754545">
        <ele>522.583</ele>
        <time>2020-10-17T16:29:30Z</time>
      </trkpt>
      <trkpt lat="42.289622" lon="2.754601">
        <ele>522.411</ele>
        <time>2020-10-17T16:29:32Z</time>
      </trkpt>
      <trkpt lat="42.289645" lon="2.754663">
        <ele>522.111</ele>
        <time>2020-10-17T16:29:34Z</time>
      </trkpt>
      <trkpt lat="42.289680" lon="2.754739">
        <ele>521.746</ele>
        <time>2020-10-17T16:29:36Z</time>
      </trkpt>
      <trkpt lat="42.289695" lon="2.754806">
        <ele>520.873</ele>
        <time>2020-10-17T16:29:39Z</time>
      </trkpt>
      <trkpt lat="42.289688" lon="2.754876">
        <ele>520.285</ele>
        <time>2020-10-17T16:29:43Z</time>
      </trkpt>
      <trkpt lat="42.289648" lon="2.754937">
        <ele>520.013</ele>
        <time>2020-10-17T16:29:50Z</time>
      </trkpt>
      <trkpt lat="42.289648" lon="2.755003">
        <ele>519.908</ele>
        <time>2020-10-17T16:29:51Z</time>
      </trkpt>
      <trkpt lat="42.289651" lon="2.755084">
        <ele>519.862</ele>
        <time>2020-10-17T16:29:53Z</time>
      </trkpt>
      <trkpt lat="42.289653" lon="2.755180">
        <ele>519.915</ele>
        <time>2020-10-17T16:29:55Z</time>
      </trkpt>
      <trkpt lat="42.289653" lon="2.755262">
        <ele>519.934</ele>
        <time>2020-10-17T16:29:56Z</time>
      </trkpt>
      <trkpt lat="42.289650" lon="2.755331">
        <ele>519.823</ele>
        <time>2020-10-17T16:29:57Z</time>
      </trkpt>
      <trkpt lat="42.289639" lon="2.755469">
        <ele>519.592</ele>
        <time>2020-10-17T16:29:59Z</time>
      </trkpt>
      <trkpt lat="42.289636" lon="2.755539">
        <ele>519.310</ele>
        <time>2020-10-17T16:30:00Z</time>
      </trkpt>
      <trkpt lat="42.289634" lon="2.755622">
        <ele>519.070</ele>
        <time>2020-10-17T16:30:01Z</time>
      </trkpt>
      <trkpt lat="42.289643" lon="2.755721">
        <ele>518.945</ele>
        <time>2020-10-17T16:30:03Z</time>
      </trkpt>
      <trkpt lat="42.289666" lon="2.755793">
        <ele>519.285</ele>
        <time>2020-10-17T16:30:05Z</time>
      </trkpt>
      <trkpt lat="42.289714" lon="2.755853">
        <ele>519.489</ele>
        <time>2020-10-17T16:30:07Z</time>
      </trkpt>
      <trkpt lat="42.289765" lon="2.755903">
        <ele>519.417</ele>
        <time>2020-10-17T16:30:09Z</time>
      </trkpt>
      <trkpt lat="42.289849" lon="2.755958">
        <ele>519.008</ele>
        <time>2020-10-17T16:30:11Z</time>
      </trkpt>
      <trkpt lat="42.289919" lon="2.755984">
        <ele>518.473</ele>
        <time>2020-10-17T16:30:13Z</time>
      </trkpt>
      <trkpt lat="42.289989" lon="2.755999">
        <ele>517.716</ele>
        <time>2020-10-17T16:30:15Z</time>
      </trkpt>
      <trkpt lat="42.290068" lon="2.756008">
        <ele>516.995</ele>
        <time>2020-10-17T16:30:17Z</time>
      </trkpt>
      <trkpt lat="42.290140" lon="2.755997">
        <ele>516.184</ele>
        <time>2020-10-17T16:30:19Z</time>
      </trkpt>
      <trkpt lat="42.290243" lon="2.755993">
        <ele>515.583</ele>
        <time>2020-10-17T16:30:21Z</time>
      </trkpt>
      <trkpt lat="42.290315" lon="2.755992">
        <ele>515.161</ele>
        <time>2020-10-17T16:30:23Z</time>
      </trkpt>
      <trkpt lat="42.290380" lon="2.755987">
        <ele>514.861</ele>
        <time>2020-10-17T16:30:25Z</time>
      </trkpt>
      <trkpt lat="42.290471" lon="2.756002">
        <ele>514.486</ele>
        <time>2020-10-17T16:30:27Z</time>
      </trkpt>
      <trkpt lat="42.290541" lon="2.756020">
        <ele>514.227</ele>
        <time>2020-10-17T16:30:29Z</time>
      </trkpt>
      <trkpt lat="42.290605" lon="2.756057">
        <ele>514.268</ele>
        <time>2020-10-17T16:30:31Z</time>
      </trkpt>
      <trkpt lat="42.290639" lon="2.756120">
        <ele>514.314</ele>
        <time>2020-10-17T16:30:33Z</time>
      </trkpt>
      <trkpt lat="42.290639" lon="2.756227">
        <ele>514.508</ele>
        <time>2020-10-17T16:30:35Z</time>
      </trkpt>
      <trkpt lat="42.290635" lon="2.756305">
        <ele>514.447</ele>
        <time>2020-10-17T16:30:36Z</time>
      </trkpt>
      <trkpt lat="42.290614" lon="2.756429">
        <ele>513.840</ele>
        <time>2020-10-17T16:30:38Z</time>
      </trkpt>
      <trkpt lat="42.290588" lon="2.756573">
        <ele>513.149</ele>
        <time>2020-10-17T16:30:40Z</time>
      </trkpt>
      <trkpt lat="42.290569" lon="2.756683">
        <ele>512.438</ele>
        <time>2020-10-17T16:30:41Z</time>
      </trkpt>
      <trkpt lat="42.290558" lon="2.756750">
        <ele>511.847</ele>
        <time>2020-10-17T16:30:42Z</time>
      </trkpt>
      <trkpt lat="42.290550" lon="2.756878">
        <ele>511.165</ele>
        <time>2020-10-17T16:30:44Z</time>
      </trkpt>
      <trkpt lat="42.290552" lon="2.757025">
        <ele>510.535</ele>
        <time>2020-10-17T16:30:46Z</time>
      </trkpt>
      <trkpt lat="42.290561" lon="2.757130">
        <ele>509.850</ele>
        <time>2020-10-17T16:30:48Z</time>
      </trkpt>
      <trkpt lat="42.290558" lon="2.757191">
        <ele>509.225</ele>
        <time>2020-10-17T16:30:50Z</time>
      </trkpt>
      <trkpt lat="42.290567" lon="2.757264">
        <ele>508.726</ele>
        <time>2020-10-17T16:30:54Z</time>
      </trkpt>
      <trkpt lat="42.290597" lon="2.757350">
        <ele>508.608</ele>
        <time>2020-10-17T16:30:56Z</time>
      </trkpt>
      <trkpt lat="42.290616" lon="2.757463">
        <ele>508.708</ele>
        <time>2020-10-17T16:30:58Z</time>
      </trkpt>
      <trkpt lat="42.290614" lon="2.757574">
        <ele>509.097</ele>
        <time>2020-10-17T16:31:00Z</time>
      </trkpt>
      <trkpt lat="42.290608" lon="2.757643">
        <ele>509.290</ele>
        <time>2020-10-17T16:31:01Z</time>
      </trkpt>
      <trkpt lat="42.290605" lon="2.757718">
        <ele>509.379</ele>
        <time>2020-10-17T16:31:03Z</time>
      </trkpt>
      <trkpt lat="42.290609" lon="2.757791">
        <ele>509.488</ele>
        <time>2020-10-17T16:31:05Z</time>
      </trkpt>
      <trkpt lat="42.290611" lon="2.757854">
        <ele>509.487</ele>
        <time>2020-10-17T16:31:06Z</time>
      </trkpt>
      <trkpt lat="42.290607" lon="2.757950">
        <ele>509.425</ele>
        <time>2020-10-17T16:31:08Z</time>
      </trkpt>
      <trkpt lat="42.290595" lon="2.758068">
        <ele>509.515</ele>
        <time>2020-10-17T16:31:10Z</time>
      </trkpt>
      <trkpt lat="42.290582" lon="2.758139">
        <ele>509.640</ele>
        <time>2020-10-17T16:31:11Z</time>
      </trkpt>
      <trkpt lat="42.290562" lon="2.758237">
        <ele>510.029</ele>
        <time>2020-10-17T16:31:13Z</time>
      </trkpt>
      <trkpt lat="42.290554" lon="2.758346">
        <ele>510.600</ele>
        <time>2020-10-17T16:31:15Z</time>
      </trkpt>
      <trkpt lat="42.290548" lon="2.758473">
        <ele>511.320</ele>
        <time>2020-10-17T16:31:17Z</time>
      </trkpt>
      <trkpt lat="42.290555" lon="2.758558">
        <ele>512.108</ele>
        <time>2020-10-17T16:31:19Z</time>
      </trkpt>
      <trkpt lat="42.290581" lon="2.758648">
        <ele>513.017</ele>
        <time>2020-10-17T16:31:21Z</time>
      </trkpt>
      <trkpt lat="42.290616" lon="2.758729">
        <ele>513.550</ele>
        <time>2020-10-17T16:31:23Z</time>
      </trkpt>
      <trkpt lat="42.290650" lon="2.758793">
        <ele>513.349</ele>
        <time>2020-10-17T16:31:25Z</time>
      </trkpt>
      <trkpt lat="42.290696" lon="2.758852">
        <ele>513.078</ele>
        <time>2020-10-17T16:31:27Z</time>
      </trkpt>
      <trkpt lat="42.290749" lon="2.758900">
        <ele>512.637</ele>
        <time>2020-10-17T16:31:29Z</time>
      </trkpt>
      <trkpt lat="42.290808" lon="2.758951">
        <ele>512.125</ele>
        <time>2020-10-17T16:31:31Z</time>
      </trkpt>
      <trkpt lat="42.290866" lon="2.759010">
        <ele>511.515</ele>
        <time>2020-10-17T16:31:33Z</time>
      </trkpt>
      <trkpt lat="42.290919" lon="2.759072">
        <ele>510.930</ele>
        <time>2020-10-17T16:31:35Z</time>
      </trkpt>
      <trkpt lat="42.291002" lon="2.759145">
        <ele>510.242</ele>
        <time>2020-10-17T16:31:37Z</time>
      </trkpt>
      <trkpt lat="42.291067" lon="2.759186">
        <ele>509.622</ele>
        <time>2020-10-17T16:31:39Z</time>
      </trkpt>
      <trkpt lat="42.291118" lon="2.759216">
        <ele>509.014</ele>
        <time>2020-10-17T16:31:41Z</time>
      </trkpt>
      <trkpt lat="42.291170" lon="2.759244">
        <ele>508.408</ele>
        <time>2020-10-17T16:31:43Z</time>
      </trkpt>
      <trkpt lat="42.291223" lon="2.759267">
        <ele>507.979</ele>
        <time>2020-10-17T16:31:45Z</time>
      </trkpt>
      <trkpt lat="42.291288" lon="2.759280">
        <ele>507.842</ele>
        <time>2020-10-17T16:31:47Z</time>
      </trkpt>
      <trkpt lat="42.291352" lon="2.759279">
        <ele>507.421</ele>
        <time>2020-10-17T16:31:49Z</time>
      </trkpt>
      <trkpt lat="42.291410" lon="2.759274">
        <ele>506.720</ele>
        <time>2020-10-17T16:31:51Z</time>
      </trkpt>
      <trkpt lat="42.291477" lon="2.759267">
        <ele>506.099</ele>
        <time>2020-10-17T16:31:53Z</time>
      </trkpt>
      <trkpt lat="42.291553" lon="2.759274">
        <ele>505.417</ele>
        <time>2020-10-17T16:31:55Z</time>
      </trkpt>
      <trkpt lat="42.291627" lon="2.759288">
        <ele>504.897</ele>
        <time>2020-10-17T16:31:57Z</time>
      </trkpt>
      <trkpt lat="42.291675" lon="2.759293">
        <ele>504.442</ele>
        <time>2020-10-17T16:31:59Z</time>
      </trkpt>
      <trkpt lat="42.291712" lon="2.759344">
        <ele>504.193</ele>
        <time>2020-10-17T16:32:02Z</time>
      </trkpt>
      <trkpt lat="42.291774" lon="2.759357">
        <ele>503.965</ele>
        <time>2020-10-17T16:32:04Z</time>
      </trkpt>
      <trkpt lat="42.291848" lon="2.759378">
        <ele>504.021</ele>
        <time>2020-10-17T16:32:06Z</time>
      </trkpt>
      <trkpt lat="42.291913" lon="2.759417">
        <ele>504.208</ele>
        <time>2020-10-17T16:32:08Z</time>
      </trkpt>
      <trkpt lat="42.291914" lon="2.759498">
        <ele>503.634</ele>
        <time>2020-10-17T16:32:14Z</time>
      </trkpt>
      <trkpt lat="42.291933" lon="2.759587">
        <ele>503.077</ele>
        <time>2020-10-17T16:32:16Z</time>
      </trkpt>
      <trkpt lat="42.291952" lon="2.759680">
        <ele>502.666</ele>
        <time>2020-10-17T16:32:17Z</time>
      </trkpt>
      <trkpt lat="42.291967" lon="2.759770">
        <ele>502.335</ele>
        <time>2020-10-17T16:32:19Z</time>
      </trkpt>
      <trkpt lat="42.291990" lon="2.759862">
        <ele>502.234</ele>
        <time>2020-10-17T16:32:21Z</time>
      </trkpt>
      <trkpt lat="42.292011" lon="2.759939">
        <ele>502.382</ele>
        <time>2020-10-17T16:32:22Z</time>
      </trkpt>
      <trkpt lat="42.292041" lon="2.760042">
        <ele>502.432</ele>
        <time>2020-10-17T16:32:24Z</time>
      </trkpt>
      <trkpt lat="42.292070" lon="2.760166">
        <ele>502.547</ele>
        <time>2020-10-17T16:32:26Z</time>
      </trkpt>
      <trkpt lat="42.292085" lon="2.760229">
        <ele>502.755</ele>
        <time>2020-10-17T16:32:27Z</time>
      </trkpt>
      <trkpt lat="42.292111" lon="2.760336">
        <ele>503.007</ele>
        <time>2020-10-17T16:32:29Z</time>
      </trkpt>
      <trkpt lat="42.292131" lon="2.760436">
        <ele>503.217</ele>
        <time>2020-10-17T16:32:31Z</time>
      </trkpt>
      <trkpt lat="42.292149" lon="2.760584">
        <ele>503.108</ele>
        <time>2020-10-17T16:32:33Z</time>
      </trkpt>
      <trkpt lat="42.292158" lon="2.760690">
        <ele>502.880</ele>
        <time>2020-10-17T16:32:35Z</time>
      </trkpt>
      <trkpt lat="42.292171" lon="2.760803">
        <ele>502.693</ele>
        <time>2020-10-17T16:32:37Z</time>
      </trkpt>
      <trkpt lat="42.292182" lon="2.760920">
        <ele>502.142</ele>
        <time>2020-10-17T16:32:39Z</time>
      </trkpt>
      <trkpt lat="42.292188" lon="2.760989">
        <ele>501.681</ele>
        <time>2020-10-17T16:32:40Z</time>
      </trkpt>
      <trkpt lat="42.292199" lon="2.761104">
        <ele>500.990</ele>
        <time>2020-10-17T16:32:42Z</time>
      </trkpt>
      <trkpt lat="42.292218" lon="2.761209">
        <ele>500.318</ele>
        <time>2020-10-17T16:32:44Z</time>
      </trkpt>
      <trkpt lat="42.292380" lon="2.761537">
        <ele>498.548</ele>
        <time>2020-10-17T16:32:50Z</time>
      </trkpt>
      <trkpt lat="42.292428" lon="2.761666">
        <ele>497.383</ele>
        <time>2020-10-17T16:32:52Z</time>
      </trkpt>
      <trkpt lat="42.292450" lon="2.761731">
        <ele>496.583</ele>
        <time>2020-10-17T16:32:53Z</time>
      </trkpt>
      <trkpt lat="42.292471" lon="2.761789">
        <ele>495.925</ele>
        <time>2020-10-17T16:32:54Z</time>
      </trkpt>
      <trkpt lat="42.292422" lon="2.761852">
        <ele>495.517</ele>
        <time>2020-10-17T16:32:56Z</time>
      </trkpt>
      <trkpt lat="42.292557" lon="2.762111">
        <ele>495.108</ele>
        <time>2020-10-17T16:33:01Z</time>
      </trkpt>
      <trkpt lat="42.292591" lon="2.762178">
        <ele>494.983</ele>
        <time>2020-10-17T16:33:02Z</time>
      </trkpt>
      <trkpt lat="42.292619" lon="2.762235">
        <ele>494.966</ele>
        <time>2020-10-17T16:33:03Z</time>
      </trkpt>
      <trkpt lat="42.292651" lon="2.762300">
        <ele>495.325</ele>
        <time>2020-10-17T16:33:04Z</time>
      </trkpt>
      <trkpt lat="42.292687" lon="2.762371">
        <ele>495.624</ele>
        <time>2020-10-17T16:33:06Z</time>
      </trkpt>
      <trkpt lat="42.292723" lon="2.762459">
        <ele>496.073</ele>
        <time>2020-10-17T16:33:07Z</time>
      </trkpt>
      <trkpt lat="42.292747" lon="2.762523">
        <ele>496.451</ele>
        <time>2020-10-17T16:33:08Z</time>
      </trkpt>
      <trkpt lat="42.292770" lon="2.762585">
        <ele>496.791</ele>
        <time>2020-10-17T16:33:09Z</time>
      </trkpt>
      <trkpt lat="42.292792" lon="2.762669">
        <ele>497.026</ele>
        <time>2020-10-17T16:33:11Z</time>
      </trkpt>
      <trkpt lat="42.292762" lon="2.762720">
        <ele>497.514</ele>
        <time>2020-10-17T16:33:13Z</time>
      </trkpt>
      <trkpt lat="42.292784" lon="2.762786">
        <ele>498.154</ele>
        <time>2020-10-17T16:33:14Z</time>
      </trkpt>
      <trkpt lat="42.292812" lon="2.762844">
        <ele>498.609</ele>
        <time>2020-10-17T16:33:15Z</time>
      </trkpt>
      <trkpt lat="42.292880" lon="2.762992">
        <ele>499.208</ele>
        <time>2020-10-17T16:33:17Z</time>
      </trkpt>
      <trkpt lat="42.292907" lon="2.763058">
        <ele>499.986</ele>
        <time>2020-10-17T16:33:19Z</time>
      </trkpt>
      <trkpt lat="42.292931" lon="2.763124">
        <ele>500.679</ele>
        <time>2020-10-17T16:33:20Z</time>
      </trkpt>
      <trkpt lat="42.292964" lon="2.763214">
        <ele>501.458</ele>
        <time>2020-10-17T16:33:22Z</time>
      </trkpt>
      <trkpt lat="42.292980" lon="2.763272">
        <ele>502.067</ele>
        <time>2020-10-17T16:33:23Z</time>
      </trkpt>
      <trkpt lat="42.292992" lon="2.763348">
        <ele>502.556</ele>
        <time>2020-10-17T16:33:24Z</time>
      </trkpt>
      <trkpt lat="42.293001" lon="2.763451">
        <ele>502.864</ele>
        <time>2020-10-17T16:33:27Z</time>
      </trkpt>
      <trkpt lat="42.293031" lon="2.763523">
        <ele>504.754</ele>
        <time>2020-10-17T16:34:19Z</time>
      </trkpt>
      <trkpt lat="42.293031" lon="2.763523">
        <ele>504.799</ele>
        <time>2020-10-17T16:34:19Z</time>
      </trkpt>
      <trkpt lat="42.293031" lon="2.763523">
        <ele>504.721</ele>
        <time>2020-10-17T16:34:19Z</time>
      </trkpt>
      <trkpt lat="42.293031" lon="2.763523">
        <ele>504.741</ele>
        <time>2020-10-17T16:34:19Z</time>
      </trkpt>
      <trkpt lat="42.293031" lon="2.763523">
        <ele>504.705</ele>
        <time>2020-10-17T16:34:19Z</time>
      </trkpt>
      <trkpt lat="42.293070" lon="2.763590">
        <ele>505.108</ele>
        <time>2020-10-17T16:34:21Z</time>
      </trkpt>
      <trkpt lat="42.293126" lon="2.763632">
        <ele>505.387</ele>
        <time>2020-10-17T16:34:22Z</time>
      </trkpt>
      <trkpt lat="42.293166" lon="2.763661">
        <ele>505.250</ele>
        <time>2020-10-17T16:34:23Z</time>
      </trkpt>
      <trkpt lat="42.293233" lon="2.763715">
        <ele>505.039</ele>
        <time>2020-10-17T16:34:25Z</time>
      </trkpt>
      <trkpt lat="42.293403" lon="2.763882">
        <ele>504.518</ele>
        <time>2020-10-17T16:34:32Z</time>
      </trkpt>
      <trkpt lat="42.293403" lon="2.763882">
        <ele>504.517</ele>
        <time>2020-10-17T16:34:32Z</time>
      </trkpt>
      <trkpt lat="42.293403" lon="2.763882">
        <ele>504.515</ele>
        <time>2020-10-17T16:34:32Z</time>
      </trkpt>
      <trkpt lat="42.293403" lon="2.763882">
        <ele>504.535</ele>
        <time>2020-10-17T16:34:32Z</time>
      </trkpt>
      <trkpt lat="42.293403" lon="2.763882">
        <ele>504.530</ele>
        <time>2020-10-17T16:34:32Z</time>
      </trkpt>
      <trkpt lat="42.293462" lon="2.763926">
        <ele>504.354</ele>
        <time>2020-10-17T16:34:34Z</time>
      </trkpt>
      <trkpt lat="42.293521" lon="2.763983">
        <ele>504.156</ele>
        <time>2020-10-17T16:34:35Z</time>
      </trkpt>
      <trkpt lat="42.293610" lon="2.764127">
        <ele>503.911</ele>
        <time>2020-10-17T16:34:37Z</time>
      </trkpt>
      <trkpt lat="42.293648" lon="2.764212">
        <ele>503.808</ele>
        <time>2020-10-17T16:34:38Z</time>
      </trkpt>
      <trkpt lat="42.293713" lon="2.764371">
        <ele>503.720</ele>
        <time>2020-10-17T16:34:40Z</time>
      </trkpt>
      <trkpt lat="42.293762" lon="2.764499">
        <ele>503.783</ele>
        <time>2020-10-17T16:34:42Z</time>
      </trkpt>
      <trkpt lat="42.293832" lon="2.764651">
        <ele>504.472</ele>
        <time>2020-10-17T16:34:46Z</time>
      </trkpt>
      <trkpt lat="42.293832" lon="2.764651">
        <ele>504.411</ele>
        <time>2020-10-17T16:34:46Z</time>
      </trkpt>
      <trkpt lat="42.293832" lon="2.764651">
        <ele>504.410</ele>
        <time>2020-10-17T16:34:46Z</time>
      </trkpt>
      <trkpt lat="42.293832" lon="2.764651">
        <ele>504.438</ele>
        <time>2020-10-17T16:34:46Z</time>
      </trkpt>
      <trkpt lat="42.293832" lon="2.764651">
        <ele>504.438</ele>
        <time>2020-10-17T16:34:46Z</time>
      </trkpt>
      <trkpt lat="42.293832" lon="2.764651">
        <ele>504.443</ele>
        <time>2020-10-17T16:34:46Z</time>
      </trkpt>
      <trkpt lat="42.293832" lon="2.764651">
        <ele>504.475</ele>
        <time>2020-10-17T16:34:46Z</time>
      </trkpt>
      <trkpt lat="42.293872" lon="2.764714">
        <ele>504.728</ele>
        <time>2020-10-17T16:34:47Z</time>
      </trkpt>
      <trkpt lat="42.293897" lon="2.764781">
        <ele>505.120</ele>
        <time>2020-10-17T16:34:48Z</time>
      </trkpt>
      <trkpt lat="42.293940" lon="2.764926">
        <ele>505.708</ele>
        <time>2020-10-17T16:34:50Z</time>
      </trkpt>
      <trkpt lat="42.293966" lon="2.764999">
        <ele>506.362</ele>
        <time>2020-10-17T16:34:51Z</time>
      </trkpt>
      <trkpt lat="42.294007" lon="2.765126">
        <ele>506.875</ele>
        <time>2020-10-17T16:34:53Z</time>
      </trkpt>
      <trkpt lat="42.294022" lon="2.765185">
        <ele>506.924</ele>
        <time>2020-10-17T16:34:54Z</time>
      </trkpt>
      <trkpt lat="42.294023" lon="2.765289">
        <ele>506.853</ele>
        <time>2020-10-17T16:34:56Z</time>
      </trkpt>
      <trkpt lat="42.294003" lon="2.765608">
        <ele>505.862</ele>
        <time>2020-10-17T16:35:00Z</time>
      </trkpt>
      <trkpt lat="42.294003" lon="2.765608">
        <ele>505.880</ele>
        <time>2020-10-17T16:35:00Z</time>
      </trkpt>
      <trkpt lat="42.294003" lon="2.765608">
        <ele>505.820</ele>
        <time>2020-10-17T16:35:00Z</time>
      </trkpt>
      <trkpt lat="42.294003" lon="2.765608">
        <ele>505.895</ele>
        <time>2020-10-17T16:35:00Z</time>
      </trkpt>
      <trkpt lat="42.294000" lon="2.765698">
        <ele>505.536</ele>
        <time>2020-10-17T16:35:01Z</time>
      </trkpt>
      <trkpt lat="42.294001" lon="2.765814">
        <ele>505.217</ele>
        <time>2020-10-17T16:35:03Z</time>
      </trkpt>
      <trkpt lat="42.294004" lon="2.765904">
        <ele>504.918</ele>
        <time>2020-10-17T16:35:05Z</time>
      </trkpt>
      <trkpt lat="42.294012" lon="2.766166">
        <ele>504.108</ele>
        <time>2020-10-17T16:35:09Z</time>
      </trkpt>
      <trkpt lat="42.294012" lon="2.766166">
        <ele>504.118</ele>
        <time>2020-10-17T16:35:09Z</time>
      </trkpt>
      <trkpt lat="42.294012" lon="2.766166">
        <ele>504.141</ele>
        <time>2020-10-17T16:35:09Z</time>
      </trkpt>
      <trkpt lat="42.294015" lon="2.766268">
        <ele>503.890</ele>
        <time>2020-10-17T16:35:11Z</time>
      </trkpt>
      <trkpt lat="42.294045" lon="2.766379">
        <ele>503.439</ele>
        <time>2020-10-17T16:35:13Z</time>
      </trkpt>
      <trkpt lat="42.294077" lon="2.766457">
        <ele>503.198</ele>
        <time>2020-10-17T16:35:15Z</time>
      </trkpt>
      <trkpt lat="42.294088" lon="2.766532">
        <ele>502.596</ele>
        <time>2020-10-17T16:39:28Z</time>
      </trkpt>
      <trkpt lat="42.294136" lon="2.766647">
        <ele>501.526</ele>
        <time>2020-10-17T16:39:32Z</time>
      </trkpt>
      <trkpt lat="42.294136" lon="2.766647">
        <ele>501.511</ele>
        <time>2020-10-17T16:39:32Z</time>
      </trkpt>
      <trkpt lat="42.294136" lon="2.766647">
        <ele>501.568</ele>
        <time>2020-10-17T16:39:32Z</time>
      </trkpt>
      <trkpt lat="42.294136" lon="2.766647">
        <ele>501.542</ele>
        <time>2020-10-17T16:39:32Z</time>
      </trkpt>
      <trkpt lat="42.294153" lon="2.766715">
        <ele>501.326</ele>
        <time>2020-10-17T16:39:35Z</time>
      </trkpt>
      <trkpt lat="42.294157" lon="2.766813">
        <ele>501.008</ele>
        <time>2020-10-17T16:39:38Z</time>
      </trkpt>
      <trkpt lat="42.294157" lon="2.766904">
        <ele>500.971</ele>
        <time>2020-10-17T16:39:40Z</time>
      </trkpt>
      <trkpt lat="42.294166" lon="2.767011">
        <ele>500.944</ele>
        <time>2020-10-17T16:39:42Z</time>
      </trkpt>
      <trkpt lat="42.294231" lon="2.767221">
        <ele>500.843</ele>
        <time>2020-10-17T16:39:46Z</time>
      </trkpt>
      <trkpt lat="42.294231" lon="2.767221">
        <ele>500.882</ele>
        <time>2020-10-17T16:39:46Z</time>
      </trkpt>
      <trkpt lat="42.294231" lon="2.767221">
        <ele>500.851</ele>
        <time>2020-10-17T16:39:46Z</time>
      </trkpt>
      <trkpt lat="42.294231" lon="2.767221">
        <ele>500.889</ele>
        <time>2020-10-17T16:39:46Z</time>
      </trkpt>
      <trkpt lat="42.294278" lon="2.767314">
        <ele>500.619</ele>
        <time>2020-10-17T16:39:48Z</time>
      </trkpt>
      <trkpt lat="42.294309" lon="2.767394">
        <ele>500.464</ele>
        <time>2020-10-17T16:39:50Z</time>
      </trkpt>
      <trkpt lat="42.294337" lon="2.767477">
        <ele>500.285</ele>
        <time>2020-10-17T16:39:52Z</time>
      </trkpt>
      <trkpt lat="42.294360" lon="2.767547">
        <ele>500.289</ele>
        <time>2020-10-17T16:39:54Z</time>
      </trkpt>
      <trkpt lat="42.294381" lon="2.767615">
        <ele>500.217</ele>
        <time>2020-10-17T16:39:56Z</time>
      </trkpt>
      <trkpt lat="42.294412" lon="2.767760">
        <ele>500.608</ele>
        <time>2020-10-17T16:40:00Z</time>
      </trkpt>
      <trkpt lat="42.294412" lon="2.767760">
        <ele>500.643</ele>
        <time>2020-10-17T16:40:00Z</time>
      </trkpt>
      <trkpt lat="42.294412" lon="2.767760">
        <ele>500.646</ele>
        <time>2020-10-17T16:40:00Z</time>
      </trkpt>
      <trkpt lat="42.294412" lon="2.767760">
        <ele>500.655</ele>
        <time>2020-10-17T16:40:00Z</time>
      </trkpt>
      <trkpt lat="42.294417" lon="2.767838">
        <ele>500.714</ele>
        <time>2020-10-17T16:40:02Z</time>
      </trkpt>
      <trkpt lat="42.294419" lon="2.767929">
        <ele>500.723</ele>
        <time>2020-10-17T16:40:04Z</time>
      </trkpt>
      <trkpt lat="42.294417" lon="2.768021">
        <ele>500.871</ele>
        <time>2020-10-17T16:40:06Z</time>
      </trkpt>
      <trkpt lat="42.294424" lon="2.768108">
        <ele>501.031</ele>
        <time>2020-10-17T16:40:08Z</time>
      </trkpt>
      <trkpt lat="42.294420" lon="2.768323">
        <ele>501.876</ele>
        <time>2020-10-17T16:40:13Z</time>
      </trkpt>
      <trkpt lat="42.294420" lon="2.768323">
        <ele>501.822</ele>
        <time>2020-10-17T16:40:13Z</time>
      </trkpt>
      <trkpt lat="42.294420" lon="2.768323">
        <ele>501.862</ele>
        <time>2020-10-17T16:40:13Z</time>
      </trkpt>
      <trkpt lat="42.294420" lon="2.768323">
        <ele>501.808</ele>
        <time>2020-10-17T16:40:13Z</time>
      </trkpt>
      <trkpt lat="42.294401" lon="2.768407">
        <ele>502.008</ele>
        <time>2020-10-17T16:40:15Z</time>
      </trkpt>
      <trkpt lat="42.294383" lon="2.768503">
        <ele>502.147</ele>
        <time>2020-10-17T16:40:17Z</time>
      </trkpt>
      <trkpt lat="42.294366" lon="2.768592">
        <ele>502.120</ele>
        <time>2020-10-17T16:40:19Z</time>
      </trkpt>
      <trkpt lat="42.294324" lon="2.768780">
        <ele>502.289</ele>
        <time>2020-10-17T16:40:23Z</time>
      </trkpt>
      <trkpt lat="42.294324" lon="2.768780">
        <ele>502.288</ele>
        <time>2020-10-17T16:40:23Z</time>
      </trkpt>
      <trkpt lat="42.294324" lon="2.768780">
        <ele>502.277</ele>
        <time>2020-10-17T16:40:23Z</time>
      </trkpt>
      <trkpt lat="42.294324" lon="2.768780">
        <ele>502.265</ele>
        <time>2020-10-17T16:40:23Z</time>
      </trkpt>
      <trkpt lat="42.294310" lon="2.768902">
        <ele>502.365</ele>
        <time>2020-10-17T16:40:25Z</time>
      </trkpt>
      <trkpt lat="42.294304" lon="2.768979">
        <ele>502.430</ele>
        <time>2020-10-17T16:40:26Z</time>
      </trkpt>
      <trkpt lat="42.294307" lon="2.769153">
        <ele>502.798</ele>
        <time>2020-10-17T16:40:28Z</time>
      </trkpt>
      <trkpt lat="42.294311" lon="2.769233">
        <ele>503.015</ele>
        <time>2020-10-17T16:40:29Z</time>
      </trkpt>
      <trkpt lat="42.294322" lon="2.769440">
        <ele>503.926</ele>
        <time>2020-10-17T16:40:32Z</time>
      </trkpt>
      <trkpt lat="42.294322" lon="2.769440">
        <ele>503.908</ele>
        <time>2020-10-17T16:40:32Z</time>
      </trkpt>
      <trkpt lat="42.294322" lon="2.769440">
        <ele>503.924</ele>
        <time>2020-10-17T16:40:32Z</time>
      </trkpt>
      <trkpt lat="42.294325" lon="2.769515">
        <ele>504.327</ele>
        <time>2020-10-17T16:40:33Z</time>
      </trkpt>
      <trkpt lat="42.294332" lon="2.769595">
        <ele>504.966</ele>
        <time>2020-10-17T16:40:34Z</time>
      </trkpt>
      <trkpt lat="42.294365" lon="2.769756">
        <ele>505.815</ele>
        <time>2020-10-17T16:40:36Z</time>
      </trkpt>
      <trkpt lat="42.294382" lon="2.769826">
        <ele>506.514</ele>
        <time>2020-10-17T16:40:37Z</time>
      </trkpt>
      <trkpt lat="42.294397" lon="2.769889">
        <ele>507.022</ele>
        <time>2020-10-17T16:40:38Z</time>
      </trkpt>
      <trkpt lat="42.294451" lon="2.770142">
        <ele>508.332</ele>
        <time>2020-10-17T16:40:42Z</time>
      </trkpt>
      <trkpt lat="42.294451" lon="2.770142">
        <ele>508.357</ele>
        <time>2020-10-17T16:40:42Z</time>
      </trkpt>
      <trkpt lat="42.294451" lon="2.770142">
        <ele>508.319</ele>
        <time>2020-10-17T16:40:42Z</time>
      </trkpt>
      <trkpt lat="42.294451" lon="2.770142">
        <ele>508.309</ele>
        <time>2020-10-17T16:40:42Z</time>
      </trkpt>
      <trkpt lat="42.294470" lon="2.770208">
        <ele>508.619</ele>
        <time>2020-10-17T16:40:43Z</time>
      </trkpt>
      <trkpt lat="42.294509" lon="2.770320">
        <ele>509.008</ele>
        <time>2020-10-17T16:40:45Z</time>
      </trkpt>
      <trkpt lat="42.294529" lon="2.770383">
        <ele>509.316</ele>
        <time>2020-10-17T16:40:46Z</time>
      </trkpt>
      <trkpt lat="42.294552" lon="2.770449">
        <ele>509.659</ele>
        <time>2020-10-17T16:40:47Z</time>
      </trkpt>
      <trkpt lat="42.294577" lon="2.770517">
        <ele>510.038</ele>
        <time>2020-10-17T16:40:48Z</time>
      </trkpt>
      <trkpt lat="42.294632" lon="2.770735">
        <ele>511.427</ele>
        <time>2020-10-17T16:40:52Z</time>
      </trkpt>
      <trkpt lat="42.294632" lon="2.770735">
        <ele>511.436</ele>
        <time>2020-10-17T16:40:52Z</time>
      </trkpt>
      <trkpt lat="42.294632" lon="2.770735">
        <ele>511.454</ele>
        <time>2020-10-17T16:40:52Z</time>
      </trkpt>
      <trkpt lat="42.294632" lon="2.770735">
        <ele>511.464</ele>
        <time>2020-10-17T16:40:52Z</time>
      </trkpt>
      <trkpt lat="42.294637" lon="2.770838">
        <ele>512.049</ele>
        <time>2020-10-17T16:40:54Z</time>
      </trkpt>
      <trkpt lat="42.294637" lon="2.770980">
        <ele>512.972</ele>
        <time>2020-10-17T16:40:56Z</time>
      </trkpt>
      <trkpt lat="42.294639" lon="2.771094">
        <ele>514.013</ele>
        <time>2020-10-17T16:40:58Z</time>
      </trkpt>
      <trkpt lat="42.294629" lon="2.771330">
        <ele>516.514</ele>
        <time>2020-10-17T16:41:02Z</time>
      </trkpt>
      <trkpt lat="42.294629" lon="2.771330">
        <ele>516.508</ele>
        <time>2020-10-17T16:41:02Z</time>
      </trkpt>
      <trkpt lat="42.294629" lon="2.771330">
        <ele>516.582</ele>
        <time>2020-10-17T16:41:02Z</time>
      </trkpt>
      <trkpt lat="42.294629" lon="2.771330">
        <ele>516.555</ele>
        <time>2020-10-17T16:41:02Z</time>
      </trkpt>
      <trkpt lat="42.294607" lon="2.771457">
        <ele>517.364</ele>
        <time>2020-10-17T16:41:04Z</time>
      </trkpt>
      <trkpt lat="42.294583" lon="2.771560">
        <ele>518.043</ele>
        <time>2020-10-17T16:41:06Z</time>
      </trkpt>
      <trkpt lat="42.294559" lon="2.771658">
        <ele>518.762</ele>
        <time>2020-10-17T16:41:08Z</time>
      </trkpt>
      <trkpt lat="42.294509" lon="2.771848">
        <ele>519.580</ele>
        <time>2020-10-17T16:41:11Z</time>
      </trkpt>
      <trkpt lat="42.294509" lon="2.771848">
        <ele>519.590</ele>
        <time>2020-10-17T16:41:11Z</time>
      </trkpt>
      <trkpt lat="42.294509" lon="2.771848">
        <ele>519.595</ele>
        <time>2020-10-17T16:41:11Z</time>
      </trkpt>
      <trkpt lat="42.294471" lon="2.771956">
        <ele>519.754</ele>
        <time>2020-10-17T16:41:13Z</time>
      </trkpt>
      <trkpt lat="42.294438" lon="2.772044">
        <ele>519.956</ele>
        <time>2020-10-17T16:41:15Z</time>
      </trkpt>
      <trkpt lat="42.294456" lon="2.772134">
        <ele>520.111</ele>
        <time>2020-10-17T16:41:17Z</time>
      </trkpt>
      <trkpt lat="42.294529" lon="2.772197">
        <ele>520.708</ele>
        <time>2020-10-17T16:41:19Z</time>
      </trkpt>
      <trkpt lat="42.294608" lon="2.772240">
        <ele>521.370</ele>
        <time>2020-10-17T16:41:21Z</time>
      </trkpt>
      <trkpt lat="42.294687" lon="2.772283">
        <ele>521.963</ele>
        <time>2020-10-17T16:41:23Z</time>
      </trkpt>
      <trkpt lat="42.294770" lon="2.772315">
        <ele>522.562</ele>
        <time>2020-10-17T16:41:25Z</time>
      </trkpt>
      <trkpt lat="42.294893" lon="2.772371">
        <ele>523.751</ele>
        <time>2020-10-17T16:41:29Z</time>
      </trkpt>
      <trkpt lat="42.294893" lon="2.772371">
        <ele>523.750</ele>
        <time>2020-10-17T16:41:29Z</time>
      </trkpt>
      <trkpt lat="42.294893" lon="2.772371">
        <ele>523.788</ele>
        <time>2020-10-17T16:41:29Z</time>
      </trkpt>
      <trkpt lat="42.294893" lon="2.772371">
        <ele>523.798</ele>
        <time>2020-10-17T16:41:29Z</time>
      </trkpt>
      <trkpt lat="42.294953" lon="2.772416">
        <ele>524.233</ele>
        <time>2020-10-17T16:41:31Z</time>
      </trkpt>
      <trkpt lat="42.295023" lon="2.772485">
        <ele>524.555</ele>
        <time>2020-10-17T16:41:33Z</time>
      </trkpt>
      <trkpt lat="42.295086" lon="2.772555">
        <ele>524.507</ele>
        <time>2020-10-17T16:41:35Z</time>
      </trkpt>
      <trkpt lat="42.295208" lon="2.772719">
        <ele>523.617</ele>
        <time>2020-10-17T16:41:39Z</time>
      </trkpt>
      <trkpt lat="42.295208" lon="2.772719">
        <ele>523.608</ele>
        <time>2020-10-17T16:41:39Z</time>
      </trkpt>
      <trkpt lat="42.295208" lon="2.772719">
        <ele>523.670</ele>
        <time>2020-10-17T16:41:39Z</time>
      </trkpt>
      <trkpt lat="42.295208" lon="2.772719">
        <ele>523.633</ele>
        <time>2020-10-17T16:41:39Z</time>
      </trkpt>
      <trkpt lat="42.295242" lon="2.772772">
        <ele>523.292</ele>
        <time>2020-10-17T16:41:40Z</time>
      </trkpt>
      <trkpt lat="42.295307" lon="2.772880">
        <ele>522.741</ele>
        <time>2020-10-17T16:41:42Z</time>
      </trkpt>
      <trkpt lat="42.295336" lon="2.772935">
        <ele>522.330</ele>
        <time>2020-10-17T16:41:43Z</time>
      </trkpt>
      <trkpt lat="42.295386" lon="2.773044">
        <ele>521.868</ele>
        <time>2020-10-17T16:41:45Z</time>
      </trkpt>
      <trkpt lat="42.295460" lon="2.773272">
        <ele>520.648</ele>
        <time>2020-10-17T16:41:49Z</time>
      </trkpt>
      <trkpt lat="42.295460" lon="2.773272">
        <ele>520.683</ele>
        <time>2020-10-17T16:41:49Z</time>
      </trkpt>
      <trkpt lat="42.295460" lon="2.773272">
        <ele>520.679</ele>
        <time>2020-10-17T16:41:49Z</time>
      </trkpt>
      <trkpt lat="42.295460" lon="2.773272">
        <ele>520.605</ele>
        <time>2020-10-17T16:41:49Z</time>
      </trkpt>
      <trkpt lat="42.295487" lon="2.773412">
        <ele>520.525</ele>
        <time>2020-10-17T16:41:51Z</time>
      </trkpt>
      <trkpt lat="42.295503" lon="2.773479">
        <ele>520.508</ele>
        <time>2020-10-17T16:41:52Z</time>
      </trkpt>
      <trkpt lat="42.295532" lon="2.773607">
        <ele>520.542</ele>
        <time>2020-10-17T16:41:54Z</time>
      </trkpt>
      <trkpt lat="42.295545" lon="2.773667">
        <ele>520.575</ele>
        <time>2020-10-17T16:41:55Z</time>
      </trkpt>
      <trkpt lat="42.295609" lon="2.773908">
        <ele>520.074</ele>
        <time>2020-10-17T16:41:59Z</time>
      </trkpt>
      <trkpt lat="42.295609" lon="2.773908">
        <ele>520.073</ele>
        <time>2020-10-17T16:41:59Z</time>
      </trkpt>
      <trkpt lat="42.295609" lon="2.773908">
        <ele>520.012</ele>
        <time>2020-10-17T16:41:59Z</time>
      </trkpt>
      <trkpt lat="42.295609" lon="2.773908">
        <ele>520.040</ele>
        <time>2020-10-17T16:41:59Z</time>
      </trkpt>
      <trkpt lat="42.295645" lon="2.774048">
        <ele>519.810</ele>
        <time>2020-10-17T16:42:01Z</time>
      </trkpt>
      <trkpt lat="42.295675" lon="2.774200">
        <ele>519.775</ele>
        <time>2020-10-17T16:42:03Z</time>
      </trkpt>
      <trkpt lat="42.295686" lon="2.774275">
        <ele>519.718</ele>
        <time>2020-10-17T16:42:04Z</time>
      </trkpt>
      <trkpt lat="42.295691" lon="2.774604">
        <ele>519.798</ele>
        <time>2020-10-17T16:42:09Z</time>
      </trkpt>
      <trkpt lat="42.295691" lon="2.774604">
        <ele>519.717</ele>
        <time>2020-10-17T16:42:09Z</time>
      </trkpt>
      <trkpt lat="42.295691" lon="2.774604">
        <ele>519.708</ele>
        <time>2020-10-17T16:42:09Z</time>
      </trkpt>
      <trkpt lat="42.295691" lon="2.774604">
        <ele>519.726</ele>
        <time>2020-10-17T16:42:09Z</time>
      </trkpt>
      <trkpt lat="42.295683" lon="2.774697">
        <ele>519.879</ele>
        <time>2020-10-17T16:42:11Z</time>
      </trkpt>
      <trkpt lat="42.295678" lon="2.774805">
        <ele>520.048</ele>
        <time>2020-10-17T16:42:13Z</time>
      </trkpt>
      <trkpt lat="42.295657" lon="2.774931">
        <ele>520.297</ele>
        <time>2020-10-17T16:42:15Z</time>
      </trkpt>
      <trkpt lat="42.295583" lon="2.775209">
        <ele>520.956</ele>
        <time>2020-10-17T16:42:19Z</time>
      </trkpt>
      <trkpt lat="42.295583" lon="2.775209">
        <ele>520.914</ele>
        <time>2020-10-17T16:42:19Z</time>
      </trkpt>
      <trkpt lat="42.295583" lon="2.775209">
        <ele>520.974</ele>
        <time>2020-10-17T16:42:19Z</time>
      </trkpt>
      <trkpt lat="42.295583" lon="2.775209">
        <ele>520.919</ele>
        <time>2020-10-17T16:42:19Z</time>
      </trkpt>
      <trkpt lat="42.295570" lon="2.775285">
        <ele>521.112</ele>
        <time>2020-10-17T16:42:20Z</time>
      </trkpt>
      <trkpt lat="42.295545" lon="2.775435">
        <ele>521.332</ele>
        <time>2020-10-17T16:42:22Z</time>
      </trkpt>
      <trkpt lat="42.295509" lon="2.775581">
        <ele>521.505</ele>
        <time>2020-10-17T16:42:24Z</time>
      </trkpt>
      <trkpt lat="42.295487" lon="2.775653">
        <ele>521.508</ele>
        <time>2020-10-17T16:42:25Z</time>
      </trkpt>
      <trkpt lat="42.295413" lon="2.775883">
        <ele>521.296</ele>
        <time>2020-10-17T16:42:29Z</time>
      </trkpt>
      <trkpt lat="42.295413" lon="2.775883">
        <ele>521.259</ele>
        <time>2020-10-17T16:42:29Z</time>
      </trkpt>
      <trkpt lat="42.295413" lon="2.775883">
        <ele>521.248</ele>
        <time>2020-10-17T16:42:29Z</time>
      </trkpt>
      <trkpt lat="42.295413" lon="2.775883">
        <ele>521.257</ele>
        <time>2020-10-17T16:42:29Z</time>
      </trkpt>
      <trkpt lat="42.295375" lon="2.775983">
        <ele>521.236</ele>
        <time>2020-10-17T16:42:31Z</time>
      </trkpt>
      <trkpt lat="42.295339" lon="2.776076">
        <ele>521.264</ele>
        <time>2020-10-17T16:42:33Z</time>
      </trkpt>
      <trkpt lat="42.295309" lon="2.776160">
        <ele>521.294</ele>
        <time>2020-10-17T16:42:35Z</time>
      </trkpt>
      <trkpt lat="42.295231" lon="2.776290">
        <ele>520.799</ele>
        <time>2020-10-17T16:42:39Z</time>
      </trkpt>
      <trkpt lat="42.295231" lon="2.776290">
        <ele>520.726</ele>
        <time>2020-10-17T16:42:39Z</time>
      </trkpt>
      <trkpt lat="42.295231" lon="2.776290">
        <ele>520.747</ele>
        <time>2020-10-17T16:42:39Z</time>
      </trkpt>
      <trkpt lat="42.295231" lon="2.776290">
        <ele>520.711</ele>
        <time>2020-10-17T16:42:39Z</time>
      </trkpt>
      <trkpt lat="42.295231" lon="2.776290">
        <ele>520.708</ele>
        <time>2020-10-17T16:42:39Z</time>
      </trkpt>
      <trkpt lat="42.295231" lon="2.776290">
        <ele>520.787</ele>
        <time>2020-10-17T16:42:39Z</time>
      </trkpt>
      <trkpt lat="42.295231" lon="2.776290">
        <ele>520.720</ele>
        <time>2020-10-17T16:42:39Z</time>
      </trkpt>
      <trkpt lat="42.295194" lon="2.776341">
        <ele>520.699</ele>
        <time>2020-10-17T16:42:40Z</time>
      </trkpt>
      <trkpt lat="42.295162" lon="2.776388">
        <ele>520.588</ele>
        <time>2020-10-17T16:42:41Z</time>
      </trkpt>
      <trkpt lat="42.295130" lon="2.776436">
        <ele>520.457</ele>
        <time>2020-10-17T16:42:43Z</time>
      </trkpt>
      <trkpt lat="42.294724" lon="2.777613">
        <ele>513.935</ele>
        <time>2020-10-17T16:43:10Z</time>
      </trkpt>
      <trkpt lat="42.294724" lon="2.777613">
        <ele>513.955</ele>
        <time>2020-10-17T16:43:10Z</time>
      </trkpt>
      <trkpt lat="42.294724" lon="2.777613">
        <ele>513.930</ele>
        <time>2020-10-17T16:43:10Z</time>
      </trkpt>
      <trkpt lat="42.294724" lon="2.777613">
        <ele>513.999</ele>
        <time>2020-10-17T16:43:10Z</time>
      </trkpt>
      <trkpt lat="42.294724" lon="2.777613">
        <ele>513.907</ele>
        <time>2020-10-17T16:43:10Z</time>
      </trkpt>
      <trkpt lat="42.294724" lon="2.777613">
        <ele>513.927</ele>
        <time>2020-10-17T16:43:10Z</time>
      </trkpt>
      <trkpt lat="42.294703" lon="2.777700">
        <ele>512.608</ele>
        <time>2020-10-17T16:43:12Z</time>
      </trkpt>
      <trkpt lat="42.294682" lon="2.777771">
        <ele>511.654</ele>
        <time>2020-10-17T16:43:13Z</time>
      </trkpt>
      <trkpt lat="42.294662" lon="2.777836">
        <ele>510.437</ele>
        <time>2020-10-17T16:43:14Z</time>
      </trkpt>
      <trkpt lat="42.294632" lon="2.777920">
        <ele>509.466</ele>
        <time>2020-10-17T16:43:16Z</time>
      </trkpt>
      <trkpt lat="42.294549" lon="2.778080">
        <ele>507.125</ele>
        <time>2020-10-17T16:43:19Z</time>
      </trkpt>
      <trkpt lat="42.294549" lon="2.778080">
        <ele>507.194</ele>
        <time>2020-10-17T16:43:19Z</time>
      </trkpt>
      <trkpt lat="42.294549" lon="2.778080">
        <ele>507.112</ele>
        <time>2020-10-17T16:43:19Z</time>
      </trkpt>
      <trkpt lat="42.294549" lon="2.778080">
        <ele>507.162</ele>
        <time>2020-10-17T16:43:19Z</time>
      </trkpt>
      <trkpt lat="42.294549" lon="2.778080">
        <ele>507.187</ele>
        <time>2020-10-17T16:43:19Z</time>
      </trkpt>
      <trkpt lat="42.294509" lon="2.778149">
        <ele>506.711</ele>
        <time>2020-10-17T16:43:21Z</time>
      </trkpt>
      <trkpt lat="42.294453" lon="2.778213">
        <ele>506.121</ele>
        <time>2020-10-17T16:43:22Z</time>
      </trkpt>
      <trkpt lat="42.294405" lon="2.778216">
        <ele>505.603</ele>
        <time>2020-10-17T16:43:24Z</time>
      </trkpt>
      <trkpt lat="42.294367" lon="2.778250">
        <ele>505.108</ele>
        <time>2020-10-17T16:43:25Z</time>
      </trkpt>
      <trkpt lat="42.294114" lon="2.778620">
        <ele>502.966</ele>
        <time>2020-10-17T16:43:35Z</time>
      </trkpt>
      <trkpt lat="42.294015" lon="2.778743">
        <ele>498.859</ele>
        <time>2020-10-17T16:43:38Z</time>
      </trkpt>
      <trkpt lat="42.294015" lon="2.778743">
        <ele>498.848</ele>
        <time>2020-10-17T16:43:38Z</time>
      </trkpt>
      <trkpt lat="42.294015" lon="2.778743">
        <ele>498.847</ele>
        <time>2020-10-17T16:43:38Z</time>
      </trkpt>
      <trkpt lat="42.294015" lon="2.778743">
        <ele>498.836</ele>
        <time>2020-10-17T16:43:38Z</time>
      </trkpt>
      <trkpt lat="42.293957" lon="2.778805">
        <ele>497.464</ele>
        <time>2020-10-17T16:43:39Z</time>
      </trkpt>
      <trkpt lat="42.293913" lon="2.778850">
        <ele>496.234</ele>
        <time>2020-10-17T16:43:40Z</time>
      </trkpt>
      <trkpt lat="42.293854" lon="2.778903">
        <ele>495.279</ele>
        <time>2020-10-17T16:43:42Z</time>
      </trkpt>
      <trkpt lat="42.293813" lon="2.778928">
        <ele>494.258</ele>
        <time>2020-10-17T16:43:43Z</time>
      </trkpt>
      <trkpt lat="42.293784" lon="2.778978">
        <ele>493.052</ele>
        <time>2020-10-17T16:43:44Z</time>
      </trkpt>
      <trkpt lat="42.293728" lon="2.779197">
        <ele>491.417</ele>
        <time>2020-10-17T16:43:49Z</time>
      </trkpt>
      <trkpt lat="42.293703" lon="2.779289">
        <ele>490.108</ele>
        <time>2020-10-17T16:43:50Z</time>
      </trkpt>
      <trkpt lat="42.293669" lon="2.779399">
        <ele>489.160</ele>
        <time>2020-10-17T16:43:52Z</time>
      </trkpt>
      <trkpt lat="42.293639" lon="2.779503">
        <ele>488.263</ele>
        <time>2020-10-17T16:43:54Z</time>
      </trkpt>
      <trkpt lat="42.293582" lon="2.779692">
        <ele>486.082</ele>
        <time>2020-10-17T16:43:58Z</time>
      </trkpt>
      <trkpt lat="42.293582" lon="2.779692">
        <ele>486.031</ele>
        <time>2020-10-17T16:43:58Z</time>
      </trkpt>
      <trkpt lat="42.293582" lon="2.779692">
        <ele>486.060</ele>
        <time>2020-10-17T16:43:58Z</time>
      </trkpt>
      <trkpt lat="42.293582" lon="2.779692">
        <ele>486.098</ele>
        <time>2020-10-17T16:43:58Z</time>
      </trkpt>
      <trkpt lat="42.293553" lon="2.779769">
        <ele>485.398</ele>
        <time>2020-10-17T16:44:00Z</time>
      </trkpt>
      <trkpt lat="42.293520" lon="2.779859">
        <ele>484.783</ele>
        <time>2020-10-17T16:44:02Z</time>
      </trkpt>
      <trkpt lat="42.293485" lon="2.779958">
        <ele>484.345</ele>
        <time>2020-10-17T16:44:04Z</time>
      </trkpt>
      <trkpt lat="42.293423" lon="2.780143">
        <ele>482.947</ele>
        <time>2020-10-17T16:44:08Z</time>
      </trkpt>
      <trkpt lat="42.293423" lon="2.780143">
        <ele>482.911</ele>
        <time>2020-10-17T16:44:08Z</time>
      </trkpt>
      <trkpt lat="42.293423" lon="2.780143">
        <ele>482.908</ele>
        <time>2020-10-17T16:44:08Z</time>
      </trkpt>
      <trkpt lat="42.293423" lon="2.780143">
        <ele>482.959</ele>
        <time>2020-10-17T16:44:08Z</time>
      </trkpt>
      <trkpt lat="42.293402" lon="2.780209">
        <ele>482.472</ele>
        <time>2020-10-17T16:44:09Z</time>
      </trkpt>
      <trkpt lat="42.293383" lon="2.780272">
        <ele>482.051</ele>
        <time>2020-10-17T16:44:10Z</time>
      </trkpt>
      <trkpt lat="42.293355" lon="2.780384">
        <ele>481.540</ele>
        <time>2020-10-17T16:44:12Z</time>
      </trkpt>
      <trkpt lat="42.293334" lon="2.780499">
        <ele>480.939</ele>
        <time>2020-10-17T16:44:14Z</time>
      </trkpt>
      <trkpt lat="42.293304" lon="2.780633">
        <ele>479.087</ele>
        <time>2020-10-17T16:44:18Z</time>
      </trkpt>
      <trkpt lat="42.293304" lon="2.780633">
        <ele>479.067</ele>
        <time>2020-10-17T16:44:18Z</time>
      </trkpt>
      <trkpt lat="42.293304" lon="2.780633">
        <ele>479.042</ele>
        <time>2020-10-17T16:44:18Z</time>
      </trkpt>
      <trkpt lat="42.293304" lon="2.780633">
        <ele>479.077</ele>
        <time>2020-10-17T16:44:18Z</time>
      </trkpt>
      <trkpt lat="42.293315" lon="2.780702">
        <ele>478.161</ele>
        <time>2020-10-17T16:45:01Z</time>
      </trkpt>
      <trkpt lat="42.293300" lon="2.780770">
        <ele>477.227</ele>
        <time>2020-10-17T16:45:04Z</time>
      </trkpt>
      <trkpt lat="42.293220" lon="2.780881">
        <ele>475.608</ele>
        <time>2020-10-17T16:45:08Z</time>
      </trkpt>
      <trkpt lat="42.293220" lon="2.780881">
        <ele>475.682</ele>
        <time>2020-10-17T16:45:08Z</time>
      </trkpt>
      <trkpt lat="42.293220" lon="2.780881">
        <ele>475.655</ele>
        <time>2020-10-17T16:45:08Z</time>
      </trkpt>
      <trkpt lat="42.293220" lon="2.780881">
        <ele>475.624</ele>
        <time>2020-10-17T16:45:08Z</time>
      </trkpt>
      <trkpt lat="42.293175" lon="2.780922">
        <ele>475.433</ele>
        <time>2020-10-17T16:45:10Z</time>
      </trkpt>
      <trkpt lat="42.293134" lon="2.780956">
        <ele>475.252</ele>
        <time>2020-10-17T16:45:12Z</time>
      </trkpt>
      <trkpt lat="42.293092" lon="2.780992">
        <ele>474.940</ele>
        <time>2020-10-17T16:45:14Z</time>
      </trkpt>
      <trkpt lat="42.293014" lon="2.781062">
        <ele>474.120</ele>
        <time>2020-10-17T16:45:18Z</time>
      </trkpt>
      <trkpt lat="42.293014" lon="2.781062">
        <ele>474.135</ele>
        <time>2020-10-17T16:45:18Z</time>
      </trkpt>
      <trkpt lat="42.293014" lon="2.781062">
        <ele>474.196</ele>
        <time>2020-10-17T16:45:18Z</time>
      </trkpt>
      <trkpt lat="42.293014" lon="2.781062">
        <ele>474.131</ele>
        <time>2020-10-17T16:45:18Z</time>
      </trkpt>
      <trkpt lat="42.292971" lon="2.781101">
        <ele>473.824</ele>
        <time>2020-10-17T16:45:20Z</time>
      </trkpt>
      <trkpt lat="42.292935" lon="2.781144">
        <ele>473.408</ele>
        <time>2020-10-17T16:45:22Z</time>
      </trkpt>
      <trkpt lat="42.292814" lon="2.781268">
        <ele>471.314</ele>
        <time>2020-10-17T16:45:28Z</time>
      </trkpt>
      <trkpt lat="42.292814" lon="2.781268">
        <ele>471.317</ele>
        <time>2020-10-17T16:45:28Z</time>
      </trkpt>
      <trkpt lat="42.292814" lon="2.781268">
        <ele>471.396</ele>
        <time>2020-10-17T16:45:28Z</time>
      </trkpt>
      <trkpt lat="42.292814" lon="2.781268">
        <ele>471.395</ele>
        <time>2020-10-17T16:45:28Z</time>
      </trkpt>
      <trkpt lat="42.292755" lon="2.781300">
        <ele>470.874</ele>
        <time>2020-10-17T16:45:30Z</time>
      </trkpt>
      <trkpt lat="42.292683" lon="2.781331">
        <ele>470.362</ele>
        <time>2020-10-17T16:45:32Z</time>
      </trkpt>
      <trkpt lat="42.292609" lon="2.781348">
        <ele>469.832</ele>
        <time>2020-10-17T16:45:34Z</time>
      </trkpt>
      <trkpt lat="42.292432" lon="2.781346">
        <ele>468.577</ele>
        <time>2020-10-17T16:45:38Z</time>
      </trkpt>
      <trkpt lat="42.292432" lon="2.781346">
        <ele>468.559</ele>
        <time>2020-10-17T16:45:38Z</time>
      </trkpt>
      <trkpt lat="42.292432" lon="2.781346">
        <ele>468.503</ele>
        <time>2020-10-17T16:45:38Z</time>
      </trkpt>
      <trkpt lat="42.292432" lon="2.781346">
        <ele>468.523</ele>
        <time>2020-10-17T16:45:38Z</time>
      </trkpt>
      <trkpt lat="42.292352" lon="2.781353">
        <ele>468.008</ele>
        <time>2020-10-17T16:45:40Z</time>
      </trkpt>
      <trkpt lat="42.292281" lon="2.781369">
        <ele>467.460</ele>
        <time>2020-10-17T16:45:42Z</time>
      </trkpt>
      <trkpt lat="42.292213" lon="2.781389">
        <ele>466.883</ele>
        <time>2020-10-17T16:45:44Z</time>
      </trkpt>
      <trkpt lat="42.292090" lon="2.781415">
        <ele>465.542</ele>
        <time>2020-10-17T16:45:47Z</time>
      </trkpt>
      <trkpt lat="42.292090" lon="2.781415">
        <ele>465.541</ele>
        <time>2020-10-17T16:45:47Z</time>
      </trkpt>
      <trkpt lat="42.292090" lon="2.781415">
        <ele>465.510</ele>
        <time>2020-10-17T16:45:47Z</time>
      </trkpt>
      <trkpt lat="42.292045" lon="2.781424">
        <ele>465.148</ele>
        <time>2020-10-17T16:45:48Z</time>
      </trkpt>
      <trkpt lat="42.291962" lon="2.781435">
        <ele>464.738</ele>
        <time>2020-10-17T16:45:50Z</time>
      </trkpt>
      <trkpt lat="42.291865" lon="2.781438">
        <ele>464.683</ele>
        <time>2020-10-17T16:45:52Z</time>
      </trkpt>
      <trkpt lat="42.291774" lon="2.781437">
        <ele>464.791</ele>
        <time>2020-10-17T16:45:54Z</time>
      </trkpt>
      <trkpt lat="42.291575" lon="2.781440">
        <ele>464.581</ele>
        <time>2020-10-17T16:45:58Z</time>
      </trkpt>
      <trkpt lat="42.291575" lon="2.781440">
        <ele>464.519</ele>
        <time>2020-10-17T16:45:58Z</time>
      </trkpt>
      <trkpt lat="42.291575" lon="2.781440">
        <ele>464.508</ele>
        <time>2020-10-17T16:45:58Z</time>
      </trkpt>
      <trkpt lat="42.291575" lon="2.781440">
        <ele>464.564</ele>
        <time>2020-10-17T16:45:58Z</time>
      </trkpt>
      <trkpt lat="42.291499" lon="2.781457">
        <ele>464.117</ele>
        <time>2020-10-17T16:46:00Z</time>
      </trkpt>
      <trkpt lat="42.291434" lon="2.781456">
        <ele>463.596</ele>
        <time>2020-10-17T16:46:02Z</time>
      </trkpt>
      <trkpt lat="42.291342" lon="2.781441">
        <ele>462.785</ele>
        <time>2020-10-17T16:46:04Z</time>
      </trkpt>
      <trkpt lat="42.291126" lon="2.781422">
        <ele>459.554</ele>
        <time>2020-10-17T16:46:08Z</time>
      </trkpt>
      <trkpt lat="42.291126" lon="2.781422">
        <ele>459.552</ele>
        <time>2020-10-17T16:46:08Z</time>
      </trkpt>
      <trkpt lat="42.291126" lon="2.781422">
        <ele>459.542</ele>
        <time>2020-10-17T16:46:08Z</time>
      </trkpt>
      <trkpt lat="42.291126" lon="2.781422">
        <ele>459.517</ele>
        <time>2020-10-17T16:46:08Z</time>
      </trkpt>
      <trkpt lat="42.291041" lon="2.781447">
        <ele>458.358</ele>
        <time>2020-10-17T16:46:10Z</time>
      </trkpt>
      <trkpt lat="42.290995" lon="2.781460">
        <ele>457.252</ele>
        <time>2020-10-17T16:46:11Z</time>
      </trkpt>
      <trkpt lat="42.290950" lon="2.781470">
        <ele>456.217</ele>
        <time>2020-10-17T16:46:12Z</time>
      </trkpt>
      <trkpt lat="42.290882" lon="2.781483">
        <ele>454.908</ele>
        <time>2020-10-17T16:46:14Z</time>
      </trkpt>
      <trkpt lat="42.290736" lon="2.781512">
        <ele>450.720</ele>
        <time>2020-10-17T16:46:18Z</time>
      </trkpt>
      <trkpt lat="42.290736" lon="2.781512">
        <ele>450.713</ele>
        <time>2020-10-17T16:46:18Z</time>
      </trkpt>
      <trkpt lat="42.290736" lon="2.781512">
        <ele>450.782</ele>
        <time>2020-10-17T16:46:18Z</time>
      </trkpt>
      <trkpt lat="42.290736" lon="2.781512">
        <ele>450.711</ele>
        <time>2020-10-17T16:46:18Z</time>
      </trkpt>
      <trkpt lat="42.290671" lon="2.781517">
        <ele>449.510</ele>
        <time>2020-10-17T16:46:20Z</time>
      </trkpt>
      <trkpt lat="42.290602" lon="2.781527">
        <ele>448.598</ele>
        <time>2020-10-17T16:46:22Z</time>
      </trkpt>
      <trkpt lat="42.290533" lon="2.781551">
        <ele>447.668</ele>
        <time>2020-10-17T16:46:24Z</time>
      </trkpt>
      <trkpt lat="42.290385" lon="2.781679">
        <ele>445.723</ele>
        <time>2020-10-17T16:46:28Z</time>
      </trkpt>
      <trkpt lat="42.290385" lon="2.781679">
        <ele>445.744</ele>
        <time>2020-10-17T16:46:28Z</time>
      </trkpt>
      <trkpt lat="42.290385" lon="2.781679">
        <ele>445.705</ele>
        <time>2020-10-17T16:46:28Z</time>
      </trkpt>
      <trkpt lat="42.290385" lon="2.781679">
        <ele>445.715</ele>
        <time>2020-10-17T16:46:28Z</time>
      </trkpt>
      <trkpt lat="42.290326" lon="2.781719">
        <ele>445.208</ele>
        <time>2020-10-17T16:46:30Z</time>
      </trkpt>
      <trkpt lat="42.290269" lon="2.781747">
        <ele>444.779</ele>
        <time>2020-10-17T16:46:32Z</time>
      </trkpt>
      <trkpt lat="42.290187" lon="2.781786">
        <ele>444.252</ele>
        <time>2020-10-17T16:46:34Z</time>
      </trkpt>
      <trkpt lat="42.289965" lon="2.781886">
        <ele>442.891</ele>
        <time>2020-10-17T16:46:38Z</time>
      </trkpt>
      <trkpt lat="42.289965" lon="2.781886">
        <ele>442.890</ele>
        <time>2020-10-17T16:46:38Z</time>
      </trkpt>
      <trkpt lat="42.289965" lon="2.781886">
        <ele>442.899</ele>
        <time>2020-10-17T16:46:38Z</time>
      </trkpt>
      <trkpt lat="42.289965" lon="2.781886">
        <ele>442.877</ele>
        <time>2020-10-17T16:46:38Z</time>
      </trkpt>
      <trkpt lat="42.289910" lon="2.781914">
        <ele>442.447</ele>
        <time>2020-10-17T16:46:39Z</time>
      </trkpt>
      <trkpt lat="42.289800" lon="2.781975">
        <ele>441.722</ele>
        <time>2020-10-17T16:46:41Z</time>
      </trkpt>
      <trkpt lat="42.289695" lon="2.782031">
        <ele>440.897</ele>
        <time>2020-10-17T16:46:43Z</time>
      </trkpt>
      <trkpt lat="42.289646" lon="2.782054">
        <ele>440.223</ele>
        <time>2020-10-17T16:46:44Z</time>
      </trkpt>
      <trkpt lat="42.289427" lon="2.782165">
        <ele>438.125</ele>
        <time>2020-10-17T16:46:48Z</time>
      </trkpt>
      <trkpt lat="42.289427" lon="2.782165">
        <ele>438.108</ele>
        <time>2020-10-17T16:46:48Z</time>
      </trkpt>
      <trkpt lat="42.289427" lon="2.782165">
        <ele>438.164</ele>
        <time>2020-10-17T16:46:48Z</time>
      </trkpt>
      <trkpt lat="42.289427" lon="2.782165">
        <ele>438.177</ele>
        <time>2020-10-17T16:46:48Z</time>
      </trkpt>
      <trkpt lat="42.289355" lon="2.782195">
        <ele>437.666</ele>
        <time>2020-10-17T16:46:49Z</time>
      </trkpt>
      <trkpt lat="42.289211" lon="2.782261">
        <ele>436.685</ele>
        <time>2020-10-17T16:46:51Z</time>
      </trkpt>
      <trkpt lat="42.289145" lon="2.782297">
        <ele>435.744</ele>
        <time>2020-10-17T16:46:52Z</time>
      </trkpt>
      <trkpt lat="42.289085" lon="2.782334">
        <ele>434.932</ele>
        <time>2020-10-17T16:46:53Z</time>
      </trkpt>
      <trkpt lat="42.289029" lon="2.782372">
        <ele>434.352</ele>
        <time>2020-10-17T16:46:54Z</time>
      </trkpt>
      <trkpt lat="42.288973" lon="2.782410">
        <ele>433.867</ele>
        <time>2020-10-17T16:46:55Z</time>
      </trkpt>
      <trkpt lat="42.288854" lon="2.782476">
        <ele>433.188</ele>
        <time>2020-10-17T16:46:57Z</time>
      </trkpt>
      <trkpt lat="42.288788" lon="2.782496">
        <ele>432.524</ele>
        <time>2020-10-17T16:46:58Z</time>
      </trkpt>
      <trkpt lat="42.288719" lon="2.782505">
        <ele>432.026</ele>
        <time>2020-10-17T16:46:59Z</time>
      </trkpt>
      <trkpt lat="42.288448" lon="2.782472">
        <ele>430.508</ele>
        <time>2020-10-17T16:47:03Z</time>
      </trkpt>
      <trkpt lat="42.288448" lon="2.782472">
        <ele>430.563</ele>
        <time>2020-10-17T16:47:03Z</time>
      </trkpt>
      <trkpt lat="42.288448" lon="2.782472">
        <ele>430.586</ele>
        <time>2020-10-17T16:47:03Z</time>
      </trkpt>
      <trkpt lat="42.288448" lon="2.782472">
        <ele>430.565</ele>
        <time>2020-10-17T16:47:03Z</time>
      </trkpt>
      <trkpt lat="42.288313" lon="2.782457">
        <ele>430.064</ele>
        <time>2020-10-17T16:47:05Z</time>
      </trkpt>
      <trkpt lat="42.288185" lon="2.782457">
        <ele>429.333</ele>
        <time>2020-10-17T16:47:07Z</time>
      </trkpt>
      <trkpt lat="42.288075" lon="2.782480">
        <ele>428.661</ele>
        <time>2020-10-17T16:47:09Z</time>
      </trkpt>
      <trkpt lat="42.287847" lon="2.782613">
        <ele>427.371</ele>
        <time>2020-10-17T16:47:13Z</time>
      </trkpt>
      <trkpt lat="42.287847" lon="2.782613">
        <ele>427.326</ele>
        <time>2020-10-17T16:47:13Z</time>
      </trkpt>
      <trkpt lat="42.287847" lon="2.782613">
        <ele>427.311</ele>
        <time>2020-10-17T16:47:13Z</time>
      </trkpt>
      <trkpt lat="42.287847" lon="2.782613">
        <ele>427.321</ele>
        <time>2020-10-17T16:47:13Z</time>
      </trkpt>
      <trkpt lat="42.287749" lon="2.782674">
        <ele>427.003</ele>
        <time>2020-10-17T16:47:15Z</time>
      </trkpt>
      <trkpt lat="42.287672" lon="2.782711">
        <ele>426.708</ele>
        <time>2020-10-17T16:47:17Z</time>
      </trkpt>
      <trkpt lat="42.287592" lon="2.782723">
        <ele>426.326</ele>
        <time>2020-10-17T16:47:19Z</time>
      </trkpt>
      <trkpt lat="42.287394" lon="2.782739">
        <ele>425.319</ele>
        <time>2020-10-17T16:47:23Z</time>
      </trkpt>
      <trkpt lat="42.287394" lon="2.782739">
        <ele>425.348</ele>
        <time>2020-10-17T16:47:23Z</time>
      </trkpt>
      <trkpt lat="42.287394" lon="2.782739">
        <ele>425.387</ele>
        <time>2020-10-17T16:47:23Z</time>
      </trkpt>
      <trkpt lat="42.287394" lon="2.782739">
        <ele>425.316</ele>
        <time>2020-10-17T16:47:23Z</time>
      </trkpt>
      <trkpt lat="42.287262" lon="2.782753">
        <ele>425.174</ele>
        <time>2020-10-17T16:47:25Z</time>
      </trkpt>
      <trkpt lat="42.287113" lon="2.782762">
        <ele>424.834</ele>
        <time>2020-10-17T16:47:27Z</time>
      </trkpt>
      <trkpt lat="42.287036" lon="2.782763">
        <ele>424.539</ele>
        <time>2020-10-17T16:47:28Z</time>
      </trkpt>
      <trkpt lat="42.286804" lon="2.782745">
        <ele>423.855</ele>
        <time>2020-10-17T16:47:32Z</time>
      </trkpt>
      <trkpt lat="42.286804" lon="2.782745">
        <ele>423.807</ele>
        <time>2020-10-17T16:47:32Z</time>
      </trkpt>
      <trkpt lat="42.286804" lon="2.782745">
        <ele>423.817</ele>
        <time>2020-10-17T16:47:32Z</time>
      </trkpt>
      <trkpt lat="42.286726" lon="2.782738">
        <ele>423.608</ele>
        <time>2020-10-17T16:47:34Z</time>
      </trkpt>
      <trkpt lat="42.286726" lon="2.782738">
        <ele>423.660</ele>
        <time>2020-10-17T16:47:34Z</time>
      </trkpt>
      <trkpt lat="42.286661" lon="2.782760">
        <ele>423.413</ele>
        <time>2020-10-17T16:49:25Z</time>
      </trkpt>
      <trkpt lat="42.286593" lon="2.782775">
        <ele>423.462</ele>
        <time>2020-10-17T16:49:27Z</time>
      </trkpt>
      <trkpt lat="42.286447" lon="2.782831">
        <ele>424.111</ele>
        <time>2020-10-17T16:49:31Z</time>
      </trkpt>
      <trkpt lat="42.286447" lon="2.782831">
        <ele>424.130</ele>
        <time>2020-10-17T16:49:31Z</time>
      </trkpt>
      <trkpt lat="42.286447" lon="2.782831">
        <ele>424.118</ele>
        <time>2020-10-17T16:49:31Z</time>
      </trkpt>
      <trkpt lat="42.286447" lon="2.782831">
        <ele>424.128</ele>
        <time>2020-10-17T16:49:31Z</time>
      </trkpt>
      <trkpt lat="42.286372" lon="2.782832">
        <ele>424.553</ele>
        <time>2020-10-17T16:49:33Z</time>
      </trkpt>
      <trkpt lat="42.286298" lon="2.782811">
        <ele>424.897</ele>
        <time>2020-10-17T16:49:35Z</time>
      </trkpt>
      <trkpt lat="42.286229" lon="2.782798">
        <ele>425.523</ele>
        <time>2020-10-17T16:49:37Z</time>
      </trkpt>
      <trkpt lat="42.286150" lon="2.782783">
        <ele>426.525</ele>
        <time>2020-10-17T16:49:39Z</time>
      </trkpt>
      <trkpt lat="42.286077" lon="2.782758">
        <ele>427.408</ele>
        <time>2020-10-17T16:49:41Z</time>
      </trkpt>
      <trkpt lat="42.285891" lon="2.782767">
        <ele>428.534</ele>
        <time>2020-10-17T16:49:45Z</time>
      </trkpt>
      <trkpt lat="42.285891" lon="2.782767">
        <ele>428.587</ele>
        <time>2020-10-17T16:49:45Z</time>
      </trkpt>
      <trkpt lat="42.285891" lon="2.782767">
        <ele>428.596</ele>
        <time>2020-10-17T16:49:45Z</time>
      </trkpt>
      <trkpt lat="42.285891" lon="2.782767">
        <ele>428.535</ele>
        <time>2020-10-17T16:49:45Z</time>
      </trkpt>
      <trkpt lat="42.285841" lon="2.782793">
        <ele>428.624</ele>
        <time>2020-10-17T16:49:46Z</time>
      </trkpt>
      <trkpt lat="42.285745" lon="2.782842">
        <ele>428.762</ele>
        <time>2020-10-17T16:49:48Z</time>
      </trkpt>
      <trkpt lat="42.285670" lon="2.782867">
        <ele>429.072</ele>
        <time>2020-10-17T16:49:50Z</time>
      </trkpt>
      <trkpt lat="42.285598" lon="2.782897">
        <ele>429.487</ele>
        <time>2020-10-17T16:49:52Z</time>
      </trkpt>
      <trkpt lat="42.285543" lon="2.782939">
        <ele>429.965</ele>
        <time>2020-10-17T16:49:54Z</time>
      </trkpt>
      <trkpt lat="42.285378" lon="2.783111">
        <ele>431.468</ele>
        <time>2020-10-17T16:49:59Z</time>
      </trkpt>
      <trkpt lat="42.285378" lon="2.783111">
        <ele>431.414</ele>
        <time>2020-10-17T16:49:59Z</time>
      </trkpt>
      <trkpt lat="42.285378" lon="2.783111">
        <ele>431.408</ele>
        <time>2020-10-17T16:49:59Z</time>
      </trkpt>
      <trkpt lat="42.285378" lon="2.783111">
        <ele>431.451</ele>
        <time>2020-10-17T16:49:59Z</time>
      </trkpt>
      <trkpt lat="42.285306" lon="2.783212">
        <ele>431.814</ele>
        <time>2020-10-17T16:50:01Z</time>
      </trkpt>
      <trkpt lat="42.285218" lon="2.783351">
        <ele>432.323</ele>
        <time>2020-10-17T16:50:03Z</time>
      </trkpt>
      <trkpt lat="42.285171" lon="2.783424">
        <ele>432.762</ele>
        <time>2020-10-17T16:50:04Z</time>
      </trkpt>
      <trkpt lat="42.285129" lon="2.783488">
        <ele>433.251</ele>
        <time>2020-10-17T16:50:05Z</time>
      </trkpt>
      <trkpt lat="42.285091" lon="2.783547">
        <ele>433.829</ele>
        <time>2020-10-17T16:50:06Z</time>
      </trkpt>
      <trkpt lat="42.285059" lon="2.783609">
        <ele>434.379</ele>
        <time>2020-10-17T16:50:07Z</time>
      </trkpt>
      <trkpt lat="42.285030" lon="2.783679">
        <ele>434.714</ele>
        <time>2020-10-17T16:50:08Z</time>
      </trkpt>
      <trkpt lat="42.284976" lon="2.783846">
        <ele>435.311</ele>
        <time>2020-10-17T16:50:10Z</time>
      </trkpt>
      <trkpt lat="42.284923" lon="2.784026">
        <ele>436.021</ele>
        <time>2020-10-17T16:50:12Z</time>
      </trkpt>
      <trkpt lat="42.284900" lon="2.784116">
        <ele>436.603</ele>
        <time>2020-10-17T16:50:13Z</time>
      </trkpt>
      <trkpt lat="42.284837" lon="2.784412">
        <ele>438.208</ele>
        <time>2020-10-17T16:50:17Z</time>
      </trkpt>
      <trkpt lat="42.284837" lon="2.784412">
        <ele>438.246</ele>
        <time>2020-10-17T16:50:17Z</time>
      </trkpt>
      <trkpt lat="42.284837" lon="2.784412">
        <ele>438.229</ele>
        <time>2020-10-17T16:50:17Z</time>
      </trkpt>
      <trkpt lat="42.284821" lon="2.784486">
        <ele>438.588</ele>
        <time>2020-10-17T16:50:18Z</time>
      </trkpt>
      <trkpt lat="42.284773" lon="2.784647">
        <ele>438.827</ele>
        <time>2020-10-17T16:50:20Z</time>
      </trkpt>
      <trkpt lat="42.284739" lon="2.784735">
        <ele>439.066</ele>
        <time>2020-10-17T16:50:21Z</time>
      </trkpt>
      <trkpt lat="42.284662" lon="2.784910">
        <ele>439.334</ele>
        <time>2020-10-17T16:50:23Z</time>
      </trkpt>
      <trkpt lat="42.284520" lon="2.785211">
        <ele>440.224</ele>
        <time>2020-10-17T16:50:27Z</time>
      </trkpt>
      <trkpt lat="42.284520" lon="2.785211">
        <ele>440.249</ele>
        <time>2020-10-17T16:50:27Z</time>
      </trkpt>
      <trkpt lat="42.284520" lon="2.785211">
        <ele>440.239</ele>
        <time>2020-10-17T16:50:27Z</time>
      </trkpt>
      <trkpt lat="42.284520" lon="2.785211">
        <ele>440.201</ele>
        <time>2020-10-17T16:50:27Z</time>
      </trkpt>
      <trkpt lat="42.284478" lon="2.785250">
        <ele>440.321</ele>
        <time>2020-10-17T16:50:28Z</time>
      </trkpt>
      <trkpt lat="42.284385" lon="2.785245">
        <ele>440.008</ele>
        <time>2020-10-17T16:50:30Z</time>
      </trkpt>
      <trkpt lat="42.284339" lon="2.785222">
        <ele>439.918</ele>
        <time>2020-10-17T16:50:31Z</time>
      </trkpt>
      <trkpt lat="42.284242" lon="2.785176">
        <ele>439.651</ele>
        <time>2020-10-17T16:50:33Z</time>
      </trkpt>
      <trkpt lat="42.284137" lon="2.785133">
        <ele>439.370</ele>
        <time>2020-10-17T16:50:35Z</time>
      </trkpt>
      <trkpt lat="42.284137" lon="2.785133">
        <ele>439.349</ele>
        <time>2020-10-17T16:50:35Z</time>
      </trkpt>
      <trkpt lat="42.284034" lon="2.785065">
        <ele>438.718</ele>
        <time>2020-10-17T16:50:37Z</time>
      </trkpt>
      <trkpt lat="42.284034" lon="2.785065">
        <ele>438.716</ele>
        <time>2020-10-17T16:50:37Z</time>
      </trkpt>
      <trkpt lat="42.283995" lon="2.785022">
        <ele>438.666</ele>
        <time>2020-10-17T16:50:38Z</time>
      </trkpt>
      <trkpt lat="42.283951" lon="2.784950">
        <ele>438.741</ele>
        <time>2020-10-17T16:50:40Z</time>
      </trkpt>
      <trkpt lat="42.283904" lon="2.784874">
        <ele>438.997</ele>
        <time>2020-10-17T16:50:42Z</time>
      </trkpt>
      <trkpt lat="42.283721" lon="2.784580">
        <ele>440.023</ele>
        <time>2020-10-17T16:50:47Z</time>
      </trkpt>
      <trkpt lat="42.283721" lon="2.784580">
        <ele>440.025</ele>
        <time>2020-10-17T16:50:47Z</time>
      </trkpt>
      <trkpt lat="42.283721" lon="2.784580">
        <ele>440.008</ele>
        <time>2020-10-17T16:50:47Z</time>
      </trkpt>
      <trkpt lat="42.283721" lon="2.784580">
        <ele>440.014</ele>
        <time>2020-10-17T16:50:47Z</time>
      </trkpt>
      <trkpt lat="42.283686" lon="2.784507">
        <ele>440.217</ele>
        <time>2020-10-17T16:50:48Z</time>
      </trkpt>
      <trkpt lat="42.283656" lon="2.784431">
        <ele>440.366</ele>
        <time>2020-10-17T16:50:49Z</time>
      </trkpt>
      <trkpt lat="42.283629" lon="2.784356">
        <ele>440.435</ele>
        <time>2020-10-17T16:50:50Z</time>
      </trkpt>
      <trkpt lat="42.283608" lon="2.784286">
        <ele>440.524</ele>
        <time>2020-10-17T16:50:51Z</time>
      </trkpt>
      <trkpt lat="42.283588" lon="2.784189">
        <ele>440.762</ele>
        <time>2020-10-17T16:50:53Z</time>
      </trkpt>
      <trkpt lat="42.283515" lon="2.784099">
        <ele>441.472</ele>
        <time>2020-10-17T16:50:57Z</time>
      </trkpt>
      <trkpt lat="42.283515" lon="2.784099">
        <ele>441.487</ele>
        <time>2020-10-17T16:50:57Z</time>
      </trkpt>
      <trkpt lat="42.283515" lon="2.784099">
        <ele>441.425</ele>
        <time>2020-10-17T16:50:57Z</time>
      </trkpt>
      <trkpt lat="42.283515" lon="2.784099">
        <ele>441.426</ele>
        <time>2020-10-17T16:50:57Z</time>
      </trkpt>
      <trkpt lat="42.283469" lon="2.784081">
        <ele>441.608</ele>
        <time>2020-10-17T16:50:58Z</time>
      </trkpt>
      <trkpt lat="42.283376" lon="2.784065">
        <ele>441.708</ele>
        <time>2020-10-17T16:51:00Z</time>
      </trkpt>
      <trkpt lat="42.283328" lon="2.784071">
        <ele>441.757</ele>
        <time>2020-10-17T16:51:01Z</time>
      </trkpt>
      <trkpt lat="42.283239" lon="2.784090">
        <ele>441.580</ele>
        <time>2020-10-17T16:51:03Z</time>
      </trkpt>
      <trkpt lat="42.283147" lon="2.784077">
        <ele>440.789</ele>
        <time>2020-10-17T16:51:06Z</time>
      </trkpt>
      <trkpt lat="42.283147" lon="2.784077">
        <ele>440.788</ele>
        <time>2020-10-17T16:51:06Z</time>
      </trkpt>
      <trkpt lat="42.283147" lon="2.784077">
        <ele>440.727</ele>
        <time>2020-10-17T16:51:06Z</time>
      </trkpt>
      <trkpt lat="42.283077" lon="2.784069">
        <ele>439.715</ele>
        <time>2020-10-17T16:51:09Z</time>
      </trkpt>
      <trkpt lat="42.282992" lon="2.784057">
        <ele>438.565</ele>
        <time>2020-10-17T16:51:11Z</time>
      </trkpt>
      <trkpt lat="42.282922" lon="2.784087">
        <ele>437.270</ele>
        <time>2020-10-17T16:51:13Z</time>
      </trkpt>
      <trkpt lat="42.282833" lon="2.784289">
        <ele>434.536</ele>
        <time>2020-10-17T16:51:17Z</time>
      </trkpt>
      <trkpt lat="42.282833" lon="2.784289">
        <ele>434.517</ele>
        <time>2020-10-17T16:51:17Z</time>
      </trkpt>
      <trkpt lat="42.282833" lon="2.784289">
        <ele>434.518</ele>
        <time>2020-10-17T16:51:17Z</time>
      </trkpt>
      <trkpt lat="42.282833" lon="2.784289">
        <ele>434.508</ele>
        <time>2020-10-17T16:51:17Z</time>
      </trkpt>
      <trkpt lat="42.282795" lon="2.784340">
        <ele>433.958</ele>
        <time>2020-10-17T16:51:18Z</time>
      </trkpt>
      <trkpt lat="42.282749" lon="2.784375">
        <ele>433.321</ele>
        <time>2020-10-17T16:51:19Z</time>
      </trkpt>
      <trkpt lat="42.282644" lon="2.784392">
        <ele>432.460</ele>
        <time>2020-10-17T16:51:21Z</time>
      </trkpt>
      <trkpt lat="42.282534" lon="2.784381">
        <ele>431.049</ele>
        <time>2020-10-17T16:51:23Z</time>
      </trkpt>
      <trkpt lat="42.282296" lon="2.784406">
        <ele>427.128</ele>
        <time>2020-10-17T16:51:27Z</time>
      </trkpt>
      <trkpt lat="42.282296" lon="2.784406">
        <ele>427.176</ele>
        <time>2020-10-17T16:51:27Z</time>
      </trkpt>
      <trkpt lat="42.282296" lon="2.784406">
        <ele>427.166</ele>
        <time>2020-10-17T16:51:27Z</time>
      </trkpt>
      <trkpt lat="42.282296" lon="2.784406">
        <ele>427.141</ele>
        <time>2020-10-17T16:51:27Z</time>
      </trkpt>
      <trkpt lat="42.282187" lon="2.784429">
        <ele>425.613</ele>
        <time>2020-10-17T16:51:29Z</time>
      </trkpt>
      <trkpt lat="42.282112" lon="2.784441">
        <ele>424.043</ele>
        <time>2020-10-17T16:51:31Z</time>
      </trkpt>
      <trkpt lat="42.282041" lon="2.784454">
        <ele>422.507</ele>
        <time>2020-10-17T16:51:33Z</time>
      </trkpt>
      <trkpt lat="42.281860" lon="2.784497">
        <ele>418.808</ele>
        <time>2020-10-17T16:51:37Z</time>
      </trkpt>
      <trkpt lat="42.281860" lon="2.784497">
        <ele>418.846</ele>
        <time>2020-10-17T16:51:37Z</time>
      </trkpt>
      <trkpt lat="42.281860" lon="2.784497">
        <ele>418.879</ele>
        <time>2020-10-17T16:51:37Z</time>
      </trkpt>
      <trkpt lat="42.281860" lon="2.784497">
        <ele>418.878</ele>
        <time>2020-10-17T16:51:37Z</time>
      </trkpt>
      <trkpt lat="42.281777" lon="2.784521">
        <ele>417.647</ele>
        <time>2020-10-17T16:51:39Z</time>
      </trkpt>
      <trkpt lat="42.281713" lon="2.784584">
        <ele>416.466</ele>
        <time>2020-10-17T16:51:41Z</time>
      </trkpt>
      <trkpt lat="42.281666" lon="2.784681">
        <ele>415.314</ele>
        <time>2020-10-17T16:51:43Z</time>
      </trkpt>
      <trkpt lat="42.281578" lon="2.784924">
        <ele>412.654</ele>
        <time>2020-10-17T16:51:47Z</time>
      </trkpt>
      <trkpt lat="42.281578" lon="2.784924">
        <ele>412.639</ele>
        <time>2020-10-17T16:51:47Z</time>
      </trkpt>
      <trkpt lat="42.281578" lon="2.784924">
        <ele>412.638</ele>
        <time>2020-10-17T16:51:47Z</time>
      </trkpt>
      <trkpt lat="42.281578" lon="2.784924">
        <ele>412.670</ele>
        <time>2020-10-17T16:51:47Z</time>
      </trkpt>
      <trkpt lat="42.281558" lon="2.784990">
        <ele>411.917</ele>
        <time>2020-10-17T16:51:48Z</time>
      </trkpt>
      <trkpt lat="42.281518" lon="2.785116">
        <ele>411.008</ele>
        <time>2020-10-17T16:51:50Z</time>
      </trkpt>
      <trkpt lat="42.281479" lon="2.785210">
        <ele>410.048</ele>
        <time>2020-10-17T16:51:52Z</time>
      </trkpt>
      <trkpt lat="42.281343" lon="2.785369">
        <ele>407.781</ele>
        <time>2020-10-17T16:51:56Z</time>
      </trkpt>
      <trkpt lat="42.281343" lon="2.785369">
        <ele>407.740</ele>
        <time>2020-10-17T16:51:56Z</time>
      </trkpt>
      <trkpt lat="42.281343" lon="2.785369">
        <ele>407.749</ele>
        <time>2020-10-17T16:51:56Z</time>
      </trkpt>
      <trkpt lat="42.281268" lon="2.785413">
        <ele>406.998</ele>
        <time>2020-10-17T16:51:58Z</time>
      </trkpt>
      <trkpt lat="42.281224" lon="2.785442">
        <ele>406.286</ele>
        <time>2020-10-17T16:51:59Z</time>
      </trkpt>
      <trkpt lat="42.281175" lon="2.785477">
        <ele>405.636</ele>
        <time>2020-10-17T16:52:00Z</time>
      </trkpt>
      <trkpt lat="42.281069" lon="2.785550">
        <ele>404.851</ele>
        <time>2020-10-17T16:52:02Z</time>
      </trkpt>
      <trkpt lat="42.280818" lon="2.785709">
        <ele>401.853</ele>
        <time>2020-10-17T16:52:07Z</time>
      </trkpt>
      <trkpt lat="42.280818" lon="2.785709">
        <ele>401.804</ele>
        <time>2020-10-17T16:52:07Z</time>
      </trkpt>
      <trkpt lat="42.280818" lon="2.785709">
        <ele>401.814</ele>
        <time>2020-10-17T16:52:07Z</time>
      </trkpt>
      <trkpt lat="42.280818" lon="2.785709">
        <ele>401.808</ele>
        <time>2020-10-17T16:52:07Z</time>
      </trkpt>
      <trkpt lat="42.280728" lon="2.785753">
        <ele>400.760</ele>
        <time>2020-10-17T16:52:09Z</time>
      </trkpt>
      <trkpt lat="42.280648" lon="2.785784">
        <ele>399.343</ele>
        <time>2020-10-17T16:52:11Z</time>
      </trkpt>
      <trkpt lat="42.280595" lon="2.785803">
        <ele>398.172</ele>
        <time>2020-10-17T16:52:12Z</time>
      </trkpt>
      <trkpt lat="42.280535" lon="2.785824">
        <ele>397.091</ele>
        <time>2020-10-17T16:52:13Z</time>
      </trkpt>
      <trkpt lat="42.280361" lon="2.785896">
        <ele>393.090</ele>
        <time>2020-10-17T16:52:17Z</time>
      </trkpt>
      <trkpt lat="42.280361" lon="2.785896">
        <ele>393.048</ele>
        <time>2020-10-17T16:52:17Z</time>
      </trkpt>
      <trkpt lat="42.280361" lon="2.785896">
        <ele>393.048</ele>
        <time>2020-10-17T16:52:17Z</time>
      </trkpt>
      <trkpt lat="42.280361" lon="2.785896">
        <ele>393.093</ele>
        <time>2020-10-17T16:52:17Z</time>
      </trkpt>
      <trkpt lat="42.280285" lon="2.785934">
        <ele>391.674</ele>
        <time>2020-10-17T16:52:19Z</time>
      </trkpt>
      <trkpt lat="42.280174" lon="2.785986">
        <ele>390.356</ele>
        <time>2020-10-17T16:52:21Z</time>
      </trkpt>
      <trkpt lat="42.280048" lon="2.786039">
        <ele>389.021</ele>
        <time>2020-10-17T16:52:23Z</time>
      </trkpt>
      <trkpt lat="42.279804" lon="2.786125">
        <ele>385.108</ele>
        <time>2020-10-17T16:52:27Z</time>
      </trkpt>
      <trkpt lat="42.279804" lon="2.786125">
        <ele>385.192</ele>
        <time>2020-10-17T16:52:27Z</time>
      </trkpt>
      <trkpt lat="42.279804" lon="2.786125">
        <ele>385.155</ele>
        <time>2020-10-17T16:52:27Z</time>
      </trkpt>
      <trkpt lat="42.279724" lon="2.786146">
        <ele>383.984</ele>
        <time>2020-10-17T16:52:29Z</time>
      </trkpt>
      <trkpt lat="42.279647" lon="2.786161">
        <ele>382.723</ele>
        <time>2020-10-17T16:52:31Z</time>
      </trkpt>
      <trkpt lat="42.279532" lon="2.786168">
        <ele>381.742</ele>
        <time>2020-10-17T16:52:33Z</time>
      </trkpt>
      <trkpt lat="42.279302" lon="2.786116">
        <ele>379.280</ele>
        <time>2020-10-17T16:52:37Z</time>
      </trkpt>
      <trkpt lat="42.279302" lon="2.786116">
        <ele>379.210</ele>
        <time>2020-10-17T16:52:37Z</time>
      </trkpt>
      <trkpt lat="42.279302" lon="2.786116">
        <ele>379.215</ele>
        <time>2020-10-17T16:52:37Z</time>
      </trkpt>
      <trkpt lat="42.279302" lon="2.786116">
        <ele>379.274</ele>
        <time>2020-10-17T16:52:37Z</time>
      </trkpt>
      <trkpt lat="42.279250" lon="2.786101">
        <ele>378.656</ele>
        <time>2020-10-17T16:52:38Z</time>
      </trkpt>
      <trkpt lat="42.279168" lon="2.786083">
        <ele>378.021</ele>
        <time>2020-10-17T16:52:40Z</time>
      </trkpt>
      <trkpt lat="42.279086" lon="2.786066">
        <ele>377.608</ele>
        <time>2020-10-17T16:52:42Z</time>
      </trkpt>
      <trkpt lat="42.278857" lon="2.786038">
        <ele>376.452</ele>
        <time>2020-10-17T16:52:47Z</time>
      </trkpt>
      <trkpt lat="42.278857" lon="2.786038">
        <ele>376.495</ele>
        <time>2020-10-17T16:52:47Z</time>
      </trkpt>
      <trkpt lat="42.278857" lon="2.786038">
        <ele>376.424</ele>
        <time>2020-10-17T16:52:47Z</time>
      </trkpt>
      <trkpt lat="42.278857" lon="2.786038">
        <ele>376.423</ele>
        <time>2020-10-17T16:52:47Z</time>
      </trkpt>
      <trkpt lat="42.278787" lon="2.786001">
        <ele>376.332</ele>
        <time>2020-10-17T16:52:49Z</time>
      </trkpt>
      <trkpt lat="42.278712" lon="2.785966">
        <ele>376.240</ele>
        <time>2020-10-17T16:52:51Z</time>
      </trkpt>
      <trkpt lat="42.278656" lon="2.785957">
        <ele>376.110</ele>
        <time>2020-10-17T16:52:52Z</time>
      </trkpt>
      <trkpt lat="42.278591" lon="2.785964">
        <ele>375.915</ele>
        <time>2020-10-17T16:52:53Z</time>
      </trkpt>
      <trkpt lat="42.278424" lon="2.786003">
        <ele>375.028</ele>
        <time>2020-10-17T16:52:57Z</time>
      </trkpt>
      <trkpt lat="42.278424" lon="2.786003">
        <ele>375.089</ele>
        <time>2020-10-17T16:52:57Z</time>
      </trkpt>
      <trkpt lat="42.278424" lon="2.786003">
        <ele>375.017</ele>
        <time>2020-10-17T16:52:57Z</time>
      </trkpt>
      <trkpt lat="42.278351" lon="2.786000">
        <ele>374.708</ele>
        <time>2020-10-17T16:52:59Z</time>
      </trkpt>
      <trkpt lat="42.278290" lon="2.786053">
        <ele>374.297</ele>
        <time>2020-10-17T16:53:01Z</time>
      </trkpt>
      <trkpt lat="42.278281" lon="2.786185">
        <ele>373.620</ele>
        <time>2020-10-17T16:53:03Z</time>
      </trkpt>
      <trkpt lat="42.278319" lon="2.786400">
        <ele>371.839</ele>
        <time>2020-10-17T16:53:07Z</time>
      </trkpt>
      <trkpt lat="42.278319" lon="2.786400">
        <ele>371.868</ele>
        <time>2020-10-17T16:53:07Z</time>
      </trkpt>
      <trkpt lat="42.278319" lon="2.786400">
        <ele>371.877</ele>
        <time>2020-10-17T16:53:07Z</time>
      </trkpt>
      <trkpt lat="42.278319" lon="2.786400">
        <ele>371.855</ele>
        <time>2020-10-17T16:53:07Z</time>
      </trkpt>
      <trkpt lat="42.278316" lon="2.786480">
        <ele>371.125</ele>
        <time>2020-10-17T16:53:09Z</time>
      </trkpt>
      <trkpt lat="42.278300" lon="2.786563">
        <ele>370.290</ele>
        <time>2020-10-17T16:53:11Z</time>
      </trkpt>
      <trkpt lat="42.278287" lon="2.786640">
        <ele>369.379</ele>
        <time>2020-10-17T16:53:13Z</time>
      </trkpt>
      <trkpt lat="42.278274" lon="2.786785">
        <ele>366.805</ele>
        <time>2020-10-17T16:53:17Z</time>
      </trkpt>
      <trkpt lat="42.278274" lon="2.786785">
        <ele>366.825</ele>
        <time>2020-10-17T16:53:17Z</time>
      </trkpt>
      <trkpt lat="42.278274" lon="2.786785">
        <ele>366.808</ele>
        <time>2020-10-17T16:53:17Z</time>
      </trkpt>
      <trkpt lat="42.278274" lon="2.786785">
        <ele>366.872</ele>
        <time>2020-10-17T16:53:17Z</time>
      </trkpt>
      <trkpt lat="42.278279" lon="2.786858">
        <ele>366.215</ele>
        <time>2020-10-17T16:53:19Z</time>
      </trkpt>
      <trkpt lat="42.278291" lon="2.786941">
        <ele>365.574</ele>
        <time>2020-10-17T16:53:21Z</time>
      </trkpt>
      <trkpt lat="42.278294" lon="2.787036">
        <ele>364.973</ele>
        <time>2020-10-17T16:53:23Z</time>
      </trkpt>
      <trkpt lat="42.278259" lon="2.787277">
        <ele>363.642</ele>
        <time>2020-10-17T16:53:27Z</time>
      </trkpt>
      <trkpt lat="42.278259" lon="2.787277">
        <ele>363.620</ele>
        <time>2020-10-17T16:53:27Z</time>
      </trkpt>
      <trkpt lat="42.278259" lon="2.787277">
        <ele>363.680</ele>
        <time>2020-10-17T16:53:27Z</time>
      </trkpt>
      <trkpt lat="42.278259" lon="2.787277">
        <ele>363.645</ele>
        <time>2020-10-17T16:53:27Z</time>
      </trkpt>
      <trkpt lat="42.278229" lon="2.787368">
        <ele>363.166</ele>
        <time>2020-10-17T16:53:29Z</time>
      </trkpt>
      <trkpt lat="42.278197" lon="2.787474">
        <ele>362.329</ele>
        <time>2020-10-17T16:53:31Z</time>
      </trkpt>
      <trkpt lat="42.278158" lon="2.787603">
        <ele>361.421</ele>
        <time>2020-10-17T16:53:33Z</time>
      </trkpt>
      <trkpt lat="42.278068" lon="2.787869">
        <ele>358.808</ele>
        <time>2020-10-17T16:53:37Z</time>
      </trkpt>
      <trkpt lat="42.278068" lon="2.787869">
        <ele>358.881</ele>
        <time>2020-10-17T16:53:37Z</time>
      </trkpt>
      <trkpt lat="42.278068" lon="2.787869">
        <ele>358.874</ele>
        <time>2020-10-17T16:53:37Z</time>
      </trkpt>
      <trkpt lat="42.278068" lon="2.787869">
        <ele>358.813</ele>
        <time>2020-10-17T16:53:37Z</time>
      </trkpt>
      <trkpt lat="42.278054" lon="2.787937">
        <ele>358.112</ele>
        <time>2020-10-17T16:53:38Z</time>
      </trkpt>
      <trkpt lat="42.278043" lon="2.788004">
        <ele>357.431</ele>
        <time>2020-10-17T16:53:39Z</time>
      </trkpt>
      <trkpt lat="42.278030" lon="2.788136">
        <ele>356.649</ele>
        <time>2020-10-17T16:53:41Z</time>
      </trkpt>
      <trkpt lat="42.278025" lon="2.788239">
        <ele>355.619</ele>
        <time>2020-10-17T16:53:43Z</time>
      </trkpt>
      <trkpt lat="42.277922" lon="2.788359">
        <ele>353.174</ele>
        <time>2020-10-17T16:53:47Z</time>
      </trkpt>
      <trkpt lat="42.277922" lon="2.788359">
        <ele>353.182</ele>
        <time>2020-10-17T16:53:47Z</time>
      </trkpt>
      <trkpt lat="42.277922" lon="2.788359">
        <ele>353.143</ele>
        <time>2020-10-17T16:53:47Z</time>
      </trkpt>
      <trkpt lat="42.277922" lon="2.788359">
        <ele>353.117</ele>
        <time>2020-10-17T16:53:47Z</time>
      </trkpt>
      <trkpt lat="42.277812" lon="2.788354">
        <ele>352.308</ele>
        <time>2020-10-17T16:53:49Z</time>
      </trkpt>
      <trkpt lat="42.277716" lon="2.788352">
        <ele>351.453</ele>
        <time>2020-10-17T16:53:51Z</time>
      </trkpt>
      <trkpt lat="42.277645" lon="2.788399">
        <ele>350.526</ele>
        <time>2020-10-17T16:53:53Z</time>
      </trkpt>
      <trkpt lat="42.277481" lon="2.788546">
        <ele>348.335</ele>
        <time>2020-10-17T16:53:57Z</time>
      </trkpt>
      <trkpt lat="42.277481" lon="2.788546">
        <ele>348.314</ele>
        <time>2020-10-17T16:53:57Z</time>
      </trkpt>
      <trkpt lat="42.277481" lon="2.788546">
        <ele>348.353</ele>
        <time>2020-10-17T16:53:57Z</time>
      </trkpt>
      <trkpt lat="42.277481" lon="2.788546">
        <ele>348.391</ele>
        <time>2020-10-17T16:53:57Z</time>
      </trkpt>
      <trkpt lat="42.277411" lon="2.788593">
        <ele>347.731</ele>
        <time>2020-10-17T16:53:59Z</time>
      </trkpt>
      <trkpt lat="42.277348" lon="2.788666">
        <ele>346.936</ele>
        <time>2020-10-17T16:54:01Z</time>
      </trkpt>
      <trkpt lat="42.277293" lon="2.788761">
        <ele>345.862</ele>
        <time>2020-10-17T16:54:03Z</time>
      </trkpt>
      <trkpt lat="42.277269" lon="2.788819">
        <ele>344.983</ele>
        <time>2020-10-17T16:54:04Z</time>
      </trkpt>
      <trkpt lat="42.277249" lon="2.788880">
        <ele>344.111</ele>
        <time>2020-10-17T16:54:05Z</time>
      </trkpt>
      <trkpt lat="42.277180" lon="2.789061">
        <ele>341.708</ele>
        <time>2020-10-17T16:54:08Z</time>
      </trkpt>
      <trkpt lat="42.277180" lon="2.789061">
        <ele>341.711</ele>
        <time>2020-10-17T16:54:08Z</time>
      </trkpt>
      <trkpt lat="42.277180" lon="2.789061">
        <ele>341.734</ele>
        <time>2020-10-17T16:54:08Z</time>
      </trkpt>
      <trkpt lat="42.277152" lon="2.789112">
        <ele>340.623</ele>
        <time>2020-10-17T16:54:09Z</time>
      </trkpt>
      <trkpt lat="42.277086" lon="2.789208">
        <ele>339.242</ele>
        <time>2020-10-17T16:54:11Z</time>
      </trkpt>
      <trkpt lat="42.277050" lon="2.789254">
        <ele>338.141</ele>
        <time>2020-10-17T16:54:12Z</time>
      </trkpt>
      <trkpt lat="42.277017" lon="2.789296">
        <ele>337.159</ele>
        <time>2020-10-17T16:54:13Z</time>
      </trkpt>
      <trkpt lat="42.276952" lon="2.789372">
        <ele>336.089</ele>
        <time>2020-10-17T16:54:15Z</time>
      </trkpt>
      <trkpt lat="42.276780" lon="2.789515">
        <ele>332.754</ele>
        <time>2020-10-17T16:54:19Z</time>
      </trkpt>
      <trkpt lat="42.276780" lon="2.789515">
        <ele>332.749</ele>
        <time>2020-10-17T16:54:19Z</time>
      </trkpt>
      <trkpt lat="42.276780" lon="2.789515">
        <ele>332.702</ele>
        <time>2020-10-17T16:54:19Z</time>
      </trkpt>
      <trkpt lat="42.276780" lon="2.789515">
        <ele>332.722</ele>
        <time>2020-10-17T16:54:19Z</time>
      </trkpt>
      <trkpt lat="42.276735" lon="2.789544">
        <ele>331.808</ele>
        <time>2020-10-17T16:54:20Z</time>
      </trkpt>
      <trkpt lat="42.276688" lon="2.789568">
        <ele>331.199</ele>
        <time>2020-10-17T16:54:21Z</time>
      </trkpt>
      <trkpt lat="42.276572" lon="2.789614">
        <ele>330.342</ele>
        <time>2020-10-17T16:54:23Z</time>
      </trkpt>
      <trkpt lat="42.276440" lon="2.789686">
        <ele>329.431</ele>
        <time>2020-10-17T16:54:25Z</time>
      </trkpt>
      <trkpt lat="42.276281" lon="2.789866">
        <ele>328.190</ele>
        <time>2020-10-17T16:54:28Z</time>
      </trkpt>
      <trkpt lat="42.276281" lon="2.789866">
        <ele>328.189</ele>
        <time>2020-10-17T16:54:28Z</time>
      </trkpt>
      <trkpt lat="42.276281" lon="2.789866">
        <ele>328.157</ele>
        <time>2020-10-17T16:54:28Z</time>
      </trkpt>
      <trkpt lat="42.276248" lon="2.789921">
        <ele>327.747</ele>
        <time>2020-10-17T16:54:29Z</time>
      </trkpt>
      <trkpt lat="42.276201" lon="2.790005">
        <ele>327.482</ele>
        <time>2020-10-17T16:54:31Z</time>
      </trkpt>
      <trkpt lat="42.276146" lon="2.790097">
        <ele>327.373</ele>
        <time>2020-10-17T16:54:33Z</time>
      </trkpt>
      <trkpt lat="42.276114" lon="2.790145">
        <ele>327.285</ele>
        <time>2020-10-17T16:54:34Z</time>
      </trkpt>
      <trkpt lat="42.276063" lon="2.790212">
        <ele>327.413</ele>
        <time>2020-10-17T16:54:39Z</time>
      </trkpt>
      <trkpt lat="42.276063" lon="2.790212">
        <ele>327.408</ele>
        <time>2020-10-17T16:54:39Z</time>
      </trkpt>
      <trkpt lat="42.276063" lon="2.790212">
        <ele>327.472</ele>
        <time>2020-10-17T16:54:39Z</time>
      </trkpt>
      <trkpt lat="42.276063" lon="2.790212">
        <ele>327.475</ele>
        <time>2020-10-17T16:54:39Z</time>
      </trkpt>
      <trkpt lat="42.275962" lon="2.790270">
        <ele>328.654</ele>
        <time>2020-10-17T16:54:51Z</time>
      </trkpt>
      <trkpt lat="42.275931" lon="2.790325">
        <ele>329.093</ele>
        <time>2020-10-17T16:54:54Z</time>
      </trkpt>
      <trkpt lat="42.275896" lon="2.790374">
        <ele>329.022</ele>
        <time>2020-10-17T16:55:00Z</time>
      </trkpt>
      <trkpt lat="42.275830" lon="2.790446">
        <ele>330.060</ele>
        <time>2020-10-17T16:55:11Z</time>
      </trkpt>
      <trkpt lat="42.275816" lon="2.790506">
        <ele>330.340</ele>
        <time>2020-10-17T16:55:13Z</time>
      </trkpt>
      <trkpt lat="42.275938" lon="2.790583">
        <ele>331.485</ele>
        <time>2020-10-17T16:55:19Z</time>
      </trkpt>
      <trkpt lat="42.275938" lon="2.790583">
        <ele>331.439</ele>
        <time>2020-10-17T16:55:19Z</time>
      </trkpt>
      <trkpt lat="42.275938" lon="2.790583">
        <ele>331.401</ele>
        <time>2020-10-17T16:55:19Z</time>
      </trkpt>
      <trkpt lat="42.275938" lon="2.790583">
        <ele>331.421</ele>
        <time>2020-10-17T16:55:19Z</time>
      </trkpt>
      <trkpt lat="42.275992" lon="2.790556">
        <ele>331.608</ele>
        <time>2020-10-17T16:55:21Z</time>
      </trkpt>
      <trkpt lat="42.276062" lon="2.790530">
        <ele>331.618</ele>
        <time>2020-10-17T16:55:23Z</time>
      </trkpt>
      <trkpt lat="42.276110" lon="2.790519">
        <ele>331.551</ele>
        <time>2020-10-17T16:55:24Z</time>
      </trkpt>
      <trkpt lat="42.276296" lon="2.790492">
        <ele>329.840</ele>
        <time>2020-10-17T16:55:29Z</time>
      </trkpt>
      <trkpt lat="42.276296" lon="2.790492">
        <ele>329.869</ele>
        <time>2020-10-17T16:55:29Z</time>
      </trkpt>
      <trkpt lat="42.276296" lon="2.790492">
        <ele>329.868</ele>
        <time>2020-10-17T16:55:29Z</time>
      </trkpt>
      <trkpt lat="42.276296" lon="2.790492">
        <ele>329.826</ele>
        <time>2020-10-17T16:55:29Z</time>
      </trkpt>
      <trkpt lat="42.276343" lon="2.790487">
        <ele>329.366</ele>
        <time>2020-10-17T16:55:30Z</time>
      </trkpt>
      <trkpt lat="42.276392" lon="2.790482">
        <ele>328.941</ele>
        <time>2020-10-17T16:55:31Z</time>
      </trkpt>
      <trkpt lat="42.276441" lon="2.790478">
        <ele>328.518</ele>
        <time>2020-10-17T16:55:32Z</time>
      </trkpt>
      <trkpt lat="42.276538" lon="2.790462">
        <ele>328.098</ele>
        <time>2020-10-17T16:55:34Z</time>
      </trkpt>
      <trkpt lat="42.276740" lon="2.790436">
        <ele>326.417</ele>
        <time>2020-10-17T16:55:39Z</time>
      </trkpt>
      <trkpt lat="42.276740" lon="2.790436">
        <ele>326.408</ele>
        <time>2020-10-17T16:55:39Z</time>
      </trkpt>
      <trkpt lat="42.276740" lon="2.790436">
        <ele>326.496</ele>
        <time>2020-10-17T16:55:39Z</time>
      </trkpt>
      <trkpt lat="42.276740" lon="2.790436">
        <ele>326.499</ele>
        <time>2020-10-17T16:55:39Z</time>
      </trkpt>
      <trkpt lat="42.276786" lon="2.790457">
        <ele>326.278</ele>
        <time>2020-10-17T16:55:41Z</time>
      </trkpt>
      <trkpt lat="42.276842" lon="2.790493">
        <ele>325.877</ele>
        <time>2020-10-17T16:55:43Z</time>
      </trkpt>
      <trkpt lat="42.276903" lon="2.790549">
        <ele>325.276</ele>
        <time>2020-10-17T16:55:45Z</time>
      </trkpt>
      <trkpt lat="42.276991" lon="2.790647">
        <ele>324.244</ele>
        <time>2020-10-17T16:55:48Z</time>
      </trkpt>
      <trkpt lat="42.276991" lon="2.790647">
        <ele>324.294</ele>
        <time>2020-10-17T16:55:48Z</time>
      </trkpt>
      <trkpt lat="42.276991" lon="2.790647">
        <ele>324.219</ele>
        <time>2020-10-17T16:55:48Z</time>
      </trkpt>
      <trkpt lat="42.277054" lon="2.790687">
        <ele>323.642</ele>
        <time>2020-10-17T16:55:50Z</time>
      </trkpt>
      <trkpt lat="42.277102" lon="2.790735">
        <ele>323.122</ele>
        <time>2020-10-17T16:55:52Z</time>
      </trkpt>
      <trkpt lat="42.277132" lon="2.790824">
        <ele>322.614</ele>
        <time>2020-10-17T16:55:54Z</time>
      </trkpt>
      <trkpt lat="42.277140" lon="2.791164">
        <ele>321.408</ele>
        <time>2020-10-17T16:55:59Z</time>
      </trkpt>
      <trkpt lat="42.277140" lon="2.791164">
        <ele>321.429</ele>
        <time>2020-10-17T16:55:59Z</time>
      </trkpt>
      <trkpt lat="42.277140" lon="2.791164">
        <ele>321.422</ele>
        <time>2020-10-17T16:55:59Z</time>
      </trkpt>
      <trkpt lat="42.277140" lon="2.791164">
        <ele>321.461</ele>
        <time>2020-10-17T16:55:59Z</time>
      </trkpt>
      <trkpt lat="42.277150" lon="2.791236">
        <ele>321.240</ele>
        <time>2020-10-17T16:56:00Z</time>
      </trkpt>
      <trkpt lat="42.277167" lon="2.791302">
        <ele>321.079</ele>
        <time>2020-10-17T16:56:01Z</time>
      </trkpt>
      <trkpt lat="42.277208" lon="2.791395">
        <ele>320.617</ele>
        <time>2020-10-17T16:56:03Z</time>
      </trkpt>
      <trkpt lat="42.277242" lon="2.791466">
        <ele>320.177</ele>
        <time>2020-10-17T16:56:05Z</time>
      </trkpt>
      <trkpt lat="42.277274" lon="2.791566">
        <ele>319.622</ele>
        <time>2020-10-17T16:56:07Z</time>
      </trkpt>
      <trkpt lat="42.277301" lon="2.791642">
        <ele>319.186</ele>
        <time>2020-10-17T16:56:09Z</time>
      </trkpt>
      <trkpt lat="42.277340" lon="2.791722">
        <ele>318.660</ele>
        <time>2020-10-17T16:56:10Z</time>
      </trkpt>
      <trkpt lat="42.277383" lon="2.791806">
        <ele>318.126</ele>
        <time>2020-10-17T16:56:12Z</time>
      </trkpt>
      <trkpt lat="42.277410" lon="2.791944">
        <ele>317.608</ele>
        <time>2020-10-17T16:56:14Z</time>
      </trkpt>
      <trkpt lat="42.277349" lon="2.792118">
        <ele>316.963</ele>
        <time>2020-10-17T16:56:18Z</time>
      </trkpt>
      <trkpt lat="42.277349" lon="2.792118">
        <ele>316.936</ele>
        <time>2020-10-17T16:56:18Z</time>
      </trkpt>
      <trkpt lat="42.277349" lon="2.792118">
        <ele>316.945</ele>
        <time>2020-10-17T16:56:18Z</time>
      </trkpt>
      <trkpt lat="42.277349" lon="2.792118">
        <ele>316.944</ele>
        <time>2020-10-17T16:56:18Z</time>
      </trkpt>
      <trkpt lat="42.277303" lon="2.792181">
        <ele>316.883</ele>
        <time>2020-10-17T16:56:20Z</time>
      </trkpt>
      <trkpt lat="42.277263" lon="2.792246">
        <ele>316.551</ele>
        <time>2020-10-17T16:56:22Z</time>
      </trkpt>
      <trkpt lat="42.277204" lon="2.792338">
        <ele>316.141</ele>
        <time>2020-10-17T16:56:24Z</time>
      </trkpt>
      <trkpt lat="42.277129" lon="2.792439">
        <ele>315.126</ele>
        <time>2020-10-17T16:56:27Z</time>
      </trkpt>
      <trkpt lat="42.277129" lon="2.792439">
        <ele>315.113</ele>
        <time>2020-10-17T16:56:27Z</time>
      </trkpt>
      <trkpt lat="42.277129" lon="2.792439">
        <ele>315.143</ele>
        <time>2020-10-17T16:56:27Z</time>
      </trkpt>
      <trkpt lat="42.277080" lon="2.792490">
        <ele>314.407</ele>
        <time>2020-10-17T16:56:29Z</time>
      </trkpt>
      <trkpt lat="42.277017" lon="2.792544">
        <ele>313.608</ele>
        <time>2020-10-17T16:56:31Z</time>
      </trkpt>
      <trkpt lat="42.276930" lon="2.792587">
        <ele>312.786</ele>
        <time>2020-10-17T16:56:33Z</time>
      </trkpt>
      <trkpt lat="42.276824" lon="2.792604">
        <ele>311.779</ele>
        <time>2020-10-17T16:56:35Z</time>
      </trkpt>
      <trkpt lat="42.276663" lon="2.792577">
        <ele>309.258</ele>
        <time>2020-10-17T16:56:38Z</time>
      </trkpt>
      <trkpt lat="42.276663" lon="2.792577">
        <ele>309.297</ele>
        <time>2020-10-17T16:56:38Z</time>
      </trkpt>
      <trkpt lat="42.276663" lon="2.792577">
        <ele>309.276</ele>
        <time>2020-10-17T16:56:38Z</time>
      </trkpt>
      <trkpt lat="42.276565" lon="2.792533">
        <ele>308.054</ele>
        <time>2020-10-17T16:56:40Z</time>
      </trkpt>
      <trkpt lat="42.276479" lon="2.792475">
        <ele>306.764</ele>
        <time>2020-10-17T16:56:42Z</time>
      </trkpt>
      <trkpt lat="42.276439" lon="2.792444">
        <ele>305.679</ele>
        <time>2020-10-17T16:56:43Z</time>
      </trkpt>
      <trkpt lat="42.276376" lon="2.792403">
        <ele>304.352</ele>
        <time>2020-10-17T16:56:45Z</time>
      </trkpt>
      <trkpt lat="42.276264" lon="2.792400">
        <ele>301.953</ele>
        <time>2020-10-17T16:56:48Z</time>
      </trkpt>
      <trkpt lat="42.276264" lon="2.792400">
        <ele>301.908</ele>
        <time>2020-10-17T16:56:48Z</time>
      </trkpt>
      <trkpt lat="42.276264" lon="2.792400">
        <ele>301.908</ele>
        <time>2020-10-17T16:56:48Z</time>
      </trkpt>
      <trkpt lat="42.276205" lon="2.792454">
        <ele>300.910</ele>
        <time>2020-10-17T16:56:50Z</time>
      </trkpt>
      <trkpt lat="42.276170" lon="2.792493">
        <ele>300.293</ele>
        <time>2020-10-17T16:56:51Z</time>
      </trkpt>
      <trkpt lat="42.276128" lon="2.792537">
        <ele>299.712</ele>
        <time>2020-10-17T16:56:52Z</time>
      </trkpt>
      <trkpt lat="42.276081" lon="2.792581">
        <ele>299.291</ele>
        <time>2020-10-17T16:56:53Z</time>
      </trkpt>
      <trkpt lat="42.275918" lon="2.792828">
        <ele>296.780</ele>
        <time>2020-10-17T16:56:58Z</time>
      </trkpt>
      <trkpt lat="42.275918" lon="2.792828">
        <ele>296.768</ele>
        <time>2020-10-17T16:56:58Z</time>
      </trkpt>
      <trkpt lat="42.275918" lon="2.792828">
        <ele>296.738</ele>
        <time>2020-10-17T16:56:58Z</time>
      </trkpt>
      <trkpt lat="42.275918" lon="2.792828">
        <ele>296.763</ele>
        <time>2020-10-17T16:56:58Z</time>
      </trkpt>
      <trkpt lat="42.275953" lon="2.792959">
        <ele>295.972</ele>
        <time>2020-10-17T16:57:00Z</time>
      </trkpt>
      <trkpt lat="42.275970" lon="2.793028">
        <ele>295.213</ele>
        <time>2020-10-17T16:57:01Z</time>
      </trkpt>
      <trkpt lat="42.275957" lon="2.793156">
        <ele>294.314</ele>
        <time>2020-10-17T16:57:03Z</time>
      </trkpt>
      <trkpt lat="42.275873" lon="2.793234">
        <ele>291.208</ele>
        <time>2020-10-17T16:57:08Z</time>
      </trkpt>
      <trkpt lat="42.275873" lon="2.793234">
        <ele>291.292</ele>
        <time>2020-10-17T16:57:08Z</time>
      </trkpt>
      <trkpt lat="42.275873" lon="2.793234">
        <ele>291.235</ele>
        <time>2020-10-17T16:57:08Z</time>
      </trkpt>
      <trkpt lat="42.275873" lon="2.793234">
        <ele>291.284</ele>
        <time>2020-10-17T16:57:08Z</time>
      </trkpt>
      <trkpt lat="42.275817" lon="2.793281">
        <ele>290.523</ele>
        <time>2020-10-17T16:58:15Z</time>
      </trkpt>
      <trkpt lat="42.275750" lon="2.793301">
        <ele>290.012</ele>
        <time>2020-10-17T16:58:17Z</time>
      </trkpt>
      <trkpt lat="42.275703" lon="2.793311">
        <ele>289.710</ele>
        <time>2020-10-17T16:58:19Z</time>
      </trkpt>
      <trkpt lat="42.275640" lon="2.793345">
        <ele>289.460</ele>
        <time>2020-10-17T16:58:21Z</time>
      </trkpt>
      <trkpt lat="42.275582" lon="2.793386">
        <ele>289.185</ele>
        <time>2020-10-17T16:58:23Z</time>
      </trkpt>
      <trkpt lat="42.275461" lon="2.793464">
        <ele>288.088</ele>
        <time>2020-10-17T16:58:28Z</time>
      </trkpt>
      <trkpt lat="42.275461" lon="2.793464">
        <ele>288.024</ele>
        <time>2020-10-17T16:58:28Z</time>
      </trkpt>
      <trkpt lat="42.275461" lon="2.793464">
        <ele>288.026</ele>
        <time>2020-10-17T16:58:28Z</time>
      </trkpt>
      <trkpt lat="42.275461" lon="2.793464">
        <ele>288.008</ele>
        <time>2020-10-17T16:58:28Z</time>
      </trkpt>
      <trkpt lat="42.275402" lon="2.793501">
        <ele>287.623</ele>
        <time>2020-10-17T16:58:30Z</time>
      </trkpt>
      <trkpt lat="42.275330" lon="2.793585">
        <ele>287.226</ele>
        <time>2020-10-17T16:58:32Z</time>
      </trkpt>
      <trkpt lat="42.275244" lon="2.793684">
        <ele>286.835</ele>
        <time>2020-10-17T16:58:34Z</time>
      </trkpt>
      <trkpt lat="42.275004" lon="2.793780">
        <ele>286.124</ele>
        <time>2020-10-17T16:58:38Z</time>
      </trkpt>
      <trkpt lat="42.275004" lon="2.793780">
        <ele>286.133</ele>
        <time>2020-10-17T16:58:38Z</time>
      </trkpt>
      <trkpt lat="42.275004" lon="2.793780">
        <ele>286.181</ele>
        <time>2020-10-17T16:58:38Z</time>
      </trkpt>
      <trkpt lat="42.275004" lon="2.793780">
        <ele>286.141</ele>
        <time>2020-10-17T16:58:38Z</time>
      </trkpt>
      <trkpt lat="42.274909" lon="2.793778">
        <ele>285.986</ele>
        <time>2020-10-17T16:58:40Z</time>
      </trkpt>
      <trkpt lat="42.274847" lon="2.793772">
        <ele>285.753</ele>
        <time>2020-10-17T16:58:42Z</time>
      </trkpt>
      <trkpt lat="42.274798" lon="2.793781">
        <ele>285.504</ele>
        <time>2020-10-17T16:58:43Z</time>
      </trkpt>
      <trkpt lat="42.274576" lon="2.793889">
        <ele>285.214</ele>
        <time>2020-10-17T16:58:47Z</time>
      </trkpt>
      <trkpt lat="42.274576" lon="2.793889">
        <ele>285.208</ele>
        <time>2020-10-17T16:58:47Z</time>
      </trkpt>
      <trkpt lat="42.274576" lon="2.793889">
        <ele>285.240</ele>
        <time>2020-10-17T16:58:47Z</time>
      </trkpt>
      <trkpt lat="42.274526" lon="2.793871">
        <ele>285.123</ele>
        <time>2020-10-17T16:58:48Z</time>
      </trkpt>
      <trkpt lat="42.274436" lon="2.793816">
        <ele>284.972</ele>
        <time>2020-10-17T16:58:50Z</time>
      </trkpt>
      <trkpt lat="42.274391" lon="2.793801">
        <ele>284.671</ele>
        <time>2020-10-17T16:58:51Z</time>
      </trkpt>
      <trkpt lat="42.274314" lon="2.793825">
        <ele>284.260</ele>
        <time>2020-10-17T16:58:53Z</time>
      </trkpt>
      <trkpt lat="42.274039" lon="2.794068">
        <ele>282.428</ele>
        <time>2020-10-17T16:58:58Z</time>
      </trkpt>
      <trkpt lat="42.274039" lon="2.794068">
        <ele>282.448</ele>
        <time>2020-10-17T16:58:58Z</time>
      </trkpt>
      <trkpt lat="42.274039" lon="2.794068">
        <ele>282.473</ele>
        <time>2020-10-17T16:58:58Z</time>
      </trkpt>
      <trkpt lat="42.274039" lon="2.794068">
        <ele>282.476</ele>
        <time>2020-10-17T16:58:58Z</time>
      </trkpt>
      <trkpt lat="42.273981" lon="2.794113">
        <ele>281.990</ele>
        <time>2020-10-17T16:58:59Z</time>
      </trkpt>
      <trkpt lat="42.273925" lon="2.794149">
        <ele>281.419</ele>
        <time>2020-10-17T16:59:00Z</time>
      </trkpt>
      <trkpt lat="42.273874" lon="2.794178">
        <ele>280.908</ele>
        <time>2020-10-17T16:59:01Z</time>
      </trkpt>
      <trkpt lat="42.273784" lon="2.794233">
        <ele>280.232</ele>
        <time>2020-10-17T16:59:03Z</time>
      </trkpt>
      <trkpt lat="42.273454" lon="2.794299">
        <ele>277.315</ele>
        <time>2020-10-17T16:59:08Z</time>
      </trkpt>
      <trkpt lat="42.273454" lon="2.794299">
        <ele>277.394</ele>
        <time>2020-10-17T16:59:08Z</time>
      </trkpt>
      <trkpt lat="42.273454" lon="2.794299">
        <ele>277.313</ele>
        <time>2020-10-17T16:59:08Z</time>
      </trkpt>
      <trkpt lat="42.273454" lon="2.794299">
        <ele>277.342</ele>
        <time>2020-10-17T16:59:08Z</time>
      </trkpt>
      <trkpt lat="42.273390" lon="2.794291">
        <ele>276.620</ele>
        <time>2020-10-17T16:59:09Z</time>
      </trkpt>
      <trkpt lat="42.273281" lon="2.794244">
        <ele>275.550</ele>
        <time>2020-10-17T16:59:11Z</time>
      </trkpt>
      <trkpt lat="42.273224" lon="2.794207">
        <ele>274.695</ele>
        <time>2020-10-17T16:59:12Z</time>
      </trkpt>
      <trkpt lat="42.273164" lon="2.794173">
        <ele>273.938</ele>
        <time>2020-10-17T16:59:13Z</time>
      </trkpt>
      <trkpt lat="42.272861" lon="2.794072">
        <ele>271.170</ele>
        <time>2020-10-17T16:59:18Z</time>
      </trkpt>
      <trkpt lat="42.272861" lon="2.794072">
        <ele>271.117</ele>
        <time>2020-10-17T16:59:18Z</time>
      </trkpt>
      <trkpt lat="42.272861" lon="2.794072">
        <ele>271.108</ele>
        <time>2020-10-17T16:59:18Z</time>
      </trkpt>
      <trkpt lat="42.272861" lon="2.794072">
        <ele>271.158</ele>
        <time>2020-10-17T16:59:18Z</time>
      </trkpt>
      <trkpt lat="42.272803" lon="2.794054">
        <ele>270.611</ele>
        <time>2020-10-17T16:59:19Z</time>
      </trkpt>
      <trkpt lat="42.272685" lon="2.794015">
        <ele>270.120</ele>
        <time>2020-10-17T16:59:21Z</time>
      </trkpt>
      <trkpt lat="42.272568" lon="2.793988">
        <ele>269.419</ele>
        <time>2020-10-17T16:59:23Z</time>
      </trkpt>
      <trkpt lat="42.272331" lon="2.793964">
        <ele>266.778</ele>
        <time>2020-10-17T16:59:28Z</time>
      </trkpt>
      <trkpt lat="42.272331" lon="2.793964">
        <ele>266.776</ele>
        <time>2020-10-17T16:59:28Z</time>
      </trkpt>
      <trkpt lat="42.272331" lon="2.793964">
        <ele>266.716</ele>
        <time>2020-10-17T16:59:28Z</time>
      </trkpt>
      <trkpt lat="42.272331" lon="2.793964">
        <ele>266.711</ele>
        <time>2020-10-17T16:59:28Z</time>
      </trkpt>
      <trkpt lat="42.272263" lon="2.793932">
        <ele>265.835</ele>
        <time>2020-10-17T16:59:30Z</time>
      </trkpt>
      <trkpt lat="42.272177" lon="2.793881">
        <ele>264.786</ele>
        <time>2020-10-17T16:59:32Z</time>
      </trkpt>
      <trkpt lat="42.272060" lon="2.793805">
        <ele>263.214</ele>
        <time>2020-10-17T16:59:34Z</time>
      </trkpt>
      <trkpt lat="42.271820" lon="2.793795">
        <ele>259.308</ele>
        <time>2020-10-17T16:59:38Z</time>
      </trkpt>
      <trkpt lat="42.271820" lon="2.793795">
        <ele>259.328</ele>
        <time>2020-10-17T16:59:38Z</time>
      </trkpt>
      <trkpt lat="42.271820" lon="2.793795">
        <ele>259.331</ele>
        <time>2020-10-17T16:59:38Z</time>
      </trkpt>
      <trkpt lat="42.271820" lon="2.793795">
        <ele>259.330</ele>
        <time>2020-10-17T16:59:38Z</time>
      </trkpt>
      <trkpt lat="42.271690" lon="2.793858">
        <ele>258.489</ele>
        <time>2020-10-17T16:59:40Z</time>
      </trkpt>
      <trkpt lat="42.271625" lon="2.793883">
        <ele>257.658</ele>
        <time>2020-10-17T16:59:41Z</time>
      </trkpt>
      <trkpt lat="42.271498" lon="2.793914">
        <ele>256.616</ele>
        <time>2020-10-17T16:59:43Z</time>
      </trkpt>
      <trkpt lat="42.271318" lon="2.793960">
        <ele>254.446</ele>
        <time>2020-10-17T16:59:46Z</time>
      </trkpt>
      <trkpt lat="42.271318" lon="2.793960">
        <ele>254.411</ele>
        <time>2020-10-17T16:59:46Z</time>
      </trkpt>
      <trkpt lat="42.271208" lon="2.793976">
        <ele>252.639</ele>
        <time>2020-10-17T16:59:48Z</time>
      </trkpt>
      <trkpt lat="42.271208" lon="2.793976">
        <ele>252.601</ele>
        <time>2020-10-17T16:59:48Z</time>
      </trkpt>
      <trkpt lat="42.271131" lon="2.793966">
        <ele>251.621</ele>
        <time>2020-10-17T16:59:50Z</time>
      </trkpt>
      <trkpt lat="42.271045" lon="2.793958">
        <ele>250.508</ele>
        <time>2020-10-17T16:59:52Z</time>
      </trkpt>
      <trkpt lat="42.270994" lon="2.793944">
        <ele>249.648</ele>
        <time>2020-10-17T16:59:53Z</time>
      </trkpt>
      <trkpt lat="42.270752" lon="2.793884">
        <ele>246.481</ele>
        <time>2020-10-17T16:59:58Z</time>
      </trkpt>
      <trkpt lat="42.270752" lon="2.793884">
        <ele>246.480</ele>
        <time>2020-10-17T16:59:58Z</time>
      </trkpt>
      <trkpt lat="42.270752" lon="2.793884">
        <ele>246.489</ele>
        <time>2020-10-17T16:59:58Z</time>
      </trkpt>
      <trkpt lat="42.270752" lon="2.793884">
        <ele>246.418</ele>
        <time>2020-10-17T16:59:58Z</time>
      </trkpt>
      <trkpt lat="42.270643" lon="2.793883">
        <ele>245.576</ele>
        <time>2020-10-17T17:00:00Z</time>
      </trkpt>
      <trkpt lat="42.270590" lon="2.793878">
        <ele>244.776</ele>
        <time>2020-10-17T17:00:01Z</time>
      </trkpt>
      <trkpt lat="42.270508" lon="2.793857">
        <ele>244.051</ele>
        <time>2020-10-17T17:00:03Z</time>
      </trkpt>
      <trkpt lat="42.270356" lon="2.793629">
        <ele>240.716</ele>
        <time>2020-10-17T17:00:08Z</time>
      </trkpt>
      <trkpt lat="42.270356" lon="2.793629">
        <ele>240.776</ele>
        <time>2020-10-17T17:00:08Z</time>
      </trkpt>
      <trkpt lat="42.270356" lon="2.793629">
        <ele>240.713</ele>
        <time>2020-10-17T17:00:08Z</time>
      </trkpt>
      <trkpt lat="42.270356" lon="2.793629">
        <ele>240.708</ele>
        <time>2020-10-17T17:00:08Z</time>
      </trkpt>
      <trkpt lat="42.270325" lon="2.793486">
        <ele>239.996</ele>
        <time>2020-10-17T17:00:10Z</time>
      </trkpt>
      <trkpt lat="42.270312" lon="2.793406">
        <ele>239.259</ele>
        <time>2020-10-17T17:00:11Z</time>
      </trkpt>
      <trkpt lat="42.270298" lon="2.793326">
        <ele>238.878</ele>
        <time>2020-10-17T17:00:12Z</time>
      </trkpt>
      <trkpt lat="42.270268" lon="2.793168">
        <ele>238.147</ele>
        <time>2020-10-17T17:00:14Z</time>
      </trkpt>
      <trkpt lat="42.270192" lon="2.792943">
        <ele>235.336</ele>
        <time>2020-10-17T17:00:18Z</time>
      </trkpt>
      <trkpt lat="42.270192" lon="2.792943">
        <ele>235.364</ele>
        <time>2020-10-17T17:00:18Z</time>
      </trkpt>
      <trkpt lat="42.270192" lon="2.792943">
        <ele>235.324</ele>
        <time>2020-10-17T17:00:18Z</time>
      </trkpt>
      <trkpt lat="42.270131" lon="2.792851">
        <ele>234.189</ele>
        <time>2020-10-17T17:00:20Z</time>
      </trkpt>
      <trkpt lat="42.270056" lon="2.792744">
        <ele>232.727</ele>
        <time>2020-10-17T17:00:22Z</time>
      </trkpt>
      <trkpt lat="42.269983" lon="2.792651">
        <ele>231.368</ele>
        <time>2020-10-17T17:00:24Z</time>
      </trkpt>
      <trkpt lat="42.269896" lon="2.792586">
        <ele>229.014</ele>
        <time>2020-10-17T17:00:27Z</time>
      </trkpt>
      <trkpt lat="42.269896" lon="2.792586">
        <ele>229.008</ele>
        <time>2020-10-17T17:00:27Z</time>
      </trkpt>
      <trkpt lat="42.269896" lon="2.792586">
        <ele>229.037</ele>
        <time>2020-10-17T17:00:27Z</time>
      </trkpt>
      <trkpt lat="42.269820" lon="2.792560">
        <ele>228.150</ele>
        <time>2020-10-17T17:00:29Z</time>
      </trkpt>
      <trkpt lat="42.269727" lon="2.792584">
        <ele>227.129</ele>
        <time>2020-10-17T17:00:31Z</time>
      </trkpt>
      <trkpt lat="42.269677" lon="2.792611">
        <ele>226.598</ele>
        <time>2020-10-17T17:00:32Z</time>
      </trkpt>
      <trkpt lat="42.269418" lon="2.792865">
        <ele>224.777</ele>
        <time>2020-10-17T17:00:37Z</time>
      </trkpt>
      <trkpt lat="42.269418" lon="2.792865">
        <ele>224.785</ele>
        <time>2020-10-17T17:00:37Z</time>
      </trkpt>
      <trkpt lat="42.269418" lon="2.792865">
        <ele>224.725</ele>
        <time>2020-10-17T17:00:37Z</time>
      </trkpt>
      <trkpt lat="42.269418" lon="2.792865">
        <ele>224.740</ele>
        <time>2020-10-17T17:00:37Z</time>
      </trkpt>
      <trkpt lat="42.269369" lon="2.792911">
        <ele>224.258</ele>
        <time>2020-10-17T17:00:38Z</time>
      </trkpt>
      <trkpt lat="42.269321" lon="2.792949">
        <ele>223.552</ele>
        <time>2020-10-17T17:00:39Z</time>
      </trkpt>
      <trkpt lat="42.269279" lon="2.792980">
        <ele>222.717</ele>
        <time>2020-10-17T17:00:40Z</time>
      </trkpt>
      <trkpt lat="42.269224" lon="2.793014">
        <ele>221.708</ele>
        <time>2020-10-17T17:00:42Z</time>
      </trkpt>
      <trkpt lat="42.269094" lon="2.793104">
        <ele>218.710</ele>
        <time>2020-10-17T17:00:47Z</time>
      </trkpt>
      <trkpt lat="42.269094" lon="2.793104">
        <ele>218.713</ele>
        <time>2020-10-17T17:00:47Z</time>
      </trkpt>
      <trkpt lat="42.269094" lon="2.793104">
        <ele>218.722</ele>
        <time>2020-10-17T17:00:47Z</time>
      </trkpt>
      <trkpt lat="42.269094" lon="2.793104">
        <ele>218.781</ele>
        <time>2020-10-17T17:00:47Z</time>
      </trkpt>
      <trkpt lat="42.269023" lon="2.793147">
        <ele>218.080</ele>
        <time>2020-10-17T17:00:49Z</time>
      </trkpt>
      <trkpt lat="42.268960" lon="2.793188">
        <ele>217.568</ele>
        <time>2020-10-17T17:00:51Z</time>
      </trkpt>
      <trkpt lat="42.268899" lon="2.793238">
        <ele>217.268</ele>
        <time>2020-10-17T17:00:53Z</time>
      </trkpt>
      <trkpt lat="42.268752" lon="2.793353">
        <ele>216.983</ele>
        <time>2020-10-17T17:00:57Z</time>
      </trkpt>
      <trkpt lat="42.268752" lon="2.793353">
        <ele>216.954</ele>
        <time>2020-10-17T17:00:57Z</time>
      </trkpt>
      <trkpt lat="42.268752" lon="2.793353">
        <ele>216.956</ele>
        <time>2020-10-17T17:00:57Z</time>
      </trkpt>
      <trkpt lat="42.268752" lon="2.793353">
        <ele>216.911</ele>
        <time>2020-10-17T17:00:57Z</time>
      </trkpt>
      <trkpt lat="42.268680" lon="2.793404">
        <ele>217.008</ele>
        <time>2020-10-17T17:00:59Z</time>
      </trkpt>
      <trkpt lat="42.268626" lon="2.793449">
        <ele>217.140</ele>
        <time>2020-10-17T17:01:01Z</time>
      </trkpt>
      <trkpt lat="42.268574" lon="2.793523">
        <ele>216.953</ele>
        <time>2020-10-17T17:01:03Z</time>
      </trkpt>
      <trkpt lat="42.268442" lon="2.793741">
        <ele>216.112</ele>
        <time>2020-10-17T17:01:08Z</time>
      </trkpt>
      <trkpt lat="42.268442" lon="2.793741">
        <ele>216.181</ele>
        <time>2020-10-17T17:01:08Z</time>
      </trkpt>
      <trkpt lat="42.268442" lon="2.793741">
        <ele>216.120</ele>
        <time>2020-10-17T17:01:08Z</time>
      </trkpt>
      <trkpt lat="42.268442" lon="2.793741">
        <ele>216.118</ele>
        <time>2020-10-17T17:01:08Z</time>
      </trkpt>
      <trkpt lat="42.268442" lon="2.793741">
        <ele>216.168</ele>
        <time>2020-10-17T17:01:08Z</time>
      </trkpt>
      <trkpt lat="42.268380" lon="2.793782">
        <ele>216.063</ele>
        <time>2020-10-17T17:01:10Z</time>
      </trkpt>
      <trkpt lat="42.268305" lon="2.793829">
        <ele>216.359</ele>
        <time>2020-10-17T17:01:12Z</time>
      </trkpt>
      <trkpt lat="42.268124" lon="2.793954">
        <ele>216.803</ele>
        <time>2020-10-17T17:01:17Z</time>
      </trkpt>
      <trkpt lat="42.268124" lon="2.793954">
        <ele>216.823</ele>
        <time>2020-10-17T17:01:17Z</time>
      </trkpt>
      <trkpt lat="42.268124" lon="2.793954">
        <ele>216.808</ele>
        <time>2020-10-17T17:01:17Z</time>
      </trkpt>
      <trkpt lat="42.268124" lon="2.793954">
        <ele>216.810</ele>
        <time>2020-10-17T17:01:17Z</time>
      </trkpt>
      <trkpt lat="42.268053" lon="2.794018">
        <ele>216.863</ele>
        <time>2020-10-17T17:01:19Z</time>
      </trkpt>
      <trkpt lat="42.267972" lon="2.794052">
        <ele>216.522</ele>
        <time>2020-10-17T17:01:21Z</time>
      </trkpt>
      <trkpt lat="42.267883" lon="2.794080">
        <ele>216.251</ele>
        <time>2020-10-17T17:01:23Z</time>
      </trkpt>
      <trkpt lat="42.267719" lon="2.794202">
        <ele>214.740</ele>
        <time>2020-10-17T17:01:27Z</time>
      </trkpt>
      <trkpt lat="42.267719" lon="2.794202">
        <ele>214.748</ele>
        <time>2020-10-17T17:01:27Z</time>
      </trkpt>
      <trkpt lat="42.267719" lon="2.794202">
        <ele>214.778</ele>
        <time>2020-10-17T17:01:27Z</time>
      </trkpt>
      <trkpt lat="42.267719" lon="2.794202">
        <ele>214.743</ele>
        <time>2020-10-17T17:01:27Z</time>
      </trkpt>
      <trkpt lat="42.267680" lon="2.794243">
        <ele>214.142</ele>
        <time>2020-10-17T17:01:28Z</time>
      </trkpt>
      <trkpt lat="42.267604" lon="2.794327">
        <ele>213.122</ele>
        <time>2020-10-17T17:01:30Z</time>
      </trkpt>
      <trkpt lat="42.267563" lon="2.794360">
        <ele>212.114</ele>
        <time>2020-10-17T17:01:31Z</time>
      </trkpt>
      <trkpt lat="42.267484" lon="2.794408">
        <ele>210.808</ele>
        <time>2020-10-17T17:01:33Z</time>
      </trkpt>
      <trkpt lat="42.267345" lon="2.794516">
        <ele>207.859</ele>
        <time>2020-10-17T17:01:37Z</time>
      </trkpt>
      <trkpt lat="42.267345" lon="2.794516">
        <ele>207.892</ele>
        <time>2020-10-17T17:01:37Z</time>
      </trkpt>
      <trkpt lat="42.267345" lon="2.794516">
        <ele>207.871</ele>
        <time>2020-10-17T17:01:37Z</time>
      </trkpt>
      <trkpt lat="42.267345" lon="2.794516">
        <ele>207.870</ele>
        <time>2020-10-17T17:01:37Z</time>
      </trkpt>
      <trkpt lat="42.267300" lon="2.794553">
        <ele>207.289</ele>
        <time>2020-10-17T17:01:38Z</time>
      </trkpt>
      <trkpt lat="42.267252" lon="2.794594">
        <ele>206.737</ele>
        <time>2020-10-17T17:01:39Z</time>
      </trkpt>
      <trkpt lat="42.267203" lon="2.794635">
        <ele>206.187</ele>
        <time>2020-10-17T17:01:40Z</time>
      </trkpt>
      <trkpt lat="42.267104" lon="2.794710">
        <ele>205.352</ele>
        <time>2020-10-17T17:01:42Z</time>
      </trkpt>
      <trkpt lat="42.267054" lon="2.794744">
        <ele>204.531</ele>
        <time>2020-10-17T17:01:43Z</time>
      </trkpt>
      <trkpt lat="42.266865" lon="2.794878">
        <ele>201.661</ele>
        <time>2020-10-17T17:01:47Z</time>
      </trkpt>
      <trkpt lat="42.266865" lon="2.794878">
        <ele>201.607</ele>
        <time>2020-10-17T17:01:47Z</time>
      </trkpt>
      <trkpt lat="42.266865" lon="2.794878">
        <ele>201.608</ele>
        <time>2020-10-17T17:01:47Z</time>
      </trkpt>
      <trkpt lat="42.266865" lon="2.794878">
        <ele>201.628</ele>
        <time>2020-10-17T17:01:47Z</time>
      </trkpt>
      <trkpt lat="42.266816" lon="2.794907">
        <ele>200.881</ele>
        <time>2020-10-17T17:01:48Z</time>
      </trkpt>
      <trkpt lat="42.266767" lon="2.794934">
        <ele>200.170</ele>
        <time>2020-10-17T17:01:49Z</time>
      </trkpt>
      <trkpt lat="42.266721" lon="2.794960">
        <ele>199.419</ele>
        <time>2020-10-17T17:01:50Z</time>
      </trkpt>
      <trkpt lat="42.266645" lon="2.795010">
        <ele>198.628</ele>
        <time>2020-10-17T17:01:52Z</time>
      </trkpt>
      <trkpt lat="42.266577" lon="2.795055">
        <ele>197.926</ele>
        <time>2020-10-17T17:01:54Z</time>
      </trkpt>
      <trkpt lat="42.266504" lon="2.795124">
        <ele>197.256</ele>
        <time>2020-10-17T17:01:56Z</time>
      </trkpt>
      <trkpt lat="42.266278" lon="2.795225">
        <ele>194.771</ele>
        <time>2020-10-17T17:02:01Z</time>
      </trkpt>
      <trkpt lat="42.266278" lon="2.795225">
        <ele>194.742</ele>
        <time>2020-10-17T17:02:01Z</time>
      </trkpt>
      <trkpt lat="42.266278" lon="2.795225">
        <ele>194.722</ele>
        <time>2020-10-17T17:02:01Z</time>
      </trkpt>
      <trkpt lat="42.266278" lon="2.795225">
        <ele>194.714</ele>
        <time>2020-10-17T17:02:01Z</time>
      </trkpt>
      <trkpt lat="42.266169" lon="2.795277">
        <ele>194.008</ele>
        <time>2020-10-17T17:02:03Z</time>
      </trkpt>
      <trkpt lat="42.266068" lon="2.795340">
        <ele>193.669</ele>
        <time>2020-10-17T17:02:05Z</time>
      </trkpt>
      <trkpt lat="42.265970" lon="2.795402">
        <ele>193.212</ele>
        <time>2020-10-17T17:02:07Z</time>
      </trkpt>
      <trkpt lat="42.265857" lon="2.795472">
        <ele>192.881</ele>
        <time>2020-10-17T17:02:09Z</time>
      </trkpt>
      <trkpt lat="42.265791" lon="2.795508">
        <ele>192.430</ele>
        <time>2020-10-17T17:02:10Z</time>
      </trkpt>
      <trkpt lat="42.265658" lon="2.795572">
        <ele>192.259</ele>
        <time>2020-10-17T17:02:12Z</time>
      </trkpt>
      <trkpt lat="42.265436" lon="2.795588">
        <ele>192.317</ele>
        <time>2020-10-17T17:02:16Z</time>
      </trkpt>
      <trkpt lat="42.265436" lon="2.795588">
        <ele>192.337</ele>
        <time>2020-10-17T17:02:16Z</time>
      </trkpt>
      <trkpt lat="42.265436" lon="2.795588">
        <ele>192.372</ele>
        <time>2020-10-17T17:02:16Z</time>
      </trkpt>
      <trkpt lat="42.265436" lon="2.795588">
        <ele>192.313</ele>
        <time>2020-10-17T17:02:16Z</time>
      </trkpt>
      <trkpt lat="42.265387" lon="2.795566">
        <ele>192.743</ele>
        <time>2020-10-17T17:02:17Z</time>
      </trkpt>
      <trkpt lat="42.265328" lon="2.795538">
        <ele>193.007</ele>
        <time>2020-10-17T17:02:18Z</time>
      </trkpt>
      <trkpt lat="42.265263" lon="2.795501">
        <ele>193.208</ele>
        <time>2020-10-17T17:02:19Z</time>
      </trkpt>
      <trkpt lat="42.265138" lon="2.795417">
        <ele>193.656</ele>
        <time>2020-10-17T17:02:21Z</time>
      </trkpt>
      <trkpt lat="42.265089" lon="2.795373">
        <ele>194.019</ele>
        <time>2020-10-17T17:02:22Z</time>
      </trkpt>
      <trkpt lat="42.264922" lon="2.795277">
        <ele>195.078</ele>
        <time>2020-10-17T17:02:26Z</time>
      </trkpt>
      <trkpt lat="42.264922" lon="2.795277">
        <ele>195.087</ele>
        <time>2020-10-17T17:02:26Z</time>
      </trkpt>
      <trkpt lat="42.264922" lon="2.795277">
        <ele>195.026</ele>
        <time>2020-10-17T17:02:26Z</time>
      </trkpt>
      <trkpt lat="42.264922" lon="2.795277">
        <ele>195.024</ele>
        <time>2020-10-17T17:02:26Z</time>
      </trkpt>
      <trkpt lat="42.264852" lon="2.795289">
        <ele>195.124</ele>
        <time>2020-10-17T17:02:27Z</time>
      </trkpt>
      <trkpt lat="42.264707" lon="2.795327">
        <ele>195.159</ele>
        <time>2020-10-17T17:02:29Z</time>
      </trkpt>
      <trkpt lat="42.264638" lon="2.795342">
        <ele>195.168</ele>
        <time>2020-10-17T17:02:30Z</time>
      </trkpt>
      <trkpt lat="42.264500" lon="2.795364">
        <ele>195.042</ele>
        <time>2020-10-17T17:02:32Z</time>
      </trkpt>
      <trkpt lat="42.264204" lon="2.795396">
        <ele>195.126</ele>
        <time>2020-10-17T17:02:36Z</time>
      </trkpt>
      <trkpt lat="42.264204" lon="2.795396">
        <ele>195.108</ele>
        <time>2020-10-17T17:02:36Z</time>
      </trkpt>
      <trkpt lat="42.264204" lon="2.795396">
        <ele>195.131</ele>
        <time>2020-10-17T17:02:36Z</time>
      </trkpt>
      <trkpt lat="42.264204" lon="2.795396">
        <ele>195.184</ele>
        <time>2020-10-17T17:02:36Z</time>
      </trkpt>
      <trkpt lat="42.264132" lon="2.795409">
        <ele>195.393</ele>
        <time>2020-10-17T17:02:37Z</time>
      </trkpt>
      <trkpt lat="42.264066" lon="2.795420">
        <ele>195.512</ele>
        <time>2020-10-17T17:02:38Z</time>
      </trkpt>
      <trkpt lat="42.263944" lon="2.795431">
        <ele>195.851</ele>
        <time>2020-10-17T17:02:40Z</time>
      </trkpt>
      <trkpt lat="42.263834" lon="2.795426">
        <ele>196.179</ele>
        <time>2020-10-17T17:02:42Z</time>
      </trkpt>
      <trkpt lat="42.263668" lon="2.795480">
        <ele>196.539</ele>
        <time>2020-10-17T17:02:46Z</time>
      </trkpt>
      <trkpt lat="42.263668" lon="2.795480">
        <ele>196.554</ele>
        <time>2020-10-17T17:02:46Z</time>
      </trkpt>
      <trkpt lat="42.263668" lon="2.795480">
        <ele>196.562</ele>
        <time>2020-10-17T17:02:46Z</time>
      </trkpt>
      <trkpt lat="42.263668" lon="2.795480">
        <ele>196.583</ele>
        <time>2020-10-17T17:02:46Z</time>
      </trkpt>
      <trkpt lat="42.263595" lon="2.795529">
        <ele>196.611</ele>
        <time>2020-10-17T17:02:48Z</time>
      </trkpt>
      <trkpt lat="42.263504" lon="2.795579">
        <ele>196.808</ele>
        <time>2020-10-17T17:02:50Z</time>
      </trkpt>
      <trkpt lat="42.263415" lon="2.795634">
        <ele>197.031</ele>
        <time>2020-10-17T17:02:52Z</time>
      </trkpt>
      <trkpt lat="42.263265" lon="2.795779">
        <ele>197.044</ele>
        <time>2020-10-17T17:02:56Z</time>
      </trkpt>
      <trkpt lat="42.263265" lon="2.795779">
        <ele>197.033</ele>
        <time>2020-10-17T17:02:56Z</time>
      </trkpt>
      <trkpt lat="42.263265" lon="2.795779">
        <ele>197.052</ele>
        <time>2020-10-17T17:02:56Z</time>
      </trkpt>
      <trkpt lat="42.263265" lon="2.795779">
        <ele>197.031</ele>
        <time>2020-10-17T17:02:56Z</time>
      </trkpt>
      <trkpt lat="42.263168" lon="2.795859">
        <ele>197.199</ele>
        <time>2020-10-17T17:02:58Z</time>
      </trkpt>
      <trkpt lat="42.263059" lon="2.795931">
        <ele>197.249</ele>
        <time>2020-10-17T17:03:00Z</time>
      </trkpt>
      <trkpt lat="42.262945" lon="2.796016">
        <ele>197.164</ele>
        <time>2020-10-17T17:03:02Z</time>
      </trkpt>
      <trkpt lat="42.262826" lon="2.796211">
        <ele>195.752</ele>
        <time>2020-10-17T17:03:06Z</time>
      </trkpt>
      <trkpt lat="42.262826" lon="2.796211">
        <ele>195.753</ele>
        <time>2020-10-17T17:03:06Z</time>
      </trkpt>
      <trkpt lat="42.262826" lon="2.796211">
        <ele>195.708</ele>
        <time>2020-10-17T17:03:06Z</time>
      </trkpt>
      <trkpt lat="42.262826" lon="2.796211">
        <ele>195.708</ele>
        <time>2020-10-17T17:03:06Z</time>
      </trkpt>
      <trkpt lat="42.262804" lon="2.796281">
        <ele>195.330</ele>
        <time>2020-10-17T17:03:07Z</time>
      </trkpt>
      <trkpt lat="42.262726" lon="2.796442">
        <ele>194.893</ele>
        <time>2020-10-17T17:03:09Z</time>
      </trkpt>
      <trkpt lat="42.262674" lon="2.796519">
        <ele>194.222</ele>
        <time>2020-10-17T17:03:10Z</time>
      </trkpt>
      <trkpt lat="42.262580" lon="2.796641">
        <ele>193.671</ele>
        <time>2020-10-17T17:03:12Z</time>
      </trkpt>
      <trkpt lat="42.262429" lon="2.796773">
        <ele>191.890</ele>
        <time>2020-10-17T17:03:16Z</time>
      </trkpt>
      <trkpt lat="42.262429" lon="2.796773">
        <ele>191.818</ele>
        <time>2020-10-17T17:03:16Z</time>
      </trkpt>
      <trkpt lat="42.262429" lon="2.796773">
        <ele>191.828</ele>
        <time>2020-10-17T17:03:16Z</time>
      </trkpt>
      <trkpt lat="42.262429" lon="2.796773">
        <ele>191.883</ele>
        <time>2020-10-17T17:03:16Z</time>
      </trkpt>
      <trkpt lat="42.262363" lon="2.796792">
        <ele>191.388</ele>
        <time>2020-10-17T17:03:18Z</time>
      </trkpt>
      <trkpt lat="42.262281" lon="2.796814">
        <ele>190.724</ele>
        <time>2020-10-17T17:03:20Z</time>
      </trkpt>
      <trkpt lat="42.262183" lon="2.796868">
        <ele>190.026</ele>
        <time>2020-10-17T17:03:22Z</time>
      </trkpt>
      <trkpt lat="42.262024" lon="2.797042">
        <ele>188.408</ele>
        <time>2020-10-17T17:03:26Z</time>
      </trkpt>
      <trkpt lat="42.262024" lon="2.797042">
        <ele>188.433</ele>
        <time>2020-10-17T17:03:26Z</time>
      </trkpt>
      <trkpt lat="42.262024" lon="2.797042">
        <ele>188.446</ele>
        <time>2020-10-17T17:03:26Z</time>
      </trkpt>
      <trkpt lat="42.262024" lon="2.797042">
        <ele>188.485</ele>
        <time>2020-10-17T17:03:26Z</time>
      </trkpt>
      <trkpt lat="42.261981" lon="2.797133">
        <ele>187.914</ele>
        <time>2020-10-17T17:03:28Z</time>
      </trkpt>
      <trkpt lat="42.261953" lon="2.797192">
        <ele>187.573</ele>
        <time>2020-10-17T17:03:29Z</time>
      </trkpt>
      <trkpt lat="42.261917" lon="2.797253">
        <ele>187.211</ele>
        <time>2020-10-17T17:03:30Z</time>
      </trkpt>
      <trkpt lat="42.261818" lon="2.797343">
        <ele>186.851</ele>
        <time>2020-10-17T17:03:32Z</time>
      </trkpt>
      <trkpt lat="42.261643" lon="2.797359">
        <ele>185.016</ele>
        <time>2020-10-17T17:03:36Z</time>
      </trkpt>
      <trkpt lat="42.261643" lon="2.797359">
        <ele>185.024</ele>
        <time>2020-10-17T17:03:36Z</time>
      </trkpt>
      <trkpt lat="42.261643" lon="2.797359">
        <ele>185.004</ele>
        <time>2020-10-17T17:03:36Z</time>
      </trkpt>
      <trkpt lat="42.261643" lon="2.797359">
        <ele>185.014</ele>
        <time>2020-10-17T17:03:36Z</time>
      </trkpt>
      <trkpt lat="42.261621" lon="2.797263">
        <ele>184.208</ele>
        <time>2020-10-17T17:03:38Z</time>
      </trkpt>
      <trkpt lat="42.261622" lon="2.797173">
        <ele>183.327</ele>
        <time>2020-10-17T17:03:40Z</time>
      </trkpt>
      <trkpt lat="42.261632" lon="2.797108">
        <ele>182.570</ele>
        <time>2020-10-17T17:03:42Z</time>
      </trkpt>
      <trkpt lat="42.261671" lon="2.796931">
        <ele>180.269</ele>
        <time>2020-10-17T17:03:46Z</time>
      </trkpt>
      <trkpt lat="42.261671" lon="2.796931">
        <ele>180.298</ele>
        <time>2020-10-17T17:03:46Z</time>
      </trkpt>
      <trkpt lat="42.261671" lon="2.796931">
        <ele>180.277</ele>
        <time>2020-10-17T17:03:46Z</time>
      </trkpt>
      <trkpt lat="42.261671" lon="2.796931">
        <ele>180.225</ele>
        <time>2020-10-17T17:03:46Z</time>
      </trkpt>
      <trkpt lat="42.261688" lon="2.796841">
        <ele>179.535</ele>
        <time>2020-10-17T17:03:48Z</time>
      </trkpt>
      <trkpt lat="42.261662" lon="2.796780">
        <ele>178.870</ele>
        <time>2020-10-17T17:03:52Z</time>
      </trkpt>
      <trkpt lat="42.261573" lon="2.796714">
        <ele>178.032</ele>
        <time>2020-10-17T17:03:56Z</time>
      </trkpt>
      <trkpt lat="42.261573" lon="2.796714">
        <ele>178.092</ele>
        <time>2020-10-17T17:03:56Z</time>
      </trkpt>
      <trkpt lat="42.261573" lon="2.796714">
        <ele>178.011</ele>
        <time>2020-10-17T17:03:56Z</time>
      </trkpt>
      <trkpt lat="42.261573" lon="2.796714">
        <ele>178.008</ele>
        <time>2020-10-17T17:03:56Z</time>
      </trkpt>
      <trkpt lat="42.261520" lon="2.796769">
        <ele>177.778</ele>
        <time>2020-10-17T17:03:59Z</time>
      </trkpt>
      <trkpt lat="42.261481" lon="2.796878">
        <ele>177.241</ele>
        <time>2020-10-17T17:04:01Z</time>
      </trkpt>
      <trkpt lat="42.261375" lon="2.797033">
        <ele>176.390</ele>
        <time>2020-10-17T17:04:04Z</time>
      </trkpt>
      <trkpt lat="42.261375" lon="2.797033">
        <ele>176.389</ele>
        <time>2020-10-17T17:04:04Z</time>
      </trkpt>
      <trkpt lat="42.261298" lon="2.797087">
        <ele>175.858</ele>
        <time>2020-10-17T17:04:06Z</time>
      </trkpt>
      <trkpt lat="42.261298" lon="2.797087">
        <ele>175.896</ele>
        <time>2020-10-17T17:04:06Z</time>
      </trkpt>
      <trkpt lat="42.261249" lon="2.797135">
        <ele>175.426</ele>
        <time>2020-10-17T17:04:08Z</time>
      </trkpt>
      <trkpt lat="42.261194" lon="2.797199">
        <ele>175.261</ele>
        <time>2020-10-17T17:04:11Z</time>
      </trkpt>
      <trkpt lat="42.261039" lon="2.797381">
        <ele>175.874</ele>
        <time>2020-10-17T17:04:16Z</time>
      </trkpt>
      <trkpt lat="42.261039" lon="2.797381">
        <ele>175.856</ele>
        <time>2020-10-17T17:04:16Z</time>
      </trkpt>
      <trkpt lat="42.261039" lon="2.797381">
        <ele>175.821</ele>
        <time>2020-10-17T17:04:16Z</time>
      </trkpt>
      <trkpt lat="42.261039" lon="2.797381">
        <ele>175.808</ele>
        <time>2020-10-17T17:04:16Z</time>
      </trkpt>
      <trkpt lat="42.260973" lon="2.797460">
        <ele>176.262</ele>
        <time>2020-10-17T17:04:18Z</time>
      </trkpt>
      <trkpt lat="42.260920" lon="2.797535">
        <ele>176.855</ele>
        <time>2020-10-17T17:04:20Z</time>
      </trkpt>
      <trkpt lat="42.260895" lon="2.797621">
        <ele>177.544</ele>
        <time>2020-10-17T17:04:22Z</time>
      </trkpt>
      <trkpt lat="42.260857" lon="2.797844">
        <ele>179.333</ele>
        <time>2020-10-17T17:04:26Z</time>
      </trkpt>
      <trkpt lat="42.260857" lon="2.797844">
        <ele>179.372</ele>
        <time>2020-10-17T17:04:26Z</time>
      </trkpt>
      <trkpt lat="42.260857" lon="2.797844">
        <ele>179.320</ele>
        <time>2020-10-17T17:04:26Z</time>
      </trkpt>
      <trkpt lat="42.260857" lon="2.797844">
        <ele>179.390</ele>
        <time>2020-10-17T17:04:26Z</time>
      </trkpt>
      <trkpt lat="42.260849" lon="2.797916">
        <ele>180.025</ele>
        <time>2020-10-17T17:04:28Z</time>
      </trkpt>
      <trkpt lat="42.260881" lon="2.797991">
        <ele>181.482</ele>
        <time>2020-10-17T17:04:32Z</time>
      </trkpt>
      <trkpt lat="42.260975" lon="2.798093">
        <ele>184.043</ele>
        <time>2020-10-17T17:04:36Z</time>
      </trkpt>
      <trkpt lat="42.260975" lon="2.798093">
        <ele>184.017</ele>
        <time>2020-10-17T17:04:36Z</time>
      </trkpt>
      <trkpt lat="42.260975" lon="2.798093">
        <ele>184.008</ele>
        <time>2020-10-17T17:04:36Z</time>
      </trkpt>
      <trkpt lat="42.260975" lon="2.798093">
        <ele>184.033</ele>
        <time>2020-10-17T17:04:36Z</time>
      </trkpt>
      <trkpt lat="42.261025" lon="2.798107">
        <ele>184.596</ele>
        <time>2020-10-17T17:04:38Z</time>
      </trkpt>
      <trkpt lat="42.261097" lon="2.798112">
        <ele>184.955</ele>
        <time>2020-10-17T17:04:40Z</time>
      </trkpt>
      <trkpt lat="42.261188" lon="2.798139">
        <ele>185.474</ele>
        <time>2020-10-17T17:04:42Z</time>
      </trkpt>
      <trkpt lat="42.261377" lon="2.798344">
        <ele>187.643</ele>
        <time>2020-10-17T17:04:46Z</time>
      </trkpt>
      <trkpt lat="42.261377" lon="2.798344">
        <ele>187.661</ele>
        <time>2020-10-17T17:04:46Z</time>
      </trkpt>
      <trkpt lat="42.261377" lon="2.798344">
        <ele>187.671</ele>
        <time>2020-10-17T17:04:46Z</time>
      </trkpt>
      <trkpt lat="42.261377" lon="2.798344">
        <ele>187.676</ele>
        <time>2020-10-17T17:04:46Z</time>
      </trkpt>
      <trkpt lat="42.261443" lon="2.798389">
        <ele>188.055</ele>
        <time>2020-10-17T17:04:48Z</time>
      </trkpt>
      <trkpt lat="42.261533" lon="2.798412">
        <ele>188.307</ele>
        <time>2020-10-17T17:04:50Z</time>
      </trkpt>
      <trkpt lat="42.261640" lon="2.798436">
        <ele>188.617</ele>
        <time>2020-10-17T17:04:52Z</time>
      </trkpt>
      <trkpt lat="42.261879" lon="2.798431">
        <ele>188.908</ele>
        <time>2020-10-17T17:04:56Z</time>
      </trkpt>
      <trkpt lat="42.261879" lon="2.798431">
        <ele>188.910</ele>
        <time>2020-10-17T17:04:56Z</time>
      </trkpt>
      <trkpt lat="42.261879" lon="2.798431">
        <ele>188.933</ele>
        <time>2020-10-17T17:04:56Z</time>
      </trkpt>
      <trkpt lat="42.261879" lon="2.798431">
        <ele>188.962</ele>
        <time>2020-10-17T17:04:56Z</time>
      </trkpt>
      <trkpt lat="42.261975" lon="2.798400">
        <ele>188.961</ele>
        <time>2020-10-17T17:04:58Z</time>
      </trkpt>
      <trkpt lat="42.262035" lon="2.798395">
        <ele>188.830</ele>
        <time>2020-10-17T17:05:00Z</time>
      </trkpt>
      <trkpt lat="42.262127" lon="2.798401">
        <ele>189.998</ele>
        <time>2020-10-17T17:05:05Z</time>
      </trkpt>
      <trkpt lat="42.262127" lon="2.798401">
        <ele>189.938</ele>
        <time>2020-10-17T17:05:05Z</time>
      </trkpt>
      <trkpt lat="42.262127" lon="2.798401">
        <ele>189.953</ele>
        <time>2020-10-17T17:05:05Z</time>
      </trkpt>
      <trkpt lat="42.262200" lon="2.798388">
        <ele>190.666</ele>
        <time>2020-10-17T17:05:07Z</time>
      </trkpt>
      <trkpt lat="42.262278" lon="2.798363">
        <ele>191.429</ele>
        <time>2020-10-17T17:05:09Z</time>
      </trkpt>
      <trkpt lat="42.262354" lon="2.798319">
        <ele>192.021</ele>
        <time>2020-10-17T17:05:11Z</time>
      </trkpt>
      <trkpt lat="42.262540" lon="2.798232">
        <ele>192.808</ele>
        <time>2020-10-17T17:05:16Z</time>
      </trkpt>
      <trkpt lat="42.262540" lon="2.798232">
        <ele>192.851</ele>
        <time>2020-10-17T17:05:16Z</time>
      </trkpt>
      <trkpt lat="42.262540" lon="2.798232">
        <ele>192.874</ele>
        <time>2020-10-17T17:05:16Z</time>
      </trkpt>
      <trkpt lat="42.262540" lon="2.798232">
        <ele>192.893</ele>
        <time>2020-10-17T17:05:16Z</time>
      </trkpt>
      <trkpt lat="42.262612" lon="2.798228">
        <ele>193.232</ele>
        <time>2020-10-17T17:05:18Z</time>
      </trkpt>
      <trkpt lat="42.262680" lon="2.798235">
        <ele>193.781</ele>
        <time>2020-10-17T17:05:20Z</time>
      </trkpt>
      <trkpt lat="42.262757" lon="2.798255">
        <ele>194.239</ele>
        <time>2020-10-17T17:05:22Z</time>
      </trkpt>
      <trkpt lat="42.262890" lon="2.798281">
        <ele>195.599</ele>
        <time>2020-10-17T17:05:26Z</time>
      </trkpt>
      <trkpt lat="42.262890" lon="2.798281">
        <ele>195.594</ele>
        <time>2020-10-17T17:05:26Z</time>
      </trkpt>
      <trkpt lat="42.262890" lon="2.798281">
        <ele>195.583</ele>
        <time>2020-10-17T17:05:26Z</time>
      </trkpt>
      <trkpt lat="42.262890" lon="2.798281">
        <ele>195.525</ele>
        <time>2020-10-17T17:05:26Z</time>
      </trkpt>
      <trkpt lat="42.262951" lon="2.798284">
        <ele>195.817</ele>
        <time>2020-10-17T17:05:28Z</time>
      </trkpt>
      <trkpt lat="42.263007" lon="2.798280">
        <ele>196.008</ele>
        <time>2020-10-17T17:05:30Z</time>
      </trkpt>
      <trkpt lat="42.263088" lon="2.798253">
        <ele>196.443</ele>
        <time>2020-10-17T17:05:32Z</time>
      </trkpt>
      <trkpt lat="42.263304" lon="2.798224">
        <ele>197.126</ele>
        <time>2020-10-17T17:05:36Z</time>
      </trkpt>
      <trkpt lat="42.263304" lon="2.798224">
        <ele>197.185</ele>
        <time>2020-10-17T17:05:36Z</time>
      </trkpt>
      <trkpt lat="42.263304" lon="2.798224">
        <ele>197.174</ele>
        <time>2020-10-17T17:05:36Z</time>
      </trkpt>
      <trkpt lat="42.263304" lon="2.798224">
        <ele>197.163</ele>
        <time>2020-10-17T17:05:36Z</time>
      </trkpt>
      <trkpt lat="42.263393" lon="2.798214">
        <ele>197.331</ele>
        <time>2020-10-17T17:05:38Z</time>
      </trkpt>
      <trkpt lat="42.263474" lon="2.798222">
        <ele>197.441</ele>
        <time>2020-10-17T17:05:40Z</time>
      </trkpt>
      <trkpt lat="42.263537" lon="2.798277">
        <ele>197.616</ele>
        <time>2020-10-17T17:05:42Z</time>
      </trkpt>
      <trkpt lat="42.263566" lon="2.798359">
        <ele>198.944</ele>
        <time>2020-10-17T17:05:46Z</time>
      </trkpt>
      <trkpt lat="42.263566" lon="2.798359">
        <ele>198.905</ele>
        <time>2020-10-17T17:05:46Z</time>
      </trkpt>
      <trkpt lat="42.263566" lon="2.798359">
        <ele>198.915</ele>
        <time>2020-10-17T17:05:46Z</time>
      </trkpt>
      <trkpt lat="42.263566" lon="2.798359">
        <ele>198.908</ele>
        <time>2020-10-17T17:05:46Z</time>
      </trkpt>
      <trkpt lat="42.263611" lon="2.798370">
        <ele>199.679</ele>
        <time>2020-10-17T17:05:48Z</time>
      </trkpt>
      <trkpt lat="42.263710" lon="2.798370">
        <ele>200.662</ele>
        <time>2020-10-17T17:05:50Z</time>
      </trkpt>
      <trkpt lat="42.263824" lon="2.798367">
        <ele>201.571</ele>
        <time>2020-10-17T17:05:52Z</time>
      </trkpt>
      <trkpt lat="42.263985" lon="2.798361">
        <ele>202.490</ele>
        <time>2020-10-17T17:05:55Z</time>
      </trkpt>
      <trkpt lat="42.263985" lon="2.798361">
        <ele>202.449</ele>
        <time>2020-10-17T17:05:55Z</time>
      </trkpt>
      <trkpt lat="42.263985" lon="2.798361">
        <ele>202.427</ele>
        <time>2020-10-17T17:05:55Z</time>
      </trkpt>
      <trkpt lat="42.264079" lon="2.798377">
        <ele>202.547</ele>
        <time>2020-10-17T17:05:57Z</time>
      </trkpt>
      <trkpt lat="42.264122" lon="2.798400">
        <ele>202.742</ele>
        <time>2020-10-17T17:05:58Z</time>
      </trkpt>
      <trkpt lat="42.264191" lon="2.798448">
        <ele>203.281</ele>
        <time>2020-10-17T17:06:00Z</time>
      </trkpt>
      <trkpt lat="42.264239" lon="2.798474">
        <ele>203.861</ele>
        <time>2020-10-17T17:06:02Z</time>
      </trkpt>
      <trkpt lat="42.264315" lon="2.798495">
        <ele>205.217</ele>
        <time>2020-10-17T17:06:06Z</time>
      </trkpt>
      <trkpt lat="42.264315" lon="2.798495">
        <ele>205.208</ele>
        <time>2020-10-17T17:06:06Z</time>
      </trkpt>
      <trkpt lat="42.264315" lon="2.798495">
        <ele>205.293</ele>
        <time>2020-10-17T17:06:06Z</time>
      </trkpt>
      <trkpt lat="42.264360" lon="2.798513">
        <ele>205.586</ele>
        <time>2020-10-17T17:06:08Z</time>
      </trkpt>
      <trkpt lat="42.264414" lon="2.798502">
        <ele>205.725</ele>
        <time>2020-10-17T17:06:10Z</time>
      </trkpt>
      <trkpt lat="42.264475" lon="2.798468">
        <ele>205.574</ele>
        <time>2020-10-17T17:06:12Z</time>
      </trkpt>
      <trkpt lat="42.264630" lon="2.798454">
        <ele>204.343</ele>
        <time>2020-10-17T17:06:16Z</time>
      </trkpt>
      <trkpt lat="42.264630" lon="2.798454">
        <ele>204.311</ele>
        <time>2020-10-17T17:06:16Z</time>
      </trkpt>
      <trkpt lat="42.264630" lon="2.798454">
        <ele>204.381</ele>
        <time>2020-10-17T17:06:16Z</time>
      </trkpt>
      <trkpt lat="42.264630" lon="2.798454">
        <ele>204.386</ele>
        <time>2020-10-17T17:06:16Z</time>
      </trkpt>
      <trkpt lat="42.264701" lon="2.798500">
        <ele>204.533</ele>
        <time>2020-10-17T17:06:18Z</time>
      </trkpt>
      <trkpt lat="42.264742" lon="2.798547">
        <ele>205.023</ele>
        <time>2020-10-17T17:06:20Z</time>
      </trkpt>
      <trkpt lat="42.264779" lon="2.798588">
        <ele>205.215</ele>
        <time>2020-10-17T17:06:22Z</time>
      </trkpt>
      <trkpt lat="42.264875" lon="2.798689">
        <ele>204.708</ele>
        <time>2020-10-17T17:06:26Z</time>
      </trkpt>
      <trkpt lat="42.264875" lon="2.798689">
        <ele>204.728</ele>
        <time>2020-10-17T17:06:26Z</time>
      </trkpt>
      <trkpt lat="42.264875" lon="2.798689">
        <ele>204.771</ele>
        <time>2020-10-17T17:06:26Z</time>
      </trkpt>
      <trkpt lat="42.264940" lon="2.798720">
        <ele>204.130</ele>
        <time>2020-10-17T17:06:28Z</time>
      </trkpt>
      <trkpt lat="42.265020" lon="2.798748">
        <ele>203.689</ele>
        <time>2020-10-17T17:06:30Z</time>
      </trkpt>
      <trkpt lat="42.265091" lon="2.798777">
        <ele>202.938</ele>
        <time>2020-10-17T17:06:32Z</time>
      </trkpt>
      <trkpt lat="42.265189" lon="2.798841">
        <ele>201.436</ele>
        <time>2020-10-17T17:06:35Z</time>
      </trkpt>
      <trkpt lat="42.265189" lon="2.798841">
        <ele>201.426</ele>
        <time>2020-10-17T17:06:35Z</time>
      </trkpt>
      <trkpt lat="42.265189" lon="2.798841">
        <ele>201.471</ele>
        <time>2020-10-17T17:06:35Z</time>
      </trkpt>
      <trkpt lat="42.265245" lon="2.798879">
        <ele>200.681</ele>
        <time>2020-10-17T17:06:37Z</time>
      </trkpt>
      <trkpt lat="42.265298" lon="2.798938">
        <ele>200.061</ele>
        <time>2020-10-17T17:06:39Z</time>
      </trkpt>
      <trkpt lat="42.265334" lon="2.799014">
        <ele>199.417</ele>
        <time>2020-10-17T17:06:41Z</time>
      </trkpt>
      <trkpt lat="42.265247" lon="2.799173">
        <ele>196.408</ele>
        <time>2020-10-17T17:06:46Z</time>
      </trkpt>
      <trkpt lat="42.265247" lon="2.799173">
        <ele>196.433</ele>
        <time>2020-10-17T17:06:46Z</time>
      </trkpt>
      <trkpt lat="42.265247" lon="2.799173">
        <ele>196.466</ele>
        <time>2020-10-17T17:06:46Z</time>
      </trkpt>
      <trkpt lat="42.265247" lon="2.799173">
        <ele>196.445</ele>
        <time>2020-10-17T17:06:46Z</time>
      </trkpt>
      <trkpt lat="42.265204" lon="2.799219">
        <ele>195.484</ele>
        <time>2020-10-17T17:06:48Z</time>
      </trkpt>
      <trkpt lat="42.265163" lon="2.799280">
        <ele>194.433</ele>
        <time>2020-10-17T17:06:51Z</time>
      </trkpt>
      <trkpt lat="42.265155" lon="2.799370">
        <ele>192.211</ele>
        <time>2020-10-17T17:06:56Z</time>
      </trkpt>
      <trkpt lat="42.265155" lon="2.799370">
        <ele>192.291</ele>
        <time>2020-10-17T17:06:56Z</time>
      </trkpt>
      <trkpt lat="42.265155" lon="2.799370">
        <ele>192.286</ele>
        <time>2020-10-17T17:06:56Z</time>
      </trkpt>
      <trkpt lat="42.265155" lon="2.799370">
        <ele>192.273</ele>
        <time>2020-10-17T17:06:56Z</time>
      </trkpt>
      <trkpt lat="42.265179" lon="2.799423">
        <ele>191.985</ele>
        <time>2020-10-17T17:06:58Z</time>
      </trkpt>
      <trkpt lat="42.265229" lon="2.799462">
        <ele>191.713</ele>
        <time>2020-10-17T17:07:00Z</time>
      </trkpt>
      <trkpt lat="42.265288" lon="2.799457">
        <ele>191.608</ele>
        <time>2020-10-17T17:07:02Z</time>
      </trkpt>
      <trkpt lat="42.265387" lon="2.799428">
        <ele>190.932</ele>
        <time>2020-10-17T17:07:06Z</time>
      </trkpt>
      <trkpt lat="42.265387" lon="2.799428">
        <ele>190.995</ele>
        <time>2020-10-17T17:07:06Z</time>
      </trkpt>
      <trkpt lat="42.265387" lon="2.799428">
        <ele>190.934</ele>
        <time>2020-10-17T17:07:06Z</time>
      </trkpt>
      <trkpt lat="42.265387" lon="2.799428">
        <ele>190.923</ele>
        <time>2020-10-17T17:07:06Z</time>
      </trkpt>
      <trkpt lat="42.265434" lon="2.799427">
        <ele>190.642</ele>
        <time>2020-10-17T17:07:08Z</time>
      </trkpt>
      <trkpt lat="42.265500" lon="2.799436">
        <ele>190.270</ele>
        <time>2020-10-17T17:07:10Z</time>
      </trkpt>
      <trkpt lat="42.265580" lon="2.799442">
        <ele>189.780</ele>
        <time>2020-10-17T17:07:12Z</time>
      </trkpt>
      <trkpt lat="42.265716" lon="2.799388">
        <ele>188.065</ele>
        <time>2020-10-17T17:07:16Z</time>
      </trkpt>
      <trkpt lat="42.265716" lon="2.799388">
        <ele>188.017</ele>
        <time>2020-10-17T17:07:16Z</time>
      </trkpt>
      <trkpt lat="42.265716" lon="2.799388">
        <ele>188.087</ele>
        <time>2020-10-17T17:07:16Z</time>
      </trkpt>
      <trkpt lat="42.265716" lon="2.799388">
        <ele>188.015</ele>
        <time>2020-10-17T17:07:16Z</time>
      </trkpt>
      <trkpt lat="42.265772" lon="2.799332">
        <ele>187.408</ele>
        <time>2020-10-17T17:07:18Z</time>
      </trkpt>
      <trkpt lat="42.265820" lon="2.799360">
        <ele>186.566</ele>
        <time>2020-10-17T17:07:21Z</time>
      </trkpt>
      <trkpt lat="42.265694" lon="2.799514">
        <ele>183.569</ele>
        <time>2020-10-17T17:07:26Z</time>
      </trkpt>
      <trkpt lat="42.265694" lon="2.799514">
        <ele>183.518</ele>
        <time>2020-10-17T17:07:26Z</time>
      </trkpt>
      <trkpt lat="42.265694" lon="2.799514">
        <ele>183.587</ele>
        <time>2020-10-17T17:07:26Z</time>
      </trkpt>
      <trkpt lat="42.265694" lon="2.799514">
        <ele>183.576</ele>
        <time>2020-10-17T17:07:26Z</time>
      </trkpt>
      <trkpt lat="42.265632" lon="2.799548">
        <ele>182.964</ele>
        <time>2020-10-17T17:07:28Z</time>
      </trkpt>
      <trkpt lat="42.265587" lon="2.799587">
        <ele>182.374</ele>
        <time>2020-10-17T17:07:30Z</time>
      </trkpt>
      <trkpt lat="42.265554" lon="2.799635">
        <ele>181.739</ele>
        <time>2020-10-17T17:07:32Z</time>
      </trkpt>
      <trkpt lat="42.265483" lon="2.799755">
        <ele>179.758</ele>
        <time>2020-10-17T17:07:35Z</time>
      </trkpt>
      <trkpt lat="42.265483" lon="2.799755">
        <ele>179.752</ele>
        <time>2020-10-17T17:07:35Z</time>
      </trkpt>
      <trkpt lat="42.265483" lon="2.799755">
        <ele>179.717</ele>
        <time>2020-10-17T17:07:35Z</time>
      </trkpt>
      <trkpt lat="42.265446" lon="2.799822">
        <ele>178.308</ele>
        <time>2020-10-17T17:07:37Z</time>
      </trkpt>
      <trkpt lat="42.265414" lon="2.799890">
        <ele>175.690</ele>
        <time>2020-10-17T17:07:50Z</time>
      </trkpt>
      <trkpt lat="42.265399" lon="2.799955">
        <ele>174.963</ele>
        <time>2020-10-17T17:07:52Z</time>
      </trkpt>
      <trkpt lat="42.265311" lon="2.800080">
        <ele>173.722</ele>
        <time>2020-10-17T17:07:56Z</time>
      </trkpt>
      <trkpt lat="42.265311" lon="2.800080">
        <ele>173.751</ele>
        <time>2020-10-17T17:07:56Z</time>
      </trkpt>
      <trkpt lat="42.265311" lon="2.800080">
        <ele>173.720</ele>
        <time>2020-10-17T17:07:56Z</time>
      </trkpt>
      <trkpt lat="42.265311" lon="2.800080">
        <ele>173.778</ele>
        <time>2020-10-17T17:07:56Z</time>
      </trkpt>
      <trkpt lat="42.265251" lon="2.800135">
        <ele>173.848</ele>
        <time>2020-10-17T17:07:58Z</time>
      </trkpt>
      <trkpt lat="42.265212" lon="2.800165">
        <ele>174.083</ele>
        <time>2020-10-17T17:08:00Z</time>
      </trkpt>
      <trkpt lat="42.265100" lon="2.800306">
        <ele>174.886</ele>
        <time>2020-10-17T17:08:06Z</time>
      </trkpt>
      <trkpt lat="42.265100" lon="2.800306">
        <ele>174.860</ele>
        <time>2020-10-17T17:08:06Z</time>
      </trkpt>
      <trkpt lat="42.265100" lon="2.800306">
        <ele>174.826</ele>
        <time>2020-10-17T17:08:06Z</time>
      </trkpt>
      <trkpt lat="42.265100" lon="2.800306">
        <ele>174.808</ele>
        <time>2020-10-17T17:08:06Z</time>
      </trkpt>
      <trkpt lat="42.265061" lon="2.800341">
        <ele>175.233</ele>
        <time>2020-10-17T17:08:08Z</time>
      </trkpt>
      <trkpt lat="42.265010" lon="2.800367">
        <ele>175.486</ele>
        <time>2020-10-17T17:08:10Z</time>
      </trkpt>
      <trkpt lat="42.264952" lon="2.800389">
        <ele>175.625</ele>
        <time>2020-10-17T17:08:12Z</time>
      </trkpt>
      <trkpt lat="42.264826" lon="2.800516">
        <ele>176.794</ele>
        <time>2020-10-17T17:08:16Z</time>
      </trkpt>
      <trkpt lat="42.264826" lon="2.800516">
        <ele>176.713</ele>
        <time>2020-10-17T17:08:16Z</time>
      </trkpt>
      <trkpt lat="42.264826" lon="2.800516">
        <ele>176.711</ele>
        <time>2020-10-17T17:08:16Z</time>
      </trkpt>
      <trkpt lat="42.264826" lon="2.800516">
        <ele>176.781</ele>
        <time>2020-10-17T17:08:16Z</time>
      </trkpt>
      <trkpt lat="42.264809" lon="2.800629">
        <ele>177.666</ele>
        <time>2020-10-17T17:08:18Z</time>
      </trkpt>
      <trkpt lat="42.264812" lon="2.800751">
        <ele>178.622</ele>
        <time>2020-10-17T17:08:20Z</time>
      </trkpt>
      <trkpt lat="42.264828" lon="2.800876">
        <ele>179.562</ele>
        <time>2020-10-17T17:08:22Z</time>
      </trkpt>
      <trkpt lat="42.264908" lon="2.801110">
        <ele>180.408</ele>
        <time>2020-10-17T17:08:26Z</time>
      </trkpt>
      <trkpt lat="42.264908" lon="2.801110">
        <ele>180.408</ele>
        <time>2020-10-17T17:08:26Z</time>
      </trkpt>
      <trkpt lat="42.264908" lon="2.801110">
        <ele>180.437</ele>
        <time>2020-10-17T17:08:26Z</time>
      </trkpt>
      <trkpt lat="42.264908" lon="2.801110">
        <ele>180.440</ele>
        <time>2020-10-17T17:08:26Z</time>
      </trkpt>
      <trkpt lat="42.264929" lon="2.801166">
        <ele>180.249</ele>
        <time>2020-10-17T17:08:27Z</time>
      </trkpt>
      <trkpt lat="42.264949" lon="2.801222">
        <ele>180.088</ele>
        <time>2020-10-17T17:08:28Z</time>
      </trkpt>
      <trkpt lat="42.264991" lon="2.801319">
        <ele>179.727</ele>
        <time>2020-10-17T17:08:30Z</time>
      </trkpt>
      <trkpt lat="42.265060" lon="2.801383">
        <ele>179.435</ele>
        <time>2020-10-17T17:08:32Z</time>
      </trkpt>
      <trkpt lat="42.265210" lon="2.801552">
        <ele>179.195</ele>
        <time>2020-10-17T17:08:36Z</time>
      </trkpt>
      <trkpt lat="42.265210" lon="2.801552">
        <ele>179.130</ele>
        <time>2020-10-17T17:08:36Z</time>
      </trkpt>
      <trkpt lat="42.265210" lon="2.801552">
        <ele>179.193</ele>
        <time>2020-10-17T17:08:36Z</time>
      </trkpt>
      <trkpt lat="42.265210" lon="2.801552">
        <ele>179.165</ele>
        <time>2020-10-17T17:08:36Z</time>
      </trkpt>
      <trkpt lat="42.265257" lon="2.801637">
        <ele>179.121</ele>
        <time>2020-10-17T17:08:38Z</time>
      </trkpt>
      <trkpt lat="42.265314" lon="2.801724">
        <ele>179.308</ele>
        <time>2020-10-17T17:08:40Z</time>
      </trkpt>
      <trkpt lat="42.265348" lon="2.801766">
        <ele>179.614</ele>
        <time>2020-10-17T17:08:41Z</time>
      </trkpt>
      <trkpt lat="42.265455" lon="2.801817">
        <ele>180.577</ele>
        <time>2020-10-17T17:08:44Z</time>
      </trkpt>
      <trkpt lat="42.265455" lon="2.801817">
        <ele>180.566</ele>
        <time>2020-10-17T17:08:44Z</time>
      </trkpt>
      <trkpt lat="42.265524" lon="2.801818">
        <ele>180.735</ele>
        <time>2020-10-17T17:08:46Z</time>
      </trkpt>
      <trkpt lat="42.265524" lon="2.801818">
        <ele>180.754</ele>
        <time>2020-10-17T17:08:46Z</time>
      </trkpt>
      <trkpt lat="42.265588" lon="2.801812">
        <ele>180.872</ele>
        <time>2020-10-17T17:08:48Z</time>
      </trkpt>
      <trkpt lat="42.265643" lon="2.801794">
        <ele>180.862</ele>
        <time>2020-10-17T17:08:50Z</time>
      </trkpt>
      <trkpt lat="42.265686" lon="2.801764">
        <ele>180.947</ele>
        <time>2020-10-17T17:08:52Z</time>
      </trkpt>
      <trkpt lat="42.265791" lon="2.801710">
        <ele>181.744</ele>
        <time>2020-10-17T17:08:56Z</time>
      </trkpt>
      <trkpt lat="42.265791" lon="2.801710">
        <ele>181.705</ele>
        <time>2020-10-17T17:08:56Z</time>
      </trkpt>
      <trkpt lat="42.265791" lon="2.801710">
        <ele>181.715</ele>
        <time>2020-10-17T17:08:56Z</time>
      </trkpt>
      <trkpt lat="42.265791" lon="2.801710">
        <ele>181.708</ele>
        <time>2020-10-17T17:08:56Z</time>
      </trkpt>
      <trkpt lat="42.265847" lon="2.801694">
        <ele>181.889</ele>
        <time>2020-10-17T17:08:58Z</time>
      </trkpt>
      <trkpt lat="42.265906" lon="2.801682">
        <ele>181.732</ele>
        <time>2020-10-17T17:09:00Z</time>
      </trkpt>
      <trkpt lat="42.265976" lon="2.801666">
        <ele>181.651</ele>
        <time>2020-10-17T17:09:02Z</time>
      </trkpt>
      <trkpt lat="42.266122" lon="2.801634">
        <ele>181.120</ele>
        <time>2020-10-17T17:09:06Z</time>
      </trkpt>
      <trkpt lat="42.266122" lon="2.801634">
        <ele>181.119</ele>
        <time>2020-10-17T17:09:06Z</time>
      </trkpt>
      <trkpt lat="42.266122" lon="2.801634">
        <ele>181.197</ele>
        <time>2020-10-17T17:09:06Z</time>
      </trkpt>
      <trkpt lat="42.266122" lon="2.801634">
        <ele>181.187</ele>
        <time>2020-10-17T17:09:06Z</time>
      </trkpt>
      <trkpt lat="42.266173" lon="2.801642">
        <ele>180.942</ele>
        <time>2020-10-17T17:09:07Z</time>
      </trkpt>
      <trkpt lat="42.266260" lon="2.801708">
        <ele>180.566</ele>
        <time>2020-10-17T17:09:09Z</time>
      </trkpt>
      <trkpt lat="42.266297" lon="2.801766">
        <ele>180.229</ele>
        <time>2020-10-17T17:09:10Z</time>
      </trkpt>
      <trkpt lat="42.266358" lon="2.801905">
        <ele>180.021</ele>
        <time>2020-10-17T17:09:12Z</time>
      </trkpt>
      <trkpt lat="42.266396" lon="2.802179">
        <ele>180.308</ele>
        <time>2020-10-17T17:09:16Z</time>
      </trkpt>
      <trkpt lat="42.266396" lon="2.802179">
        <ele>180.321</ele>
        <time>2020-10-17T17:09:16Z</time>
      </trkpt>
      <trkpt lat="42.266396" lon="2.802179">
        <ele>180.384</ele>
        <time>2020-10-17T17:09:16Z</time>
      </trkpt>
      <trkpt lat="42.266396" lon="2.802179">
        <ele>180.373</ele>
        <time>2020-10-17T17:09:16Z</time>
      </trkpt>
      <trkpt lat="42.266430" lon="2.802220">
        <ele>179.842</ele>
        <time>2020-10-17T17:09:20Z</time>
      </trkpt>
      <trkpt lat="42.266523" lon="2.802240">
        <ele>178.241</ele>
        <time>2020-10-17T17:09:25Z</time>
      </trkpt>
      <trkpt lat="42.266523" lon="2.802240">
        <ele>178.239</ele>
        <time>2020-10-17T17:09:25Z</time>
      </trkpt>
      <trkpt lat="42.266523" lon="2.802240">
        <ele>178.259</ele>
        <time>2020-10-17T17:09:25Z</time>
      </trkpt>
      <trkpt lat="42.266573" lon="2.802260">
        <ele>177.754</ele>
        <time>2020-10-17T17:09:27Z</time>
      </trkpt>
      <trkpt lat="42.266632" lon="2.802296">
        <ele>177.137</ele>
        <time>2020-10-17T17:09:29Z</time>
      </trkpt>
      <trkpt lat="42.266710" lon="2.802360">
        <ele>176.549</ele>
        <time>2020-10-17T17:09:31Z</time>
      </trkpt>
      <trkpt lat="42.266893" lon="2.802587">
        <ele>175.313</ele>
        <time>2020-10-17T17:09:36Z</time>
      </trkpt>
      <trkpt lat="42.266893" lon="2.802587">
        <ele>175.308</ele>
        <time>2020-10-17T17:09:36Z</time>
      </trkpt>
      <trkpt lat="42.266893" lon="2.802587">
        <ele>175.378</ele>
        <time>2020-10-17T17:09:36Z</time>
      </trkpt>
      <trkpt lat="42.266893" lon="2.802587">
        <ele>175.391</ele>
        <time>2020-10-17T17:09:36Z</time>
      </trkpt>
      <trkpt lat="42.266930" lon="2.802652">
        <ele>175.090</ele>
        <time>2020-10-17T17:09:38Z</time>
      </trkpt>
      <trkpt lat="42.266957" lon="2.802707">
        <ele>174.689</ele>
        <time>2020-10-17T17:09:40Z</time>
      </trkpt>
      <trkpt lat="42.266988" lon="2.802763">
        <ele>174.268</ele>
        <time>2020-10-17T17:09:42Z</time>
      </trkpt>
      <trkpt lat="42.267015" lon="2.802916">
        <ele>173.286</ele>
        <time>2020-10-17T17:09:46Z</time>
      </trkpt>
      <trkpt lat="42.267015" lon="2.802916">
        <ele>173.266</ele>
        <time>2020-10-17T17:09:46Z</time>
      </trkpt>
      <trkpt lat="42.267015" lon="2.802916">
        <ele>173.281</ele>
        <time>2020-10-17T17:09:46Z</time>
      </trkpt>
      <trkpt lat="42.267015" lon="2.802916">
        <ele>173.251</ele>
        <time>2020-10-17T17:09:46Z</time>
      </trkpt>
      <trkpt lat="42.267008" lon="2.802997">
        <ele>172.801</ele>
        <time>2020-10-17T17:09:48Z</time>
      </trkpt>
      <trkpt lat="42.266998" lon="2.803081">
        <ele>172.411</ele>
        <time>2020-10-17T17:09:50Z</time>
      </trkpt>
      <trkpt lat="42.266978" lon="2.803167">
        <ele>171.908</ele>
        <time>2020-10-17T17:09:52Z</time>
      </trkpt>
      <trkpt lat="42.266982" lon="2.803282">
        <ele>171.150</ele>
        <time>2020-10-17T17:09:55Z</time>
      </trkpt>
      <trkpt lat="42.266982" lon="2.803282">
        <ele>171.133</ele>
        <time>2020-10-17T17:09:55Z</time>
      </trkpt>
      <trkpt lat="42.266982" lon="2.803282">
        <ele>171.192</ele>
        <time>2020-10-17T17:09:55Z</time>
      </trkpt>
      <trkpt lat="42.267031" lon="2.803397">
        <ele>170.881</ele>
        <time>2020-10-17T17:09:57Z</time>
      </trkpt>
      <trkpt lat="42.267110" lon="2.803515">
        <ele>170.660</ele>
        <time>2020-10-17T17:09:59Z</time>
      </trkpt>
      <trkpt lat="42.267149" lon="2.803568">
        <ele>170.428</ele>
        <time>2020-10-17T17:10:00Z</time>
      </trkpt>
      <trkpt lat="42.267222" lon="2.803665">
        <ele>170.068</ele>
        <time>2020-10-17T17:10:02Z</time>
      </trkpt>
      <trkpt lat="42.267320" lon="2.803856">
        <ele>169.023</ele>
        <time>2020-10-17T17:10:06Z</time>
      </trkpt>
      <trkpt lat="42.267320" lon="2.803856">
        <ele>169.015</ele>
        <time>2020-10-17T17:10:06Z</time>
      </trkpt>
      <trkpt lat="42.267320" lon="2.803856">
        <ele>169.065</ele>
        <time>2020-10-17T17:10:06Z</time>
      </trkpt>
      <trkpt lat="42.267320" lon="2.803856">
        <ele>169.011</ele>
        <time>2020-10-17T17:10:06Z</time>
      </trkpt>
      <trkpt lat="42.267357" lon="2.803995">
        <ele>168.908</ele>
        <time>2020-10-17T17:10:08Z</time>
      </trkpt>
      <trkpt lat="42.267381" lon="2.804069">
        <ele>168.896</ele>
        <time>2020-10-17T17:10:09Z</time>
      </trkpt>
      <trkpt lat="42.267429" lon="2.804212">
        <ele>168.829</ele>
        <time>2020-10-17T17:10:11Z</time>
      </trkpt>
      <trkpt lat="42.267445" lon="2.804277">
        <ele>168.828</ele>
        <time>2020-10-17T17:10:12Z</time>
      </trkpt>
      <trkpt lat="42.267431" lon="2.804422">
        <ele>169.237</ele>
        <time>2020-10-17T17:10:16Z</time>
      </trkpt>
      <trkpt lat="42.267431" lon="2.804422">
        <ele>169.226</ele>
        <time>2020-10-17T17:10:16Z</time>
      </trkpt>
      <trkpt lat="42.267431" lon="2.804422">
        <ele>169.294</ele>
        <time>2020-10-17T17:10:16Z</time>
      </trkpt>
      <trkpt lat="42.267431" lon="2.804422">
        <ele>169.244</ele>
        <time>2020-10-17T17:10:16Z</time>
      </trkpt>
      <trkpt lat="42.267403" lon="2.804492">
        <ele>169.559</ele>
        <time>2020-10-17T17:10:18Z</time>
      </trkpt>
      <trkpt lat="42.267382" lon="2.804612">
        <ele>170.085</ele>
        <time>2020-10-17T17:10:20Z</time>
      </trkpt>
      <trkpt lat="42.267374" lon="2.804689">
        <ele>170.589</ele>
        <time>2020-10-17T17:10:21Z</time>
      </trkpt>
      <trkpt lat="42.267412" lon="2.804993">
        <ele>173.017</ele>
        <time>2020-10-17T17:10:26Z</time>
      </trkpt>
      <trkpt lat="42.267412" lon="2.804993">
        <ele>173.008</ele>
        <time>2020-10-17T17:10:26Z</time>
      </trkpt>
      <trkpt lat="42.267412" lon="2.804993">
        <ele>173.063</ele>
        <time>2020-10-17T17:10:26Z</time>
      </trkpt>
      <trkpt lat="42.267412" lon="2.804993">
        <ele>173.096</ele>
        <time>2020-10-17T17:10:26Z</time>
      </trkpt>
      <trkpt lat="42.267446" lon="2.805109">
        <ele>173.675</ele>
        <time>2020-10-17T17:10:28Z</time>
      </trkpt>
      <trkpt lat="42.267475" lon="2.805191">
        <ele>174.034</ele>
        <time>2020-10-17T17:10:30Z</time>
      </trkpt>
      <trkpt lat="42.267529" lon="2.805213">
        <ele>174.143</ele>
        <time>2020-10-17T17:10:32Z</time>
      </trkpt>
      <trkpt lat="42.267678" lon="2.805246">
        <ele>174.121</ele>
        <time>2020-10-17T17:10:36Z</time>
      </trkpt>
      <trkpt lat="42.267678" lon="2.805246">
        <ele>174.171</ele>
        <time>2020-10-17T17:10:36Z</time>
      </trkpt>
      <trkpt lat="42.267678" lon="2.805246">
        <ele>174.146</ele>
        <time>2020-10-17T17:10:36Z</time>
      </trkpt>
      <trkpt lat="42.267678" lon="2.805246">
        <ele>174.179</ele>
        <time>2020-10-17T17:10:36Z</time>
      </trkpt>
      <trkpt lat="42.267754" lon="2.805258">
        <ele>174.205</ele>
        <time>2020-10-17T17:10:38Z</time>
      </trkpt>
      <trkpt lat="42.267842" lon="2.805272">
        <ele>174.425</ele>
        <time>2020-10-17T17:10:40Z</time>
      </trkpt>
      <trkpt lat="42.267933" lon="2.805282">
        <ele>174.508</ele>
        <time>2020-10-17T17:10:42Z</time>
      </trkpt>
      <trkpt lat="42.268059" lon="2.805281">
        <ele>174.622</ele>
        <time>2020-10-17T17:10:46Z</time>
      </trkpt>
      <trkpt lat="42.268059" lon="2.805281">
        <ele>174.615</ele>
        <time>2020-10-17T17:10:46Z</time>
      </trkpt>
      <trkpt lat="42.268059" lon="2.805281">
        <ele>174.674</ele>
        <time>2020-10-17T17:10:46Z</time>
      </trkpt>
      <trkpt lat="42.268059" lon="2.805281">
        <ele>174.623</ele>
        <time>2020-10-17T17:10:46Z</time>
      </trkpt>
      <trkpt lat="42.268127" lon="2.805263">
        <ele>174.692</ele>
        <time>2020-10-17T17:10:48Z</time>
      </trkpt>
      <trkpt lat="42.268201" lon="2.805235">
        <ele>174.580</ele>
        <time>2020-10-17T17:10:50Z</time>
      </trkpt>
      <trkpt lat="42.268246" lon="2.805216">
        <ele>174.340</ele>
        <time>2020-10-17T17:10:51Z</time>
      </trkpt>
      <trkpt lat="42.268427" lon="2.805125">
        <ele>173.385</ele>
        <time>2020-10-17T17:10:56Z</time>
      </trkpt>
      <trkpt lat="42.268427" lon="2.805125">
        <ele>173.331</ele>
        <time>2020-10-17T17:10:56Z</time>
      </trkpt>
      <trkpt lat="42.268427" lon="2.805125">
        <ele>173.361</ele>
        <time>2020-10-17T17:10:56Z</time>
      </trkpt>
      <trkpt lat="42.268427" lon="2.805125">
        <ele>173.307</ele>
        <time>2020-10-17T17:10:56Z</time>
      </trkpt>
      <trkpt lat="42.268480" lon="2.805165">
        <ele>173.108</ele>
        <time>2020-10-17T17:10:58Z</time>
      </trkpt>
      <trkpt lat="42.268483" lon="2.805237">
        <ele>172.798</ele>
        <time>2020-10-17T17:11:00Z</time>
      </trkpt>
      <trkpt lat="42.268434" lon="2.805313">
        <ele>172.141</ele>
        <time>2020-10-17T17:11:02Z</time>
      </trkpt>
      <trkpt lat="42.268324" lon="2.805538">
        <ele>170.750</ele>
        <time>2020-10-17T17:11:06Z</time>
      </trkpt>
      <trkpt lat="42.268324" lon="2.805538">
        <ele>170.749</ele>
        <time>2020-10-17T17:11:06Z</time>
      </trkpt>
      <trkpt lat="42.268324" lon="2.805538">
        <ele>170.738</ele>
        <time>2020-10-17T17:11:06Z</time>
      </trkpt>
      <trkpt lat="42.268324" lon="2.805538">
        <ele>170.786</ele>
        <time>2020-10-17T17:11:06Z</time>
      </trkpt>
      <trkpt lat="42.268315" lon="2.805631">
        <ele>170.636</ele>
        <time>2020-10-17T17:11:08Z</time>
      </trkpt>
      <trkpt lat="42.268309" lon="2.805710">
        <ele>170.531</ele>
        <time>2020-10-17T17:11:09Z</time>
      </trkpt>
      <trkpt lat="42.268289" lon="2.805798">
        <ele>170.471</ele>
        <time>2020-10-17T17:11:11Z</time>
      </trkpt>
      <trkpt lat="42.268270" lon="2.805854">
        <ele>170.441</ele>
        <time>2020-10-17T17:11:12Z</time>
      </trkpt>
      <trkpt lat="42.268253" lon="2.806089">
        <ele>171.515</ele>
        <time>2020-10-17T17:11:16Z</time>
      </trkpt>
      <trkpt lat="42.268253" lon="2.806089">
        <ele>171.508</ele>
        <time>2020-10-17T17:11:16Z</time>
      </trkpt>
      <trkpt lat="42.268253" lon="2.806089">
        <ele>171.522</ele>
        <time>2020-10-17T17:11:16Z</time>
      </trkpt>
      <trkpt lat="42.268253" lon="2.806089">
        <ele>171.535</ele>
        <time>2020-10-17T17:11:16Z</time>
      </trkpt>
      <trkpt lat="42.268264" lon="2.806158">
        <ele>172.224</ele>
        <time>2020-10-17T17:11:17Z</time>
      </trkpt>
      <trkpt lat="42.268285" lon="2.806273">
        <ele>173.113</ele>
        <time>2020-10-17T17:11:19Z</time>
      </trkpt>
      <trkpt lat="42.268232" lon="2.806353">
        <ele>174.082</ele>
        <time>2020-10-17T17:11:21Z</time>
      </trkpt>
      <trkpt lat="42.268077" lon="2.806486">
        <ele>176.630</ele>
        <time>2020-10-17T17:11:26Z</time>
      </trkpt>
      <trkpt lat="42.268077" lon="2.806486">
        <ele>176.690</ele>
        <time>2020-10-17T17:11:26Z</time>
      </trkpt>
      <trkpt lat="42.268077" lon="2.806486">
        <ele>176.675</ele>
        <time>2020-10-17T17:11:26Z</time>
      </trkpt>
      <trkpt lat="42.268077" lon="2.806486">
        <ele>176.651</ele>
        <time>2020-10-17T17:11:26Z</time>
      </trkpt>
      <trkpt lat="42.268065" lon="2.806569">
        <ele>177.301</ele>
        <time>2020-10-17T17:11:29Z</time>
      </trkpt>
      <trkpt lat="42.268055" lon="2.806657">
        <ele>177.811</ele>
        <time>2020-10-17T17:11:31Z</time>
      </trkpt>
      <trkpt lat="42.268047" lon="2.806728">
        <ele>178.108</ele>
        <time>2020-10-17T17:11:32Z</time>
      </trkpt>
      <trkpt lat="42.268074" lon="2.807050">
        <ele>179.630</ele>
        <time>2020-10-17T17:11:36Z</time>
      </trkpt>
      <trkpt lat="42.268074" lon="2.807050">
        <ele>179.633</ele>
        <time>2020-10-17T17:11:36Z</time>
      </trkpt>
      <trkpt lat="42.268074" lon="2.807050">
        <ele>179.612</ele>
        <time>2020-10-17T17:11:36Z</time>
      </trkpt>
      <trkpt lat="42.268074" lon="2.807050">
        <ele>179.691</ele>
        <time>2020-10-17T17:11:36Z</time>
      </trkpt>
      <trkpt lat="42.268095" lon="2.807131">
        <ele>179.920</ele>
        <time>2020-10-17T17:11:37Z</time>
      </trkpt>
      <trkpt lat="42.268150" lon="2.807273">
        <ele>180.068</ele>
        <time>2020-10-17T17:11:39Z</time>
      </trkpt>
      <trkpt lat="42.268178" lon="2.807336">
        <ele>180.168</ele>
        <time>2020-10-17T17:11:40Z</time>
      </trkpt>
      <trkpt lat="42.268204" lon="2.807396">
        <ele>180.113</ele>
        <time>2020-10-17T17:11:41Z</time>
      </trkpt>
      <trkpt lat="42.268291" lon="2.807663">
        <ele>180.493</ele>
        <time>2020-10-17T17:11:46Z</time>
      </trkpt>
      <trkpt lat="42.268291" lon="2.807663">
        <ele>180.465</ele>
        <time>2020-10-17T17:11:46Z</time>
      </trkpt>
      <trkpt lat="42.268291" lon="2.807663">
        <ele>180.421</ele>
        <time>2020-10-17T17:11:46Z</time>
      </trkpt>
      <trkpt lat="42.268291" lon="2.807663">
        <ele>180.408</ele>
        <time>2020-10-17T17:11:46Z</time>
      </trkpt>
      <trkpt lat="42.268316" lon="2.807730">
        <ele>180.734</ele>
        <time>2020-10-17T17:11:48Z</time>
      </trkpt>
      <trkpt lat="42.268344" lon="2.807799">
        <ele>181.027</ele>
        <time>2020-10-17T17:11:50Z</time>
      </trkpt>
      <trkpt lat="42.268353" lon="2.807908">
        <ele>181.426</ele>
        <time>2020-10-17T17:11:52Z</time>
      </trkpt>
      <trkpt lat="42.268402" lon="2.808173">
        <ele>182.335</ele>
        <time>2020-10-17T17:11:56Z</time>
      </trkpt>
      <trkpt lat="42.268402" lon="2.808173">
        <ele>182.354</ele>
        <time>2020-10-17T17:11:56Z</time>
      </trkpt>
      <trkpt lat="42.268402" lon="2.808173">
        <ele>182.322</ele>
        <time>2020-10-17T17:11:56Z</time>
      </trkpt>
      <trkpt lat="42.268402" lon="2.808173">
        <ele>182.312</ele>
        <time>2020-10-17T17:11:56Z</time>
      </trkpt>
      <trkpt lat="42.268439" lon="2.808286">
        <ele>182.657</ele>
        <time>2020-10-17T17:11:58Z</time>
      </trkpt>
      <trkpt lat="42.268452" lon="2.808353">
        <ele>182.877</ele>
        <time>2020-10-17T17:11:59Z</time>
      </trkpt>
      <trkpt lat="42.268459" lon="2.808479">
        <ele>182.761</ele>
        <time>2020-10-17T17:12:01Z</time>
      </trkpt>
      <trkpt lat="42.268468" lon="2.808547">
        <ele>182.627</ele>
        <time>2020-10-17T17:12:02Z</time>
      </trkpt>
      <trkpt lat="42.268554" lon="2.808729">
        <ele>182.308</ele>
        <time>2020-10-17T17:12:06Z</time>
      </trkpt>
      <trkpt lat="42.268554" lon="2.808729">
        <ele>182.362</ele>
        <time>2020-10-17T17:12:06Z</time>
      </trkpt>
      <trkpt lat="42.268554" lon="2.808729">
        <ele>182.385</ele>
        <time>2020-10-17T17:12:06Z</time>
      </trkpt>
      <trkpt lat="42.268554" lon="2.808729">
        <ele>182.364</ele>
        <time>2020-10-17T17:12:06Z</time>
      </trkpt>
      <trkpt lat="42.268556" lon="2.808847">
        <ele>182.343</ele>
        <time>2020-10-17T17:12:08Z</time>
      </trkpt>
      <trkpt lat="42.268535" lon="2.809014">
        <ele>182.382</ele>
        <time>2020-10-17T17:12:10Z</time>
      </trkpt>
      <trkpt lat="42.268549" lon="2.809164">
        <ele>182.240</ele>
        <time>2020-10-17T17:12:12Z</time>
      </trkpt>
      <trkpt lat="42.268562" lon="2.809224">
        <ele>182.140</ele>
        <time>2020-10-17T17:12:13Z</time>
      </trkpt>
      <trkpt lat="42.268519" lon="2.809372">
        <ele>182.445</ele>
        <time>2020-10-17T17:12:16Z</time>
      </trkpt>
      <trkpt lat="42.268519" lon="2.809372">
        <ele>182.471</ele>
        <time>2020-10-17T17:12:16Z</time>
      </trkpt>
      <trkpt lat="42.268519" lon="2.809372">
        <ele>182.441</ele>
        <time>2020-10-17T17:12:16Z</time>
      </trkpt>
      <trkpt lat="42.268482" lon="2.809416">
        <ele>182.615</ele>
        <time>2020-10-17T17:12:17Z</time>
      </trkpt>
      <trkpt lat="42.268442" lon="2.809495">
        <ele>183.008</ele>
        <time>2020-10-17T17:12:19Z</time>
      </trkpt>
      <trkpt lat="42.268488" lon="2.809592">
        <ele>183.752</ele>
        <time>2020-10-17T17:12:21Z</time>
      </trkpt>
      <trkpt lat="42.268538" lon="2.809635">
        <ele>184.315</ele>
        <time>2020-10-17T17:12:22Z</time>
      </trkpt>
      <trkpt lat="42.268746" lon="2.809789">
        <ele>185.644</ele>
        <time>2020-10-17T17:12:26Z</time>
      </trkpt>
      <trkpt lat="42.268746" lon="2.809789">
        <ele>185.673</ele>
        <time>2020-10-17T17:12:26Z</time>
      </trkpt>
      <trkpt lat="42.268746" lon="2.809789">
        <ele>185.622</ele>
        <time>2020-10-17T17:12:26Z</time>
      </trkpt>
      <trkpt lat="42.268746" lon="2.809789">
        <ele>185.610</ele>
        <time>2020-10-17T17:12:26Z</time>
      </trkpt>
      <trkpt lat="42.268767" lon="2.809868">
        <ele>185.840</ele>
        <time>2020-10-17T17:12:29Z</time>
      </trkpt>
      <trkpt lat="42.268715" lon="2.809918">
        <ele>185.575</ele>
        <time>2020-10-17T17:12:39Z</time>
      </trkpt>
      <trkpt lat="42.268650" lon="2.809901">
        <ele>185.077</ele>
        <time>2020-10-17T17:12:41Z</time>
      </trkpt>
      <trkpt lat="42.268459" lon="2.809827">
        <ele>184.061</ele>
        <time>2020-10-17T17:12:46Z</time>
      </trkpt>
      <trkpt lat="42.268459" lon="2.809827">
        <ele>184.027</ele>
        <time>2020-10-17T17:12:46Z</time>
      </trkpt>
      <trkpt lat="42.268459" lon="2.809827">
        <ele>184.008</ele>
        <time>2020-10-17T17:12:46Z</time>
      </trkpt>
      <trkpt lat="42.268459" lon="2.809827">
        <ele>184.072</ele>
        <time>2020-10-17T17:12:46Z</time>
      </trkpt>
      <trkpt lat="42.268360" lon="2.809841">
        <ele>183.795</ele>
        <time>2020-10-17T17:12:48Z</time>
      </trkpt>
      <trkpt lat="42.268305" lon="2.809853">
        <ele>183.454</ele>
        <time>2020-10-17T17:12:49Z</time>
      </trkpt>
      <trkpt lat="42.268247" lon="2.809868">
        <ele>183.133</ele>
        <time>2020-10-17T17:12:50Z</time>
      </trkpt>
      <trkpt lat="42.268183" lon="2.809884">
        <ele>182.822</ele>
        <time>2020-10-17T17:12:51Z</time>
      </trkpt>
      <trkpt lat="42.268056" lon="2.809924">
        <ele>182.350</ele>
        <time>2020-10-17T17:12:53Z</time>
      </trkpt>
      <trkpt lat="42.267977" lon="2.809977">
        <ele>181.310</ele>
        <time>2020-10-17T17:12:56Z</time>
      </trkpt>
      <trkpt lat="42.267977" lon="2.809977">
        <ele>181.365</ele>
        <time>2020-10-17T17:12:56Z</time>
      </trkpt>
      <trkpt lat="42.267977" lon="2.809977">
        <ele>181.326</ele>
        <time>2020-10-17T17:12:56Z</time>
      </trkpt>
      <trkpt lat="42.267947" lon="2.810056">
        <ele>180.647</ele>
        <time>2020-10-17T17:13:00Z</time>
      </trkpt>
      <trkpt lat="42.267937" lon="2.810179">
        <ele>179.711</ele>
        <time>2020-10-17T17:13:02Z</time>
      </trkpt>
      <trkpt lat="42.267891" lon="2.810540">
        <ele>178.108</ele>
        <time>2020-10-17T17:13:06Z</time>
      </trkpt>
      <trkpt lat="42.267891" lon="2.810540">
        <ele>178.137</ele>
        <time>2020-10-17T17:13:06Z</time>
      </trkpt>
      <trkpt lat="42.267891" lon="2.810540">
        <ele>178.110</ele>
        <time>2020-10-17T17:13:06Z</time>
      </trkpt>
      <trkpt lat="42.267891" lon="2.810540">
        <ele>178.149</ele>
        <time>2020-10-17T17:13:06Z</time>
      </trkpt>
      <trkpt lat="42.267790" lon="2.810693">
        <ele>177.978</ele>
        <time>2020-10-17T17:13:08Z</time>
      </trkpt>
      <trkpt lat="42.267725" lon="2.810738">
        <ele>178.067</ele>
        <time>2020-10-17T17:13:09Z</time>
      </trkpt>
      <trkpt lat="42.267580" lon="2.810781">
        <ele>178.125</ele>
        <time>2020-10-17T17:13:11Z</time>
      </trkpt>
      <trkpt lat="42.267293" lon="2.810795">
        <ele>178.165</ele>
        <time>2020-10-17T17:13:15Z</time>
      </trkpt>
      <trkpt lat="42.267293" lon="2.810795">
        <ele>178.140</ele>
        <time>2020-10-17T17:13:15Z</time>
      </trkpt>
      <trkpt lat="42.267293" lon="2.810795">
        <ele>178.189</ele>
        <time>2020-10-17T17:13:15Z</time>
      </trkpt>
      <trkpt lat="42.267233" lon="2.810786">
        <ele>178.106</ele>
        <time>2020-10-17T17:13:16Z</time>
      </trkpt>
      <trkpt lat="42.267141" lon="2.810760">
        <ele>178.226</ele>
        <time>2020-10-17T17:13:18Z</time>
      </trkpt>
      <trkpt lat="42.267062" lon="2.810721">
        <ele>178.208</ele>
        <time>2020-10-17T17:13:20Z</time>
      </trkpt>
      <trkpt lat="42.266975" lon="2.810700">
        <ele>178.293</ele>
        <time>2020-10-17T17:13:22Z</time>
      </trkpt>
      <trkpt lat="42.266846" lon="2.810738">
        <ele>178.156</ele>
        <time>2020-10-17T17:13:26Z</time>
      </trkpt>
      <trkpt lat="42.266846" lon="2.810738">
        <ele>178.135</ele>
        <time>2020-10-17T17:13:26Z</time>
      </trkpt>
      <trkpt lat="42.266846" lon="2.810738">
        <ele>178.154</ele>
        <time>2020-10-17T17:13:26Z</time>
      </trkpt>
      <trkpt lat="42.266846" lon="2.810738">
        <ele>178.113</ele>
        <time>2020-10-17T17:13:26Z</time>
      </trkpt>
      <trkpt lat="42.266795" lon="2.810753">
        <ele>178.181</ele>
        <time>2020-10-17T17:13:27Z</time>
      </trkpt>
      <trkpt lat="42.266681" lon="2.810843">
        <ele>177.891</ele>
        <time>2020-10-17T17:13:29Z</time>
      </trkpt>
      <trkpt lat="42.266614" lon="2.810913">
        <ele>177.666</ele>
        <time>2020-10-17T17:13:30Z</time>
      </trkpt>
      <trkpt lat="42.266548" lon="2.810982">
        <ele>177.351</ele>
        <time>2020-10-17T17:13:31Z</time>
      </trkpt>
      <trkpt lat="42.266486" lon="2.811047">
        <ele>177.101</ele>
        <time>2020-10-17T17:13:32Z</time>
      </trkpt>
      <trkpt lat="42.266269" lon="2.811244">
        <ele>176.511</ele>
        <time>2020-10-17T17:13:36Z</time>
      </trkpt>
      <trkpt lat="42.266269" lon="2.811244">
        <ele>176.508</ele>
        <time>2020-10-17T17:13:36Z</time>
      </trkpt>
      <trkpt lat="42.266269" lon="2.811244">
        <ele>176.530</ele>
        <time>2020-10-17T17:13:36Z</time>
      </trkpt>
      <trkpt lat="42.266269" lon="2.811244">
        <ele>176.563</ele>
        <time>2020-10-17T17:13:36Z</time>
      </trkpt>
      <trkpt lat="42.266163" lon="2.811324">
        <ele>176.492</ele>
        <time>2020-10-17T17:13:38Z</time>
      </trkpt>
      <trkpt lat="42.266062" lon="2.811421">
        <ele>176.341</ele>
        <time>2020-10-17T17:13:40Z</time>
      </trkpt>
      <trkpt lat="42.266017" lon="2.811467">
        <ele>176.370</ele>
        <time>2020-10-17T17:13:41Z</time>
      </trkpt>
      <trkpt lat="42.265866" lon="2.811576">
        <ele>176.858</ele>
        <time>2020-10-17T17:13:46Z</time>
      </trkpt>
      <trkpt lat="42.265866" lon="2.811576">
        <ele>176.848</ele>
        <time>2020-10-17T17:13:46Z</time>
      </trkpt>
      <trkpt lat="42.265866" lon="2.811576">
        <ele>176.843</ele>
        <time>2020-10-17T17:13:46Z</time>
      </trkpt>
      <trkpt lat="42.265866" lon="2.811576">
        <ele>176.818</ele>
        <time>2020-10-17T17:13:46Z</time>
      </trkpt>
      <trkpt lat="42.265784" lon="2.811643">
        <ele>176.998</ele>
        <time>2020-10-17T17:13:48Z</time>
      </trkpt>
      <trkpt lat="42.265657" lon="2.811763">
        <ele>177.117</ele>
        <time>2020-10-17T17:13:50Z</time>
      </trkpt>
      <trkpt lat="42.265590" lon="2.811826">
        <ele>177.208</ele>
        <time>2020-10-17T17:13:51Z</time>
      </trkpt>
      <trkpt lat="42.265412" lon="2.811996">
        <ele>177.426</ele>
        <time>2020-10-17T17:13:54Z</time>
      </trkpt>
      <trkpt lat="42.265412" lon="2.811996">
        <ele>177.479</ele>
        <time>2020-10-17T17:13:54Z</time>
      </trkpt>
      <trkpt lat="42.265324" lon="2.812110">
        <ele>177.488</ele>
        <time>2020-10-17T17:13:56Z</time>
      </trkpt>
      <trkpt lat="42.265324" lon="2.812110">
        <ele>177.487</ele>
        <time>2020-10-17T17:13:56Z</time>
      </trkpt>
      <trkpt lat="42.265293" lon="2.812167">
        <ele>177.396</ele>
        <time>2020-10-17T17:13:57Z</time>
      </trkpt>
      <trkpt lat="42.265258" lon="2.812266">
        <ele>177.254</ele>
        <time>2020-10-17T17:13:59Z</time>
      </trkpt>
      <trkpt lat="42.265215" lon="2.812355">
        <ele>177.264</ele>
        <time>2020-10-17T17:14:01Z</time>
      </trkpt>
      <trkpt lat="42.265114" lon="2.812592">
        <ele>177.939</ele>
        <time>2020-10-17T17:14:06Z</time>
      </trkpt>
      <trkpt lat="42.265114" lon="2.812592">
        <ele>177.972</ele>
        <time>2020-10-17T17:14:06Z</time>
      </trkpt>
      <trkpt lat="42.265114" lon="2.812592">
        <ele>177.913</ele>
        <time>2020-10-17T17:14:06Z</time>
      </trkpt>
      <trkpt lat="42.265114" lon="2.812592">
        <ele>177.914</ele>
        <time>2020-10-17T17:14:06Z</time>
      </trkpt>
      <trkpt lat="42.265088" lon="2.812658">
        <ele>178.208</ele>
        <time>2020-10-17T17:14:07Z</time>
      </trkpt>
      <trkpt lat="42.265023" lon="2.812826">
        <ele>178.412</ele>
        <time>2020-10-17T17:14:09Z</time>
      </trkpt>
      <trkpt lat="42.264986" lon="2.812914">
        <ele>178.785</ele>
        <time>2020-10-17T17:14:10Z</time>
      </trkpt>
      <trkpt lat="42.264909" lon="2.813081">
        <ele>178.854</ele>
        <time>2020-10-17T17:14:12Z</time>
      </trkpt>
      <trkpt lat="42.264712" lon="2.813372">
        <ele>177.423</ele>
        <time>2020-10-17T17:14:16Z</time>
      </trkpt>
      <trkpt lat="42.264712" lon="2.813372">
        <ele>177.472</ele>
        <time>2020-10-17T17:14:16Z</time>
      </trkpt>
      <trkpt lat="42.264712" lon="2.813372">
        <ele>177.470</ele>
        <time>2020-10-17T17:14:16Z</time>
      </trkpt>
      <trkpt lat="42.264712" lon="2.813372">
        <ele>177.470</ele>
        <time>2020-10-17T17:14:16Z</time>
      </trkpt>
      <trkpt lat="42.264629" lon="2.813442">
        <ele>176.685</ele>
        <time>2020-10-17T17:14:18Z</time>
      </trkpt>
      <trkpt lat="42.264409" lon="2.813574">
        <ele>174.471</ele>
        <time>2020-10-17T17:14:26Z</time>
      </trkpt>
      <trkpt lat="42.264409" lon="2.813574">
        <ele>174.441</ele>
        <time>2020-10-17T17:14:26Z</time>
      </trkpt>
      <trkpt lat="42.264409" lon="2.813574">
        <ele>174.415</ele>
        <time>2020-10-17T17:14:26Z</time>
      </trkpt>
      <trkpt lat="42.264409" lon="2.813574">
        <ele>174.408</ele>
        <time>2020-10-17T17:14:26Z</time>
      </trkpt>
      <trkpt lat="42.264373" lon="2.813616">
        <ele>174.022</ele>
        <time>2020-10-17T17:14:27Z</time>
      </trkpt>
      <trkpt lat="42.264346" lon="2.813674">
        <ele>173.665</ele>
        <time>2020-10-17T17:14:29Z</time>
      </trkpt>
      <trkpt lat="42.264330" lon="2.813743">
        <ele>173.064</ele>
        <time>2020-10-17T17:14:32Z</time>
      </trkpt>
      <trkpt lat="42.264267" lon="2.813834">
        <ele>171.853</ele>
        <time>2020-10-17T17:14:36Z</time>
      </trkpt>
      <trkpt lat="42.264267" lon="2.813834">
        <ele>171.872</ele>
        <time>2020-10-17T17:14:36Z</time>
      </trkpt>
      <trkpt lat="42.264267" lon="2.813834">
        <ele>171.870</ele>
        <time>2020-10-17T17:14:36Z</time>
      </trkpt>
      <trkpt lat="42.264267" lon="2.813834">
        <ele>171.850</ele>
        <time>2020-10-17T17:14:36Z</time>
      </trkpt>
      <trkpt lat="42.264187" lon="2.813859">
        <ele>171.225</ele>
        <time>2020-10-17T17:14:38Z</time>
      </trkpt>
      <trkpt lat="42.264088" lon="2.813887">
        <ele>170.621</ele>
        <time>2020-10-17T17:14:40Z</time>
      </trkpt>
      <trkpt lat="42.264036" lon="2.813909">
        <ele>170.241</ele>
        <time>2020-10-17T17:14:41Z</time>
      </trkpt>
      <trkpt lat="42.263825" lon="2.814016">
        <ele>169.905</ele>
        <time>2020-10-17T17:14:45Z</time>
      </trkpt>
      <trkpt lat="42.263825" lon="2.814016">
        <ele>169.908</ele>
        <time>2020-10-17T17:14:45Z</time>
      </trkpt>
      <trkpt lat="42.263825" lon="2.814016">
        <ele>169.927</ele>
        <time>2020-10-17T17:14:45Z</time>
      </trkpt>
      <trkpt lat="42.263767" lon="2.814029">
        <ele>169.810</ele>
        <time>2020-10-17T17:14:47Z</time>
      </trkpt>
      <trkpt lat="42.263677" lon="2.814029">
        <ele>169.569</ele>
        <time>2020-10-17T17:14:48Z</time>
      </trkpt>
      <trkpt lat="42.263620" lon="2.814029">
        <ele>169.138</ele>
        <time>2020-10-17T17:14:49Z</time>
      </trkpt>
      <trkpt lat="42.263508" lon="2.814047">
        <ele>168.647</ele>
        <time>2020-10-17T17:14:51Z</time>
      </trkpt>
      <trkpt lat="42.263439" lon="2.814087">
        <ele>166.995</ele>
        <time>2020-10-17T17:14:56Z</time>
      </trkpt>
      <trkpt lat="42.263439" lon="2.814087">
        <ele>166.915</ele>
        <time>2020-10-17T17:14:56Z</time>
      </trkpt>
      <trkpt lat="42.263391" lon="2.814124">
        <ele>166.660</ele>
        <time>2020-10-17T17:15:32Z</time>
      </trkpt>
      <trkpt lat="42.263331" lon="2.814140">
        <ele>166.457</ele>
        <time>2020-10-17T17:15:33Z</time>
      </trkpt>
      <trkpt lat="42.263258" lon="2.814162">
        <ele>166.200</ele>
        <time>2020-10-17T17:15:34Z</time>
      </trkpt>
      <trkpt lat="42.263071" lon="2.814249">
        <ele>166.020</ele>
        <time>2020-10-17T17:15:36Z</time>
      </trkpt>
      <trkpt lat="42.262968" lon="2.814307">
        <ele>165.908</ele>
        <time>2020-10-17T17:15:37Z</time>
      </trkpt>
      <trkpt lat="42.262770" lon="2.814390">
        <ele>165.730</ele>
        <time>2020-10-17T17:15:39Z</time>
      </trkpt>
      <trkpt lat="42.262597" lon="2.814415">
        <ele>165.513</ele>
        <time>2020-10-17T17:15:42Z</time>
      </trkpt>
      <trkpt lat="42.262406" lon="2.814435">
        <ele>165.352</ele>
        <time>2020-10-17T17:15:43Z</time>
      </trkpt>
      <trkpt lat="42.262308" lon="2.814475">
        <ele>165.171</ele>
        <time>2020-10-17T17:15:44Z</time>
      </trkpt>
      <trkpt lat="42.262134" lon="2.814605">
        <ele>165.070</ele>
        <time>2020-10-17T17:15:46Z</time>
      </trkpt>
      <trkpt lat="42.262050" lon="2.814680">
        <ele>164.988</ele>
        <time>2020-10-17T17:15:47Z</time>
      </trkpt>
      <trkpt lat="42.261968" lon="2.814750">
        <ele>164.898</ele>
        <time>2020-10-17T17:15:48Z</time>
      </trkpt>
      <trkpt lat="42.261800" lon="2.814865">
        <ele>164.993</ele>
        <time>2020-10-17T17:15:50Z</time>
      </trkpt>
      <trkpt lat="42.261713" lon="2.814913">
        <ele>165.028</ele>
        <time>2020-10-17T17:15:51Z</time>
      </trkpt>
      <trkpt lat="42.261626" lon="2.814956">
        <ele>165.189</ele>
        <time>2020-10-17T17:15:52Z</time>
      </trkpt>
      <trkpt lat="42.261467" lon="2.815024">
        <ele>165.217</ele>
        <time>2020-10-17T17:15:54Z</time>
      </trkpt>
      <trkpt lat="42.261342" lon="2.815066">
        <ele>165.208</ele>
        <time>2020-10-17T17:15:56Z</time>
      </trkpt>
      <trkpt lat="42.261195" lon="2.815057">
        <ele>165.167</ele>
        <time>2020-10-17T17:15:58Z</time>
      </trkpt>
      <trkpt lat="42.261107" lon="2.815027">
        <ele>165.070</ele>
        <time>2020-10-17T17:15:59Z</time>
      </trkpt>
      <trkpt lat="42.260925" lon="2.814938">
        <ele>164.869</ele>
        <time>2020-10-17T17:16:01Z</time>
      </trkpt>
      <trkpt lat="42.260835" lon="2.814894">
        <ele>164.688</ele>
        <time>2020-10-17T17:16:02Z</time>
      </trkpt>
      <trkpt lat="42.260746" lon="2.814861">
        <ele>164.457</ele>
        <time>2020-10-17T17:16:03Z</time>
      </trkpt>
      <trkpt lat="42.260562" lon="2.814829">
        <ele>164.325</ele>
        <time>2020-10-17T17:16:05Z</time>
      </trkpt>
      <trkpt lat="42.260375" lon="2.814843">
        <ele>164.215</ele>
        <time>2020-10-17T17:16:07Z</time>
      </trkpt>
      <trkpt lat="42.260201" lon="2.814910">
        <ele>163.970</ele>
        <time>2020-10-17T17:16:09Z</time>
      </trkpt>
      <trkpt lat="42.260031" lon="2.814978">
        <ele>163.514</ele>
        <time>2020-10-17T17:16:11Z</time>
      </trkpt>
      <trkpt lat="42.259890" lon="2.815032">
        <ele>162.954</ele>
        <time>2020-10-17T17:16:13Z</time>
      </trkpt>
      <trkpt lat="42.259835" lon="2.815057">
        <ele>162.409</ele>
        <time>2020-10-17T17:16:14Z</time>
      </trkpt>
      <trkpt lat="42.259785" lon="2.815072">
        <ele>161.908</ele>
        <time>2020-10-17T17:16:15Z</time>
      </trkpt>
      <trkpt lat="42.259738" lon="2.815070">
        <ele>161.446</ele>
        <time>2020-10-17T17:16:16Z</time>
      </trkpt>
      <trkpt lat="42.259651" lon="2.815014">
        <ele>160.429</ele>
        <time>2020-10-17T17:16:18Z</time>
      </trkpt>
      <trkpt lat="42.259551" lon="2.814955">
        <ele>159.338</ele>
        <time>2020-10-17T17:16:20Z</time>
      </trkpt>
      <trkpt lat="42.259493" lon="2.814941">
        <ele>158.437</ele>
        <time>2020-10-17T17:16:21Z</time>
      </trkpt>
      <trkpt lat="42.259391" lon="2.814946">
        <ele>157.746</ele>
        <time>2020-10-17T17:16:23Z</time>
      </trkpt>
      <trkpt lat="42.259373" lon="2.814887">
        <ele>156.854</ele>
        <time>2020-10-17T17:16:26Z</time>
      </trkpt>
      <trkpt lat="42.259418" lon="2.814805">
        <ele>155.774</ele>
        <time>2020-10-17T17:16:28Z</time>
      </trkpt>
      <trkpt lat="42.259446" lon="2.814756">
        <ele>154.629</ele>
        <time>2020-10-17T17:16:29Z</time>
      </trkpt>
      <trkpt lat="42.259499" lon="2.814625">
        <ele>153.389</ele>
        <time>2020-10-17T17:16:31Z</time>
      </trkpt>
      <trkpt lat="42.259523" lon="2.814573">
        <ele>152.206</ele>
        <time>2020-10-17T17:16:32Z</time>
      </trkpt>
      <trkpt lat="42.259590" lon="2.814510">
        <ele>151.326</ele>
        <time>2020-10-17T17:16:34Z</time>
      </trkpt>
      <trkpt lat="42.259645" lon="2.814503">
        <ele>150.608</ele>
        <time>2020-10-17T17:16:35Z</time>
      </trkpt>
      <trkpt lat="42.259704" lon="2.814505">
        <ele>150.013</ele>
        <time>2020-10-17T17:16:36Z</time>
      </trkpt>
      <trkpt lat="42.259794" lon="2.814500">
        <ele>149.476</ele>
        <time>2020-10-17T17:16:38Z</time>
      </trkpt>
      <trkpt lat="42.259879" lon="2.814483">
        <ele>148.975</ele>
        <time>2020-10-17T17:16:40Z</time>
      </trkpt>
      <trkpt lat="42.259991" lon="2.814470">
        <ele>148.424</ele>
        <time>2020-10-17T17:16:42Z</time>
      </trkpt>
      <trkpt lat="42.260050" lon="2.814461">
        <ele>148.093</ele>
        <time>2020-10-17T17:16:43Z</time>
      </trkpt>
      <trkpt lat="42.260107" lon="2.814444">
        <ele>147.731</ele>
        <time>2020-10-17T17:16:44Z</time>
      </trkpt>
      <trkpt lat="42.260206" lon="2.814385">
        <ele>147.441</ele>
        <time>2020-10-17T17:16:46Z</time>
      </trkpt>
      <trkpt lat="42.260273" lon="2.814332">
        <ele>147.196</ele>
        <time>2020-10-17T17:16:48Z</time>
      </trkpt>
      <trkpt lat="42.260332" lon="2.814275">
        <ele>146.826</ele>
        <time>2020-10-17T17:16:50Z</time>
      </trkpt>
      <trkpt lat="42.260395" lon="2.814211">
        <ele>146.647</ele>
        <time>2020-10-17T17:16:52Z</time>
      </trkpt>
      <trkpt lat="42.260471" lon="2.814181">
        <ele>146.411</ele>
        <time>2020-10-17T17:16:54Z</time>
      </trkpt>
      <trkpt lat="42.260529" lon="2.814173">
        <ele>146.108</ele>
        <time>2020-10-17T17:16:56Z</time>
      </trkpt>
      <trkpt lat="42.260577" lon="2.814209">
        <ele>146.117</ele>
        <time>2020-10-17T17:17:14Z</time>
      </trkpt>
      <trkpt lat="42.260604" lon="2.814289">
        <ele>146.270</ele>
        <time>2020-10-17T17:17:17Z</time>
      </trkpt>
      <trkpt lat="42.260636" lon="2.814332">
        <ele>146.249</ele>
        <time>2020-10-17T17:17:20Z</time>
      </trkpt>
      <trkpt lat="42.260685" lon="2.814322">
        <ele>146.398</ele>
        <time>2020-10-17T17:17:22Z</time>
      </trkpt>
      <trkpt lat="42.260768" lon="2.814268">
        <ele>146.627</ele>
        <time>2020-10-17T17:17:24Z</time>
      </trkpt>
      <trkpt lat="42.260818" lon="2.814230">
        <ele>146.995</ele>
        <time>2020-10-17T17:17:25Z</time>
      </trkpt>
      <trkpt lat="42.260939" lon="2.814138">
        <ele>147.215</ele>
        <time>2020-10-17T17:17:27Z</time>
      </trkpt>
      <trkpt lat="42.261000" lon="2.814084">
        <ele>147.490</ele>
        <time>2020-10-17T17:17:28Z</time>
      </trkpt>
      <trkpt lat="42.261113" lon="2.813977">
        <ele>147.643</ele>
        <time>2020-10-17T17:17:30Z</time>
      </trkpt>
      <trkpt lat="42.261165" lon="2.813930">
        <ele>147.864</ele>
        <time>2020-10-17T17:17:31Z</time>
      </trkpt>
      <trkpt lat="42.261266" lon="2.813848">
        <ele>148.110</ele>
        <time>2020-10-17T17:17:33Z</time>
      </trkpt>
      <trkpt lat="42.261318" lon="2.813807">
        <ele>148.408</ele>
        <time>2020-10-17T17:17:34Z</time>
      </trkpt>
      <trkpt lat="42.261409" lon="2.813715">
        <ele>148.769</ele>
        <time>2020-10-17T17:17:36Z</time>
      </trkpt>
      <trkpt lat="42.261447" lon="2.813660">
        <ele>148.942</ele>
        <time>2020-10-17T17:17:37Z</time>
      </trkpt>
      <trkpt lat="42.261478" lon="2.813599">
        <ele>149.171</ele>
        <time>2020-10-17T17:17:38Z</time>
      </trkpt>
      <trkpt lat="42.261515" lon="2.813476">
        <ele>149.360</ele>
        <time>2020-10-17T17:17:40Z</time>
      </trkpt>
      <trkpt lat="42.261509" lon="2.813373">
        <ele>149.429</ele>
        <time>2020-10-17T17:17:42Z</time>
      </trkpt>
      <trkpt lat="42.261480" lon="2.813285">
        <ele>149.517</ele>
        <time>2020-10-17T17:17:44Z</time>
      </trkpt>
      <trkpt lat="42.261426" lon="2.813202">
        <ele>149.717</ele>
        <time>2020-10-17T17:17:46Z</time>
      </trkpt>
      <trkpt lat="42.261390" lon="2.813157">
        <ele>149.932</ele>
        <time>2020-10-17T17:17:47Z</time>
      </trkpt>
      <trkpt lat="42.261312" lon="2.813044">
        <ele>150.141</ele>
        <time>2020-10-17T17:17:49Z</time>
      </trkpt>
      <trkpt lat="42.261251" lon="2.812925">
        <ele>150.481</ele>
        <time>2020-10-17T17:17:51Z</time>
      </trkpt>
      <trkpt lat="42.261231" lon="2.812817">
        <ele>150.609</ele>
        <time>2020-10-17T17:17:53Z</time>
      </trkpt>
      <trkpt lat="42.261247" lon="2.812680">
        <ele>151.008</ele>
        <time>2020-10-17T17:17:55Z</time>
      </trkpt>
      <trkpt lat="42.261331" lon="2.812561">
        <ele>151.449</ele>
        <time>2020-10-17T17:17:57Z</time>
      </trkpt>
      <trkpt lat="42.261458" lon="2.812522">
        <ele>151.672</ele>
        <time>2020-10-17T17:17:59Z</time>
      </trkpt>
      <trkpt lat="42.261594" lon="2.812519">
        <ele>151.961</ele>
        <time>2020-10-17T17:18:01Z</time>
      </trkpt>
      <trkpt lat="42.261662" lon="2.812512">
        <ele>152.210</ele>
        <time>2020-10-17T17:18:02Z</time>
      </trkpt>
      <trkpt lat="42.261792" lon="2.812456">
        <ele>152.699</ele>
        <time>2020-10-17T17:18:04Z</time>
      </trkpt>
      <trkpt lat="42.261895" lon="2.812356">
        <ele>153.017</ele>
        <time>2020-10-17T17:18:06Z</time>
      </trkpt>
      <trkpt lat="42.261971" lon="2.812258">
        <ele>153.697</ele>
        <time>2020-10-17T17:18:08Z</time>
      </trkpt>
      <trkpt lat="42.262015" lon="2.812221">
        <ele>154.182</ele>
        <time>2020-10-17T17:18:09Z</time>
      </trkpt>
      <trkpt lat="42.262119" lon="2.812166">
        <ele>154.531</ele>
        <time>2020-10-17T17:18:11Z</time>
      </trkpt>
      <trkpt lat="42.262206" lon="2.812131">
        <ele>154.761</ele>
        <time>2020-10-17T17:18:13Z</time>
      </trkpt>
      <trkpt lat="42.262268" lon="2.812101">
        <ele>154.807</ele>
        <time>2020-10-17T17:18:15Z</time>
      </trkpt>
      <trkpt lat="42.262352" lon="2.812048">
        <ele>154.808</ele>
        <time>2020-10-17T17:18:17Z</time>
      </trkpt>
      <trkpt lat="42.262462" lon="2.811956">
        <ele>154.848</ele>
        <time>2020-10-17T17:18:19Z</time>
      </trkpt>
      <trkpt lat="42.262525" lon="2.811897">
        <ele>154.831</ele>
        <time>2020-10-17T17:18:20Z</time>
      </trkpt>
      <trkpt lat="42.262649" lon="2.811780">
        <ele>155.080</ele>
        <time>2020-10-17T17:18:22Z</time>
      </trkpt>
      <trkpt lat="42.262705" lon="2.811724">
        <ele>155.219</ele>
        <time>2020-10-17T17:18:23Z</time>
      </trkpt>
      <trkpt lat="42.262798" lon="2.811617">
        <ele>155.528</ele>
        <time>2020-10-17T17:18:25Z</time>
      </trkpt>
      <trkpt lat="42.262841" lon="2.811558">
        <ele>155.736</ele>
        <time>2020-10-17T17:18:26Z</time>
      </trkpt>
      <trkpt lat="42.262921" lon="2.811435">
        <ele>156.096</ele>
        <time>2020-10-17T17:18:28Z</time>
      </trkpt>
      <trkpt lat="42.262961" lon="2.811372">
        <ele>156.341</ele>
        <time>2020-10-17T17:18:29Z</time>
      </trkpt>
      <trkpt lat="42.263002" lon="2.811308">
        <ele>156.663</ele>
        <time>2020-10-17T17:18:30Z</time>
      </trkpt>
      <trkpt lat="42.263086" lon="2.811183">
        <ele>156.944</ele>
        <time>2020-10-17T17:18:32Z</time>
      </trkpt>
      <trkpt lat="42.263177" lon="2.811064">
        <ele>157.218</ele>
        <time>2020-10-17T17:18:34Z</time>
      </trkpt>
      <trkpt lat="42.263281" lon="2.810946">
        <ele>157.508</ele>
        <time>2020-10-17T17:18:36Z</time>
      </trkpt>
      <trkpt lat="42.263339" lon="2.810889">
        <ele>157.781</ele>
        <time>2020-10-17T17:18:37Z</time>
      </trkpt>
      <trkpt lat="42.263465" lon="2.810767">
        <ele>158.074</ele>
        <time>2020-10-17T17:18:39Z</time>
      </trkpt>
      <trkpt lat="42.263528" lon="2.810701">
        <ele>158.373</ele>
        <time>2020-10-17T17:18:40Z</time>
      </trkpt>
      <trkpt lat="42.263646" lon="2.810562">
        <ele>158.722</ele>
        <time>2020-10-17T17:18:42Z</time>
      </trkpt>
      <trkpt lat="42.263703" lon="2.810491">
        <ele>159.031</ele>
        <time>2020-10-17T17:18:43Z</time>
      </trkpt>
      <trkpt lat="42.263820" lon="2.810359">
        <ele>159.499</ele>
        <time>2020-10-17T17:18:45Z</time>
      </trkpt>
      <trkpt lat="42.263928" lon="2.810250">
        <ele>160.139</ele>
        <time>2020-10-17T17:18:47Z</time>
      </trkpt>
      <trkpt lat="42.264008" lon="2.810176">
        <ele>161.084</ele>
        <time>2020-10-17T17:18:49Z</time>
      </trkpt>
      <trkpt lat="42.264048" lon="2.810138">
        <ele>162.074</ele>
        <time>2020-10-17T17:18:51Z</time>
      </trkpt>
      <trkpt lat="42.264092" lon="2.810086">
        <ele>162.956</ele>
        <time>2020-10-17T17:18:53Z</time>
      </trkpt>
      <trkpt lat="42.264171" lon="2.809981">
        <ele>163.921</ele>
        <time>2020-10-17T17:18:55Z</time>
      </trkpt>
      <trkpt lat="42.264208" lon="2.809939">
        <ele>164.708</ele>
        <time>2020-10-17T17:18:56Z</time>
      </trkpt>
      <trkpt lat="42.264303" lon="2.809831">
        <ele>165.482</ele>
        <time>2020-10-17T17:18:58Z</time>
      </trkpt>
      <trkpt lat="42.264421" lon="2.809696">
        <ele>166.195</ele>
        <time>2020-10-17T17:19:00Z</time>
      </trkpt>
      <trkpt lat="42.264481" lon="2.809632">
        <ele>166.774</ele>
        <time>2020-10-17T17:19:01Z</time>
      </trkpt>
      <trkpt lat="42.264555" lon="2.809531">
        <ele>167.313</ele>
        <time>2020-10-17T17:19:03Z</time>
      </trkpt>
      <trkpt lat="42.264625" lon="2.809488">
        <ele>167.862</ele>
        <time>2020-10-17T17:19:10Z</time>
      </trkpt>
      <trkpt lat="42.264666" lon="2.809441">
        <ele>167.620</ele>
        <time>2020-10-17T17:20:30Z</time>
      </trkpt>
      <trkpt lat="42.264696" lon="2.809369">
        <ele>167.530</ele>
        <time>2020-10-17T17:20:32Z</time>
      </trkpt>
      <trkpt lat="42.264718" lon="2.809311">
        <ele>167.685</ele>
        <time>2020-10-17T17:20:34Z</time>
      </trkpt>
      <trkpt lat="42.264734" lon="2.809246">
        <ele>167.814</ele>
        <time>2020-10-17T17:20:36Z</time>
      </trkpt>
      <trkpt lat="42.264745" lon="2.809185">
        <ele>168.054</ele>
        <time>2020-10-17T17:20:39Z</time>
      </trkpt>
      <trkpt lat="42.264782" lon="2.809125">
        <ele>167.309</ele>
        <time>2020-10-17T17:20:56Z</time>
      </trkpt>
      <trkpt lat="42.264804" lon="2.809045">
        <ele>166.408</ele>
        <time>2020-10-17T17:20:58Z</time>
      </trkpt>
      <trkpt lat="42.264837" lon="2.808962">
        <ele>165.796</ele>
        <time>2020-10-17T17:21:00Z</time>
      </trkpt>
      <trkpt lat="42.264870" lon="2.808865">
        <ele>165.399</ele>
        <time>2020-10-17T17:21:02Z</time>
      </trkpt>
      <trkpt lat="42.264897" lon="2.808775">
        <ele>165.048</ele>
        <time>2020-10-17T17:21:04Z</time>
      </trkpt>
      <trkpt lat="42.264932" lon="2.808649">
        <ele>164.987</ele>
        <time>2020-10-17T17:21:06Z</time>
      </trkpt>
      <trkpt lat="42.264962" lon="2.808582">
        <ele>165.446</ele>
        <time>2020-10-17T17:21:08Z</time>
      </trkpt>
      <trkpt lat="42.264992" lon="2.808534">
        <ele>165.834</ele>
        <time>2020-10-17T17:21:10Z</time>
      </trkpt>
      <trkpt lat="42.265024" lon="2.808485">
        <ele>166.234</ele>
        <time>2020-10-17T17:21:13Z</time>
      </trkpt>
      <trkpt lat="42.265013" lon="2.808422">
        <ele>166.549</ele>
        <time>2020-10-17T17:21:25Z</time>
      </trkpt>
      <trkpt lat="42.265039" lon="2.808329">
        <ele>166.726</ele>
        <time>2020-10-17T17:21:27Z</time>
      </trkpt>
      <trkpt lat="42.265059" lon="2.808248">
        <ele>166.647</ele>
        <time>2020-10-17T17:21:29Z</time>
      </trkpt>
      <trkpt lat="42.265075" lon="2.808124">
        <ele>166.211</ele>
        <time>2020-10-17T17:21:31Z</time>
      </trkpt>
      <trkpt lat="42.265090" lon="2.808033">
        <ele>166.108</ele>
        <time>2020-10-17T17:21:33Z</time>
      </trkpt>
      <trkpt lat="42.265124" lon="2.807947">
        <ele>166.317</ele>
        <time>2020-10-17T17:21:35Z</time>
      </trkpt>
      <trkpt lat="42.265159" lon="2.807881">
        <ele>166.530</ele>
        <time>2020-10-17T17:21:36Z</time>
      </trkpt>
      <trkpt lat="42.265200" lon="2.807799">
        <ele>166.669</ele>
        <time>2020-10-17T17:21:38Z</time>
      </trkpt>
      <trkpt lat="42.265235" lon="2.807717">
        <ele>166.518</ele>
        <time>2020-10-17T17:21:40Z</time>
      </trkpt>
      <trkpt lat="42.265256" lon="2.807660">
        <ele>166.347</ele>
        <time>2020-10-17T17:21:41Z</time>
      </trkpt>
      <trkpt lat="42.265277" lon="2.807584">
        <ele>165.955</ele>
        <time>2020-10-17T17:21:44Z</time>
      </trkpt>
      <trkpt lat="42.265290" lon="2.807466">
        <ele>165.415</ele>
        <time>2020-10-17T17:21:47Z</time>
      </trkpt>
      <trkpt lat="42.265306" lon="2.807347">
        <ele>164.810</ele>
        <time>2020-10-17T17:21:48Z</time>
      </trkpt>
      <trkpt lat="42.265313" lon="2.807281">
        <ele>164.537</ele>
        <time>2020-10-17T17:21:49Z</time>
      </trkpt>
      <trkpt lat="42.265337" lon="2.807133">
        <ele>164.349</ele>
        <time>2020-10-17T17:21:51Z</time>
      </trkpt>
      <trkpt lat="42.265355" lon="2.807047">
        <ele>164.213</ele>
        <time>2020-10-17T17:21:52Z</time>
      </trkpt>
      <trkpt lat="42.265375" lon="2.806961">
        <ele>164.008</ele>
        <time>2020-10-17T17:21:53Z</time>
      </trkpt>
      <trkpt lat="42.265416" lon="2.806802">
        <ele>163.798</ele>
        <time>2020-10-17T17:21:55Z</time>
      </trkpt>
      <trkpt lat="42.265437" lon="2.806729">
        <ele>163.641</ele>
        <time>2020-10-17T17:21:56Z</time>
      </trkpt>
      <trkpt lat="42.265474" lon="2.806590">
        <ele>163.550</ele>
        <time>2020-10-17T17:21:58Z</time>
      </trkpt>
      <trkpt lat="42.265514" lon="2.806434">
        <ele>163.649</ele>
        <time>2020-10-17T17:22:00Z</time>
      </trkpt>
      <trkpt lat="42.265555" lon="2.806258">
        <ele>163.968</ele>
        <time>2020-10-17T17:22:02Z</time>
      </trkpt>
      <trkpt lat="42.265587" lon="2.806070">
        <ele>164.196</ele>
        <time>2020-10-17T17:22:04Z</time>
      </trkpt>
      <trkpt lat="42.265615" lon="2.805875">
        <ele>164.466</ele>
        <time>2020-10-17T17:22:06Z</time>
      </trkpt>
      <trkpt lat="42.265630" lon="2.805783">
        <ele>164.711</ele>
        <time>2020-10-17T17:22:07Z</time>
      </trkpt>
      <trkpt lat="42.265658" lon="2.805624">
        <ele>165.037</ele>
        <time>2020-10-17T17:22:09Z</time>
      </trkpt>
      <trkpt lat="42.265671" lon="2.805540">
        <ele>165.349</ele>
        <time>2020-10-17T17:22:10Z</time>
      </trkpt>
      <trkpt lat="42.265683" lon="2.805452">
        <ele>165.513</ele>
        <time>2020-10-17T17:22:11Z</time>
      </trkpt>
      <trkpt lat="42.265702" lon="2.805270">
        <ele>165.608</ele>
        <time>2020-10-17T17:22:13Z</time>
      </trkpt>
      <trkpt lat="42.265707" lon="2.805187">
        <ele>165.618</ele>
        <time>2020-10-17T17:22:14Z</time>
      </trkpt>
      <trkpt lat="42.265724" lon="2.805057">
        <ele>165.721</ele>
        <time>2020-10-17T17:22:16Z</time>
      </trkpt>
      <trkpt lat="42.265739" lon="2.804998">
        <ele>165.890</ele>
        <time>2020-10-17T17:22:17Z</time>
      </trkpt>
      <trkpt lat="42.265772" lon="2.804902">
        <ele>166.129</ele>
        <time>2020-10-17T17:22:19Z</time>
      </trkpt>
      <trkpt lat="42.265796" lon="2.804823">
        <ele>166.528</ele>
        <time>2020-10-17T17:22:21Z</time>
      </trkpt>
      <trkpt lat="42.265807" lon="2.804746">
        <ele>167.236</ele>
        <time>2020-10-17T17:22:23Z</time>
      </trkpt>
      <trkpt lat="42.265794" lon="2.804683">
        <ele>167.876</ele>
        <time>2020-10-17T17:22:25Z</time>
      </trkpt>
      <trkpt lat="42.265741" lon="2.804617">
        <ele>168.391</ele>
        <time>2020-10-17T17:22:27Z</time>
      </trkpt>
      <trkpt lat="42.265703" lon="2.804582">
        <ele>168.713</ele>
        <time>2020-10-17T17:22:28Z</time>
      </trkpt>
      <trkpt lat="42.265660" lon="2.804550">
        <ele>168.943</ele>
        <time>2020-10-17T17:22:29Z</time>
      </trkpt>
      <trkpt lat="42.265619" lon="2.804521">
        <ele>169.107</ele>
        <time>2020-10-17T17:22:30Z</time>
      </trkpt>
      <trkpt lat="42.265578" lon="2.804485">
        <ele>169.408</ele>
        <time>2020-10-17T17:22:32Z</time>
      </trkpt>
      <trkpt lat="42.265625" lon="2.804483">
        <ele>169.786</ele>
        <time>2020-10-17T17:22:34Z</time>
      </trkpt>
      <trkpt lat="42.265599" lon="2.804429">
        <ele>169.239</ele>
        <time>2020-10-17T17:23:07Z</time>
      </trkpt>
      <trkpt lat="42.265547" lon="2.804381">
        <ele>168.648</ele>
        <time>2020-10-17T17:23:09Z</time>
      </trkpt>
      <trkpt lat="42.265501" lon="2.804336">
        <ele>168.117</ele>
        <time>2020-10-17T17:23:11Z</time>
      </trkpt>
      <trkpt lat="42.265441" lon="2.804294">
        <ele>167.696</ele>
        <time>2020-10-17T17:23:13Z</time>
      </trkpt>
      <trkpt lat="42.265373" lon="2.804255">
        <ele>167.674</ele>
        <time>2020-10-17T17:23:15Z</time>
      </trkpt>
      <trkpt lat="42.265303" lon="2.804211">
        <ele>167.974</ele>
        <time>2020-10-17T17:23:17Z</time>
      </trkpt>
      <trkpt lat="42.265233" lon="2.804166">
        <ele>168.189</ele>
        <time>2020-10-17T17:23:19Z</time>
      </trkpt>
      <trkpt lat="42.265162" lon="2.804119">
        <ele>168.211</ele>
        <time>2020-10-17T17:23:21Z</time>
      </trkpt>
      <trkpt lat="42.265090" lon="2.804064">
        <ele>168.421</ele>
        <time>2020-10-17T17:23:23Z</time>
      </trkpt>
      <trkpt lat="42.265019" lon="2.804001">
        <ele>168.803</ele>
        <time>2020-10-17T17:23:25Z</time>
      </trkpt>
      <trkpt lat="42.264946" lon="2.803933">
        <ele>169.208</ele>
        <time>2020-10-17T17:23:27Z</time>
      </trkpt>
      <trkpt lat="42.264883" lon="2.803875">
        <ele>169.556</ele>
        <time>2020-10-17T17:23:29Z</time>
      </trkpt>
      <trkpt lat="42.264820" lon="2.803816">
        <ele>169.899</ele>
        <time>2020-10-17T17:23:31Z</time>
      </trkpt>
      <trkpt lat="42.264762" lon="2.803759">
        <ele>170.238</ele>
        <time>2020-10-17T17:23:33Z</time>
      </trkpt>
      <trkpt lat="42.264709" lon="2.803702">
        <ele>170.737</ele>
        <time>2020-10-17T17:23:35Z</time>
      </trkpt>
      <trkpt lat="42.264660" lon="2.803642">
        <ele>171.176</ele>
        <time>2020-10-17T17:23:37Z</time>
      </trkpt>
      <trkpt lat="42.264612" lon="2.803581">
        <ele>171.554</ele>
        <time>2020-10-17T17:23:39Z</time>
      </trkpt>
      <trkpt lat="42.264570" lon="2.803527">
        <ele>171.864</ele>
        <time>2020-10-17T17:23:41Z</time>
      </trkpt>
      <trkpt lat="42.264533" lon="2.803484">
        <ele>172.099</ele>
        <time>2020-10-17T17:23:43Z</time>
      </trkpt>
      <trkpt lat="42.264492" lon="2.803427">
        <ele>172.348</ele>
        <time>2020-10-17T17:23:45Z</time>
      </trkpt>
      <trkpt lat="42.264460" lon="2.803374">
        <ele>172.861</ele>
        <time>2020-10-17T17:23:47Z</time>
      </trkpt>
      <trkpt lat="42.264428" lon="2.803327">
        <ele>173.217</ele>
        <time>2020-10-17T17:23:49Z</time>
      </trkpt>
      <trkpt lat="42.264376" lon="2.803274">
        <ele>173.608</ele>
        <time>2020-10-17T17:23:52Z</time>
      </trkpt>
      <trkpt lat="42.264324" lon="2.803236">
        <ele>173.999</ele>
        <time>2020-10-17T17:23:55Z</time>
      </trkpt>
      <trkpt lat="42.264283" lon="2.803207">
        <ele>174.282</ele>
        <time>2020-10-17T17:23:57Z</time>
      </trkpt>
      <trkpt lat="42.264237" lon="2.803180">
        <ele>174.321</ele>
        <time>2020-10-17T17:23:59Z</time>
      </trkpt>
      <trkpt lat="42.264202" lon="2.803112">
        <ele>174.560</ele>
        <time>2020-10-17T17:24:02Z</time>
      </trkpt>
      <trkpt lat="42.264198" lon="2.803014">
        <ele>174.689</ele>
        <time>2020-10-17T17:24:04Z</time>
      </trkpt>
      <trkpt lat="42.264194" lon="2.802891">
        <ele>174.617</ele>
        <time>2020-10-17T17:24:06Z</time>
      </trkpt>
      <trkpt lat="42.264180" lon="2.802773">
        <ele>174.537</ele>
        <time>2020-10-17T17:24:08Z</time>
      </trkpt>
      <trkpt lat="42.264152" lon="2.802678">
        <ele>174.432</ele>
        <time>2020-10-17T17:24:10Z</time>
      </trkpt>
      <trkpt lat="42.264122" lon="2.802619">
        <ele>174.588</ele>
        <time>2020-10-17T17:24:12Z</time>
      </trkpt>
      <trkpt lat="42.264099" lon="2.802559">
        <ele>174.724</ele>
        <time>2020-10-17T17:24:14Z</time>
      </trkpt>
      <trkpt lat="42.264041" lon="2.802547">
        <ele>175.826</ele>
        <time>2020-10-17T17:24:31Z</time>
      </trkpt>
      <trkpt lat="42.264003" lon="2.802514">
        <ele>176.708</ele>
        <time>2020-10-17T17:24:33Z</time>
      </trkpt>
      <trkpt lat="42.264021" lon="2.802595">
        <ele>177.433</ele>
        <time>2020-10-17T17:24:48Z</time>
      </trkpt>
      <trkpt lat="42.265180" lon="2.812462">
        <ele>178.146</ele>
        <time>2020-10-17T17:33:22Z</time>
      </trkpt>
      <trkpt lat="42.265149" lon="2.812511">
        <ele>178.115</ele>
        <time>2020-10-17T17:33:25Z</time>
      </trkpt>
      <trkpt lat="42.265125" lon="2.812580">
        <ele>177.894</ele>
        <time>2020-10-17T17:33:29Z</time>
      </trkpt>
      <trkpt lat="42.265114" lon="2.812656">
        <ele>177.373</ele>
        <time>2020-10-17T17:33:32Z</time>
      </trkpt>
      <trkpt lat="42.265104" lon="2.812735">
        <ele>176.941</ele>
        <time>2020-10-17T17:33:36Z</time>
      </trkpt>
      <trkpt lat="42.265084" lon="2.812803">
        <ele>177.051</ele>
        <time>2020-10-17T17:33:39Z</time>
      </trkpt>
      <trkpt lat="42.265032" lon="2.812839">
        <ele>177.796</ele>
        <time>2020-10-17T17:33:43Z</time>
      </trkpt>
      <trkpt lat="42.264985" lon="2.812895">
        <ele>178.623</ele>
        <time>2020-10-17T17:33:47Z</time>
      </trkpt>
      <trkpt lat="42.264965" lon="2.812954">
        <ele>178.983</ele>
        <time>2020-10-17T17:33:51Z</time>
      </trkpt>
      <trkpt lat="42.264934" lon="2.813077">
        <ele>180.211</ele>
        <time>2020-10-17T17:34:23Z</time>
      </trkpt>
      <trkpt lat="42.264886" lon="2.813141">
        <ele>180.308</ele>
        <time>2020-10-17T17:34:25Z</time>
      </trkpt>
      <trkpt lat="42.264829" lon="2.813179">
        <ele>180.217</ele>
        <time>2020-10-17T17:34:27Z</time>
      </trkpt>
      <trkpt lat="42.264636" lon="2.813475">
        <ele>179.350</ele>
        <time>2020-10-17T17:35:52Z</time>
      </trkpt>
      <trkpt lat="42.264603" lon="2.813539">
        <ele>179.289</ele>
        <time>2020-10-17T17:35:53Z</time>
      </trkpt>
      <trkpt lat="42.264586" lon="2.813600">
        <ele>179.298</ele>
        <time>2020-10-17T17:35:55Z</time>
      </trkpt>
      <trkpt lat="42.264599" lon="2.813658">
        <ele>179.367</ele>
        <time>2020-10-17T17:35:57Z</time>
      </trkpt>
      <trkpt lat="42.264622" lon="2.813714">
        <ele>179.425</ele>
        <time>2020-10-17T17:36:00Z</time>
      </trkpt>
      <trkpt lat="42.264648" lon="2.813780">
        <ele>179.725</ele>
        <time>2020-10-17T17:36:04Z</time>
      </trkpt>
      <trkpt lat="42.264675" lon="2.813851">
        <ele>180.090</ele>
        <time>2020-10-17T17:36:07Z</time>
      </trkpt>
      <trkpt lat="42.264681" lon="2.813943">
        <ele>180.438</ele>
        <time>2020-10-17T17:36:09Z</time>
      </trkpt>
      <trkpt lat="42.264655" lon="2.814027">
        <ele>180.870</ele>
        <time>2020-10-17T17:36:11Z</time>
      </trkpt>
      <trkpt lat="42.264590" lon="2.814097">
        <ele>181.017</ele>
        <time>2020-10-17T17:36:13Z</time>
      </trkpt>
      <trkpt lat="42.264532" lon="2.814136">
        <ele>181.208</ele>
        <time>2020-10-17T17:36:15Z</time>
      </trkpt>
      <trkpt lat="42.264465" lon="2.814184">
        <ele>181.688</ele>
        <time>2020-10-17T17:36:18Z</time>
      </trkpt>
      <trkpt lat="42.264423" lon="2.814285">
        <ele>181.921</ele>
        <time>2020-10-17T17:36:20Z</time>
      </trkpt>
      <trkpt lat="42.264408" lon="2.814345">
        <ele>182.160</ele>
        <time>2020-10-17T17:36:21Z</time>
      </trkpt>
      <trkpt lat="42.264397" lon="2.814405">
        <ele>182.349</ele>
        <time>2020-10-17T17:36:22Z</time>
      </trkpt>
      <trkpt lat="42.264387" lon="2.814471">
        <ele>182.688</ele>
        <time>2020-10-17T17:36:23Z</time>
      </trkpt>
      <trkpt lat="42.264377" lon="2.814551">
        <ele>182.936</ele>
        <time>2020-10-17T17:36:24Z</time>
      </trkpt>
      <trkpt lat="42.264370" lon="2.814612">
        <ele>183.156</ele>
        <time>2020-10-17T17:36:25Z</time>
      </trkpt>
      <trkpt lat="42.264362" lon="2.814697">
        <ele>183.271</ele>
        <time>2020-10-17T17:36:27Z</time>
      </trkpt>
      <trkpt lat="42.264352" lon="2.814770">
        <ele>183.581</ele>
        <time>2020-10-17T17:36:28Z</time>
      </trkpt>
      <trkpt lat="42.264329" lon="2.814852">
        <ele>183.861</ele>
        <time>2020-10-17T17:36:30Z</time>
      </trkpt>
      <trkpt lat="42.264312" lon="2.814914">
        <ele>184.317</ele>
        <time>2020-10-17T17:36:32Z</time>
      </trkpt>
      <trkpt lat="42.264292" lon="2.814971">
        <ele>185.008</ele>
        <time>2020-10-17T17:36:37Z</time>
      </trkpt>
      <trkpt lat="42.264263" lon="2.815034">
        <ele>185.413</ele>
        <time>2020-10-17T17:36:39Z</time>
      </trkpt>
      <trkpt lat="42.264238" lon="2.815089">
        <ele>185.956</ele>
        <time>2020-10-17T17:36:43Z</time>
      </trkpt>
      <trkpt lat="42.264297" lon="2.815171">
        <ele>186.315</ele>
        <time>2020-10-17T17:36:57Z</time>
      </trkpt>
      <trkpt lat="42.264292" lon="2.815248">
        <ele>186.514</ele>
        <time>2020-10-17T17:37:06Z</time>
      </trkpt>
      <trkpt lat="42.264261" lon="2.815299">
        <ele>187.213</ele>
        <time>2020-10-17T17:37:08Z</time>
      </trkpt>
      <trkpt lat="42.264219" lon="2.815329">
        <ele>187.861</ele>
        <time>2020-10-17T17:37:11Z</time>
      </trkpt>
      <trkpt lat="42.264180" lon="2.815413">
        <ele>189.991</ele>
        <time>2020-10-17T17:37:58Z</time>
      </trkpt>
      <trkpt lat="42.264142" lon="2.815475">
        <ele>190.426</ele>
        <time>2020-10-17T17:38:00Z</time>
      </trkpt>
      <trkpt lat="42.264100" lon="2.815505">
        <ele>191.486</ele>
        <time>2020-10-17T17:38:02Z</time>
      </trkpt>
      <trkpt lat="42.264033" lon="2.815548">
        <ele>192.660</ele>
        <time>2020-10-17T17:38:04Z</time>
      </trkpt>
      <trkpt lat="42.263964" lon="2.815600">
        <ele>193.826</ele>
        <time>2020-10-17T17:38:06Z</time>
      </trkpt>
      <trkpt lat="42.263932" lon="2.815646">
        <ele>195.108</ele>
        <time>2020-10-17T17:38:09Z</time>
      </trkpt>
      <trkpt lat="42.263891" lon="2.815693">
        <ele>196.333</ele>
        <time>2020-10-17T17:38:11Z</time>
      </trkpt>
      <trkpt lat="42.263812" lon="2.815770">
        <ele>197.456</ele>
        <time>2020-10-17T17:38:13Z</time>
      </trkpt>
      <trkpt lat="42.263771" lon="2.815810">
        <ele>198.275</ele>
        <time>2020-10-17T17:38:14Z</time>
      </trkpt>
      <trkpt lat="42.263735" lon="2.815850">
        <ele>198.854</ele>
        <time>2020-10-17T17:38:15Z</time>
      </trkpt>
      <trkpt lat="42.263692" lon="2.815928">
        <ele>199.293</ele>
        <time>2020-10-17T17:38:17Z</time>
      </trkpt>
      <trkpt lat="42.263684" lon="2.815995">
        <ele>199.591</ele>
        <time>2020-10-17T17:38:19Z</time>
      </trkpt>
      <trkpt lat="42.263743" lon="2.816007">
        <ele>199.741</ele>
        <time>2020-10-17T17:38:22Z</time>
      </trkpt>
      <trkpt lat="42.263790" lon="2.815989">
        <ele>199.966</ele>
        <time>2020-10-17T17:38:24Z</time>
      </trkpt>
      <trkpt lat="42.263909" lon="2.815950">
        <ele>200.358</ele>
        <time>2020-10-17T17:38:25Z</time>
      </trkpt>
      <trkpt lat="42.263952" lon="2.815908">
        <ele>200.752</ele>
        <time>2020-10-17T17:38:27Z</time>
      </trkpt>
      <trkpt lat="42.264002" lon="2.815882">
        <ele>201.217</ele>
        <time>2020-10-17T17:38:28Z</time>
      </trkpt>
      <trkpt lat="42.264063" lon="2.815869">
        <ele>201.708</ele>
        <time>2020-10-17T17:38:29Z</time>
      </trkpt>
      <trkpt lat="42.264127" lon="2.815857">
        <ele>202.180</ele>
        <time>2020-10-17T17:38:30Z</time>
      </trkpt>
      <trkpt lat="42.264247" lon="2.815818">
        <ele>202.513</ele>
        <time>2020-10-17T17:38:32Z</time>
      </trkpt>
      <trkpt lat="42.264357" lon="2.815767">
        <ele>202.932</ele>
        <time>2020-10-17T17:38:34Z</time>
      </trkpt>
      <trkpt lat="42.264412" lon="2.815740">
        <ele>203.241</ele>
        <time>2020-10-17T17:38:35Z</time>
      </trkpt>
      <trkpt lat="42.264528" lon="2.815684">
        <ele>203.560</ele>
        <time>2020-10-17T17:38:37Z</time>
      </trkpt>
      <trkpt lat="42.264643" lon="2.815613">
        <ele>203.668</ele>
        <time>2020-10-17T17:38:39Z</time>
      </trkpt>
      <trkpt lat="42.264700" lon="2.815567">
        <ele>203.698</ele>
        <time>2020-10-17T17:38:40Z</time>
      </trkpt>
      <trkpt lat="42.264754" lon="2.815513">
        <ele>203.793</ele>
        <time>2020-10-17T17:38:41Z</time>
      </trkpt>
      <trkpt lat="42.264802" lon="2.815459">
        <ele>203.979</ele>
        <time>2020-10-17T17:38:42Z</time>
      </trkpt>
      <trkpt lat="42.264844" lon="2.815405">
        <ele>204.205</ele>
        <time>2020-10-17T17:38:43Z</time>
      </trkpt>
      <trkpt lat="42.264915" lon="2.815313">
        <ele>204.725</ele>
        <time>2020-10-17T17:38:45Z</time>
      </trkpt>
      <trkpt lat="42.264966" lon="2.815264">
        <ele>205.408</ele>
        <time>2020-10-17T17:38:47Z</time>
      </trkpt>
      <trkpt lat="42.265027" lon="2.815271">
        <ele>206.292</ele>
        <time>2020-10-17T17:38:50Z</time>
      </trkpt>
      <trkpt lat="42.265100" lon="2.815283">
        <ele>206.965</ele>
        <time>2020-10-17T17:38:52Z</time>
      </trkpt>
      <trkpt lat="42.265149" lon="2.815291">
        <ele>207.454</ele>
        <time>2020-10-17T17:38:53Z</time>
      </trkpt>
      <trkpt lat="42.265266" lon="2.815323">
        <ele>207.993</ele>
        <time>2020-10-17T17:38:55Z</time>
      </trkpt>
      <trkpt lat="42.265380" lon="2.815385">
        <ele>208.472</ele>
        <time>2020-10-17T17:38:57Z</time>
      </trkpt>
      <trkpt lat="42.265483" lon="2.815462">
        <ele>208.810</ele>
        <time>2020-10-17T17:38:59Z</time>
      </trkpt>
      <trkpt lat="42.265579" lon="2.815534">
        <ele>209.390</ele>
        <time>2020-10-17T17:39:01Z</time>
      </trkpt>
      <trkpt lat="42.265666" lon="2.815600">
        <ele>209.955</ele>
        <time>2020-10-17T17:39:03Z</time>
      </trkpt>
      <trkpt lat="42.265751" lon="2.815658">
        <ele>210.413</ele>
        <time>2020-10-17T17:39:05Z</time>
      </trkpt>
      <trkpt lat="42.265833" lon="2.815724">
        <ele>210.843</ele>
        <time>2020-10-17T17:39:07Z</time>
      </trkpt>
      <trkpt lat="42.265915" lon="2.815765">
        <ele>211.307</ele>
        <time>2020-10-17T17:39:09Z</time>
      </trkpt>
      <trkpt lat="42.266016" lon="2.815763">
        <ele>211.908</ele>
        <time>2020-10-17T17:39:11Z</time>
      </trkpt>
      <trkpt lat="42.266122" lon="2.815694">
        <ele>212.766</ele>
        <time>2020-10-17T17:39:13Z</time>
      </trkpt>
      <trkpt lat="42.266215" lon="2.815582">
        <ele>213.569</ele>
        <time>2020-10-17T17:39:15Z</time>
      </trkpt>
      <trkpt lat="42.266260" lon="2.815511">
        <ele>214.268</ele>
        <time>2020-10-17T17:39:16Z</time>
      </trkpt>
      <trkpt lat="42.266330" lon="2.815356">
        <ele>214.857</ele>
        <time>2020-10-17T17:39:18Z</time>
      </trkpt>
      <trkpt lat="42.266374" lon="2.815205">
        <ele>215.366</ele>
        <time>2020-10-17T17:39:20Z</time>
      </trkpt>
      <trkpt lat="42.266385" lon="2.815130">
        <ele>215.754</ele>
        <time>2020-10-17T17:39:21Z</time>
      </trkpt>
      <trkpt lat="42.266389" lon="2.815059">
        <ele>215.934</ele>
        <time>2020-10-17T17:39:22Z</time>
      </trkpt>
      <trkpt lat="42.266377" lon="2.814922">
        <ele>216.169</ele>
        <time>2020-10-17T17:39:24Z</time>
      </trkpt>
      <trkpt lat="42.266370" lon="2.814850">
        <ele>216.393</ele>
        <time>2020-10-17T17:39:25Z</time>
      </trkpt>
      <trkpt lat="42.266353" lon="2.814705">
        <ele>217.065</ele>
        <time>2020-10-17T17:39:27Z</time>
      </trkpt>
      <trkpt lat="42.266339" lon="2.814645">
        <ele>217.721</ele>
        <time>2020-10-17T17:39:28Z</time>
      </trkpt>
      <trkpt lat="42.266339" lon="2.814540">
        <ele>218.608</ele>
        <time>2020-10-17T17:39:30Z</time>
      </trkpt>
      <trkpt lat="42.266370" lon="2.814428">
        <ele>219.854</ele>
        <time>2020-10-17T17:39:32Z</time>
      </trkpt>
      <trkpt lat="42.266441" lon="2.814321">
        <ele>221.047</ele>
        <time>2020-10-17T17:39:34Z</time>
      </trkpt>
      <trkpt lat="42.266565" lon="2.814242">
        <ele>222.216</ele>
        <time>2020-10-17T17:39:36Z</time>
      </trkpt>
      <trkpt lat="42.266711" lon="2.814183">
        <ele>223.215</ele>
        <time>2020-10-17T17:39:38Z</time>
      </trkpt>
      <trkpt lat="42.266818" lon="2.814148">
        <ele>224.244</ele>
        <time>2020-10-17T17:39:40Z</time>
      </trkpt>
      <trkpt lat="42.266909" lon="2.814133">
        <ele>225.242</ele>
        <time>2020-10-17T17:39:42Z</time>
      </trkpt>
      <trkpt lat="42.266966" lon="2.814133">
        <ele>226.072</ele>
        <time>2020-10-17T17:39:43Z</time>
      </trkpt>
      <trkpt lat="42.267072" lon="2.814140">
        <ele>226.817</ele>
        <time>2020-10-17T17:39:45Z</time>
      </trkpt>
      <trkpt lat="42.267177" lon="2.814135">
        <ele>227.543</ele>
        <time>2020-10-17T17:39:47Z</time>
      </trkpt>
      <trkpt lat="42.267231" lon="2.814128">
        <ele>228.064</ele>
        <time>2020-10-17T17:39:48Z</time>
      </trkpt>
      <trkpt lat="42.267334" lon="2.814111">
        <ele>228.210</ele>
        <time>2020-10-17T17:39:50Z</time>
      </trkpt>
      <trkpt lat="42.267382" lon="2.814098">
        <ele>228.508</ele>
        <time>2020-10-17T17:39:51Z</time>
      </trkpt>
      <trkpt lat="42.267444" lon="2.814072">
        <ele>228.869</ele>
        <time>2020-10-17T17:39:53Z</time>
      </trkpt>
      <trkpt lat="42.267494" lon="2.814063">
        <ele>229.392</ele>
        <time>2020-10-17T17:39:55Z</time>
      </trkpt>
      <trkpt lat="42.267547" lon="2.814089">
        <ele>229.991</ele>
        <time>2020-10-17T17:39:57Z</time>
      </trkpt>
      <trkpt lat="42.267603" lon="2.814134">
        <ele>230.890</ele>
        <time>2020-10-17T17:39:59Z</time>
      </trkpt>
      <trkpt lat="42.267596" lon="2.814233">
        <ele>231.689</ele>
        <time>2020-10-17T17:40:05Z</time>
      </trkpt>
      <trkpt lat="42.267573" lon="2.814286">
        <ele>232.217</ele>
        <time>2020-10-17T17:40:06Z</time>
      </trkpt>
      <trkpt lat="42.267544" lon="2.814342">
        <ele>232.797</ele>
        <time>2020-10-17T17:40:07Z</time>
      </trkpt>
      <trkpt lat="42.267488" lon="2.814393">
        <ele>233.392</ele>
        <time>2020-10-17T17:40:09Z</time>
      </trkpt>
      <trkpt lat="42.267425" lon="2.814409">
        <ele>233.897</ele>
        <time>2020-10-17T17:40:11Z</time>
      </trkpt>
      <trkpt lat="42.267380" lon="2.814440">
        <ele>234.423</ele>
        <time>2020-10-17T17:40:13Z</time>
      </trkpt>
      <trkpt lat="42.267424" lon="2.814457">
        <ele>234.925</ele>
        <time>2020-10-17T17:40:17Z</time>
      </trkpt>
      <trkpt lat="42.267396" lon="2.814544">
        <ele>235.808</ele>
        <time>2020-10-17T17:40:28Z</time>
      </trkpt>
      <trkpt lat="42.267364" lon="2.814634">
        <ele>236.314</ele>
        <time>2020-10-17T17:40:30Z</time>
      </trkpt>
      <trkpt lat="42.267346" lon="2.814750">
        <ele>236.597</ele>
        <time>2020-10-17T17:40:32Z</time>
      </trkpt>
      <trkpt lat="42.267338" lon="2.814844">
        <ele>236.796</ele>
        <time>2020-10-17T17:40:33Z</time>
      </trkpt>
      <trkpt lat="42.267336" lon="2.814940">
        <ele>236.965</ele>
        <time>2020-10-17T17:40:35Z</time>
      </trkpt>
      <trkpt lat="42.267345" lon="2.815026">
        <ele>237.164</ele>
        <time>2020-10-17T17:40:37Z</time>
      </trkpt>
      <trkpt lat="42.267345" lon="2.815103">
        <ele>237.362</ele>
        <time>2020-10-17T17:40:39Z</time>
      </trkpt>
      <trkpt lat="42.267311" lon="2.815166">
        <ele>237.632</ele>
        <time>2020-10-17T17:40:42Z</time>
      </trkpt>
      <trkpt lat="42.267254" lon="2.815158">
        <ele>238.137</ele>
        <time>2020-10-17T17:40:45Z</time>
      </trkpt>
      <trkpt lat="42.267206" lon="2.815139">
        <ele>239.695</ele>
        <time>2020-10-17T17:41:22Z</time>
      </trkpt>
      <trkpt lat="42.267162" lon="2.815159">
        <ele>240.849</ele>
        <time>2020-10-17T17:41:24Z</time>
      </trkpt>
      <trkpt lat="42.267200" lon="2.815117">
        <ele>242.523</ele>
        <time>2020-10-17T17:41:37Z</time>
      </trkpt>
      <trkpt lat="42.267249" lon="2.815078">
        <ele>244.708</ele>
        <time>2020-10-17T17:41:59Z</time>
      </trkpt>
      <trkpt lat="42.267290" lon="2.814997">
        <ele>245.934</ele>
        <time>2020-10-17T17:42:01Z</time>
      </trkpt>
      <trkpt lat="42.267327" lon="2.814886">
        <ele>246.347</ele>
        <time>2020-10-17T17:42:03Z</time>
      </trkpt>
      <trkpt lat="42.267340" lon="2.814823">
        <ele>246.596</ele>
        <time>2020-10-17T17:42:04Z</time>
      </trkpt>
      <trkpt lat="42.267351" lon="2.814695">
        <ele>246.525</ele>
        <time>2020-10-17T17:42:06Z</time>
      </trkpt>
      <trkpt lat="42.267354" lon="2.814629">
        <ele>246.424</ele>
        <time>2020-10-17T17:42:07Z</time>
      </trkpt>
      <trkpt lat="42.267358" lon="2.814482">
        <ele>246.142</ele>
        <time>2020-10-17T17:42:09Z</time>
      </trkpt>
      <trkpt lat="42.267374" lon="2.814419">
        <ele>245.772</ele>
        <time>2020-10-17T17:42:11Z</time>
      </trkpt>
      <trkpt lat="42.267418" lon="2.814374">
        <ele>245.117</ele>
        <time>2020-10-17T17:42:13Z</time>
      </trkpt>
      <trkpt lat="42.267471" lon="2.814359">
        <ele>244.624</ele>
        <time>2020-10-17T17:42:15Z</time>
      </trkpt>
      <trkpt lat="42.267526" lon="2.814323">
        <ele>244.304</ele>
        <time>2020-10-17T17:42:17Z</time>
      </trkpt>
      <trkpt lat="42.267571" lon="2.814262">
        <ele>244.314</ele>
        <time>2020-10-17T17:42:18Z</time>
      </trkpt>
      <trkpt lat="42.267601" lon="2.814179">
        <ele>244.208</ele>
        <time>2020-10-17T17:42:20Z</time>
      </trkpt>
      <trkpt lat="42.267640" lon="2.814110">
        <ele>244.247</ele>
        <time>2020-10-17T17:42:22Z</time>
      </trkpt>
      <trkpt lat="42.267710" lon="2.814026">
        <ele>244.010</ele>
        <time>2020-10-17T17:42:24Z</time>
      </trkpt>
      <trkpt lat="42.267780" lon="2.813963">
        <ele>243.429</ele>
        <time>2020-10-17T17:42:26Z</time>
      </trkpt>
      <trkpt lat="42.267822" lon="2.813913">
        <ele>242.928</ele>
        <time>2020-10-17T17:42:27Z</time>
      </trkpt>
      <trkpt lat="42.267884" lon="2.813831">
        <ele>242.257</ele>
        <time>2020-10-17T17:42:29Z</time>
      </trkpt>
      <trkpt lat="42.267938" lon="2.813836">
        <ele>241.835</ele>
        <time>2020-10-17T17:42:32Z</time>
      </trkpt>
      <trkpt lat="42.267939" lon="2.813957">
        <ele>241.625</ele>
        <time>2020-10-17T17:42:34Z</time>
      </trkpt>
      <trkpt lat="42.267889" lon="2.814045">
        <ele>241.380</ele>
        <time>2020-10-17T17:42:36Z</time>
      </trkpt>
      <trkpt lat="42.267824" lon="2.814110">
        <ele>240.969</ele>
        <time>2020-10-17T17:42:38Z</time>
      </trkpt>
      <trkpt lat="42.267764" lon="2.814172">
        <ele>240.404</ele>
        <time>2020-10-17T17:42:40Z</time>
      </trkpt>
      <trkpt lat="42.267716" lon="2.814238">
        <ele>239.924</ele>
        <time>2020-10-17T17:42:42Z</time>
      </trkpt>
      <trkpt lat="42.267686" lon="2.814351">
        <ele>239.408</ele>
        <time>2020-10-17T17:42:44Z</time>
      </trkpt>
      <trkpt lat="42.267689" lon="2.814420">
        <ele>238.961</ele>
        <time>2020-10-17T17:42:45Z</time>
      </trkpt>
      <trkpt lat="42.267699" lon="2.814504">
        <ele>238.534</ele>
        <time>2020-10-17T17:42:46Z</time>
      </trkpt>
      <trkpt lat="42.267723" lon="2.814668">
        <ele>238.073</ele>
        <time>2020-10-17T17:42:48Z</time>
      </trkpt>
      <trkpt lat="42.267751" lon="2.814752">
        <ele>237.682</ele>
        <time>2020-10-17T17:42:49Z</time>
      </trkpt>
      <trkpt lat="42.267827" lon="2.814904">
        <ele>237.441</ele>
        <time>2020-10-17T17:42:51Z</time>
      </trkpt>
      <trkpt lat="42.267908" lon="2.815012">
        <ele>237.339</ele>
        <time>2020-10-17T17:42:53Z</time>
      </trkpt>
      <trkpt lat="42.267981" lon="2.815081">
        <ele>237.019</ele>
        <time>2020-10-17T17:42:55Z</time>
      </trkpt>
      <trkpt lat="42.268047" lon="2.815177">
        <ele>236.484</ele>
        <time>2020-10-17T17:42:57Z</time>
      </trkpt>
      <trkpt lat="42.268131" lon="2.815280">
        <ele>235.912</ele>
        <time>2020-10-17T17:42:59Z</time>
      </trkpt>
      <trkpt lat="42.268210" lon="2.815405">
        <ele>235.432</ele>
        <time>2020-10-17T17:43:01Z</time>
      </trkpt>
      <trkpt lat="42.268239" lon="2.815481">
        <ele>235.005</ele>
        <time>2020-10-17T17:43:02Z</time>
      </trkpt>
      <trkpt lat="42.268274" lon="2.815638">
        <ele>234.608</ele>
        <time>2020-10-17T17:43:04Z</time>
      </trkpt>
      <trkpt lat="42.268290" lon="2.815780">
        <ele>234.076</ele>
        <time>2020-10-17T17:43:06Z</time>
      </trkpt>
      <trkpt lat="42.268283" lon="2.815917">
        <ele>233.559</ele>
        <time>2020-10-17T17:43:08Z</time>
      </trkpt>
      <trkpt lat="42.268267" lon="2.815983">
        <ele>233.138</ele>
        <time>2020-10-17T17:43:09Z</time>
      </trkpt>
      <trkpt lat="42.268213" lon="2.816119">
        <ele>232.517</ele>
        <time>2020-10-17T17:43:11Z</time>
      </trkpt>
      <trkpt lat="42.268182" lon="2.816185">
        <ele>232.156</ele>
        <time>2020-10-17T17:43:12Z</time>
      </trkpt>
      <trkpt lat="42.268124" lon="2.816320">
        <ele>231.554</ele>
        <time>2020-10-17T17:43:14Z</time>
      </trkpt>
      <trkpt lat="42.268102" lon="2.816387">
        <ele>230.994</ele>
        <time>2020-10-17T17:43:15Z</time>
      </trkpt>
      <trkpt lat="42.268092" lon="2.816520">
        <ele>230.289</ele>
        <time>2020-10-17T17:43:17Z</time>
      </trkpt>
      <trkpt lat="42.268150" lon="2.816644">
        <ele>229.296</ele>
        <time>2020-10-17T17:43:19Z</time>
      </trkpt>
      <trkpt lat="42.268189" lon="2.816698">
        <ele>228.331</ele>
        <time>2020-10-17T17:43:20Z</time>
      </trkpt>
      <trkpt lat="42.268277" lon="2.816793">
        <ele>227.324</ele>
        <time>2020-10-17T17:43:22Z</time>
      </trkpt>
      <trkpt lat="42.268324" lon="2.816841">
        <ele>226.708</ele>
        <time>2020-10-17T17:43:23Z</time>
      </trkpt>
      <trkpt lat="42.268386" lon="2.816941">
        <ele>226.094</ele>
        <time>2020-10-17T17:43:25Z</time>
      </trkpt>
      <trkpt lat="42.268409" lon="2.817059">
        <ele>225.757</ele>
        <time>2020-10-17T17:43:27Z</time>
      </trkpt>
      <trkpt lat="42.268430" lon="2.817220">
        <ele>225.366</ele>
        <time>2020-10-17T17:43:29Z</time>
      </trkpt>
      <trkpt lat="42.268441" lon="2.817385">
        <ele>224.825</ele>
        <time>2020-10-17T17:43:31Z</time>
      </trkpt>
      <trkpt lat="42.268440" lon="2.817467">
        <ele>224.324</ele>
        <time>2020-10-17T17:43:32Z</time>
      </trkpt>
      <trkpt lat="42.268428" lon="2.817542">
        <ele>223.712</ele>
        <time>2020-10-17T17:43:33Z</time>
      </trkpt>
      <trkpt lat="42.268407" lon="2.817611">
        <ele>223.182</ele>
        <time>2020-10-17T17:43:34Z</time>
      </trkpt>
      <trkpt lat="42.268359" lon="2.817729">
        <ele>222.347</ele>
        <time>2020-10-17T17:43:36Z</time>
      </trkpt>
      <trkpt lat="42.268336" lon="2.817783">
        <ele>221.596</ele>
        <time>2020-10-17T17:43:37Z</time>
      </trkpt>
      <trkpt lat="42.268316" lon="2.817916">
        <ele>220.931</ele>
        <time>2020-10-17T17:43:39Z</time>
      </trkpt>
      <trkpt lat="42.268327" lon="2.818016">
        <ele>220.524</ele>
        <time>2020-10-17T17:43:41Z</time>
      </trkpt>
      <trkpt lat="42.268309" lon="2.818114">
        <ele>220.308</ele>
        <time>2020-10-17T17:43:43Z</time>
      </trkpt>
      <trkpt lat="42.268244" lon="2.818216">
        <ele>220.494</ele>
        <time>2020-10-17T17:43:45Z</time>
      </trkpt>
      <trkpt lat="42.268182" lon="2.818252">
        <ele>220.597</ele>
        <time>2020-10-17T17:43:46Z</time>
      </trkpt>
      <trkpt lat="42.268114" lon="2.818277">
        <ele>220.556</ele>
        <time>2020-10-17T17:43:47Z</time>
      </trkpt>
      <trkpt lat="42.267996" lon="2.818281">
        <ele>220.385</ele>
        <time>2020-10-17T17:43:49Z</time>
      </trkpt>
      <trkpt lat="42.267915" lon="2.818277">
        <ele>219.754</ele>
        <time>2020-10-17T17:43:51Z</time>
      </trkpt>
      <trkpt lat="42.267786" lon="2.818354">
        <ele>218.692</ele>
        <time>2020-10-17T17:43:53Z</time>
      </trkpt>
      <trkpt lat="42.267701" lon="2.818411">
        <ele>217.642</ele>
        <time>2020-10-17T17:43:54Z</time>
      </trkpt>
      <trkpt lat="42.267620" lon="2.818457">
        <ele>216.767</ele>
        <time>2020-10-17T17:43:55Z</time>
      </trkpt>
      <trkpt lat="42.267545" lon="2.818496">
        <ele>215.877</ele>
        <time>2020-10-17T17:43:56Z</time>
      </trkpt>
      <trkpt lat="42.267456" lon="2.818576">
        <ele>214.761</ele>
        <time>2020-10-17T17:43:58Z</time>
      </trkpt>
      <trkpt lat="42.267433" lon="2.818632">
        <ele>213.827</ele>
        <time>2020-10-17T17:43:59Z</time>
      </trkpt>
      <trkpt lat="42.267406" lon="2.818794">
        <ele>212.408</ele>
        <time>2020-10-17T17:44:01Z</time>
      </trkpt>
      <trkpt lat="42.267375" lon="2.819005">
        <ele>210.812</ele>
        <time>2020-10-17T17:44:03Z</time>
      </trkpt>
      <trkpt lat="42.267330" lon="2.819218">
        <ele>209.445</ele>
        <time>2020-10-17T17:44:05Z</time>
      </trkpt>
      <trkpt lat="42.267330" lon="2.819218">
        <ele>209.464</ele>
        <time>2020-10-17T17:44:05Z</time>
      </trkpt>
      <trkpt lat="42.267296" lon="2.819380">
        <ele>208.313</ele>
        <time>2020-10-17T17:44:07Z</time>
      </trkpt>
      <trkpt lat="42.267277" lon="2.819449">
        <ele>207.652</ele>
        <time>2020-10-17T17:44:08Z</time>
      </trkpt>
      <trkpt lat="42.267235" lon="2.819575">
        <ele>207.310</ele>
        <time>2020-10-17T17:44:10Z</time>
      </trkpt>
      <trkpt lat="42.267215" lon="2.819651">
        <ele>207.050</ele>
        <time>2020-10-17T17:44:11Z</time>
      </trkpt>
      <trkpt lat="42.267185" lon="2.819807">
        <ele>206.865</ele>
        <time>2020-10-17T17:44:13Z</time>
      </trkpt>
      <trkpt lat="42.267174" lon="2.819878">
        <ele>206.774</ele>
        <time>2020-10-17T17:44:14Z</time>
      </trkpt>
      <trkpt lat="42.267164" lon="2.819940">
        <ele>206.656</ele>
        <time>2020-10-17T17:44:15Z</time>
      </trkpt>
      <trkpt lat="42.267142" lon="2.820058">
        <ele>206.421</ele>
        <time>2020-10-17T17:44:17Z</time>
      </trkpt>
      <trkpt lat="42.267126" lon="2.820133">
        <ele>206.108</ele>
        <time>2020-10-17T17:44:18Z</time>
      </trkpt>
      <trkpt lat="42.267095" lon="2.820293">
        <ele>205.922</ele>
        <time>2020-10-17T17:44:20Z</time>
      </trkpt>
      <trkpt lat="42.267080" lon="2.820365">
        <ele>205.895</ele>
        <time>2020-10-17T17:44:21Z</time>
      </trkpt>
      <trkpt lat="42.267065" lon="2.820427">
        <ele>205.764</ele>
        <time>2020-10-17T17:44:22Z</time>
      </trkpt>
      <trkpt lat="42.267036" lon="2.820536">
        <ele>205.433</ele>
        <time>2020-10-17T17:44:24Z</time>
      </trkpt>
      <trkpt lat="42.267017" lon="2.820605">
        <ele>205.242</ele>
        <time>2020-10-17T17:44:25Z</time>
      </trkpt>
      <trkpt lat="42.266969" lon="2.820741">
        <ele>204.960</ele>
        <time>2020-10-17T17:44:27Z</time>
      </trkpt>
      <trkpt lat="42.266929" lon="2.820823">
        <ele>204.550</ele>
        <time>2020-10-17T17:44:29Z</time>
      </trkpt>
      <trkpt lat="42.266890" lon="2.820893">
        <ele>204.075</ele>
        <time>2020-10-17T17:44:31Z</time>
      </trkpt>
      <trkpt lat="42.266853" lon="2.821003">
        <ele>203.225</ele>
        <time>2020-10-17T17:44:33Z</time>
      </trkpt>
      <trkpt lat="42.266821" lon="2.821134">
        <ele>202.226</ele>
        <time>2020-10-17T17:44:35Z</time>
      </trkpt>
      <trkpt lat="42.266799" lon="2.821202">
        <ele>201.308</ele>
        <time>2020-10-17T17:44:36Z</time>
      </trkpt>
      <trkpt lat="42.266743" lon="2.821342">
        <ele>200.308</ele>
        <time>2020-10-17T17:44:38Z</time>
      </trkpt>
      <trkpt lat="42.266677" lon="2.821480">
        <ele>199.477</ele>
        <time>2020-10-17T17:44:40Z</time>
      </trkpt>
      <trkpt lat="42.266599" lon="2.821599">
        <ele>198.630</ele>
        <time>2020-10-17T17:44:42Z</time>
      </trkpt>
      <trkpt lat="42.266557" lon="2.821649">
        <ele>198.019</ele>
        <time>2020-10-17T17:44:43Z</time>
      </trkpt>
      <trkpt lat="42.266469" lon="2.821742">
        <ele>197.318</ele>
        <time>2020-10-17T17:44:45Z</time>
      </trkpt>
      <trkpt lat="42.266419" lon="2.821787">
        <ele>196.777</ele>
        <time>2020-10-17T17:44:46Z</time>
      </trkpt>
      <trkpt lat="42.266296" lon="2.821864">
        <ele>195.975</ele>
        <time>2020-10-17T17:44:48Z</time>
      </trkpt>
      <trkpt lat="42.266152" lon="2.821906">
        <ele>195.155</ele>
        <time>2020-10-17T17:44:50Z</time>
      </trkpt>
      <trkpt lat="42.266020" lon="2.821922">
        <ele>194.350</ele>
        <time>2020-10-17T17:44:52Z</time>
      </trkpt>
      <trkpt lat="42.265928" lon="2.821909">
        <ele>193.564</ele>
        <time>2020-10-17T17:44:54Z</time>
      </trkpt>
      <trkpt lat="42.265886" lon="2.821882">
        <ele>192.806</ele>
        <time>2020-10-17T17:44:56Z</time>
      </trkpt>
      <trkpt lat="42.265841" lon="2.821902">
        <ele>193.016</ele>
        <time>2020-10-17T17:45:07Z</time>
      </trkpt>
      <trkpt lat="42.265790" lon="2.821929">
        <ele>193.108</ele>
        <time>2020-10-17T17:45:37Z</time>
      </trkpt>
      <trkpt lat="42.265728" lon="2.821908">
        <ele>193.191</ele>
        <time>2020-10-17T17:45:40Z</time>
      </trkpt>
      <trkpt lat="42.265654" lon="2.821903">
        <ele>193.374</ele>
        <time>2020-10-17T17:45:42Z</time>
      </trkpt>
      <trkpt lat="42.265574" lon="2.821907">
        <ele>193.453</ele>
        <time>2020-10-17T17:45:44Z</time>
      </trkpt>
      <trkpt lat="42.265494" lon="2.821917">
        <ele>193.312</ele>
        <time>2020-10-17T17:45:46Z</time>
      </trkpt>
      <trkpt lat="42.265412" lon="2.821944">
        <ele>193.021</ele>
        <time>2020-10-17T17:45:48Z</time>
      </trkpt>
      <trkpt lat="42.265342" lon="2.821992">
        <ele>192.879</ele>
        <time>2020-10-17T17:45:50Z</time>
      </trkpt>
      <trkpt lat="42.265281" lon="2.822064">
        <ele>192.419</ele>
        <time>2020-10-17T17:45:52Z</time>
      </trkpt>
      <trkpt lat="42.265242" lon="2.822145">
        <ele>191.614</ele>
        <time>2020-10-17T17:45:54Z</time>
      </trkpt>
      <trkpt lat="42.265252" lon="2.822222">
        <ele>190.849</ele>
        <time>2020-10-17T17:45:56Z</time>
      </trkpt>
      <trkpt lat="42.265290" lon="2.822289">
        <ele>190.202</ele>
        <time>2020-10-17T17:45:58Z</time>
      </trkpt>
      <trkpt lat="42.265337" lon="2.822351">
        <ele>189.922</ele>
        <time>2020-10-17T17:46:00Z</time>
      </trkpt>
      <trkpt lat="42.265395" lon="2.822424">
        <ele>189.808</ele>
        <time>2020-10-17T17:46:02Z</time>
      </trkpt>
      <trkpt lat="42.265463" lon="2.822509">
        <ele>190.089</ele>
        <time>2020-10-17T17:46:04Z</time>
      </trkpt>
      <trkpt lat="42.265501" lon="2.822561">
        <ele>190.232</ele>
        <time>2020-10-17T17:46:05Z</time>
      </trkpt>
      <trkpt lat="42.265576" lon="2.822684">
        <ele>190.311</ele>
        <time>2020-10-17T17:46:07Z</time>
      </trkpt>
      <trkpt lat="42.265615" lon="2.822818">
        <ele>190.210</ele>
        <time>2020-10-17T17:46:09Z</time>
      </trkpt>
      <trkpt lat="42.265613" lon="2.822917">
        <ele>190.349</ele>
        <time>2020-10-17T17:46:11Z</time>
      </trkpt>
      <trkpt lat="42.265593" lon="2.823059">
        <ele>190.247</ele>
        <time>2020-10-17T17:46:13Z</time>
      </trkpt>
      <trkpt lat="42.265574" lon="2.823136">
        <ele>190.057</ele>
        <time>2020-10-17T17:46:14Z</time>
      </trkpt>
      <trkpt lat="42.265513" lon="2.823264">
        <ele>189.872</ele>
        <time>2020-10-17T17:46:16Z</time>
      </trkpt>
      <trkpt lat="42.265429" lon="2.823349">
        <ele>189.933</ele>
        <time>2020-10-17T17:46:18Z</time>
      </trkpt>
      <trkpt lat="42.265310" lon="2.823388">
        <ele>190.123</ele>
        <time>2020-10-17T17:46:20Z</time>
      </trkpt>
      <trkpt lat="42.265237" lon="2.823386">
        <ele>190.315</ele>
        <time>2020-10-17T17:46:21Z</time>
      </trkpt>
      <trkpt lat="42.265085" lon="2.823363">
        <ele>190.608</ele>
        <time>2020-10-17T17:46:23Z</time>
      </trkpt>
      <trkpt lat="42.265016" lon="2.823355">
        <ele>190.918</ele>
        <time>2020-10-17T17:46:24Z</time>
      </trkpt>
      <trkpt lat="42.264912" lon="2.823354">
        <ele>191.431</ele>
        <time>2020-10-17T17:46:26Z</time>
      </trkpt>
      <trkpt lat="42.264845" lon="2.823377">
        <ele>192.090</ele>
        <time>2020-10-17T17:46:28Z</time>
      </trkpt>
      <trkpt lat="42.264768" lon="2.823420">
        <ele>192.469</ele>
        <time>2020-10-17T17:46:30Z</time>
      </trkpt>
      <trkpt lat="42.264675" lon="2.823472">
        <ele>192.828</ele>
        <time>2020-10-17T17:46:32Z</time>
      </trkpt>
      <trkpt lat="42.264566" lon="2.823530">
        <ele>193.166</ele>
        <time>2020-10-17T17:46:34Z</time>
      </trkpt>
      <trkpt lat="42.264511" lon="2.823556">
        <ele>193.476</ele>
        <time>2020-10-17T17:46:35Z</time>
      </trkpt>
      <trkpt lat="42.264458" lon="2.823582">
        <ele>193.631</ele>
        <time>2020-10-17T17:46:36Z</time>
      </trkpt>
      <trkpt lat="42.264360" lon="2.823643">
        <ele>194.015</ele>
        <time>2020-10-17T17:46:38Z</time>
      </trkpt>
      <trkpt lat="42.264293" lon="2.823738">
        <ele>194.565</ele>
        <time>2020-10-17T17:46:40Z</time>
      </trkpt>
      <trkpt lat="42.264290" lon="2.823811">
        <ele>194.911</ele>
        <time>2020-10-17T17:46:41Z</time>
      </trkpt>
      <trkpt lat="42.264369" lon="2.823976">
        <ele>195.608</ele>
        <time>2020-10-17T17:46:43Z</time>
      </trkpt>
      <trkpt lat="42.264415" lon="2.824064">
        <ele>196.486</ele>
        <time>2020-10-17T17:46:44Z</time>
      </trkpt>
      <trkpt lat="42.264487" lon="2.824238">
        <ele>197.029</ele>
        <time>2020-10-17T17:46:46Z</time>
      </trkpt>
      <trkpt lat="42.264493" lon="2.824383">
        <ele>198.098</ele>
        <time>2020-10-17T17:46:48Z</time>
      </trkpt>
      <trkpt lat="42.264481" lon="2.824453">
        <ele>198.917</ele>
        <time>2020-10-17T17:46:49Z</time>
      </trkpt>
      <trkpt lat="42.264462" lon="2.824519">
        <ele>199.726</ele>
        <time>2020-10-17T17:46:50Z</time>
      </trkpt>
      <trkpt lat="42.264411" lon="2.824596">
        <ele>200.684</ele>
        <time>2020-10-17T17:46:52Z</time>
      </trkpt>
      <trkpt lat="42.264351" lon="2.824594">
        <ele>201.484</ele>
        <time>2020-10-17T17:46:54Z</time>
      </trkpt>
      <trkpt lat="42.264283" lon="2.824562">
        <ele>202.289</ele>
        <time>2020-10-17T17:46:56Z</time>
      </trkpt>
      <trkpt lat="42.264232" lon="2.824558">
        <ele>202.646</ele>
        <time>2020-10-17T17:46:58Z</time>
      </trkpt>
      <trkpt lat="42.264163" lon="2.824605">
        <ele>203.188</ele>
        <time>2020-10-17T17:47:00Z</time>
      </trkpt>
      <trkpt lat="42.264116" lon="2.824646">
        <ele>203.416</ele>
        <time>2020-10-17T17:47:01Z</time>
      </trkpt>
      <trkpt lat="42.264006" lon="2.824746">
        <ele>203.808</ele>
        <time>2020-10-17T17:47:03Z</time>
      </trkpt>
      <trkpt lat="42.263947" lon="2.824800">
        <ele>204.269</ele>
        <time>2020-10-17T17:47:04Z</time>
      </trkpt>
      <trkpt lat="42.263831" lon="2.824893">
        <ele>204.712</ele>
        <time>2020-10-17T17:47:06Z</time>
      </trkpt>
      <trkpt lat="42.263719" lon="2.824971">
        <ele>205.281</ele>
        <time>2020-10-17T17:47:08Z</time>
      </trkpt>
      <trkpt lat="42.263662" lon="2.825009">
        <ele>205.690</ele>
        <time>2020-10-17T17:47:09Z</time>
      </trkpt>
      <trkpt lat="42.263557" lon="2.825089">
        <ele>206.199</ele>
        <time>2020-10-17T17:47:11Z</time>
      </trkpt>
      <trkpt lat="42.263464" lon="2.825150">
        <ele>206.787</ele>
        <time>2020-10-17T17:47:13Z</time>
      </trkpt>
      <trkpt lat="42.263360" lon="2.825189">
        <ele>207.237</ele>
        <time>2020-10-17T17:47:15Z</time>
      </trkpt>
      <trkpt lat="42.263305" lon="2.825199">
        <ele>207.642</ele>
        <time>2020-10-17T17:47:16Z</time>
      </trkpt>
      <trkpt lat="42.263248" lon="2.825200">
        <ele>208.072</ele>
        <time>2020-10-17T17:47:17Z</time>
      </trkpt>
      <trkpt lat="42.263139" lon="2.825199">
        <ele>208.513</ele>
        <time>2020-10-17T17:47:19Z</time>
      </trkpt>
      <trkpt lat="42.263084" lon="2.825201">
        <ele>208.814</ele>
        <time>2020-10-17T17:47:21Z</time>
      </trkpt>
      <trkpt lat="42.263029" lon="2.825244">
        <ele>209.208</ele>
        <time>2020-10-17T17:47:23Z</time>
      </trkpt>
      <trkpt lat="42.262953" lon="2.825315">
        <ele>209.862</ele>
        <time>2020-10-17T17:47:25Z</time>
      </trkpt>
      <trkpt lat="42.262911" lon="2.825349">
        <ele>210.115</ele>
        <time>2020-10-17T17:47:26Z</time>
      </trkpt>
      <trkpt lat="42.262845" lon="2.825398">
        <ele>210.474</ele>
        <time>2020-10-17T17:47:28Z</time>
      </trkpt>
      <trkpt lat="42.262767" lon="2.825444">
        <ele>210.893</ele>
        <time>2020-10-17T17:47:30Z</time>
      </trkpt>
      <trkpt lat="42.262669" lon="2.825544">
        <ele>211.442</ele>
        <time>2020-10-17T17:47:32Z</time>
      </trkpt>
      <trkpt lat="42.262586" lon="2.825665">
        <ele>212.460</ele>
        <time>2020-10-17T17:47:34Z</time>
      </trkpt>
      <trkpt lat="42.262559" lon="2.825808">
        <ele>213.750</ele>
        <time>2020-10-17T17:47:36Z</time>
      </trkpt>
      <trkpt lat="42.262577" lon="2.825882">
        <ele>214.845</ele>
        <time>2020-10-17T17:47:37Z</time>
      </trkpt>
      <trkpt lat="42.262603" lon="2.826012">
        <ele>215.715</ele>
        <time>2020-10-17T17:47:39Z</time>
      </trkpt>
      <trkpt lat="42.262591" lon="2.826126">
        <ele>216.465</ele>
        <time>2020-10-17T17:47:41Z</time>
      </trkpt>
      <trkpt lat="42.262518" lon="2.826230">
        <ele>216.711</ele>
        <time>2020-10-17T17:47:43Z</time>
      </trkpt>
      <trkpt lat="42.262453" lon="2.826265">
        <ele>216.808</ele>
        <time>2020-10-17T17:47:44Z</time>
      </trkpt>
      <trkpt lat="42.262388" lon="2.826276">
        <ele>216.826</ele>
        <time>2020-10-17T17:47:45Z</time>
      </trkpt>
      <trkpt lat="42.262274" lon="2.826234">
        <ele>216.739</ele>
        <time>2020-10-17T17:47:47Z</time>
      </trkpt>
      <trkpt lat="42.262197" lon="2.826224">
        <ele>216.538</ele>
        <time>2020-10-17T17:47:48Z</time>
      </trkpt>
      <trkpt lat="42.262104" lon="2.826254">
        <ele>216.217</ele>
        <time>2020-10-17T17:47:50Z</time>
      </trkpt>
      <trkpt lat="42.262002" lon="2.826309">
        <ele>216.026</ele>
        <time>2020-10-17T17:47:52Z</time>
      </trkpt>
      <trkpt lat="42.261944" lon="2.826347">
        <ele>215.844</ele>
        <time>2020-10-17T17:47:53Z</time>
      </trkpt>
      <trkpt lat="42.261817" lon="2.826425">
        <ele>215.514</ele>
        <time>2020-10-17T17:47:55Z</time>
      </trkpt>
      <trkpt lat="42.261687" lon="2.826498">
        <ele>215.439</ele>
        <time>2020-10-17T17:47:57Z</time>
      </trkpt>
      <trkpt lat="42.261623" lon="2.826535">
        <ele>215.228</ele>
        <time>2020-10-17T17:47:58Z</time>
      </trkpt>
      <trkpt lat="42.261562" lon="2.826577">
        <ele>215.089</ele>
        <time>2020-10-17T17:47:59Z</time>
      </trkpt>
      <trkpt lat="42.261461" lon="2.826702">
        <ele>215.017</ele>
        <time>2020-10-17T17:48:01Z</time>
      </trkpt>
      <trkpt lat="42.261378" lon="2.826825">
        <ele>215.108</ele>
        <time>2020-10-17T17:48:03Z</time>
      </trkpt>
      <trkpt lat="42.261292" lon="2.826892">
        <ele>214.927</ele>
        <time>2020-10-17T17:48:05Z</time>
      </trkpt>
      <trkpt lat="42.261240" lon="2.826913">
        <ele>214.770</ele>
        <time>2020-10-17T17:48:06Z</time>
      </trkpt>
      <trkpt lat="42.261127" lon="2.826951">
        <ele>214.499</ele>
        <time>2020-10-17T17:48:08Z</time>
      </trkpt>
      <trkpt lat="42.261031" lon="2.826994">
        <ele>213.978</ele>
        <time>2020-10-17T17:48:10Z</time>
      </trkpt>
      <trkpt lat="42.260969" lon="2.827044">
        <ele>213.537</ele>
        <time>2020-10-17T17:48:12Z</time>
      </trkpt>
      <trkpt lat="42.260932" lon="2.827083">
        <ele>213.365</ele>
        <time>2020-10-17T17:48:13Z</time>
      </trkpt>
      <trkpt lat="42.260892" lon="2.827129">
        <ele>213.295</ele>
        <time>2020-10-17T17:48:14Z</time>
      </trkpt>
      <trkpt lat="42.260851" lon="2.827177">
        <ele>212.940</ele>
        <time>2020-10-17T17:48:15Z</time>
      </trkpt>
      <trkpt lat="42.260779" lon="2.827258">
        <ele>212.591</ele>
        <time>2020-10-17T17:48:17Z</time>
      </trkpt>
      <trkpt lat="42.260754" lon="2.827343">
        <ele>212.381</ele>
        <time>2020-10-17T17:48:19Z</time>
      </trkpt>
      <trkpt lat="42.260746" lon="2.827406">
        <ele>212.319</ele>
        <time>2020-10-17T17:48:20Z</time>
      </trkpt>
      <trkpt lat="42.260740" lon="2.827481">
        <ele>212.408</ele>
        <time>2020-10-17T17:48:21Z</time>
      </trkpt>
      <trkpt lat="42.260735" lon="2.827644">
        <ele>212.484</ele>
        <time>2020-10-17T17:48:23Z</time>
      </trkpt>
      <trkpt lat="42.260740" lon="2.827735">
        <ele>212.387</ele>
        <time>2020-10-17T17:48:24Z</time>
      </trkpt>
      <trkpt lat="42.260760" lon="2.827916">
        <ele>211.836</ele>
        <time>2020-10-17T17:48:26Z</time>
      </trkpt>
      <trkpt lat="42.260767" lon="2.827999">
        <ele>211.485</ele>
        <time>2020-10-17T17:48:27Z</time>
      </trkpt>
      <trkpt lat="42.260771" lon="2.828078">
        <ele>210.954</ele>
        <time>2020-10-17T17:48:28Z</time>
      </trkpt>
      <trkpt lat="42.260758" lon="2.828225">
        <ele>210.332</ele>
        <time>2020-10-17T17:48:30Z</time>
      </trkpt>
      <trkpt lat="42.260745" lon="2.828295">
        <ele>209.922</ele>
        <time>2020-10-17T17:48:31Z</time>
      </trkpt>
      <trkpt lat="42.260708" lon="2.828437">
        <ele>209.517</ele>
        <time>2020-10-17T17:48:33Z</time>
      </trkpt>
      <trkpt lat="42.260661" lon="2.828580">
        <ele>209.254</ele>
        <time>2020-10-17T17:48:35Z</time>
      </trkpt>
      <trkpt lat="42.260615" lon="2.828694">
        <ele>208.856</ele>
        <time>2020-10-17T17:48:37Z</time>
      </trkpt>
      <trkpt lat="42.260575" lon="2.828748">
        <ele>208.211</ele>
        <time>2020-10-17T17:48:39Z</time>
      </trkpt>
      <trkpt lat="42.260521" lon="2.828829">
        <ele>207.608</ele>
        <time>2020-10-17T17:48:41Z</time>
      </trkpt>
      <trkpt lat="42.260448" lon="2.828941">
        <ele>207.160</ele>
        <time>2020-10-17T17:48:43Z</time>
      </trkpt>
      <trkpt lat="42.260399" lon="2.829000">
        <ele>206.783</ele>
        <time>2020-10-17T17:48:44Z</time>
      </trkpt>
      <trkpt lat="42.260304" lon="2.829090">
        <ele>206.482</ele>
        <time>2020-10-17T17:48:46Z</time>
      </trkpt>
      <trkpt lat="42.260231" lon="2.829142">
        <ele>206.131</ele>
        <time>2020-10-17T17:48:48Z</time>
      </trkpt>
      <trkpt lat="42.260203" lon="2.829197">
        <ele>205.760</ele>
        <time>2020-10-17T17:48:50Z</time>
      </trkpt>
      <trkpt lat="42.260195" lon="2.829310">
        <ele>205.218</ele>
        <time>2020-10-17T17:48:52Z</time>
      </trkpt>
      <trkpt lat="42.260132" lon="2.829408">
        <ele>204.878</ele>
        <time>2020-10-17T17:48:54Z</time>
      </trkpt>
      <trkpt lat="42.260040" lon="2.829437">
        <ele>204.583</ele>
        <time>2020-10-17T17:48:56Z</time>
      </trkpt>
      <trkpt lat="42.259948" lon="2.829490">
        <ele>204.189</ele>
        <time>2020-10-17T17:48:58Z</time>
      </trkpt>
      <trkpt lat="42.259850" lon="2.829578">
        <ele>203.506</ele>
        <time>2020-10-17T17:49:00Z</time>
      </trkpt>
      <trkpt lat="42.259806" lon="2.829621">
        <ele>202.926</ele>
        <time>2020-10-17T17:49:01Z</time>
      </trkpt>
      <trkpt lat="42.259719" lon="2.829702">
        <ele>202.208</ele>
        <time>2020-10-17T17:49:03Z</time>
      </trkpt>
      <trkpt lat="42.259624" lon="2.829787">
        <ele>201.493</ele>
        <time>2020-10-17T17:49:05Z</time>
      </trkpt>
      <trkpt lat="42.259524" lon="2.829862">
        <ele>200.586</ele>
        <time>2020-10-17T17:49:07Z</time>
      </trkpt>
      <trkpt lat="42.259473" lon="2.829890">
        <ele>199.755</ele>
        <time>2020-10-17T17:49:08Z</time>
      </trkpt>
      <trkpt lat="42.259421" lon="2.829916">
        <ele>199.144</ele>
        <time>2020-10-17T17:49:09Z</time>
      </trkpt>
      <trkpt lat="42.259318" lon="2.829959">
        <ele>198.413</ele>
        <time>2020-10-17T17:49:11Z</time>
      </trkpt>
      <trkpt lat="42.259203" lon="2.829991">
        <ele>197.531</ele>
        <time>2020-10-17T17:49:13Z</time>
      </trkpt>
      <trkpt lat="42.259095" lon="2.830008">
        <ele>196.651</ele>
        <time>2020-10-17T17:49:15Z</time>
      </trkpt>
      <trkpt lat="42.259001" lon="2.830001">
        <ele>195.526</ele>
        <time>2020-10-17T17:49:17Z</time>
      </trkpt>
      <trkpt lat="42.258933" lon="2.829992">
        <ele>194.156</ele>
        <time>2020-10-17T17:49:19Z</time>
      </trkpt>
      <trkpt lat="42.258870" lon="2.830016">
        <ele>192.559</ele>
        <time>2020-10-17T17:49:21Z</time>
      </trkpt>
      <trkpt lat="42.258790" lon="2.830081">
        <ele>190.914</ele>
        <time>2020-10-17T17:49:23Z</time>
      </trkpt>
      <trkpt lat="42.258741" lon="2.830127">
        <ele>189.608</ele>
        <time>2020-10-17T17:49:24Z</time>
      </trkpt>
      <trkpt lat="42.258688" lon="2.830183">
        <ele>188.510</ele>
        <time>2020-10-17T17:49:25Z</time>
      </trkpt>
      <trkpt lat="42.258569" lon="2.830304">
        <ele>187.243</ele>
        <time>2020-10-17T17:49:27Z</time>
      </trkpt>
      <trkpt lat="42.258506" lon="2.830357">
        <ele>186.082</ele>
        <time>2020-10-17T17:49:28Z</time>
      </trkpt>
      <trkpt lat="42.258384" lon="2.830436">
        <ele>184.781</ele>
        <time>2020-10-17T17:49:30Z</time>
      </trkpt>
      <trkpt lat="42.258271" lon="2.830501">
        <ele>183.610</ele>
        <time>2020-10-17T17:49:32Z</time>
      </trkpt>
      <trkpt lat="42.258212" lon="2.830537">
        <ele>182.818</ele>
        <time>2020-10-17T17:49:33Z</time>
      </trkpt>
      <trkpt lat="42.258096" lon="2.830614">
        <ele>182.288</ele>
        <time>2020-10-17T17:49:35Z</time>
      </trkpt>
      <trkpt lat="42.258007" lon="2.830677">
        <ele>181.633</ele>
        <time>2020-10-17T17:49:37Z</time>
      </trkpt>
      <trkpt lat="42.257958" lon="2.830643">
        <ele>180.352</ele>
        <time>2020-10-17T17:49:40Z</time>
      </trkpt>
      <trkpt lat="42.257973" lon="2.830562">
        <ele>178.753</ele>
        <time>2020-10-17T17:49:42Z</time>
      </trkpt>
      <trkpt lat="42.258016" lon="2.830498">
        <ele>177.608</ele>
        <time>2020-10-17T17:49:43Z</time>
      </trkpt>
      <trkpt lat="42.258058" lon="2.830443">
        <ele>177.008</ele>
        <time>2020-10-17T17:49:44Z</time>
      </trkpt>
      <trkpt lat="42.258141" lon="2.830338">
        <ele>176.670</ele>
        <time>2020-10-17T17:49:46Z</time>
      </trkpt>
      <trkpt lat="42.258183" lon="2.830281">
        <ele>176.213</ele>
        <time>2020-10-17T17:49:47Z</time>
      </trkpt>
      <trkpt lat="42.258280" lon="2.830171">
        <ele>175.962</ele>
        <time>2020-10-17T17:49:49Z</time>
      </trkpt>
      <trkpt lat="42.258337" lon="2.830125">
        <ele>175.741</ele>
        <time>2020-10-17T17:49:50Z</time>
      </trkpt>
      <trkpt lat="42.258459" lon="2.830055">
        <ele>175.430</ele>
        <time>2020-10-17T17:49:52Z</time>
      </trkpt>
      <trkpt lat="42.258585" lon="2.829977">
        <ele>174.958</ele>
        <time>2020-10-17T17:49:54Z</time>
      </trkpt>
      <trkpt lat="42.258690" lon="2.829883">
        <ele>174.588</ele>
        <time>2020-10-17T17:49:56Z</time>
      </trkpt>
      <trkpt lat="42.258739" lon="2.829799">
        <ele>174.133</ele>
        <time>2020-10-17T17:49:58Z</time>
      </trkpt>
      <trkpt lat="42.258767" lon="2.829711">
        <ele>173.845</ele>
        <time>2020-10-17T17:50:00Z</time>
      </trkpt>
      <trkpt lat="42.258805" lon="2.829592">
        <ele>173.847</ele>
        <time>2020-10-17T17:50:02Z</time>
      </trkpt>
      <trkpt lat="42.258832" lon="2.829526">
        <ele>173.911</ele>
        <time>2020-10-17T17:50:03Z</time>
      </trkpt>
      <trkpt lat="42.258907" lon="2.829408">
        <ele>174.408</ele>
        <time>2020-10-17T17:50:05Z</time>
      </trkpt>
      <trkpt lat="42.259007" lon="2.829298">
        <ele>175.199</ele>
        <time>2020-10-17T17:50:07Z</time>
      </trkpt>
      <trkpt lat="42.259058" lon="2.829243">
        <ele>175.632</ele>
        <time>2020-10-17T17:50:08Z</time>
      </trkpt>
      <trkpt lat="42.259158" lon="2.829131">
        <ele>176.011</ele>
        <time>2020-10-17T17:50:10Z</time>
      </trkpt>
      <trkpt lat="42.259266" lon="2.829018">
        <ele>176.350</ele>
        <time>2020-10-17T17:50:12Z</time>
      </trkpt>
      <trkpt lat="42.259366" lon="2.828920">
        <ele>176.799</ele>
        <time>2020-10-17T17:50:14Z</time>
      </trkpt>
      <trkpt lat="42.259436" lon="2.828823">
        <ele>177.147</ele>
        <time>2020-10-17T17:50:16Z</time>
      </trkpt>
      <trkpt lat="42.259501" lon="2.828710">
        <ele>177.557</ele>
        <time>2020-10-17T17:50:18Z</time>
      </trkpt>
      <trkpt lat="42.259545" lon="2.828637">
        <ele>178.022</ele>
        <time>2020-10-17T17:50:20Z</time>
      </trkpt>
      <trkpt lat="42.259583" lon="2.828578">
        <ele>178.356</ele>
        <time>2020-10-17T17:50:22Z</time>
      </trkpt>
      <trkpt lat="42.259614" lon="2.828534">
        <ele>178.659</ele>
        <time>2020-10-17T17:50:23Z</time>
      </trkpt>
      <trkpt lat="42.259697" lon="2.828403">
        <ele>179.014</ele>
        <time>2020-10-17T17:50:25Z</time>
      </trkpt>
      <trkpt lat="42.259786" lon="2.828231">
        <ele>179.508</ele>
        <time>2020-10-17T17:50:27Z</time>
      </trkpt>
      <trkpt lat="42.259827" lon="2.828141">
        <ele>180.060</ele>
        <time>2020-10-17T17:50:28Z</time>
      </trkpt>
      <trkpt lat="42.259867" lon="2.828049">
        <ele>180.463</ele>
        <time>2020-10-17T17:50:29Z</time>
      </trkpt>
      <trkpt lat="42.259904" lon="2.827959">
        <ele>180.732</ele>
        <time>2020-10-17T17:50:30Z</time>
      </trkpt>
      <trkpt lat="42.259936" lon="2.827869">
        <ele>180.971</ele>
        <time>2020-10-17T17:50:31Z</time>
      </trkpt>
      <trkpt lat="42.259983" lon="2.827689">
        <ele>181.160</ele>
        <time>2020-10-17T17:50:33Z</time>
      </trkpt>
      <trkpt lat="42.260017" lon="2.827494">
        <ele>181.388</ele>
        <time>2020-10-17T17:50:35Z</time>
      </trkpt>
      <trkpt lat="42.260038" lon="2.827295">
        <ele>181.528</ele>
        <time>2020-10-17T17:50:37Z</time>
      </trkpt>
      <trkpt lat="42.260061" lon="2.827096">
        <ele>181.833</ele>
        <time>2020-10-17T17:50:39Z</time>
      </trkpt>
      <trkpt lat="42.260093" lon="2.826893">
        <ele>182.188</ele>
        <time>2020-10-17T17:50:41Z</time>
      </trkpt>
      <trkpt lat="42.260162" lon="2.826696">
        <ele>182.524</ele>
        <time>2020-10-17T17:50:43Z</time>
      </trkpt>
      <trkpt lat="42.260257" lon="2.826538">
        <ele>182.826</ele>
        <time>2020-10-17T17:50:45Z</time>
      </trkpt>
      <trkpt lat="42.260364" lon="2.826401">
        <ele>182.908</ele>
        <time>2020-10-17T17:50:47Z</time>
      </trkpt>
      <trkpt lat="42.260453" lon="2.826260">
        <ele>182.983</ele>
        <time>2020-10-17T17:50:49Z</time>
      </trkpt>
      <trkpt lat="42.260489" lon="2.826189">
        <ele>183.066</ele>
        <time>2020-10-17T17:50:50Z</time>
      </trkpt>
      <trkpt lat="42.260521" lon="2.826120">
        <ele>183.045</ele>
        <time>2020-10-17T17:50:51Z</time>
      </trkpt>
      <trkpt lat="42.260584" lon="2.826001">
        <ele>182.584</ele>
        <time>2020-10-17T17:50:53Z</time>
      </trkpt>
      <trkpt lat="42.260659" lon="2.825873">
        <ele>181.663</ele>
        <time>2020-10-17T17:50:55Z</time>
      </trkpt>
      <trkpt lat="42.260689" lon="2.825801">
        <ele>181.051</ele>
        <time>2020-10-17T17:50:56Z</time>
      </trkpt>
      <trkpt lat="42.260685" lon="2.825652">
        <ele>180.661</ele>
        <time>2020-10-17T17:50:58Z</time>
      </trkpt>
      <trkpt lat="42.260607" lon="2.825506">
        <ele>180.556</ele>
        <time>2020-10-17T17:51:00Z</time>
      </trkpt>
      <trkpt lat="42.260523" lon="2.825354">
        <ele>180.795</ele>
        <time>2020-10-17T17:51:02Z</time>
      </trkpt>
      <trkpt lat="42.260459" lon="2.825233">
        <ele>181.449</ele>
        <time>2020-10-17T17:51:04Z</time>
      </trkpt>
      <trkpt lat="42.260406" lon="2.825192">
        <ele>182.123</ele>
        <time>2020-10-17T17:51:06Z</time>
      </trkpt>
      <trkpt lat="42.260321" lon="2.825200">
        <ele>182.608</ele>
        <time>2020-10-17T17:51:08Z</time>
      </trkpt>
      <trkpt lat="42.260210" lon="2.825246">
        <ele>182.924</ele>
        <time>2020-10-17T17:51:10Z</time>
      </trkpt>
      <trkpt lat="42.260148" lon="2.825293">
        <ele>183.097</ele>
        <time>2020-10-17T17:51:11Z</time>
      </trkpt>
      <trkpt lat="42.260028" lon="2.825403">
        <ele>183.026</ele>
        <time>2020-10-17T17:51:13Z</time>
      </trkpt>
      <trkpt lat="42.259912" lon="2.825535">
        <ele>183.045</ele>
        <time>2020-10-17T17:51:15Z</time>
      </trkpt>
      <trkpt lat="42.259858" lon="2.825605">
        <ele>183.044</ele>
        <time>2020-10-17T17:51:16Z</time>
      </trkpt>
      <trkpt lat="42.259804" lon="2.825672">
        <ele>183.082</ele>
        <time>2020-10-17T17:51:17Z</time>
      </trkpt>
      <trkpt lat="42.259750" lon="2.825736">
        <ele>183.072</ele>
        <time>2020-10-17T17:51:18Z</time>
      </trkpt>
      <trkpt lat="42.259644" lon="2.825839">
        <ele>183.037</ele>
        <time>2020-10-17T17:51:20Z</time>
      </trkpt>
      <trkpt lat="42.259593" lon="2.825873">
        <ele>183.093</ele>
        <time>2020-10-17T17:51:21Z</time>
      </trkpt>
      <trkpt lat="42.259538" lon="2.825892">
        <ele>183.065</ele>
        <time>2020-10-17T17:51:22Z</time>
      </trkpt>
      <trkpt lat="42.259419" lon="2.825902">
        <ele>183.021</ele>
        <time>2020-10-17T17:51:24Z</time>
      </trkpt>
      <trkpt lat="42.259306" lon="2.825881">
        <ele>183.108</ele>
        <time>2020-10-17T17:51:26Z</time>
      </trkpt>
      <trkpt lat="42.259237" lon="2.825822">
        <ele>183.214</ele>
        <time>2020-10-17T17:51:28Z</time>
      </trkpt>
      <trkpt lat="42.259206" lon="2.825755">
        <ele>183.417</ele>
        <time>2020-10-17T17:51:30Z</time>
      </trkpt>
      <trkpt lat="42.259157" lon="2.825821">
        <ele>184.056</ele>
        <time>2020-10-17T17:51:36Z</time>
      </trkpt>
      <trkpt lat="42.259145" lon="2.825924">
        <ele>184.685</ele>
        <time>2020-10-17T17:51:38Z</time>
      </trkpt>
      <trkpt lat="42.259125" lon="2.826027">
        <ele>185.134</ele>
        <time>2020-10-17T17:51:40Z</time>
      </trkpt>
      <trkpt lat="42.259090" lon="2.826144">
        <ele>185.552</ele>
        <time>2020-10-17T17:51:42Z</time>
      </trkpt>
      <trkpt lat="42.259068" lon="2.826219">
        <ele>185.872</ele>
        <time>2020-10-17T17:51:43Z</time>
      </trkpt>
      <trkpt lat="42.259047" lon="2.826295">
        <ele>186.197</ele>
        <time>2020-10-17T17:51:44Z</time>
      </trkpt>
      <trkpt lat="42.259018" lon="2.826409">
        <ele>186.536</ele>
        <time>2020-10-17T17:51:46Z</time>
      </trkpt>
      <trkpt lat="42.258983" lon="2.826505">
        <ele>186.917</ele>
        <time>2020-10-17T17:51:48Z</time>
      </trkpt>
      <trkpt lat="42.258886" lon="2.826612">
        <ele>187.818</ele>
        <time>2020-10-17T17:51:50Z</time>
      </trkpt>
      <trkpt lat="42.258753" lon="2.826705">
        <ele>188.808</ele>
        <time>2020-10-17T17:51:52Z</time>
      </trkpt>
      <trkpt lat="42.258690" lon="2.826742">
        <ele>189.628</ele>
        <time>2020-10-17T17:51:53Z</time>
      </trkpt>
      <trkpt lat="42.258632" lon="2.826775">
        <ele>190.311</ele>
        <time>2020-10-17T17:51:54Z</time>
      </trkpt>
      <trkpt lat="42.258533" lon="2.826843">
        <ele>191.070</ele>
        <time>2020-10-17T17:51:56Z</time>
      </trkpt>
      <trkpt lat="42.258489" lon="2.826880">
        <ele>191.519</ele>
        <time>2020-10-17T17:51:57Z</time>
      </trkpt>
      <trkpt lat="42.258400" lon="2.826945">
        <ele>192.078</ele>
        <time>2020-10-17T17:51:59Z</time>
      </trkpt>
      <trkpt lat="42.258308" lon="2.826986">
        <ele>192.436</ele>
        <time>2020-10-17T17:52:01Z</time>
      </trkpt>
      <trkpt lat="42.258216" lon="2.827024">
        <ele>192.666</ele>
        <time>2020-10-17T17:52:03Z</time>
      </trkpt>
      <trkpt lat="42.258173" lon="2.827047">
        <ele>192.531</ele>
        <time>2020-10-17T17:52:04Z</time>
      </trkpt>
      <trkpt lat="42.258084" lon="2.827099">
        <ele>192.242</ele>
        <time>2020-10-17T17:52:06Z</time>
      </trkpt>
      <trkpt lat="42.258034" lon="2.827126">
        <ele>191.922</ele>
        <time>2020-10-17T17:52:07Z</time>
      </trkpt>
      <trkpt lat="42.257926" lon="2.827188">
        <ele>191.314</ele>
        <time>2020-10-17T17:52:09Z</time>
      </trkpt>
      <trkpt lat="42.257871" lon="2.827227">
        <ele>190.708</ele>
        <time>2020-10-17T17:52:10Z</time>
      </trkpt>
      <trkpt lat="42.257761" lon="2.827306">
        <ele>189.939</ele>
        <time>2020-10-17T17:52:12Z</time>
      </trkpt>
      <trkpt lat="42.257636" lon="2.827369">
        <ele>189.072</ele>
        <time>2020-10-17T17:52:14Z</time>
      </trkpt>
      <trkpt lat="42.257570" lon="2.827403">
        <ele>188.381</ele>
        <time>2020-10-17T17:52:15Z</time>
      </trkpt>
      <trkpt lat="42.257504" lon="2.827442">
        <ele>187.680</ele>
        <time>2020-10-17T17:52:16Z</time>
      </trkpt>
      <trkpt lat="42.257440" lon="2.827484">
        <ele>186.989</ele>
        <time>2020-10-17T17:52:17Z</time>
      </trkpt>
      <trkpt lat="42.257319" lon="2.827568">
        <ele>186.047</ele>
        <time>2020-10-17T17:52:19Z</time>
      </trkpt>
      <trkpt lat="42.257260" lon="2.827601">
        <ele>185.167</ele>
        <time>2020-10-17T17:52:20Z</time>
      </trkpt>
      <trkpt lat="42.257145" lon="2.827656">
        <ele>184.092</ele>
        <time>2020-10-17T17:52:22Z</time>
      </trkpt>
      <trkpt lat="42.257032" lon="2.827706">
        <ele>183.048</ele>
        <time>2020-10-17T17:52:24Z</time>
      </trkpt>
      <trkpt lat="42.256977" lon="2.827732">
        <ele>182.261</ele>
        <time>2020-10-17T17:52:25Z</time>
      </trkpt>
      <trkpt lat="42.256878" lon="2.827776">
        <ele>181.317</ele>
        <time>2020-10-17T17:52:27Z</time>
      </trkpt>
      <trkpt lat="42.256807" lon="2.827797">
        <ele>180.608</ele>
        <time>2020-10-17T17:52:29Z</time>
      </trkpt>
      <trkpt lat="42.256760" lon="2.827815">
        <ele>180.049</ele>
        <time>2020-10-17T17:52:30Z</time>
      </trkpt>
      <trkpt lat="42.256650" lon="2.827865">
        <ele>179.372</ele>
        <time>2020-10-17T17:52:32Z</time>
      </trkpt>
      <trkpt lat="42.256594" lon="2.827895">
        <ele>178.721</ele>
        <time>2020-10-17T17:52:33Z</time>
      </trkpt>
      <trkpt lat="42.256490" lon="2.827957">
        <ele>178.040</ele>
        <time>2020-10-17T17:52:35Z</time>
      </trkpt>
      <trkpt lat="42.256387" lon="2.828005">
        <ele>177.229</ele>
        <time>2020-10-17T17:52:37Z</time>
      </trkpt>
      <trkpt lat="42.256335" lon="2.828027">
        <ele>176.627</ele>
        <time>2020-10-17T17:52:38Z</time>
      </trkpt>
      <trkpt lat="42.256245" lon="2.828071">
        <ele>175.967</ele>
        <time>2020-10-17T17:52:40Z</time>
      </trkpt>
      <trkpt lat="42.256184" lon="2.828079">
        <ele>175.282</ele>
        <time>2020-10-17T17:52:42Z</time>
      </trkpt>
      <trkpt lat="42.256128" lon="2.828014">
        <ele>174.714</ele>
        <time>2020-10-17T17:52:44Z</time>
      </trkpt>
      <trkpt lat="42.256077" lon="2.827895">
        <ele>174.054</ele>
        <time>2020-10-17T17:52:46Z</time>
      </trkpt>
      <trkpt lat="42.256044" lon="2.827829">
        <ele>173.309</ele>
        <time>2020-10-17T17:52:47Z</time>
      </trkpt>
      <trkpt lat="42.256007" lon="2.827770">
        <ele>172.608</ele>
        <time>2020-10-17T17:52:48Z</time>
      </trkpt>
      <trkpt lat="42.255970" lon="2.827721">
        <ele>171.866</ele>
        <time>2020-10-17T17:52:49Z</time>
      </trkpt>
      <trkpt lat="42.255915" lon="2.827665">
        <ele>170.619</ele>
        <time>2020-10-17T17:52:51Z</time>
      </trkpt>
      <trkpt lat="42.255847" lon="2.827646">
        <ele>169.248</ele>
        <time>2020-10-17T17:52:53Z</time>
      </trkpt>
      <trkpt lat="42.255797" lon="2.827655">
        <ele>168.217</ele>
        <time>2020-10-17T17:52:54Z</time>
      </trkpt>
      <trkpt lat="42.255687" lon="2.827696">
        <ele>167.146</ele>
        <time>2020-10-17T17:52:56Z</time>
      </trkpt>
      <trkpt lat="42.255626" lon="2.827716">
        <ele>166.384</ele>
        <time>2020-10-17T17:52:57Z</time>
      </trkpt>
      <trkpt lat="42.255560" lon="2.827731">
        <ele>165.664</ele>
        <time>2020-10-17T17:52:58Z</time>
      </trkpt>
      <trkpt lat="42.255424" lon="2.827754">
        <ele>164.729</ele>
        <time>2020-10-17T17:53:00Z</time>
      </trkpt>
      <trkpt lat="42.255361" lon="2.827773">
        <ele>163.929</ele>
        <time>2020-10-17T17:53:01Z</time>
      </trkpt>
      <trkpt lat="42.255302" lon="2.827800">
        <ele>163.200</ele>
        <time>2020-10-17T17:53:02Z</time>
      </trkpt>
      <trkpt lat="42.255192" lon="2.827875">
        <ele>162.420</ele>
        <time>2020-10-17T17:53:04Z</time>
      </trkpt>
      <trkpt lat="42.255138" lon="2.827915">
        <ele>161.708</ele>
        <time>2020-10-17T17:53:05Z</time>
      </trkpt>
      <trkpt lat="42.255083" lon="2.827953">
        <ele>161.117</ele>
        <time>2020-10-17T17:53:06Z</time>
      </trkpt>
      <trkpt lat="42.254982" lon="2.828024">
        <ele>160.280</ele>
        <time>2020-10-17T17:53:08Z</time>
      </trkpt>
      <trkpt lat="42.254889" lon="2.828093">
        <ele>159.129</ele>
        <time>2020-10-17T17:53:10Z</time>
      </trkpt>
      <trkpt lat="42.254850" lon="2.828135">
        <ele>158.238</ele>
        <time>2020-10-17T17:53:11Z</time>
      </trkpt>
      <trkpt lat="42.254817" lon="2.828190">
        <ele>157.377</ele>
        <time>2020-10-17T17:53:12Z</time>
      </trkpt>
      <trkpt lat="42.254764" lon="2.828340">
        <ele>156.615</ele>
        <time>2020-10-17T17:53:14Z</time>
      </trkpt>
      <trkpt lat="42.254748" lon="2.828432">
        <ele>156.175</ele>
        <time>2020-10-17T17:53:15Z</time>
      </trkpt>
      <trkpt lat="42.254735" lon="2.828527">
        <ele>155.750</ele>
        <time>2020-10-17T17:53:16Z</time>
      </trkpt>
      <trkpt lat="42.254719" lon="2.828618">
        <ele>155.376</ele>
        <time>2020-10-17T17:53:17Z</time>
      </trkpt>
      <trkpt lat="42.254676" lon="2.828754">
        <ele>154.890</ele>
        <time>2020-10-17T17:53:19Z</time>
      </trkpt>
      <trkpt lat="42.254634" lon="2.828825">
        <ele>154.119</ele>
        <time>2020-10-17T17:53:21Z</time>
      </trkpt>
      <trkpt lat="42.254598" lon="2.828898">
        <ele>153.208</ele>
        <time>2020-10-17T17:53:23Z</time>
      </trkpt>
      <trkpt lat="42.254538" lon="2.828954">
        <ele>152.282</ele>
        <time>2020-10-17T17:53:25Z</time>
      </trkpt>
      <trkpt lat="42.254476" lon="2.828954">
        <ele>151.025</ele>
        <time>2020-10-17T17:53:27Z</time>
      </trkpt>
      <trkpt lat="42.254391" lon="2.828924">
        <ele>149.944</ele>
        <time>2020-10-17T17:53:29Z</time>
      </trkpt>
      <trkpt lat="42.254289" lon="2.828895">
        <ele>148.713</ele>
        <time>2020-10-17T17:53:31Z</time>
      </trkpt>
      <trkpt lat="42.254186" lon="2.828856">
        <ele>147.672</ele>
        <time>2020-10-17T17:53:33Z</time>
      </trkpt>
      <trkpt lat="42.254136" lon="2.828831">
        <ele>146.830</ele>
        <time>2020-10-17T17:53:34Z</time>
      </trkpt>
      <trkpt lat="42.254038" lon="2.828769">
        <ele>146.050</ele>
        <time>2020-10-17T17:53:36Z</time>
      </trkpt>
      <trkpt lat="42.253951" lon="2.828695">
        <ele>145.485</ele>
        <time>2020-10-17T17:53:38Z</time>
      </trkpt>
      <trkpt lat="42.253878" lon="2.828605">
        <ele>144.947</ele>
        <time>2020-10-17T17:53:40Z</time>
      </trkpt>
      <trkpt lat="42.253856" lon="2.828512">
        <ele>144.429</ele>
        <time>2020-10-17T17:53:42Z</time>
      </trkpt>
      <trkpt lat="42.253866" lon="2.828422">
        <ele>144.021</ele>
        <time>2020-10-17T17:53:44Z</time>
      </trkpt>
      <trkpt lat="42.253898" lon="2.828337">
        <ele>143.708</ele>
        <time>2020-10-17T17:53:46Z</time>
      </trkpt>
      <trkpt lat="42.253898" lon="2.828274">
        <ele>143.289</ele>
        <time>2020-10-17T17:53:49Z</time>
      </trkpt>
      <trkpt lat="42.253826" lon="2.828229">
        <ele>142.222</ele>
        <time>2020-10-17T17:53:51Z</time>
      </trkpt>
      <trkpt lat="42.253749" lon="2.828186">
        <ele>141.111</ele>
        <time>2020-10-17T17:53:53Z</time>
      </trkpt>
      <trkpt lat="42.253654" lon="2.828110">
        <ele>139.830</ele>
        <time>2020-10-17T17:53:55Z</time>
      </trkpt>
      <trkpt lat="42.253536" lon="2.828035">
        <ele>138.629</ele>
        <time>2020-10-17T17:53:57Z</time>
      </trkpt>
      <trkpt lat="42.253488" lon="2.828004">
        <ele>137.857</ele>
        <time>2020-10-17T17:53:58Z</time>
      </trkpt>
      <trkpt lat="42.253445" lon="2.827965">
        <ele>137.257</ele>
        <time>2020-10-17T17:53:59Z</time>
      </trkpt>
      <trkpt lat="42.253375" lon="2.827868">
        <ele>136.472</ele>
        <time>2020-10-17T17:54:01Z</time>
      </trkpt>
      <trkpt lat="42.253314" lon="2.827758">
        <ele>135.534</ele>
        <time>2020-10-17T17:54:03Z</time>
      </trkpt>
      <trkpt lat="42.253281" lon="2.827699">
        <ele>134.855</ele>
        <time>2020-10-17T17:54:04Z</time>
      </trkpt>
      <trkpt lat="42.253246" lon="2.827639">
        <ele>134.210</ele>
        <time>2020-10-17T17:54:05Z</time>
      </trkpt>
      <trkpt lat="42.253185" lon="2.827533">
        <ele>133.608</ele>
        <time>2020-10-17T17:54:07Z</time>
      </trkpt>
      <trkpt lat="42.253152" lon="2.827453">
        <ele>133.078</ele>
        <time>2020-10-17T17:54:09Z</time>
      </trkpt>
      <trkpt lat="42.253119" lon="2.827348">
        <ele>132.471</ele>
        <time>2020-10-17T17:54:11Z</time>
      </trkpt>
      <trkpt lat="42.253073" lon="2.827215">
        <ele>131.930</ele>
        <time>2020-10-17T17:54:13Z</time>
      </trkpt>
      <trkpt lat="42.253029" lon="2.827132">
        <ele>131.559</ele>
        <time>2020-10-17T17:54:15Z</time>
      </trkpt>
      <trkpt lat="42.252962" lon="2.827044">
        <ele>131.218</ele>
        <time>2020-10-17T17:54:17Z</time>
      </trkpt>
      <trkpt lat="42.252908" lon="2.826985">
        <ele>130.996</ele>
        <time>2020-10-17T17:54:18Z</time>
      </trkpt>
      <trkpt lat="42.252844" lon="2.826923">
        <ele>130.876</ele>
        <time>2020-10-17T17:54:19Z</time>
      </trkpt>
      <trkpt lat="42.252779" lon="2.826859">
        <ele>130.861</ele>
        <time>2020-10-17T17:54:20Z</time>
      </trkpt>
      <trkpt lat="42.252716" lon="2.826798">
        <ele>130.753</ele>
        <time>2020-10-17T17:54:21Z</time>
      </trkpt>
      <trkpt lat="42.252606" lon="2.826684">
        <ele>130.504</ele>
        <time>2020-10-17T17:54:23Z</time>
      </trkpt>
      <trkpt lat="42.252524" lon="2.826596">
        <ele>130.114</ele>
        <time>2020-10-17T17:54:25Z</time>
      </trkpt>
      <trkpt lat="42.252459" lon="2.826533">
        <ele>129.708</ele>
        <time>2020-10-17T17:54:27Z</time>
      </trkpt>
      <trkpt lat="42.252387" lon="2.826480">
        <ele>129.330</ele>
        <time>2020-10-17T17:54:29Z</time>
      </trkpt>
      <trkpt lat="42.252339" lon="2.826450">
        <ele>128.923</ele>
        <time>2020-10-17T17:54:30Z</time>
      </trkpt>
      <trkpt lat="42.252283" lon="2.826421">
        <ele>128.672</ele>
        <time>2020-10-17T17:54:31Z</time>
      </trkpt>
      <trkpt lat="42.252147" lon="2.826361">
        <ele>128.291</ele>
        <time>2020-10-17T17:54:33Z</time>
      </trkpt>
      <trkpt lat="42.251999" lon="2.826297">
        <ele>127.750</ele>
        <time>2020-10-17T17:54:35Z</time>
      </trkpt>
      <trkpt lat="42.251925" lon="2.826261">
        <ele>127.368</ele>
        <time>2020-10-17T17:54:36Z</time>
      </trkpt>
      <trkpt lat="42.251785" lon="2.826180">
        <ele>126.788</ele>
        <time>2020-10-17T17:54:38Z</time>
      </trkpt>
      <trkpt lat="42.251722" lon="2.826138">
        <ele>126.353</ele>
        <time>2020-10-17T17:54:39Z</time>
      </trkpt>
      <trkpt lat="42.251665" lon="2.826098">
        <ele>125.954</ele>
        <time>2020-10-17T17:54:40Z</time>
      </trkpt>
      <trkpt lat="42.251567" lon="2.826029">
        <ele>125.456</ele>
        <time>2020-10-17T17:54:42Z</time>
      </trkpt>
      <trkpt lat="42.251520" lon="2.825998">
        <ele>124.911</ele>
        <time>2020-10-17T17:54:43Z</time>
      </trkpt>
      <trkpt lat="42.251424" lon="2.825932">
        <ele>124.208</ele>
        <time>2020-10-17T17:54:45Z</time>
      </trkpt>
      <trkpt lat="42.251333" lon="2.825869">
        <ele>123.310</ele>
        <time>2020-10-17T17:54:47Z</time>
      </trkpt>
      <trkpt lat="42.251236" lon="2.825812">
        <ele>122.433</ele>
        <time>2020-10-17T17:54:49Z</time>
      </trkpt>
      <trkpt lat="42.251127" lon="2.825761">
        <ele>121.582</ele>
        <time>2020-10-17T17:54:51Z</time>
      </trkpt>
      <trkpt lat="42.251079" lon="2.825738">
        <ele>120.811</ele>
        <time>2020-10-17T17:54:52Z</time>
      </trkpt>
      <trkpt lat="42.251034" lon="2.825686">
        <ele>120.020</ele>
        <time>2020-10-17T17:54:55Z</time>
      </trkpt>
      <trkpt lat="42.251015" lon="2.825618">
        <ele>119.288</ele>
        <time>2020-10-17T17:54:58Z</time>
      </trkpt>
      <trkpt lat="42.250983" lon="2.825560">
        <ele>118.638</ele>
        <time>2020-10-17T17:55:00Z</time>
      </trkpt>
      <trkpt lat="42.250952" lon="2.825500">
        <ele>117.933</ele>
        <time>2020-10-17T17:55:02Z</time>
      </trkpt>
      <trkpt lat="42.250917" lon="2.825440">
        <ele>117.279</ele>
        <time>2020-10-17T17:55:04Z</time>
      </trkpt>
      <trkpt lat="42.250877" lon="2.825366">
        <ele>116.505</ele>
        <time>2020-10-17T17:55:06Z</time>
      </trkpt>
      <trkpt lat="42.250836" lon="2.825292">
        <ele>115.825</ele>
        <time>2020-10-17T17:55:08Z</time>
      </trkpt>
      <trkpt lat="42.250793" lon="2.825220">
        <ele>115.208</ele>
        <time>2020-10-17T17:55:10Z</time>
      </trkpt>
      <trkpt lat="42.250743" lon="2.825147">
        <ele>114.762</ele>
        <time>2020-10-17T17:55:12Z</time>
      </trkpt>
      <trkpt lat="42.250720" lon="2.825068">
        <ele>114.185</ele>
        <time>2020-10-17T17:55:14Z</time>
      </trkpt>
      <trkpt lat="42.250723" lon="2.824982">
        <ele>113.514</ele>
        <time>2020-10-17T17:55:16Z</time>
      </trkpt>
      <trkpt lat="42.250718" lon="2.824913">
        <ele>113.053</ele>
        <time>2020-10-17T17:55:18Z</time>
      </trkpt>
      <trkpt lat="42.250691" lon="2.824830">
        <ele>112.442</ele>
        <time>2020-10-17T17:55:21Z</time>
      </trkpt>
      <trkpt lat="42.250664" lon="2.824755">
        <ele>111.870</ele>
        <time>2020-10-17T17:55:23Z</time>
      </trkpt>
      <trkpt lat="42.250636" lon="2.824624">
        <ele>111.270</ele>
        <time>2020-10-17T17:55:25Z</time>
      </trkpt>
      <trkpt lat="42.250652" lon="2.824520">
        <ele>110.765</ele>
        <time>2020-10-17T17:55:27Z</time>
      </trkpt>
      <trkpt lat="42.250670" lon="2.824424">
        <ele>110.399</ele>
        <time>2020-10-17T17:55:29Z</time>
      </trkpt>
      <trkpt lat="42.250662" lon="2.824324">
        <ele>110.207</ele>
        <time>2020-10-17T17:55:31Z</time>
      </trkpt>
      <trkpt lat="42.250621" lon="2.824239">
        <ele>110.327</ele>
        <time>2020-10-17T17:55:33Z</time>
      </trkpt>
      <trkpt lat="42.250580" lon="2.824163">
        <ele>110.008</ele>
        <time>2020-10-17T17:55:35Z</time>
      </trkpt>
      <trkpt lat="42.250546" lon="2.824088">
        <ele>109.794</ele>
        <time>2020-10-17T17:55:37Z</time>
      </trkpt>
      <trkpt lat="42.250507" lon="2.824011">
        <ele>109.267</ele>
        <time>2020-10-17T17:55:39Z</time>
      </trkpt>
      <trkpt lat="42.250482" lon="2.823951">
        <ele>108.986</ele>
        <time>2020-10-17T17:55:40Z</time>
      </trkpt>
      <trkpt lat="42.250462" lon="2.823849">
        <ele>108.935</ele>
        <time>2020-10-17T17:55:42Z</time>
      </trkpt>
      <trkpt lat="42.250448" lon="2.823753">
        <ele>109.054</ele>
        <time>2020-10-17T17:55:44Z</time>
      </trkpt>
      <trkpt lat="42.250446" lon="2.823683">
        <ele>109.312</ele>
        <time>2020-10-17T17:55:45Z</time>
      </trkpt>
      <trkpt lat="42.250465" lon="2.823598">
        <ele>109.792</ele>
        <time>2020-10-17T17:55:48Z</time>
      </trkpt>
      <trkpt lat="42.250471" lon="2.823532">
        <ele>110.067</ele>
        <time>2020-10-17T17:55:50Z</time>
      </trkpt>
      <trkpt lat="42.250469" lon="2.823447">
        <ele>110.421</ele>
        <time>2020-10-17T17:55:52Z</time>
      </trkpt>
      <trkpt lat="42.250438" lon="2.823382">
        <ele>110.841</ele>
        <time>2020-10-17T17:55:55Z</time>
      </trkpt>
      <trkpt lat="42.250411" lon="2.823313">
        <ele>111.105</ele>
        <time>2020-10-17T17:55:57Z</time>
      </trkpt>
      <trkpt lat="42.250395" lon="2.823247">
        <ele>111.408</ele>
        <time>2020-10-17T17:55:58Z</time>
      </trkpt>
      <trkpt lat="42.250377" lon="2.823165">
        <ele>111.717</ele>
        <time>2020-10-17T17:56:00Z</time>
      </trkpt>
      <trkpt lat="42.250360" lon="2.823092">
        <ele>112.390</ele>
        <time>2020-10-17T17:56:01Z</time>
      </trkpt>
      <trkpt lat="42.250339" lon="2.823020">
        <ele>113.089</ele>
        <time>2020-10-17T17:56:04Z</time>
      </trkpt>
      <trkpt lat="42.250316" lon="2.822938">
        <ele>113.848</ele>
        <time>2020-10-17T17:56:06Z</time>
      </trkpt>
      <trkpt lat="42.250294" lon="2.822849">
        <ele>114.867</ele>
        <time>2020-10-17T17:56:08Z</time>
      </trkpt>
      <trkpt lat="42.250279" lon="2.822778">
        <ele>116.145</ele>
        <time>2020-10-17T17:56:10Z</time>
      </trkpt>
      <trkpt lat="42.250254" lon="2.822684">
        <ele>117.565</ele>
        <time>2020-10-17T17:56:12Z</time>
      </trkpt>
      <trkpt lat="42.250241" lon="2.822586">
        <ele>119.840</ele>
        <time>2020-10-17T17:56:14Z</time>
      </trkpt>
      <trkpt lat="42.250219" lon="2.822460">
        <ele>122.541</ele>
        <time>2020-10-17T17:56:16Z</time>
      </trkpt>
      <trkpt lat="42.250211" lon="2.822375">
        <ele>125.381</ele>
        <time>2020-10-17T17:56:18Z</time>
      </trkpt>
      <trkpt lat="42.250194" lon="2.822298">
        <ele>127.909</ele>
        <time>2020-10-17T17:56:20Z</time>
      </trkpt>
      <trkpt lat="42.250175" lon="2.822238">
        <ele>129.808</ele>
        <time>2020-10-17T17:56:21Z</time>
      </trkpt>
      <trkpt lat="42.250144" lon="2.822157">
        <ele>131.719</ele>
        <time>2020-10-17T17:56:23Z</time>
      </trkpt>
      <trkpt lat="42.250123" lon="2.822091">
        <ele>133.142</ele>
        <time>2020-10-17T17:56:25Z</time>
      </trkpt>
      <trkpt lat="42.250096" lon="2.822017">
        <ele>134.571</ele>
        <time>2020-10-17T17:56:26Z</time>
      </trkpt>
      <trkpt lat="42.249873" lon="2.821586">
        <ele>138.030</ele>
        <time>2020-10-17T17:56:35Z</time>
      </trkpt>
      <trkpt lat="42.249820" lon="2.821485">
        <ele>140.469</ele>
        <time>2020-10-17T17:56:37Z</time>
      </trkpt>
      <trkpt lat="42.249790" lon="2.821422">
        <ele>141.947</ele>
        <time>2020-10-17T17:56:38Z</time>
      </trkpt>
      <trkpt lat="42.249719" lon="2.821279">
        <ele>143.147</ele>
        <time>2020-10-17T17:56:40Z</time>
      </trkpt>
      <trkpt lat="42.249680" lon="2.821204">
        <ele>143.932</ele>
        <time>2020-10-17T17:56:41Z</time>
      </trkpt>
      <trkpt lat="42.249642" lon="2.821131">
        <ele>144.592</ele>
        <time>2020-10-17T17:56:42Z</time>
      </trkpt>
      <trkpt lat="42.249567" lon="2.820993">
        <ele>145.173</ele>
        <time>2020-10-17T17:56:44Z</time>
      </trkpt>
      <trkpt lat="42.249532" lon="2.820930">
        <ele>145.620</ele>
        <time>2020-10-17T17:56:45Z</time>
      </trkpt>
      <trkpt lat="42.249499" lon="2.820870">
        <ele>146.108</ele>
        <time>2020-10-17T17:56:46Z</time>
      </trkpt>
      <trkpt lat="42.249438" lon="2.820757">
        <ele>146.884</ele>
        <time>2020-10-17T17:56:48Z</time>
      </trkpt>
      <trkpt lat="42.249384" lon="2.820654">
        <ele>147.617</ele>
        <time>2020-10-17T17:56:50Z</time>
      </trkpt>
      <trkpt lat="42.249341" lon="2.820574">
        <ele>148.656</ele>
        <time>2020-10-17T17:56:52Z</time>
      </trkpt>
      <trkpt lat="42.249289" lon="2.820489">
        <ele>149.795</ele>
        <time>2020-10-17T17:56:54Z</time>
      </trkpt>
      <trkpt lat="42.249244" lon="2.820420">
        <ele>150.684</ele>
        <time>2020-10-17T17:56:56Z</time>
      </trkpt>
      <trkpt lat="42.249214" lon="2.820345">
        <ele>151.652</ele>
        <time>2020-10-17T17:56:57Z</time>
      </trkpt>
      <trkpt lat="42.249213" lon="2.820231">
        <ele>152.792</ele>
        <time>2020-10-17T17:56:59Z</time>
      </trkpt>
      <trkpt lat="42.249225" lon="2.820164">
        <ele>153.697</ele>
        <time>2020-10-17T17:57:00Z</time>
      </trkpt>
      <trkpt lat="42.249245" lon="2.820098">
        <ele>154.367</ele>
        <time>2020-10-17T17:57:01Z</time>
      </trkpt>
      <trkpt lat="42.249298" lon="2.819958">
        <ele>155.181</ele>
        <time>2020-10-17T17:57:03Z</time>
      </trkpt>
      <trkpt lat="42.249337" lon="2.819832">
        <ele>155.919</ele>
        <time>2020-10-17T17:57:05Z</time>
      </trkpt>
      <trkpt lat="42.249348" lon="2.819752">
        <ele>156.508</ele>
        <time>2020-10-17T17:57:07Z</time>
      </trkpt>
      <trkpt lat="42.249351" lon="2.819689">
        <ele>157.041</ele>
        <time>2020-10-17T17:57:08Z</time>
      </trkpt>
      <trkpt lat="42.249349" lon="2.819609">
        <ele>157.544</ele>
        <time>2020-10-17T17:57:09Z</time>
      </trkpt>
      <trkpt lat="42.249343" lon="2.819548">
        <ele>157.963</ele>
        <time>2020-10-17T17:57:10Z</time>
      </trkpt>
      <trkpt lat="42.249329" lon="2.819455">
        <ele>158.212</ele>
        <time>2020-10-17T17:57:12Z</time>
      </trkpt>
      <trkpt lat="42.249303" lon="2.819377">
        <ele>158.741</ele>
        <time>2020-10-17T17:57:14Z</time>
      </trkpt>
      <trkpt lat="42.249263" lon="2.819320">
        <ele>159.129</ele>
        <time>2020-10-17T17:57:15Z</time>
      </trkpt>
      <trkpt lat="42.249176" lon="2.819292">
        <ele>160.019</ele>
        <time>2020-10-17T17:57:17Z</time>
      </trkpt>
      <trkpt lat="42.249125" lon="2.819273">
        <ele>160.654</ele>
        <time>2020-10-17T17:57:18Z</time>
      </trkpt>
      <trkpt lat="42.249023" lon="2.819179">
        <ele>161.252</ele>
        <time>2020-10-17T17:57:20Z</time>
      </trkpt>
      <trkpt lat="42.248984" lon="2.819099">
        <ele>161.653</ele>
        <time>2020-10-17T17:57:21Z</time>
      </trkpt>
      <trkpt lat="42.248959" lon="2.819008">
        <ele>161.908</ele>
        <time>2020-10-17T17:57:22Z</time>
      </trkpt>
      <trkpt lat="42.248946" lon="2.818911">
        <ele>162.208</ele>
        <time>2020-10-17T17:57:23Z</time>
      </trkpt>
      <trkpt lat="42.248943" lon="2.818745">
        <ele>162.740</ele>
        <time>2020-10-17T17:57:25Z</time>
      </trkpt>
      <trkpt lat="42.248935" lon="2.818680">
        <ele>163.213</ele>
        <time>2020-10-17T17:57:26Z</time>
      </trkpt>
      <trkpt lat="42.248894" lon="2.818638">
        <ele>163.792</ele>
        <time>2020-10-17T17:57:28Z</time>
      </trkpt>
      <trkpt lat="42.248852" lon="2.818614">
        <ele>164.061</ele>
        <time>2020-10-17T17:57:30Z</time>
      </trkpt>
      <trkpt lat="42.248803" lon="2.818615">
        <ele>164.220</ele>
        <time>2020-10-17T17:57:31Z</time>
      </trkpt>
      <trkpt lat="42.248725" lon="2.818644">
        <ele>164.568</ele>
        <time>2020-10-17T17:57:32Z</time>
      </trkpt>
      <trkpt lat="42.248627" lon="2.818642">
        <ele>164.828</ele>
        <time>2020-10-17T17:57:34Z</time>
      </trkpt>
      <trkpt lat="42.248573" lon="2.818634">
        <ele>165.163</ele>
        <time>2020-10-17T17:57:36Z</time>
      </trkpt>
      <trkpt lat="42.248510" lon="2.818619">
        <ele>165.517</ele>
        <time>2020-10-17T17:57:38Z</time>
      </trkpt>
      <trkpt lat="42.248438" lon="2.818597">
        <ele>165.987</ele>
        <time>2020-10-17T17:57:40Z</time>
      </trkpt>
      <trkpt lat="42.248393" lon="2.818588">
        <ele>166.215</ele>
        <time>2020-10-17T17:57:41Z</time>
      </trkpt>
      <trkpt lat="42.248338" lon="2.818579">
        <ele>166.608</ele>
        <time>2020-10-17T17:57:42Z</time>
      </trkpt>
      <trkpt lat="42.248271" lon="2.818568">
        <ele>167.056</ele>
        <time>2020-10-17T17:57:44Z</time>
      </trkpt>
      <trkpt lat="42.248190" lon="2.818549">
        <ele>167.559</ele>
        <time>2020-10-17T17:57:45Z</time>
      </trkpt>
      <trkpt lat="42.248137" lon="2.818535">
        <ele>167.988</ele>
        <time>2020-10-17T17:57:46Z</time>
      </trkpt>
      <trkpt lat="42.248084" lon="2.818518">
        <ele>168.317</ele>
        <time>2020-10-17T17:57:47Z</time>
      </trkpt>
      <trkpt lat="42.247987" lon="2.818481">
        <ele>168.966</ele>
        <time>2020-10-17T17:57:49Z</time>
      </trkpt>
      <trkpt lat="42.247943" lon="2.818467">
        <ele>169.474</ele>
        <time>2020-10-17T17:57:50Z</time>
      </trkpt>
      <trkpt lat="42.247887" lon="2.818498">
        <ele>169.884</ele>
        <time>2020-10-17T17:57:52Z</time>
      </trkpt>
      <trkpt lat="42.247840" lon="2.818468">
        <ele>170.239</ele>
        <time>2020-10-17T17:57:53Z</time>
      </trkpt>
      <trkpt lat="42.247803" lon="2.818433">
        <ele>170.538</ele>
        <time>2020-10-17T17:57:54Z</time>
      </trkpt>
      <trkpt lat="42.247762" lon="2.818394">
        <ele>170.970</ele>
        <time>2020-10-17T17:57:56Z</time>
      </trkpt>
      <trkpt lat="42.247715" lon="2.818407">
        <ele>171.217</ele>
        <time>2020-10-17T17:57:58Z</time>
      </trkpt>
      <trkpt lat="42.247752" lon="2.818479">
        <ele>171.308</ele>
        <time>2020-10-17T17:58:02Z</time>
      </trkpt>
      <trkpt lat="42.247804" lon="2.818465">
        <ele>171.438</ele>
        <time>2020-10-17T17:58:05Z</time>
      </trkpt>
      <trkpt lat="42.247784" lon="2.818558">
        <ele>171.371</ele>
        <time>2020-10-17T18:00:11Z</time>
      </trkpt>
      <trkpt lat="42.247779" lon="2.818633">
        <ele>171.280</ele>
        <time>2020-10-17T18:00:13Z</time>
      </trkpt>
      <trkpt lat="42.247776" lon="2.818702">
        <ele>171.169</ele>
        <time>2020-10-17T18:00:17Z</time>
      </trkpt>
      <trkpt lat="42.247762" lon="2.818761">
        <ele>171.178</ele>
        <time>2020-10-17T18:00:21Z</time>
      </trkpt>
      <trkpt lat="42.247745" lon="2.818836">
        <ele>171.156</ele>
        <time>2020-10-17T18:00:25Z</time>
      </trkpt>
      <trkpt lat="42.247740" lon="2.818900">
        <ele>171.166</ele>
        <time>2020-10-17T18:00:26Z</time>
      </trkpt>
      <trkpt lat="42.247738" lon="2.818976">
        <ele>171.181</ele>
        <time>2020-10-17T18:00:27Z</time>
      </trkpt>
      <trkpt lat="42.247738" lon="2.819139">
        <ele>171.056</ele>
        <time>2020-10-17T18:00:29Z</time>
      </trkpt>
      <trkpt lat="42.247738" lon="2.819223">
        <ele>170.959</ele>
        <time>2020-10-17T18:00:30Z</time>
      </trkpt>
      <trkpt lat="42.247737" lon="2.819310">
        <ele>170.714</ele>
        <time>2020-10-17T18:00:31Z</time>
      </trkpt>
      <trkpt lat="42.247727" lon="2.819488">
        <ele>170.408</ele>
        <time>2020-10-17T18:00:33Z</time>
      </trkpt>
      <trkpt lat="42.247721" lon="2.819570">
        <ele>170.220</ele>
        <time>2020-10-17T18:00:34Z</time>
      </trkpt>
      <trkpt lat="42.247734" lon="2.819690">
        <ele>169.853</ele>
        <time>2020-10-17T18:00:36Z</time>
      </trkpt>
      <trkpt lat="42.247771" lon="2.819775">
        <ele>169.432</ele>
        <time>2020-10-17T18:00:38Z</time>
      </trkpt>
      <trkpt lat="42.247773" lon="2.819927">
        <ele>168.971</ele>
        <time>2020-10-17T18:00:40Z</time>
      </trkpt>
      <trkpt lat="42.247705" lon="2.820087">
        <ele>168.450</ele>
        <time>2020-10-17T18:00:42Z</time>
      </trkpt>
      <trkpt lat="42.247665" lon="2.820162">
        <ele>168.028</ele>
        <time>2020-10-17T18:00:43Z</time>
      </trkpt>
      <trkpt lat="42.247588" lon="2.820316">
        <ele>167.598</ele>
        <time>2020-10-17T18:00:45Z</time>
      </trkpt>
      <trkpt lat="42.247521" lon="2.820492">
        <ele>167.023</ele>
        <time>2020-10-17T18:00:47Z</time>
      </trkpt>
      <trkpt lat="42.247441" lon="2.820695">
        <ele>166.664</ele>
        <time>2020-10-17T18:00:49Z</time>
      </trkpt>
      <trkpt lat="42.247395" lon="2.820795">
        <ele>166.306</ele>
        <time>2020-10-17T18:00:50Z</time>
      </trkpt>
      <trkpt lat="42.247294" lon="2.820980">
        <ele>166.016</ele>
        <time>2020-10-17T18:00:52Z</time>
      </trkpt>
      <trkpt lat="42.247248" lon="2.821066">
        <ele>165.808</ele>
        <time>2020-10-17T18:00:53Z</time>
      </trkpt>
      <trkpt lat="42.247180" lon="2.821184">
        <ele>165.461</ele>
        <time>2020-10-17T18:00:55Z</time>
      </trkpt>
      <trkpt lat="42.247140" lon="2.821249">
        <ele>165.064</ele>
        <time>2020-10-17T18:00:57Z</time>
      </trkpt>
      <trkpt lat="42.247088" lon="2.821349">
        <ele>164.553</ele>
        <time>2020-10-17T18:00:59Z</time>
      </trkpt>
      <trkpt lat="42.247026" lon="2.821478">
        <ele>163.972</ele>
        <time>2020-10-17T18:01:01Z</time>
      </trkpt>
      <trkpt lat="42.246998" lon="2.821535">
        <ele>163.511</ele>
        <time>2020-10-17T18:01:02Z</time>
      </trkpt>
      <trkpt lat="42.246968" lon="2.821600">
        <ele>162.989</ele>
        <time>2020-10-17T18:01:04Z</time>
      </trkpt>
      <trkpt lat="42.246956" lon="2.821662">
        <ele>162.249</ele>
        <time>2020-10-17T18:01:06Z</time>
      </trkpt>
      <trkpt lat="42.246943" lon="2.821779">
        <ele>161.594</ele>
        <time>2020-10-17T18:01:08Z</time>
      </trkpt>
      <trkpt lat="42.246925" lon="2.821951">
        <ele>160.731</ele>
        <time>2020-10-17T18:01:10Z</time>
      </trkpt>
      <trkpt lat="42.246919" lon="2.822036">
        <ele>160.061</ele>
        <time>2020-10-17T18:01:11Z</time>
      </trkpt>
      <trkpt lat="42.246914" lon="2.822203">
        <ele>159.207</ele>
        <time>2020-10-17T18:01:13Z</time>
      </trkpt>
      <trkpt lat="42.246910" lon="2.822285">
        <ele>158.508</ele>
        <time>2020-10-17T18:01:14Z</time>
      </trkpt>
      <trkpt lat="42.246901" lon="2.822368">
        <ele>157.938</ele>
        <time>2020-10-17T18:01:15Z</time>
      </trkpt>
      <trkpt lat="42.246885" lon="2.822452">
        <ele>157.441</ele>
        <time>2020-10-17T18:01:16Z</time>
      </trkpt>
      <trkpt lat="42.246846" lon="2.822617">
        <ele>156.720</ele>
        <time>2020-10-17T18:01:18Z</time>
      </trkpt>
      <trkpt lat="42.246829" lon="2.822699">
        <ele>156.129</ele>
        <time>2020-10-17T18:01:19Z</time>
      </trkpt>
      <trkpt lat="42.246825" lon="2.822857">
        <ele>155.368</ele>
        <time>2020-10-17T18:01:21Z</time>
      </trkpt>
      <trkpt lat="42.246830" lon="2.822920">
        <ele>154.516</ele>
        <time>2020-10-17T18:01:22Z</time>
      </trkpt>
      <trkpt lat="42.246823" lon="2.823001">
        <ele>153.496</ele>
        <time>2020-10-17T18:01:25Z</time>
      </trkpt>
      <trkpt lat="42.246793" lon="2.823093">
        <ele>152.321</ele>
        <time>2020-10-17T18:01:27Z</time>
      </trkpt>
      <trkpt lat="42.246771" lon="2.823163">
        <ele>151.576</ele>
        <time>2020-10-17T18:01:28Z</time>
      </trkpt>
      <trkpt lat="42.246746" lon="2.823235">
        <ele>150.890</ele>
        <time>2020-10-17T18:01:29Z</time>
      </trkpt>
      <trkpt lat="42.246683" lon="2.823409">
        <ele>150.119</ele>
        <time>2020-10-17T18:01:31Z</time>
      </trkpt>
      <trkpt lat="42.246614" lon="2.823594">
        <ele>149.508</ele>
        <time>2020-10-17T18:01:33Z</time>
      </trkpt>
      <trkpt lat="42.246590" lon="2.823670">
        <ele>149.152</ele>
        <time>2020-10-17T18:01:34Z</time>
      </trkpt>
      <trkpt lat="42.246574" lon="2.823733">
        <ele>148.765</ele>
        <time>2020-10-17T18:01:35Z</time>
      </trkpt>
      <trkpt lat="42.246622" lon="2.823761">
        <ele>148.174</ele>
        <time>2020-10-17T18:01:40Z</time>
      </trkpt>
      <trkpt lat="42.246671" lon="2.823789">
        <ele>147.663</ele>
        <time>2020-10-17T18:01:42Z</time>
      </trkpt>
      <trkpt lat="42.246742" lon="2.823867">
        <ele>147.442</ele>
        <time>2020-10-17T18:01:44Z</time>
      </trkpt>
      <trkpt lat="42.246824" lon="2.823999">
        <ele>147.470</ele>
        <time>2020-10-17T18:01:46Z</time>
      </trkpt>
      <trkpt lat="42.246900" lon="2.824163">
        <ele>147.720</ele>
        <time>2020-10-17T18:01:48Z</time>
      </trkpt>
      <trkpt lat="42.246934" lon="2.824256">
        <ele>148.015</ele>
        <time>2020-10-17T18:01:49Z</time>
      </trkpt>
      <trkpt lat="42.246965" lon="2.824355">
        <ele>148.465</ele>
        <time>2020-10-17T18:01:50Z</time>
      </trkpt>
      <trkpt lat="42.247016" lon="2.824576">
        <ele>149.268</ele>
        <time>2020-10-17T18:01:52Z</time>
      </trkpt>
      <trkpt lat="42.247043" lon="2.824823">
        <ele>150.214</ele>
        <time>2020-10-17T18:01:54Z</time>
      </trkpt>
      <trkpt lat="42.247051" lon="2.824942">
        <ele>151.108</ele>
        <time>2020-10-17T18:01:55Z</time>
      </trkpt>
      <trkpt lat="42.247060" lon="2.825050">
        <ele>151.821</ele>
        <time>2020-10-17T18:01:56Z</time>
      </trkpt>
      <trkpt lat="42.247083" lon="2.825244">
        <ele>152.514</ele>
        <time>2020-10-17T18:01:58Z</time>
      </trkpt>
      <trkpt lat="42.247098" lon="2.825342">
        <ele>152.933</ele>
        <time>2020-10-17T18:01:59Z</time>
      </trkpt>
      <trkpt lat="42.247120" lon="2.825533">
        <ele>153.212</ele>
        <time>2020-10-17T18:02:01Z</time>
      </trkpt>
      <trkpt lat="42.247122" lon="2.825709">
        <ele>153.521</ele>
        <time>2020-10-17T18:02:03Z</time>
      </trkpt>
      <trkpt lat="42.247115" lon="2.825797">
        <ele>153.689</ele>
        <time>2020-10-17T18:02:04Z</time>
      </trkpt>
      <trkpt lat="42.247099" lon="2.825887">
        <ele>153.689</ele>
        <time>2020-10-17T18:02:05Z</time>
      </trkpt>
      <trkpt lat="42.247081" lon="2.825980">
        <ele>153.584</ele>
        <time>2020-10-17T18:02:06Z</time>
      </trkpt>
      <trkpt lat="42.247044" lon="2.826179">
        <ele>153.188</ele>
        <time>2020-10-17T18:02:08Z</time>
      </trkpt>
      <trkpt lat="42.247008" lon="2.826385">
        <ele>152.524</ele>
        <time>2020-10-17T18:02:10Z</time>
      </trkpt>
      <trkpt lat="42.246959" lon="2.826583">
        <ele>151.826</ele>
        <time>2020-10-17T18:02:12Z</time>
      </trkpt>
      <trkpt lat="42.246937" lon="2.826671">
        <ele>151.208</ele>
        <time>2020-10-17T18:02:13Z</time>
      </trkpt>
      <trkpt lat="42.246925" lon="2.826742">
        <ele>150.743</ele>
        <time>2020-10-17T18:02:14Z</time>
      </trkpt>
      <trkpt lat="42.246946" lon="2.826830">
        <ele>150.176</ele>
        <time>2020-10-17T18:02:16Z</time>
      </trkpt>
      <trkpt lat="42.246984" lon="2.826919">
        <ele>149.415</ele>
        <time>2020-10-17T18:02:18Z</time>
      </trkpt>
      <trkpt lat="42.246970" lon="2.827018">
        <ele>148.774</ele>
        <time>2020-10-17T18:02:20Z</time>
      </trkpt>
      <trkpt lat="42.246945" lon="2.827072">
        <ele>148.213</ele>
        <time>2020-10-17T18:02:21Z</time>
      </trkpt>
      <trkpt lat="42.246895" lon="2.827203">
        <ele>147.691</ele>
        <time>2020-10-17T18:02:23Z</time>
      </trkpt>
      <trkpt lat="42.246885" lon="2.827372">
        <ele>147.051</ele>
        <time>2020-10-17T18:02:25Z</time>
      </trkpt>
      <trkpt lat="42.246890" lon="2.827460">
        <ele>146.666</ele>
        <time>2020-10-17T18:02:26Z</time>
      </trkpt>
      <trkpt lat="42.246909" lon="2.827623">
        <ele>146.291</ele>
        <time>2020-10-17T18:02:28Z</time>
      </trkpt>
      <trkpt lat="42.246925" lon="2.827776">
        <ele>145.781</ele>
        <time>2020-10-17T18:02:30Z</time>
      </trkpt>
      <trkpt lat="42.246940" lon="2.827933">
        <ele>145.219</ele>
        <time>2020-10-17T18:02:32Z</time>
      </trkpt>
      <trkpt lat="42.246946" lon="2.828096">
        <ele>144.608</ele>
        <time>2020-10-17T18:02:34Z</time>
      </trkpt>
      <trkpt lat="42.246943" lon="2.828183">
        <ele>144.194</ele>
        <time>2020-10-17T18:02:35Z</time>
      </trkpt>
      <trkpt lat="42.246923" lon="2.828360">
        <ele>143.627</ele>
        <time>2020-10-17T18:02:37Z</time>
      </trkpt>
      <trkpt lat="42.246909" lon="2.828452">
        <ele>143.296</ele>
        <time>2020-10-17T18:02:38Z</time>
      </trkpt>
      <trkpt lat="42.246868" lon="2.828624">
        <ele>143.075</ele>
        <time>2020-10-17T18:02:40Z</time>
      </trkpt>
      <trkpt lat="42.246824" lon="2.828803">
        <ele>142.834</ele>
        <time>2020-10-17T18:02:42Z</time>
      </trkpt>
      <trkpt lat="42.246778" lon="2.828986">
        <ele>142.552</ele>
        <time>2020-10-17T18:02:44Z</time>
      </trkpt>
      <trkpt lat="42.246749" lon="2.829075">
        <ele>142.332</ele>
        <time>2020-10-17T18:02:45Z</time>
      </trkpt>
      <trkpt lat="42.246714" lon="2.829163">
        <ele>142.137</ele>
        <time>2020-10-17T18:02:46Z</time>
      </trkpt>
      <trkpt lat="42.246622" lon="2.829329">
        <ele>141.722</ele>
        <time>2020-10-17T18:02:48Z</time>
      </trkpt>
      <trkpt lat="42.246574" lon="2.829404">
        <ele>141.362</ele>
        <time>2020-10-17T18:02:49Z</time>
      </trkpt>
      <trkpt lat="42.246487" lon="2.829534">
        <ele>140.808</ele>
        <time>2020-10-17T18:02:51Z</time>
      </trkpt>
      <trkpt lat="42.246403" lon="2.829648">
        <ele>140.408</ele>
        <time>2020-10-17T18:02:53Z</time>
      </trkpt>
      <trkpt lat="42.246361" lon="2.829705">
        <ele>140.267</ele>
        <time>2020-10-17T18:02:54Z</time>
      </trkpt>
      <trkpt lat="42.246267" lon="2.829833">
        <ele>140.010</ele>
        <time>2020-10-17T18:02:56Z</time>
      </trkpt>
      <trkpt lat="42.246216" lon="2.829902">
        <ele>139.889</ele>
        <time>2020-10-17T18:02:57Z</time>
      </trkpt>
      <trkpt lat="42.246169" lon="2.829977">
        <ele>139.688</ele>
        <time>2020-10-17T18:02:58Z</time>
      </trkpt>
      <trkpt lat="42.246092" lon="2.830137">
        <ele>139.427</ele>
        <time>2020-10-17T18:03:00Z</time>
      </trkpt>
      <trkpt lat="42.246037" lon="2.830287">
        <ele>139.215</ele>
        <time>2020-10-17T18:03:02Z</time>
      </trkpt>
      <trkpt lat="42.245984" lon="2.830397">
        <ele>139.155</ele>
        <time>2020-10-17T18:03:04Z</time>
      </trkpt>
      <trkpt lat="42.245911" lon="2.830474">
        <ele>139.120</ele>
        <time>2020-10-17T18:03:06Z</time>
      </trkpt>
      <trkpt lat="42.245864" lon="2.830511">
        <ele>139.127</ele>
        <time>2020-10-17T18:03:07Z</time>
      </trkpt>
      <trkpt lat="42.245810" lon="2.830553">
        <ele>139.168</ele>
        <time>2020-10-17T18:03:08Z</time>
      </trkpt>
      <trkpt lat="42.245747" lon="2.830592">
        <ele>139.114</ele>
        <time>2020-10-17T18:03:09Z</time>
      </trkpt>
      <trkpt lat="42.245611" lon="2.830667">
        <ele>139.108</ele>
        <time>2020-10-17T18:03:11Z</time>
      </trkpt>
      <trkpt lat="42.245476" lon="2.830738">
        <ele>139.167</ele>
        <time>2020-10-17T18:03:13Z</time>
      </trkpt>
      <trkpt lat="42.245356" lon="2.830805">
        <ele>139.070</ele>
        <time>2020-10-17T18:03:15Z</time>
      </trkpt>
      <trkpt lat="42.245299" lon="2.830839">
        <ele>138.959</ele>
        <time>2020-10-17T18:03:16Z</time>
      </trkpt>
      <trkpt lat="42.245245" lon="2.830876">
        <ele>138.988</ele>
        <time>2020-10-17T18:03:17Z</time>
      </trkpt>
      <trkpt lat="42.245193" lon="2.830914">
        <ele>138.847</ele>
        <time>2020-10-17T18:03:18Z</time>
      </trkpt>
      <trkpt lat="42.245089" lon="2.830976">
        <ele>138.655</ele>
        <time>2020-10-17T18:03:20Z</time>
      </trkpt>
      <trkpt lat="42.245035" lon="2.830993">
        <ele>138.475</ele>
        <time>2020-10-17T18:03:21Z</time>
      </trkpt>
      <trkpt lat="42.244919" lon="2.831007">
        <ele>138.190</ele>
        <time>2020-10-17T18:03:23Z</time>
      </trkpt>
      <trkpt lat="42.244865" lon="2.831014">
        <ele>137.937</ele>
        <time>2020-10-17T18:03:24Z</time>
      </trkpt>
      <trkpt lat="42.244756" lon="2.831039">
        <ele>137.749</ele>
        <time>2020-10-17T18:03:26Z</time>
      </trkpt>
      <trkpt lat="42.244648" lon="2.831064">
        <ele>137.513</ele>
        <time>2020-10-17T18:03:28Z</time>
      </trkpt>
      <trkpt lat="42.244595" lon="2.831068">
        <ele>137.408</ele>
        <time>2020-10-17T18:03:29Z</time>
      </trkpt>
      <trkpt lat="42.244493" lon="2.831067">
        <ele>137.338</ele>
        <time>2020-10-17T18:03:31Z</time>
      </trkpt>
      <trkpt lat="42.244443" lon="2.831067">
        <ele>137.291</ele>
        <time>2020-10-17T18:03:32Z</time>
      </trkpt>
      <trkpt lat="42.244354" lon="2.831083">
        <ele>137.140</ele>
        <time>2020-10-17T18:03:34Z</time>
      </trkpt>
      <trkpt lat="42.244313" lon="2.831145">
        <ele>137.049</ele>
        <time>2020-10-17T18:03:36Z</time>
      </trkpt>
      <trkpt lat="42.244295" lon="2.831218">
        <ele>136.998</ele>
        <time>2020-10-17T18:03:38Z</time>
      </trkpt>
      <trkpt lat="42.244321" lon="2.831269">
        <ele>136.826</ele>
        <time>2020-10-17T18:03:40Z</time>
      </trkpt>
      <trkpt lat="42.244365" lon="2.831304">
        <ele>136.776</ele>
        <time>2020-10-17T18:03:41Z</time>
      </trkpt>
      <trkpt lat="42.244403" lon="2.831349">
        <ele>136.611</ele>
        <time>2020-10-17T18:03:42Z</time>
      </trkpt>
      <trkpt lat="42.244513" lon="2.831484">
        <ele>136.361</ele>
        <time>2020-10-17T18:03:44Z</time>
      </trkpt>
      <trkpt lat="42.244571" lon="2.831561">
        <ele>136.021</ele>
        <time>2020-10-17T18:03:45Z</time>
      </trkpt>
      <trkpt lat="42.244689" lon="2.831740">
        <ele>135.813</ele>
        <time>2020-10-17T18:03:47Z</time>
      </trkpt>
      <trkpt lat="42.244803" lon="2.831901">
        <ele>135.608</ele>
        <time>2020-10-17T18:03:49Z</time>
      </trkpt>
      <trkpt lat="42.244856" lon="2.831974">
        <ele>135.481</ele>
        <time>2020-10-17T18:03:50Z</time>
      </trkpt>
      <trkpt lat="42.244988" lon="2.832109">
        <ele>135.264</ele>
        <time>2020-10-17T18:03:52Z</time>
      </trkpt>
      <trkpt lat="42.245051" lon="2.832163">
        <ele>135.013</ele>
        <time>2020-10-17T18:03:53Z</time>
      </trkpt>
      <trkpt lat="42.245099" lon="2.832198">
        <ele>134.762</ele>
        <time>2020-10-17T18:03:54Z</time>
      </trkpt>
      <trkpt lat="42.245155" lon="2.832211">
        <ele>133.961</ele>
        <time>2020-10-17T18:03:57Z</time>
      </trkpt>
      <trkpt lat="42.245183" lon="2.832258">
        <ele>133.789</ele>
        <time>2020-10-17T18:03:59Z</time>
      </trkpt>
      <trkpt lat="42.245168" lon="2.832319">
        <ele>134.079</ele>
        <time>2020-10-17T18:04:01Z</time>
      </trkpt>
      <trkpt lat="42.245163" lon="2.832249">
        <ele>135.574</ele>
        <time>2020-10-17T18:04:09Z</time>
      </trkpt>
      <trkpt lat="42.245095" lon="2.832218">
        <ele>137.212</ele>
        <time>2020-10-17T18:04:11Z</time>
      </trkpt>
      <trkpt lat="42.245010" lon="2.832175">
        <ele>138.632</ele>
        <time>2020-10-17T18:04:13Z</time>
      </trkpt>
      <trkpt lat="42.244936" lon="2.832162">
        <ele>139.805</ele>
        <time>2020-10-17T18:04:15Z</time>
      </trkpt>
      <trkpt lat="42.244863" lon="2.832165">
        <ele>140.708</ele>
        <time>2020-10-17T18:04:17Z</time>
      </trkpt>
      <trkpt lat="42.244815" lon="2.832155">
        <ele>141.316</ele>
        <time>2020-10-17T18:04:18Z</time>
      </trkpt>
      <trkpt lat="42.244704" lon="2.832123">
        <ele>141.849</ele>
        <time>2020-10-17T18:04:20Z</time>
      </trkpt>
      <trkpt lat="42.244591" lon="2.832085">
        <ele>142.278</ele>
        <time>2020-10-17T18:04:22Z</time>
      </trkpt>
      <trkpt lat="42.244495" lon="2.832052">
        <ele>142.797</ele>
        <time>2020-10-17T18:04:24Z</time>
      </trkpt>
      <trkpt lat="42.244450" lon="2.832043">
        <ele>143.116</ele>
        <time>2020-10-17T18:04:25Z</time>
      </trkpt>
      <trkpt lat="42.244384" lon="2.832055">
        <ele>143.514</ele>
        <time>2020-10-17T18:04:27Z</time>
      </trkpt>
      <trkpt lat="42.244302" lon="2.832098">
        <ele>143.934</ele>
        <time>2020-10-17T18:04:29Z</time>
      </trkpt>
      <trkpt lat="42.244302" lon="2.832098">
        <ele>143.999</ele>
        <time>2020-10-17T18:04:29Z</time>
      </trkpt>
      <trkpt lat="42.244215" lon="2.832195">
        <ele>144.331</ele>
        <time>2020-10-17T18:04:31Z</time>
      </trkpt>
      <trkpt lat="42.244146" lon="2.832334">
        <ele>144.961</ele>
        <time>2020-10-17T18:04:33Z</time>
      </trkpt>
      <trkpt lat="42.244118" lon="2.832402">
        <ele>145.407</ele>
        <time>2020-10-17T18:04:34Z</time>
      </trkpt>
      <trkpt lat="42.244090" lon="2.832460">
        <ele>145.708</ele>
        <time>2020-10-17T18:04:35Z</time>
      </trkpt>
      <trkpt lat="42.244043" lon="2.832528">
        <ele>146.078</ele>
        <time>2020-10-17T18:04:37Z</time>
      </trkpt>
      <trkpt lat="42.243961" lon="2.832543">
        <ele>146.661</ele>
        <time>2020-10-17T18:05:28Z</time>
      </trkpt>
      <trkpt lat="42.243888" lon="2.832618">
        <ele>147.160</ele>
        <time>2020-10-17T18:05:30Z</time>
      </trkpt>
      <trkpt lat="42.243848" lon="2.832651">
        <ele>147.499</ele>
        <time>2020-10-17T18:05:31Z</time>
      </trkpt>
      <trkpt lat="42.243660" lon="2.832781">
        <ele>148.628</ele>
        <time>2020-10-17T18:05:35Z</time>
      </trkpt>
      <trkpt lat="42.243660" lon="2.832781">
        <ele>148.646</ele>
        <time>2020-10-17T18:05:35Z</time>
      </trkpt>
      <trkpt lat="42.243660" lon="2.832781">
        <ele>148.636</ele>
        <time>2020-10-17T18:05:35Z</time>
      </trkpt>
      <trkpt lat="42.243607" lon="2.832811">
        <ele>148.931</ele>
        <time>2020-10-17T18:05:36Z</time>
      </trkpt>
      <trkpt lat="42.243555" lon="2.832845">
        <ele>149.266</ele>
        <time>2020-10-17T18:05:37Z</time>
      </trkpt>
      <trkpt lat="42.243470" lon="2.832923">
        <ele>149.629</ele>
        <time>2020-10-17T18:05:39Z</time>
      </trkpt>
      <trkpt lat="42.243396" lon="2.833022">
        <ele>150.121</ele>
        <time>2020-10-17T18:05:41Z</time>
      </trkpt>
      <trkpt lat="42.243353" lon="2.833075">
        <ele>150.608</ele>
        <time>2020-10-17T18:05:42Z</time>
      </trkpt>
      <trkpt lat="42.243256" lon="2.833182">
        <ele>151.531</ele>
        <time>2020-10-17T18:05:44Z</time>
      </trkpt>
      <trkpt lat="42.243201" lon="2.833238">
        <ele>152.324</ele>
        <time>2020-10-17T18:05:45Z</time>
      </trkpt>
      <trkpt lat="42.243143" lon="2.833293">
        <ele>152.923</ele>
        <time>2020-10-17T18:05:46Z</time>
      </trkpt>
      <trkpt lat="42.242881" lon="2.833486">
        <ele>155.092</ele>
        <time>2020-10-17T18:05:50Z</time>
      </trkpt>
      <trkpt lat="42.242881" lon="2.833486">
        <ele>155.091</ele>
        <time>2020-10-17T18:05:50Z</time>
      </trkpt>
      <trkpt lat="42.242881" lon="2.833486">
        <ele>155.069</ele>
        <time>2020-10-17T18:05:50Z</time>
      </trkpt>
      <trkpt lat="42.242881" lon="2.833486">
        <ele>155.079</ele>
        <time>2020-10-17T18:05:50Z</time>
      </trkpt>
      <trkpt lat="42.242816" lon="2.833534">
        <ele>155.674</ele>
        <time>2020-10-17T18:05:51Z</time>
      </trkpt>
      <trkpt lat="42.242698" lon="2.833625">
        <ele>156.319</ele>
        <time>2020-10-17T18:05:53Z</time>
      </trkpt>
      <trkpt lat="42.242597" lon="2.833680">
        <ele>157.109</ele>
        <time>2020-10-17T18:05:55Z</time>
      </trkpt>
      <trkpt lat="42.242505" lon="2.833656">
        <ele>157.719</ele>
        <time>2020-10-17T18:05:57Z</time>
      </trkpt>
      <trkpt lat="42.242463" lon="2.833611">
        <ele>158.208</ele>
        <time>2020-10-17T18:05:58Z</time>
      </trkpt>
      <trkpt lat="42.242432" lon="2.833544">
        <ele>158.796</ele>
        <time>2020-10-17T18:05:59Z</time>
      </trkpt>
      <trkpt lat="42.242416" lon="2.833466">
        <ele>159.239</ele>
        <time>2020-10-17T18:06:00Z</time>
      </trkpt>
      <trkpt lat="42.242392" lon="2.833134">
        <ele>161.018</ele>
        <time>2020-10-17T18:06:04Z</time>
      </trkpt>
      <trkpt lat="42.242392" lon="2.833134">
        <ele>161.017</ele>
        <time>2020-10-17T18:06:04Z</time>
      </trkpt>
      <trkpt lat="42.242392" lon="2.833134">
        <ele>161.036</ele>
        <time>2020-10-17T18:06:04Z</time>
      </trkpt>
      <trkpt lat="42.242392" lon="2.833134">
        <ele>161.054</ele>
        <time>2020-10-17T18:06:04Z</time>
      </trkpt>
      <trkpt lat="42.242378" lon="2.833051">
        <ele>161.444</ele>
        <time>2020-10-17T18:06:05Z</time>
      </trkpt>
      <trkpt lat="42.242362" lon="2.832968">
        <ele>161.829</ele>
        <time>2020-10-17T18:06:06Z</time>
      </trkpt>
      <trkpt lat="42.242330" lon="2.832804">
        <ele>162.219</ele>
        <time>2020-10-17T18:06:08Z</time>
      </trkpt>
      <trkpt lat="42.242300" lon="2.832640">
        <ele>162.609</ele>
        <time>2020-10-17T18:06:10Z</time>
      </trkpt>
      <trkpt lat="42.242289" lon="2.832563">
        <ele>162.919</ele>
        <time>2020-10-17T18:06:11Z</time>
      </trkpt>
      <trkpt lat="42.242270" lon="2.832426">
        <ele>163.208</ele>
        <time>2020-10-17T18:06:13Z</time>
      </trkpt>
      <trkpt lat="42.242264" lon="2.832365">
        <ele>163.456</ele>
        <time>2020-10-17T18:06:14Z</time>
      </trkpt>
      <trkpt lat="42.242258" lon="2.832124">
        <ele>164.219</ele>
        <time>2020-10-17T18:06:18Z</time>
      </trkpt>
      <trkpt lat="42.242258" lon="2.832124">
        <ele>164.278</ele>
        <time>2020-10-17T18:06:18Z</time>
      </trkpt>
      <trkpt lat="42.242258" lon="2.832124">
        <ele>164.277</ele>
        <time>2020-10-17T18:06:18Z</time>
      </trkpt>
      <trkpt lat="42.242258" lon="2.832124">
        <ele>164.246</ele>
        <time>2020-10-17T18:06:18Z</time>
      </trkpt>
      <trkpt lat="42.242204" lon="2.831883">
        <ele>164.744</ele>
        <time>2020-10-17T18:06:22Z</time>
      </trkpt>
      <trkpt lat="42.242030" lon="2.831946">
        <ele>165.414</ele>
        <time>2020-10-17T18:06:24Z</time>
      </trkpt>
      <trkpt lat="42.241719" lon="2.832142">
        <ele>167.069</ele>
        <time>2020-10-17T18:06:28Z</time>
      </trkpt>
      <trkpt lat="42.241719" lon="2.832142">
        <ele>167.016</ele>
        <time>2020-10-17T18:06:28Z</time>
      </trkpt>
      <trkpt lat="42.241719" lon="2.832142">
        <ele>167.076</ele>
        <time>2020-10-17T18:06:28Z</time>
      </trkpt>
      <trkpt lat="42.241719" lon="2.832142">
        <ele>167.013</ele>
        <time>2020-10-17T18:06:28Z</time>
      </trkpt>
      <trkpt lat="42.241644" lon="2.832181">
        <ele>167.308</ele>
        <time>2020-10-17T18:06:29Z</time>
      </trkpt>
      <trkpt lat="42.241574" lon="2.832217">
        <ele>167.656</ele>
        <time>2020-10-17T18:06:30Z</time>
      </trkpt>
      <trkpt lat="42.241512" lon="2.832247">
        <ele>167.969</ele>
        <time>2020-10-17T18:06:31Z</time>
      </trkpt>
      <trkpt lat="42.241455" lon="2.832260">
        <ele>168.268</ele>
        <time>2020-10-17T18:06:32Z</time>
      </trkpt>
      <trkpt lat="42.241402" lon="2.832250">
        <ele>168.597</ele>
        <time>2020-10-17T18:06:33Z</time>
      </trkpt>
      <trkpt lat="42.241194" lon="2.831903">
        <ele>170.656</ele>
        <time>2020-10-17T18:06:38Z</time>
      </trkpt>
      <trkpt lat="42.241194" lon="2.831903">
        <ele>170.654</ele>
        <time>2020-10-17T18:06:38Z</time>
      </trkpt>
      <trkpt lat="42.241194" lon="2.831903">
        <ele>170.614</ele>
        <time>2020-10-17T18:06:38Z</time>
      </trkpt>
      <trkpt lat="42.241194" lon="2.831903">
        <ele>170.629</ele>
        <time>2020-10-17T18:06:38Z</time>
      </trkpt>
      <trkpt lat="42.241127" lon="2.831860">
        <ele>171.088</ele>
        <time>2020-10-17T18:06:39Z</time>
      </trkpt>
      <trkpt lat="42.241054" lon="2.831838">
        <ele>171.324</ele>
        <time>2020-10-17T18:06:40Z</time>
      </trkpt>
      <trkpt lat="42.240893" lon="2.831862">
        <ele>171.726</ele>
        <time>2020-10-17T18:06:42Z</time>
      </trkpt>
      <trkpt lat="42.240737" lon="2.831895">
        <ele>172.208</ele>
        <time>2020-10-17T18:06:44Z</time>
      </trkpt>
      <trkpt lat="42.240571" lon="2.831918">
        <ele>172.913</ele>
        <time>2020-10-17T18:06:46Z</time>
      </trkpt>
      <trkpt lat="42.240571" lon="2.831918">
        <ele>172.956</ele>
        <time>2020-10-17T18:06:46Z</time>
      </trkpt>
      <trkpt lat="42.240410" lon="2.831923">
        <ele>173.245</ele>
        <time>2020-10-17T18:06:48Z</time>
      </trkpt>
      <trkpt lat="42.240410" lon="2.831923">
        <ele>173.264</ele>
        <time>2020-10-17T18:06:48Z</time>
      </trkpt>
      <trkpt lat="42.240331" lon="2.831918">
        <ele>173.363</ele>
        <time>2020-10-17T18:06:49Z</time>
      </trkpt>
      <trkpt lat="42.240170" lon="2.831892">
        <ele>173.421</ele>
        <time>2020-10-17T18:06:51Z</time>
      </trkpt>
      <trkpt lat="42.240023" lon="2.831860">
        <ele>173.711</ele>
        <time>2020-10-17T18:06:53Z</time>
      </trkpt>
      <trkpt lat="42.239962" lon="2.831847">
        <ele>173.926</ele>
        <time>2020-10-17T18:06:54Z</time>
      </trkpt>
      <trkpt lat="42.239718" lon="2.831814">
        <ele>174.944</ele>
        <time>2020-10-17T18:06:58Z</time>
      </trkpt>
      <trkpt lat="42.239718" lon="2.831814">
        <ele>174.905</ele>
        <time>2020-10-17T18:06:58Z</time>
      </trkpt>
      <trkpt lat="42.239718" lon="2.831814">
        <ele>174.915</ele>
        <time>2020-10-17T18:06:58Z</time>
      </trkpt>
      <trkpt lat="42.239718" lon="2.831814">
        <ele>174.908</ele>
        <time>2020-10-17T18:06:58Z</time>
      </trkpt>
      <trkpt lat="42.239653" lon="2.831801">
        <ele>175.269</ele>
        <time>2020-10-17T18:06:59Z</time>
      </trkpt>
      <trkpt lat="42.239598" lon="2.831779">
        <ele>175.412</ele>
        <time>2020-10-17T18:07:00Z</time>
      </trkpt>
      <trkpt lat="42.239545" lon="2.831710">
        <ele>175.881</ele>
        <time>2020-10-17T18:07:02Z</time>
      </trkpt>
      <trkpt lat="42.239531" lon="2.831572">
        <ele>176.380</ele>
        <time>2020-10-17T18:07:04Z</time>
      </trkpt>
      <trkpt lat="42.239529" lon="2.831091">
        <ele>177.549</ele>
        <time>2020-10-17T18:07:08Z</time>
      </trkpt>
      <trkpt lat="42.239529" lon="2.831091">
        <ele>177.557</ele>
        <time>2020-10-17T18:07:08Z</time>
      </trkpt>
      <trkpt lat="42.239529" lon="2.831091">
        <ele>177.567</ele>
        <time>2020-10-17T18:07:08Z</time>
      </trkpt>
      <trkpt lat="42.239529" lon="2.831091">
        <ele>177.532</ele>
        <time>2020-10-17T18:07:08Z</time>
      </trkpt>
      <trkpt lat="42.239518" lon="2.830967">
        <ele>177.746</ele>
        <time>2020-10-17T18:07:09Z</time>
      </trkpt>
      <trkpt lat="42.239486" lon="2.830734">
        <ele>178.088</ele>
        <time>2020-10-17T18:07:11Z</time>
      </trkpt>
      <trkpt lat="42.239453" lon="2.830489">
        <ele>178.316</ele>
        <time>2020-10-17T18:07:13Z</time>
      </trkpt>
      <trkpt lat="42.239408" lon="2.829920">
        <ele>179.208</ele>
        <time>2020-10-17T18:07:18Z</time>
      </trkpt>
      <trkpt lat="42.239408" lon="2.829920">
        <ele>179.269</ele>
        <time>2020-10-17T18:07:18Z</time>
      </trkpt>
      <trkpt lat="42.239408" lon="2.829920">
        <ele>179.242</ele>
        <time>2020-10-17T18:07:18Z</time>
      </trkpt>
      <trkpt lat="42.239408" lon="2.829920">
        <ele>179.261</ele>
        <time>2020-10-17T18:07:18Z</time>
      </trkpt>
      <trkpt lat="42.239404" lon="2.829842">
        <ele>179.380</ele>
        <time>2020-10-17T18:07:19Z</time>
      </trkpt>
      <trkpt lat="42.239378" lon="2.829725">
        <ele>179.449</ele>
        <time>2020-10-17T18:07:21Z</time>
      </trkpt>
      <trkpt lat="42.239309" lon="2.829647">
        <ele>179.527</ele>
        <time>2020-10-17T18:07:23Z</time>
      </trkpt>
      <trkpt lat="42.239260" lon="2.829629">
        <ele>179.517</ele>
        <time>2020-10-17T18:07:24Z</time>
      </trkpt>
      <trkpt lat="42.239156" lon="2.829619">
        <ele>179.522</ele>
        <time>2020-10-17T18:07:26Z</time>
      </trkpt>
      <trkpt lat="42.239156" lon="2.829619">
        <ele>179.591</ele>
        <time>2020-10-17T18:07:26Z</time>
      </trkpt>
      <trkpt lat="42.239080" lon="2.829598">
        <ele>179.681</ele>
        <time>2020-10-17T18:07:28Z</time>
      </trkpt>
      <trkpt lat="42.239080" lon="2.829598">
        <ele>179.619</ele>
        <time>2020-10-17T18:07:28Z</time>
      </trkpt>
      <trkpt lat="42.239035" lon="2.829575">
        <ele>180.008</ele>
        <time>2020-10-17T18:08:16Z</time>
      </trkpt>
      <trkpt lat="42.238965" lon="2.829652">
        <ele>180.014</ele>
        <time>2020-10-17T18:08:18Z</time>
      </trkpt>
      <trkpt lat="42.238740" lon="2.830087">
        <ele>180.297</ele>
        <time>2020-10-17T18:08:22Z</time>
      </trkpt>
      <trkpt lat="42.238740" lon="2.830087">
        <ele>180.296</ele>
        <time>2020-10-17T18:08:22Z</time>
      </trkpt>
      <trkpt lat="42.238740" lon="2.830087">
        <ele>180.285</ele>
        <time>2020-10-17T18:08:22Z</time>
      </trkpt>
      <trkpt lat="42.238740" lon="2.830087">
        <ele>180.264</ele>
        <time>2020-10-17T18:08:22Z</time>
      </trkpt>
      <trkpt lat="42.238667" lon="2.830225">
        <ele>180.322</ele>
        <time>2020-10-17T18:08:23Z</time>
      </trkpt>
      <trkpt lat="42.238532" lon="2.830487">
        <ele>180.462</ele>
        <time>2020-10-17T18:08:25Z</time>
      </trkpt>
      <trkpt lat="42.238386" lon="2.830781">
        <ele>180.437</ele>
        <time>2020-10-17T18:08:27Z</time>
      </trkpt>
      <trkpt lat="42.238304" lon="2.830945">
        <ele>180.476</ele>
        <time>2020-10-17T18:08:28Z</time>
      </trkpt>
      <trkpt lat="42.238220" lon="2.831114">
        <ele>180.390</ele>
        <time>2020-10-17T18:08:29Z</time>
      </trkpt>
      <trkpt lat="42.238048" lon="2.831462">
        <ele>180.219</ele>
        <time>2020-10-17T18:08:31Z</time>
      </trkpt>
      <trkpt lat="42.237630" lon="2.832314">
        <ele>179.208</ele>
        <time>2020-10-17T18:08:36Z</time>
      </trkpt>
      <trkpt lat="42.237630" lon="2.832314">
        <ele>179.292</ele>
        <time>2020-10-17T18:08:36Z</time>
      </trkpt>
      <trkpt lat="42.237630" lon="2.832314">
        <ele>179.215</ele>
        <time>2020-10-17T18:08:36Z</time>
      </trkpt>
      <trkpt lat="42.237630" lon="2.832314">
        <ele>179.264</ele>
        <time>2020-10-17T18:08:36Z</time>
      </trkpt>
      <trkpt lat="42.237480" lon="2.832616">
        <ele>178.733</ele>
        <time>2020-10-17T18:08:38Z</time>
      </trkpt>
      <trkpt lat="42.237404" lon="2.832773">
        <ele>178.252</ele>
        <time>2020-10-17T18:08:39Z</time>
      </trkpt>
      <trkpt lat="42.237240" lon="2.833106">
        <ele>177.510</ele>
        <time>2020-10-17T18:08:41Z</time>
      </trkpt>
      <trkpt lat="42.237151" lon="2.833283">
        <ele>176.880</ele>
        <time>2020-10-17T18:08:42Z</time>
      </trkpt>
      <trkpt lat="42.236962" lon="2.833653">
        <ele>176.045</ele>
        <time>2020-10-17T18:08:44Z</time>
      </trkpt>
      <trkpt lat="42.236775" lon="2.834021">
        <ele>175.249</ele>
        <time>2020-10-17T18:08:46Z</time>
      </trkpt>
      <trkpt lat="42.236455" lon="2.834659">
        <ele>173.002</ele>
        <time>2020-10-17T18:08:50Z</time>
      </trkpt>
      <trkpt lat="42.236455" lon="2.834659">
        <ele>173.022</ele>
        <time>2020-10-17T18:08:50Z</time>
      </trkpt>
      <trkpt lat="42.236455" lon="2.834659">
        <ele>173.008</ele>
        <time>2020-10-17T18:08:50Z</time>
      </trkpt>
      <trkpt lat="42.236455" lon="2.834659">
        <ele>173.049</ele>
        <time>2020-10-17T18:08:50Z</time>
      </trkpt>
      <trkpt lat="42.236319" lon="2.834918">
        <ele>172.432</ele>
        <time>2020-10-17T18:08:52Z</time>
      </trkpt>
      <trkpt lat="42.236259" lon="2.835034">
        <ele>171.971</ele>
        <time>2020-10-17T18:08:53Z</time>
      </trkpt>
      <trkpt lat="42.236158" lon="2.835227">
        <ele>171.230</ele>
        <time>2020-10-17T18:08:55Z</time>
      </trkpt>
      <trkpt lat="42.236118" lon="2.835302">
        <ele>170.549</ele>
        <time>2020-10-17T18:08:56Z</time>
      </trkpt>
      <trkpt lat="42.236073" lon="2.835379">
        <ele>169.767</ele>
        <time>2020-10-17T18:08:58Z</time>
      </trkpt>
      <trkpt lat="42.236026" lon="2.835452">
        <ele>168.837</ele>
        <time>2020-10-17T18:09:00Z</time>
      </trkpt>
      <trkpt lat="42.235944" lon="2.835595">
        <ele>167.052</ele>
        <time>2020-10-17T18:09:03Z</time>
      </trkpt>
      <trkpt lat="42.235944" lon="2.835595">
        <ele>167.017</ele>
        <time>2020-10-17T18:09:03Z</time>
      </trkpt>
      <trkpt lat="42.235944" lon="2.835595">
        <ele>167.087</ele>
        <time>2020-10-17T18:09:03Z</time>
      </trkpt>
      <trkpt lat="42.235896" lon="2.835690">
        <ele>166.315</ele>
        <time>2020-10-17T18:09:04Z</time>
      </trkpt>
      <trkpt lat="42.235837" lon="2.835801">
        <ele>165.608</ele>
        <time>2020-10-17T18:09:05Z</time>
      </trkpt>
      <trkpt lat="42.235776" lon="2.835913">
        <ele>165.016</ele>
        <time>2020-10-17T18:09:06Z</time>
      </trkpt>
      <trkpt lat="42.235657" lon="2.836134">
        <ele>164.229</ele>
        <time>2020-10-17T18:09:08Z</time>
      </trkpt>
      <trkpt lat="42.235525" lon="2.836387">
        <ele>163.458</ele>
        <time>2020-10-17T18:09:10Z</time>
      </trkpt>
      <trkpt lat="42.235387" lon="2.836640">
        <ele>162.587</ele>
        <time>2020-10-17T18:09:12Z</time>
      </trkpt>
      <trkpt lat="42.235387" lon="2.836640">
        <ele>162.556</ele>
        <time>2020-10-17T18:09:12Z</time>
      </trkpt>
      <trkpt lat="42.235275" lon="2.836840">
        <ele>161.764</ele>
        <time>2020-10-17T18:09:14Z</time>
      </trkpt>
      <trkpt lat="42.235275" lon="2.836840">
        <ele>161.734</ele>
        <time>2020-10-17T18:09:14Z</time>
      </trkpt>
      <trkpt lat="42.235232" lon="2.836914">
        <ele>161.049</ele>
        <time>2020-10-17T18:09:15Z</time>
      </trkpt>
      <trkpt lat="42.235198" lon="2.836975">
        <ele>160.591</ele>
        <time>2020-10-17T18:09:16Z</time>
      </trkpt>
      <trkpt lat="42.235171" lon="2.837036">
        <ele>159.981</ele>
        <time>2020-10-17T18:09:18Z</time>
      </trkpt>
      <trkpt lat="42.235261" lon="2.837069">
        <ele>158.319</ele>
        <time>2020-10-17T18:09:24Z</time>
      </trkpt>
      <trkpt lat="42.235261" lon="2.837069">
        <ele>158.308</ele>
        <time>2020-10-17T18:09:24Z</time>
      </trkpt>
      <trkpt lat="42.235261" lon="2.837069">
        <ele>158.364</ele>
        <time>2020-10-17T18:09:24Z</time>
      </trkpt>
      <trkpt lat="42.235261" lon="2.837069">
        <ele>158.387</ele>
        <time>2020-10-17T18:09:24Z</time>
      </trkpt>
      <trkpt lat="42.235301" lon="2.837023">
        <ele>158.176</ele>
        <time>2020-10-17T18:09:26Z</time>
      </trkpt>
      <trkpt lat="42.235369" lon="2.836921">
        <ele>157.835</ele>
        <time>2020-10-17T18:09:28Z</time>
      </trkpt>
      <trkpt lat="42.235449" lon="2.836801">
        <ele>157.414</ele>
        <time>2020-10-17T18:09:30Z</time>
      </trkpt>
      <trkpt lat="42.235670" lon="2.836482">
        <ele>156.792</ele>
        <time>2020-10-17T18:09:34Z</time>
      </trkpt>
      <trkpt lat="42.235670" lon="2.836482">
        <ele>156.792</ele>
        <time>2020-10-17T18:09:34Z</time>
      </trkpt>
      <trkpt lat="42.235670" lon="2.836482">
        <ele>156.747</ele>
        <time>2020-10-17T18:09:34Z</time>
      </trkpt>
      <trkpt lat="42.235670" lon="2.836482">
        <ele>156.713</ele>
        <time>2020-10-17T18:09:34Z</time>
      </trkpt>
      <trkpt lat="42.235778" lon="2.836336">
        <ele>156.643</ele>
        <time>2020-10-17T18:09:36Z</time>
      </trkpt>
      <trkpt lat="42.235888" lon="2.836195">
        <ele>156.507</ele>
        <time>2020-10-17T18:09:38Z</time>
      </trkpt>
      <trkpt lat="42.235991" lon="2.836072">
        <ele>156.408</ele>
        <time>2020-10-17T18:09:40Z</time>
      </trkpt>
      <trkpt lat="42.236035" lon="2.836022">
        <ele>156.466</ele>
        <time>2020-10-17T18:09:41Z</time>
      </trkpt>
      <trkpt lat="42.236129" lon="2.835921">
        <ele>156.419</ele>
        <time>2020-10-17T18:09:44Z</time>
      </trkpt>
      <trkpt lat="42.236129" lon="2.835921">
        <ele>156.478</ele>
        <time>2020-10-17T18:09:44Z</time>
      </trkpt>
      <trkpt lat="42.236129" lon="2.835921">
        <ele>156.467</ele>
        <time>2020-10-17T18:09:44Z</time>
      </trkpt>
      <trkpt lat="42.236223" lon="2.835834">
        <ele>156.186</ele>
        <time>2020-10-17T18:10:23Z</time>
      </trkpt>
      <trkpt lat="42.236278" lon="2.835787">
        <ele>156.134</ele>
        <time>2020-10-17T18:10:24Z</time>
      </trkpt>
      <trkpt lat="42.236412" lon="2.835701">
        <ele>156.374</ele>
        <time>2020-10-17T18:10:26Z</time>
      </trkpt>
      <trkpt lat="42.236491" lon="2.835657">
        <ele>156.559</ele>
        <time>2020-10-17T18:10:27Z</time>
      </trkpt>
      <trkpt lat="42.236661" lon="2.835540">
        <ele>156.866</ele>
        <time>2020-10-17T18:10:29Z</time>
      </trkpt>
      <trkpt lat="42.236738" lon="2.835475">
        <ele>157.129</ele>
        <time>2020-10-17T18:10:30Z</time>
      </trkpt>
      <trkpt lat="42.236884" lon="2.835342">
        <ele>157.421</ele>
        <time>2020-10-17T18:10:32Z</time>
      </trkpt>
      <trkpt lat="42.236962" lon="2.835277">
        <ele>157.608</ele>
        <time>2020-10-17T18:10:33Z</time>
      </trkpt>
      <trkpt lat="42.237133" lon="2.835170">
        <ele>157.871</ele>
        <time>2020-10-17T18:10:35Z</time>
      </trkpt>
      <trkpt lat="42.237291" lon="2.835102">
        <ele>158.034</ele>
        <time>2020-10-17T18:10:37Z</time>
      </trkpt>
      <trkpt lat="42.237364" lon="2.835083">
        <ele>158.113</ele>
        <time>2020-10-17T18:10:38Z</time>
      </trkpt>
      <trkpt lat="42.237436" lon="2.835079">
        <ele>158.342</ele>
        <time>2020-10-17T18:10:39Z</time>
      </trkpt>
      <trkpt lat="42.237504" lon="2.835084">
        <ele>158.451</ele>
        <time>2020-10-17T18:10:40Z</time>
      </trkpt>
      <trkpt lat="42.237560" lon="2.835100">
        <ele>158.539</ele>
        <time>2020-10-17T18:10:41Z</time>
      </trkpt>
      <trkpt lat="42.237605" lon="2.835138">
        <ele>158.579</ele>
        <time>2020-10-17T18:10:43Z</time>
      </trkpt>
      <trkpt lat="42.237610" lon="2.835236">
        <ele>158.484</ele>
        <time>2020-10-17T18:10:46Z</time>
      </trkpt>
      <trkpt lat="42.237580" lon="2.835321">
        <ele>158.588</ele>
        <time>2020-10-17T18:10:48Z</time>
      </trkpt>
      <trkpt lat="42.237546" lon="2.835426">
        <ele>158.524</ele>
        <time>2020-10-17T18:10:50Z</time>
      </trkpt>
      <trkpt lat="42.237521" lon="2.835501">
        <ele>158.426</ele>
        <time>2020-10-17T18:10:51Z</time>
      </trkpt>
      <trkpt lat="42.237462" lon="2.835628">
        <ele>158.108</ele>
        <time>2020-10-17T18:10:53Z</time>
      </trkpt>
      <trkpt lat="42.237431" lon="2.835676">
        <ele>157.993</ele>
        <time>2020-10-17T18:10:54Z</time>
      </trkpt>
      <trkpt lat="42.237382" lon="2.835743">
        <ele>157.646</ele>
        <time>2020-10-17T18:10:56Z</time>
      </trkpt>
      <trkpt lat="42.237332" lon="2.835821">
        <ele>157.395</ele>
        <time>2020-10-17T18:10:58Z</time>
      </trkpt>
      <trkpt lat="42.237286" lon="2.835924">
        <ele>157.064</ele>
        <time>2020-10-17T18:11:00Z</time>
      </trkpt>
      <trkpt lat="42.237242" lon="2.836058">
        <ele>156.913</ele>
        <time>2020-10-17T18:11:02Z</time>
      </trkpt>
      <trkpt lat="42.237231" lon="2.836127">
        <ele>156.991</ele>
        <time>2020-10-17T18:11:03Z</time>
      </trkpt>
      <trkpt lat="42.237229" lon="2.836192">
        <ele>156.831</ele>
        <time>2020-10-17T18:11:04Z</time>
      </trkpt>
      <trkpt lat="42.237240" lon="2.836321">
        <ele>156.776</ele>
        <time>2020-10-17T18:11:06Z</time>
      </trkpt>
      <trkpt lat="42.237252" lon="2.836387">
        <ele>156.657</ele>
        <time>2020-10-17T18:11:07Z</time>
      </trkpt>
      <trkpt lat="42.237283" lon="2.836508">
        <ele>156.400</ele>
        <time>2020-10-17T18:11:09Z</time>
      </trkpt>
      <trkpt lat="42.237327" lon="2.836617">
        <ele>156.220</ele>
        <time>2020-10-17T18:11:11Z</time>
      </trkpt>
      <trkpt lat="42.237392" lon="2.836702">
        <ele>156.108</ele>
        <time>2020-10-17T18:11:13Z</time>
      </trkpt>
      <trkpt lat="42.237473" lon="2.836765">
        <ele>156.070</ele>
        <time>2020-10-17T18:11:15Z</time>
      </trkpt>
      <trkpt lat="42.237514" lon="2.836798">
        <ele>155.963</ele>
        <time>2020-10-17T18:11:16Z</time>
      </trkpt>
      <trkpt lat="42.237554" lon="2.836837">
        <ele>155.972</ele>
        <time>2020-10-17T18:11:17Z</time>
      </trkpt>
      <trkpt lat="42.237622" lon="2.836936">
        <ele>155.931</ele>
        <time>2020-10-17T18:11:19Z</time>
      </trkpt>
      <trkpt lat="42.237649" lon="2.836998">
        <ele>155.950</ele>
        <time>2020-10-17T18:11:20Z</time>
      </trkpt>
      <trkpt lat="42.237667" lon="2.837071">
        <ele>155.918</ele>
        <time>2020-10-17T18:11:21Z</time>
      </trkpt>
      <trkpt lat="42.237696" lon="2.837228">
        <ele>155.988</ele>
        <time>2020-10-17T18:11:23Z</time>
      </trkpt>
      <trkpt lat="42.237715" lon="2.837309">
        <ele>155.833</ele>
        <time>2020-10-17T18:11:24Z</time>
      </trkpt>
      <trkpt lat="42.237737" lon="2.837387">
        <ele>155.883</ele>
        <time>2020-10-17T18:11:25Z</time>
      </trkpt>
      <trkpt lat="42.237778" lon="2.837539">
        <ele>155.725</ele>
        <time>2020-10-17T18:11:27Z</time>
      </trkpt>
      <trkpt lat="42.237790" lon="2.837613">
        <ele>155.517</ele>
        <time>2020-10-17T18:11:28Z</time>
      </trkpt>
      <trkpt lat="42.237802" lon="2.837757">
        <ele>155.008</ele>
        <time>2020-10-17T18:11:30Z</time>
      </trkpt>
      <trkpt lat="42.237807" lon="2.837831">
        <ele>154.513</ele>
        <time>2020-10-17T18:11:31Z</time>
      </trkpt>
      <trkpt lat="42.237823" lon="2.837966">
        <ele>153.776</ele>
        <time>2020-10-17T18:11:33Z</time>
      </trkpt>
      <trkpt lat="42.237844" lon="2.838050">
        <ele>152.985</ele>
        <time>2020-10-17T18:11:35Z</time>
      </trkpt>
      <trkpt lat="42.237892" lon="2.838142">
        <ele>152.264</ele>
        <time>2020-10-17T18:11:37Z</time>
      </trkpt>
      <trkpt lat="42.237931" lon="2.838193">
        <ele>151.733</ele>
        <time>2020-10-17T18:11:38Z</time>
      </trkpt>
      <trkpt lat="42.237972" lon="2.838241">
        <ele>151.341</ele>
        <time>2020-10-17T18:11:39Z</time>
      </trkpt>
      <trkpt lat="42.238057" lon="2.838328">
        <ele>151.041</ele>
        <time>2020-10-17T18:11:41Z</time>
      </trkpt>
      <trkpt lat="42.238105" lon="2.838367">
        <ele>150.816</ele>
        <time>2020-10-17T18:11:42Z</time>
      </trkpt>
      <trkpt lat="42.238155" lon="2.838408">
        <ele>150.771</ele>
        <time>2020-10-17T18:11:43Z</time>
      </trkpt>
      <trkpt lat="42.238265" lon="2.838494">
        <ele>150.741</ele>
        <time>2020-10-17T18:11:45Z</time>
      </trkpt>
      <trkpt lat="42.238315" lon="2.838543">
        <ele>150.715</ele>
        <time>2020-10-17T18:11:46Z</time>
      </trkpt>
      <trkpt lat="42.238387" lon="2.838662">
        <ele>150.808</ele>
        <time>2020-10-17T18:11:48Z</time>
      </trkpt>
      <trkpt lat="42.238422" lon="2.838805">
        <ele>151.022</ele>
        <time>2020-10-17T18:11:50Z</time>
      </trkpt>
      <trkpt lat="42.238445" lon="2.838964">
        <ele>151.295</ele>
        <time>2020-10-17T18:11:52Z</time>
      </trkpt>
      <trkpt lat="42.238468" lon="2.839114">
        <ele>151.444</ele>
        <time>2020-10-17T18:11:54Z</time>
      </trkpt>
      <trkpt lat="42.238476" lon="2.839185">
        <ele>151.623</ele>
        <time>2020-10-17T18:11:55Z</time>
      </trkpt>
      <trkpt lat="42.238475" lon="2.839320">
        <ele>151.782</ele>
        <time>2020-10-17T18:11:57Z</time>
      </trkpt>
      <trkpt lat="42.238466" lon="2.839380">
        <ele>151.710</ele>
        <time>2020-10-17T18:11:58Z</time>
      </trkpt>
      <trkpt lat="42.238444" lon="2.839460">
        <ele>151.630</ele>
        <time>2020-10-17T18:12:00Z</time>
      </trkpt>
      <trkpt lat="42.238546" lon="2.839510">
        <ele>151.655</ele>
        <time>2020-10-17T18:12:05Z</time>
      </trkpt>
      <trkpt lat="42.238656" lon="2.839486">
        <ele>151.687</ele>
        <time>2020-10-17T18:12:07Z</time>
      </trkpt>
      <trkpt lat="42.238803" lon="2.839434">
        <ele>151.742</ele>
        <time>2020-10-17T18:12:09Z</time>
      </trkpt>
      <trkpt lat="42.238971" lon="2.839377">
        <ele>151.926</ele>
        <time>2020-10-17T18:12:11Z</time>
      </trkpt>
      <trkpt lat="42.239053" lon="2.839354">
        <ele>152.108</ele>
        <time>2020-10-17T18:12:12Z</time>
      </trkpt>
      <trkpt lat="42.239220" lon="2.839320">
        <ele>152.543</ele>
        <time>2020-10-17T18:12:14Z</time>
      </trkpt>
      <trkpt lat="42.239382" lon="2.839294">
        <ele>152.916</ele>
        <time>2020-10-17T18:12:16Z</time>
      </trkpt>
      <trkpt lat="42.239528" lon="2.839262">
        <ele>153.275</ele>
        <time>2020-10-17T18:12:18Z</time>
      </trkpt>
      <trkpt lat="42.239594" lon="2.839243">
        <ele>153.374</ele>
        <time>2020-10-17T18:12:19Z</time>
      </trkpt>
      <trkpt lat="42.239725" lon="2.839183">
        <ele>153.283</ele>
        <time>2020-10-17T18:12:21Z</time>
      </trkpt>
      <trkpt lat="42.239796" lon="2.839145">
        <ele>153.161</ele>
        <time>2020-10-17T18:12:22Z</time>
      </trkpt>
      <trkpt lat="42.239943" lon="2.839054">
        <ele>153.011</ele>
        <time>2020-10-17T18:12:24Z</time>
      </trkpt>
      <trkpt lat="42.240021" lon="2.839001">
        <ele>152.996</ele>
        <time>2020-10-17T18:12:25Z</time>
      </trkpt>
      <trkpt lat="42.240176" lon="2.838887">
        <ele>152.842</ele>
        <time>2020-10-17T18:12:27Z</time>
      </trkpt>
      <trkpt lat="42.240255" lon="2.838830">
        <ele>152.722</ele>
        <time>2020-10-17T18:12:28Z</time>
      </trkpt>
      <trkpt lat="42.240334" lon="2.838775">
        <ele>152.614</ele>
        <time>2020-10-17T18:12:29Z</time>
      </trkpt>
      <trkpt lat="42.240617" lon="2.838590">
        <ele>152.508</ele>
        <time>2020-10-17T18:12:33Z</time>
      </trkpt>
      <trkpt lat="42.240617" lon="2.838590">
        <ele>152.539</ele>
        <time>2020-10-17T18:12:33Z</time>
      </trkpt>
      <trkpt lat="42.240617" lon="2.838590">
        <ele>152.542</ele>
        <time>2020-10-17T18:12:33Z</time>
      </trkpt>
      <trkpt lat="42.240617" lon="2.838590">
        <ele>152.571</ele>
        <time>2020-10-17T18:12:33Z</time>
      </trkpt>
      <trkpt lat="42.240693" lon="2.838552">
        <ele>152.540</ele>
        <time>2020-10-17T18:12:35Z</time>
      </trkpt>
      <trkpt lat="42.240648" lon="2.838594">
        <ele>152.519</ele>
        <time>2020-10-17T18:12:37Z</time>
      </trkpt>
      <trkpt lat="42.240777" lon="2.838481">
        <ele>152.747</ele>
        <time>2020-10-17T18:12:43Z</time>
      </trkpt>
      <trkpt lat="42.240777" lon="2.838481">
        <ele>152.787</ele>
        <time>2020-10-17T18:12:43Z</time>
      </trkpt>
      <trkpt lat="42.240777" lon="2.838481">
        <ele>152.732</ele>
        <time>2020-10-17T18:12:43Z</time>
      </trkpt>
      <trkpt lat="42.240777" lon="2.838481">
        <ele>152.719</ele>
        <time>2020-10-17T18:12:43Z</time>
      </trkpt>
      <trkpt lat="42.240880" lon="2.838394">
        <ele>152.909</ele>
        <time>2020-10-17T18:12:45Z</time>
      </trkpt>
      <trkpt lat="42.241004" lon="2.838319">
        <ele>153.119</ele>
        <time>2020-10-17T18:12:47Z</time>
      </trkpt>
      <trkpt lat="42.241076" lon="2.838296">
        <ele>153.308</ele>
        <time>2020-10-17T18:12:48Z</time>
      </trkpt>
      <trkpt lat="42.241316" lon="2.838246">
        <ele>153.846</ele>
        <time>2020-10-17T18:12:51Z</time>
      </trkpt>
      <trkpt lat="42.241316" lon="2.838246">
        <ele>153.869</ele>
        <time>2020-10-17T18:12:51Z</time>
      </trkpt>
      <trkpt lat="42.241461" lon="2.838203">
        <ele>154.448</ele>
        <time>2020-10-17T18:12:53Z</time>
      </trkpt>
      <trkpt lat="42.241461" lon="2.838203">
        <ele>154.467</ele>
        <time>2020-10-17T18:12:53Z</time>
      </trkpt>
      <trkpt lat="42.241579" lon="2.838188">
        <ele>154.946</ele>
        <time>2020-10-17T18:12:55Z</time>
      </trkpt>
      <trkpt lat="42.241640" lon="2.838170">
        <ele>155.414</ele>
        <time>2020-10-17T18:12:57Z</time>
      </trkpt>
      <trkpt lat="42.241539" lon="2.838160">
        <ele>156.914</ele>
        <time>2020-10-17T18:13:03Z</time>
      </trkpt>
      <trkpt lat="42.241539" lon="2.838160">
        <ele>156.959</ele>
        <time>2020-10-17T18:13:03Z</time>
      </trkpt>
      <trkpt lat="42.241539" lon="2.838160">
        <ele>156.975</ele>
        <time>2020-10-17T18:13:03Z</time>
      </trkpt>
      <trkpt lat="42.241539" lon="2.838160">
        <ele>156.928</ele>
        <time>2020-10-17T18:13:03Z</time>
      </trkpt>
      <trkpt lat="42.241377" lon="2.838166">
        <ele>157.720</ele>
        <time>2020-10-17T18:13:15Z</time>
      </trkpt>
      <trkpt lat="42.241291" lon="2.838209">
        <ele>157.608</ele>
        <time>2020-10-17T18:13:17Z</time>
      </trkpt>
      <trkpt lat="42.241210" lon="2.838251">
        <ele>157.592</ele>
        <time>2020-10-17T18:13:18Z</time>
      </trkpt>
      <trkpt lat="42.241152" lon="2.838277">
        <ele>157.545</ele>
        <time>2020-10-17T18:13:19Z</time>
      </trkpt>
      <trkpt lat="42.240823" lon="2.838392">
        <ele>157.184</ele>
        <time>2020-10-17T18:13:23Z</time>
      </trkpt>
      <trkpt lat="42.240823" lon="2.838392">
        <ele>157.153</ele>
        <time>2020-10-17T18:13:23Z</time>
      </trkpt>
      <trkpt lat="42.240823" lon="2.838392">
        <ele>157.132</ele>
        <time>2020-10-17T18:13:23Z</time>
      </trkpt>
      <trkpt lat="42.240823" lon="2.838392">
        <ele>157.180</ele>
        <time>2020-10-17T18:13:23Z</time>
      </trkpt>
      <trkpt lat="42.240649" lon="2.838495">
        <ele>156.890</ele>
        <time>2020-10-17T18:13:25Z</time>
      </trkpt>
      <trkpt lat="42.240556" lon="2.838565">
        <ele>156.665</ele>
        <time>2020-10-17T18:13:26Z</time>
      </trkpt>
      <trkpt lat="42.240374" lon="2.838720">
        <ele>156.323</ele>
        <time>2020-10-17T18:13:28Z</time>
      </trkpt>
      <trkpt lat="42.239911" lon="2.839086">
        <ele>153.483</ele>
        <time>2020-10-17T18:13:33Z</time>
      </trkpt>
      <trkpt lat="42.239911" lon="2.839086">
        <ele>153.411</ele>
        <time>2020-10-17T18:13:33Z</time>
      </trkpt>
      <trkpt lat="42.239911" lon="2.839086">
        <ele>153.408</ele>
        <time>2020-10-17T18:13:33Z</time>
      </trkpt>
      <trkpt lat="42.239911" lon="2.839086">
        <ele>153.477</ele>
        <time>2020-10-17T18:13:33Z</time>
      </trkpt>
      <trkpt lat="42.239818" lon="2.839146">
        <ele>152.750</ele>
        <time>2020-10-17T18:13:34Z</time>
      </trkpt>
      <trkpt lat="42.239635" lon="2.839264">
        <ele>152.049</ele>
        <time>2020-10-17T18:13:36Z</time>
      </trkpt>
      <trkpt lat="42.239539" lon="2.839319">
        <ele>151.558</ele>
        <time>2020-10-17T18:13:37Z</time>
      </trkpt>
      <trkpt lat="42.239330" lon="2.839400">
        <ele>151.367</ele>
        <time>2020-10-17T18:13:39Z</time>
      </trkpt>
      <trkpt lat="42.239112" lon="2.839441">
        <ele>151.235</ele>
        <time>2020-10-17T18:13:41Z</time>
      </trkpt>
      <trkpt lat="42.239112" lon="2.839441">
        <ele>151.295</ele>
        <time>2020-10-17T18:13:41Z</time>
      </trkpt>
      <trkpt lat="42.238899" lon="2.839463">
        <ele>151.130</ele>
        <time>2020-10-17T18:13:43Z</time>
      </trkpt>
      <trkpt lat="42.238899" lon="2.839463">
        <ele>151.193</ele>
        <time>2020-10-17T18:13:43Z</time>
      </trkpt>
      <trkpt lat="42.238714" lon="2.839485">
        <ele>151.265</ele>
        <time>2020-10-17T18:13:45Z</time>
      </trkpt>
      <trkpt lat="42.238636" lon="2.839500">
        <ele>151.321</ele>
        <time>2020-10-17T18:13:46Z</time>
      </trkpt>
      <trkpt lat="42.238508" lon="2.839524">
        <ele>151.408</ele>
        <time>2020-10-17T18:13:48Z</time>
      </trkpt>
      <trkpt lat="42.238463" lon="2.839527">
        <ele>151.714</ele>
        <time>2020-10-17T18:13:49Z</time>
      </trkpt>
      <trkpt lat="42.238445" lon="2.839583">
        <ele>152.317</ele>
        <time>2020-10-17T18:13:57Z</time>
      </trkpt>
      <trkpt lat="42.238442" lon="2.839699">
        <ele>152.736</ele>
        <time>2020-10-17T18:13:59Z</time>
      </trkpt>
      <trkpt lat="42.238479" lon="2.840029">
        <ele>152.295</ele>
        <time>2020-10-17T18:14:03Z</time>
      </trkpt>
      <trkpt lat="42.238479" lon="2.840029">
        <ele>152.274</ele>
        <time>2020-10-17T18:14:03Z</time>
      </trkpt>
      <trkpt lat="42.238479" lon="2.840029">
        <ele>152.282</ele>
        <time>2020-10-17T18:14:03Z</time>
      </trkpt>
      <trkpt lat="42.238479" lon="2.840029">
        <ele>152.232</ele>
        <time>2020-10-17T18:14:03Z</time>
      </trkpt>
      <trkpt lat="42.238522" lon="2.840246">
        <ele>151.557</ele>
        <time>2020-10-17T18:14:05Z</time>
      </trkpt>
      <trkpt lat="42.238582" lon="2.840498">
        <ele>150.761</ele>
        <time>2020-10-17T18:14:07Z</time>
      </trkpt>
      <trkpt lat="42.238617" lon="2.840631">
        <ele>150.121</ele>
        <time>2020-10-17T18:14:08Z</time>
      </trkpt>
      <trkpt lat="42.238780" lon="2.841329">
        <ele>147.913</ele>
        <time>2020-10-17T18:14:13Z</time>
      </trkpt>
      <trkpt lat="42.238780" lon="2.841329">
        <ele>147.908</ele>
        <time>2020-10-17T18:14:13Z</time>
      </trkpt>
      <trkpt lat="42.238780" lon="2.841329">
        <ele>147.911</ele>
        <time>2020-10-17T18:14:13Z</time>
      </trkpt>
      <trkpt lat="42.238780" lon="2.841329">
        <ele>147.984</ele>
        <time>2020-10-17T18:14:13Z</time>
      </trkpt>
      <trkpt lat="42.238849" lon="2.841595">
        <ele>147.483</ele>
        <time>2020-10-17T18:14:15Z</time>
      </trkpt>
      <trkpt lat="42.238887" lon="2.841714">
        <ele>146.932</ele>
        <time>2020-10-17T18:14:16Z</time>
      </trkpt>
      <trkpt lat="42.238927" lon="2.841826">
        <ele>146.451</ele>
        <time>2020-10-17T18:14:17Z</time>
      </trkpt>
      <trkpt lat="42.239015" lon="2.842041">
        <ele>145.899</ele>
        <time>2020-10-17T18:14:19Z</time>
      </trkpt>
      <trkpt lat="42.239183" lon="2.842445">
        <ele>143.879</ele>
        <time>2020-10-17T18:14:23Z</time>
      </trkpt>
      <trkpt lat="42.239183" lon="2.842445">
        <ele>143.824</ele>
        <time>2020-10-17T18:14:23Z</time>
      </trkpt>
      <trkpt lat="42.239183" lon="2.842445">
        <ele>143.841</ele>
        <time>2020-10-17T18:14:23Z</time>
      </trkpt>
      <trkpt lat="42.239183" lon="2.842445">
        <ele>143.881</ele>
        <time>2020-10-17T18:14:23Z</time>
      </trkpt>
      <trkpt lat="42.239254" lon="2.842652">
        <ele>143.409</ele>
        <time>2020-10-17T18:14:25Z</time>
      </trkpt>
      <trkpt lat="42.239287" lon="2.842752">
        <ele>143.108</ele>
        <time>2020-10-17T18:14:26Z</time>
      </trkpt>
      <trkpt lat="42.239354" lon="2.842927">
        <ele>142.899</ele>
        <time>2020-10-17T18:14:28Z</time>
      </trkpt>
      <trkpt lat="42.239398" lon="2.842993">
        <ele>142.572</ele>
        <time>2020-10-17T18:14:29Z</time>
      </trkpt>
      <trkpt lat="42.239680" lon="2.843003">
        <ele>141.881</ele>
        <time>2020-10-17T18:14:33Z</time>
      </trkpt>
      <trkpt lat="42.239680" lon="2.843003">
        <ele>141.890</ele>
        <time>2020-10-17T18:14:33Z</time>
      </trkpt>
      <trkpt lat="42.239680" lon="2.843003">
        <ele>141.849</ele>
        <time>2020-10-17T18:14:33Z</time>
      </trkpt>
      <trkpt lat="42.239680" lon="2.843003">
        <ele>141.897</ele>
        <time>2020-10-17T18:14:33Z</time>
      </trkpt>
      <trkpt lat="42.239763" lon="2.842961">
        <ele>141.787</ele>
        <time>2020-10-17T18:14:34Z</time>
      </trkpt>
      <trkpt lat="42.239917" lon="2.842898">
        <ele>141.782</ele>
        <time>2020-10-17T18:14:36Z</time>
      </trkpt>
      <trkpt lat="42.239987" lon="2.842898">
        <ele>141.781</ele>
        <time>2020-10-17T18:14:37Z</time>
      </trkpt>
      <trkpt lat="42.240082" lon="2.842988">
        <ele>141.661</ele>
        <time>2020-10-17T18:14:39Z</time>
      </trkpt>
      <trkpt lat="42.240094" lon="2.843421">
        <ele>140.917</ele>
        <time>2020-10-17T18:14:43Z</time>
      </trkpt>
      <trkpt lat="42.240094" lon="2.843421">
        <ele>140.908</ele>
        <time>2020-10-17T18:14:43Z</time>
      </trkpt>
      <trkpt lat="42.240094" lon="2.843421">
        <ele>140.973</ele>
        <time>2020-10-17T18:14:43Z</time>
      </trkpt>
      <trkpt lat="42.240094" lon="2.843421">
        <ele>140.986</ele>
        <time>2020-10-17T18:14:43Z</time>
      </trkpt>
      <trkpt lat="42.240102" lon="2.843553">
        <ele>140.665</ele>
        <time>2020-10-17T18:14:44Z</time>
      </trkpt>
      <trkpt lat="42.240133" lon="2.843826">
        <ele>140.084</ele>
        <time>2020-10-17T18:14:46Z</time>
      </trkpt>
      <trkpt lat="42.240151" lon="2.843971">
        <ele>139.313</ele>
        <time>2020-10-17T18:14:47Z</time>
      </trkpt>
      <trkpt lat="42.240168" lon="2.844109">
        <ele>138.791</ele>
        <time>2020-10-17T18:14:48Z</time>
      </trkpt>
      <trkpt lat="42.240181" lon="2.844238">
        <ele>138.271</ele>
        <time>2020-10-17T18:14:49Z</time>
      </trkpt>
      <trkpt lat="42.240112" lon="2.844644">
        <ele>137.036</ele>
        <time>2020-10-17T18:14:53Z</time>
      </trkpt>
      <trkpt lat="42.240112" lon="2.844644">
        <ele>137.068</ele>
        <time>2020-10-17T18:14:53Z</time>
      </trkpt>
      <trkpt lat="42.240112" lon="2.844644">
        <ele>137.042</ele>
        <time>2020-10-17T18:14:53Z</time>
      </trkpt>
      <trkpt lat="42.240112" lon="2.844644">
        <ele>137.026</ele>
        <time>2020-10-17T18:14:53Z</time>
      </trkpt>
      <trkpt lat="42.240073" lon="2.844720">
        <ele>136.608</ele>
        <time>2020-10-17T18:14:54Z</time>
      </trkpt>
      <trkpt lat="42.240011" lon="2.844871">
        <ele>136.071</ele>
        <time>2020-10-17T18:14:56Z</time>
      </trkpt>
      <trkpt lat="42.239989" lon="2.845045">
        <ele>135.494</ele>
        <time>2020-10-17T18:14:58Z</time>
      </trkpt>
      <trkpt lat="42.240012" lon="2.845137">
        <ele>134.923</ele>
        <time>2020-10-17T18:14:59Z</time>
      </trkpt>
      <trkpt lat="42.240266" lon="2.845469">
        <ele>133.722</ele>
        <time>2020-10-17T18:15:03Z</time>
      </trkpt>
      <trkpt lat="42.240266" lon="2.845469">
        <ele>133.721</ele>
        <time>2020-10-17T18:15:03Z</time>
      </trkpt>
      <trkpt lat="42.240266" lon="2.845469">
        <ele>133.749</ele>
        <time>2020-10-17T18:15:03Z</time>
      </trkpt>
      <trkpt lat="42.240266" lon="2.845469">
        <ele>133.719</ele>
        <time>2020-10-17T18:15:03Z</time>
      </trkpt>
      <trkpt lat="42.240340" lon="2.845535">
        <ele>133.474</ele>
        <time>2020-10-17T18:15:04Z</time>
      </trkpt>
      <trkpt lat="42.240486" lon="2.845636">
        <ele>133.196</ele>
        <time>2020-10-17T18:15:06Z</time>
      </trkpt>
      <trkpt lat="42.240560" lon="2.845681">
        <ele>132.931</ele>
        <time>2020-10-17T18:15:07Z</time>
      </trkpt>
      <trkpt lat="42.240717" lon="2.845783">
        <ele>132.624</ele>
        <time>2020-10-17T18:15:09Z</time>
      </trkpt>
      <trkpt lat="42.240829" lon="2.845895">
        <ele>132.308</ele>
        <time>2020-10-17T18:15:11Z</time>
      </trkpt>
      <trkpt lat="42.240829" lon="2.845895">
        <ele>132.344</ele>
        <time>2020-10-17T18:15:11Z</time>
      </trkpt>
      <trkpt lat="42.240859" lon="2.845948">
        <ele>131.837</ele>
        <time>2020-10-17T18:15:15Z</time>
      </trkpt>
      <trkpt lat="42.240902" lon="2.846011">
        <ele>131.396</ele>
        <time>2020-10-17T18:15:17Z</time>
      </trkpt>
      <trkpt lat="42.240951" lon="2.846088">
        <ele>130.715</ele>
        <time>2020-10-17T18:15:19Z</time>
      </trkpt>
      <trkpt lat="42.241070" lon="2.846276">
        <ele>129.394</ele>
        <time>2020-10-17T18:15:23Z</time>
      </trkpt>
      <trkpt lat="42.241070" lon="2.846276">
        <ele>129.312</ele>
        <time>2020-10-17T18:15:23Z</time>
      </trkpt>
      <trkpt lat="42.241070" lon="2.846276">
        <ele>129.342</ele>
        <time>2020-10-17T18:15:23Z</time>
      </trkpt>
      <trkpt lat="42.241070" lon="2.846276">
        <ele>129.367</ele>
        <time>2020-10-17T18:15:23Z</time>
      </trkpt>
      <trkpt lat="42.241135" lon="2.846368">
        <ele>128.878</ele>
        <time>2020-10-17T18:15:25Z</time>
      </trkpt>
      <trkpt lat="42.241234" lon="2.846458">
        <ele>127.933</ele>
        <time>2020-10-17T18:15:27Z</time>
      </trkpt>
      <trkpt lat="42.241280" lon="2.846496">
        <ele>127.026</ele>
        <time>2020-10-17T18:15:28Z</time>
      </trkpt>
      <trkpt lat="42.241389" lon="2.846635">
        <ele>124.708</ele>
        <time>2020-10-17T18:15:32Z</time>
      </trkpt>
      <trkpt lat="42.241389" lon="2.846635">
        <ele>124.732</ele>
        <time>2020-10-17T18:15:32Z</time>
      </trkpt>
      <trkpt lat="42.241389" lon="2.846635">
        <ele>124.745</ele>
        <time>2020-10-17T18:15:32Z</time>
      </trkpt>
      <trkpt lat="42.241440" lon="2.846727">
        <ele>124.384</ele>
        <time>2020-10-17T18:15:34Z</time>
      </trkpt>
      <trkpt lat="42.241488" lon="2.846850">
        <ele>123.943</ele>
        <time>2020-10-17T18:15:36Z</time>
      </trkpt>
      <trkpt lat="42.241518" lon="2.847011">
        <ele>123.542</ele>
        <time>2020-10-17T18:15:38Z</time>
      </trkpt>
      <trkpt lat="42.241582" lon="2.847383">
        <ele>122.160</ele>
        <time>2020-10-17T18:15:43Z</time>
      </trkpt>
      <trkpt lat="42.241582" lon="2.847383">
        <ele>122.160</ele>
        <time>2020-10-17T18:15:43Z</time>
      </trkpt>
      <trkpt lat="42.241582" lon="2.847383">
        <ele>122.135</ele>
        <time>2020-10-17T18:15:43Z</time>
      </trkpt>
      <trkpt lat="42.241582" lon="2.847383">
        <ele>122.194</ele>
        <time>2020-10-17T18:15:43Z</time>
      </trkpt>
      <trkpt lat="42.241594" lon="2.847471">
        <ele>122.057</ele>
        <time>2020-10-17T18:15:44Z</time>
      </trkpt>
      <trkpt lat="42.241613" lon="2.847676">
        <ele>121.922</ele>
        <time>2020-10-17T18:15:46Z</time>
      </trkpt>
      <trkpt lat="42.241619" lon="2.847793">
        <ele>121.608</ele>
        <time>2020-10-17T18:15:47Z</time>
      </trkpt>
      <trkpt lat="42.241630" lon="2.848029">
        <ele>121.234</ele>
        <time>2020-10-17T18:15:49Z</time>
      </trkpt>
      <trkpt lat="42.241652" lon="2.848469">
        <ele>120.597</ele>
        <time>2020-10-17T18:15:53Z</time>
      </trkpt>
      <trkpt lat="42.241652" lon="2.848469">
        <ele>120.546</ele>
        <time>2020-10-17T18:15:53Z</time>
      </trkpt>
      <trkpt lat="42.241652" lon="2.848469">
        <ele>120.545</ele>
        <time>2020-10-17T18:15:53Z</time>
      </trkpt>
      <trkpt lat="42.241652" lon="2.848469">
        <ele>120.584</ele>
        <time>2020-10-17T18:15:53Z</time>
      </trkpt>
      <trkpt lat="42.241656" lon="2.848552">
        <ele>120.692</ele>
        <time>2020-10-17T18:15:54Z</time>
      </trkpt>
      <trkpt lat="42.241662" lon="2.848612">
        <ele>120.782</ele>
        <time>2020-10-17T18:15:55Z</time>
      </trkpt>
      <trkpt lat="42.241669" lon="2.848728">
        <ele>120.797</ele>
        <time>2020-10-17T18:16:03Z</time>
      </trkpt>
      <trkpt lat="42.241669" lon="2.848728">
        <ele>120.794</ele>
        <time>2020-10-17T18:16:03Z</time>
      </trkpt>
      <trkpt lat="42.241669" lon="2.848728">
        <ele>120.757</ele>
        <time>2020-10-17T18:16:03Z</time>
      </trkpt>
      <trkpt lat="42.241669" lon="2.848728">
        <ele>120.722</ele>
        <time>2020-10-17T18:16:03Z</time>
      </trkpt>
      <trkpt lat="42.241669" lon="2.848728">
        <ele>120.708</ele>
        <time>2020-10-17T18:16:03Z</time>
      </trkpt>
      <trkpt lat="42.241679" lon="2.848795">
        <ele>120.414</ele>
        <time>2020-10-17T18:16:05Z</time>
      </trkpt>
      <trkpt lat="42.241692" lon="2.848903">
        <ele>120.037</ele>
        <time>2020-10-17T18:16:07Z</time>
      </trkpt>
      <trkpt lat="42.241699" lon="2.848965">
        <ele>119.746</ele>
        <time>2020-10-17T18:16:08Z</time>
      </trkpt>
      <trkpt lat="42.241760" lon="2.849282">
        <ele>118.695</ele>
        <time>2020-10-17T18:16:13Z</time>
      </trkpt>
      <trkpt lat="42.241760" lon="2.849282">
        <ele>118.614</ele>
        <time>2020-10-17T18:16:13Z</time>
      </trkpt>
      <trkpt lat="42.241760" lon="2.849282">
        <ele>118.632</ele>
        <time>2020-10-17T18:16:13Z</time>
      </trkpt>
      <trkpt lat="42.241760" lon="2.849282">
        <ele>118.662</ele>
        <time>2020-10-17T18:16:13Z</time>
      </trkpt>
      <trkpt lat="42.241776" lon="2.849345">
        <ele>118.487</ele>
        <time>2020-10-17T18:16:14Z</time>
      </trkpt>
      <trkpt lat="42.241811" lon="2.849480">
        <ele>118.255</ele>
        <time>2020-10-17T18:16:16Z</time>
      </trkpt>
      <trkpt lat="42.241830" lon="2.849561">
        <ele>118.007</ele>
        <time>2020-10-17T18:16:17Z</time>
      </trkpt>
      <trkpt lat="42.241867" lon="2.849737">
        <ele>117.817</ele>
        <time>2020-10-17T18:16:19Z</time>
      </trkpt>
      <trkpt lat="42.241898" lon="2.849908">
        <ele>117.608</ele>
        <time>2020-10-17T18:16:21Z</time>
      </trkpt>
      <trkpt lat="42.241898" lon="2.849908">
        <ele>117.640</ele>
        <time>2020-10-17T18:16:21Z</time>
      </trkpt>
      <trkpt lat="42.241940" lon="2.850085">
        <ele>117.523</ele>
        <time>2020-10-17T18:16:23Z</time>
      </trkpt>
      <trkpt lat="42.241940" lon="2.850085">
        <ele>117.532</ele>
        <time>2020-10-17T18:16:23Z</time>
      </trkpt>
      <trkpt lat="42.241995" lon="2.850262">
        <ele>117.311</ele>
        <time>2020-10-17T18:16:25Z</time>
      </trkpt>
      <trkpt lat="42.242057" lon="2.850421">
        <ele>117.120</ele>
        <time>2020-10-17T18:16:27Z</time>
      </trkpt>
      <trkpt lat="42.242086" lon="2.850493">
        <ele>116.988</ele>
        <time>2020-10-17T18:16:28Z</time>
      </trkpt>
      <trkpt lat="42.242198" lon="2.850763">
        <ele>116.458</ele>
        <time>2020-10-17T18:16:32Z</time>
      </trkpt>
      <trkpt lat="42.242198" lon="2.850763">
        <ele>116.443</ele>
        <time>2020-10-17T18:16:32Z</time>
      </trkpt>
      <trkpt lat="42.242198" lon="2.850763">
        <ele>116.493</ele>
        <time>2020-10-17T18:16:32Z</time>
      </trkpt>
      <trkpt lat="42.242249" lon="2.850903">
        <ele>116.265</ele>
        <time>2020-10-17T18:16:34Z</time>
      </trkpt>
      <trkpt lat="42.242274" lon="2.850975">
        <ele>116.121</ele>
        <time>2020-10-17T18:16:35Z</time>
      </trkpt>
      <trkpt lat="42.242299" lon="2.851049">
        <ele>116.008</ele>
        <time>2020-10-17T18:16:36Z</time>
      </trkpt>
      <trkpt lat="42.242356" lon="2.851191">
        <ele>115.864</ele>
        <time>2020-10-17T18:16:38Z</time>
      </trkpt>
      <trkpt lat="42.242520" lon="2.851504">
        <ele>115.187</ele>
        <time>2020-10-17T18:16:43Z</time>
      </trkpt>
      <trkpt lat="42.242520" lon="2.851504">
        <ele>115.176</ele>
        <time>2020-10-17T18:16:43Z</time>
      </trkpt>
      <trkpt lat="42.242520" lon="2.851504">
        <ele>115.135</ele>
        <time>2020-10-17T18:16:43Z</time>
      </trkpt>
      <trkpt lat="42.242520" lon="2.851504">
        <ele>115.194</ele>
        <time>2020-10-17T18:16:43Z</time>
      </trkpt>
      <trkpt lat="42.242595" lon="2.851640">
        <ele>114.782</ele>
        <time>2020-10-17T18:16:45Z</time>
      </trkpt>
      <trkpt lat="42.242656" lon="2.851803">
        <ele>114.152</ele>
        <time>2020-10-17T18:16:47Z</time>
      </trkpt>
      <trkpt lat="42.242682" lon="2.851892">
        <ele>113.697</ele>
        <time>2020-10-17T18:16:48Z</time>
      </trkpt>
      <trkpt lat="42.242760" lon="2.852209">
        <ele>112.698</ele>
        <time>2020-10-17T18:16:52Z</time>
      </trkpt>
      <trkpt lat="42.242760" lon="2.852209">
        <ele>112.615</ele>
        <time>2020-10-17T18:16:52Z</time>
      </trkpt>
      <trkpt lat="42.242760" lon="2.852209">
        <ele>112.626</ele>
        <time>2020-10-17T18:16:52Z</time>
      </trkpt>
      <trkpt lat="42.242788" lon="2.852275">
        <ele>112.408</ele>
        <time>2020-10-17T18:16:53Z</time>
      </trkpt>
      <trkpt lat="42.242854" lon="2.852402">
        <ele>112.324</ele>
        <time>2020-10-17T18:16:55Z</time>
      </trkpt>
      <trkpt lat="42.242910" lon="2.852533">
        <ele>112.257</ele>
        <time>2020-10-17T18:16:57Z</time>
      </trkpt>
      <trkpt lat="42.242929" lon="2.852602">
        <ele>112.176</ele>
        <time>2020-10-17T18:16:58Z</time>
      </trkpt>
      <trkpt lat="42.242940" lon="2.852675">
        <ele>111.935</ele>
        <time>2020-10-17T18:16:59Z</time>
      </trkpt>
      <trkpt lat="42.242897" lon="2.852952">
        <ele>111.054</ele>
        <time>2020-10-17T18:17:03Z</time>
      </trkpt>
      <trkpt lat="42.242897" lon="2.852952">
        <ele>111.052</ele>
        <time>2020-10-17T18:17:03Z</time>
      </trkpt>
      <trkpt lat="42.242897" lon="2.852952">
        <ele>111.022</ele>
        <time>2020-10-17T18:17:03Z</time>
      </trkpt>
      <trkpt lat="42.242897" lon="2.852952">
        <ele>111.077</ele>
        <time>2020-10-17T18:17:03Z</time>
      </trkpt>
      <trkpt lat="42.242853" lon="2.853091">
        <ele>110.528</ele>
        <time>2020-10-17T18:17:05Z</time>
      </trkpt>
      <trkpt lat="42.242835" lon="2.853167">
        <ele>110.189</ele>
        <time>2020-10-17T18:17:06Z</time>
      </trkpt>
      <trkpt lat="42.242823" lon="2.853247">
        <ele>109.717</ele>
        <time>2020-10-17T18:17:07Z</time>
      </trkpt>
      <trkpt lat="42.242815" lon="2.853410">
        <ele>109.108</ele>
        <time>2020-10-17T18:17:09Z</time>
      </trkpt>
      <trkpt lat="42.242898" lon="2.853708">
        <ele>107.627</ele>
        <time>2020-10-17T18:17:13Z</time>
      </trkpt>
      <trkpt lat="42.242898" lon="2.853708">
        <ele>107.670</ele>
        <time>2020-10-17T18:17:13Z</time>
      </trkpt>
      <trkpt lat="42.242898" lon="2.853708">
        <ele>107.629</ele>
        <time>2020-10-17T18:17:13Z</time>
      </trkpt>
      <trkpt lat="42.242977" lon="2.853833">
        <ele>107.088</ele>
        <time>2020-10-17T18:17:15Z</time>
      </trkpt>
      <trkpt lat="42.243021" lon="2.853894">
        <ele>106.587</ele>
        <time>2020-10-17T18:17:16Z</time>
      </trkpt>
      <trkpt lat="42.243068" lon="2.853948">
        <ele>106.135</ele>
        <time>2020-10-17T18:17:17Z</time>
      </trkpt>
      <trkpt lat="42.243116" lon="2.853994">
        <ele>105.825</ele>
        <time>2020-10-17T18:17:18Z</time>
      </trkpt>
      <trkpt lat="42.243379" lon="2.854127">
        <ele>105.170</ele>
        <time>2020-10-17T18:17:23Z</time>
      </trkpt>
      <trkpt lat="42.243379" lon="2.854127">
        <ele>105.124</ele>
        <time>2020-10-17T18:17:23Z</time>
      </trkpt>
      <trkpt lat="42.243379" lon="2.854127">
        <ele>105.104</ele>
        <time>2020-10-17T18:17:23Z</time>
      </trkpt>
      <trkpt lat="42.243379" lon="2.854127">
        <ele>105.114</ele>
        <time>2020-10-17T18:17:23Z</time>
      </trkpt>
      <trkpt lat="42.243426" lon="2.854136">
        <ele>105.008</ele>
        <time>2020-10-17T18:17:24Z</time>
      </trkpt>
      <trkpt lat="42.243522" lon="2.854155">
        <ele>104.997</ele>
        <time>2020-10-17T18:17:26Z</time>
      </trkpt>
      <trkpt lat="42.243611" lon="2.854207">
        <ele>104.930</ele>
        <time>2020-10-17T18:17:29Z</time>
      </trkpt>
      <trkpt lat="42.243747" lon="2.854397">
        <ele>104.749</ele>
        <time>2020-10-17T18:17:32Z</time>
      </trkpt>
      <trkpt lat="42.243747" lon="2.854397">
        <ele>104.718</ele>
        <time>2020-10-17T18:17:32Z</time>
      </trkpt>
      <trkpt lat="42.243747" lon="2.854397">
        <ele>104.777</ele>
        <time>2020-10-17T18:17:32Z</time>
      </trkpt>
      <trkpt lat="42.243747" lon="2.854397">
        <ele>104.745</ele>
        <time>2020-10-17T18:17:32Z</time>
      </trkpt>
      <trkpt lat="42.243823" lon="2.854503">
        <ele>104.525</ele>
        <time>2020-10-17T18:17:34Z</time>
      </trkpt>
      <trkpt lat="42.243898" lon="2.854599">
        <ele>104.260</ele>
        <time>2020-10-17T18:17:36Z</time>
      </trkpt>
      <trkpt lat="42.243953" lon="2.854680">
        <ele>104.049</ele>
        <time>2020-10-17T18:17:38Z</time>
      </trkpt>
      <trkpt lat="42.244018" lon="2.854831">
        <ele>103.602</ele>
        <time>2020-10-17T18:17:42Z</time>
      </trkpt>
      <trkpt lat="42.244018" lon="2.854831">
        <ele>103.622</ele>
        <time>2020-10-17T18:17:42Z</time>
      </trkpt>
      <trkpt lat="42.244018" lon="2.854831">
        <ele>103.608</ele>
        <time>2020-10-17T18:17:42Z</time>
      </trkpt>
      <trkpt lat="42.244018" lon="2.854831">
        <ele>103.649</ele>
        <time>2020-10-17T18:17:42Z</time>
      </trkpt>
      <trkpt lat="42.244004" lon="2.854913">
        <ele>103.482</ele>
        <time>2020-10-17T18:17:44Z</time>
      </trkpt>
      <trkpt lat="42.243968" lon="2.855020">
        <ele>102.931</ele>
        <time>2020-10-17T18:17:46Z</time>
      </trkpt>
      <trkpt lat="42.243931" lon="2.855119">
        <ele>102.410</ele>
        <time>2020-10-17T18:17:48Z</time>
      </trkpt>
      <trkpt lat="42.243887" lon="2.855332">
        <ele>101.639</ele>
        <time>2020-10-17T18:17:52Z</time>
      </trkpt>
      <trkpt lat="42.243887" lon="2.855332">
        <ele>101.677</ele>
        <time>2020-10-17T18:17:52Z</time>
      </trkpt>
      <trkpt lat="42.243887" lon="2.855332">
        <ele>101.657</ele>
        <time>2020-10-17T18:17:52Z</time>
      </trkpt>
      <trkpt lat="42.243887" lon="2.855332">
        <ele>101.632</ele>
        <time>2020-10-17T18:17:52Z</time>
      </trkpt>
      <trkpt lat="42.243926" lon="2.855401">
        <ele>101.531</ele>
        <time>2020-10-17T18:17:54Z</time>
      </trkpt>
      <trkpt lat="42.243985" lon="2.855505">
        <ele>101.361</ele>
        <time>2020-10-17T18:17:56Z</time>
      </trkpt>
      <trkpt lat="42.244017" lon="2.855561">
        <ele>101.107</ele>
        <time>2020-10-17T18:17:57Z</time>
      </trkpt>
      <trkpt lat="42.244049" lon="2.855619">
        <ele>100.908</ele>
        <time>2020-10-17T18:17:58Z</time>
      </trkpt>
      <trkpt lat="42.244157" lon="2.855844">
        <ele>99.968</ele>
        <time>2020-10-17T18:18:02Z</time>
      </trkpt>
      <trkpt lat="42.244157" lon="2.855844">
        <ele>99.941</ele>
        <time>2020-10-17T18:18:02Z</time>
      </trkpt>
      <trkpt lat="42.244157" lon="2.855844">
        <ele>99.990</ele>
        <time>2020-10-17T18:18:02Z</time>
      </trkpt>
      <trkpt lat="42.244157" lon="2.855844">
        <ele>99.939</ele>
        <time>2020-10-17T18:18:02Z</time>
      </trkpt>
      <trkpt lat="42.244184" lon="2.855893">
        <ele>99.698</ele>
        <time>2020-10-17T18:18:03Z</time>
      </trkpt>
      <trkpt lat="42.244244" lon="2.855990">
        <ele>99.316</ele>
        <time>2020-10-17T18:18:05Z</time>
      </trkpt>
      <trkpt lat="42.244276" lon="2.856061">
        <ele>99.176</ele>
        <time>2020-10-17T18:18:06Z</time>
      </trkpt>
      <trkpt lat="42.244314" lon="2.856156">
        <ele>98.971</ele>
        <time>2020-10-17T18:18:08Z</time>
      </trkpt>
      <trkpt lat="42.244382" lon="2.856339">
        <ele>98.298</ele>
        <time>2020-10-17T18:18:12Z</time>
      </trkpt>
      <trkpt lat="42.244382" lon="2.856339">
        <ele>98.215</ele>
        <time>2020-10-17T18:18:12Z</time>
      </trkpt>
      <trkpt lat="42.244382" lon="2.856339">
        <ele>98.226</ele>
        <time>2020-10-17T18:18:12Z</time>
      </trkpt>
      <trkpt lat="42.244382" lon="2.856339">
        <ele>98.208</ele>
        <time>2020-10-17T18:18:12Z</time>
      </trkpt>
      <trkpt lat="42.244409" lon="2.856421">
        <ele>97.854</ele>
        <time>2020-10-17T18:18:15Z</time>
      </trkpt>
      <trkpt lat="42.244421" lon="2.856522">
        <ele>97.427</ele>
        <time>2020-10-17T18:18:17Z</time>
      </trkpt>
      <trkpt lat="42.244390" lon="2.856651">
        <ele>95.986</ele>
        <time>2020-10-17T18:18:22Z</time>
      </trkpt>
      <trkpt lat="42.244390" lon="2.856651">
        <ele>95.995</ele>
        <time>2020-10-17T18:18:22Z</time>
      </trkpt>
      <trkpt lat="42.244390" lon="2.856651">
        <ele>95.984</ele>
        <time>2020-10-17T18:18:22Z</time>
      </trkpt>
      <trkpt lat="42.244390" lon="2.856651">
        <ele>95.932</ele>
        <time>2020-10-17T18:18:22Z</time>
      </trkpt>
      <trkpt lat="42.244375" lon="2.856734">
        <ele>95.152</ele>
        <time>2020-10-17T18:18:24Z</time>
      </trkpt>
      <trkpt lat="42.244378" lon="2.856830">
        <ele>94.177</ele>
        <time>2020-10-17T18:18:26Z</time>
      </trkpt>
      <trkpt lat="42.244403" lon="2.856966">
        <ele>93.062</ele>
        <time>2020-10-17T18:18:28Z</time>
      </trkpt>
      <trkpt lat="42.244306" lon="2.857127">
        <ele>90.383</ele>
        <time>2020-10-17T18:18:32Z</time>
      </trkpt>
      <trkpt lat="42.244306" lon="2.857127">
        <ele>90.311</ele>
        <time>2020-10-17T18:18:32Z</time>
      </trkpt>
      <trkpt lat="42.244306" lon="2.857127">
        <ele>90.308</ele>
        <time>2020-10-17T18:18:32Z</time>
      </trkpt>
      <trkpt lat="42.244306" lon="2.857127">
        <ele>90.321</ele>
        <time>2020-10-17T18:18:32Z</time>
      </trkpt>
      <trkpt lat="42.244222" lon="2.857162">
        <ele>89.744</ele>
        <time>2020-10-17T18:18:34Z</time>
      </trkpt>
      <trkpt lat="42.244131" lon="2.857180">
        <ele>89.313</ele>
        <time>2020-10-17T18:18:36Z</time>
      </trkpt>
      <trkpt lat="42.244074" lon="2.857194">
        <ele>89.182</ele>
        <time>2020-10-17T18:18:37Z</time>
      </trkpt>
      <trkpt lat="42.243934" lon="2.857287">
        <ele>88.361</ele>
        <time>2020-10-17T18:18:42Z</time>
      </trkpt>
      <trkpt lat="42.243934" lon="2.857287">
        <ele>88.319</ele>
        <time>2020-10-17T18:18:42Z</time>
      </trkpt>
      <trkpt lat="42.243934" lon="2.857287">
        <ele>88.359</ele>
        <time>2020-10-17T18:18:42Z</time>
      </trkpt>
      <trkpt lat="42.243934" lon="2.857287">
        <ele>88.314</ele>
        <time>2020-10-17T18:18:42Z</time>
      </trkpt>
      <trkpt lat="42.243890" lon="2.857310">
        <ele>88.085</ele>
        <time>2020-10-17T18:18:44Z</time>
      </trkpt>
      <trkpt lat="42.243832" lon="2.857321">
        <ele>87.589</ele>
        <time>2020-10-17T18:18:46Z</time>
      </trkpt>
      <trkpt lat="42.243737" lon="2.857319">
        <ele>87.017</ele>
        <time>2020-10-17T18:18:48Z</time>
      </trkpt>
      <trkpt lat="42.243550" lon="2.857322">
        <ele>84.708</ele>
        <time>2020-10-17T18:18:52Z</time>
      </trkpt>
      <trkpt lat="42.243550" lon="2.857322">
        <ele>84.723</ele>
        <time>2020-10-17T18:18:52Z</time>
      </trkpt>
      <trkpt lat="42.243550" lon="2.857322">
        <ele>84.796</ele>
        <time>2020-10-17T18:18:52Z</time>
      </trkpt>
      <trkpt lat="42.243550" lon="2.857322">
        <ele>84.735</ele>
        <time>2020-10-17T18:18:52Z</time>
      </trkpt>
      <trkpt lat="42.243432" lon="2.857321">
        <ele>83.784</ele>
        <time>2020-10-17T18:18:54Z</time>
      </trkpt>
      <trkpt lat="42.243304" lon="2.857324">
        <ele>82.613</ele>
        <time>2020-10-17T18:18:56Z</time>
      </trkpt>
      <trkpt lat="42.243245" lon="2.857328">
        <ele>81.711</ele>
        <time>2020-10-17T18:18:57Z</time>
      </trkpt>
      <trkpt lat="42.243188" lon="2.857333">
        <ele>81.021</ele>
        <time>2020-10-17T18:18:58Z</time>
      </trkpt>
      <trkpt lat="42.242994" lon="2.857345">
        <ele>78.776</ele>
        <time>2020-10-17T18:19:02Z</time>
      </trkpt>
      <trkpt lat="42.242994" lon="2.857345">
        <ele>78.757</ele>
        <time>2020-10-17T18:19:02Z</time>
      </trkpt>
      <trkpt lat="42.242994" lon="2.857345">
        <ele>78.700</ele>
        <time>2020-10-17T18:19:02Z</time>
      </trkpt>
      <trkpt lat="42.242994" lon="2.857345">
        <ele>78.720</ele>
        <time>2020-10-17T18:19:02Z</time>
      </trkpt>
      <trkpt lat="42.242937" lon="2.857381">
        <ele>77.708</ele>
        <time>2020-10-17T18:19:04Z</time>
      </trkpt>
      <trkpt lat="42.242926" lon="2.857480">
        <ele>76.250</ele>
        <time>2020-10-17T18:19:06Z</time>
      </trkpt>
      <trkpt lat="42.242961" lon="2.857638">
        <ele>74.693</ele>
        <time>2020-10-17T18:19:08Z</time>
      </trkpt>
      <trkpt lat="42.243105" lon="2.858075">
        <ele>72.522</ele>
        <time>2020-10-17T18:19:12Z</time>
      </trkpt>
      <trkpt lat="42.243105" lon="2.858075">
        <ele>72.541</ele>
        <time>2020-10-17T18:19:12Z</time>
      </trkpt>
      <trkpt lat="42.243105" lon="2.858075">
        <ele>72.550</ele>
        <time>2020-10-17T18:19:12Z</time>
      </trkpt>
      <trkpt lat="42.243105" lon="2.858075">
        <ele>72.558</ele>
        <time>2020-10-17T18:19:12Z</time>
      </trkpt>
      <trkpt lat="42.243138" lon="2.858176">
        <ele>72.348</ele>
        <time>2020-10-17T18:19:13Z</time>
      </trkpt>
      <trkpt lat="42.243200" lon="2.858363">
        <ele>72.693</ele>
        <time>2020-10-17T18:19:15Z</time>
      </trkpt>
      <trkpt lat="42.243226" lon="2.858447">
        <ele>73.034</ele>
        <time>2020-10-17T18:19:16Z</time>
      </trkpt>
      <trkpt lat="42.243269" lon="2.858592">
        <ele>73.755</ele>
        <time>2020-10-17T18:19:18Z</time>
      </trkpt>
      <trkpt lat="42.243328" lon="2.858806">
        <ele>75.010</ele>
        <time>2020-10-17T18:19:21Z</time>
      </trkpt>
      <trkpt lat="42.243328" lon="2.858806">
        <ele>75.008</ele>
        <time>2020-10-17T18:19:21Z</time>
      </trkpt>
      <trkpt lat="42.243328" lon="2.858806">
        <ele>75.058</ele>
        <time>2020-10-17T18:19:21Z</time>
      </trkpt>
      <trkpt lat="42.243365" lon="2.858963">
        <ele>75.541</ele>
        <time>2020-10-17T18:19:23Z</time>
      </trkpt>
      <trkpt lat="42.243407" lon="2.859126">
        <ele>75.960</ele>
        <time>2020-10-17T18:19:25Z</time>
      </trkpt>
      <trkpt lat="42.243429" lon="2.859209">
        <ele>76.169</ele>
        <time>2020-10-17T18:19:26Z</time>
      </trkpt>
      <trkpt lat="42.243481" lon="2.859376">
        <ele>76.438</ele>
        <time>2020-10-17T18:19:28Z</time>
      </trkpt>
      <trkpt lat="42.243630" lon="2.859603">
        <ele>77.296</ele>
        <time>2020-10-17T18:19:32Z</time>
      </trkpt>
      <trkpt lat="42.243630" lon="2.859603">
        <ele>77.216</ele>
        <time>2020-10-17T18:19:32Z</time>
      </trkpt>
      <trkpt lat="42.243630" lon="2.859603">
        <ele>77.261</ele>
        <time>2020-10-17T18:19:32Z</time>
      </trkpt>
      <trkpt lat="42.243630" lon="2.859603">
        <ele>77.287</ele>
        <time>2020-10-17T18:19:32Z</time>
      </trkpt>
      <trkpt lat="42.243671" lon="2.859692">
        <ele>77.542</ele>
        <time>2020-10-17T18:19:34Z</time>
      </trkpt>
      <trkpt lat="42.243679" lon="2.859789">
        <ele>77.726</ele>
        <time>2020-10-17T18:19:36Z</time>
      </trkpt>
      <trkpt lat="42.243679" lon="2.859887">
        <ele>77.708</ele>
        <time>2020-10-17T18:19:38Z</time>
      </trkpt>
      <trkpt lat="42.243699" lon="2.860026">
        <ele>77.653</ele>
        <time>2020-10-17T18:19:41Z</time>
      </trkpt>
      <trkpt lat="42.243699" lon="2.860026">
        <ele>77.686</ele>
        <time>2020-10-17T18:19:41Z</time>
      </trkpt>
      <trkpt lat="42.243699" lon="2.860026">
        <ele>77.645</ele>
        <time>2020-10-17T18:19:41Z</time>
      </trkpt>
      <trkpt lat="42.243699" lon="2.860026">
        <ele>77.684</ele>
        <time>2020-10-17T18:19:41Z</time>
      </trkpt>
      <trkpt lat="42.243786" lon="2.860168">
        <ele>77.643</ele>
        <time>2020-10-17T18:19:52Z</time>
      </trkpt>
      <trkpt lat="42.243786" lon="2.860168">
        <ele>77.651</ele>
        <time>2020-10-17T18:19:52Z</time>
      </trkpt>
      <trkpt lat="42.243786" lon="2.860168">
        <ele>77.611</ele>
        <time>2020-10-17T18:19:52Z</time>
      </trkpt>
      <trkpt lat="42.243786" lon="2.860168">
        <ele>77.616</ele>
        <time>2020-10-17T18:19:52Z</time>
      </trkpt>
      <trkpt lat="42.243833" lon="2.860220">
        <ele>78.081</ele>
        <time>2020-10-17T18:19:54Z</time>
      </trkpt>
      <trkpt lat="42.243898" lon="2.860315">
        <ele>78.461</ele>
        <time>2020-10-17T18:19:56Z</time>
      </trkpt>
      <trkpt lat="42.243952" lon="2.860411">
        <ele>78.617</ele>
        <time>2020-10-17T18:19:58Z</time>
      </trkpt>
      <trkpt lat="42.244049" lon="2.860694">
        <ele>78.908</ele>
        <time>2020-10-17T18:20:02Z</time>
      </trkpt>
      <trkpt lat="42.244049" lon="2.860694">
        <ele>78.953</ele>
        <time>2020-10-17T18:20:02Z</time>
      </trkpt>
      <trkpt lat="42.244049" lon="2.860694">
        <ele>78.936</ele>
        <time>2020-10-17T18:20:02Z</time>
      </trkpt>
      <trkpt lat="42.244074" lon="2.860761">
        <ele>78.925</ele>
        <time>2020-10-17T18:20:03Z</time>
      </trkpt>
      <trkpt lat="42.244099" lon="2.860824">
        <ele>78.974</ele>
        <time>2020-10-17T18:20:04Z</time>
      </trkpt>
      <trkpt lat="42.244153" lon="2.860916">
        <ele>79.033</ele>
        <time>2020-10-17T18:20:06Z</time>
      </trkpt>
      <trkpt lat="42.244200" lon="2.860982">
        <ele>79.291</ele>
        <time>2020-10-17T18:20:08Z</time>
      </trkpt>
      <trkpt lat="42.244239" lon="2.861110">
        <ele>79.681</ele>
        <time>2020-10-17T18:20:11Z</time>
      </trkpt>
      <trkpt lat="42.244239" lon="2.861110">
        <ele>79.666</ele>
        <time>2020-10-17T18:20:11Z</time>
      </trkpt>
      <trkpt lat="42.244239" lon="2.861110">
        <ele>79.614</ele>
        <time>2020-10-17T18:20:11Z</time>
      </trkpt>
      <trkpt lat="42.244258" lon="2.861226">
        <ele>79.954</ele>
        <time>2020-10-17T18:20:13Z</time>
      </trkpt>
      <trkpt lat="42.244273" lon="2.861294">
        <ele>80.309</ele>
        <time>2020-10-17T18:20:14Z</time>
      </trkpt>
      <trkpt lat="42.244292" lon="2.861359">
        <ele>80.708</ele>
        <time>2020-10-17T18:20:15Z</time>
      </trkpt>
      <trkpt lat="42.244312" lon="2.861424">
        <ele>81.236</ele>
        <time>2020-10-17T18:20:16Z</time>
      </trkpt>
      <trkpt lat="42.244354" lon="2.861550">
        <ele>81.939</ele>
        <time>2020-10-17T18:20:18Z</time>
      </trkpt>
      <trkpt lat="42.244377" lon="2.861606">
        <ele>82.588</ele>
        <time>2020-10-17T18:20:19Z</time>
      </trkpt>
      <trkpt lat="42.244427" lon="2.861670">
        <ele>83.147</ele>
        <time>2020-10-17T18:20:21Z</time>
      </trkpt>
      <trkpt lat="42.244483" lon="2.861647">
        <ele>83.856</ele>
        <time>2020-10-17T18:20:23Z</time>
      </trkpt>
      <trkpt lat="42.244505" lon="2.861567">
        <ele>84.534</ele>
        <time>2020-10-17T18:20:25Z</time>
      </trkpt>
      <trkpt lat="42.244467" lon="2.861468">
        <ele>85.254</ele>
        <time>2020-10-17T18:20:27Z</time>
      </trkpt>
      <trkpt lat="42.244445" lon="2.861408">
        <ele>85.879</ele>
        <time>2020-10-17T18:20:28Z</time>
      </trkpt>
      <trkpt lat="42.244416" lon="2.861271">
        <ele>86.322</ele>
        <time>2020-10-17T18:20:30Z</time>
      </trkpt>
      <trkpt lat="42.244407" lon="2.861208">
        <ele>86.762</ele>
        <time>2020-10-17T18:20:31Z</time>
      </trkpt>
      <trkpt lat="42.244392" lon="2.861114">
        <ele>87.008</ele>
        <time>2020-10-17T18:20:33Z</time>
      </trkpt>
      <trkpt lat="42.244397" lon="2.860859">
        <ele>88.608</ele>
        <time>2020-10-17T18:20:38Z</time>
      </trkpt>
      <trkpt lat="42.244397" lon="2.860859">
        <ele>88.627</ele>
        <time>2020-10-17T18:20:38Z</time>
      </trkpt>
      <trkpt lat="42.244397" lon="2.860859">
        <ele>88.680</ele>
        <time>2020-10-17T18:20:38Z</time>
      </trkpt>
      <trkpt lat="42.244397" lon="2.860859">
        <ele>88.639</ele>
        <time>2020-10-17T18:20:38Z</time>
      </trkpt>
      <trkpt lat="42.244450" lon="2.860786">
        <ele>89.068</ele>
        <time>2020-10-17T18:20:40Z</time>
      </trkpt>
      <trkpt lat="42.244543" lon="2.860749">
        <ele>89.437</ele>
        <time>2020-10-17T18:20:42Z</time>
      </trkpt>
      <trkpt lat="42.244618" lon="2.860721">
        <ele>89.865</ele>
        <time>2020-10-17T18:20:44Z</time>
      </trkpt>
      <trkpt lat="42.244786" lon="2.860605">
        <ele>91.485</ele>
        <time>2020-10-17T18:20:48Z</time>
      </trkpt>
      <trkpt lat="42.244786" lon="2.860605">
        <ele>91.410</ele>
        <time>2020-10-17T18:20:48Z</time>
      </trkpt>
      <trkpt lat="42.244786" lon="2.860605">
        <ele>91.424</ele>
        <time>2020-10-17T18:20:48Z</time>
      </trkpt>
      <trkpt lat="42.244786" lon="2.860605">
        <ele>91.404</ele>
        <time>2020-10-17T18:20:48Z</time>
      </trkpt>
      <trkpt lat="42.244860" lon="2.860551">
        <ele>91.914</ele>
        <time>2020-10-17T18:20:50Z</time>
      </trkpt>
      <trkpt lat="42.244901" lon="2.860515">
        <ele>92.308</ele>
        <time>2020-10-17T18:20:51Z</time>
      </trkpt>
      <trkpt lat="42.244944" lon="2.860473">
        <ele>92.627</ele>
        <time>2020-10-17T18:20:52Z</time>
      </trkpt>
      <trkpt lat="42.245031" lon="2.860386">
        <ele>93.080</ele>
        <time>2020-10-17T18:20:54Z</time>
      </trkpt>
      <trkpt lat="42.245125" lon="2.860300">
        <ele>93.769</ele>
        <time>2020-10-17T18:20:56Z</time>
      </trkpt>
      <trkpt lat="42.245125" lon="2.860300">
        <ele>93.738</ele>
        <time>2020-10-17T18:20:56Z</time>
      </trkpt>
      <trkpt lat="42.245227" lon="2.860210">
        <ele>94.327</ele>
        <time>2020-10-17T18:20:58Z</time>
      </trkpt>
      <trkpt lat="42.245227" lon="2.860210">
        <ele>94.385</ele>
        <time>2020-10-17T18:20:58Z</time>
      </trkpt>
      <trkpt lat="42.245283" lon="2.860168">
        <ele>94.835</ele>
        <time>2020-10-17T18:20:59Z</time>
      </trkpt>
      <trkpt lat="42.245389" lon="2.860101">
        <ele>95.220</ele>
        <time>2020-10-17T18:21:01Z</time>
      </trkpt>
      <trkpt lat="42.245434" lon="2.860085">
        <ele>95.765</ele>
        <time>2020-10-17T18:21:02Z</time>
      </trkpt>
      <trkpt lat="42.245487" lon="2.860133">
        <ele>96.468</ele>
        <time>2020-10-17T18:21:04Z</time>
      </trkpt>
      <trkpt lat="42.245484" lon="2.860230">
        <ele>97.414</ele>
        <time>2020-10-17T18:21:06Z</time>
      </trkpt>
      <trkpt lat="42.245484" lon="2.860230">
        <ele>97.408</ele>
        <time>2020-10-17T18:21:06Z</time>
      </trkpt>
      <trkpt lat="42.245488" lon="2.860377">
        <ele>98.361</ele>
        <time>2020-10-17T18:21:08Z</time>
      </trkpt>
      <trkpt lat="42.245488" lon="2.860377">
        <ele>98.334</ele>
        <time>2020-10-17T18:21:08Z</time>
      </trkpt>
      <trkpt lat="42.245515" lon="2.860563">
        <ele>98.973</ele>
        <time>2020-10-17T18:21:10Z</time>
      </trkpt>
      <trkpt lat="42.245534" lon="2.860659">
        <ele>99.222</ele>
        <time>2020-10-17T18:21:11Z</time>
      </trkpt>
      <trkpt lat="42.245573" lon="2.860845">
        <ele>99.151</ele>
        <time>2020-10-17T18:21:13Z</time>
      </trkpt>
      <trkpt lat="42.245592" lon="2.860939">
        <ele>99.259</ele>
        <time>2020-10-17T18:21:14Z</time>
      </trkpt>
      <trkpt lat="42.245686" lon="2.861298">
        <ele>99.459</ele>
        <time>2020-10-17T18:21:18Z</time>
      </trkpt>
      <trkpt lat="42.245686" lon="2.861298">
        <ele>99.424</ele>
        <time>2020-10-17T18:21:18Z</time>
      </trkpt>
      <trkpt lat="42.245686" lon="2.861298">
        <ele>99.481</ele>
        <time>2020-10-17T18:21:18Z</time>
      </trkpt>
      <trkpt lat="42.245686" lon="2.861298">
        <ele>99.461</ele>
        <time>2020-10-17T18:21:18Z</time>
      </trkpt>
      <trkpt lat="42.245733" lon="2.861459">
        <ele>99.517</ele>
        <time>2020-10-17T18:21:20Z</time>
      </trkpt>
      <trkpt lat="42.245770" lon="2.861617">
        <ele>99.508</ele>
        <time>2020-10-17T18:21:22Z</time>
      </trkpt>
      <trkpt lat="42.245796" lon="2.861769">
        <ele>99.493</ele>
        <time>2020-10-17T18:21:24Z</time>
      </trkpt>
      <trkpt lat="42.245808" lon="2.862022">
        <ele>98.656</ele>
        <time>2020-10-17T18:21:28Z</time>
      </trkpt>
      <trkpt lat="42.245808" lon="2.862022">
        <ele>98.655</ele>
        <time>2020-10-17T18:21:28Z</time>
      </trkpt>
      <trkpt lat="42.245808" lon="2.862022">
        <ele>98.674</ele>
        <time>2020-10-17T18:21:28Z</time>
      </trkpt>
      <trkpt lat="42.245808" lon="2.862022">
        <ele>98.623</ele>
        <time>2020-10-17T18:21:28Z</time>
      </trkpt>
      <trkpt lat="42.245818" lon="2.862118">
        <ele>98.211</ele>
        <time>2020-10-17T18:21:30Z</time>
      </trkpt>
      <trkpt lat="42.245826" lon="2.862200">
        <ele>98.161</ele>
        <time>2020-10-17T18:21:32Z</time>
      </trkpt>
      <trkpt lat="42.245799" lon="2.862306">
        <ele>97.876</ele>
        <time>2020-10-17T18:21:34Z</time>
      </trkpt>
      <trkpt lat="42.245803" lon="2.862471">
        <ele>96.987</ele>
        <time>2020-10-17T18:21:38Z</time>
      </trkpt>
      <trkpt lat="42.245803" lon="2.862471">
        <ele>96.942</ele>
        <time>2020-10-17T18:21:38Z</time>
      </trkpt>
      <trkpt lat="42.245803" lon="2.862471">
        <ele>96.926</ele>
        <time>2020-10-17T18:21:38Z</time>
      </trkpt>
      <trkpt lat="42.245803" lon="2.862471">
        <ele>96.908</ele>
        <time>2020-10-17T18:21:38Z</time>
      </trkpt>
      <trkpt lat="42.245829" lon="2.862548">
        <ele>96.643</ele>
        <time>2020-10-17T18:21:40Z</time>
      </trkpt>
      <trkpt lat="42.245855" lon="2.862608">
        <ele>96.426</ele>
        <time>2020-10-17T18:21:42Z</time>
      </trkpt>
      <trkpt lat="42.245952" lon="2.862710">
        <ele>96.685</ele>
        <time>2020-10-17T18:21:47Z</time>
      </trkpt>
      <trkpt lat="42.245952" lon="2.862710">
        <ele>96.624</ele>
        <time>2020-10-17T18:21:47Z</time>
      </trkpt>
      <trkpt lat="42.245952" lon="2.862710">
        <ele>96.653</ele>
        <time>2020-10-17T18:21:47Z</time>
      </trkpt>
      <trkpt lat="42.246003" lon="2.862735">
        <ele>96.651</ele>
        <time>2020-10-17T18:21:48Z</time>
      </trkpt>
      <trkpt lat="42.246064" lon="2.862775">
        <ele>96.651</ele>
        <time>2020-10-17T18:21:50Z</time>
      </trkpt>
      <trkpt lat="42.246103" lon="2.862814">
        <ele>96.756</ele>
        <time>2020-10-17T18:21:51Z</time>
      </trkpt>
      <trkpt lat="42.246141" lon="2.862863">
        <ele>96.828</ele>
        <time>2020-10-17T18:21:52Z</time>
      </trkpt>
      <trkpt lat="42.246207" lon="2.862970">
        <ele>97.089</ele>
        <time>2020-10-17T18:21:54Z</time>
      </trkpt>
      <trkpt lat="42.246324" lon="2.863207">
        <ele>97.417</ele>
        <time>2020-10-17T18:21:58Z</time>
      </trkpt>
      <trkpt lat="42.246324" lon="2.863207">
        <ele>97.408</ele>
        <time>2020-10-17T18:21:58Z</time>
      </trkpt>
      <trkpt lat="42.246324" lon="2.863207">
        <ele>97.457</ele>
        <time>2020-10-17T18:21:58Z</time>
      </trkpt>
      <trkpt lat="42.246324" lon="2.863207">
        <ele>97.450</ele>
        <time>2020-10-17T18:21:58Z</time>
      </trkpt>
      <trkpt lat="42.246387" lon="2.863314">
        <ele>97.459</ele>
        <time>2020-10-17T18:22:00Z</time>
      </trkpt>
      <trkpt lat="42.246439" lon="2.863380">
        <ele>97.318</ele>
        <time>2020-10-17T18:22:02Z</time>
      </trkpt>
      <trkpt lat="42.246496" lon="2.863416">
        <ele>97.237</ele>
        <time>2020-10-17T18:22:04Z</time>
      </trkpt>
      <trkpt lat="42.246613" lon="2.863527">
        <ele>97.035</ele>
        <time>2020-10-17T18:22:08Z</time>
      </trkpt>
      <trkpt lat="42.246613" lon="2.863527">
        <ele>97.055</ele>
        <time>2020-10-17T18:22:08Z</time>
      </trkpt>
      <trkpt lat="42.246613" lon="2.863527">
        <ele>97.030</ele>
        <time>2020-10-17T18:22:08Z</time>
      </trkpt>
      <trkpt lat="42.246613" lon="2.863527">
        <ele>97.095</ele>
        <time>2020-10-17T18:22:08Z</time>
      </trkpt>
      <trkpt lat="42.246642" lon="2.863583">
        <ele>96.949</ele>
        <time>2020-10-17T18:22:09Z</time>
      </trkpt>
      <trkpt lat="42.246707" lon="2.863722">
        <ele>96.723</ele>
        <time>2020-10-17T18:22:11Z</time>
      </trkpt>
      <trkpt lat="42.246747" lon="2.863815">
        <ele>96.508</ele>
        <time>2020-10-17T18:22:13Z</time>
      </trkpt>
      <trkpt lat="42.246866" lon="2.864016">
        <ele>96.734</ele>
        <time>2020-10-17T18:22:18Z</time>
      </trkpt>
      <trkpt lat="42.246866" lon="2.864016">
        <ele>96.787</ele>
        <time>2020-10-17T18:22:18Z</time>
      </trkpt>
      <trkpt lat="42.246866" lon="2.864016">
        <ele>96.786</ele>
        <time>2020-10-17T18:22:18Z</time>
      </trkpt>
      <trkpt lat="42.246866" lon="2.864016">
        <ele>96.785</ele>
        <time>2020-10-17T18:22:18Z</time>
      </trkpt>
      <trkpt lat="42.246909" lon="2.864111">
        <ele>96.824</ele>
        <time>2020-10-17T18:22:20Z</time>
      </trkpt>
      <trkpt lat="42.246946" lon="2.864208">
        <ele>96.982</ele>
        <time>2020-10-17T18:22:21Z</time>
      </trkpt>
      <trkpt lat="42.246989" lon="2.864320">
        <ele>97.042</ele>
        <time>2020-10-17T18:22:23Z</time>
      </trkpt>
      <trkpt lat="42.247019" lon="2.864383">
        <ele>97.167</ele>
        <time>2020-10-17T18:22:24Z</time>
      </trkpt>
      <trkpt lat="42.247164" lon="2.864657">
        <ele>96.989</ele>
        <time>2020-10-17T18:22:28Z</time>
      </trkpt>
      <trkpt lat="42.247164" lon="2.864657">
        <ele>96.906</ele>
        <time>2020-10-17T18:22:28Z</time>
      </trkpt>
      <trkpt lat="42.247164" lon="2.864657">
        <ele>96.926</ele>
        <time>2020-10-17T18:22:28Z</time>
      </trkpt>
      <trkpt lat="42.247164" lon="2.864657">
        <ele>96.908</ele>
        <time>2020-10-17T18:22:28Z</time>
      </trkpt>
      <trkpt lat="42.247232" lon="2.864784">
        <ele>96.453</ele>
        <time>2020-10-17T18:22:30Z</time>
      </trkpt>
      <trkpt lat="42.247267" lon="2.864843">
        <ele>96.016</ele>
        <time>2020-10-17T18:22:31Z</time>
      </trkpt>
      <trkpt lat="42.247343" lon="2.864952">
        <ele>95.595</ele>
        <time>2020-10-17T18:22:33Z</time>
      </trkpt>
      <trkpt lat="42.247468" lon="2.865101">
        <ele>94.644</ele>
        <time>2020-10-17T18:22:36Z</time>
      </trkpt>
      <trkpt lat="42.247468" lon="2.865101">
        <ele>94.623</ele>
        <time>2020-10-17T18:22:36Z</time>
      </trkpt>
      <trkpt lat="42.247558" lon="2.865176">
        <ele>93.871</ele>
        <time>2020-10-17T18:22:38Z</time>
      </trkpt>
      <trkpt lat="42.247558" lon="2.865176">
        <ele>93.861</ele>
        <time>2020-10-17T18:22:38Z</time>
      </trkpt>
      <trkpt lat="42.247637" lon="2.865223">
        <ele>93.016</ele>
        <time>2020-10-17T18:22:40Z</time>
      </trkpt>
      <trkpt lat="42.247694" lon="2.865266">
        <ele>92.287</ele>
        <time>2020-10-17T18:22:42Z</time>
      </trkpt>
      <trkpt lat="42.247736" lon="2.865305">
        <ele>91.342</ele>
        <time>2020-10-17T18:22:44Z</time>
      </trkpt>
      <trkpt lat="42.247829" lon="2.865425">
        <ele>89.226</ele>
        <time>2020-10-17T18:22:48Z</time>
      </trkpt>
      <trkpt lat="42.247829" lon="2.865425">
        <ele>89.208</ele>
        <time>2020-10-17T18:22:48Z</time>
      </trkpt>
      <trkpt lat="42.247829" lon="2.865425">
        <ele>89.233</ele>
        <time>2020-10-17T18:22:48Z</time>
      </trkpt>
      <trkpt lat="42.247829" lon="2.865425">
        <ele>89.276</ele>
        <time>2020-10-17T18:22:48Z</time>
      </trkpt>
      <trkpt lat="42.247866" lon="2.865471">
        <ele>88.745</ele>
        <time>2020-10-17T18:22:50Z</time>
      </trkpt>
      <trkpt lat="42.247905" lon="2.865517">
        <ele>88.164</ele>
        <time>2020-10-17T18:22:52Z</time>
      </trkpt>
      <trkpt lat="42.248024" lon="2.865648">
        <ele>86.443</ele>
        <time>2020-10-17T18:22:58Z</time>
      </trkpt>
      <trkpt lat="42.248024" lon="2.865648">
        <ele>86.421</ele>
        <time>2020-10-17T18:22:58Z</time>
      </trkpt>
      <trkpt lat="42.248024" lon="2.865648">
        <ele>86.471</ele>
        <time>2020-10-17T18:22:58Z</time>
      </trkpt>
      <trkpt lat="42.248024" lon="2.865648">
        <ele>86.446</ele>
        <time>2020-10-17T18:22:58Z</time>
      </trkpt>
      <trkpt lat="42.248075" lon="2.865708">
        <ele>86.397</ele>
        <time>2020-10-17T18:23:00Z</time>
      </trkpt>
      <trkpt lat="42.248123" lon="2.865763">
        <ele>86.223</ele>
        <time>2020-10-17T18:23:01Z</time>
      </trkpt>
      <trkpt lat="42.248174" lon="2.865828">
        <ele>85.925</ele>
        <time>2020-10-17T18:23:03Z</time>
      </trkpt>
      <trkpt lat="42.248273" lon="2.866000">
        <ele>85.108</ele>
        <time>2020-10-17T18:23:08Z</time>
      </trkpt>
      <trkpt lat="42.248273" lon="2.866000">
        <ele>85.184</ele>
        <time>2020-10-17T18:23:08Z</time>
      </trkpt>
      <trkpt lat="42.248273" lon="2.866000">
        <ele>85.157</ele>
        <time>2020-10-17T18:23:08Z</time>
      </trkpt>
      <trkpt lat="42.248273" lon="2.866000">
        <ele>85.166</ele>
        <time>2020-10-17T18:23:08Z</time>
      </trkpt>
      <trkpt lat="42.248319" lon="2.866072">
        <ele>84.975</ele>
        <time>2020-10-17T18:23:10Z</time>
      </trkpt>
      <trkpt lat="42.248319" lon="2.866072">
        <ele>84.984</ele>
        <time>2020-10-17T18:23:10Z</time>
      </trkpt>
      <trkpt lat="42.248364" lon="2.866149">
        <ele>84.722</ele>
        <time>2020-10-17T18:23:12Z</time>
      </trkpt>
      <trkpt lat="42.248409" lon="2.866219">
        <ele>84.532</ele>
        <time>2020-10-17T18:23:14Z</time>
      </trkpt>
      <trkpt lat="42.248514" lon="2.866359">
        <ele>83.587</ele>
        <time>2020-10-17T18:23:18Z</time>
      </trkpt>
      <trkpt lat="42.248514" lon="2.866359">
        <ele>83.512</ele>
        <time>2020-10-17T18:23:18Z</time>
      </trkpt>
      <trkpt lat="42.248514" lon="2.866359">
        <ele>83.532</ele>
        <time>2020-10-17T18:23:18Z</time>
      </trkpt>
      <trkpt lat="42.248514" lon="2.866359">
        <ele>83.505</ele>
        <time>2020-10-17T18:23:18Z</time>
      </trkpt>
      <trkpt lat="42.248567" lon="2.866438">
        <ele>83.308</ele>
        <time>2020-10-17T18:23:20Z</time>
      </trkpt>
      <trkpt lat="42.248630" lon="2.866507">
        <ele>82.766</ele>
        <time>2020-10-17T18:23:22Z</time>
      </trkpt>
      <trkpt lat="42.248683" lon="2.866574">
        <ele>82.049</ele>
        <time>2020-10-17T18:23:24Z</time>
      </trkpt>
      <trkpt lat="42.248780" lon="2.866710">
        <ele>80.758</ele>
        <time>2020-10-17T18:23:28Z</time>
      </trkpt>
      <trkpt lat="42.248780" lon="2.866710">
        <ele>80.797</ele>
        <time>2020-10-17T18:23:28Z</time>
      </trkpt>
      <trkpt lat="42.248780" lon="2.866710">
        <ele>80.796</ele>
        <time>2020-10-17T18:23:28Z</time>
      </trkpt>
      <trkpt lat="42.248780" lon="2.866710">
        <ele>80.784</ele>
        <time>2020-10-17T18:23:28Z</time>
      </trkpt>
      <trkpt lat="42.248821" lon="2.866766">
        <ele>80.524</ele>
        <time>2020-10-17T18:23:30Z</time>
      </trkpt>
      <trkpt lat="42.248865" lon="2.866826">
        <ele>80.239</ele>
        <time>2020-10-17T18:23:32Z</time>
      </trkpt>
      <trkpt lat="42.248901" lon="2.866904">
        <ele>79.729</ele>
        <time>2020-10-17T18:23:34Z</time>
      </trkpt>
      <trkpt lat="42.248964" lon="2.867102">
        <ele>78.000</ele>
        <time>2020-10-17T18:23:38Z</time>
      </trkpt>
      <trkpt lat="42.248964" lon="2.867102">
        <ele>78.020</ele>
        <time>2020-10-17T18:23:38Z</time>
      </trkpt>
      <trkpt lat="42.248964" lon="2.867102">
        <ele>78.008</ele>
        <time>2020-10-17T18:23:38Z</time>
      </trkpt>
      <trkpt lat="42.248964" lon="2.867102">
        <ele>78.057</ele>
        <time>2020-10-17T18:23:38Z</time>
      </trkpt>
      <trkpt lat="42.248988" lon="2.867180">
        <ele>77.660</ele>
        <time>2020-10-17T18:23:40Z</time>
      </trkpt>
      <trkpt lat="42.249024" lon="2.867249">
        <ele>77.329</ele>
        <time>2020-10-17T18:23:42Z</time>
      </trkpt>
      <trkpt lat="42.249085" lon="2.867312">
        <ele>77.788</ele>
        <time>2020-10-17T18:23:50Z</time>
      </trkpt>
      <trkpt lat="42.249132" lon="2.867392">
        <ele>78.177</ele>
        <time>2020-10-17T18:23:52Z</time>
      </trkpt>
      <trkpt lat="42.249167" lon="2.867455">
        <ele>78.435</ele>
        <time>2020-10-17T18:23:54Z</time>
      </trkpt>
      <trkpt lat="42.249203" lon="2.867666">
        <ele>78.675</ele>
        <time>2020-10-17T18:23:58Z</time>
      </trkpt>
      <trkpt lat="42.249203" lon="2.867666">
        <ele>78.690</ele>
        <time>2020-10-17T18:23:58Z</time>
      </trkpt>
      <trkpt lat="42.249203" lon="2.867666">
        <ele>78.634</ele>
        <time>2020-10-17T18:23:58Z</time>
      </trkpt>
      <trkpt lat="42.249203" lon="2.867666">
        <ele>78.655</ele>
        <time>2020-10-17T18:23:58Z</time>
      </trkpt>
      <trkpt lat="42.249208" lon="2.867762">
        <ele>78.810</ele>
        <time>2020-10-17T18:24:00Z</time>
      </trkpt>
      <trkpt lat="42.249207" lon="2.867844">
        <ele>79.308</ele>
        <time>2020-10-17T18:24:02Z</time>
      </trkpt>
      <trkpt lat="42.249212" lon="2.867909">
        <ele>79.778</ele>
        <time>2020-10-17T18:24:04Z</time>
      </trkpt>
      <trkpt lat="42.249294" lon="2.868089">
        <ele>80.151</ele>
        <time>2020-10-17T18:24:08Z</time>
      </trkpt>
      <trkpt lat="42.249294" lon="2.868089">
        <ele>80.110</ele>
        <time>2020-10-17T18:24:08Z</time>
      </trkpt>
      <trkpt lat="42.249294" lon="2.868089">
        <ele>80.139</ele>
        <time>2020-10-17T18:24:08Z</time>
      </trkpt>
      <trkpt lat="42.249294" lon="2.868089">
        <ele>80.138</ele>
        <time>2020-10-17T18:24:08Z</time>
      </trkpt>
      <trkpt lat="42.249349" lon="2.868149">
        <ele>80.196</ele>
        <time>2020-10-17T18:24:10Z</time>
      </trkpt>
      <trkpt lat="42.249400" lon="2.868182">
        <ele>80.286</ele>
        <time>2020-10-17T18:24:11Z</time>
      </trkpt>
      <trkpt lat="42.249465" lon="2.868198">
        <ele>80.491</ele>
        <time>2020-10-17T18:24:13Z</time>
      </trkpt>
      <trkpt lat="42.249594" lon="2.868011">
        <ele>80.083</ele>
        <time>2020-10-17T18:24:18Z</time>
      </trkpt>
      <trkpt lat="42.249594" lon="2.868011">
        <ele>80.025</ele>
        <time>2020-10-17T18:24:18Z</time>
      </trkpt>
      <trkpt lat="42.249594" lon="2.868011">
        <ele>80.017</ele>
        <time>2020-10-17T18:24:18Z</time>
      </trkpt>
      <trkpt lat="42.249594" lon="2.868011">
        <ele>80.008</ele>
        <time>2020-10-17T18:24:18Z</time>
      </trkpt>
      <trkpt lat="42.249587" lon="2.867941">
        <ele>79.463</ele>
        <time>2020-10-17T18:24:19Z</time>
      </trkpt>
      <trkpt lat="42.249567" lon="2.867866">
        <ele>78.966</ele>
        <time>2020-10-17T18:24:20Z</time>
      </trkpt>
      <trkpt lat="42.249550" lon="2.867727">
        <ele>78.625</ele>
        <time>2020-10-17T18:24:22Z</time>
      </trkpt>
      <trkpt lat="42.249545" lon="2.867650">
        <ele>78.424</ele>
        <time>2020-10-17T18:24:23Z</time>
      </trkpt>
      <trkpt lat="42.249573" lon="2.867293">
        <ele>79.153</ele>
        <time>2020-10-17T18:24:28Z</time>
      </trkpt>
      <trkpt lat="42.249573" lon="2.867293">
        <ele>79.121</ele>
        <time>2020-10-17T18:24:28Z</time>
      </trkpt>
      <trkpt lat="42.249573" lon="2.867293">
        <ele>79.121</ele>
        <time>2020-10-17T18:24:28Z</time>
      </trkpt>
      <trkpt lat="42.249573" lon="2.867293">
        <ele>79.166</ele>
        <time>2020-10-17T18:24:28Z</time>
      </trkpt>
      <trkpt lat="42.249586" lon="2.867232">
        <ele>79.491</ele>
        <time>2020-10-17T18:24:29Z</time>
      </trkpt>
      <trkpt lat="42.249621" lon="2.867142">
        <ele>79.781</ele>
        <time>2020-10-17T18:24:31Z</time>
      </trkpt>
      <trkpt lat="42.249663" lon="2.867035">
        <ele>80.019</ele>
        <time>2020-10-17T18:24:33Z</time>
      </trkpt>
      <trkpt lat="42.249687" lon="2.866976">
        <ele>80.308</ele>
        <time>2020-10-17T18:24:34Z</time>
      </trkpt>
      <trkpt lat="42.249805" lon="2.866729">
        <ele>81.354</ele>
        <time>2020-10-17T18:24:38Z</time>
      </trkpt>
      <trkpt lat="42.249805" lon="2.866729">
        <ele>81.367</ele>
        <time>2020-10-17T18:24:38Z</time>
      </trkpt>
      <trkpt lat="42.249805" lon="2.866729">
        <ele>81.376</ele>
        <time>2020-10-17T18:24:38Z</time>
      </trkpt>
      <trkpt lat="42.249805" lon="2.866729">
        <ele>81.325</ele>
        <time>2020-10-17T18:24:38Z</time>
      </trkpt>
      <trkpt lat="42.249863" lon="2.866623">
        <ele>81.954</ele>
        <time>2020-10-17T18:24:40Z</time>
      </trkpt>
      <trkpt lat="42.249907" lon="2.866560">
        <ele>82.712</ele>
        <time>2020-10-17T18:24:42Z</time>
      </trkpt>
      <trkpt lat="42.249978" lon="2.866586">
        <ele>83.752</ele>
        <time>2020-10-17T18:24:45Z</time>
      </trkpt>
      <trkpt lat="42.250059" lon="2.866735">
        <ele>85.317</ele>
        <time>2020-10-17T18:24:48Z</time>
      </trkpt>
      <trkpt lat="42.250059" lon="2.866735">
        <ele>85.363</ele>
        <time>2020-10-17T18:24:48Z</time>
      </trkpt>
      <trkpt lat="42.250059" lon="2.866735">
        <ele>85.344</ele>
        <time>2020-10-17T18:24:48Z</time>
      </trkpt>
      <trkpt lat="42.250096" lon="2.866820">
        <ele>86.018</ele>
        <time>2020-10-17T18:24:49Z</time>
      </trkpt>
      <trkpt lat="42.250124" lon="2.866883">
        <ele>87.108</ele>
        <time>2020-10-17T18:24:51Z</time>
      </trkpt>
      <trkpt lat="42.250143" lon="2.866945">
        <ele>88.161</ele>
        <time>2020-10-17T18:24:54Z</time>
      </trkpt>
      <trkpt lat="42.250037" lon="2.867007">
        <ele>90.174</ele>
        <time>2020-10-17T18:24:58Z</time>
      </trkpt>
      <trkpt lat="42.250037" lon="2.867007">
        <ele>90.133</ele>
        <time>2020-10-17T18:24:58Z</time>
      </trkpt>
      <trkpt lat="42.250037" lon="2.867007">
        <ele>90.112</ele>
        <time>2020-10-17T18:24:58Z</time>
      </trkpt>
      <trkpt lat="42.250037" lon="2.867007">
        <ele>90.161</ele>
        <time>2020-10-17T18:24:58Z</time>
      </trkpt>
      <trkpt lat="42.249992" lon="2.867045">
        <ele>90.549</ele>
        <time>2020-10-17T18:25:00Z</time>
      </trkpt>
      <trkpt lat="42.249955" lon="2.867085">
        <ele>90.959</ele>
        <time>2020-10-17T18:25:02Z</time>
      </trkpt>
      <trkpt lat="42.249949" lon="2.867307">
        <ele>91.664</ele>
        <time>2020-10-17T18:25:08Z</time>
      </trkpt>
      <trkpt lat="42.249949" lon="2.867307">
        <ele>91.661</ele>
        <time>2020-10-17T18:25:08Z</time>
      </trkpt>
      <trkpt lat="42.249949" lon="2.867307">
        <ele>91.621</ele>
        <time>2020-10-17T18:25:08Z</time>
      </trkpt>
      <trkpt lat="42.249949" lon="2.867307">
        <ele>91.613</ele>
        <time>2020-10-17T18:25:08Z</time>
      </trkpt>
      <trkpt lat="42.249969" lon="2.867403">
        <ele>91.108</ele>
        <time>2020-10-17T18:25:10Z</time>
      </trkpt>
      <trkpt lat="42.249988" lon="2.867502">
        <ele>90.691</ele>
        <time>2020-10-17T18:25:12Z</time>
      </trkpt>
      <trkpt lat="42.250018" lon="2.867648">
        <ele>90.314</ele>
        <time>2020-10-17T18:25:14Z</time>
      </trkpt>
      <trkpt lat="42.250042" lon="2.867806">
        <ele>90.143</ele>
        <time>2020-10-17T18:25:16Z</time>
      </trkpt>
      <trkpt lat="42.250042" lon="2.867806">
        <ele>90.122</ele>
        <time>2020-10-17T18:25:16Z</time>
      </trkpt>
      <trkpt lat="42.250057" lon="2.867960">
        <ele>90.471</ele>
        <time>2020-10-17T18:25:18Z</time>
      </trkpt>
      <trkpt lat="42.250057" lon="2.867960">
        <ele>90.429</ele>
        <time>2020-10-17T18:25:18Z</time>
      </trkpt>
      <trkpt lat="42.250049" lon="2.868120">
        <ele>90.999</ele>
        <time>2020-10-17T18:25:20Z</time>
      </trkpt>
      <trkpt lat="42.250031" lon="2.868207">
        <ele>91.394</ele>
        <time>2020-10-17T18:25:21Z</time>
      </trkpt>
      <trkpt lat="42.249987" lon="2.868368">
        <ele>91.655</ele>
        <time>2020-10-17T18:25:23Z</time>
      </trkpt>
      <trkpt lat="42.249842" lon="2.868662">
        <ele>91.107</ele>
        <time>2020-10-17T18:25:28Z</time>
      </trkpt>
      <trkpt lat="42.249842" lon="2.868662">
        <ele>91.117</ele>
        <time>2020-10-17T18:25:28Z</time>
      </trkpt>
      <trkpt lat="42.249842" lon="2.868662">
        <ele>91.108</ele>
        <time>2020-10-17T18:25:28Z</time>
      </trkpt>
      <trkpt lat="42.249842" lon="2.868662">
        <ele>91.140</ele>
        <time>2020-10-17T18:25:28Z</time>
      </trkpt>
      <trkpt lat="42.249817" lon="2.868715">
        <ele>90.823</ele>
        <time>2020-10-17T18:25:29Z</time>
      </trkpt>
      <trkpt lat="42.249772" lon="2.868829">
        <ele>90.352</ele>
        <time>2020-10-17T18:25:31Z</time>
      </trkpt>
      <trkpt lat="42.249725" lon="2.868948">
        <ele>89.721</ele>
        <time>2020-10-17T18:25:33Z</time>
      </trkpt>
      <trkpt lat="42.249667" lon="2.869229">
        <ele>89.340</ele>
        <time>2020-10-17T18:25:38Z</time>
      </trkpt>
      <trkpt lat="42.249667" lon="2.869229">
        <ele>89.318</ele>
        <time>2020-10-17T18:25:38Z</time>
      </trkpt>
      <trkpt lat="42.249667" lon="2.869229">
        <ele>89.398</ele>
        <time>2020-10-17T18:25:38Z</time>
      </trkpt>
      <trkpt lat="42.249667" lon="2.869229">
        <ele>89.363</ele>
        <time>2020-10-17T18:25:38Z</time>
      </trkpt>
      <trkpt lat="42.249707" lon="2.869336">
        <ele>89.641</ele>
        <time>2020-10-17T18:25:40Z</time>
      </trkpt>
      <trkpt lat="42.249744" lon="2.869399">
        <ele>89.881</ele>
        <time>2020-10-17T18:25:41Z</time>
      </trkpt>
      <trkpt lat="42.249798" lon="2.869544">
        <ele>90.109</ele>
        <time>2020-10-17T18:25:43Z</time>
      </trkpt>
      <trkpt lat="42.249772" lon="2.869890">
        <ele>90.908</ele>
        <time>2020-10-17T18:25:48Z</time>
      </trkpt>
      <trkpt lat="42.249772" lon="2.869890">
        <ele>90.959</ele>
        <time>2020-10-17T18:25:48Z</time>
      </trkpt>
      <trkpt lat="42.249772" lon="2.869890">
        <ele>90.992</ele>
        <time>2020-10-17T18:25:48Z</time>
      </trkpt>
      <trkpt lat="42.249772" lon="2.869890">
        <ele>90.981</ele>
        <time>2020-10-17T18:25:48Z</time>
      </trkpt>
      <trkpt lat="42.249789" lon="2.870014">
        <ele>91.060</ele>
        <time>2020-10-17T18:25:50Z</time>
      </trkpt>
      <trkpt lat="42.249815" lon="2.870135">
        <ele>90.999</ele>
        <time>2020-10-17T18:25:52Z</time>
      </trkpt>
      <trkpt lat="42.249838" lon="2.870222">
        <ele>90.817</ele>
        <time>2020-10-17T18:25:54Z</time>
      </trkpt>
      <trkpt lat="42.249925" lon="2.870390">
        <ele>90.667</ele>
        <time>2020-10-17T18:25:58Z</time>
      </trkpt>
      <trkpt lat="42.249925" lon="2.870390">
        <ele>90.612</ele>
        <time>2020-10-17T18:25:58Z</time>
      </trkpt>
      <trkpt lat="42.249925" lon="2.870390">
        <ele>90.638</ele>
        <time>2020-10-17T18:25:58Z</time>
      </trkpt>
      <trkpt lat="42.249925" lon="2.870390">
        <ele>90.670</ele>
        <time>2020-10-17T18:25:58Z</time>
      </trkpt>
      <trkpt lat="42.249989" lon="2.870449">
        <ele>90.817</ele>
        <time>2020-10-17T18:26:00Z</time>
      </trkpt>
      <trkpt lat="42.250054" lon="2.870535">
        <ele>91.108</ele>
        <time>2020-10-17T18:26:02Z</time>
      </trkpt>
      <trkpt lat="42.250078" lon="2.870619">
        <ele>91.338</ele>
        <time>2020-10-17T18:26:04Z</time>
      </trkpt>
      <trkpt lat="42.250078" lon="2.870680">
        <ele>91.651</ele>
        <time>2020-10-17T18:26:06Z</time>
      </trkpt>
      <trkpt lat="42.250072" lon="2.870743">
        <ele>91.510</ele>
        <time>2020-10-17T18:26:35Z</time>
      </trkpt>
      <trkpt lat="42.250094" lon="2.870874">
        <ele>91.469</ele>
        <time>2020-10-17T18:26:37Z</time>
      </trkpt>
      <trkpt lat="42.250109" lon="2.870960">
        <ele>91.388</ele>
        <time>2020-10-17T18:26:38Z</time>
      </trkpt>
      <trkpt lat="42.250136" lon="2.871127">
        <ele>91.146</ele>
        <time>2020-10-17T18:26:40Z</time>
      </trkpt>
      <trkpt lat="42.250147" lon="2.871214">
        <ele>91.076</ele>
        <time>2020-10-17T18:26:41Z</time>
      </trkpt>
      <trkpt lat="42.250157" lon="2.871302">
        <ele>90.841</ele>
        <time>2020-10-17T18:26:42Z</time>
      </trkpt>
      <trkpt lat="42.250176" lon="2.871462">
        <ele>90.679</ele>
        <time>2020-10-17T18:26:44Z</time>
      </trkpt>
      <trkpt lat="42.250186" lon="2.871535">
        <ele>90.405</ele>
        <time>2020-10-17T18:26:45Z</time>
      </trkpt>
      <trkpt lat="42.250205" lon="2.871670">
        <ele>90.225</ele>
        <time>2020-10-17T18:26:47Z</time>
      </trkpt>
      <trkpt lat="42.250215" lon="2.871732">
        <ele>90.108</ele>
        <time>2020-10-17T18:26:48Z</time>
      </trkpt>
      <trkpt lat="42.250226" lon="2.871791">
        <ele>90.032</ele>
        <time>2020-10-17T18:26:49Z</time>
      </trkpt>
      <trkpt lat="42.250249" lon="2.871893">
        <ele>89.945</ele>
        <time>2020-10-17T18:26:51Z</time>
      </trkpt>
      <trkpt lat="42.250274" lon="2.871989">
        <ele>89.764</ele>
        <time>2020-10-17T18:26:53Z</time>
      </trkpt>
      <trkpt lat="42.250285" lon="2.872102">
        <ele>89.423</ele>
        <time>2020-10-17T18:26:55Z</time>
      </trkpt>
      <trkpt lat="42.250278" lon="2.872179">
        <ele>89.282</ele>
        <time>2020-10-17T18:26:57Z</time>
      </trkpt>
      <trkpt lat="42.250282" lon="2.872255">
        <ele>88.950</ele>
        <time>2020-10-17T18:26:59Z</time>
      </trkpt>
      <trkpt lat="42.250299" lon="2.872312">
        <ele>88.540</ele>
        <time>2020-10-17T18:27:01Z</time>
      </trkpt>
      <trkpt lat="42.250338" lon="2.872394">
        <ele>88.185</ele>
        <time>2020-10-17T18:27:04Z</time>
      </trkpt>
      <trkpt lat="42.250384" lon="2.872453">
        <ele>87.814</ele>
        <time>2020-10-17T18:27:06Z</time>
      </trkpt>
      <trkpt lat="42.250435" lon="2.872524">
        <ele>87.754</ele>
        <time>2020-10-17T18:27:08Z</time>
      </trkpt>
      <trkpt lat="42.250487" lon="2.872610">
        <ele>87.709</ele>
        <time>2020-10-17T18:27:10Z</time>
      </trkpt>
      <trkpt lat="42.250535" lon="2.872697">
        <ele>87.708</ele>
        <time>2020-10-17T18:27:12Z</time>
      </trkpt>
      <trkpt lat="42.250538" lon="2.872763">
        <ele>87.576</ele>
        <time>2020-10-17T18:27:14Z</time>
      </trkpt>
      <trkpt lat="42.250486" lon="2.872818">
        <ele>87.289</ele>
        <time>2020-10-17T18:27:16Z</time>
      </trkpt>
      <trkpt lat="42.250405" lon="2.872900">
        <ele>86.758</ele>
        <time>2020-10-17T18:27:18Z</time>
      </trkpt>
      <trkpt lat="42.250298" lon="2.873012">
        <ele>86.157</ele>
        <time>2020-10-17T18:27:20Z</time>
      </trkpt>
      <trkpt lat="42.250243" lon="2.873077">
        <ele>85.786</ele>
        <time>2020-10-17T18:27:21Z</time>
      </trkpt>
      <trkpt lat="42.250151" lon="2.873211">
        <ele>85.494</ele>
        <time>2020-10-17T18:27:23Z</time>
      </trkpt>
      <trkpt lat="42.250115" lon="2.873276">
        <ele>85.354</ele>
        <time>2020-10-17T18:27:24Z</time>
      </trkpt>
      <trkpt lat="42.250053" lon="2.873403">
        <ele>85.279</ele>
        <time>2020-10-17T18:27:26Z</time>
      </trkpt>
      <trkpt lat="42.250007" lon="2.873523">
        <ele>85.199</ele>
        <time>2020-10-17T18:27:28Z</time>
      </trkpt>
      <trkpt lat="42.249968" lon="2.873635">
        <ele>85.007</ele>
        <time>2020-10-17T18:27:30Z</time>
      </trkpt>
      <trkpt lat="42.249981" lon="2.873719">
        <ele>84.927</ele>
        <time>2020-10-17T18:27:32Z</time>
      </trkpt>
      <trkpt lat="42.250041" lon="2.873776">
        <ele>84.908</ele>
        <time>2020-10-17T18:27:34Z</time>
      </trkpt>
      <trkpt lat="42.250121" lon="2.873853">
        <ele>84.824</ele>
        <time>2020-10-17T18:27:36Z</time>
      </trkpt>
      <trkpt lat="42.250165" lon="2.873907">
        <ele>84.617</ele>
        <time>2020-10-17T18:27:38Z</time>
      </trkpt>
      <trkpt lat="42.250231" lon="2.873944">
        <ele>84.686</ele>
        <time>2020-10-17T18:27:40Z</time>
      </trkpt>
      <trkpt lat="42.250320" lon="2.873946">
        <ele>84.655</ele>
        <time>2020-10-17T18:27:42Z</time>
      </trkpt>
      <trkpt lat="42.250364" lon="2.873932">
        <ele>84.454</ele>
        <time>2020-10-17T18:27:43Z</time>
      </trkpt>
      <trkpt lat="42.250443" lon="2.873889">
        <ele>83.942</ele>
        <time>2020-10-17T18:27:45Z</time>
      </trkpt>
      <trkpt lat="42.250529" lon="2.873845">
        <ele>83.472</ele>
        <time>2020-10-17T18:27:47Z</time>
      </trkpt>
      <trkpt lat="42.250591" lon="2.873821">
        <ele>83.087</ele>
        <time>2020-10-17T18:27:48Z</time>
      </trkpt>
      <trkpt lat="42.250672" lon="2.873817">
        <ele>82.794</ele>
        <time>2020-10-17T18:27:50Z</time>
      </trkpt>
      <trkpt lat="42.250741" lon="2.873856">
        <ele>82.557</ele>
        <time>2020-10-17T18:27:52Z</time>
      </trkpt>
      <trkpt lat="42.250798" lon="2.873855">
        <ele>82.622</ele>
        <time>2020-10-17T18:27:54Z</time>
      </trkpt>
      <trkpt lat="42.250806" lon="2.873789">
        <ele>82.908</ele>
        <time>2020-10-17T18:27:56Z</time>
      </trkpt>
      <trkpt lat="42.250775" lon="2.873736">
        <ele>83.544</ele>
        <time>2020-10-17T18:27:58Z</time>
      </trkpt>
      <trkpt lat="42.250728" lon="2.873782">
        <ele>84.267</ele>
        <time>2020-10-17T18:28:01Z</time>
      </trkpt>
      <trkpt lat="42.250759" lon="2.873883">
        <ele>84.866</ele>
        <time>2020-10-17T18:28:04Z</time>
      </trkpt>
      <trkpt lat="42.250780" lon="2.873947">
        <ele>85.535</ele>
        <time>2020-10-17T18:28:06Z</time>
      </trkpt>
      <trkpt lat="42.250787" lon="2.874016">
        <ele>86.124</ele>
        <time>2020-10-17T18:28:08Z</time>
      </trkpt>
      <trkpt lat="42.250779" lon="2.874124">
        <ele>86.722</ele>
        <time>2020-10-17T18:28:10Z</time>
      </trkpt>
      <trkpt lat="42.250777" lon="2.874209">
        <ele>87.292</ele>
        <time>2020-10-17T18:28:12Z</time>
      </trkpt>
      <trkpt lat="42.250807" lon="2.874313">
        <ele>87.577</ele>
        <time>2020-10-17T18:28:14Z</time>
      </trkpt>
      <trkpt lat="42.250856" lon="2.874389">
        <ele>87.899</ele>
        <time>2020-10-17T18:28:16Z</time>
      </trkpt>
      <trkpt lat="42.250915" lon="2.874461">
        <ele>87.907</ele>
        <time>2020-10-17T18:28:18Z</time>
      </trkpt>
      <trkpt lat="42.250987" lon="2.874562">
        <ele>88.027</ele>
        <time>2020-10-17T18:28:20Z</time>
      </trkpt>
      <trkpt lat="42.251038" lon="2.874663">
        <ele>88.108</ele>
        <time>2020-10-17T18:28:22Z</time>
      </trkpt>
      <trkpt lat="42.251096" lon="2.874794">
        <ele>88.374</ele>
        <time>2020-10-17T18:28:24Z</time>
      </trkpt>
      <trkpt lat="42.251141" lon="2.874955">
        <ele>88.727</ele>
        <time>2020-10-17T18:28:26Z</time>
      </trkpt>
      <trkpt lat="42.251157" lon="2.875099">
        <ele>89.086</ele>
        <time>2020-10-17T18:28:28Z</time>
      </trkpt>
      <trkpt lat="42.251140" lon="2.875212">
        <ele>89.015</ele>
        <time>2020-10-17T18:28:30Z</time>
      </trkpt>
      <trkpt lat="42.251103" lon="2.875291">
        <ele>88.914</ele>
        <time>2020-10-17T18:28:32Z</time>
      </trkpt>
      <trkpt lat="42.251073" lon="2.875379">
        <ele>88.932</ele>
        <time>2020-10-17T18:28:34Z</time>
      </trkpt>
      <trkpt lat="42.251048" lon="2.875509">
        <ele>89.132</ele>
        <time>2020-10-17T18:28:36Z</time>
      </trkpt>
      <trkpt lat="42.251033" lon="2.875581">
        <ele>89.297</ele>
        <time>2020-10-17T18:28:37Z</time>
      </trkpt>
      <trkpt lat="42.251017" lon="2.875653">
        <ele>89.396</ele>
        <time>2020-10-17T18:28:38Z</time>
      </trkpt>
      <trkpt lat="42.251004" lon="2.875722">
        <ele>89.331</ele>
        <time>2020-10-17T18:28:39Z</time>
      </trkpt>
      <trkpt lat="42.250997" lon="2.875788">
        <ele>89.324</ele>
        <time>2020-10-17T18:28:40Z</time>
      </trkpt>
      <trkpt lat="42.250992" lon="2.875896">
        <ele>89.308</ele>
        <time>2020-10-17T18:28:42Z</time>
      </trkpt>
      <trkpt lat="42.250985" lon="2.875972">
        <ele>89.584</ele>
        <time>2020-10-17T18:28:44Z</time>
      </trkpt>
      <trkpt lat="42.250986" lon="2.876044">
        <ele>90.037</ele>
        <time>2020-10-17T18:29:31Z</time>
      </trkpt>
      <trkpt lat="42.250993" lon="2.876148">
        <ele>90.426</ele>
        <time>2020-10-17T18:29:33Z</time>
      </trkpt>
      <trkpt lat="42.251003" lon="2.876228">
        <ele>90.875</ele>
        <time>2020-10-17T18:29:34Z</time>
      </trkpt>
      <trkpt lat="42.251025" lon="2.876334">
        <ele>91.124</ele>
        <time>2020-10-17T18:29:36Z</time>
      </trkpt>
      <trkpt lat="42.251039" lon="2.876395">
        <ele>91.382</ele>
        <time>2020-10-17T18:29:37Z</time>
      </trkpt>
      <trkpt lat="42.251067" lon="2.876518">
        <ele>91.592</ele>
        <time>2020-10-17T18:29:39Z</time>
      </trkpt>
      <trkpt lat="42.251114" lon="2.876672">
        <ele>92.357</ele>
        <time>2020-10-17T18:29:42Z</time>
      </trkpt>
      <trkpt lat="42.251114" lon="2.876672">
        <ele>92.357</ele>
        <time>2020-10-17T18:29:42Z</time>
      </trkpt>
      <trkpt lat="42.251114" lon="2.876672">
        <ele>92.300</ele>
        <time>2020-10-17T18:29:42Z</time>
      </trkpt>
      <trkpt lat="42.251168" lon="2.876762">
        <ele>93.020</ele>
        <time>2020-10-17T18:29:44Z</time>
      </trkpt>
      <trkpt lat="42.251231" lon="2.876862">
        <ele>93.908</ele>
        <time>2020-10-17T18:29:46Z</time>
      </trkpt>
      <trkpt lat="42.251281" lon="2.876987">
        <ele>94.880</ele>
        <time>2020-10-17T18:29:48Z</time>
      </trkpt>
      <trkpt lat="42.251313" lon="2.877120">
        <ele>95.743</ele>
        <time>2020-10-17T18:29:50Z</time>
      </trkpt>
      <trkpt lat="42.251326" lon="2.877180">
        <ele>96.442</ele>
        <time>2020-10-17T18:29:51Z</time>
      </trkpt>
      <trkpt lat="42.251359" lon="2.877299">
        <ele>97.181</ele>
        <time>2020-10-17T18:29:53Z</time>
      </trkpt>
      <trkpt lat="42.251448" lon="2.877544">
        <ele>99.480</ele>
        <time>2020-10-17T18:29:57Z</time>
      </trkpt>
      <trkpt lat="42.251448" lon="2.877544">
        <ele>99.448</ele>
        <time>2020-10-17T18:29:57Z</time>
      </trkpt>
      <trkpt lat="42.251448" lon="2.877544">
        <ele>99.488</ele>
        <time>2020-10-17T18:29:57Z</time>
      </trkpt>
      <trkpt lat="42.251448" lon="2.877544">
        <ele>99.453</ele>
        <time>2020-10-17T18:29:57Z</time>
      </trkpt>
      <trkpt lat="42.251494" lon="2.877669">
        <ele>100.053</ele>
        <time>2020-10-17T18:29:59Z</time>
      </trkpt>
      <trkpt lat="42.251525" lon="2.877744">
        <ele>100.404</ele>
        <time>2020-10-17T18:30:00Z</time>
      </trkpt>
      <trkpt lat="42.251559" lon="2.877829">
        <ele>100.714</ele>
        <time>2020-10-17T18:30:01Z</time>
      </trkpt>
      <trkpt lat="42.251631" lon="2.878031">
        <ele>100.708</ele>
        <time>2020-10-17T18:30:03Z</time>
      </trkpt>
      <trkpt lat="42.251667" lon="2.878141">
        <ele>100.760</ele>
        <time>2020-10-17T18:30:04Z</time>
      </trkpt>
      <trkpt lat="42.251732" lon="2.878349">
        <ele>100.653</ele>
        <time>2020-10-17T18:30:06Z</time>
      </trkpt>
      <trkpt lat="42.251757" lon="2.878732">
        <ele>100.512</ele>
        <time>2020-10-17T18:30:11Z</time>
      </trkpt>
      <trkpt lat="42.251757" lon="2.878732">
        <ele>100.571</ele>
        <time>2020-10-17T18:30:11Z</time>
      </trkpt>
      <trkpt lat="42.251757" lon="2.878732">
        <ele>100.590</ele>
        <time>2020-10-17T18:30:11Z</time>
      </trkpt>
      <trkpt lat="42.251757" lon="2.878732">
        <ele>100.588</ele>
        <time>2020-10-17T18:30:11Z</time>
      </trkpt>
      <trkpt lat="42.251745" lon="2.878809">
        <ele>100.598</ele>
        <time>2020-10-17T18:30:12Z</time>
      </trkpt>
      <trkpt lat="42.251720" lon="2.878986">
        <ele>100.523</ele>
        <time>2020-10-17T18:30:14Z</time>
      </trkpt>
      <trkpt lat="42.251707" lon="2.879079">
        <ele>100.561</ele>
        <time>2020-10-17T18:30:15Z</time>
      </trkpt>
      <trkpt lat="42.251693" lon="2.879169">
        <ele>100.521</ele>
        <time>2020-10-17T18:30:16Z</time>
      </trkpt>
      <trkpt lat="42.251660" lon="2.879361">
        <ele>100.613</ele>
        <time>2020-10-17T18:30:18Z</time>
      </trkpt>
      <trkpt lat="42.251624" lon="2.879572">
        <ele>100.608</ele>
        <time>2020-10-17T18:30:20Z</time>
      </trkpt>
      <trkpt lat="42.251520" lon="2.880081">
        <ele>99.891</ele>
        <time>2020-10-17T18:30:25Z</time>
      </trkpt>
      <trkpt lat="42.251520" lon="2.880081">
        <ele>99.884</ele>
        <time>2020-10-17T18:30:25Z</time>
      </trkpt>
      <trkpt lat="42.251520" lon="2.880081">
        <ele>99.883</ele>
        <time>2020-10-17T18:30:25Z</time>
      </trkpt>
      <trkpt lat="42.251520" lon="2.880081">
        <ele>99.812</ele>
        <time>2020-10-17T18:30:25Z</time>
      </trkpt>
      <trkpt lat="42.251495" lon="2.880252">
        <ele>99.721</ele>
        <time>2020-10-17T18:30:27Z</time>
      </trkpt>
      <trkpt lat="42.251493" lon="2.880330">
        <ele>99.689</ele>
        <time>2020-10-17T18:30:28Z</time>
      </trkpt>
      <trkpt lat="42.251499" lon="2.880405">
        <ele>99.579</ele>
        <time>2020-10-17T18:30:29Z</time>
      </trkpt>
      <trkpt lat="42.251512" lon="2.880478">
        <ele>99.494</ele>
        <time>2020-10-17T18:30:30Z</time>
      </trkpt>
      <trkpt lat="42.251648" lon="2.880939">
        <ele>98.039</ele>
        <time>2020-10-17T18:30:35Z</time>
      </trkpt>
      <trkpt lat="42.251648" lon="2.880939">
        <ele>98.001</ele>
        <time>2020-10-17T18:30:35Z</time>
      </trkpt>
      <trkpt lat="42.251648" lon="2.880939">
        <ele>98.021</ele>
        <time>2020-10-17T18:30:35Z</time>
      </trkpt>
      <trkpt lat="42.251648" lon="2.880939">
        <ele>98.008</ele>
        <time>2020-10-17T18:30:35Z</time>
      </trkpt>
      <trkpt lat="42.251683" lon="2.881152">
        <ele>97.298</ele>
        <time>2020-10-17T18:30:37Z</time>
      </trkpt>
      <trkpt lat="42.251691" lon="2.881247">
        <ele>96.441</ele>
        <time>2020-10-17T18:30:38Z</time>
      </trkpt>
      <trkpt lat="42.251696" lon="2.881334">
        <ele>95.770</ele>
        <time>2020-10-17T18:30:39Z</time>
      </trkpt>
      <trkpt lat="42.251700" lon="2.881480">
        <ele>94.979</ele>
        <time>2020-10-17T18:30:41Z</time>
      </trkpt>
      <trkpt lat="42.251661" lon="2.881675">
        <ele>92.828</ele>
        <time>2020-10-17T18:30:45Z</time>
      </trkpt>
      <trkpt lat="42.251661" lon="2.881675">
        <ele>92.866</ele>
        <time>2020-10-17T18:30:45Z</time>
      </trkpt>
      <trkpt lat="42.251661" lon="2.881675">
        <ele>92.816</ele>
        <time>2020-10-17T18:30:45Z</time>
      </trkpt>
      <trkpt lat="42.251661" lon="2.881675">
        <ele>92.861</ele>
        <time>2020-10-17T18:30:45Z</time>
      </trkpt>
      <trkpt lat="42.251639" lon="2.881816">
        <ele>92.494</ele>
        <time>2020-10-17T18:30:47Z</time>
      </trkpt>
      <trkpt lat="42.251598" lon="2.881998">
        <ele>92.257</ele>
        <time>2020-10-17T18:30:49Z</time>
      </trkpt>
      <trkpt lat="42.251565" lon="2.882090">
        <ele>92.222</ele>
        <time>2020-10-17T18:30:50Z</time>
      </trkpt>
      <trkpt lat="42.251411" lon="2.882473">
        <ele>92.708</ele>
        <time>2020-10-17T18:30:55Z</time>
      </trkpt>
      <trkpt lat="42.251411" lon="2.882473">
        <ele>92.784</ele>
        <time>2020-10-17T18:30:55Z</time>
      </trkpt>
      <trkpt lat="42.251411" lon="2.882473">
        <ele>92.757</ele>
        <time>2020-10-17T18:30:55Z</time>
      </trkpt>
      <trkpt lat="42.251411" lon="2.882473">
        <ele>92.736</ele>
        <time>2020-10-17T18:30:55Z</time>
      </trkpt>
      <trkpt lat="42.251387" lon="2.882640">
        <ele>92.815</ele>
        <time>2020-10-17T18:30:57Z</time>
      </trkpt>
      <trkpt lat="42.251376" lon="2.882728">
        <ele>92.934</ele>
        <time>2020-10-17T18:30:58Z</time>
      </trkpt>
      <trkpt lat="42.251355" lon="2.882808">
        <ele>93.062</ele>
        <time>2020-10-17T18:30:59Z</time>
      </trkpt>
      <trkpt lat="42.251291" lon="2.882940">
        <ele>92.972</ele>
        <time>2020-10-17T18:31:01Z</time>
      </trkpt>
      <trkpt lat="42.251213" lon="2.883033">
        <ele>92.347</ele>
        <time>2020-10-17T18:31:05Z</time>
      </trkpt>
      <trkpt lat="42.251213" lon="2.883033">
        <ele>92.359</ele>
        <time>2020-10-17T18:31:05Z</time>
      </trkpt>
      <trkpt lat="42.251213" lon="2.883033">
        <ele>92.303</ele>
        <time>2020-10-17T18:31:05Z</time>
      </trkpt>
      <trkpt lat="42.251213" lon="2.883033">
        <ele>92.323</ele>
        <time>2020-10-17T18:31:05Z</time>
      </trkpt>
      <trkpt lat="42.251034" lon="2.883273">
        <ele>91.408</ele>
        <time>2020-10-17T18:31:15Z</time>
      </trkpt>
      <trkpt lat="42.251034" lon="2.883273">
        <ele>91.440</ele>
        <time>2020-10-17T18:31:15Z</time>
      </trkpt>
      <trkpt lat="42.251034" lon="2.883273">
        <ele>91.423</ele>
        <time>2020-10-17T18:31:15Z</time>
      </trkpt>
      <trkpt lat="42.251034" lon="2.883273">
        <ele>91.412</ele>
        <time>2020-10-17T18:31:15Z</time>
      </trkpt>
      <trkpt lat="42.250995" lon="2.883344">
        <ele>91.311</ele>
        <time>2020-10-17T18:31:16Z</time>
      </trkpt>
      <trkpt lat="42.250927" lon="2.883473">
        <ele>90.980</ele>
        <time>2020-10-17T18:31:18Z</time>
      </trkpt>
      <trkpt lat="42.250876" lon="2.883580">
        <ele>90.348</ele>
        <time>2020-10-17T18:31:20Z</time>
      </trkpt>
      <trkpt lat="42.250876" lon="2.883580">
        <ele>90.348</ele>
        <time>2020-10-17T18:31:20Z</time>
      </trkpt>
      <trkpt lat="42.250848" lon="2.883631">
        <ele>89.893</ele>
        <time>2020-10-17T18:31:21Z</time>
      </trkpt>
      <trkpt lat="42.250814" lon="2.883676">
        <ele>89.421</ele>
        <time>2020-10-17T18:31:22Z</time>
      </trkpt>
      <trkpt lat="42.250687" lon="2.883862">
        <ele>88.641</ele>
        <time>2020-10-17T18:31:25Z</time>
      </trkpt>
      <trkpt lat="42.250687" lon="2.883862">
        <ele>88.605</ele>
        <time>2020-10-17T18:31:25Z</time>
      </trkpt>
      <trkpt lat="42.250687" lon="2.883862">
        <ele>88.608</ele>
        <time>2020-10-17T18:31:25Z</time>
      </trkpt>
      <trkpt lat="42.250608" lon="2.884004">
        <ele>88.237</ele>
        <time>2020-10-17T18:31:27Z</time>
      </trkpt>
      <trkpt lat="42.250566" lon="2.884067">
        <ele>87.870</ele>
        <time>2020-10-17T18:31:28Z</time>
      </trkpt>
      <trkpt lat="42.250500" lon="2.884129">
        <ele>87.449</ele>
        <time>2020-10-17T18:31:30Z</time>
      </trkpt>
      <trkpt lat="42.250449" lon="2.884100">
        <ele>87.048</ele>
        <time>2020-10-17T18:31:40Z</time>
      </trkpt>
      <trkpt lat="42.250435" lon="2.884181">
        <ele>86.857</ele>
        <time>2020-10-17T18:31:47Z</time>
      </trkpt>
      <trkpt lat="42.250397" lon="2.884269">
        <ele>86.655</ele>
        <time>2020-10-17T18:31:49Z</time>
      </trkpt>
      <trkpt lat="42.250374" lon="2.884323">
        <ele>86.515</ele>
        <time>2020-10-17T18:31:50Z</time>
      </trkpt>
      <trkpt lat="42.250237" lon="2.884617">
        <ele>86.510</ele>
        <time>2020-10-17T18:31:55Z</time>
      </trkpt>
      <trkpt lat="42.250237" lon="2.884617">
        <ele>86.517</ele>
        <time>2020-10-17T18:31:55Z</time>
      </trkpt>
      <trkpt lat="42.250237" lon="2.884617">
        <ele>86.587</ele>
        <time>2020-10-17T18:31:55Z</time>
      </trkpt>
      <trkpt lat="42.250237" lon="2.884617">
        <ele>86.515</ele>
        <time>2020-10-17T18:31:55Z</time>
      </trkpt>
      <trkpt lat="42.250225" lon="2.884682">
        <ele>86.708</ele>
        <time>2020-10-17T18:31:57Z</time>
      </trkpt>
      <trkpt lat="42.250244" lon="2.884787">
        <ele>87.096</ele>
        <time>2020-10-17T18:32:09Z</time>
      </trkpt>
      <trkpt lat="42.250264" lon="2.884868">
        <ele>87.119</ele>
        <time>2020-10-17T18:32:11Z</time>
      </trkpt>
      <trkpt lat="42.250289" lon="2.884953">
        <ele>87.488</ele>
        <time>2020-10-17T18:32:18Z</time>
      </trkpt>
      <trkpt lat="42.250321" lon="2.885001">
        <ele>87.737</ele>
        <time>2020-10-17T18:32:20Z</time>
      </trkpt>
      <trkpt lat="42.250251" lon="2.884963">
        <ele>86.746</ele>
        <time>2020-10-17T18:32:27Z</time>
      </trkpt>
      <trkpt lat="42.250206" lon="2.884659">
        <ele>86.114</ele>
        <time>2020-10-17T18:32:37Z</time>
      </trkpt>
      <trkpt lat="42.250217" lon="2.884570">
        <ele>86.284</ele>
        <time>2020-10-17T18:32:38Z</time>
      </trkpt>
      <trkpt lat="42.250281" lon="2.884396">
        <ele>86.349</ele>
        <time>2020-10-17T18:32:40Z</time>
      </trkpt>
      <trkpt lat="42.250322" lon="2.884335">
        <ele>86.559</ele>
        <time>2020-10-17T18:32:41Z</time>
      </trkpt>
      <trkpt lat="42.250382" lon="2.884257">
        <ele>86.703</ele>
        <time>2020-10-17T18:32:43Z</time>
      </trkpt>
      <trkpt lat="42.250382" lon="2.884257">
        <ele>86.723</ele>
        <time>2020-10-17T18:32:43Z</time>
      </trkpt>
      <trkpt lat="42.250413" lon="2.884168">
        <ele>86.708</ele>
        <time>2020-10-17T18:32:45Z</time>
      </trkpt>
      <trkpt lat="42.250413" lon="2.884168">
        <ele>86.750</ele>
        <time>2020-10-17T18:32:45Z</time>
      </trkpt>
      <trkpt lat="42.250391" lon="2.884037">
        <ele>86.423</ele>
        <time>2020-10-17T18:32:47Z</time>
      </trkpt>
      <trkpt lat="42.250343" lon="2.883974">
        <ele>86.192</ele>
        <time>2020-10-17T18:32:48Z</time>
      </trkpt>
      <trkpt lat="42.250208" lon="2.883852">
        <ele>85.781</ele>
        <time>2020-10-17T18:32:50Z</time>
      </trkpt>
      <trkpt lat="42.250135" lon="2.883785">
        <ele>85.490</ele>
        <time>2020-10-17T18:32:51Z</time>
      </trkpt>
      <trkpt lat="42.249931" lon="2.883574">
        <ele>85.578</ele>
        <time>2020-10-17T18:32:54Z</time>
      </trkpt>
      <trkpt lat="42.249931" lon="2.883574">
        <ele>85.548</ele>
        <time>2020-10-17T18:32:54Z</time>
      </trkpt>
      <trkpt lat="42.249931" lon="2.883574">
        <ele>85.523</ele>
        <time>2020-10-17T18:32:54Z</time>
      </trkpt>
      <trkpt lat="42.249831" lon="2.883467">
        <ele>85.798</ele>
        <time>2020-10-17T18:32:57Z</time>
      </trkpt>
      <trkpt lat="42.249693" lon="2.883309">
        <ele>86.215</ele>
        <time>2020-10-17T18:32:58Z</time>
      </trkpt>
      <trkpt lat="42.249564" lon="2.883168">
        <ele>86.626</ele>
        <time>2020-10-17T18:33:00Z</time>
      </trkpt>
      <trkpt lat="42.249515" lon="2.883106">
        <ele>86.908</ele>
        <time>2020-10-17T18:33:01Z</time>
      </trkpt>
      <trkpt lat="42.249442" lon="2.882983">
        <ele>87.244</ele>
        <time>2020-10-17T18:33:03Z</time>
      </trkpt>
      <trkpt lat="42.249384" lon="2.882850">
        <ele>87.437</ele>
        <time>2020-10-17T18:33:05Z</time>
      </trkpt>
      <trkpt lat="42.249318" lon="2.882718">
        <ele>87.636</ele>
        <time>2020-10-17T18:33:07Z</time>
      </trkpt>
      <trkpt lat="42.249237" lon="2.882600">
        <ele>87.785</ele>
        <time>2020-10-17T18:33:09Z</time>
      </trkpt>
      <trkpt lat="42.249062" lon="2.882416">
        <ele>87.714</ele>
        <time>2020-10-17T18:33:13Z</time>
      </trkpt>
      <trkpt lat="42.249062" lon="2.882416">
        <ele>87.722</ele>
        <time>2020-10-17T18:33:13Z</time>
      </trkpt>
      <trkpt lat="42.249062" lon="2.882416">
        <ele>87.752</ele>
        <time>2020-10-17T18:33:13Z</time>
      </trkpt>
      <trkpt lat="42.249020" lon="2.882364">
        <ele>87.787</ele>
        <time>2020-10-17T18:33:14Z</time>
      </trkpt>
      <trkpt lat="42.248944" lon="2.882254">
        <ele>87.889</ele>
        <time>2020-10-17T18:33:16Z</time>
      </trkpt>
      <trkpt lat="42.248909" lon="2.882195">
        <ele>87.906</ele>
        <time>2020-10-17T18:33:17Z</time>
      </trkpt>
      <trkpt lat="42.248876" lon="2.882137">
        <ele>87.926</ele>
        <time>2020-10-17T18:33:18Z</time>
      </trkpt>
      <trkpt lat="42.248817" lon="2.882035">
        <ele>87.908</ele>
        <time>2020-10-17T18:33:20Z</time>
      </trkpt>
      <trkpt lat="42.248691" lon="2.881863">
        <ele>87.143</ele>
        <time>2020-10-17T18:33:24Z</time>
      </trkpt>
      <trkpt lat="42.248691" lon="2.881863">
        <ele>87.146</ele>
        <time>2020-10-17T18:33:24Z</time>
      </trkpt>
      <trkpt lat="42.248691" lon="2.881863">
        <ele>87.175</ele>
        <time>2020-10-17T18:33:24Z</time>
      </trkpt>
      <trkpt lat="42.248691" lon="2.881863">
        <ele>87.144</ele>
        <time>2020-10-17T18:33:24Z</time>
      </trkpt>
      <trkpt lat="42.248656" lon="2.881808">
        <ele>86.733</ele>
        <time>2020-10-17T18:33:25Z</time>
      </trkpt>
      <trkpt lat="42.248560" lon="2.881736">
        <ele>86.121</ele>
        <time>2020-10-17T18:33:27Z</time>
      </trkpt>
      <trkpt lat="42.248457" lon="2.881691">
        <ele>85.421</ele>
        <time>2020-10-17T18:33:29Z</time>
      </trkpt>
      <trkpt lat="42.248350" lon="2.881520">
        <ele>83.586</ele>
        <time>2020-10-17T18:33:33Z</time>
      </trkpt>
      <trkpt lat="42.248350" lon="2.881520">
        <ele>83.556</ele>
        <time>2020-10-17T18:33:33Z</time>
      </trkpt>
      <trkpt lat="42.248350" lon="2.881520">
        <ele>83.559</ele>
        <time>2020-10-17T18:33:33Z</time>
      </trkpt>
      <trkpt lat="42.248320" lon="2.881454">
        <ele>83.014</ele>
        <time>2020-10-17T18:33:34Z</time>
      </trkpt>
      <trkpt lat="42.248233" lon="2.881361">
        <ele>82.508</ele>
        <time>2020-10-17T18:33:36Z</time>
      </trkpt>
      <trkpt lat="42.248113" lon="2.881271">
        <ele>81.960</ele>
        <time>2020-10-17T18:33:38Z</time>
      </trkpt>
      <trkpt lat="42.247979" lon="2.881166">
        <ele>81.393</ele>
        <time>2020-10-17T18:33:40Z</time>
      </trkpt>
      <trkpt lat="42.247777" lon="2.880983">
        <ele>80.452</ele>
        <time>2020-10-17T18:33:43Z</time>
      </trkpt>
      <trkpt lat="42.247777" lon="2.880983">
        <ele>80.471</ele>
        <time>2020-10-17T18:33:43Z</time>
      </trkpt>
      <trkpt lat="42.247777" lon="2.880983">
        <ele>80.480</ele>
        <time>2020-10-17T18:33:43Z</time>
      </trkpt>
      <trkpt lat="42.247710" lon="2.880913">
        <ele>80.138</ele>
        <time>2020-10-17T18:33:44Z</time>
      </trkpt>
      <trkpt lat="42.247646" lon="2.880846">
        <ele>79.888</ele>
        <time>2020-10-17T18:33:45Z</time>
      </trkpt>
      <trkpt lat="42.247581" lon="2.880783">
        <ele>79.513</ele>
        <time>2020-10-17T18:33:46Z</time>
      </trkpt>
      <trkpt lat="42.247463" lon="2.880721">
        <ele>78.992</ele>
        <time>2020-10-17T18:33:48Z</time>
      </trkpt>
      <trkpt lat="42.247397" lon="2.880715">
        <ele>78.473</ele>
        <time>2020-10-17T18:33:49Z</time>
      </trkpt>
      <trkpt lat="42.247325" lon="2.880716">
        <ele>77.920</ele>
        <time>2020-10-17T18:33:50Z</time>
      </trkpt>
      <trkpt lat="42.246978" lon="2.880703">
        <ele>75.508</ele>
        <time>2020-10-17T18:33:54Z</time>
      </trkpt>
      <trkpt lat="42.246978" lon="2.880703">
        <ele>75.554</ele>
        <time>2020-10-17T18:33:54Z</time>
      </trkpt>
      <trkpt lat="42.246978" lon="2.880703">
        <ele>75.587</ele>
        <time>2020-10-17T18:33:54Z</time>
      </trkpt>
      <trkpt lat="42.246978" lon="2.880703">
        <ele>75.556</ele>
        <time>2020-10-17T18:33:54Z</time>
      </trkpt>
      <trkpt lat="42.246888" lon="2.880703">
        <ele>74.935</ele>
        <time>2020-10-17T18:33:55Z</time>
      </trkpt>
      <trkpt lat="42.246709" lon="2.880719">
        <ele>74.214</ele>
        <time>2020-10-17T18:33:57Z</time>
      </trkpt>
      <trkpt lat="42.246618" lon="2.880733">
        <ele>73.752</ele>
        <time>2020-10-17T18:33:58Z</time>
      </trkpt>
      <trkpt lat="42.246535" lon="2.880748">
        <ele>73.422</ele>
        <time>2020-10-17T18:33:59Z</time>
      </trkpt>
      <trkpt lat="42.246457" lon="2.880763">
        <ele>73.167</ele>
        <time>2020-10-17T18:34:00Z</time>
      </trkpt>
      <trkpt lat="42.246249" lon="2.880789">
        <ele>72.515</ele>
        <time>2020-10-17T18:34:03Z</time>
      </trkpt>
      <trkpt lat="42.246249" lon="2.880789">
        <ele>72.565</ele>
        <time>2020-10-17T18:34:03Z</time>
      </trkpt>
      <trkpt lat="42.246249" lon="2.880789">
        <ele>72.511</ele>
        <time>2020-10-17T18:34:03Z</time>
      </trkpt>
      <trkpt lat="42.246184" lon="2.880787">
        <ele>72.308</ele>
        <time>2020-10-17T18:34:04Z</time>
      </trkpt>
      <trkpt lat="42.246067" lon="2.880782">
        <ele>72.186</ele>
        <time>2020-10-17T18:34:06Z</time>
      </trkpt>
      <trkpt lat="42.246014" lon="2.880791">
        <ele>72.059</ele>
        <time>2020-10-17T18:34:07Z</time>
      </trkpt>
      <trkpt lat="42.245964" lon="2.880808">
        <ele>72.018</ele>
        <time>2020-10-17T18:34:08Z</time>
      </trkpt>
      <trkpt lat="42.245921" lon="2.880833">
        <ele>72.067</ele>
        <time>2020-10-17T18:34:09Z</time>
      </trkpt>
      <trkpt lat="42.245831" lon="2.880981">
        <ele>72.436</ele>
        <time>2020-10-17T18:34:14Z</time>
      </trkpt>
      <trkpt lat="42.245831" lon="2.880981">
        <ele>72.474</ele>
        <time>2020-10-17T18:34:14Z</time>
      </trkpt>
      <trkpt lat="42.245831" lon="2.880981">
        <ele>72.484</ele>
        <time>2020-10-17T18:34:14Z</time>
      </trkpt>
      <trkpt lat="42.245831" lon="2.880981">
        <ele>72.429</ele>
        <time>2020-10-17T18:34:14Z</time>
      </trkpt>
      <trkpt lat="42.245784" lon="2.881084">
        <ele>72.569</ele>
        <time>2020-10-17T18:34:16Z</time>
      </trkpt>
      <trkpt lat="42.245763" lon="2.881208">
        <ele>72.604</ele>
        <time>2020-10-17T18:34:18Z</time>
      </trkpt>
      <trkpt lat="42.245770" lon="2.881277">
        <ele>72.624</ele>
        <time>2020-10-17T18:34:19Z</time>
      </trkpt>
      <trkpt lat="42.245770" lon="2.881730">
        <ele>73.808</ele>
        <time>2020-10-17T18:34:24Z</time>
      </trkpt>
      <trkpt lat="42.245770" lon="2.881730">
        <ele>73.841</ele>
        <time>2020-10-17T18:34:24Z</time>
      </trkpt>
      <trkpt lat="42.245770" lon="2.881730">
        <ele>73.814</ele>
        <time>2020-10-17T18:34:24Z</time>
      </trkpt>
      <trkpt lat="42.245770" lon="2.881730">
        <ele>73.833</ele>
        <time>2020-10-17T18:34:24Z</time>
      </trkpt>
      <trkpt lat="42.245711" lon="2.881899">
        <ele>73.472</ele>
        <time>2020-10-17T18:34:26Z</time>
      </trkpt>
      <trkpt lat="42.245679" lon="2.881972">
        <ele>73.291</ele>
        <time>2020-10-17T18:34:27Z</time>
      </trkpt>
      <trkpt lat="42.245632" lon="2.882086">
        <ele>73.169</ele>
        <time>2020-10-17T18:34:29Z</time>
      </trkpt>
      <trkpt lat="42.245571" lon="2.882431">
        <ele>71.949</ele>
        <time>2020-10-17T18:34:33Z</time>
      </trkpt>
      <trkpt lat="42.245571" lon="2.882431">
        <ele>71.964</ele>
        <time>2020-10-17T18:34:33Z</time>
      </trkpt>
      <trkpt lat="42.245571" lon="2.882431">
        <ele>71.942</ele>
        <time>2020-10-17T18:34:33Z</time>
      </trkpt>
      <trkpt lat="42.245571" lon="2.882431">
        <ele>71.922</ele>
        <time>2020-10-17T18:34:33Z</time>
      </trkpt>
      <trkpt lat="42.245541" lon="2.882553">
        <ele>71.514</ele>
        <time>2020-10-17T18:34:34Z</time>
      </trkpt>
      <trkpt lat="42.245480" lon="2.882766">
        <ele>71.308</ele>
        <time>2020-10-17T18:34:36Z</time>
      </trkpt>
      <trkpt lat="42.245437" lon="2.882951">
        <ele>71.019</ele>
        <time>2020-10-17T18:34:38Z</time>
      </trkpt>
      <trkpt lat="42.245423" lon="2.883036">
        <ele>70.792</ele>
        <time>2020-10-17T18:34:39Z</time>
      </trkpt>
      <trkpt lat="42.245408" lon="2.883198">
        <ele>70.311</ele>
        <time>2020-10-17T18:34:41Z</time>
      </trkpt>
      <trkpt lat="42.245404" lon="2.883283">
        <ele>69.950</ele>
        <time>2020-10-17T18:34:42Z</time>
      </trkpt>
      <trkpt lat="42.245404" lon="2.883470">
        <ele>69.459</ele>
        <time>2020-10-17T18:34:44Z</time>
      </trkpt>
      <trkpt lat="42.245437" lon="2.883894">
        <ele>68.127</ele>
        <time>2020-10-17T18:34:48Z</time>
      </trkpt>
      <trkpt lat="42.245437" lon="2.883894">
        <ele>68.167</ele>
        <time>2020-10-17T18:34:48Z</time>
      </trkpt>
      <trkpt lat="42.245437" lon="2.883894">
        <ele>68.132</ele>
        <time>2020-10-17T18:34:48Z</time>
      </trkpt>
      <trkpt lat="42.245437" lon="2.883894">
        <ele>68.155</ele>
        <time>2020-10-17T18:34:48Z</time>
      </trkpt>
      <trkpt lat="42.245453" lon="2.884004">
        <ele>67.807</ele>
        <time>2020-10-17T18:34:49Z</time>
      </trkpt>
      <trkpt lat="42.245480" lon="2.884200">
        <ele>67.317</ele>
        <time>2020-10-17T18:34:51Z</time>
      </trkpt>
      <trkpt lat="42.245497" lon="2.884378">
        <ele>66.808</ele>
        <time>2020-10-17T18:34:53Z</time>
      </trkpt>
      <trkpt lat="42.245508" lon="2.884470">
        <ele>66.480</ele>
        <time>2020-10-17T18:34:54Z</time>
      </trkpt>
      <trkpt lat="42.245601" lon="2.884854">
        <ele>65.733</ele>
        <time>2020-10-17T18:34:58Z</time>
      </trkpt>
      <trkpt lat="42.245601" lon="2.884854">
        <ele>65.762</ele>
        <time>2020-10-17T18:34:58Z</time>
      </trkpt>
      <trkpt lat="42.245601" lon="2.884854">
        <ele>65.741</ele>
        <time>2020-10-17T18:34:58Z</time>
      </trkpt>
      <trkpt lat="42.245601" lon="2.884854">
        <ele>65.760</ele>
        <time>2020-10-17T18:34:58Z</time>
      </trkpt>
      <trkpt lat="42.245638" lon="2.884945">
        <ele>65.648</ele>
        <time>2020-10-17T18:34:59Z</time>
      </trkpt>
      <trkpt lat="42.245675" lon="2.885031">
        <ele>65.418</ele>
        <time>2020-10-17T18:35:00Z</time>
      </trkpt>
      <trkpt lat="42.245706" lon="2.885105">
        <ele>65.393</ele>
        <time>2020-10-17T18:35:01Z</time>
      </trkpt>
      <trkpt lat="42.245729" lon="2.885176">
        <ele>65.447</ele>
        <time>2020-10-17T18:35:03Z</time>
      </trkpt>
      <trkpt lat="42.245739" lon="2.885290">
        <ele>65.429</ele>
        <time>2020-10-17T18:35:08Z</time>
      </trkpt>
      <trkpt lat="42.245739" lon="2.885290">
        <ele>65.421</ele>
        <time>2020-10-17T18:35:08Z</time>
      </trkpt>
      <trkpt lat="42.245739" lon="2.885290">
        <ele>65.408</ele>
        <time>2020-10-17T18:35:08Z</time>
      </trkpt>
      <trkpt lat="42.245739" lon="2.885290">
        <ele>65.459</ele>
        <time>2020-10-17T18:35:08Z</time>
      </trkpt>
      <trkpt lat="42.245765" lon="2.885368">
        <ele>65.372</ele>
        <time>2020-10-17T18:35:09Z</time>
      </trkpt>
      <trkpt lat="42.245825" lon="2.885480">
        <ele>65.331</ele>
        <time>2020-10-17T18:35:11Z</time>
      </trkpt>
      <trkpt lat="42.245864" lon="2.885541">
        <ele>65.410</ele>
        <time>2020-10-17T18:35:12Z</time>
      </trkpt>
      <trkpt lat="42.245948" lon="2.885672">
        <ele>65.519</ele>
        <time>2020-10-17T18:35:14Z</time>
      </trkpt>
      <trkpt lat="42.246125" lon="2.885955">
        <ele>65.857</ele>
        <time>2020-10-17T18:35:18Z</time>
      </trkpt>
      <trkpt lat="42.246125" lon="2.885955">
        <ele>65.847</ele>
        <time>2020-10-17T18:35:18Z</time>
      </trkpt>
      <trkpt lat="42.246125" lon="2.885955">
        <ele>65.892</ele>
        <time>2020-10-17T18:35:18Z</time>
      </trkpt>
      <trkpt lat="42.246125" lon="2.885955">
        <ele>65.878</ele>
        <time>2020-10-17T18:35:18Z</time>
      </trkpt>
      <trkpt lat="42.246169" lon="2.886027">
        <ele>65.833</ele>
        <time>2020-10-17T18:35:19Z</time>
      </trkpt>
      <trkpt lat="42.246251" lon="2.886164">
        <ele>66.026</ele>
        <time>2020-10-17T18:35:21Z</time>
      </trkpt>
      <trkpt lat="42.246328" lon="2.886291">
        <ele>66.208</ele>
        <time>2020-10-17T18:35:23Z</time>
      </trkpt>
      <trkpt lat="42.246536" lon="2.886676">
        <ele>66.682</ele>
        <time>2020-10-17T18:35:28Z</time>
      </trkpt>
      <trkpt lat="42.246536" lon="2.886676">
        <ele>66.635</ele>
        <time>2020-10-17T18:35:28Z</time>
      </trkpt>
      <trkpt lat="42.246536" lon="2.886676">
        <ele>66.694</ele>
        <time>2020-10-17T18:35:28Z</time>
      </trkpt>
      <trkpt lat="42.246536" lon="2.886676">
        <ele>66.613</ele>
        <time>2020-10-17T18:35:28Z</time>
      </trkpt>
      <trkpt lat="42.246585" lon="2.886740">
        <ele>66.672</ele>
        <time>2020-10-17T18:35:29Z</time>
      </trkpt>
      <trkpt lat="42.246642" lon="2.886790">
        <ele>66.780</ele>
        <time>2020-10-17T18:35:30Z</time>
      </trkpt>
      <trkpt lat="42.246702" lon="2.886832">
        <ele>66.810</ele>
        <time>2020-10-17T18:35:31Z</time>
      </trkpt>
      <trkpt lat="42.246818" lon="2.886911">
        <ele>66.835</ele>
        <time>2020-10-17T18:35:33Z</time>
      </trkpt>
      <trkpt lat="42.246876" lon="2.886953">
        <ele>66.622</ele>
        <time>2020-10-17T18:35:34Z</time>
      </trkpt>
      <trkpt lat="42.246984" lon="2.887040">
        <ele>66.262</ele>
        <time>2020-10-17T18:35:36Z</time>
      </trkpt>
      <trkpt lat="42.246984" lon="2.887040">
        <ele>66.208</ele>
        <time>2020-10-17T18:35:36Z</time>
      </trkpt>
      <trkpt lat="42.247074" lon="2.887151">
        <ele>65.708</ele>
        <time>2020-10-17T18:35:38Z</time>
      </trkpt>
      <trkpt lat="42.247074" lon="2.887151">
        <ele>65.737</ele>
        <time>2020-10-17T18:35:38Z</time>
      </trkpt>
      <trkpt lat="42.247142" lon="2.887309">
        <ele>65.510</ele>
        <time>2020-10-17T18:35:40Z</time>
      </trkpt>
      <trkpt lat="42.247170" lon="2.887404">
        <ele>65.499</ele>
        <time>2020-10-17T18:35:41Z</time>
      </trkpt>
      <trkpt lat="42.247226" lon="2.887600">
        <ele>65.468</ele>
        <time>2020-10-17T18:35:43Z</time>
      </trkpt>
      <trkpt lat="42.247256" lon="2.887699">
        <ele>65.417</ele>
        <time>2020-10-17T18:35:44Z</time>
      </trkpt>
      <trkpt lat="42.247376" lon="2.888042">
        <ele>65.665</ele>
        <time>2020-10-17T18:35:48Z</time>
      </trkpt>
      <trkpt lat="42.247376" lon="2.888042">
        <ele>65.645</ele>
        <time>2020-10-17T18:35:48Z</time>
      </trkpt>
      <trkpt lat="42.247376" lon="2.888042">
        <ele>65.660</ele>
        <time>2020-10-17T18:35:48Z</time>
      </trkpt>
      <trkpt lat="42.247376" lon="2.888042">
        <ele>65.648</ele>
        <time>2020-10-17T18:35:48Z</time>
      </trkpt>
      <trkpt lat="42.247418" lon="2.888176">
        <ele>65.761</ele>
        <time>2020-10-17T18:35:50Z</time>
      </trkpt>
      <trkpt lat="42.247443" lon="2.888271">
        <ele>65.817</ele>
        <time>2020-10-17T18:35:52Z</time>
      </trkpt>
      <trkpt lat="42.247460" lon="2.888370">
        <ele>65.908</ele>
        <time>2020-10-17T18:35:54Z</time>
      </trkpt>
      <trkpt lat="42.247482" lon="2.888578">
        <ele>65.959</ele>
        <time>2020-10-17T18:35:58Z</time>
      </trkpt>
      <trkpt lat="42.247482" lon="2.888578">
        <ele>65.932</ele>
        <time>2020-10-17T18:35:58Z</time>
      </trkpt>
      <trkpt lat="42.247482" lon="2.888578">
        <ele>65.951</ele>
        <time>2020-10-17T18:35:58Z</time>
      </trkpt>
      <trkpt lat="42.247482" lon="2.888578">
        <ele>65.950</ele>
        <time>2020-10-17T18:35:58Z</time>
      </trkpt>
      <trkpt lat="42.247476" lon="2.888457">
        <ele>67.359</ele>
        <time>2020-10-17T18:36:18Z</time>
      </trkpt>
      <trkpt lat="42.247476" lon="2.888457">
        <ele>67.357</ele>
        <time>2020-10-17T18:36:18Z</time>
      </trkpt>
      <trkpt lat="42.247476" lon="2.888457">
        <ele>67.327</ele>
        <time>2020-10-17T18:36:18Z</time>
      </trkpt>
      <trkpt lat="42.247476" lon="2.888457">
        <ele>67.332</ele>
        <time>2020-10-17T18:36:18Z</time>
      </trkpt>
      <trkpt lat="42.247397" lon="2.888401">
        <ele>67.763</ele>
        <time>2020-10-17T18:38:25Z</time>
      </trkpt>
      <trkpt lat="42.247363" lon="2.888319">
        <ele>67.744</ele>
        <time>2020-10-17T18:38:27Z</time>
      </trkpt>
      <trkpt lat="42.247327" lon="2.888227">
        <ele>67.818</ele>
        <time>2020-10-17T18:38:29Z</time>
      </trkpt>
      <trkpt lat="42.247277" lon="2.888121">
        <ele>67.908</ele>
        <time>2020-10-17T18:38:31Z</time>
      </trkpt>
      <trkpt lat="42.247224" lon="2.888032">
        <ele>67.941</ele>
        <time>2020-10-17T18:38:33Z</time>
      </trkpt>
      <trkpt lat="42.247169" lon="2.887987">
        <ele>68.274</ele>
        <time>2020-10-17T18:38:37Z</time>
      </trkpt>
      <trkpt lat="42.247169" lon="2.887987">
        <ele>68.263</ele>
        <time>2020-10-17T18:38:37Z</time>
      </trkpt>
      <trkpt lat="42.247169" lon="2.887987">
        <ele>68.232</ele>
        <time>2020-10-17T18:38:37Z</time>
      </trkpt>
      <trkpt lat="42.247169" lon="2.887987">
        <ele>68.231</ele>
        <time>2020-10-17T18:38:37Z</time>
      </trkpt>
      <trkpt lat="42.247118" lon="2.888001">
        <ele>68.679</ele>
        <time>2020-10-17T18:38:40Z</time>
      </trkpt>
      <trkpt lat="42.247041" lon="2.888014">
        <ele>68.999</ele>
        <time>2020-10-17T18:38:42Z</time>
      </trkpt>
      <trkpt lat="42.247000" lon="2.888051">
        <ele>69.454</ele>
        <time>2020-10-17T18:38:45Z</time>
      </trkpt>
      <trkpt lat="42.247038" lon="2.888088">
        <ele>70.064</ele>
        <time>2020-10-17T18:38:47Z</time>
      </trkpt>
      <trkpt lat="42.247162" lon="2.888137">
        <ele>71.806</ele>
        <time>2020-10-17T18:38:51Z</time>
      </trkpt>
      <trkpt lat="42.247162" lon="2.888137">
        <ele>71.816</ele>
        <time>2020-10-17T18:38:51Z</time>
      </trkpt>
      <trkpt lat="42.247162" lon="2.888137">
        <ele>71.808</ele>
        <time>2020-10-17T18:38:51Z</time>
      </trkpt>
      <trkpt lat="42.247162" lon="2.888137">
        <ele>71.821</ele>
        <time>2020-10-17T18:38:51Z</time>
      </trkpt>
      <trkpt lat="42.247220" lon="2.888193">
        <ele>72.394</ele>
        <time>2020-10-17T18:38:53Z</time>
      </trkpt>
      <trkpt lat="42.247242" lon="2.888246">
        <ele>72.653</ele>
        <time>2020-10-17T18:38:55Z</time>
      </trkpt>
      <trkpt lat="42.247233" lon="2.888310">
        <ele>72.712</ele>
        <time>2020-10-17T18:38:59Z</time>
      </trkpt>
      <trkpt lat="42.247169" lon="2.888513">
        <ele>72.061</ele>
        <time>2020-10-17T18:39:08Z</time>
      </trkpt>
      <trkpt lat="42.247110" lon="2.888543">
        <ele>72.049</ele>
        <time>2020-10-17T18:39:10Z</time>
      </trkpt>
      <trkpt lat="42.247026" lon="2.888508">
        <ele>71.959</ele>
        <time>2020-10-17T18:39:12Z</time>
      </trkpt>
      <trkpt lat="42.246928" lon="2.888443">
        <ele>71.834</ele>
        <time>2020-10-17T18:39:16Z</time>
      </trkpt>
      <trkpt lat="42.246928" lon="2.888443">
        <ele>71.869</ele>
        <time>2020-10-17T18:39:16Z</time>
      </trkpt>
      <trkpt lat="42.246928" lon="2.888443">
        <ele>71.804</ele>
        <time>2020-10-17T18:39:16Z</time>
      </trkpt>
      <trkpt lat="42.246928" lon="2.888443">
        <ele>71.824</ele>
        <time>2020-10-17T18:39:16Z</time>
      </trkpt>
      <trkpt lat="42.246863" lon="2.888471">
        <ele>71.808</ele>
        <time>2020-10-17T18:39:18Z</time>
      </trkpt>
      <trkpt lat="42.246812" lon="2.888515">
        <ele>71.981</ele>
        <time>2020-10-17T18:39:20Z</time>
      </trkpt>
      <trkpt lat="42.246752" lon="2.888560">
        <ele>72.214</ele>
        <time>2020-10-17T18:39:22Z</time>
      </trkpt>
      <trkpt lat="42.246607" lon="2.888567">
        <ele>72.353</ele>
        <time>2020-10-17T18:39:26Z</time>
      </trkpt>
      <trkpt lat="42.246607" lon="2.888567">
        <ele>72.372</ele>
        <time>2020-10-17T18:39:26Z</time>
      </trkpt>
      <trkpt lat="42.246607" lon="2.888567">
        <ele>72.321</ele>
        <time>2020-10-17T18:39:26Z</time>
      </trkpt>
      <trkpt lat="42.246607" lon="2.888567">
        <ele>72.359</ele>
        <time>2020-10-17T18:39:26Z</time>
      </trkpt>
      <trkpt lat="42.246553" lon="2.888557">
        <ele>72.459</ele>
        <time>2020-10-17T18:39:27Z</time>
      </trkpt>
      <trkpt lat="42.246470" lon="2.888560">
        <ele>72.524</ele>
        <time>2020-10-17T18:39:29Z</time>
      </trkpt>
      <trkpt lat="42.246380" lon="2.888571">
        <ele>72.398</ele>
        <time>2020-10-17T18:39:31Z</time>
      </trkpt>
      <trkpt lat="42.246329" lon="2.888575">
        <ele>72.215</ele>
        <time>2020-10-17T18:39:32Z</time>
      </trkpt>
      <trkpt lat="42.246151" lon="2.888541">
        <ele>71.226</ele>
        <time>2020-10-17T18:39:36Z</time>
      </trkpt>
      <trkpt lat="42.246151" lon="2.888541">
        <ele>71.208</ele>
        <time>2020-10-17T18:39:36Z</time>
      </trkpt>
      <trkpt lat="42.246151" lon="2.888541">
        <ele>71.274</ele>
        <time>2020-10-17T18:39:36Z</time>
      </trkpt>
      <trkpt lat="42.246151" lon="2.888541">
        <ele>71.287</ele>
        <time>2020-10-17T18:39:36Z</time>
      </trkpt>
      <trkpt lat="42.246075" lon="2.888441">
        <ele>70.916</ele>
        <time>2020-10-17T18:39:38Z</time>
      </trkpt>
      <trkpt lat="42.245994" lon="2.888325">
        <ele>70.865</ele>
        <time>2020-10-17T18:39:40Z</time>
      </trkpt>
      <trkpt lat="42.245903" lon="2.888241">
        <ele>70.884</ele>
        <time>2020-10-17T18:39:42Z</time>
      </trkpt>
      <trkpt lat="42.245773" lon="2.888213">
        <ele>70.762</ele>
        <time>2020-10-17T18:39:46Z</time>
      </trkpt>
      <trkpt lat="42.245773" lon="2.888213">
        <ele>70.742</ele>
        <time>2020-10-17T18:39:46Z</time>
      </trkpt>
      <trkpt lat="42.245773" lon="2.888213">
        <ele>70.797</ele>
        <time>2020-10-17T18:39:46Z</time>
      </trkpt>
      <trkpt lat="42.245773" lon="2.888213">
        <ele>70.768</ele>
        <time>2020-10-17T18:39:46Z</time>
      </trkpt>
      <trkpt lat="42.245722" lon="2.888271">
        <ele>70.942</ele>
        <time>2020-10-17T18:39:48Z</time>
      </trkpt>
      <trkpt lat="42.245675" lon="2.888374">
        <ele>71.326</ele>
        <time>2020-10-17T18:39:50Z</time>
      </trkpt>
      <trkpt lat="42.245593" lon="2.888471">
        <ele>71.608</ele>
        <time>2020-10-17T18:39:52Z</time>
      </trkpt>
      <trkpt lat="42.245365" lon="2.888618">
        <ele>71.951</ele>
        <time>2020-10-17T18:39:56Z</time>
      </trkpt>
      <trkpt lat="42.245365" lon="2.888618">
        <ele>71.924</ele>
        <time>2020-10-17T18:39:56Z</time>
      </trkpt>
      <trkpt lat="42.245365" lon="2.888618">
        <ele>71.993</ele>
        <time>2020-10-17T18:39:56Z</time>
      </trkpt>
      <trkpt lat="42.245365" lon="2.888618">
        <ele>71.982</ele>
        <time>2020-10-17T18:39:56Z</time>
      </trkpt>
      <trkpt lat="42.245309" lon="2.888651">
        <ele>71.991</ele>
        <time>2020-10-17T18:39:57Z</time>
      </trkpt>
      <trkpt lat="42.245208" lon="2.888710">
        <ele>71.719</ele>
        <time>2020-10-17T18:39:59Z</time>
      </trkpt>
      <trkpt lat="42.245167" lon="2.888736">
        <ele>71.529</ele>
        <time>2020-10-17T18:40:00Z</time>
      </trkpt>
      <trkpt lat="42.245110" lon="2.888778">
        <ele>71.314</ele>
        <time>2020-10-17T18:40:02Z</time>
      </trkpt>
      <trkpt lat="42.244990" lon="2.888900">
        <ele>71.391</ele>
        <time>2020-10-17T18:40:06Z</time>
      </trkpt>
      <trkpt lat="42.244990" lon="2.888900">
        <ele>71.381</ele>
        <time>2020-10-17T18:40:06Z</time>
      </trkpt>
      <trkpt lat="42.244990" lon="2.888900">
        <ele>71.319</ele>
        <time>2020-10-17T18:40:06Z</time>
      </trkpt>
      <trkpt lat="42.244990" lon="2.888900">
        <ele>71.308</ele>
        <time>2020-10-17T18:40:06Z</time>
      </trkpt>
      <trkpt lat="42.244935" lon="2.888945">
        <ele>71.564</ele>
        <time>2020-10-17T18:40:08Z</time>
      </trkpt>
      <trkpt lat="42.244869" lon="2.889003">
        <ele>71.757</ele>
        <time>2020-10-17T18:40:10Z</time>
      </trkpt>
      <trkpt lat="42.244795" lon="2.889086">
        <ele>71.936</ele>
        <time>2020-10-17T18:40:12Z</time>
      </trkpt>
      <trkpt lat="42.244647" lon="2.889298">
        <ele>72.645</ele>
        <time>2020-10-17T18:40:16Z</time>
      </trkpt>
      <trkpt lat="42.244647" lon="2.889298">
        <ele>72.654</ele>
        <time>2020-10-17T18:40:16Z</time>
      </trkpt>
      <trkpt lat="42.244647" lon="2.889298">
        <ele>72.642</ele>
        <time>2020-10-17T18:40:16Z</time>
      </trkpt>
      <trkpt lat="42.244647" lon="2.889298">
        <ele>72.632</ele>
        <time>2020-10-17T18:40:16Z</time>
      </trkpt>
      <trkpt lat="42.244607" lon="2.889351">
        <ele>72.927</ele>
        <time>2020-10-17T18:40:17Z</time>
      </trkpt>
      <trkpt lat="42.244531" lon="2.889447">
        <ele>73.373</ele>
        <time>2020-10-17T18:40:19Z</time>
      </trkpt>
      <trkpt lat="42.244481" lon="2.889510">
        <ele>73.985</ele>
        <time>2020-10-17T18:40:21Z</time>
      </trkpt>
      <trkpt lat="42.244482" lon="2.889741">
        <ele>77.113</ele>
        <time>2020-10-17T18:40:26Z</time>
      </trkpt>
      <trkpt lat="42.244482" lon="2.889741">
        <ele>77.108</ele>
        <time>2020-10-17T18:40:26Z</time>
      </trkpt>
      <trkpt lat="42.244482" lon="2.889741">
        <ele>77.132</ele>
        <time>2020-10-17T18:40:26Z</time>
      </trkpt>
      <trkpt lat="42.244482" lon="2.889741">
        <ele>77.165</ele>
        <time>2020-10-17T18:40:26Z</time>
      </trkpt>
      <trkpt lat="42.244493" lon="2.889809">
        <ele>77.714</ele>
        <time>2020-10-17T18:40:27Z</time>
      </trkpt>
      <trkpt lat="42.244521" lon="2.889953">
        <ele>78.143</ele>
        <time>2020-10-17T18:40:29Z</time>
      </trkpt>
      <trkpt lat="42.244539" lon="2.890033">
        <ele>78.362</ele>
        <time>2020-10-17T18:40:30Z</time>
      </trkpt>
      <trkpt lat="42.244573" lon="2.890179">
        <ele>78.450</ele>
        <time>2020-10-17T18:40:32Z</time>
      </trkpt>
      <trkpt lat="42.244588" lon="2.890348">
        <ele>78.580</ele>
        <time>2020-10-17T18:40:35Z</time>
      </trkpt>
      <trkpt lat="42.244588" lon="2.890348">
        <ele>78.515</ele>
        <time>2020-10-17T18:40:35Z</time>
      </trkpt>
      <trkpt lat="42.244588" lon="2.890348">
        <ele>78.549</ele>
        <time>2020-10-17T18:40:35Z</time>
      </trkpt>
      <trkpt lat="42.244586" lon="2.890411">
        <ele>78.502</ele>
        <time>2020-10-17T18:40:36Z</time>
      </trkpt>
      <trkpt lat="42.244572" lon="2.890537">
        <ele>78.522</ele>
        <time>2020-10-17T18:40:38Z</time>
      </trkpt>
      <trkpt lat="42.244564" lon="2.890598">
        <ele>78.508</ele>
        <time>2020-10-17T18:40:39Z</time>
      </trkpt>
      <trkpt lat="42.244556" lon="2.890689">
        <ele>78.519</ele>
        <time>2020-10-17T18:40:41Z</time>
      </trkpt>
      <trkpt lat="42.244548" lon="2.890897">
        <ele>78.572</ele>
        <time>2020-10-17T18:40:44Z</time>
      </trkpt>
      <trkpt lat="42.244548" lon="2.890897">
        <ele>78.561</ele>
        <time>2020-10-17T18:40:44Z</time>
      </trkpt>
      <trkpt lat="42.244542" lon="2.891115">
        <ele>78.580</ele>
        <time>2020-10-17T18:40:46Z</time>
      </trkpt>
      <trkpt lat="42.244542" lon="2.891115">
        <ele>78.559</ele>
        <time>2020-10-17T18:40:46Z</time>
      </trkpt>
      <trkpt lat="42.244522" lon="2.891346">
        <ele>74.547</ele>
        <time>2020-10-17T18:40:48Z</time>
      </trkpt>
      <trkpt lat="42.244503" lon="2.891524">
        <ele>70.577</ele>
        <time>2020-10-17T18:40:50Z</time>
      </trkpt>
      <trkpt lat="42.244496" lon="2.891614">
        <ele>66.522</ele>
        <time>2020-10-17T18:40:51Z</time>
      </trkpt>
      <trkpt lat="42.244522" lon="2.892165">
        <ele>50.534</ele>
        <time>2020-10-17T18:40:56Z</time>
      </trkpt>
      <trkpt lat="42.244522" lon="2.892165">
        <ele>50.555</ele>
        <time>2020-10-17T18:40:56Z</time>
      </trkpt>
      <trkpt lat="42.244522" lon="2.892165">
        <ele>50.510</ele>
        <time>2020-10-17T18:40:56Z</time>
      </trkpt>
      <trkpt lat="42.244522" lon="2.892165">
        <ele>50.508</ele>
        <time>2020-10-17T18:40:56Z</time>
      </trkpt>
      <trkpt lat="42.244570" lon="2.892422">
        <ele>46.548</ele>
        <time>2020-10-17T18:40:58Z</time>
      </trkpt>
      <trkpt lat="42.244624" lon="2.892703">
        <ele>42.511</ele>
        <time>2020-10-17T18:41:00Z</time>
      </trkpt>
      <trkpt lat="42.244683" lon="2.893007">
        <ele>38.580</ele>
        <time>2020-10-17T18:41:02Z</time>
      </trkpt>
      <trkpt lat="42.244810" lon="2.893624">
        <ele>26.539</ele>
        <time>2020-10-17T18:41:06Z</time>
      </trkpt>
      <trkpt lat="42.244810" lon="2.893624">
        <ele>26.528</ele>
        <time>2020-10-17T18:41:06Z</time>
      </trkpt>
      <trkpt lat="42.244810" lon="2.893624">
        <ele>26.546</ele>
        <time>2020-10-17T18:41:06Z</time>
      </trkpt>
      <trkpt lat="42.244810" lon="2.893624">
        <ele>26.566</ele>
        <time>2020-10-17T18:41:06Z</time>
      </trkpt>
      <trkpt lat="42.244839" lon="2.893770">
        <ele>22.511</ele>
        <time>2020-10-17T18:41:07Z</time>
      </trkpt>
      <trkpt lat="42.244896" lon="2.894053">
        <ele>18.569</ele>
        <time>2020-10-17T18:41:09Z</time>
      </trkpt>
      <trkpt lat="42.244955" lon="2.894327">
        <ele>14.504</ele>
        <time>2020-10-17T18:41:11Z</time>
      </trkpt>
      <trkpt lat="42.244985" lon="2.894462">
        <ele>10.524</ele>
        <time>2020-10-17T18:41:12Z</time>
      </trkpt>
      <trkpt lat="42.245102" lon="2.894994">
        <ele>2.908</ele>
        <time>2020-10-17T18:41:16Z</time>
      </trkpt>
      <trkpt lat="42.245102" lon="2.894994">
        <ele>2.951</ele>
        <time>2020-10-17T18:41:16Z</time>
      </trkpt>
      <trkpt lat="42.245102" lon="2.894994">
        <ele>2.924</ele>
        <time>2020-10-17T18:41:16Z</time>
      </trkpt>
      <trkpt lat="42.245102" lon="2.894994">
        <ele>2.973</ele>
        <time>2020-10-17T18:41:16Z</time>
      </trkpt>
      <trkpt lat="42.245133" lon="2.895129">
        <ele>2.452</ele>
        <time>2020-10-17T18:41:17Z</time>
      </trkpt>
      <trkpt lat="42.245193" lon="2.895385">
        <ele>2.121</ele>
        <time>2020-10-17T18:41:19Z</time>
      </trkpt>
      <trkpt lat="42.245257" lon="2.895641">
        <ele>1.999</ele>
        <time>2020-10-17T18:41:21Z</time>
      </trkpt>
      <trkpt lat="42.245289" lon="2.895773">
        <ele>1.849</ele>
        <time>2020-10-17T18:41:22Z</time>
      </trkpt>
      <trkpt lat="42.245388" lon="2.896209">
        <ele>1.794</ele>
        <time>2020-10-17T18:41:26Z</time>
      </trkpt>
      <trkpt lat="42.245388" lon="2.896209">
        <ele>1.787</ele>
        <time>2020-10-17T18:41:26Z</time>
      </trkpt>
      <trkpt lat="42.245388" lon="2.896209">
        <ele>1.742</ele>
        <time>2020-10-17T18:41:26Z</time>
      </trkpt>
      <trkpt lat="42.245388" lon="2.896209">
        <ele>1.726</ele>
        <time>2020-10-17T18:41:26Z</time>
      </trkpt>
      <trkpt lat="42.245418" lon="2.896350">
        <ele>1.708</ele>
        <time>2020-10-17T18:41:28Z</time>
      </trkpt>
      <trkpt lat="42.245439" lon="2.896417">
        <ele>1.723</ele>
        <time>2020-10-17T18:41:30Z</time>
      </trkpt>
      <trkpt lat="42.245471" lon="2.896515">
        <ele>1.766</ele>
        <time>2020-10-17T18:42:23Z</time>
      </trkpt>
      <trkpt lat="42.245491" lon="2.896610">
        <ele>1.795</ele>
        <time>2020-10-17T18:42:24Z</time>
      </trkpt>
      <trkpt lat="42.245513" lon="2.896713">
        <ele>1.794</ele>
        <time>2020-10-17T18:42:25Z</time>
      </trkpt>
      <trkpt lat="42.245564" lon="2.896950">
        <ele>1.783</ele>
        <time>2020-10-17T18:42:27Z</time>
      </trkpt>
      <trkpt lat="42.245592" lon="2.897090">
        <ele>5.791</ele>
        <time>2020-10-17T18:42:28Z</time>
      </trkpt>
      <trkpt lat="42.245618" lon="2.897227">
        <ele>9.721</ele>
        <time>2020-10-17T18:42:29Z</time>
      </trkpt>
      <trkpt lat="42.245613" lon="2.897610">
        <ele>21.766</ele>
        <time>2020-10-17T18:42:33Z</time>
      </trkpt>
      <trkpt lat="42.245613" lon="2.897610">
        <ele>21.732</ele>
        <time>2020-10-17T18:42:33Z</time>
      </trkpt>
      <trkpt lat="42.245613" lon="2.897610">
        <ele>21.792</ele>
        <time>2020-10-17T18:42:33Z</time>
      </trkpt>
      <trkpt lat="42.245613" lon="2.897610">
        <ele>21.711</ele>
        <time>2020-10-17T18:42:33Z</time>
      </trkpt>
      <trkpt lat="42.245565" lon="2.897659">
        <ele>25.708</ele>
        <time>2020-10-17T18:42:34Z</time>
      </trkpt>
      <trkpt lat="42.245502" lon="2.897687">
        <ele>29.778</ele>
        <time>2020-10-17T18:42:35Z</time>
      </trkpt>
      <trkpt lat="42.245382" lon="2.897717">
        <ele>33.741</ele>
        <time>2020-10-17T18:42:37Z</time>
      </trkpt>
      <trkpt lat="42.245366" lon="2.897793">
        <ele>37.720</ele>
        <time>2020-10-17T18:42:39Z</time>
      </trkpt>
      <trkpt lat="42.245429" lon="2.897937">
        <ele>41.779</ele>
        <time>2020-10-17T18:42:41Z</time>
      </trkpt>
      <trkpt lat="42.245516" lon="2.898143">
        <ele>45.798</ele>
        <time>2020-10-17T18:42:43Z</time>
      </trkpt>
      <trkpt lat="42.245722" lon="2.898423">
        <ele>57.796</ele>
        <time>2020-10-17T18:42:47Z</time>
      </trkpt>
      <trkpt lat="42.245722" lon="2.898423">
        <ele>57.776</ele>
        <time>2020-10-17T18:42:47Z</time>
      </trkpt>
      <trkpt lat="42.245722" lon="2.898423">
        <ele>57.761</ele>
        <time>2020-10-17T18:42:47Z</time>
      </trkpt>
      <trkpt lat="42.245722" lon="2.898423">
        <ele>57.786</ele>
        <time>2020-10-17T18:42:47Z</time>
      </trkpt>
      <trkpt lat="42.245858" lon="2.898395">
        <ele>61.760</ele>
        <time>2020-10-17T18:42:49Z</time>
      </trkpt>
      <trkpt lat="42.245924" lon="2.898350">
        <ele>65.726</ele>
        <time>2020-10-17T18:42:50Z</time>
      </trkpt>
      <trkpt lat="42.246039" lon="2.898257">
        <ele>69.708</ele>
        <time>2020-10-17T18:42:52Z</time>
      </trkpt>
      <trkpt lat="42.246139" lon="2.898157">
        <ele>72.473</ele>
        <time>2020-10-17T18:42:54Z</time>
      </trkpt>
      <trkpt lat="42.246182" lon="2.898092">
        <ele>74.016</ele>
        <time>2020-10-17T18:42:55Z</time>
      </trkpt>
      <trkpt lat="42.246250" lon="2.897930">
        <ele>75.075</ele>
        <time>2020-10-17T18:42:57Z</time>
      </trkpt>
      <trkpt lat="42.246442" lon="2.897544">
        <ele>76.114</ele>
        <time>2020-10-17T18:43:01Z</time>
      </trkpt>
      <trkpt lat="42.246442" lon="2.897544">
        <ele>76.113</ele>
        <time>2020-10-17T18:43:01Z</time>
      </trkpt>
      <trkpt lat="42.246442" lon="2.897544">
        <ele>76.151</ele>
        <time>2020-10-17T18:43:01Z</time>
      </trkpt>
      <trkpt lat="42.246442" lon="2.897544">
        <ele>76.121</ele>
        <time>2020-10-17T18:43:01Z</time>
      </trkpt>
      <trkpt lat="42.246593" lon="2.897335">
        <ele>76.016</ele>
        <time>2020-10-17T18:43:03Z</time>
      </trkpt>
      <trkpt lat="42.246759" lon="2.897121">
        <ele>75.681</ele>
        <time>2020-10-17T18:43:05Z</time>
      </trkpt>
      <trkpt lat="42.246921" lon="2.896892">
        <ele>75.161</ele>
        <time>2020-10-17T18:43:07Z</time>
      </trkpt>
      <trkpt lat="42.247084" lon="2.896645">
        <ele>74.517</ele>
        <time>2020-10-17T18:43:09Z</time>
      </trkpt>
      <trkpt lat="42.247229" lon="2.896388">
        <ele>73.908</ele>
        <time>2020-10-17T18:43:11Z</time>
      </trkpt>
      <trkpt lat="42.247382" lon="2.895867">
        <ele>72.423</ele>
        <time>2020-10-17T18:43:15Z</time>
      </trkpt>
      <trkpt lat="42.247382" lon="2.895867">
        <ele>72.426</ele>
        <time>2020-10-17T18:43:15Z</time>
      </trkpt>
      <trkpt lat="42.247382" lon="2.895867">
        <ele>72.425</ele>
        <time>2020-10-17T18:43:15Z</time>
      </trkpt>
      <trkpt lat="42.247382" lon="2.895867">
        <ele>72.454</ele>
        <time>2020-10-17T18:43:15Z</time>
      </trkpt>
      <trkpt lat="42.247374" lon="2.895722">
        <ele>72.153</ele>
        <time>2020-10-17T18:43:16Z</time>
      </trkpt>
      <trkpt lat="42.247352" lon="2.895571">
        <ele>71.811</ele>
        <time>2020-10-17T18:43:17Z</time>
      </trkpt>
      <trkpt lat="42.247293" lon="2.895274">
        <ele>71.621</ele>
        <time>2020-10-17T18:43:19Z</time>
      </trkpt>
      <trkpt lat="42.247268" lon="2.895117">
        <ele>71.426</ele>
        <time>2020-10-17T18:43:20Z</time>
      </trkpt>
      <trkpt lat="42.247245" lon="2.894961">
        <ele>71.343</ele>
        <time>2020-10-17T18:43:21Z</time>
      </trkpt>
      <trkpt lat="42.247096" lon="2.894375">
        <ele>70.764</ele>
        <time>2020-10-17T18:43:25Z</time>
      </trkpt>
      <trkpt lat="42.247096" lon="2.894375">
        <ele>70.710</ele>
        <time>2020-10-17T18:43:25Z</time>
      </trkpt>
      <trkpt lat="42.247096" lon="2.894375">
        <ele>70.708</ele>
        <time>2020-10-17T18:43:25Z</time>
      </trkpt>
      <trkpt lat="42.247096" lon="2.894375">
        <ele>70.739</ele>
        <time>2020-10-17T18:43:25Z</time>
      </trkpt>
      <trkpt lat="42.247019" lon="2.894246">
        <ele>70.362</ele>
        <time>2020-10-17T18:43:26Z</time>
      </trkpt>
      <trkpt lat="42.246834" lon="2.894030">
        <ele>69.521</ele>
        <time>2020-10-17T18:43:28Z</time>
      </trkpt>
      <trkpt lat="42.246636" lon="2.893851">
        <ele>68.750</ele>
        <time>2020-10-17T18:43:30Z</time>
      </trkpt>
      <trkpt lat="42.246554" lon="2.893767">
        <ele>68.189</ele>
        <time>2020-10-17T18:43:31Z</time>
      </trkpt>
      <trkpt lat="42.246510" lon="2.893415">
        <ele>66.157</ele>
        <time>2020-10-17T18:43:35Z</time>
      </trkpt>
      <trkpt lat="42.246510" lon="2.893415">
        <ele>66.157</ele>
        <time>2020-10-17T18:43:35Z</time>
      </trkpt>
      <trkpt lat="42.246510" lon="2.893415">
        <ele>66.152</ele>
        <time>2020-10-17T18:43:35Z</time>
      </trkpt>
      <trkpt lat="42.246510" lon="2.893415">
        <ele>66.182</ele>
        <time>2020-10-17T18:43:35Z</time>
      </trkpt>
      <trkpt lat="42.246587" lon="2.893257">
        <ele>65.343</ele>
        <time>2020-10-17T18:43:37Z</time>
      </trkpt>
      <trkpt lat="42.246625" lon="2.893183">
        <ele>64.817</ele>
        <time>2020-10-17T18:43:38Z</time>
      </trkpt>
      <trkpt lat="42.246657" lon="2.893122">
        <ele>64.408</ele>
        <time>2020-10-17T18:43:39Z</time>
      </trkpt>
      <trkpt lat="42.246711" lon="2.893060">
        <ele>63.873</ele>
        <time>2020-10-17T18:43:41Z</time>
      </trkpt>
      <trkpt lat="42.246835" lon="2.893022">
        <ele>62.566</ele>
        <time>2020-10-17T18:43:45Z</time>
      </trkpt>
      <trkpt lat="42.246835" lon="2.893022">
        <ele>62.555</ele>
        <time>2020-10-17T18:43:45Z</time>
      </trkpt>
      <trkpt lat="42.246835" lon="2.893022">
        <ele>62.574</ele>
        <time>2020-10-17T18:43:45Z</time>
      </trkpt>
      <trkpt lat="42.246835" lon="2.893022">
        <ele>62.583</ele>
        <time>2020-10-17T18:43:45Z</time>
      </trkpt>
      <trkpt lat="42.246884" lon="2.893002">
        <ele>62.181</ele>
        <time>2020-10-17T18:43:46Z</time>
      </trkpt>
      <trkpt lat="42.246964" lon="2.892965">
        <ele>61.681</ele>
        <time>2020-10-17T18:43:48Z</time>
      </trkpt>
      <trkpt lat="42.247063" lon="2.892922">
        <ele>61.266</ele>
        <time>2020-10-17T18:43:50Z</time>
      </trkpt>
      <trkpt lat="42.247406" lon="2.892744">
        <ele>62.548</ele>
        <time>2020-10-17T18:43:55Z</time>
      </trkpt>
      <trkpt lat="42.247406" lon="2.892744">
        <ele>62.561</ele>
        <time>2020-10-17T18:43:55Z</time>
      </trkpt>
      <trkpt lat="42.247406" lon="2.892744">
        <ele>62.517</ele>
        <time>2020-10-17T18:43:55Z</time>
      </trkpt>
      <trkpt lat="42.247406" lon="2.892744">
        <ele>62.508</ele>
        <time>2020-10-17T18:43:55Z</time>
      </trkpt>
      <trkpt lat="42.247499" lon="2.892697">
        <ele>63.169</ele>
        <time>2020-10-17T18:43:56Z</time>
      </trkpt>
      <trkpt lat="42.247670" lon="2.892595">
        <ele>63.952</ele>
        <time>2020-10-17T18:43:58Z</time>
      </trkpt>
      <trkpt lat="42.247846" lon="2.892479">
        <ele>64.671</ele>
        <time>2020-10-17T18:44:00Z</time>
      </trkpt>
      <trkpt lat="42.248026" lon="2.892360">
        <ele>65.180</ele>
        <time>2020-10-17T18:44:02Z</time>
      </trkpt>
      <trkpt lat="42.248332" lon="2.892190">
        <ele>66.199</ele>
        <time>2020-10-17T18:44:05Z</time>
      </trkpt>
      <trkpt lat="42.248332" lon="2.892190">
        <ele>66.187</ele>
        <time>2020-10-17T18:44:05Z</time>
      </trkpt>
      <trkpt lat="42.248332" lon="2.892190">
        <ele>66.127</ele>
        <time>2020-10-17T18:44:05Z</time>
      </trkpt>
      <trkpt lat="42.248537" lon="2.892092">
        <ele>66.552</ele>
        <time>2020-10-17T18:44:07Z</time>
      </trkpt>
      <trkpt lat="42.248641" lon="2.892046">
        <ele>66.994</ele>
        <time>2020-10-17T18:44:08Z</time>
      </trkpt>
      <trkpt lat="42.248745" lon="2.892000">
        <ele>67.457</ele>
        <time>2020-10-17T18:44:09Z</time>
      </trkpt>
      <trkpt lat="42.248944" lon="2.891912">
        <ele>68.022</ele>
        <time>2020-10-17T18:44:11Z</time>
      </trkpt>
      <trkpt lat="42.249251" lon="2.891806">
        <ele>69.508</ele>
        <time>2020-10-17T18:44:14Z</time>
      </trkpt>
      <trkpt lat="42.249251" lon="2.891806">
        <ele>69.524</ele>
        <time>2020-10-17T18:44:14Z</time>
      </trkpt>
      <trkpt lat="42.249251" lon="2.891806">
        <ele>69.577</ele>
        <time>2020-10-17T18:44:14Z</time>
      </trkpt>
      <trkpt lat="42.249466" lon="2.891753">
        <ele>70.346</ele>
        <time>2020-10-17T18:44:16Z</time>
      </trkpt>
      <trkpt lat="42.249668" lon="2.891747">
        <ele>71.265</ele>
        <time>2020-10-17T18:44:18Z</time>
      </trkpt>
      <trkpt lat="42.249867" lon="2.891780">
        <ele>72.384</ele>
        <time>2020-10-17T18:44:20Z</time>
      </trkpt>
      <trkpt lat="42.250304" lon="2.891897">
        <ele>75.462</ele>
        <time>2020-10-17T18:44:25Z</time>
      </trkpt>
      <trkpt lat="42.250304" lon="2.891897">
        <ele>75.472</ele>
        <time>2020-10-17T18:44:25Z</time>
      </trkpt>
      <trkpt lat="42.250304" lon="2.891897">
        <ele>75.437</ele>
        <time>2020-10-17T18:44:25Z</time>
      </trkpt>
      <trkpt lat="42.250304" lon="2.891897">
        <ele>75.462</ele>
        <time>2020-10-17T18:44:25Z</time>
      </trkpt>
      <trkpt lat="42.250459" lon="2.891848">
        <ele>76.383</ele>
        <time>2020-10-17T18:44:27Z</time>
      </trkpt>
      <trkpt lat="42.250541" lon="2.891807">
        <ele>77.011</ele>
        <time>2020-10-17T18:44:28Z</time>
      </trkpt>
      <trkpt lat="42.250694" lon="2.891744">
        <ele>77.908</ele>
        <time>2020-10-17T18:44:30Z</time>
      </trkpt>
      <trkpt lat="42.250976" lon="2.891719">
        <ele>81.711</ele>
        <time>2020-10-17T18:44:35Z</time>
      </trkpt>
      <trkpt lat="42.250976" lon="2.891719">
        <ele>81.714</ele>
        <time>2020-10-17T18:44:35Z</time>
      </trkpt>
      <trkpt lat="42.250976" lon="2.891719">
        <ele>81.733</ele>
        <time>2020-10-17T18:44:35Z</time>
      </trkpt>
      <trkpt lat="42.250976" lon="2.891719">
        <ele>81.732</ele>
        <time>2020-10-17T18:44:35Z</time>
      </trkpt>
      <trkpt lat="42.251122" lon="2.891713">
        <ele>82.641</ele>
        <time>2020-10-17T18:44:37Z</time>
      </trkpt>
      <trkpt lat="42.251303" lon="2.891700">
        <ele>83.679</ele>
        <time>2020-10-17T18:44:39Z</time>
      </trkpt>
      <trkpt lat="42.251399" lon="2.891688">
        <ele>84.419</ele>
        <time>2020-10-17T18:44:40Z</time>
      </trkpt>
      <trkpt lat="42.251748" lon="2.891687">
        <ele>86.344</ele>
        <time>2020-10-17T18:44:44Z</time>
      </trkpt>
      <trkpt lat="42.251748" lon="2.891687">
        <ele>86.344</ele>
        <time>2020-10-17T18:44:44Z</time>
      </trkpt>
      <trkpt lat="42.251748" lon="2.891687">
        <ele>86.305</ele>
        <time>2020-10-17T18:44:44Z</time>
      </trkpt>
      <trkpt lat="42.251937" lon="2.891742">
        <ele>86.715</ele>
        <time>2020-10-17T18:44:46Z</time>
      </trkpt>
      <trkpt lat="42.252132" lon="2.891767">
        <ele>87.208</ele>
        <time>2020-10-17T18:44:48Z</time>
      </trkpt>
      <trkpt lat="42.252333" lon="2.891734">
        <ele>87.729</ele>
        <time>2020-10-17T18:44:50Z</time>
      </trkpt>
      <trkpt lat="42.252432" lon="2.891701">
        <ele>88.262</ele>
        <time>2020-10-17T18:44:51Z</time>
      </trkpt>
      <trkpt lat="42.252596" lon="2.891629">
        <ele>88.911</ele>
        <time>2020-10-17T18:44:53Z</time>
      </trkpt>
      <trkpt lat="42.252596" lon="2.891629">
        <ele>88.970</ele>
        <time>2020-10-17T18:44:53Z</time>
      </trkpt>
      <trkpt lat="42.252689" lon="2.891579">
        <ele>90.269</ele>
        <time>2020-10-17T18:44:55Z</time>
      </trkpt>
      <trkpt lat="42.252689" lon="2.891579">
        <ele>90.287</ele>
        <time>2020-10-17T18:44:55Z</time>
      </trkpt>
      <trkpt lat="42.252733" lon="2.891550">
        <ele>91.297</ele>
        <time>2020-10-17T18:44:57Z</time>
      </trkpt>
      <trkpt lat="42.252829" lon="2.891494">
        <ele>92.362</ele>
        <time>2020-10-17T18:44:59Z</time>
      </trkpt>
      <trkpt lat="42.252896" lon="2.891456">
        <ele>93.294</ele>
        <time>2020-10-17T18:45:00Z</time>
      </trkpt>
      <trkpt lat="42.253112" lon="2.891358">
        <ele>96.557</ele>
        <time>2020-10-17T18:45:05Z</time>
      </trkpt>
      <trkpt lat="42.253112" lon="2.891358">
        <ele>96.522</ele>
        <time>2020-10-17T18:45:05Z</time>
      </trkpt>
      <trkpt lat="42.253112" lon="2.891358">
        <ele>96.508</ele>
        <time>2020-10-17T18:45:05Z</time>
      </trkpt>
      <trkpt lat="42.253112" lon="2.891358">
        <ele>96.594</ele>
        <time>2020-10-17T18:45:05Z</time>
      </trkpt>
      <trkpt lat="42.253145" lon="2.891437">
        <ele>97.377</ele>
        <time>2020-10-17T18:45:09Z</time>
      </trkpt>
      <trkpt lat="42.253155" lon="2.891517">
        <ele>98.176</ele>
        <time>2020-10-17T18:45:10Z</time>
      </trkpt>
      <trkpt lat="42.253179" lon="2.891768">
        <ele>99.955</ele>
        <time>2020-10-17T18:45:13Z</time>
      </trkpt>
      <trkpt lat="42.253179" lon="2.891768">
        <ele>99.974</ele>
        <time>2020-10-17T18:45:13Z</time>
      </trkpt>
      <trkpt lat="42.253216" lon="2.891915">
        <ele>101.132</ele>
        <time>2020-10-17T18:45:15Z</time>
      </trkpt>
      <trkpt lat="42.253216" lon="2.891915">
        <ele>101.192</ele>
        <time>2020-10-17T18:45:15Z</time>
      </trkpt>
      <trkpt lat="42.253253" lon="2.891999">
        <ele>101.737</ele>
        <time>2020-10-17T18:45:17Z</time>
      </trkpt>
      <trkpt lat="42.253298" lon="2.892111">
        <ele>102.157</ele>
        <time>2020-10-17T18:45:19Z</time>
      </trkpt>
      <trkpt lat="42.253353" lon="2.892312">
        <ele>102.400</ele>
        <time>2020-10-17T18:45:21Z</time>
      </trkpt>
      <trkpt lat="42.253435" lon="2.892672">
        <ele>102.020</ele>
        <time>2020-10-17T18:45:24Z</time>
      </trkpt>
      <trkpt lat="42.253435" lon="2.892672">
        <ele>102.008</ele>
        <time>2020-10-17T18:45:24Z</time>
      </trkpt>
      <trkpt lat="42.253435" lon="2.892672">
        <ele>102.060</ele>
        <time>2020-10-17T18:45:24Z</time>
      </trkpt>
      <trkpt lat="42.253520" lon="2.892952">
        <ele>101.383</ele>
        <time>2020-10-17T18:45:26Z</time>
      </trkpt>
      <trkpt lat="42.253651" lon="2.893252">
        <ele>100.942</ele>
        <time>2020-10-17T18:45:28Z</time>
      </trkpt>
      <trkpt lat="42.253734" lon="2.893411">
        <ele>100.621</ele>
        <time>2020-10-17T18:45:29Z</time>
      </trkpt>
      <trkpt lat="42.253908" lon="2.893723">
        <ele>100.350</ele>
        <time>2020-10-17T18:45:31Z</time>
      </trkpt>
      <trkpt lat="42.254238" lon="2.894336">
        <ele>100.168</ele>
        <time>2020-10-17T18:45:35Z</time>
      </trkpt>
      <trkpt lat="42.254238" lon="2.894336">
        <ele>100.178</ele>
        <time>2020-10-17T18:45:35Z</time>
      </trkpt>
      <trkpt lat="42.254238" lon="2.894336">
        <ele>100.163</ele>
        <time>2020-10-17T18:45:35Z</time>
      </trkpt>
      <trkpt lat="42.254238" lon="2.894336">
        <ele>100.138</ele>
        <time>2020-10-17T18:45:35Z</time>
      </trkpt>
      <trkpt lat="42.254316" lon="2.894498">
        <ele>100.070</ele>
        <time>2020-10-17T18:45:36Z</time>
      </trkpt>
      <trkpt lat="42.254393" lon="2.894667">
        <ele>99.917</ele>
        <time>2020-10-17T18:45:37Z</time>
      </trkpt>
      <trkpt lat="42.254537" lon="2.895004">
        <ele>99.708</ele>
        <time>2020-10-17T18:45:39Z</time>
      </trkpt>
      <trkpt lat="42.254603" lon="2.895175">
        <ele>99.558</ele>
        <time>2020-10-17T18:45:40Z</time>
      </trkpt>
      <trkpt lat="42.254703" lon="2.895499">
        <ele>99.391</ele>
        <time>2020-10-17T18:45:42Z</time>
      </trkpt>
      <trkpt lat="42.254742" lon="2.895643">
        <ele>99.280</ele>
        <time>2020-10-17T18:45:43Z</time>
      </trkpt>
      <trkpt lat="42.254808" lon="2.895869">
        <ele>99.359</ele>
        <time>2020-10-17T18:45:45Z</time>
      </trkpt>
      <trkpt lat="42.254950" lon="2.896129">
        <ele>99.428</ele>
        <time>2020-10-17T18:45:50Z</time>
      </trkpt>
      <trkpt lat="42.254950" lon="2.896129">
        <ele>99.446</ele>
        <time>2020-10-17T18:45:50Z</time>
      </trkpt>
      <trkpt lat="42.254950" lon="2.896129">
        <ele>99.416</ele>
        <time>2020-10-17T18:45:50Z</time>
      </trkpt>
      <trkpt lat="42.254950" lon="2.896129">
        <ele>99.411</ele>
        <time>2020-10-17T18:45:50Z</time>
      </trkpt>
      <trkpt lat="42.255031" lon="2.896110">
        <ele>98.243</ele>
        <time>2020-10-17T18:46:04Z</time>
      </trkpt>
      <trkpt lat="42.255080" lon="2.896017">
        <ele>97.964</ele>
        <time>2020-10-17T18:46:06Z</time>
      </trkpt>
      <trkpt lat="42.255176" lon="2.895684">
        <ele>97.210</ele>
        <time>2020-10-17T18:46:10Z</time>
      </trkpt>
      <trkpt lat="42.255176" lon="2.895684">
        <ele>97.208</ele>
        <time>2020-10-17T18:46:10Z</time>
      </trkpt>
      <trkpt lat="42.255176" lon="2.895684">
        <ele>97.289</ele>
        <time>2020-10-17T18:46:10Z</time>
      </trkpt>
      <trkpt lat="42.255176" lon="2.895684">
        <ele>97.272</ele>
        <time>2020-10-17T18:46:10Z</time>
      </trkpt>
      <trkpt lat="42.255209" lon="2.895577">
        <ele>97.281</ele>
        <time>2020-10-17T18:46:11Z</time>
      </trkpt>
      <trkpt lat="42.255290" lon="2.895322">
        <ele>97.130</ele>
        <time>2020-10-17T18:46:13Z</time>
      </trkpt>
      <trkpt lat="42.255342" lon="2.895189">
        <ele>97.099</ele>
        <time>2020-10-17T18:46:14Z</time>
      </trkpt>
      <trkpt lat="42.255453" lon="2.894945">
        <ele>96.977</ele>
        <time>2020-10-17T18:46:16Z</time>
      </trkpt>
      <trkpt lat="42.255514" lon="2.894820">
        <ele>96.857</ele>
        <time>2020-10-17T18:46:17Z</time>
      </trkpt>
      <trkpt lat="42.255577" lon="2.894687">
        <ele>96.852</ele>
        <time>2020-10-17T18:46:18Z</time>
      </trkpt>
      <trkpt lat="42.255806" lon="2.894162">
        <ele>96.781</ele>
        <time>2020-10-17T18:46:22Z</time>
      </trkpt>
      <trkpt lat="42.255806" lon="2.894162">
        <ele>96.761</ele>
        <time>2020-10-17T18:46:22Z</time>
      </trkpt>
      <trkpt lat="42.255806" lon="2.894162">
        <ele>96.717</ele>
        <time>2020-10-17T18:46:22Z</time>
      </trkpt>
      <trkpt lat="42.255806" lon="2.894162">
        <ele>96.708</ele>
        <time>2020-10-17T18:46:22Z</time>
      </trkpt>
      <trkpt lat="42.255908" lon="2.893933">
        <ele>96.773</ele>
        <time>2020-10-17T18:46:24Z</time>
      </trkpt>
      <trkpt lat="42.256011" lon="2.893701">
        <ele>96.856</ele>
        <time>2020-10-17T18:46:26Z</time>
      </trkpt>
      <trkpt lat="42.256064" lon="2.893578">
        <ele>96.935</ele>
        <time>2020-10-17T18:46:27Z</time>
      </trkpt>
      <trkpt lat="42.256321" lon="2.892938">
        <ele>97.714</ele>
        <time>2020-10-17T18:46:32Z</time>
      </trkpt>
      <trkpt lat="42.256321" lon="2.892938">
        <ele>97.753</ele>
        <time>2020-10-17T18:46:32Z</time>
      </trkpt>
      <trkpt lat="42.256321" lon="2.892938">
        <ele>97.751</ele>
        <time>2020-10-17T18:46:32Z</time>
      </trkpt>
      <trkpt lat="42.256321" lon="2.892938">
        <ele>97.711</ele>
        <time>2020-10-17T18:46:32Z</time>
      </trkpt>
      <trkpt lat="42.256368" lon="2.892800">
        <ele>98.046</ele>
        <time>2020-10-17T18:46:33Z</time>
      </trkpt>
      <trkpt lat="42.256408" lon="2.892658">
        <ele>98.431</ele>
        <time>2020-10-17T18:46:34Z</time>
      </trkpt>
      <trkpt lat="42.256472" lon="2.892362">
        <ele>99.061</ele>
        <time>2020-10-17T18:46:36Z</time>
      </trkpt>
      <trkpt lat="42.256495" lon="2.892208">
        <ele>99.607</ele>
        <time>2020-10-17T18:46:37Z</time>
      </trkpt>
      <trkpt lat="42.256513" lon="2.892045">
        <ele>100.108</ele>
        <time>2020-10-17T18:46:38Z</time>
      </trkpt>
      <trkpt lat="42.256574" lon="2.891433">
        <ele>101.448</ele>
        <time>2020-10-17T18:46:42Z</time>
      </trkpt>
      <trkpt lat="42.256574" lon="2.891433">
        <ele>101.471</ele>
        <time>2020-10-17T18:46:42Z</time>
      </trkpt>
      <trkpt lat="42.256574" lon="2.891433">
        <ele>101.430</ele>
        <time>2020-10-17T18:46:42Z</time>
      </trkpt>
      <trkpt lat="42.256574" lon="2.891433">
        <ele>101.429</ele>
        <time>2020-10-17T18:46:42Z</time>
      </trkpt>
      <trkpt lat="42.256599" lon="2.891208">
        <ele>101.648</ele>
        <time>2020-10-17T18:46:44Z</time>
      </trkpt>
      <trkpt lat="42.256609" lon="2.891113">
        <ele>101.886</ele>
        <time>2020-10-17T18:46:45Z</time>
      </trkpt>
      <trkpt lat="42.256626" lon="2.890943">
        <ele>101.776</ele>
        <time>2020-10-17T18:46:47Z</time>
      </trkpt>
      <trkpt lat="42.256635" lon="2.890867">
        <ele>101.671</ele>
        <time>2020-10-17T18:46:48Z</time>
      </trkpt>
      <trkpt lat="42.256657" lon="2.890775">
        <ele>101.716</ele>
        <time>2020-10-17T18:46:50Z</time>
      </trkpt>
      <trkpt lat="42.256657" lon="2.890775">
        <ele>101.776</ele>
        <time>2020-10-17T18:46:50Z</time>
      </trkpt>
      <trkpt lat="42.256695" lon="2.890714">
        <ele>101.813</ele>
        <time>2020-10-17T18:46:52Z</time>
      </trkpt>
      <trkpt lat="42.256695" lon="2.890714">
        <ele>101.808</ele>
        <time>2020-10-17T18:46:52Z</time>
      </trkpt>
      <trkpt lat="42.256755" lon="2.890723">
        <ele>102.066</ele>
        <time>2020-10-17T18:46:54Z</time>
      </trkpt>
      <trkpt lat="42.256802" lon="2.890748">
        <ele>102.389</ele>
        <time>2020-10-17T18:46:56Z</time>
      </trkpt>
      <trkpt lat="42.256886" lon="2.890744">
        <ele>103.158</ele>
        <time>2020-10-17T18:47:50Z</time>
      </trkpt>
      <trkpt lat="42.256935" lon="2.890739">
        <ele>103.657</ele>
        <time>2020-10-17T18:47:51Z</time>
      </trkpt>
      <trkpt lat="42.257015" lon="2.890735">
        <ele>103.966</ele>
        <time>2020-10-17T18:47:53Z</time>
      </trkpt>
      <trkpt lat="42.257087" lon="2.890731">
        <ele>104.164</ele>
        <time>2020-10-17T18:47:55Z</time>
      </trkpt>
      <trkpt lat="42.257161" lon="2.890746">
        <ele>104.244</ele>
        <time>2020-10-17T18:47:57Z</time>
      </trkpt>
      <trkpt lat="42.257211" lon="2.890764">
        <ele>104.249</ele>
        <time>2020-10-17T18:47:58Z</time>
      </trkpt>
      <trkpt lat="42.257275" lon="2.890791">
        <ele>104.146</ele>
        <time>2020-10-17T18:47:59Z</time>
      </trkpt>
      <trkpt lat="42.257410" lon="2.890855">
        <ele>103.988</ele>
        <time>2020-10-17T18:48:01Z</time>
      </trkpt>
      <trkpt lat="42.257556" lon="2.890932">
        <ele>103.616</ele>
        <time>2020-10-17T18:48:03Z</time>
      </trkpt>
      <trkpt lat="42.257701" lon="2.890992">
        <ele>103.408</ele>
        <time>2020-10-17T18:48:05Z</time>
      </trkpt>
      <trkpt lat="42.257850" lon="2.891049">
        <ele>103.259</ele>
        <time>2020-10-17T18:48:07Z</time>
      </trkpt>
      <trkpt lat="42.258004" lon="2.891118">
        <ele>103.262</ele>
        <time>2020-10-17T18:48:09Z</time>
      </trkpt>
      <trkpt lat="42.258163" lon="2.891198">
        <ele>103.251</ele>
        <time>2020-10-17T18:48:11Z</time>
      </trkpt>
      <trkpt lat="42.258324" lon="2.891286">
        <ele>103.290</ele>
        <time>2020-10-17T18:48:13Z</time>
      </trkpt>
      <trkpt lat="42.258459" lon="2.891357">
        <ele>103.389</ele>
        <time>2020-10-17T18:48:15Z</time>
      </trkpt>
      <trkpt lat="42.258624" lon="2.891492">
        <ele>103.317</ele>
        <time>2020-10-17T18:48:17Z</time>
      </trkpt>
      <trkpt lat="42.258700" lon="2.891565">
        <ele>103.327</ele>
        <time>2020-10-17T18:48:18Z</time>
      </trkpt>
      <trkpt lat="42.258834" lon="2.891703">
        <ele>103.532</ele>
        <time>2020-10-17T18:48:20Z</time>
      </trkpt>
      <trkpt lat="42.258890" lon="2.891760">
        <ele>103.734</ele>
        <time>2020-10-17T18:48:21Z</time>
      </trkpt>
      <trkpt lat="42.258997" lon="2.891852">
        <ele>104.055</ele>
        <time>2020-10-17T18:48:23Z</time>
      </trkpt>
      <trkpt lat="42.259062" lon="2.891887">
        <ele>104.310</ele>
        <time>2020-10-17T18:48:24Z</time>
      </trkpt>
      <trkpt lat="42.259218" lon="2.891929">
        <ele>104.408</ele>
        <time>2020-10-17T18:48:26Z</time>
      </trkpt>
      <trkpt lat="42.259361" lon="2.891950">
        <ele>104.528</ele>
        <time>2020-10-17T18:48:28Z</time>
      </trkpt>
      <trkpt lat="42.259413" lon="2.891960">
        <ele>104.721</ele>
        <time>2020-10-17T18:48:30Z</time>
      </trkpt>
      <trkpt lat="42.259362" lon="2.891939">
        <ele>104.950</ele>
        <time>2020-10-17T18:48:34Z</time>
      </trkpt>
      <trkpt lat="42.259419" lon="2.892008">
        <ele>105.249</ele>
        <time>2020-10-17T18:48:38Z</time>
      </trkpt>
      <trkpt lat="42.259490" lon="2.892111">
        <ele>105.538</ele>
        <time>2020-10-17T18:48:40Z</time>
      </trkpt>
      <trkpt lat="42.259508" lon="2.892175">
        <ele>105.796</ele>
        <time>2020-10-17T18:48:41Z</time>
      </trkpt>
      <trkpt lat="42.259490" lon="2.892258">
        <ele>106.256</ele>
        <time>2020-10-17T18:49:07Z</time>
      </trkpt>
      <trkpt lat="42.259495" lon="2.892347">
        <ele>106.861</ele>
        <time>2020-10-17T18:49:09Z</time>
      </trkpt>
      <trkpt lat="42.259494" lon="2.892426">
        <ele>107.397</ele>
        <time>2020-10-17T18:49:11Z</time>
      </trkpt>
      <trkpt lat="42.259487" lon="2.892558">
        <ele>107.623</ele>
        <time>2020-10-17T18:49:13Z</time>
      </trkpt>
      <trkpt lat="42.259479" lon="2.892700">
        <ele>107.925</ele>
        <time>2020-10-17T18:49:15Z</time>
      </trkpt>
      <trkpt lat="42.259472" lon="2.892783">
        <ele>108.208</ele>
        <time>2020-10-17T18:49:16Z</time>
      </trkpt>
      <trkpt lat="42.259448" lon="2.892939">
        <ele>108.114</ele>
        <time>2020-10-17T18:49:18Z</time>
      </trkpt>
      <trkpt lat="42.259422" lon="2.893078">
        <ele>107.617</ele>
        <time>2020-10-17T18:49:20Z</time>
      </trkpt>
      <trkpt lat="42.259400" lon="2.893179">
        <ele>106.816</ele>
        <time>2020-10-17T18:49:22Z</time>
      </trkpt>
      <trkpt lat="42.259387" lon="2.893250">
        <ele>105.975</ele>
        <time>2020-10-17T18:49:24Z</time>
      </trkpt>
      <trkpt lat="42.259404" lon="2.893315">
        <ele>105.134</ele>
        <time>2020-10-17T18:49:26Z</time>
      </trkpt>
      <trkpt lat="42.259477" lon="2.893365">
        <ele>104.792</ele>
        <time>2020-10-17T18:49:28Z</time>
      </trkpt>
      <trkpt lat="42.259532" lon="2.893391">
        <ele>104.742</ele>
        <time>2020-10-17T18:49:30Z</time>
      </trkpt>
      <trkpt lat="42.259577" lon="2.893367">
        <ele>105.047</ele>
        <time>2020-10-17T18:49:34Z</time>
      </trkpt>
      <trkpt lat="42.259609" lon="2.893314">
        <ele>105.545</ele>
        <time>2020-10-17T18:49:37Z</time>
      </trkpt>
      <trkpt lat="42.259661" lon="2.893289">
        <ele>106.047</ele>
        <time>2020-10-17T18:49:39Z</time>
      </trkpt>
      <trkpt lat="42.259731" lon="2.893282">
        <ele>106.311</ele>
        <time>2020-10-17T18:49:41Z</time>
      </trkpt>
      <trkpt lat="42.259776" lon="2.893287">
        <ele>106.308</ele>
        <time>2020-10-17T18:49:44Z</time>
      </trkpt>
      <trkpt lat="42.259827" lon="2.893274">
        <ele>106.419</ele>
        <time>2020-10-17T18:49:47Z</time>
      </trkpt>
      <trkpt lat="42.259887" lon="2.893258">
        <ele>106.582</ele>
        <time>2020-10-17T18:49:50Z</time>
      </trkpt>
      <trkpt lat="42.259945" lon="2.893248">
        <ele>106.681</ele>
        <time>2020-10-17T18:49:52Z</time>
      </trkpt>
      <trkpt lat="42.259998" lon="2.893244">
        <ele>106.780</ele>
        <time>2020-10-17T18:49:54Z</time>
      </trkpt>
      <trkpt lat="42.260062" lon="2.893251">
        <ele>106.989</ele>
        <time>2020-10-17T18:49:56Z</time>
      </trkpt>
      <trkpt lat="42.260115" lon="2.893262">
        <ele>107.187</ele>
        <time>2020-10-17T18:49:58Z</time>
      </trkpt>
      <trkpt lat="42.260170" lon="2.893270">
        <ele>107.457</ele>
        <time>2020-10-17T18:50:00Z</time>
      </trkpt>
      <trkpt lat="42.260221" lon="2.893273">
        <ele>107.552</ele>
        <time>2020-10-17T18:50:02Z</time>
      </trkpt>
      <trkpt lat="42.260282" lon="2.893267">
        <ele>107.736</ele>
        <time>2020-10-17T18:50:05Z</time>
      </trkpt>
      <trkpt lat="42.260359" lon="2.893239">
        <ele>108.617</ele>
        <time>2020-10-17T18:50:19Z</time>
      </trkpt>
      <trkpt lat="42.260377" lon="2.893155">
        <ele>109.218</ele>
        <time>2020-10-17T18:50:22Z</time>
      </trkpt>
      <trkpt lat="42.260321" lon="2.893075">
        <ele>109.608</ele>
        <time>2020-10-17T18:50:24Z</time>
      </trkpt>
      <trkpt lat="42.260283" lon="2.893031">
        <ele>109.758</ele>
        <time>2020-10-17T18:50:25Z</time>
      </trkpt>
      <trkpt lat="42.260186" lon="2.892927">
        <ele>109.861</ele>
        <time>2020-10-17T18:50:27Z</time>
      </trkpt>
      <trkpt lat="42.260075" lon="2.892804">
        <ele>109.950</ele>
        <time>2020-10-17T18:50:29Z</time>
      </trkpt>
      <trkpt lat="42.260025" lon="2.892739">
        <ele>109.939</ele>
        <time>2020-10-17T18:50:30Z</time>
      </trkpt>
      <trkpt lat="42.259981" lon="2.892673">
        <ele>110.078</ele>
        <time>2020-10-17T18:50:31Z</time>
      </trkpt>
      <trkpt lat="42.259910" lon="2.892557">
        <ele>110.216</ele>
        <time>2020-10-17T18:50:33Z</time>
      </trkpt>
      <trkpt lat="42.259875" lon="2.892514">
        <ele>110.356</ele>
        <time>2020-10-17T18:50:34Z</time>
      </trkpt>
      <trkpt lat="42.259804" lon="2.892463">
        <ele>110.491</ele>
        <time>2020-10-17T18:50:36Z</time>
      </trkpt>
      <trkpt lat="42.259717" lon="2.892416">
        <ele>110.591</ele>
        <time>2020-10-17T18:50:38Z</time>
      </trkpt>
      <trkpt lat="42.259641" lon="2.892373">
        <ele>110.581</ele>
        <time>2020-10-17T18:50:40Z</time>
      </trkpt>
      <trkpt lat="42.259568" lon="2.892337">
        <ele>110.519</ele>
        <time>2020-10-17T18:50:42Z</time>
      </trkpt>
      <trkpt lat="42.259514" lon="2.892312">
        <ele>110.408</ele>
        <time>2020-10-17T18:50:44Z</time>
      </trkpt>
      <trkpt lat="42.259498" lon="2.892385">
        <ele>111.164</ele>
        <time>2020-10-17T18:50:52Z</time>
      </trkpt>
      <trkpt lat="42.259512" lon="2.892467">
        <ele>111.957</ele>
        <time>2020-10-17T18:50:54Z</time>
      </trkpt>
      <trkpt lat="42.259516" lon="2.892580">
        <ele>112.986</ele>
        <time>2020-10-17T18:50:56Z</time>
      </trkpt>
      <trkpt lat="42.259506" lon="2.892709">
        <ele>114.195</ele>
        <time>2020-10-17T18:50:58Z</time>
      </trkpt>
      <trkpt lat="42.259487" lon="2.892841">
        <ele>115.344</ele>
        <time>2020-10-17T18:51:00Z</time>
      </trkpt>
      <trkpt lat="42.259473" lon="2.892928">
        <ele>116.172</ele>
        <time>2020-10-17T18:51:01Z</time>
      </trkpt>
      <trkpt lat="42.259459" lon="2.893021">
        <ele>116.642</ele>
        <time>2020-10-17T18:51:03Z</time>
      </trkpt>
      <trkpt lat="42.259440" lon="2.893125">
        <ele>116.847</ele>
        <time>2020-10-17T18:51:05Z</time>
      </trkpt>
      <trkpt lat="42.259424" lon="2.893207">
        <ele>116.938</ele>
        <time>2020-10-17T18:51:06Z</time>
      </trkpt>
      <trkpt lat="42.259418" lon="2.893297">
        <ele>116.670</ele>
        <time>2020-10-17T18:51:08Z</time>
      </trkpt>
      <trkpt lat="42.259462" lon="2.893362">
        <ele>115.817</ele>
        <time>2020-10-17T18:51:10Z</time>
      </trkpt>
      <trkpt lat="42.259545" lon="2.893402">
        <ele>114.908</ele>
        <time>2020-10-17T18:51:12Z</time>
      </trkpt>
      <trkpt lat="42.259598" lon="2.893356">
        <ele>113.468</ele>
        <time>2020-10-17T18:51:19Z</time>
      </trkpt>
      <trkpt lat="42.259651" lon="2.893317">
        <ele>112.441</ele>
        <time>2020-10-17T18:51:21Z</time>
      </trkpt>
      <trkpt lat="42.259714" lon="2.893293">
        <ele>111.730</ele>
        <time>2020-10-17T18:51:23Z</time>
      </trkpt>
      <trkpt lat="42.259764" lon="2.893289">
        <ele>111.249</ele>
        <time>2020-10-17T18:51:25Z</time>
      </trkpt>
      <trkpt lat="42.259827" lon="2.893282">
        <ele>110.878</ele>
        <time>2020-10-17T18:51:29Z</time>
      </trkpt>
      <trkpt lat="42.259874" lon="2.893269">
        <ele>110.426</ele>
        <time>2020-10-17T18:51:32Z</time>
      </trkpt>
      <trkpt lat="42.259930" lon="2.893254">
        <ele>110.146</ele>
        <time>2020-10-17T18:51:34Z</time>
      </trkpt>
      <trkpt lat="42.259986" lon="2.893241">
        <ele>110.031</ele>
        <time>2020-10-17T18:51:37Z</time>
      </trkpt>
      <trkpt lat="42.260037" lon="2.893243">
        <ele>110.084</ele>
        <time>2020-10-17T18:51:39Z</time>
      </trkpt>
      <trkpt lat="42.260083" lon="2.893253">
        <ele>110.107</ele>
        <time>2020-10-17T18:51:41Z</time>
      </trkpt>
      <trkpt lat="42.260137" lon="2.893265">
        <ele>110.217</ele>
        <time>2020-10-17T18:51:43Z</time>
      </trkpt>
      <trkpt lat="42.260198" lon="2.893270">
        <ele>110.408</ele>
        <time>2020-10-17T18:51:45Z</time>
      </trkpt>
      <trkpt lat="42.260243" lon="2.893276">
        <ele>110.743</ele>
        <time>2020-10-17T18:51:47Z</time>
      </trkpt>
      <trkpt lat="42.260299" lon="2.893284">
        <ele>111.256</ele>
        <time>2020-10-17T18:51:49Z</time>
      </trkpt>
      <trkpt lat="42.260370" lon="2.893290">
        <ele>111.785</ele>
        <time>2020-10-17T18:51:51Z</time>
      </trkpt>
      <trkpt lat="42.260461" lon="2.893302">
        <ele>112.274</ele>
        <time>2020-10-17T18:51:53Z</time>
      </trkpt>
      <trkpt lat="42.260564" lon="2.893325">
        <ele>112.723</ele>
        <time>2020-10-17T18:51:55Z</time>
      </trkpt>
      <trkpt lat="42.260691" lon="2.893353">
        <ele>113.151</ele>
        <time>2020-10-17T18:51:57Z</time>
      </trkpt>
      <trkpt lat="42.260765" lon="2.893359">
        <ele>113.421</ele>
        <time>2020-10-17T18:51:58Z</time>
      </trkpt>
      <trkpt lat="42.260843" lon="2.893350">
        <ele>113.816</ele>
        <time>2020-10-17T18:51:59Z</time>
      </trkpt>
      <trkpt lat="42.260917" lon="2.893327">
        <ele>114.227</ele>
        <time>2020-10-17T18:52:00Z</time>
      </trkpt>
      <trkpt lat="42.261026" lon="2.893281">
        <ele>114.968</ele>
        <time>2020-10-17T18:52:02Z</time>
      </trkpt>
      <trkpt lat="42.261080" lon="2.893226">
        <ele>116.114</ele>
        <time>2020-10-17T18:52:06Z</time>
      </trkpt>
      <trkpt lat="42.261202" lon="2.893152">
        <ele>117.608</ele>
        <time>2020-10-17T18:52:08Z</time>
      </trkpt>
      <trkpt lat="42.261258" lon="2.893127">
        <ele>118.627</ele>
        <time>2020-10-17T18:52:09Z</time>
      </trkpt>
      <trkpt lat="42.261311" lon="2.893109">
        <ele>119.220</ele>
        <time>2020-10-17T18:52:10Z</time>
      </trkpt>
      <trkpt lat="42.261396" lon="2.893092">
        <ele>119.869</ele>
        <time>2020-10-17T18:52:12Z</time>
      </trkpt>
      <trkpt lat="42.261445" lon="2.893090">
        <ele>120.368</ele>
        <time>2020-10-17T18:52:14Z</time>
      </trkpt>
      <trkpt lat="42.261511" lon="2.893102">
        <ele>120.867</ele>
        <time>2020-10-17T18:52:38Z</time>
      </trkpt>
      <trkpt lat="42.261571" lon="2.893097">
        <ele>121.045</ele>
        <time>2020-10-17T18:52:40Z</time>
      </trkpt>
      <trkpt lat="42.261639" lon="2.893095">
        <ele>121.385</ele>
        <time>2020-10-17T18:52:42Z</time>
      </trkpt>
      <trkpt lat="42.261692" lon="2.893094">
        <ele>121.650</ele>
        <time>2020-10-17T18:52:44Z</time>
      </trkpt>
      <trkpt lat="42.261744" lon="2.893086">
        <ele>121.979</ele>
        <time>2020-10-17T18:52:46Z</time>
      </trkpt>
      <trkpt lat="42.261804" lon="2.893077">
        <ele>122.305</ele>
        <time>2020-10-17T18:52:48Z</time>
      </trkpt>
      <trkpt lat="42.261864" lon="2.893075">
        <ele>122.825</ele>
        <time>2020-10-17T18:52:50Z</time>
      </trkpt>
      <trkpt lat="42.261942" lon="2.893076">
        <ele>123.208</ele>
        <time>2020-10-17T18:52:52Z</time>
      </trkpt>
      <trkpt lat="42.261997" lon="2.893079">
        <ele>123.612</ele>
        <time>2020-10-17T18:52:54Z</time>
      </trkpt>
      <trkpt lat="42.262056" lon="2.893080">
        <ele>123.725</ele>
        <time>2020-10-17T18:52:56Z</time>
      </trkpt>
      <trkpt lat="42.262132" lon="2.893074">
        <ele>123.854</ele>
        <time>2020-10-17T18:52:58Z</time>
      </trkpt>
      <trkpt lat="42.262220" lon="2.893058">
        <ele>123.763</ele>
        <time>2020-10-17T18:53:00Z</time>
      </trkpt>
      <trkpt lat="42.262316" lon="2.893028">
        <ele>123.652</ele>
        <time>2020-10-17T18:53:02Z</time>
      </trkpt>
      <trkpt lat="42.262403" lon="2.892996">
        <ele>124.370</ele>
        <time>2020-10-17T18:53:04Z</time>
      </trkpt>
      <trkpt lat="42.262454" lon="2.892990">
        <ele>125.170</ele>
        <time>2020-10-17T18:53:05Z</time>
      </trkpt>
      <trkpt lat="42.262547" lon="2.892987">
        <ele>126.145</ele>
        <time>2020-10-17T18:53:07Z</time>
      </trkpt>
      <trkpt lat="42.262654" lon="2.892989">
        <ele>127.253</ele>
        <time>2020-10-17T18:53:09Z</time>
      </trkpt>
      <trkpt lat="42.262784" lon="2.892986">
        <ele>128.404</ele>
        <time>2020-10-17T18:53:11Z</time>
      </trkpt>
      <trkpt lat="42.262889" lon="2.892972">
        <ele>129.614</ele>
        <time>2020-10-17T18:53:13Z</time>
      </trkpt>
      <trkpt lat="42.262993" lon="2.892947">
        <ele>131.108</ele>
        <time>2020-10-17T18:53:15Z</time>
      </trkpt>
      <trkpt lat="42.263115" lon="2.892917">
        <ele>132.970</ele>
        <time>2020-10-17T18:53:17Z</time>
      </trkpt>
      <trkpt lat="42.263232" lon="2.892936">
        <ele>134.583</ele>
        <time>2020-10-17T18:53:19Z</time>
      </trkpt>
      <trkpt lat="42.263280" lon="2.892977">
        <ele>135.662</ele>
        <time>2020-10-17T18:53:20Z</time>
      </trkpt>
      <trkpt lat="42.263317" lon="2.893034">
        <ele>136.541</ele>
        <time>2020-10-17T18:53:21Z</time>
      </trkpt>
      <trkpt lat="42.263341" lon="2.893104">
        <ele>137.390</ele>
        <time>2020-10-17T18:53:22Z</time>
      </trkpt>
      <trkpt lat="42.263337" lon="2.893231">
        <ele>138.558</ele>
        <time>2020-10-17T18:53:24Z</time>
      </trkpt>
      <trkpt lat="42.263315" lon="2.893342">
        <ele>139.728</ele>
        <time>2020-10-17T18:53:26Z</time>
      </trkpt>
      <trkpt lat="42.263299" lon="2.893456">
        <ele>140.863</ele>
        <time>2020-10-17T18:53:28Z</time>
      </trkpt>
      <trkpt lat="42.263289" lon="2.893585">
        <ele>141.612</ele>
        <time>2020-10-17T18:53:30Z</time>
      </trkpt>
      <trkpt lat="42.263288" lon="2.893650">
        <ele>142.132</ele>
        <time>2020-10-17T18:53:31Z</time>
      </trkpt>
      <trkpt lat="42.263290" lon="2.893721">
        <ele>142.305</ele>
        <time>2020-10-17T18:53:32Z</time>
      </trkpt>
      <trkpt lat="42.263295" lon="2.893878">
        <ele>142.208</ele>
        <time>2020-10-17T18:53:34Z</time>
      </trkpt>
      <trkpt lat="42.263297" lon="2.893954">
        <ele>142.216</ele>
        <time>2020-10-17T18:53:35Z</time>
      </trkpt>
      <trkpt lat="42.263297" lon="2.894027">
        <ele>142.149</ele>
        <time>2020-10-17T18:53:36Z</time>
      </trkpt>
      <trkpt lat="42.263297" lon="2.894101">
        <ele>142.138</ele>
        <time>2020-10-17T18:53:37Z</time>
      </trkpt>
      <trkpt lat="42.263301" lon="2.894239">
        <ele>142.147</ele>
        <time>2020-10-17T18:53:39Z</time>
      </trkpt>
      <trkpt lat="42.263302" lon="2.894308">
        <ele>142.196</ele>
        <time>2020-10-17T18:53:40Z</time>
      </trkpt>
      <trkpt lat="42.263301" lon="2.894372">
        <ele>142.164</ele>
        <time>2020-10-17T18:53:41Z</time>
      </trkpt>
      <trkpt lat="42.263302" lon="2.894480">
        <ele>142.284</ele>
        <time>2020-10-17T18:53:43Z</time>
      </trkpt>
      <trkpt lat="42.263307" lon="2.894548">
        <ele>142.349</ele>
        <time>2020-10-17T18:53:44Z</time>
      </trkpt>
      <trkpt lat="42.263313" lon="2.894707">
        <ele>142.494</ele>
        <time>2020-10-17T18:53:46Z</time>
      </trkpt>
      <trkpt lat="42.263310" lon="2.894873">
        <ele>142.557</ele>
        <time>2020-10-17T18:53:48Z</time>
      </trkpt>
      <trkpt lat="42.263308" lon="2.894990">
        <ele>142.522</ele>
        <time>2020-10-17T18:53:50Z</time>
      </trkpt>
      <trkpt lat="42.263316" lon="2.895078">
        <ele>142.508</ele>
        <time>2020-10-17T18:53:52Z</time>
      </trkpt>
      <trkpt lat="42.263347" lon="2.895187">
        <ele>142.494</ele>
        <time>2020-10-17T18:53:54Z</time>
      </trkpt>
      <trkpt lat="42.263381" lon="2.895229">
        <ele>142.337</ele>
        <time>2020-10-17T18:53:55Z</time>
      </trkpt>
      <trkpt lat="42.263460" lon="2.895246">
        <ele>142.116</ele>
        <time>2020-10-17T18:53:57Z</time>
      </trkpt>
      <trkpt lat="42.263533" lon="2.895188">
        <ele>141.775</ele>
        <time>2020-10-17T18:53:59Z</time>
      </trkpt>
      <trkpt lat="42.263556" lon="2.895136">
        <ele>141.284</ele>
        <time>2020-10-17T18:54:00Z</time>
      </trkpt>
      <trkpt lat="42.263567" lon="2.895015">
        <ele>140.662</ele>
        <time>2020-10-17T18:54:02Z</time>
      </trkpt>
      <trkpt lat="42.263564" lon="2.894937">
        <ele>140.172</ele>
        <time>2020-10-17T18:54:03Z</time>
      </trkpt>
      <trkpt lat="42.263561" lon="2.894847">
        <ele>139.737</ele>
        <time>2020-10-17T18:54:04Z</time>
      </trkpt>
      <trkpt lat="42.263566" lon="2.894718">
        <ele>139.255</ele>
        <time>2020-10-17T18:54:06Z</time>
      </trkpt>
      <trkpt lat="42.263581" lon="2.894634">
        <ele>138.707</ele>
        <time>2020-10-17T18:54:08Z</time>
      </trkpt>
      <trkpt lat="42.263618" lon="2.894519">
        <ele>138.217</ele>
        <time>2020-10-17T18:54:10Z</time>
      </trkpt>
      <trkpt lat="42.263646" lon="2.894443">
        <ele>137.708</ele>
        <time>2020-10-17T18:54:11Z</time>
      </trkpt>
      <trkpt lat="42.263691" lon="2.894319">
        <ele>137.220</ele>
        <time>2020-10-17T18:54:13Z</time>
      </trkpt>
      <trkpt lat="42.263727" lon="2.894232">
        <ele>136.333</ele>
        <time>2020-10-17T18:54:14Z</time>
      </trkpt>
      <trkpt lat="42.263749" lon="2.894177">
        <ele>135.492</ele>
        <time>2020-10-17T18:54:15Z</time>
      </trkpt>
      <trkpt lat="42.263787" lon="2.894114">
        <ele>134.481</ele>
        <time>2020-10-17T18:54:17Z</time>
      </trkpt>
      <trkpt lat="42.263840" lon="2.894032">
        <ele>133.410</ele>
        <time>2020-10-17T18:54:19Z</time>
      </trkpt>
      <trkpt lat="42.263870" lon="2.893982">
        <ele>132.678</ele>
        <time>2020-10-17T18:54:20Z</time>
      </trkpt>
      <trkpt lat="42.263933" lon="2.893893">
        <ele>131.738</ele>
        <time>2020-10-17T18:54:22Z</time>
      </trkpt>
      <trkpt lat="42.263992" lon="2.893820">
        <ele>130.613</ele>
        <time>2020-10-17T18:54:24Z</time>
      </trkpt>
      <trkpt lat="42.264047" lon="2.893767">
        <ele>129.524</ele>
        <time>2020-10-17T18:54:26Z</time>
      </trkpt>
      <trkpt lat="42.264095" lon="2.893721">
        <ele>128.404</ele>
        <time>2020-10-17T18:54:28Z</time>
      </trkpt>
      <trkpt lat="42.264170" lon="2.893639">
        <ele>127.314</ele>
        <time>2020-10-17T18:54:30Z</time>
      </trkpt>
      <trkpt lat="42.264227" lon="2.893566">
        <ele>126.308</ele>
        <time>2020-10-17T18:54:32Z</time>
      </trkpt>
      <trkpt lat="42.264295" lon="2.893496">
        <ele>125.537</ele>
        <time>2020-10-17T18:54:34Z</time>
      </trkpt>
      <trkpt lat="42.264342" lon="2.893452">
        <ele>125.090</ele>
        <time>2020-10-17T18:54:35Z</time>
      </trkpt>
      <trkpt lat="42.264432" lon="2.893354">
        <ele>124.539</ele>
        <time>2020-10-17T18:54:37Z</time>
      </trkpt>
      <trkpt lat="42.264481" lon="2.893271">
        <ele>123.988</ele>
        <time>2020-10-17T18:54:39Z</time>
      </trkpt>
      <trkpt lat="42.264533" lon="2.893187">
        <ele>123.227</ele>
        <time>2020-10-17T18:54:41Z</time>
      </trkpt>
      <trkpt lat="42.264572" lon="2.893141">
        <ele>122.645</ele>
        <time>2020-10-17T18:54:42Z</time>
      </trkpt>
      <trkpt lat="42.264660" lon="2.893054">
        <ele>121.835</ele>
        <time>2020-10-17T18:54:44Z</time>
      </trkpt>
      <trkpt lat="42.264703" lon="2.893015">
        <ele>121.110</ele>
        <time>2020-10-17T18:54:45Z</time>
      </trkpt>
      <trkpt lat="42.264767" lon="2.892964">
        <ele>120.281</ele>
        <time>2020-10-17T18:54:47Z</time>
      </trkpt>
      <trkpt lat="42.264833" lon="2.892910">
        <ele>119.361</ele>
        <time>2020-10-17T18:54:49Z</time>
      </trkpt>
      <trkpt lat="42.264895" lon="2.892845">
        <ele>118.317</ele>
        <time>2020-10-17T18:54:51Z</time>
      </trkpt>
      <trkpt lat="42.264947" lon="2.892778">
        <ele>117.308</ele>
        <time>2020-10-17T18:54:53Z</time>
      </trkpt>
      <trkpt lat="42.265006" lon="2.892768">
        <ele>116.153</ele>
        <time>2020-10-17T18:54:55Z</time>
      </trkpt>
      <trkpt lat="42.265022" lon="2.892873">
        <ele>114.546</ele>
        <time>2020-10-17T18:54:57Z</time>
      </trkpt>
      <trkpt lat="42.264952" lon="2.892996">
        <ele>112.725</ele>
        <time>2020-10-17T18:54:59Z</time>
      </trkpt>
      <trkpt lat="42.264916" lon="2.893042">
        <ele>111.364</ele>
        <time>2020-10-17T18:55:00Z</time>
      </trkpt>
      <trkpt lat="42.264883" lon="2.893096">
        <ele>110.113</ele>
        <time>2020-10-17T18:55:01Z</time>
      </trkpt>
      <trkpt lat="42.264883" lon="2.893179">
        <ele>108.921</ele>
        <time>2020-10-17T18:55:03Z</time>
      </trkpt>
      <trkpt lat="42.264928" lon="2.893208">
        <ele>107.931</ele>
        <time>2020-10-17T18:55:04Z</time>
      </trkpt>
      <trkpt lat="42.264998" lon="2.893177">
        <ele>107.076</ele>
        <time>2020-10-17T18:55:06Z</time>
      </trkpt>
      <trkpt lat="42.265105" lon="2.893119">
        <ele>106.118</ele>
        <time>2020-10-17T18:55:08Z</time>
      </trkpt>
      <trkpt lat="42.265168" lon="2.893088">
        <ele>105.498</ele>
        <time>2020-10-17T18:55:09Z</time>
      </trkpt>
      <trkpt lat="42.265283" lon="2.893035">
        <ele>104.617</ele>
        <time>2020-10-17T18:55:11Z</time>
      </trkpt>
      <trkpt lat="42.265357" lon="2.892998">
        <ele>103.808</ele>
        <time>2020-10-17T18:55:13Z</time>
      </trkpt>
      <trkpt lat="42.265407" lon="2.892972">
        <ele>102.996</ele>
        <time>2020-10-17T18:55:15Z</time>
      </trkpt>
      <trkpt lat="42.265452" lon="2.892951">
        <ele>102.199</ele>
        <time>2020-10-17T18:55:17Z</time>
      </trkpt>
      <trkpt lat="42.265497" lon="2.892955">
        <ele>101.468</ele>
        <time>2020-10-17T18:55:19Z</time>
      </trkpt>
      <trkpt lat="42.265551" lon="2.892963">
        <ele>100.827</ele>
        <time>2020-10-17T18:55:22Z</time>
      </trkpt>
      <trkpt lat="42.265599" lon="2.892967">
        <ele>100.186</ele>
        <time>2020-10-17T18:55:24Z</time>
      </trkpt>
      <trkpt lat="42.265662" lon="2.892939">
        <ele>99.284</ele>
        <time>2020-10-17T18:55:26Z</time>
      </trkpt>
      <trkpt lat="42.265739" lon="2.892877">
        <ele>98.364</ele>
        <time>2020-10-17T18:55:28Z</time>
      </trkpt>
      <trkpt lat="42.265814" lon="2.892818">
        <ele>97.319</ele>
        <time>2020-10-17T18:55:30Z</time>
      </trkpt>
      <trkpt lat="42.265890" lon="2.892780">
        <ele>96.372</ele>
        <time>2020-10-17T18:55:32Z</time>
      </trkpt>
      <trkpt lat="42.265981" lon="2.892760">
        <ele>95.313</ele>
        <time>2020-10-17T18:55:34Z</time>
      </trkpt>
      <trkpt lat="42.266031" lon="2.892752">
        <ele>94.514</ele>
        <time>2020-10-17T18:55:35Z</time>
      </trkpt>
      <trkpt lat="42.266125" lon="2.892738">
        <ele>93.608</ele>
        <time>2020-10-17T18:55:37Z</time>
      </trkpt>
      <trkpt lat="42.266205" lon="2.892728">
        <ele>92.732</ele>
        <time>2020-10-17T18:55:39Z</time>
      </trkpt>
      <trkpt lat="42.266265" lon="2.892736">
        <ele>91.865</ele>
        <time>2020-10-17T18:55:41Z</time>
      </trkpt>
      <trkpt lat="42.266300" lon="2.892794">
        <ele>91.164</ele>
        <time>2020-10-17T18:55:43Z</time>
      </trkpt>
      <trkpt lat="42.266300" lon="2.892898">
        <ele>90.843</ele>
        <time>2020-10-17T18:55:45Z</time>
      </trkpt>
      <trkpt lat="42.266276" lon="2.893003">
        <ele>91.082</ele>
        <time>2020-10-17T18:55:47Z</time>
      </trkpt>
      <trkpt lat="42.266238" lon="2.893098">
        <ele>91.510</ele>
        <time>2020-10-17T18:55:49Z</time>
      </trkpt>
      <trkpt lat="42.266182" lon="2.893198">
        <ele>92.460</ele>
        <time>2020-10-17T18:55:51Z</time>
      </trkpt>
      <trkpt lat="42.266114" lon="2.893286">
        <ele>94.085</ele>
        <time>2020-10-17T18:55:53Z</time>
      </trkpt>
      <trkpt lat="42.266059" lon="2.893367">
        <ele>95.866</ele>
        <time>2020-10-17T18:55:55Z</time>
      </trkpt>
      <trkpt lat="42.266009" lon="2.893453">
        <ele>97.429</ele>
        <time>2020-10-17T18:55:57Z</time>
      </trkpt>
      <trkpt lat="42.265976" lon="2.893528">
        <ele>98.921</ele>
        <time>2020-10-17T18:55:59Z</time>
      </trkpt>
      <trkpt lat="42.265959" lon="2.893585">
        <ele>101.108</ele>
        <time>2020-10-17T18:56:03Z</time>
      </trkpt>
      <trkpt lat="42.265923" lon="2.893683">
        <ele>102.861</ele>
        <time>2020-10-17T18:56:05Z</time>
      </trkpt>
      <trkpt lat="42.265892" lon="2.893759">
        <ele>104.284</ele>
        <time>2020-10-17T18:56:07Z</time>
      </trkpt>
      <trkpt lat="42.265852" lon="2.893840">
        <ele>105.223</ele>
        <time>2020-10-17T18:56:09Z</time>
      </trkpt>
      <trkpt lat="42.265821" lon="2.893885">
        <ele>105.882</ele>
        <time>2020-10-17T18:56:10Z</time>
      </trkpt>
      <trkpt lat="42.265790" lon="2.893945">
        <ele>106.361</ele>
        <time>2020-10-17T18:56:12Z</time>
      </trkpt>
      <trkpt lat="42.265746" lon="2.894014">
        <ele>106.689</ele>
        <time>2020-10-17T18:56:14Z</time>
      </trkpt>
      <trkpt lat="42.265695" lon="2.894077">
        <ele>106.839</ele>
        <time>2020-10-17T18:56:15Z</time>
      </trkpt>
      <trkpt lat="42.265645" lon="2.894106">
        <ele>107.034</ele>
        <time>2020-10-17T18:56:17Z</time>
      </trkpt>
      <trkpt lat="42.265591" lon="2.894152">
        <ele>107.532</ele>
        <time>2020-10-17T18:56:19Z</time>
      </trkpt>
      <trkpt lat="42.265530" lon="2.894230">
        <ele>108.292</ele>
        <time>2020-10-17T18:56:20Z</time>
      </trkpt>
      <trkpt lat="42.265505" lon="2.894289">
        <ele>109.911</ele>
        <time>2020-10-17T18:56:22Z</time>
      </trkpt>
      <trkpt lat="42.265519" lon="2.894363">
        <ele>111.308</ele>
        <time>2020-10-17T18:56:24Z</time>
      </trkpt>
      <trkpt lat="42.265565" lon="2.894411">
        <ele>112.418</ele>
        <time>2020-10-17T18:56:26Z</time>
      </trkpt>
      <trkpt lat="42.265624" lon="2.894418">
        <ele>113.091</ele>
        <time>2020-10-17T18:56:27Z</time>
      </trkpt>
      <trkpt lat="42.265692" lon="2.894398">
        <ele>113.380</ele>
        <time>2020-10-17T18:56:29Z</time>
      </trkpt>
      <trkpt lat="42.265738" lon="2.894342">
        <ele>113.599</ele>
        <time>2020-10-17T18:56:30Z</time>
      </trkpt>
      <trkpt lat="42.265797" lon="2.894290">
        <ele>113.868</ele>
        <time>2020-10-17T18:56:32Z</time>
      </trkpt>
      <trkpt lat="42.265876" lon="2.894250">
        <ele>114.386</ele>
        <time>2020-10-17T18:56:34Z</time>
      </trkpt>
      <trkpt lat="42.265919" lon="2.894231">
        <ele>114.956</ele>
        <time>2020-10-17T18:56:35Z</time>
      </trkpt>
      <trkpt lat="42.265993" lon="2.894194">
        <ele>115.871</ele>
        <time>2020-10-17T18:56:37Z</time>
      </trkpt>
      <trkpt lat="42.266069" lon="2.894158">
        <ele>116.784</ele>
        <time>2020-10-17T18:56:39Z</time>
      </trkpt>
      <trkpt lat="42.266177" lon="2.894125">
        <ele>117.507</ele>
        <time>2020-10-17T18:56:41Z</time>
      </trkpt>
      <trkpt lat="42.266229" lon="2.894118">
        <ele>118.217</ele>
        <time>2020-10-17T18:56:42Z</time>
      </trkpt>
      <trkpt lat="42.266316" lon="2.894119">
        <ele>119.008</ele>
        <time>2020-10-17T18:56:44Z</time>
      </trkpt>
      <trkpt lat="42.266376" lon="2.894118">
        <ele>119.673</ele>
        <time>2020-10-17T18:56:45Z</time>
      </trkpt>
      <trkpt lat="42.266422" lon="2.894109">
        <ele>120.316</ele>
        <time>2020-10-17T18:56:47Z</time>
      </trkpt>
      <trkpt lat="42.266465" lon="2.894087">
        <ele>121.185</ele>
        <time>2020-10-17T18:56:49Z</time>
      </trkpt>
      <trkpt lat="42.266511" lon="2.894062">
        <ele>122.274</ele>
        <time>2020-10-17T18:56:51Z</time>
      </trkpt>
      <trkpt lat="42.266563" lon="2.894040">
        <ele>123.563</ele>
        <time>2020-10-17T18:56:53Z</time>
      </trkpt>
      <trkpt lat="42.266655" lon="2.893988">
        <ele>125.121</ele>
        <time>2020-10-17T18:56:55Z</time>
      </trkpt>
      <trkpt lat="42.266655" lon="2.893988">
        <ele>125.191</ele>
        <time>2020-10-17T18:56:55Z</time>
      </trkpt>
      <trkpt lat="42.266719" lon="2.893948">
        <ele>126.946</ele>
        <time>2020-10-17T18:56:57Z</time>
      </trkpt>
      <trkpt lat="42.266769" lon="2.893893">
        <ele>128.972</ele>
        <time>2020-10-17T18:56:59Z</time>
      </trkpt>
      <trkpt lat="42.266814" lon="2.893843">
        <ele>130.413</ele>
        <time>2020-10-17T18:57:00Z</time>
      </trkpt>
      <trkpt lat="42.266901" lon="2.893796">
        <ele>132.014</ele>
        <time>2020-10-17T18:57:02Z</time>
      </trkpt>
      <trkpt lat="42.266951" lon="2.893791">
        <ele>133.208</ele>
        <time>2020-10-17T18:57:03Z</time>
      </trkpt>
      <trkpt lat="42.267052" lon="2.893787">
        <ele>134.352</ele>
        <time>2020-10-17T18:57:05Z</time>
      </trkpt>
      <trkpt lat="42.267133" lon="2.893775">
        <ele>135.575</ele>
        <time>2020-10-17T18:57:07Z</time>
      </trkpt>
      <trkpt lat="42.267219" lon="2.893746">
        <ele>136.624</ele>
        <time>2020-10-17T18:57:09Z</time>
      </trkpt>
      <trkpt lat="42.267272" lon="2.893735">
        <ele>137.573</ele>
        <time>2020-10-17T18:57:10Z</time>
      </trkpt>
      <trkpt lat="42.267379" lon="2.893729">
        <ele>138.452</ele>
        <time>2020-10-17T18:57:12Z</time>
      </trkpt>
      <trkpt lat="42.267474" lon="2.893720">
        <ele>139.510</ele>
        <time>2020-10-17T18:57:14Z</time>
      </trkpt>
      <trkpt lat="42.267524" lon="2.893711">
        <ele>140.480</ele>
        <time>2020-10-17T18:57:15Z</time>
      </trkpt>
      <trkpt lat="42.267575" lon="2.893699">
        <ele>141.245</ele>
        <time>2020-10-17T18:57:16Z</time>
      </trkpt>
      <trkpt lat="42.267623" lon="2.893685">
        <ele>141.967</ele>
        <time>2020-10-17T18:57:17Z</time>
      </trkpt>
      <trkpt lat="42.267693" lon="2.893647">
        <ele>143.081</ele>
        <time>2020-10-17T18:57:19Z</time>
      </trkpt>
      <trkpt lat="42.267747" lon="2.893580">
        <ele>144.519</ele>
        <time>2020-10-17T18:57:21Z</time>
      </trkpt>
      <trkpt lat="42.267806" lon="2.893529">
        <ele>145.808</ele>
        <time>2020-10-17T18:57:23Z</time>
      </trkpt>
      <trkpt lat="42.267860" lon="2.893519">
        <ele>147.051</ele>
        <time>2020-10-17T18:57:25Z</time>
      </trkpt>
      <trkpt lat="42.267909" lon="2.893515">
        <ele>148.134</ele>
        <time>2020-10-17T18:57:27Z</time>
      </trkpt>
      <trkpt lat="42.267985" lon="2.893497">
        <ele>149.163</ele>
        <time>2020-10-17T18:57:29Z</time>
      </trkpt>
      <trkpt lat="42.268038" lon="2.893482">
        <ele>149.842</ele>
        <time>2020-10-17T18:57:30Z</time>
      </trkpt>
      <trkpt lat="42.268155" lon="2.893447">
        <ele>150.531</ele>
        <time>2020-10-17T18:57:32Z</time>
      </trkpt>
      <trkpt lat="42.268239" lon="2.893427">
        <ele>151.329</ele>
        <time>2020-10-17T18:57:34Z</time>
      </trkpt>
      <trkpt lat="42.268296" lon="2.893416">
        <ele>152.159</ele>
        <time>2020-10-17T18:57:37Z</time>
      </trkpt>
      <trkpt lat="42.268343" lon="2.893412">
        <ele>152.624</ele>
        <time>2020-10-17T18:57:40Z</time>
      </trkpt>
      <trkpt lat="42.268402" lon="2.893468">
        <ele>152.951</ele>
        <time>2020-10-17T18:57:59Z</time>
      </trkpt>
      <trkpt lat="42.268466" lon="2.893543">
        <ele>153.101</ele>
        <time>2020-10-17T18:58:01Z</time>
      </trkpt>
      <trkpt lat="42.268530" lon="2.893597">
        <ele>153.311</ele>
        <time>2020-10-17T18:58:03Z</time>
      </trkpt>
      <trkpt lat="42.268593" lon="2.893629">
        <ele>153.508</ele>
        <time>2020-10-17T18:58:05Z</time>
      </trkpt>
      <trkpt lat="42.268656" lon="2.893653">
        <ele>153.670</ele>
        <time>2020-10-17T18:58:07Z</time>
      </trkpt>
      <trkpt lat="42.268729" lon="2.893674">
        <ele>153.693</ele>
        <time>2020-10-17T18:58:09Z</time>
      </trkpt>
      <trkpt lat="42.268774" lon="2.893681">
        <ele>153.682</ele>
        <time>2020-10-17T18:58:10Z</time>
      </trkpt>
      <trkpt lat="42.268867" lon="2.893693">
        <ele>153.551</ele>
        <time>2020-10-17T18:58:12Z</time>
      </trkpt>
      <trkpt lat="42.268948" lon="2.893706">
        <ele>153.410</ele>
        <time>2020-10-17T18:58:14Z</time>
      </trkpt>
      <trkpt lat="42.269022" lon="2.893727">
        <ele>153.458</ele>
        <time>2020-10-17T18:58:16Z</time>
      </trkpt>
      <trkpt lat="42.269092" lon="2.893756">
        <ele>153.558</ele>
        <time>2020-10-17T18:58:18Z</time>
      </trkpt>
      <trkpt lat="42.269169" lon="2.893786">
        <ele>153.673</ele>
        <time>2020-10-17T18:58:20Z</time>
      </trkpt>
      <trkpt lat="42.269241" lon="2.893807">
        <ele>153.611</ele>
        <time>2020-10-17T18:58:22Z</time>
      </trkpt>
      <trkpt lat="42.269302" lon="2.893822">
        <ele>153.621</ele>
        <time>2020-10-17T18:58:25Z</time>
      </trkpt>
      <trkpt lat="42.269366" lon="2.893843">
        <ele>153.603</ele>
        <time>2020-10-17T18:58:27Z</time>
      </trkpt>
      <trkpt lat="42.269417" lon="2.893854">
        <ele>153.708</ele>
        <time>2020-10-17T18:58:28Z</time>
      </trkpt>
      <trkpt lat="42.269493" lon="2.893858">
        <ele>153.756</ele>
        <time>2020-10-17T18:58:30Z</time>
      </trkpt>
      <trkpt lat="42.269575" lon="2.893869">
        <ele>153.699</ele>
        <time>2020-10-17T18:58:32Z</time>
      </trkpt>
      <trkpt lat="42.269644" lon="2.893895">
        <ele>153.538</ele>
        <time>2020-10-17T18:58:34Z</time>
      </trkpt>
      <trkpt lat="42.269724" lon="2.893925">
        <ele>153.567</ele>
        <time>2020-10-17T18:58:36Z</time>
      </trkpt>
      <trkpt lat="42.269826" lon="2.893943">
        <ele>153.576</ele>
        <time>2020-10-17T18:58:38Z</time>
      </trkpt>
      <trkpt lat="42.269896" lon="2.893943">
        <ele>153.334</ele>
        <time>2020-10-17T18:58:40Z</time>
      </trkpt>
      <trkpt lat="42.269970" lon="2.893949">
        <ele>153.114</ele>
        <time>2020-10-17T18:58:42Z</time>
      </trkpt>
      <trkpt lat="42.270024" lon="2.893958">
        <ele>152.939</ele>
        <time>2020-10-17T18:58:43Z</time>
      </trkpt>
      <trkpt lat="42.270094" lon="2.893981">
        <ele>152.646</ele>
        <time>2020-10-17T18:58:45Z</time>
      </trkpt>
      <trkpt lat="42.270172" lon="2.894002">
        <ele>152.288</ele>
        <time>2020-10-17T18:58:47Z</time>
      </trkpt>
      <trkpt lat="42.270254" lon="2.894014">
        <ele>151.916</ele>
        <time>2020-10-17T18:58:49Z</time>
      </trkpt>
      <trkpt lat="42.270326" lon="2.894033">
        <ele>151.708</ele>
        <time>2020-10-17T18:58:51Z</time>
      </trkpt>
      <trkpt lat="42.270397" lon="2.894070">
        <ele>151.829</ele>
        <time>2020-10-17T18:58:53Z</time>
      </trkpt>
      <trkpt lat="42.270464" lon="2.894107">
        <ele>152.082</ele>
        <time>2020-10-17T18:58:55Z</time>
      </trkpt>
      <trkpt lat="42.270538" lon="2.894147">
        <ele>152.591</ele>
        <time>2020-10-17T18:58:57Z</time>
      </trkpt>
      <trkpt lat="42.270618" lon="2.894178">
        <ele>153.130</ele>
        <time>2020-10-17T18:58:59Z</time>
      </trkpt>
      <trkpt lat="42.270697" lon="2.894174">
        <ele>153.739</ele>
        <time>2020-10-17T18:59:01Z</time>
      </trkpt>
      <trkpt lat="42.270773" lon="2.894117">
        <ele>154.477</ele>
        <time>2020-10-17T18:59:03Z</time>
      </trkpt>
      <trkpt lat="42.270832" lon="2.894031">
        <ele>155.277</ele>
        <time>2020-10-17T18:59:05Z</time>
      </trkpt>
      <trkpt lat="42.270881" lon="2.893944">
        <ele>155.742</ele>
        <time>2020-10-17T18:59:07Z</time>
      </trkpt>
      <trkpt lat="42.270928" lon="2.893863">
        <ele>156.046</ele>
        <time>2020-10-17T18:59:09Z</time>
      </trkpt>
      <trkpt lat="42.270990" lon="2.893806">
        <ele>156.388</ele>
        <time>2020-10-17T18:59:11Z</time>
      </trkpt>
      <trkpt lat="42.271080" lon="2.893805">
        <ele>156.516</ele>
        <time>2020-10-17T18:59:13Z</time>
      </trkpt>
      <trkpt lat="42.271130" lon="2.893825">
        <ele>156.508</ele>
        <time>2020-10-17T18:59:14Z</time>
      </trkpt>
      <trkpt lat="42.271176" lon="2.893851">
        <ele>156.489</ele>
        <time>2020-10-17T18:59:15Z</time>
      </trkpt>
      <trkpt lat="42.271221" lon="2.893883">
        <ele>156.382</ele>
        <time>2020-10-17T18:59:16Z</time>
      </trkpt>
      <trkpt lat="42.271288" lon="2.893942">
        <ele>156.171</ele>
        <time>2020-10-17T18:59:18Z</time>
      </trkpt>
      <trkpt lat="42.271330" lon="2.893978">
        <ele>155.820</ele>
        <time>2020-10-17T18:59:20Z</time>
      </trkpt>
      <trkpt lat="42.271352" lon="2.894045">
        <ele>155.139</ele>
        <time>2020-10-17T18:59:23Z</time>
      </trkpt>
      <trkpt lat="42.271333" lon="2.894103">
        <ele>154.477</ele>
        <time>2020-10-17T18:59:26Z</time>
      </trkpt>
      <trkpt lat="42.271293" lon="2.894159">
        <ele>153.657</ele>
        <time>2020-10-17T18:59:28Z</time>
      </trkpt>
      <trkpt lat="42.271238" lon="2.894242">
        <ele>152.882</ele>
        <time>2020-10-17T18:59:30Z</time>
      </trkpt>
      <trkpt lat="42.271202" lon="2.894321">
        <ele>152.044</ele>
        <time>2020-10-17T18:59:32Z</time>
      </trkpt>
      <trkpt lat="42.271183" lon="2.894384">
        <ele>151.205</ele>
        <time>2020-10-17T18:59:34Z</time>
      </trkpt>
      <trkpt lat="42.271166" lon="2.894451">
        <ele>150.615</ele>
        <time>2020-10-17T18:59:36Z</time>
      </trkpt>
      <trkpt lat="42.271180" lon="2.894531">
        <ele>150.008</ele>
        <time>2020-10-17T18:59:39Z</time>
      </trkpt>
      <trkpt lat="42.271240" lon="2.894561">
        <ele>149.439</ele>
        <time>2020-10-17T18:59:41Z</time>
      </trkpt>
      <trkpt lat="42.271294" lon="2.894562">
        <ele>148.812</ele>
        <time>2020-10-17T18:59:43Z</time>
      </trkpt>
      <trkpt lat="42.271336" lon="2.894607">
        <ele>148.221</ele>
        <time>2020-10-17T18:59:45Z</time>
      </trkpt>
      <trkpt lat="42.271355" lon="2.894702">
        <ele>147.760</ele>
        <time>2020-10-17T18:59:47Z</time>
      </trkpt>
      <trkpt lat="42.271357" lon="2.894778">
        <ele>147.339</ele>
        <time>2020-10-17T18:59:49Z</time>
      </trkpt>
      <trkpt lat="42.271344" lon="2.894840">
        <ele>146.947</ele>
        <time>2020-10-17T18:59:51Z</time>
      </trkpt>
      <trkpt lat="42.271323" lon="2.894913">
        <ele>146.667</ele>
        <time>2020-10-17T18:59:53Z</time>
      </trkpt>
      <trkpt lat="42.271310" lon="2.894976">
        <ele>146.432</ele>
        <time>2020-10-17T18:59:55Z</time>
      </trkpt>
      <trkpt lat="42.271304" lon="2.895038">
        <ele>146.454</ele>
        <time>2020-10-17T18:59:56Z</time>
      </trkpt>
      <trkpt lat="42.271409" lon="2.895233">
        <ele>146.656</ele>
        <time>2020-10-17T19:00:03Z</time>
      </trkpt>
      <trkpt lat="42.271447" lon="2.895269">
        <ele>146.811</ele>
        <time>2020-10-17T19:00:05Z</time>
      </trkpt>
      <trkpt lat="42.271494" lon="2.895305">
        <ele>147.008</ele>
        <time>2020-10-17T19:00:07Z</time>
      </trkpt>
      <trkpt lat="42.271544" lon="2.895339">
        <ele>147.350</ele>
        <time>2020-10-17T19:00:09Z</time>
      </trkpt>
      <trkpt lat="42.271604" lon="2.895381">
        <ele>147.963</ele>
        <time>2020-10-17T19:00:11Z</time>
      </trkpt>
      <trkpt lat="42.271671" lon="2.895431">
        <ele>148.762</ele>
        <time>2020-10-17T19:00:13Z</time>
      </trkpt>
      <trkpt lat="42.271726" lon="2.895476">
        <ele>149.431</ele>
        <time>2020-10-17T19:00:15Z</time>
      </trkpt>
      <trkpt lat="42.271778" lon="2.895518">
        <ele>150.210</ele>
        <time>2020-10-17T19:00:17Z</time>
      </trkpt>
      <trkpt lat="42.271834" lon="2.895563">
        <ele>150.978</ele>
        <time>2020-10-17T19:00:19Z</time>
      </trkpt>
      <trkpt lat="42.271898" lon="2.895620">
        <ele>151.588</ele>
        <time>2020-10-17T19:00:21Z</time>
      </trkpt>
      <trkpt lat="42.271959" lon="2.895669">
        <ele>152.133</ele>
        <time>2020-10-17T19:00:23Z</time>
      </trkpt>
      <trkpt lat="42.272020" lon="2.895722">
        <ele>152.778</ele>
        <time>2020-10-17T19:00:25Z</time>
      </trkpt>
      <trkpt lat="42.272090" lon="2.895776">
        <ele>153.333</ele>
        <time>2020-10-17T19:00:27Z</time>
      </trkpt>
      <trkpt lat="42.272158" lon="2.895826">
        <ele>153.826</ele>
        <time>2020-10-17T19:00:29Z</time>
      </trkpt>
      <trkpt lat="42.272214" lon="2.895878">
        <ele>154.208</ele>
        <time>2020-10-17T19:00:31Z</time>
      </trkpt>
      <trkpt lat="42.272268" lon="2.895935">
        <ele>154.682</ele>
        <time>2020-10-17T19:00:33Z</time>
      </trkpt>
      <trkpt lat="42.272329" lon="2.895995">
        <ele>155.055</ele>
        <time>2020-10-17T19:00:35Z</time>
      </trkpt>
      <trkpt lat="42.272393" lon="2.896055">
        <ele>155.484</ele>
        <time>2020-10-17T19:00:37Z</time>
      </trkpt>
      <trkpt lat="42.272453" lon="2.896114">
        <ele>155.763</ele>
        <time>2020-10-17T19:00:39Z</time>
      </trkpt>
      <trkpt lat="42.272518" lon="2.896171">
        <ele>156.112</ele>
        <time>2020-10-17T19:00:41Z</time>
      </trkpt>
      <trkpt lat="42.272578" lon="2.896239">
        <ele>156.490</ele>
        <time>2020-10-17T19:00:43Z</time>
      </trkpt>
      <trkpt lat="42.272629" lon="2.896299">
        <ele>156.740</ele>
        <time>2020-10-17T19:00:46Z</time>
      </trkpt>
      <trkpt lat="42.272691" lon="2.896386">
        <ele>157.265</ele>
        <time>2020-10-17T19:00:47Z</time>
      </trkpt>
      <trkpt lat="42.272724" lon="2.896431">
        <ele>157.636</ele>
        <time>2020-10-17T19:00:48Z</time>
      </trkpt>
      <trkpt lat="42.272771" lon="2.896492">
        <ele>157.917</ele>
        <time>2020-10-17T19:00:50Z</time>
      </trkpt>
      <trkpt lat="42.272798" lon="2.896554">
        <ele>157.918</ele>
        <time>2020-10-17T19:00:52Z</time>
      </trkpt>
      <trkpt lat="42.272790" lon="2.896645">
        <ele>158.008</ele>
        <time>2020-10-17T19:00:54Z</time>
      </trkpt>
      <trkpt lat="42.272767" lon="2.896727">
        <ele>158.168</ele>
        <time>2020-10-17T19:00:56Z</time>
      </trkpt>
      <trkpt lat="42.272756" lon="2.896825">
        <ele>158.211</ele>
        <time>2020-10-17T19:00:57Z</time>
      </trkpt>
      <trkpt lat="42.272747" lon="2.896938">
        <ele>158.360</ele>
        <time>2020-10-17T19:00:59Z</time>
      </trkpt>
      <trkpt lat="42.272743" lon="2.897025">
        <ele>158.369</ele>
        <time>2020-10-17T19:01:01Z</time>
      </trkpt>
      <trkpt lat="42.272751" lon="2.897088">
        <ele>158.398</ele>
        <time>2020-10-17T19:01:02Z</time>
      </trkpt>
      <trkpt lat="42.272760" lon="2.897184">
        <ele>158.316</ele>
        <time>2020-10-17T19:01:04Z</time>
      </trkpt>
      <trkpt lat="42.272761" lon="2.897257">
        <ele>158.326</ele>
        <time>2020-10-17T19:01:05Z</time>
      </trkpt>
      <trkpt lat="42.272755" lon="2.897395">
        <ele>158.441</ele>
        <time>2020-10-17T19:01:07Z</time>
      </trkpt>
      <trkpt lat="42.272760" lon="2.897464">
        <ele>158.621</ele>
        <time>2020-10-17T19:01:08Z</time>
      </trkpt>
      <trkpt lat="42.272800" lon="2.897592">
        <ele>159.041</ele>
        <time>2020-10-17T19:01:10Z</time>
      </trkpt>
      <trkpt lat="42.272821" lon="2.897650">
        <ele>159.305</ele>
        <time>2020-10-17T19:01:11Z</time>
      </trkpt>
      <trkpt lat="42.272832" lon="2.897747">
        <ele>159.708</ele>
        <time>2020-10-17T19:01:13Z</time>
      </trkpt>
      <trkpt lat="42.272787" lon="2.897845">
        <ele>160.147</ele>
        <time>2020-10-17T19:01:15Z</time>
      </trkpt>
      <trkpt lat="42.272739" lon="2.897887">
        <ele>160.470</ele>
        <time>2020-10-17T19:01:16Z</time>
      </trkpt>
      <trkpt lat="42.272679" lon="2.897923">
        <ele>160.719</ele>
        <time>2020-10-17T19:01:17Z</time>
      </trkpt>
      <trkpt lat="42.272563" lon="2.897984">
        <ele>160.938</ele>
        <time>2020-10-17T19:01:19Z</time>
      </trkpt>
      <trkpt lat="42.272515" lon="2.898012">
        <ele>161.157</ele>
        <time>2020-10-17T19:01:20Z</time>
      </trkpt>
      <trkpt lat="42.272457" lon="2.898075">
        <ele>161.255</ele>
        <time>2020-10-17T19:01:22Z</time>
      </trkpt>
      <trkpt lat="42.272447" lon="2.898161">
        <ele>161.185</ele>
        <time>2020-10-17T19:01:24Z</time>
      </trkpt>
      <trkpt lat="42.272501" lon="2.898248">
        <ele>160.790</ele>
        <time>2020-10-17T19:01:26Z</time>
      </trkpt>
      <trkpt lat="42.272543" lon="2.898293">
        <ele>160.473</ele>
        <time>2020-10-17T19:01:27Z</time>
      </trkpt>
      <trkpt lat="42.272629" lon="2.898386">
        <ele>160.285</ele>
        <time>2020-10-17T19:01:29Z</time>
      </trkpt>
      <trkpt lat="42.272662" lon="2.898436">
        <ele>160.013</ele>
        <time>2020-10-17T19:01:30Z</time>
      </trkpt>
      <trkpt lat="42.272707" lon="2.898543">
        <ele>159.808</ele>
        <time>2020-10-17T19:01:32Z</time>
      </trkpt>
      <trkpt lat="42.272725" lon="2.898608">
        <ele>159.632</ele>
        <time>2020-10-17T19:01:33Z</time>
      </trkpt>
      <trkpt lat="42.272762" lon="2.898743">
        <ele>159.395</ele>
        <time>2020-10-17T19:01:35Z</time>
      </trkpt>
      <trkpt lat="42.272782" lon="2.898808">
        <ele>159.054</ele>
        <time>2020-10-17T19:01:36Z</time>
      </trkpt>
      <trkpt lat="42.272820" lon="2.898902">
        <ele>158.773</ele>
        <time>2020-10-17T19:01:38Z</time>
      </trkpt>
      <trkpt lat="42.272873" lon="2.898957">
        <ele>158.612</ele>
        <time>2020-10-17T19:01:40Z</time>
      </trkpt>
      <trkpt lat="42.272927" lon="2.899037">
        <ele>158.770</ele>
        <time>2020-10-17T19:01:42Z</time>
      </trkpt>
      <trkpt lat="42.272973" lon="2.899142">
        <ele>158.840</ele>
        <time>2020-10-17T19:01:44Z</time>
      </trkpt>
      <trkpt lat="42.273038" lon="2.899252">
        <ele>159.095</ele>
        <time>2020-10-17T19:01:46Z</time>
      </trkpt>
      <trkpt lat="42.273078" lon="2.899302">
        <ele>159.216</ele>
        <time>2020-10-17T19:01:47Z</time>
      </trkpt>
      <trkpt lat="42.273152" lon="2.899394">
        <ele>159.376</ele>
        <time>2020-10-17T19:01:49Z</time>
      </trkpt>
      <trkpt lat="42.273189" lon="2.899446">
        <ele>159.413</ele>
        <time>2020-10-17T19:01:50Z</time>
      </trkpt>
      <trkpt lat="42.273228" lon="2.899502">
        <ele>159.408</ele>
        <time>2020-10-17T19:01:51Z</time>
      </trkpt>
      <trkpt lat="42.273268" lon="2.899558">
        <ele>159.486</ele>
        <time>2020-10-17T19:01:52Z</time>
      </trkpt>
      <trkpt lat="42.273349" lon="2.899664">
        <ele>159.459</ele>
        <time>2020-10-17T19:01:54Z</time>
      </trkpt>
      <trkpt lat="42.273431" lon="2.899756">
        <ele>159.468</ele>
        <time>2020-10-17T19:01:56Z</time>
      </trkpt>
      <trkpt lat="42.273472" lon="2.899797">
        <ele>159.457</ele>
        <time>2020-10-17T19:01:57Z</time>
      </trkpt>
      <trkpt lat="42.273513" lon="2.899835">
        <ele>159.356</ele>
        <time>2020-10-17T19:01:58Z</time>
      </trkpt>
      <trkpt lat="42.273594" lon="2.899909">
        <ele>159.244</ele>
        <time>2020-10-17T19:02:00Z</time>
      </trkpt>
      <trkpt lat="42.273633" lon="2.899946">
        <ele>159.144</ele>
        <time>2020-10-17T19:02:01Z</time>
      </trkpt>
      <trkpt lat="42.273671" lon="2.899983">
        <ele>159.029</ele>
        <time>2020-10-17T19:02:02Z</time>
      </trkpt>
      <trkpt lat="42.273708" lon="2.900021">
        <ele>158.954</ele>
        <time>2020-10-17T19:02:03Z</time>
      </trkpt>
      <trkpt lat="42.273788" lon="2.900082">
        <ele>158.856</ele>
        <time>2020-10-17T19:02:05Z</time>
      </trkpt>
      <trkpt lat="42.273860" lon="2.900091">
        <ele>158.711</ele>
        <time>2020-10-17T19:02:07Z</time>
      </trkpt>
      <trkpt lat="42.273931" lon="2.900057">
        <ele>158.608</ele>
        <time>2020-10-17T19:02:09Z</time>
      </trkpt>
      <trkpt lat="42.274009" lon="2.900064">
        <ele>158.520</ele>
        <time>2020-10-17T19:02:11Z</time>
      </trkpt>
      <trkpt lat="42.274081" lon="2.900164">
        <ele>158.243</ele>
        <time>2020-10-17T19:02:13Z</time>
      </trkpt>
      <trkpt lat="42.274109" lon="2.900239">
        <ele>158.052</ele>
        <time>2020-10-17T19:02:14Z</time>
      </trkpt>
      <trkpt lat="42.274122" lon="2.900390">
        <ele>157.681</ele>
        <time>2020-10-17T19:02:16Z</time>
      </trkpt>
      <trkpt lat="42.274067" lon="2.900515">
        <ele>157.110</ele>
        <time>2020-10-17T19:02:18Z</time>
      </trkpt>
      <trkpt lat="42.273981" lon="2.900586">
        <ele>156.558</ele>
        <time>2020-10-17T19:02:20Z</time>
      </trkpt>
      <trkpt lat="42.273920" lon="2.900614">
        <ele>155.958</ele>
        <time>2020-10-17T19:02:22Z</time>
      </trkpt>
      <trkpt lat="42.273872" lon="2.900641">
        <ele>155.093</ele>
        <time>2020-10-17T19:02:24Z</time>
      </trkpt>
      <trkpt lat="42.273790" lon="2.900713">
        <ele>154.298</ele>
        <time>2020-10-17T19:02:26Z</time>
      </trkpt>
      <trkpt lat="42.273741" lon="2.900759">
        <ele>153.615</ele>
        <time>2020-10-17T19:02:27Z</time>
      </trkpt>
      <trkpt lat="42.273666" lon="2.900821">
        <ele>152.926</ele>
        <time>2020-10-17T19:02:29Z</time>
      </trkpt>
      <trkpt lat="42.273629" lon="2.900861">
        <ele>152.008</ele>
        <time>2020-10-17T19:02:33Z</time>
      </trkpt>
      <trkpt lat="42.273589" lon="2.900924">
        <ele>151.414</ele>
        <time>2020-10-17T19:02:36Z</time>
      </trkpt>
      <trkpt lat="42.273554" lon="2.900990">
        <ele>150.977</ele>
        <time>2020-10-17T19:02:38Z</time>
      </trkpt>
      <trkpt lat="42.273529" lon="2.901068">
        <ele>150.656</ele>
        <time>2020-10-17T19:02:40Z</time>
      </trkpt>
      <trkpt lat="42.273522" lon="2.901151">
        <ele>150.545</ele>
        <time>2020-10-17T19:02:42Z</time>
      </trkpt>
      <trkpt lat="42.273529" lon="2.901232">
        <ele>150.444</ele>
        <time>2020-10-17T19:02:44Z</time>
      </trkpt>
      <trkpt lat="42.273545" lon="2.901323">
        <ele>150.312</ele>
        <time>2020-10-17T19:02:46Z</time>
      </trkpt>
      <trkpt lat="42.273572" lon="2.901414">
        <ele>150.172</ele>
        <time>2020-10-17T19:02:48Z</time>
      </trkpt>
      <trkpt lat="42.273603" lon="2.901481">
        <ele>149.957</ele>
        <time>2020-10-17T19:02:51Z</time>
      </trkpt>
      <trkpt lat="42.273631" lon="2.901549">
        <ele>149.538</ele>
        <time>2020-10-17T19:02:55Z</time>
      </trkpt>
      <trkpt lat="42.273660" lon="2.901609">
        <ele>148.970</ele>
        <time>2020-10-17T19:02:59Z</time>
      </trkpt>
      <trkpt lat="42.273697" lon="2.901669">
        <ele>148.217</ele>
        <time>2020-10-17T19:03:02Z</time>
      </trkpt>
      <trkpt lat="42.273729" lon="2.901724">
        <ele>147.608</ele>
        <time>2020-10-17T19:03:04Z</time>
      </trkpt>
      <trkpt lat="42.273761" lon="2.901779">
        <ele>147.188</ele>
        <time>2020-10-17T19:03:07Z</time>
      </trkpt>
      <trkpt lat="42.273797" lon="2.901836">
        <ele>146.821</ele>
        <time>2020-10-17T19:03:10Z</time>
      </trkpt>
      <trkpt lat="42.273840" lon="2.901898">
        <ele>146.660</ele>
        <time>2020-10-17T19:03:12Z</time>
      </trkpt>
      <trkpt lat="42.273890" lon="2.901959">
        <ele>146.379</ele>
        <time>2020-10-17T19:03:14Z</time>
      </trkpt>
      <trkpt lat="42.273940" lon="2.902004">
        <ele>146.318</ele>
        <time>2020-10-17T19:03:16Z</time>
      </trkpt>
      <trkpt lat="42.273983" lon="2.902038">
        <ele>146.486</ele>
        <time>2020-10-17T19:03:18Z</time>
      </trkpt>
      <trkpt lat="42.274029" lon="2.902080">
        <ele>146.576</ele>
        <time>2020-10-17T19:03:20Z</time>
      </trkpt>
      <trkpt lat="42.274073" lon="2.902147">
        <ele>146.671</ele>
        <time>2020-10-17T19:03:22Z</time>
      </trkpt>
      <trkpt lat="42.274093" lon="2.902215">
        <ele>146.794</ele>
        <time>2020-10-17T19:03:24Z</time>
      </trkpt>
      <trkpt lat="42.274107" lon="2.902287">
        <ele>146.757</ele>
        <time>2020-10-17T19:03:25Z</time>
      </trkpt>
      <trkpt lat="42.274110" lon="2.902382">
        <ele>146.722</ele>
        <time>2020-10-17T19:03:27Z</time>
      </trkpt>
      <trkpt lat="42.274114" lon="2.902443">
        <ele>146.708</ele>
        <time>2020-10-17T19:03:29Z</time>
      </trkpt>
      <trkpt lat="42.274120" lon="2.902515">
        <ele>146.834</ele>
        <time>2020-10-17T19:03:30Z</time>
      </trkpt>
      <trkpt lat="42.274125" lon="2.902591">
        <ele>147.197</ele>
        <time>2020-10-17T19:03:32Z</time>
      </trkpt>
      <trkpt lat="42.274124" lon="2.902654">
        <ele>147.336</ele>
        <time>2020-10-17T19:03:34Z</time>
      </trkpt>
      <trkpt lat="42.274123" lon="2.902729">
        <ele>147.475</ele>
        <time>2020-10-17T19:03:35Z</time>
      </trkpt>
      <trkpt lat="42.274122" lon="2.902802">
        <ele>147.544</ele>
        <time>2020-10-17T19:03:37Z</time>
      </trkpt>
      <trkpt lat="42.274134" lon="2.902862">
        <ele>147.742</ele>
        <time>2020-10-17T19:03:39Z</time>
      </trkpt>
      <trkpt lat="42.274172" lon="2.902900">
        <ele>148.062</ele>
        <time>2020-10-17T19:03:40Z</time>
      </trkpt>
      <trkpt lat="42.274241" lon="2.902945">
        <ele>148.517</ele>
        <time>2020-10-17T19:03:42Z</time>
      </trkpt>
      <trkpt lat="42.274286" lon="2.903013">
        <ele>149.281</ele>
        <time>2020-10-17T19:03:44Z</time>
      </trkpt>
      <trkpt lat="42.274306" lon="2.903099">
        <ele>149.961</ele>
        <time>2020-10-17T19:03:46Z</time>
      </trkpt>
      <trkpt lat="42.274318" lon="2.903185">
        <ele>150.617</ele>
        <time>2020-10-17T19:03:48Z</time>
      </trkpt>
      <trkpt lat="42.274326" lon="2.903270">
        <ele>151.508</ele>
        <time>2020-10-17T19:03:50Z</time>
      </trkpt>
      <trkpt lat="42.274333" lon="2.903367">
        <ele>152.583</ele>
        <time>2020-10-17T19:03:52Z</time>
      </trkpt>
      <trkpt lat="42.274350" lon="2.903459">
        <ele>153.526</ele>
        <time>2020-10-17T19:03:54Z</time>
      </trkpt>
      <trkpt lat="42.274384" lon="2.903565">
        <ele>154.575</ele>
        <time>2020-10-17T19:03:56Z</time>
      </trkpt>
      <trkpt lat="42.274427" lon="2.903660">
        <ele>155.544</ele>
        <time>2020-10-17T19:03:58Z</time>
      </trkpt>
      <trkpt lat="42.274481" lon="2.903756">
        <ele>156.473</ele>
        <time>2020-10-17T19:04:00Z</time>
      </trkpt>
      <trkpt lat="42.274543" lon="2.903854">
        <ele>157.211</ele>
        <time>2020-10-17T19:04:02Z</time>
      </trkpt>
      <trkpt lat="42.274623" lon="2.903960">
        <ele>158.021</ele>
        <time>2020-10-17T19:04:04Z</time>
      </trkpt>
      <trkpt lat="42.274720" lon="2.904055">
        <ele>158.836</ele>
        <time>2020-10-17T19:04:06Z</time>
      </trkpt>
      <trkpt lat="42.274782" lon="2.904097">
        <ele>159.556</ele>
        <time>2020-10-17T19:04:08Z</time>
      </trkpt>
      <trkpt lat="42.274863" lon="2.904162">
        <ele>160.459</ele>
        <time>2020-10-17T19:04:09Z</time>
      </trkpt>
      <trkpt lat="42.274902" lon="2.904216">
        <ele>161.214</ele>
        <time>2020-10-17T19:04:10Z</time>
      </trkpt>
      <trkpt lat="42.274959" lon="2.904340">
        <ele>162.008</ele>
        <time>2020-10-17T19:04:12Z</time>
      </trkpt>
      <trkpt lat="42.275004" lon="2.904450">
        <ele>162.560</ele>
        <time>2020-10-17T19:04:14Z</time>
      </trkpt>
      <trkpt lat="42.275026" lon="2.904505">
        <ele>162.893</ele>
        <time>2020-10-17T19:04:15Z</time>
      </trkpt>
      <trkpt lat="42.275050" lon="2.904561">
        <ele>163.122</ele>
        <time>2020-10-17T19:04:16Z</time>
      </trkpt>
      <trkpt lat="42.275076" lon="2.904615">
        <ele>163.441</ele>
        <time>2020-10-17T19:04:17Z</time>
      </trkpt>
      <trkpt lat="42.275126" lon="2.904689">
        <ele>163.680</ele>
        <time>2020-10-17T19:04:19Z</time>
      </trkpt>
      <trkpt lat="42.275179" lon="2.904696">
        <ele>163.858</ele>
        <time>2020-10-17T19:04:21Z</time>
      </trkpt>
      <trkpt lat="42.275228" lon="2.904650">
        <ele>164.018</ele>
        <time>2020-10-17T19:04:23Z</time>
      </trkpt>
      <trkpt lat="42.275296" lon="2.904600">
        <ele>164.383</ele>
        <time>2020-10-17T19:04:25Z</time>
      </trkpt>
      <trkpt lat="42.275370" lon="2.904585">
        <ele>164.996</ele>
        <time>2020-10-17T19:04:27Z</time>
      </trkpt>
      <trkpt lat="42.275450" lon="2.904580">
        <ele>165.531</ele>
        <time>2020-10-17T19:04:29Z</time>
      </trkpt>
      <trkpt lat="42.275544" lon="2.904570">
        <ele>166.124</ele>
        <time>2020-10-17T19:04:31Z</time>
      </trkpt>
      <trkpt lat="42.275596" lon="2.904564">
        <ele>166.608</ele>
        <time>2020-10-17T19:04:32Z</time>
      </trkpt>
      <trkpt lat="42.275667" lon="2.904553">
        <ele>167.174</ele>
        <time>2020-10-17T19:04:34Z</time>
      </trkpt>
      <trkpt lat="42.275703" lon="2.904505">
        <ele>167.517</ele>
        <time>2020-10-17T19:05:31Z</time>
      </trkpt>
      <trkpt lat="42.275744" lon="2.904474">
        <ele>167.826</ele>
        <time>2020-10-17T19:05:34Z</time>
      </trkpt>
      <trkpt lat="42.275776" lon="2.904389">
        <ele>168.115</ele>
        <time>2020-10-17T19:05:35Z</time>
      </trkpt>
      <trkpt lat="42.275799" lon="2.904299">
        <ele>168.354</ele>
        <time>2020-10-17T19:05:36Z</time>
      </trkpt>
      <trkpt lat="42.275828" lon="2.904204">
        <ele>168.522</ele>
        <time>2020-10-17T19:05:37Z</time>
      </trkpt>
      <trkpt lat="42.275865" lon="2.904109">
        <ele>168.732</ele>
        <time>2020-10-17T19:05:38Z</time>
      </trkpt>
      <trkpt lat="42.275972" lon="2.903933">
        <ele>168.927</ele>
        <time>2020-10-17T19:05:40Z</time>
      </trkpt>
      <trkpt lat="42.276153" lon="2.903814">
        <ele>169.125</ele>
        <time>2020-10-17T19:05:42Z</time>
      </trkpt>
      <trkpt lat="42.276370" lon="2.903797">
        <ele>169.126</ele>
        <time>2020-10-17T19:05:44Z</time>
      </trkpt>
      <trkpt lat="42.276564" lon="2.903802">
        <ele>169.108</ele>
        <time>2020-10-17T19:05:46Z</time>
      </trkpt>
      <trkpt lat="42.276772" lon="2.903751">
        <ele>169.108</ele>
        <time>2020-10-17T19:05:48Z</time>
      </trkpt>
      <trkpt lat="42.277010" lon="2.903625">
        <ele>169.157</ele>
        <time>2020-10-17T19:05:50Z</time>
      </trkpt>
      <trkpt lat="42.277140" lon="2.903546">
        <ele>169.030</ele>
        <time>2020-10-17T19:05:51Z</time>
      </trkpt>
      <trkpt lat="42.277276" lon="2.903464">
        <ele>168.949</ele>
        <time>2020-10-17T19:05:52Z</time>
      </trkpt>
      <trkpt lat="42.277534" lon="2.903312">
        <ele>168.738</ele>
        <time>2020-10-17T19:05:54Z</time>
      </trkpt>
      <trkpt lat="42.277655" lon="2.903241">
        <ele>168.527</ele>
        <time>2020-10-17T19:05:55Z</time>
      </trkpt>
      <trkpt lat="42.277881" lon="2.903104">
        <ele>168.335</ele>
        <time>2020-10-17T19:05:57Z</time>
      </trkpt>
      <trkpt lat="42.277994" lon="2.903032">
        <ele>168.155</ele>
        <time>2020-10-17T19:05:58Z</time>
      </trkpt>
      <trkpt lat="42.278222" lon="2.902891">
        <ele>168.020</ele>
        <time>2020-10-17T19:06:00Z</time>
      </trkpt>
      <trkpt lat="42.278340" lon="2.902819">
        <ele>167.955</ele>
        <time>2020-10-17T19:06:01Z</time>
      </trkpt>
      <trkpt lat="42.278572" lon="2.902673">
        <ele>167.807</ele>
        <time>2020-10-17T19:06:03Z</time>
      </trkpt>
      <trkpt lat="42.278693" lon="2.902599">
        <ele>167.717</ele>
        <time>2020-10-17T19:06:04Z</time>
      </trkpt>
      <trkpt lat="42.278932" lon="2.902457">
        <ele>167.708</ele>
        <time>2020-10-17T19:06:06Z</time>
      </trkpt>
      <trkpt lat="42.279174" lon="2.902329">
        <ele>167.950</ele>
        <time>2020-10-17T19:06:08Z</time>
      </trkpt>
      <trkpt lat="42.279420" lon="2.902229">
        <ele>168.283</ele>
        <time>2020-10-17T19:06:10Z</time>
      </trkpt>
      <trkpt lat="42.279662" lon="2.902144">
        <ele>168.552</ele>
        <time>2020-10-17T19:06:12Z</time>
      </trkpt>
      <trkpt lat="42.279777" lon="2.902092">
        <ele>168.771</ele>
        <time>2020-10-17T19:06:13Z</time>
      </trkpt>
      <trkpt lat="42.279888" lon="2.902028">
        <ele>168.990</ele>
        <time>2020-10-17T19:06:14Z</time>
      </trkpt>
      <trkpt lat="42.279994" lon="2.901953">
        <ele>169.198</ele>
        <time>2020-10-17T19:06:15Z</time>
      </trkpt>
      <trkpt lat="42.280208" lon="2.901807">
        <ele>169.448</ele>
        <time>2020-10-17T19:06:17Z</time>
      </trkpt>
      <trkpt lat="42.280328" lon="2.901751">
        <ele>169.673</ele>
        <time>2020-10-17T19:06:18Z</time>
      </trkpt>
      <trkpt lat="42.280585" lon="2.901685">
        <ele>169.793</ele>
        <time>2020-10-17T19:06:20Z</time>
      </trkpt>
      <trkpt lat="42.280726" lon="2.901668">
        <ele>169.765</ele>
        <time>2020-10-17T19:06:21Z</time>
      </trkpt>
      <trkpt lat="42.281008" lon="2.901674">
        <ele>169.921</ele>
        <time>2020-10-17T19:06:23Z</time>
      </trkpt>
      <trkpt lat="42.281149" lon="2.901699">
        <ele>170.108</ele>
        <time>2020-10-17T19:06:24Z</time>
      </trkpt>
      <trkpt lat="42.281290" lon="2.901733">
        <ele>170.494</ele>
        <time>2020-10-17T19:06:25Z</time>
      </trkpt>
      <trkpt lat="42.281431" lon="2.901771">
        <ele>170.837</ele>
        <time>2020-10-17T19:06:26Z</time>
      </trkpt>
      <trkpt lat="42.281567" lon="2.901809">
        <ele>171.376</ele>
        <time>2020-10-17T19:06:27Z</time>
      </trkpt>
      <trkpt lat="42.281825" lon="2.901867">
        <ele>172.115</ele>
        <time>2020-10-17T19:06:29Z</time>
      </trkpt>
      <trkpt lat="42.282087" lon="2.901893">
        <ele>173.144</ele>
        <time>2020-10-17T19:06:31Z</time>
      </trkpt>
      <trkpt lat="42.282220" lon="2.901893">
        <ele>173.932</ele>
        <time>2020-10-17T19:06:32Z</time>
      </trkpt>
      <trkpt lat="42.282490" lon="2.901862">
        <ele>174.642</ele>
        <time>2020-10-17T19:06:34Z</time>
      </trkpt>
      <trkpt lat="42.282764" lon="2.901816">
        <ele>175.377</ele>
        <time>2020-10-17T19:06:36Z</time>
      </trkpt>
      <trkpt lat="42.283041" lon="2.901773">
        <ele>176.123</ele>
        <time>2020-10-17T19:06:38Z</time>
      </trkpt>
      <trkpt lat="42.283314" lon="2.901719">
        <ele>176.983</ele>
        <time>2020-10-17T19:06:40Z</time>
      </trkpt>
      <trkpt lat="42.283449" lon="2.901679">
        <ele>177.611</ele>
        <time>2020-10-17T19:06:41Z</time>
      </trkpt>
      <trkpt lat="42.283713" lon="2.901578">
        <ele>178.308</ele>
        <time>2020-10-17T19:06:43Z</time>
      </trkpt>
      <trkpt lat="42.283847" lon="2.901524">
        <ele>178.887</ele>
        <time>2020-10-17T19:06:44Z</time>
      </trkpt>
      <trkpt lat="42.284095" lon="2.901430">
        <ele>179.430</ele>
        <time>2020-10-17T19:06:46Z</time>
      </trkpt>
      <trkpt lat="42.284320" lon="2.901347">
        <ele>180.049</ele>
        <time>2020-10-17T19:06:48Z</time>
      </trkpt>
      <trkpt lat="42.284424" lon="2.901308">
        <ele>180.428</ele>
        <time>2020-10-17T19:06:49Z</time>
      </trkpt>
      <trkpt lat="42.284619" lon="2.901269">
        <ele>180.897</ele>
        <time>2020-10-17T19:06:51Z</time>
      </trkpt>
      <trkpt lat="42.284716" lon="2.901288">
        <ele>181.065</ele>
        <time>2020-10-17T19:06:52Z</time>
      </trkpt>
      <trkpt lat="42.284911" lon="2.901417">
        <ele>181.155</ele>
        <time>2020-10-17T19:06:54Z</time>
      </trkpt>
      <trkpt lat="42.285017" lon="2.901509">
        <ele>181.150</ele>
        <time>2020-10-17T19:06:55Z</time>
      </trkpt>
      <trkpt lat="42.285129" lon="2.901602">
        <ele>181.199</ele>
        <time>2020-10-17T19:06:56Z</time>
      </trkpt>
      <trkpt lat="42.285372" lon="2.901781">
        <ele>181.007</ele>
        <time>2020-10-17T19:06:58Z</time>
      </trkpt>
      <trkpt lat="42.285501" lon="2.901866">
        <ele>180.827</ele>
        <time>2020-10-17T19:06:59Z</time>
      </trkpt>
      <trkpt lat="42.285764" lon="2.902064">
        <ele>180.408</ele>
        <time>2020-10-17T19:07:01Z</time>
      </trkpt>
      <trkpt lat="42.286022" lon="2.902319">
        <ele>179.814</ele>
        <time>2020-10-17T19:07:03Z</time>
      </trkpt>
      <trkpt lat="42.286292" lon="2.902573">
        <ele>179.117</ele>
        <time>2020-10-17T19:07:05Z</time>
      </trkpt>
      <trkpt lat="42.286577" lon="2.902776">
        <ele>178.166</ele>
        <time>2020-10-17T19:07:07Z</time>
      </trkpt>
      <trkpt lat="42.286871" lon="2.902921">
        <ele>177.145</ele>
        <time>2020-10-17T19:07:09Z</time>
      </trkpt>
      <trkpt lat="42.287166" lon="2.902972">
        <ele>176.134</ele>
        <time>2020-10-17T19:07:11Z</time>
      </trkpt>
      <trkpt lat="42.287449" lon="2.902970">
        <ele>175.182</ele>
        <time>2020-10-17T19:07:13Z</time>
      </trkpt>
      <trkpt lat="42.287579" lon="2.902982">
        <ele>174.232</ele>
        <time>2020-10-17T19:07:14Z</time>
      </trkpt>
      <trkpt lat="42.287804" lon="2.903101">
        <ele>173.387</ele>
        <time>2020-10-17T19:07:16Z</time>
      </trkpt>
      <trkpt lat="42.287897" lon="2.903223">
        <ele>172.428</ele>
        <time>2020-10-17T19:07:17Z</time>
      </trkpt>
      <trkpt lat="42.288062" lon="2.903531">
        <ele>171.489</ele>
        <time>2020-10-17T19:07:19Z</time>
      </trkpt>
      <trkpt lat="42.288229" lon="2.903863">
        <ele>170.317</ele>
        <time>2020-10-17T19:07:21Z</time>
      </trkpt>
      <trkpt lat="42.288315" lon="2.904034">
        <ele>169.508</ele>
        <time>2020-10-17T19:07:22Z</time>
      </trkpt>
      <trkpt lat="42.288474" lon="2.904376">
        <ele>168.887</ele>
        <time>2020-10-17T19:07:24Z</time>
      </trkpt>
      <trkpt lat="42.288634" lon="2.904678">
        <ele>168.150</ele>
        <time>2020-10-17T19:07:26Z</time>
      </trkpt>
      <trkpt lat="42.288727" lon="2.904797">
        <ele>167.639</ele>
        <time>2020-10-17T19:07:27Z</time>
      </trkpt>
      <trkpt lat="42.288947" lon="2.904920">
        <ele>167.228</ele>
        <time>2020-10-17T19:07:29Z</time>
      </trkpt>
      <trkpt lat="42.289073" lon="2.904939">
        <ele>166.917</ele>
        <time>2020-10-17T19:07:30Z</time>
      </trkpt>
      <trkpt lat="42.289339" lon="2.904960">
        <ele>166.735</ele>
        <time>2020-10-17T19:07:32Z</time>
      </trkpt>
      <trkpt lat="42.289474" lon="2.904982">
        <ele>166.515</ele>
        <time>2020-10-17T19:07:33Z</time>
      </trkpt>
      <trkpt lat="42.289740" lon="2.905048">
        <ele>166.330</ele>
        <time>2020-10-17T19:07:35Z</time>
      </trkpt>
      <trkpt lat="42.289874" lon="2.905090">
        <ele>166.176</ele>
        <time>2020-10-17T19:07:36Z</time>
      </trkpt>
      <trkpt lat="42.290131" lon="2.905178">
        <ele>165.990</ele>
        <time>2020-10-17T19:07:38Z</time>
      </trkpt>
      <trkpt lat="42.290255" lon="2.905219">
        <ele>165.719</ele>
        <time>2020-10-17T19:07:39Z</time>
      </trkpt>
      <trkpt lat="42.290375" lon="2.905252">
        <ele>165.508</ele>
        <time>2020-10-17T19:07:40Z</time>
      </trkpt>
      <trkpt lat="42.290491" lon="2.905280">
        <ele>165.352</ele>
        <time>2020-10-17T19:07:41Z</time>
      </trkpt>
      <trkpt lat="42.290709" lon="2.905374">
        <ele>165.275</ele>
        <time>2020-10-17T19:07:43Z</time>
      </trkpt>
      <trkpt lat="42.290889" lon="2.905588">
        <ele>165.094</ele>
        <time>2020-10-17T19:07:45Z</time>
      </trkpt>
      <trkpt lat="42.290956" lon="2.905726">
        <ele>164.863</ele>
        <time>2020-10-17T19:07:46Z</time>
      </trkpt>
      <trkpt lat="42.291004" lon="2.905870">
        <ele>164.612</ele>
        <time>2020-10-17T19:07:47Z</time>
      </trkpt>
      <trkpt lat="42.291034" lon="2.906011">
        <ele>164.570</ele>
        <time>2020-10-17T19:07:48Z</time>
      </trkpt>
      <trkpt lat="42.291065" lon="2.906243">
        <ele>164.430</ele>
        <time>2020-10-17T19:07:50Z</time>
      </trkpt>
      <trkpt lat="42.291081" lon="2.906406">
        <ele>164.355</ele>
        <time>2020-10-17T19:07:52Z</time>
      </trkpt>
      <trkpt lat="42.291104" lon="2.906569">
        <ele>164.169</ele>
        <time>2020-10-17T19:07:54Z</time>
      </trkpt>
      <trkpt lat="42.291150" lon="2.906762">
        <ele>163.904</ele>
        <time>2020-10-17T19:07:56Z</time>
      </trkpt>
      <trkpt lat="42.291187" lon="2.906869">
        <ele>163.824</ele>
        <time>2020-10-17T19:07:57Z</time>
      </trkpt>
      <trkpt lat="42.291288" lon="2.907074">
        <ele>163.808</ele>
        <time>2020-10-17T19:07:59Z</time>
      </trkpt>
      <trkpt lat="42.291372" lon="2.907204">
        <ele>163.921</ele>
        <time>2020-10-17T19:08:01Z</time>
      </trkpt>
      <trkpt lat="42.291413" lon="2.907237">
        <ele>164.014</ele>
        <time>2020-10-17T19:08:03Z</time>
      </trkpt>
      <trkpt lat="42.291465" lon="2.907187">
        <ele>163.913</ele>
        <time>2020-10-17T19:08:06Z</time>
      </trkpt>
      <trkpt lat="42.291494" lon="2.907140">
        <ele>163.812</ele>
        <time>2020-10-17T19:08:08Z</time>
      </trkpt>
      <trkpt lat="42.291551" lon="2.907104">
        <ele>163.771</ele>
        <time>2020-10-17T19:08:11Z</time>
      </trkpt>
      <trkpt lat="42.291594" lon="2.907086">
        <ele>163.669</ele>
        <time>2020-10-17T19:08:13Z</time>
      </trkpt>
      <trkpt lat="42.291638" lon="2.907067">
        <ele>163.589</ele>
        <time>2020-10-17T19:08:15Z</time>
      </trkpt>
      <trkpt lat="42.291702" lon="2.907040">
        <ele>163.684</ele>
        <time>2020-10-17T19:08:18Z</time>
      </trkpt>
      <trkpt lat="42.291750" lon="2.907014">
        <ele>163.778</ele>
        <time>2020-10-17T19:08:20Z</time>
      </trkpt>
      <trkpt lat="42.291809" lon="2.906979">
        <ele>163.733</ele>
        <time>2020-10-17T19:08:22Z</time>
      </trkpt>
      <trkpt lat="42.291870" lon="2.906944">
        <ele>163.726</ele>
        <time>2020-10-17T19:08:25Z</time>
      </trkpt>
      <trkpt lat="42.291922" lon="2.906925">
        <ele>163.708</ele>
        <time>2020-10-17T19:08:27Z</time>
      </trkpt>
      <trkpt lat="42.291980" lon="2.906916">
        <ele>163.932</ele>
        <time>2020-10-17T19:08:30Z</time>
      </trkpt>
      <trkpt lat="42.292031" lon="2.906900">
        <ele>164.275</ele>
        <time>2020-10-17T19:08:33Z</time>
      </trkpt>
      <trkpt lat="42.292080" lon="2.906889">
        <ele>164.694</ele>
        <time>2020-10-17T19:08:36Z</time>
      </trkpt>
      <trkpt lat="42.292131" lon="2.906883">
        <ele>165.493</ele>
        <time>2020-10-17T19:08:39Z</time>
      </trkpt>
      <trkpt lat="42.292192" lon="2.906863">
        <ele>166.582</ele>
        <time>2020-10-17T19:08:42Z</time>
      </trkpt>
      <trkpt lat="42.292246" lon="2.906852">
        <ele>167.680</ele>
        <time>2020-10-17T19:08:46Z</time>
      </trkpt>
      <trkpt lat="42.292290" lon="2.906835">
        <ele>168.540</ele>
        <time>2020-10-17T19:08:49Z</time>
      </trkpt>
      <trkpt lat="42.292345" lon="2.906790">
        <ele>170.835</ele>
        <time>2020-10-17T19:08:54Z</time>
      </trkpt>
      <trkpt lat="42.292400" lon="2.906771">
        <ele>172.162</ele>
        <time>2020-10-17T19:08:57Z</time>
      </trkpt>
      <trkpt lat="42.292449" lon="2.906752">
        <ele>173.583</ele>
        <time>2020-10-17T19:09:00Z</time>
      </trkpt>
      <trkpt lat="42.292513" lon="2.906740">
        <ele>174.711</ele>
        <time>2020-10-17T19:09:02Z</time>
      </trkpt>
      <trkpt lat="42.292574" lon="2.906725">
        <ele>175.908</ele>
        <time>2020-10-17T19:09:05Z</time>
      </trkpt>
      <trkpt lat="42.292646" lon="2.906698">
        <ele>176.781</ele>
        <time>2020-10-17T19:09:07Z</time>
      </trkpt>
      <trkpt lat="42.292691" lon="2.906678">
        <ele>177.254</ele>
        <time>2020-10-17T19:09:09Z</time>
      </trkpt>
      <trkpt lat="42.292746" lon="2.906650">
        <ele>177.543</ele>
        <time>2020-10-17T19:09:11Z</time>
      </trkpt>
      <trkpt lat="42.292806" lon="2.906618">
        <ele>177.772</ele>
        <time>2020-10-17T19:09:13Z</time>
      </trkpt>
      <trkpt lat="42.292862" lon="2.906586">
        <ele>178.081</ele>
        <time>2020-10-17T19:09:15Z</time>
      </trkpt>
      <trkpt lat="42.292913" lon="2.906558">
        <ele>178.379</ele>
        <time>2020-10-17T19:09:16Z</time>
      </trkpt>
      <trkpt lat="42.292968" lon="2.906528">
        <ele>178.629</ele>
        <time>2020-10-17T19:09:17Z</time>
      </trkpt>
      <trkpt lat="42.293013" lon="2.906502">
        <ele>178.914</ele>
        <time>2020-10-17T19:09:19Z</time>
      </trkpt>
      <trkpt lat="42.293058" lon="2.906477">
        <ele>179.537</ele>
        <time>2020-10-17T19:09:20Z</time>
      </trkpt>
      <trkpt lat="42.293141" lon="2.906439">
        <ele>180.549</ele>
        <time>2020-10-17T19:09:22Z</time>
      </trkpt>
      <trkpt lat="42.293201" lon="2.906417">
        <ele>181.313</ele>
        <time>2020-10-17T19:09:24Z</time>
      </trkpt>
      <trkpt lat="42.293270" lon="2.906401">
        <ele>182.208</ele>
        <time>2020-10-17T19:09:25Z</time>
      </trkpt>
      <trkpt lat="42.293325" lon="2.906394">
        <ele>183.068</ele>
        <time>2020-10-17T19:09:26Z</time>
      </trkpt>
      <trkpt lat="42.293370" lon="2.906386">
        <ele>183.641</ele>
        <time>2020-10-17T19:09:27Z</time>
      </trkpt>
      <trkpt lat="42.293454" lon="2.906380">
        <ele>184.290</ele>
        <time>2020-10-17T19:09:29Z</time>
      </trkpt>
      <trkpt lat="42.293528" lon="2.906376">
        <ele>184.739</ele>
        <time>2020-10-17T19:09:31Z</time>
      </trkpt>
      <trkpt lat="42.293605" lon="2.906369">
        <ele>185.188</ele>
        <time>2020-10-17T19:09:33Z</time>
      </trkpt>
      <trkpt lat="42.293691" lon="2.906350">
        <ele>185.496</ele>
        <time>2020-10-17T19:09:35Z</time>
      </trkpt>
      <trkpt lat="42.293777" lon="2.906327">
        <ele>185.756</ele>
        <time>2020-10-17T19:09:37Z</time>
      </trkpt>
      <trkpt lat="42.293859" lon="2.906311">
        <ele>186.181</ele>
        <time>2020-10-17T19:09:39Z</time>
      </trkpt>
      <trkpt lat="42.293942" lon="2.906296">
        <ele>186.653</ele>
        <time>2020-10-17T19:09:41Z</time>
      </trkpt>
      <trkpt lat="42.293990" lon="2.906285">
        <ele>187.004</ele>
        <time>2020-10-17T19:09:42Z</time>
      </trkpt>
      <trkpt lat="42.294041" lon="2.906273">
        <ele>187.314</ele>
        <time>2020-10-17T19:09:43Z</time>
      </trkpt>
      <trkpt lat="42.294139" lon="2.906253">
        <ele>187.608</ele>
        <time>2020-10-17T19:09:45Z</time>
      </trkpt>
      <trkpt lat="42.294222" lon="2.906240">
        <ele>187.910</ele>
        <time>2020-10-17T19:09:47Z</time>
      </trkpt>
      <trkpt lat="42.294311" lon="2.906223">
        <ele>188.153</ele>
        <time>2020-10-17T19:09:49Z</time>
      </trkpt>
      <trkpt lat="42.294364" lon="2.906214">
        <ele>188.332</ele>
        <time>2020-10-17T19:09:50Z</time>
      </trkpt>
      <trkpt lat="42.294418" lon="2.906203">
        <ele>188.421</ele>
        <time>2020-10-17T19:09:51Z</time>
      </trkpt>
      <trkpt lat="42.294472" lon="2.906186">
        <ele>188.490</ele>
        <time>2020-10-17T19:09:52Z</time>
      </trkpt>
      <trkpt lat="42.294583" lon="2.906133">
        <ele>188.458</ele>
        <time>2020-10-17T19:09:54Z</time>
      </trkpt>
      <trkpt lat="42.294643" lon="2.906105">
        <ele>188.438</ele>
        <time>2020-10-17T19:09:55Z</time>
      </trkpt>
      <trkpt lat="42.294743" lon="2.906067">
        <ele>188.423</ele>
        <time>2020-10-17T19:09:57Z</time>
      </trkpt>
      <trkpt lat="42.294802" lon="2.906079">
        <ele>188.562</ele>
        <time>2020-10-17T19:09:59Z</time>
      </trkpt>
      <trkpt lat="42.294841" lon="2.906145">
        <ele>188.983</ele>
        <time>2020-10-17T19:10:01Z</time>
      </trkpt>
      <trkpt lat="42.294887" lon="2.906260">
        <ele>189.611</ele>
        <time>2020-10-17T19:10:03Z</time>
      </trkpt>
      <trkpt lat="42.294964" lon="2.906389">
        <ele>190.208</ele>
        <time>2020-10-17T19:10:05Z</time>
      </trkpt>
      <trkpt lat="42.295017" lon="2.906454">
        <ele>190.681</ele>
        <time>2020-10-17T19:10:06Z</time>
      </trkpt>
      <trkpt lat="42.295069" lon="2.906511">
        <ele>190.814</ele>
        <time>2020-10-17T19:10:07Z</time>
      </trkpt>
      <trkpt lat="42.295141" lon="2.906572">
        <ele>190.783</ele>
        <time>2020-10-17T19:10:09Z</time>
      </trkpt>
      <trkpt lat="42.295180" lon="2.906533">
        <ele>190.472</ele>
        <time>2020-10-17T19:10:11Z</time>
      </trkpt>
      <trkpt lat="42.295171" lon="2.906452">
        <ele>190.071</ele>
        <time>2020-10-17T19:10:13Z</time>
      </trkpt>
      <trkpt lat="42.295130" lon="2.906419">
        <ele>189.659</ele>
        <time>2020-10-17T19:10:16Z</time>
      </trkpt>
      <trkpt lat="42.295013" lon="2.906557">
        <ele>190.081</ele>
        <time>2020-10-17T10:33:51Z</time>
      </trkpt>
      <trkpt lat="42.294958" lon="2.906494">
        <ele>191.061</ele>
        <time>2020-10-17T10:33:53Z</time>
      </trkpt>
      <trkpt lat="42.294924" lon="2.906411">
        <ele>191.417</ele>
        <time>2020-10-17T10:33:57Z</time>
      </trkpt>
      <trkpt lat="42.294896" lon="2.906358">
        <ele>191.808</ele>
        <time>2020-10-17T10:33:59Z</time>
      </trkpt>
      <trkpt lat="42.294851" lon="2.906321">
        <ele>191.683</ele>
        <time>2020-10-17T10:34:01Z</time>
      </trkpt>
      <trkpt lat="42.294794" lon="2.906311">
        <ele>191.796</ele>
        <time>2020-10-17T10:34:03Z</time>
      </trkpt>
      <trkpt lat="42.294676" lon="2.906328">
        <ele>191.125</ele>
        <time>2020-10-17T10:34:05Z</time>
      </trkpt>
      <trkpt lat="42.294477" lon="2.906366">
        <ele>190.788</ele>
        <time>2020-10-17T10:34:07Z</time>
      </trkpt>
      <trkpt lat="42.294398" lon="2.906374">
        <ele>190.890</ele>
        <time>2020-10-17T10:34:08Z</time>
      </trkpt>
      <trkpt lat="42.294335" lon="2.906377">
        <ele>190.636</ele>
        <time>2020-10-17T10:34:09Z</time>
      </trkpt>
      <trkpt lat="42.294244" lon="2.906383">
        <ele>191.375</ele>
        <time>2020-10-17T10:34:11Z</time>
      </trkpt>
      <trkpt lat="42.294170" lon="2.906322">
        <ele>191.816</ele>
        <time>2020-10-17T10:34:13Z</time>
      </trkpt>
      <trkpt lat="42.294100" lon="2.906192">
        <ele>192.685</ele>
        <time>2020-10-17T10:34:15Z</time>
      </trkpt>
      <trkpt lat="42.294036" lon="2.905978">
        <ele>190.689</ele>
        <time>2020-10-17T10:34:17Z</time>
      </trkpt>
      <trkpt lat="42.294036" lon="2.905978">
        <ele>190.617</ele>
        <time>2020-10-17T10:34:17Z</time>
      </trkpt>
      <trkpt lat="42.294013" lon="2.905878">
        <ele>190.208</ele>
        <time>2020-10-17T10:34:18Z</time>
      </trkpt>
      <trkpt lat="42.294013" lon="2.905878">
        <ele>190.253</ele>
        <time>2020-10-17T10:34:18Z</time>
      </trkpt>
      <trkpt lat="42.293989" lon="2.905654">
        <ele>190.526</ele>
        <time>2020-10-17T10:34:20Z</time>
      </trkpt>
      <trkpt lat="42.293983" lon="2.905460">
        <ele>190.015</ele>
        <time>2020-10-17T10:34:22Z</time>
      </trkpt>
      <trkpt lat="42.293984" lon="2.905363">
        <ele>190.568</ele>
        <time>2020-10-17T10:34:23Z</time>
      </trkpt>
      <trkpt lat="42.293984" lon="2.905363">
        <ele>190.580</ele>
        <time>2020-10-17T10:34:23Z</time>
      </trkpt>
      <trkpt lat="42.293983" lon="2.905267">
        <ele>191.126</ele>
        <time>2020-10-17T10:34:24Z</time>
      </trkpt>
      <trkpt lat="42.293960" lon="2.905091">
        <ele>190.835</ele>
        <time>2020-10-17T10:34:26Z</time>
      </trkpt>
      <trkpt lat="42.293960" lon="2.905091">
        <ele>190.896</ele>
        <time>2020-10-17T10:34:26Z</time>
      </trkpt>
      <trkpt lat="42.293927" lon="2.904934">
        <ele>190.944</ele>
        <time>2020-10-17T10:34:28Z</time>
      </trkpt>
      <trkpt lat="42.293909" lon="2.904865">
        <ele>191.205</ele>
        <time>2020-10-17T10:34:29Z</time>
      </trkpt>
      <trkpt lat="42.293867" lon="2.904744">
        <ele>191.415</ele>
        <time>2020-10-17T10:34:31Z</time>
      </trkpt>
      <trkpt lat="42.293844" lon="2.904687">
        <ele>191.708</ele>
        <time>2020-10-17T10:34:32Z</time>
      </trkpt>
      <trkpt lat="42.293786" lon="2.904566">
        <ele>192.179</ele>
        <time>2020-10-17T10:34:34Z</time>
      </trkpt>
      <trkpt lat="42.293751" lon="2.904517">
        <ele>192.342</ele>
        <time>2020-10-17T10:34:35Z</time>
      </trkpt>
      <trkpt lat="42.293665" lon="2.904393">
        <ele>192.611</ele>
        <time>2020-10-17T10:34:37Z</time>
      </trkpt>
      <trkpt lat="42.293577" lon="2.904280">
        <ele>192.314</ele>
        <time>2020-10-17T10:34:39Z</time>
      </trkpt>
      <trkpt lat="42.293563" lon="2.904221">
        <ele>192.416</ele>
        <time>2020-10-17T10:34:40Z</time>
      </trkpt>
      <trkpt lat="42.293581" lon="2.904105">
        <ele>192.622</ele>
        <time>2020-10-17T10:34:42Z</time>
      </trkpt>
      <trkpt lat="42.293621" lon="2.904072">
        <ele>192.611</ele>
        <time>2020-10-17T10:34:43Z</time>
      </trkpt>
      <trkpt lat="42.293761" lon="2.904036">
        <ele>192.872</ele>
        <time>2020-10-17T10:34:45Z</time>
      </trkpt>
      <trkpt lat="42.293800" lon="2.903996">
        <ele>193.224</ele>
        <time>2020-10-17T10:34:47Z</time>
      </trkpt>
      <trkpt lat="42.293824" lon="2.903926">
        <ele>194.004</ele>
        <time>2020-10-17T10:34:48Z</time>
      </trkpt>
      <trkpt lat="42.293832" lon="2.903834">
        <ele>194.314</ele>
        <time>2020-10-17T10:34:49Z</time>
      </trkpt>
      <trkpt lat="42.293826" lon="2.903536">
        <ele>195.108</ele>
        <time>2020-10-17T10:34:51Z</time>
      </trkpt>
      <trkpt lat="42.293808" lon="2.903210">
        <ele>195.947</ele>
        <time>2020-10-17T10:34:53Z</time>
      </trkpt>
      <trkpt lat="42.293797" lon="2.903041">
        <ele>195.830</ele>
        <time>2020-10-17T10:34:54Z</time>
      </trkpt>
      <trkpt lat="42.293759" lon="2.902720">
        <ele>195.499</ele>
        <time>2020-10-17T10:34:56Z</time>
      </trkpt>
      <trkpt lat="42.293739" lon="2.902552">
        <ele>194.352</ele>
        <time>2020-10-17T10:34:57Z</time>
      </trkpt>
      <trkpt lat="42.293739" lon="2.902552">
        <ele>194.354</ele>
        <time>2020-10-17T10:34:57Z</time>
      </trkpt>
      <trkpt lat="42.293720" lon="2.902392">
        <ele>194.330</ele>
        <time>2020-10-17T10:34:58Z</time>
      </trkpt>
      <trkpt lat="42.293676" lon="2.902090">
        <ele>194.229</ele>
        <time>2020-10-17T10:35:00Z</time>
      </trkpt>
      <trkpt lat="42.293648" lon="2.901820">
        <ele>193.350</ele>
        <time>2020-10-17T10:35:02Z</time>
      </trkpt>
      <trkpt lat="42.293644" lon="2.901679">
        <ele>191.431</ele>
        <time>2020-10-17T10:35:03Z</time>
      </trkpt>
      <trkpt lat="42.293640" lon="2.901402">
        <ele>188.761</ele>
        <time>2020-10-17T10:35:05Z</time>
      </trkpt>
      <trkpt lat="42.293627" lon="2.901270">
        <ele>187.507</ele>
        <time>2020-10-17T10:35:06Z</time>
      </trkpt>
      <trkpt lat="42.293588" lon="2.901007">
        <ele>187.308</ele>
        <time>2020-10-17T10:35:08Z</time>
      </trkpt>
      <trkpt lat="42.293551" lon="2.900892">
        <ele>187.158</ele>
        <time>2020-10-17T10:35:09Z</time>
      </trkpt>
      <trkpt lat="42.293421" lon="2.900735">
        <ele>187.641</ele>
        <time>2020-10-17T10:35:11Z</time>
      </trkpt>
      <trkpt lat="42.293328" lon="2.900534">
        <ele>188.050</ele>
        <time>2020-10-17T10:35:13Z</time>
      </trkpt>
      <trkpt lat="42.293291" lon="2.900431">
        <ele>187.833</ele>
        <time>2020-10-17T10:35:14Z</time>
      </trkpt>
      <trkpt lat="42.293237" lon="2.900253">
        <ele>187.895</ele>
        <time>2020-10-17T10:35:16Z</time>
      </trkpt>
      <trkpt lat="42.293223" lon="2.900151">
        <ele>187.371</ele>
        <time>2020-10-17T10:35:17Z</time>
      </trkpt>
      <trkpt lat="42.293181" lon="2.899924">
        <ele>187.660</ele>
        <time>2020-10-17T10:35:19Z</time>
      </trkpt>
      <trkpt lat="42.293151" lon="2.899794">
        <ele>187.991</ele>
        <time>2020-10-17T10:35:20Z</time>
      </trkpt>
      <trkpt lat="42.293097" lon="2.899563">
        <ele>187.785</ele>
        <time>2020-10-17T10:35:22Z</time>
      </trkpt>
      <trkpt lat="42.293078" lon="2.899402">
        <ele>187.489</ele>
        <time>2020-10-17T10:35:23Z</time>
      </trkpt>
      <trkpt lat="42.293039" lon="2.899149">
        <ele>187.517</ele>
        <time>2020-10-17T10:35:25Z</time>
      </trkpt>
      <trkpt lat="42.292988" lon="2.898927">
        <ele>188.008</ele>
        <time>2020-10-17T10:35:27Z</time>
      </trkpt>
      <trkpt lat="42.292952" lon="2.898750">
        <ele>188.133</ele>
        <time>2020-10-17T10:35:29Z</time>
      </trkpt>
      <trkpt lat="42.292914" lon="2.898657">
        <ele>188.576</ele>
        <time>2020-10-17T10:35:30Z</time>
      </trkpt>
      <trkpt lat="42.292855" lon="2.898481">
        <ele>188.735</ele>
        <time>2020-10-17T10:35:32Z</time>
      </trkpt>
      <trkpt lat="42.292830" lon="2.898307">
        <ele>188.448</ele>
        <time>2020-10-17T10:35:34Z</time>
      </trkpt>
      <trkpt lat="42.292812" lon="2.898138">
        <ele>189.210</ele>
        <time>2020-10-17T10:35:36Z</time>
      </trkpt>
      <trkpt lat="42.292777" lon="2.898069">
        <ele>190.166</ele>
        <time>2020-10-17T10:35:37Z</time>
      </trkpt>
      <trkpt lat="42.292723" lon="2.897937">
        <ele>191.155</ele>
        <time>2020-10-17T10:35:39Z</time>
      </trkpt>
      <trkpt lat="42.292703" lon="2.897871">
        <ele>191.976</ele>
        <time>2020-10-17T10:35:41Z</time>
      </trkpt>
      <trkpt lat="42.292650" lon="2.897873">
        <ele>191.098</ele>
        <time>2020-10-17T10:35:47Z</time>
      </trkpt>
      <trkpt lat="42.292617" lon="2.897800">
        <ele>190.415</ele>
        <time>2020-10-17T10:35:48Z</time>
      </trkpt>
      <trkpt lat="42.292528" lon="2.897598">
        <ele>190.126</ele>
        <time>2020-10-17T10:35:50Z</time>
      </trkpt>
      <trkpt lat="42.292487" lon="2.897505">
        <ele>190.208</ele>
        <time>2020-10-17T10:35:51Z</time>
      </trkpt>
      <trkpt lat="42.292448" lon="2.897410">
        <ele>188.714</ele>
        <time>2020-10-17T10:35:52Z</time>
      </trkpt>
      <trkpt lat="42.292412" lon="2.897323">
        <ele>187.837</ele>
        <time>2020-10-17T10:35:53Z</time>
      </trkpt>
      <trkpt lat="42.292342" lon="2.897157">
        <ele>187.216</ele>
        <time>2020-10-17T10:35:55Z</time>
      </trkpt>
      <trkpt lat="42.292311" lon="2.897079">
        <ele>187.529</ele>
        <time>2020-10-17T10:35:56Z</time>
      </trkpt>
      <trkpt lat="42.292255" lon="2.896914">
        <ele>188.411</ele>
        <time>2020-10-17T10:35:58Z</time>
      </trkpt>
      <trkpt lat="42.292240" lon="2.896815">
        <ele>189.767</ele>
        <time>2020-10-17T10:35:59Z</time>
      </trkpt>
      <trkpt lat="42.292242" lon="2.896587">
        <ele>190.256</ele>
        <time>2020-10-17T10:36:01Z</time>
      </trkpt>
      <trkpt lat="42.292234" lon="2.896434">
        <ele>191.087</ele>
        <time>2020-10-17T10:36:03Z</time>
      </trkpt>
      <trkpt lat="42.292192" lon="2.896339">
        <ele>191.164</ele>
        <time>2020-10-17T10:36:05Z</time>
      </trkpt>
      <trkpt lat="42.292156" lon="2.896226">
        <ele>191.106</ele>
        <time>2020-10-17T10:36:07Z</time>
      </trkpt>
      <trkpt lat="42.292132" lon="2.896162">
        <ele>191.216</ele>
        <time>2020-10-17T10:36:08Z</time>
      </trkpt>
      <trkpt lat="42.292115" lon="2.895989">
        <ele>191.708</ele>
        <time>2020-10-17T10:36:10Z</time>
      </trkpt>
      <trkpt lat="42.292105" lon="2.895899">
        <ele>192.581</ele>
        <time>2020-10-17T10:36:11Z</time>
      </trkpt>
      <trkpt lat="42.292077" lon="2.895767">
        <ele>193.064</ele>
        <time>2020-10-17T10:36:13Z</time>
      </trkpt>
      <trkpt lat="42.292039" lon="2.895723">
        <ele>193.153</ele>
        <time>2020-10-17T10:36:14Z</time>
      </trkpt>
      <trkpt lat="42.291970" lon="2.895724">
        <ele>193.366</ele>
        <time>2020-10-17T10:36:16Z</time>
      </trkpt>
      <trkpt lat="42.291969" lon="2.895807">
        <ele>194.058</ele>
        <time>2020-10-17T10:36:18Z</time>
      </trkpt>
      <trkpt lat="42.291987" lon="2.895867">
        <ele>194.574</ele>
        <time>2020-10-17T10:36:40Z</time>
      </trkpt>
      <trkpt lat="42.292032" lon="2.895883">
        <ele>195.463</ele>
        <time>2020-10-17T10:36:53Z</time>
      </trkpt>
      <trkpt lat="42.292077" lon="2.895874">
        <ele>196.744</ele>
        <time>2020-10-17T10:36:56Z</time>
      </trkpt>
      <trkpt lat="42.292139" lon="2.895880">
        <ele>197.257</ele>
        <time>2020-10-17T10:36:58Z</time>
      </trkpt>
      <trkpt lat="42.292204" lon="2.895877">
        <ele>196.900</ele>
        <time>2020-10-17T10:37:00Z</time>
      </trkpt>
      <trkpt lat="42.292265" lon="2.895860">
        <ele>196.220</ele>
        <time>2020-10-17T10:37:02Z</time>
      </trkpt>
      <trkpt lat="42.292333" lon="2.895826">
        <ele>196.408</ele>
        <time>2020-10-17T10:37:04Z</time>
      </trkpt>
      <trkpt lat="42.292398" lon="2.895793">
        <ele>195.780</ele>
        <time>2020-10-17T10:37:06Z</time>
      </trkpt>
      <trkpt lat="42.292469" lon="2.895773">
        <ele>195.133</ele>
        <time>2020-10-17T10:37:08Z</time>
      </trkpt>
      <trkpt lat="42.292538" lon="2.895735">
        <ele>194.232</ele>
        <time>2020-10-17T10:37:10Z</time>
      </trkpt>
      <trkpt lat="42.292605" lon="2.895675">
        <ele>193.915</ele>
        <time>2020-10-17T10:37:12Z</time>
      </trkpt>
      <trkpt lat="42.292687" lon="2.895627">
        <ele>194.797</ele>
        <time>2020-10-17T10:37:14Z</time>
      </trkpt>
      <trkpt lat="42.292734" lon="2.895608">
        <ele>194.843</ele>
        <time>2020-10-17T10:37:15Z</time>
      </trkpt>
      <trkpt lat="42.292807" lon="2.895579">
        <ele>194.632</ele>
        <time>2020-10-17T10:37:17Z</time>
      </trkpt>
      <trkpt lat="42.292882" lon="2.895554">
        <ele>194.143</ele>
        <time>2020-10-17T10:37:19Z</time>
      </trkpt>
      <trkpt lat="42.292930" lon="2.895541">
        <ele>195.318</ele>
        <time>2020-10-17T10:37:22Z</time>
      </trkpt>
      <trkpt lat="42.292983" lon="2.895517">
        <ele>195.498</ele>
        <time>2020-10-17T10:37:26Z</time>
      </trkpt>
      <trkpt lat="42.293034" lon="2.895483">
        <ele>196.517</ele>
        <time>2020-10-17T10:37:29Z</time>
      </trkpt>
      <trkpt lat="42.293082" lon="2.895488">
        <ele>196.608</ele>
        <time>2020-10-17T10:37:40Z</time>
      </trkpt>
      <trkpt lat="42.292966" lon="2.895528">
        <ele>198.196</ele>
        <time>2020-10-17T10:38:08Z</time>
      </trkpt>
      <trkpt lat="42.292907" lon="2.895570">
        <ele>197.329</ele>
        <time>2020-10-17T10:38:10Z</time>
      </trkpt>
      <trkpt lat="42.292835" lon="2.895626">
        <ele>196.728</ele>
        <time>2020-10-17T10:38:12Z</time>
      </trkpt>
      <trkpt lat="42.292778" lon="2.895659">
        <ele>196.731</ele>
        <time>2020-10-17T10:38:14Z</time>
      </trkpt>
      <trkpt lat="42.292717" lon="2.895679">
        <ele>196.883</ele>
        <time>2020-10-17T10:38:16Z</time>
      </trkpt>
      <trkpt lat="42.292655" lon="2.895695">
        <ele>197.159</ele>
        <time>2020-10-17T10:38:18Z</time>
      </trkpt>
      <trkpt lat="42.292583" lon="2.895700">
        <ele>197.148</ele>
        <time>2020-10-17T10:38:20Z</time>
      </trkpt>
      <trkpt lat="42.292533" lon="2.895707">
        <ele>196.759</ele>
        <time>2020-10-17T10:38:21Z</time>
      </trkpt>
      <trkpt lat="42.292435" lon="2.895729">
        <ele>195.835</ele>
        <time>2020-10-17T10:38:23Z</time>
      </trkpt>
      <trkpt lat="42.292352" lon="2.895744">
        <ele>195.386</ele>
        <time>2020-10-17T10:38:25Z</time>
      </trkpt>
      <trkpt lat="42.292272" lon="2.895754">
        <ele>194.714</ele>
        <time>2020-10-17T10:38:27Z</time>
      </trkpt>
      <trkpt lat="42.292208" lon="2.895757">
        <ele>193.608</ele>
        <time>2020-10-17T10:38:29Z</time>
      </trkpt>
      <trkpt lat="42.292145" lon="2.895748">
        <ele>194.368</ele>
        <time>2020-10-17T10:38:31Z</time>
      </trkpt>
      <trkpt lat="42.292091" lon="2.895732">
        <ele>194.491</ele>
        <time>2020-10-17T10:38:33Z</time>
      </trkpt>
      <trkpt lat="42.292037" lon="2.895722">
        <ele>193.240</ele>
        <time>2020-10-17T10:38:36Z</time>
      </trkpt>
      <trkpt lat="42.291940" lon="2.895715">
        <ele>193.753</ele>
        <time>2020-10-17T10:38:38Z</time>
      </trkpt>
      <trkpt lat="42.291759" lon="2.895681">
        <ele>194.265</ele>
        <time>2020-10-17T10:38:40Z</time>
      </trkpt>
      <trkpt lat="42.291677" lon="2.895639">
        <ele>193.731</ele>
        <time>2020-10-17T10:38:41Z</time>
      </trkpt>
      <trkpt lat="42.291677" lon="2.895639">
        <ele>193.720</ele>
        <time>2020-10-17T10:38:41Z</time>
      </trkpt>
      <trkpt lat="42.291591" lon="2.895592">
        <ele>193.021</ele>
        <time>2020-10-17T10:38:42Z</time>
      </trkpt>
      <trkpt lat="42.291434" lon="2.895507">
        <ele>193.377</ele>
        <time>2020-10-17T10:38:44Z</time>
      </trkpt>
      <trkpt lat="42.291307" lon="2.895473">
        <ele>194.661</ele>
        <time>2020-10-17T10:38:46Z</time>
      </trkpt>
      <trkpt lat="42.291212" lon="2.895449">
        <ele>196.627</ele>
        <time>2020-10-17T10:38:48Z</time>
      </trkpt>
      <trkpt lat="42.291107" lon="2.895428">
        <ele>198.308</ele>
        <time>2020-10-17T10:38:50Z</time>
      </trkpt>
      <trkpt lat="42.290988" lon="2.895418">
        <ele>199.612</ele>
        <time>2020-10-17T10:38:52Z</time>
      </trkpt>
      <trkpt lat="42.290943" lon="2.895409">
        <ele>200.735</ele>
        <time>2020-10-17T10:38:53Z</time>
      </trkpt>
      <trkpt lat="42.290882" lon="2.895404">
        <ele>200.634</ele>
        <time>2020-10-17T10:38:56Z</time>
      </trkpt>
      <trkpt lat="42.290834" lon="2.895364">
        <ele>200.267</ele>
        <time>2020-10-17T10:38:59Z</time>
      </trkpt>
      <trkpt lat="42.290794" lon="2.895335">
        <ele>200.049</ele>
        <time>2020-10-17T10:39:01Z</time>
      </trkpt>
      <trkpt lat="42.290760" lon="2.895292">
        <ele>201.215</ele>
        <time>2020-10-17T10:39:05Z</time>
      </trkpt>
      <trkpt lat="42.290735" lon="2.895224">
        <ele>203.754</ele>
        <time>2020-10-17T10:39:08Z</time>
      </trkpt>
      <trkpt lat="42.290679" lon="2.895118">
        <ele>203.315</ele>
        <time>2020-10-17T10:39:11Z</time>
      </trkpt>
      <trkpt lat="42.290623" lon="2.894941">
        <ele>203.435</ele>
        <time>2020-10-17T10:39:13Z</time>
      </trkpt>
      <trkpt lat="42.290608" lon="2.894870">
        <ele>203.386</ele>
        <time>2020-10-17T10:39:14Z</time>
      </trkpt>
      <trkpt lat="42.290591" lon="2.894721">
        <ele>203.014</ele>
        <time>2020-10-17T10:39:16Z</time>
      </trkpt>
      <trkpt lat="42.290578" lon="2.894544">
        <ele>203.008</ele>
        <time>2020-10-17T10:39:18Z</time>
      </trkpt>
      <trkpt lat="42.290566" lon="2.894460">
        <ele>202.528</ele>
        <time>2020-10-17T10:39:19Z</time>
      </trkpt>
      <trkpt lat="42.290528" lon="2.894318">
        <ele>201.691</ele>
        <time>2020-10-17T10:39:21Z</time>
      </trkpt>
      <trkpt lat="42.290519" lon="2.894246">
        <ele>201.190</ele>
        <time>2020-10-17T10:39:22Z</time>
      </trkpt>
      <trkpt lat="42.290508" lon="2.894173">
        <ele>200.583</ele>
        <time>2020-10-17T10:39:23Z</time>
      </trkpt>
      <trkpt lat="42.290457" lon="2.894015">
        <ele>199.465</ele>
        <time>2020-10-17T10:39:25Z</time>
      </trkpt>
      <trkpt lat="42.290426" lon="2.893944">
        <ele>198.731</ele>
        <time>2020-10-17T10:39:26Z</time>
      </trkpt>
      <trkpt lat="42.290398" lon="2.893861">
        <ele>197.490</ele>
        <time>2020-10-17T10:39:28Z</time>
      </trkpt>
      <trkpt lat="42.290381" lon="2.893803">
        <ele>196.661</ele>
        <time>2020-10-17T10:39:30Z</time>
      </trkpt>
      <trkpt lat="42.290367" lon="2.893715">
        <ele>193.849</ele>
        <time>2020-10-17T10:39:32Z</time>
      </trkpt>
      <trkpt lat="42.290381" lon="2.893603">
        <ele>192.602</ele>
        <time>2020-10-17T10:39:34Z</time>
      </trkpt>
      <trkpt lat="42.290409" lon="2.893465">
        <ele>193.722</ele>
        <time>2020-10-17T10:39:36Z</time>
      </trkpt>
      <trkpt lat="42.290420" lon="2.893390">
        <ele>194.508</ele>
        <time>2020-10-17T10:39:37Z</time>
      </trkpt>
      <trkpt lat="42.290433" lon="2.893316">
        <ele>194.539</ele>
        <time>2020-10-17T10:39:38Z</time>
      </trkpt>
      <trkpt lat="42.290471" lon="2.893210">
        <ele>194.462</ele>
        <time>2020-10-17T10:39:40Z</time>
      </trkpt>
      <trkpt lat="42.290514" lon="2.893114">
        <ele>193.671</ele>
        <time>2020-10-17T10:39:42Z</time>
      </trkpt>
      <trkpt lat="42.290535" lon="2.893022">
        <ele>192.484</ele>
        <time>2020-10-17T10:39:44Z</time>
      </trkpt>
      <trkpt lat="42.290528" lon="2.892950">
        <ele>190.086</ele>
        <time>2020-10-17T10:39:48Z</time>
      </trkpt>
      <trkpt lat="42.290530" lon="2.892856">
        <ele>188.382</ele>
        <time>2020-10-17T10:39:51Z</time>
      </trkpt>
      <trkpt lat="42.290555" lon="2.892742">
        <ele>187.681</ele>
        <time>2020-10-17T10:39:53Z</time>
      </trkpt>
      <trkpt lat="42.290565" lon="2.892670">
        <ele>187.412</ele>
        <time>2020-10-17T10:39:54Z</time>
      </trkpt>
      <trkpt lat="42.290564" lon="2.892533">
        <ele>187.418</ele>
        <time>2020-10-17T10:39:56Z</time>
      </trkpt>
      <trkpt lat="42.290558" lon="2.892377">
        <ele>187.198</ele>
        <time>2020-10-17T10:39:58Z</time>
      </trkpt>
      <trkpt lat="42.290552" lon="2.892211">
        <ele>186.417</ele>
        <time>2020-10-17T10:40:00Z</time>
      </trkpt>
      <trkpt lat="42.290556" lon="2.892030">
        <ele>184.708</ele>
        <time>2020-10-17T10:40:02Z</time>
      </trkpt>
      <trkpt lat="42.290551" lon="2.891905">
        <ele>183.686</ele>
        <time>2020-10-17T10:40:04Z</time>
      </trkpt>
      <trkpt lat="42.290531" lon="2.891804">
        <ele>183.559</ele>
        <time>2020-10-17T10:40:06Z</time>
      </trkpt>
      <trkpt lat="42.290506" lon="2.891751">
        <ele>183.558</ele>
        <time>2020-10-17T10:40:09Z</time>
      </trkpt>
      <trkpt lat="42.290470" lon="2.891702">
        <ele>183.591</ele>
        <time>2020-10-17T10:40:14Z</time>
      </trkpt>
      <trkpt lat="42.290441" lon="2.891640">
        <ele>183.213</ele>
        <time>2020-10-17T10:40:17Z</time>
      </trkpt>
      <trkpt lat="42.290420" lon="2.891585">
        <ele>181.849</ele>
        <time>2020-10-17T10:40:19Z</time>
      </trkpt>
      <trkpt lat="42.290397" lon="2.891521">
        <ele>181.158</ele>
        <time>2020-10-17T10:40:21Z</time>
      </trkpt>
      <trkpt lat="42.290367" lon="2.891462">
        <ele>181.369</ele>
        <time>2020-10-17T10:40:23Z</time>
      </trkpt>
      <trkpt lat="42.290334" lon="2.891388">
        <ele>181.566</ele>
        <time>2020-10-17T10:40:25Z</time>
      </trkpt>
      <trkpt lat="42.290258" lon="2.891310">
        <ele>186.529</ele>
        <time>2020-10-17T10:40:39Z</time>
      </trkpt>
      <trkpt lat="42.290205" lon="2.891259">
        <ele>187.621</ele>
        <time>2020-10-17T10:40:41Z</time>
      </trkpt>
      <trkpt lat="42.290145" lon="2.891179">
        <ele>188.108</ele>
        <time>2020-10-17T10:40:43Z</time>
      </trkpt>
      <trkpt lat="42.290116" lon="2.891131">
        <ele>188.161</ele>
        <time>2020-10-17T10:40:44Z</time>
      </trkpt>
      <trkpt lat="42.290068" lon="2.891020">
        <ele>187.664</ele>
        <time>2020-10-17T10:40:46Z</time>
      </trkpt>
      <trkpt lat="42.290052" lon="2.890950">
        <ele>187.333</ele>
        <time>2020-10-17T10:40:47Z</time>
      </trkpt>
      <trkpt lat="42.290027" lon="2.890751">
        <ele>186.926</ele>
        <time>2020-10-17T10:40:49Z</time>
      </trkpt>
      <trkpt lat="42.290005" lon="2.890551">
        <ele>184.778</ele>
        <time>2020-10-17T10:40:51Z</time>
      </trkpt>
      <trkpt lat="42.289935" lon="2.890381">
        <ele>183.274</ele>
        <time>2020-10-17T10:40:53Z</time>
      </trkpt>
      <trkpt lat="42.289935" lon="2.890381">
        <ele>183.253</ele>
        <time>2020-10-17T10:40:53Z</time>
      </trkpt>
      <trkpt lat="42.289888" lon="2.890298">
        <ele>181.984</ele>
        <time>2020-10-17T10:40:54Z</time>
      </trkpt>
      <trkpt lat="42.289812" lon="2.890155">
        <ele>180.513</ele>
        <time>2020-10-17T10:40:56Z</time>
      </trkpt>
      <trkpt lat="42.289782" lon="2.890082">
        <ele>179.143</ele>
        <time>2020-10-17T10:40:57Z</time>
      </trkpt>
      <trkpt lat="42.289737" lon="2.889914">
        <ele>177.507</ele>
        <time>2020-10-17T10:40:59Z</time>
      </trkpt>
      <trkpt lat="42.289726" lon="2.889835">
        <ele>177.208</ele>
        <time>2020-10-17T10:41:00Z</time>
      </trkpt>
      <trkpt lat="42.289719" lon="2.889761">
        <ele>177.136</ele>
        <time>2020-10-17T10:41:01Z</time>
      </trkpt>
      <trkpt lat="42.289715" lon="2.889692">
        <ele>176.839</ele>
        <time>2020-10-17T10:41:02Z</time>
      </trkpt>
      <trkpt lat="42.289714" lon="2.889569">
        <ele>177.428</ele>
        <time>2020-10-17T10:41:04Z</time>
      </trkpt>
      <trkpt lat="42.289723" lon="2.889442">
        <ele>177.451</ele>
        <time>2020-10-17T10:41:08Z</time>
      </trkpt>
      <trkpt lat="42.289723" lon="2.889442">
        <ele>177.443</ele>
        <time>2020-10-17T10:41:08Z</time>
      </trkpt>
      <trkpt lat="42.289723" lon="2.889442">
        <ele>177.459</ele>
        <time>2020-10-17T10:41:08Z</time>
      </trkpt>
      <trkpt lat="42.289723" lon="2.889442">
        <ele>177.468</ele>
        <time>2020-10-17T10:41:08Z</time>
      </trkpt>
      <trkpt lat="42.289723" lon="2.889442">
        <ele>177.499</ele>
        <time>2020-10-17T10:41:08Z</time>
      </trkpt>
      <trkpt lat="42.289723" lon="2.889442">
        <ele>177.411</ele>
        <time>2020-10-17T10:41:08Z</time>
      </trkpt>
      <trkpt lat="42.289723" lon="2.889442">
        <ele>177.421</ele>
        <time>2020-10-17T10:41:08Z</time>
      </trkpt>
      <trkpt lat="42.289708" lon="2.889379">
        <ele>176.403</ele>
        <time>2020-10-17T10:41:10Z</time>
      </trkpt>
      <trkpt lat="42.289692" lon="2.889219">
        <ele>175.608</ele>
        <time>2020-10-17T10:41:12Z</time>
      </trkpt>
      <trkpt lat="42.289703" lon="2.889139">
        <ele>174.666</ele>
        <time>2020-10-17T10:41:13Z</time>
      </trkpt>
      <trkpt lat="42.289729" lon="2.889065">
        <ele>174.169</ele>
        <time>2020-10-17T10:41:15Z</time>
      </trkpt>
      <trkpt lat="42.289793" lon="2.889064">
        <ele>173.128</ele>
        <time>2020-10-17T10:41:17Z</time>
      </trkpt>
      <trkpt lat="42.289918" lon="2.889019">
        <ele>172.011</ele>
        <time>2020-10-17T10:41:19Z</time>
      </trkpt>
      <trkpt lat="42.290055" lon="2.888915">
        <ele>173.113</ele>
        <time>2020-10-17T10:41:21Z</time>
      </trkpt>
      <trkpt lat="42.290123" lon="2.888852">
        <ele>173.259</ele>
        <time>2020-10-17T10:41:22Z</time>
      </trkpt>
      <trkpt lat="42.290262" lon="2.888723">
        <ele>173.118</ele>
        <time>2020-10-17T10:41:24Z</time>
      </trkpt>
      <trkpt lat="42.290386" lon="2.888627">
        <ele>171.849</ele>
        <time>2020-10-17T10:41:26Z</time>
      </trkpt>
      <trkpt lat="42.290442" lon="2.888581">
        <ele>171.046</ele>
        <time>2020-10-17T10:41:27Z</time>
      </trkpt>
      <trkpt lat="42.290568" lon="2.888508">
        <ele>172.388</ele>
        <time>2020-10-17T10:41:29Z</time>
      </trkpt>
      <trkpt lat="42.290633" lon="2.888464">
        <ele>172.816</ele>
        <time>2020-10-17T10:41:30Z</time>
      </trkpt>
      <trkpt lat="42.290755" lon="2.888331">
        <ele>173.508</ele>
        <time>2020-10-17T10:41:32Z</time>
      </trkpt>
      <trkpt lat="42.290843" lon="2.888205">
        <ele>174.519</ele>
        <time>2020-10-17T10:41:34Z</time>
      </trkpt>
      <trkpt lat="42.290918" lon="2.888050">
        <ele>174.512</ele>
        <time>2020-10-17T10:41:36Z</time>
      </trkpt>
      <trkpt lat="42.290960" lon="2.887964">
        <ele>175.051</ele>
        <time>2020-10-17T10:41:37Z</time>
      </trkpt>
      <trkpt lat="42.291040" lon="2.887800">
        <ele>175.274</ele>
        <time>2020-10-17T10:41:39Z</time>
      </trkpt>
      <trkpt lat="42.291145" lon="2.887604">
        <ele>175.096</ele>
        <time>2020-10-17T10:41:41Z</time>
      </trkpt>
      <trkpt lat="42.291197" lon="2.887499">
        <ele>175.242</ele>
        <time>2020-10-17T10:41:42Z</time>
      </trkpt>
      <trkpt lat="42.291303" lon="2.887323">
        <ele>175.931</ele>
        <time>2020-10-17T10:41:44Z</time>
      </trkpt>
      <trkpt lat="42.291421" lon="2.887198">
        <ele>175.642</ele>
        <time>2020-10-17T10:41:46Z</time>
      </trkpt>
      <trkpt lat="42.291477" lon="2.887130">
        <ele>175.025</ele>
        <time>2020-10-17T10:41:47Z</time>
      </trkpt>
      <trkpt lat="42.291539" lon="2.887016">
        <ele>174.226</ele>
        <time>2020-10-17T10:41:49Z</time>
      </trkpt>
      <trkpt lat="42.291561" lon="2.886950">
        <ele>173.308</ele>
        <time>2020-10-17T10:41:52Z</time>
      </trkpt>
      <trkpt lat="42.291614" lon="2.886881">
        <ele>174.108</ele>
        <time>2020-10-17T10:41:56Z</time>
      </trkpt>
      <trkpt lat="42.291663" lon="2.886826">
        <ele>174.987</ele>
        <time>2020-10-17T10:41:57Z</time>
      </trkpt>
      <trkpt lat="42.291734" lon="2.886723">
        <ele>175.280</ele>
        <time>2020-10-17T10:41:59Z</time>
      </trkpt>
      <trkpt lat="42.291785" lon="2.886628">
        <ele>175.319</ele>
        <time>2020-10-17T10:42:01Z</time>
      </trkpt>
      <trkpt lat="42.291823" lon="2.886577">
        <ele>175.152</ele>
        <time>2020-10-17T10:42:02Z</time>
      </trkpt>
      <trkpt lat="42.291860" lon="2.886528">
        <ele>175.224</ele>
        <time>2020-10-17T10:42:03Z</time>
      </trkpt>
      <trkpt lat="42.291936" lon="2.886447">
        <ele>175.520</ele>
        <time>2020-10-17T10:42:05Z</time>
      </trkpt>
      <trkpt lat="42.291998" lon="2.886432">
        <ele>175.489</ele>
        <time>2020-10-17T10:42:07Z</time>
      </trkpt>
      <trkpt lat="42.292042" lon="2.886545">
        <ele>174.960</ele>
        <time>2020-10-17T10:42:09Z</time>
      </trkpt>
      <trkpt lat="42.292115" lon="2.886740">
        <ele>173.552</ele>
        <time>2020-10-17T10:42:11Z</time>
      </trkpt>
      <trkpt lat="42.292232" lon="2.886957">
        <ele>172.153</ele>
        <time>2020-10-17T10:42:13Z</time>
      </trkpt>
      <trkpt lat="42.292360" lon="2.887164">
        <ele>171.508</ele>
        <time>2020-10-17T10:42:15Z</time>
      </trkpt>
      <trkpt lat="42.292505" lon="2.887407">
        <ele>170.708</ele>
        <time>2020-10-17T10:42:17Z</time>
      </trkpt>
      <trkpt lat="42.292599" lon="2.887660">
        <ele>171.240</ele>
        <time>2020-10-17T10:42:19Z</time>
      </trkpt>
      <trkpt lat="42.292619" lon="2.887800">
        <ele>171.033</ele>
        <time>2020-10-17T10:42:20Z</time>
      </trkpt>
      <trkpt lat="42.292611" lon="2.888093">
        <ele>170.712</ele>
        <time>2020-10-17T10:42:22Z</time>
      </trkpt>
      <trkpt lat="42.292556" lon="2.888398">
        <ele>169.595</ele>
        <time>2020-10-17T10:42:24Z</time>
      </trkpt>
      <trkpt lat="42.292531" lon="2.888574">
        <ele>169.437</ele>
        <time>2020-10-17T10:42:25Z</time>
      </trkpt>
      <trkpt lat="42.292517" lon="2.888752">
        <ele>169.653</ele>
        <time>2020-10-17T10:42:26Z</time>
      </trkpt>
      <trkpt lat="42.292573" lon="2.889088">
        <ele>170.032</ele>
        <time>2020-10-17T10:42:28Z</time>
      </trkpt>
      <trkpt lat="42.292616" lon="2.889256">
        <ele>170.813</ele>
        <time>2020-10-17T10:42:29Z</time>
      </trkpt>
      <trkpt lat="42.292660" lon="2.889420">
        <ele>171.975</ele>
        <time>2020-10-17T10:42:30Z</time>
      </trkpt>
      <trkpt lat="42.292737" lon="2.889682">
        <ele>172.628</ele>
        <time>2020-10-17T10:42:32Z</time>
      </trkpt>
      <trkpt lat="42.292835" lon="2.889911">
        <ele>173.620</ele>
        <time>2020-10-17T10:42:34Z</time>
      </trkpt>
      <trkpt lat="42.292900" lon="2.890021">
        <ele>175.308</ele>
        <time>2020-10-17T10:42:35Z</time>
      </trkpt>
      <trkpt lat="42.293041" lon="2.890227">
        <ele>176.872</ele>
        <time>2020-10-17T10:42:37Z</time>
      </trkpt>
      <trkpt lat="42.293109" lon="2.890326">
        <ele>177.655</ele>
        <time>2020-10-17T10:42:38Z</time>
      </trkpt>
      <trkpt lat="42.293236" lon="2.890496">
        <ele>178.264</ele>
        <time>2020-10-17T10:42:40Z</time>
      </trkpt>
      <trkpt lat="42.293303" lon="2.890577">
        <ele>179.177</ele>
        <time>2020-10-17T10:42:41Z</time>
      </trkpt>
      <trkpt lat="42.293368" lon="2.890670">
        <ele>179.699</ele>
        <time>2020-10-17T10:42:42Z</time>
      </trkpt>
      <trkpt lat="42.293487" lon="2.890841">
        <ele>179.075</ele>
        <time>2020-10-17T10:42:44Z</time>
      </trkpt>
      <trkpt lat="42.293547" lon="2.890928">
        <ele>179.394</ele>
        <time>2020-10-17T10:42:45Z</time>
      </trkpt>
      <trkpt lat="42.293662" lon="2.891094">
        <ele>179.555</ele>
        <time>2020-10-17T10:42:47Z</time>
      </trkpt>
      <trkpt lat="42.293715" lon="2.891154">
        <ele>179.429</ele>
        <time>2020-10-17T10:42:48Z</time>
      </trkpt>
      <trkpt lat="42.293795" lon="2.891279">
        <ele>180.800</ele>
        <time>2020-10-17T10:42:50Z</time>
      </trkpt>
      <trkpt lat="42.293821" lon="2.891464">
        <ele>182.620</ele>
        <time>2020-10-17T10:42:52Z</time>
      </trkpt>
      <trkpt lat="42.293831" lon="2.891552">
        <ele>184.308</ele>
        <time>2020-10-17T10:42:53Z</time>
      </trkpt>
      <trkpt lat="42.293843" lon="2.891732">
        <ele>185.227</ele>
        <time>2020-10-17T10:42:55Z</time>
      </trkpt>
      <trkpt lat="42.293856" lon="2.891838">
        <ele>185.730</ele>
        <time>2020-10-17T10:42:56Z</time>
      </trkpt>
      <trkpt lat="42.293882" lon="2.891944">
        <ele>186.939</ele>
        <time>2020-10-17T10:42:57Z</time>
      </trkpt>
      <trkpt lat="42.293954" lon="2.892195">
        <ele>187.542</ele>
        <time>2020-10-17T10:42:59Z</time>
      </trkpt>
      <trkpt lat="42.294003" lon="2.892332">
        <ele>188.794</ele>
        <time>2020-10-17T10:43:00Z</time>
      </trkpt>
      <trkpt lat="42.294051" lon="2.892470">
        <ele>190.060</ele>
        <time>2020-10-17T10:43:01Z</time>
      </trkpt>
      <trkpt lat="42.294142" lon="2.892726">
        <ele>190.899</ele>
        <time>2020-10-17T10:43:03Z</time>
      </trkpt>
      <trkpt lat="42.294218" lon="2.892934">
        <ele>191.170</ele>
        <time>2020-10-17T10:43:05Z</time>
      </trkpt>
      <trkpt lat="42.294243" lon="2.892993">
        <ele>191.779</ele>
        <time>2020-10-17T10:43:06Z</time>
      </trkpt>
      <trkpt lat="42.294204" lon="2.892961">
        <ele>194.605</ele>
        <time>2020-10-17T10:43:16Z</time>
      </trkpt>
      <trkpt lat="42.294384" lon="2.892904">
        <ele>199.525</ele>
        <time>2020-10-17T10:43:32Z</time>
      </trkpt>
      <trkpt lat="42.294474" lon="2.892889">
        <ele>200.308</ele>
        <time>2020-10-17T10:43:33Z</time>
      </trkpt>
      <trkpt lat="42.294707" lon="2.892837">
        <ele>200.572</ele>
        <time>2020-10-17T10:43:35Z</time>
      </trkpt>
      <trkpt lat="42.294838" lon="2.892807">
        <ele>200.165</ele>
        <time>2020-10-17T10:43:36Z</time>
      </trkpt>
      <trkpt lat="42.294962" lon="2.892778">
        <ele>200.014</ele>
        <time>2020-10-17T10:43:37Z</time>
      </trkpt>
      <trkpt lat="42.295200" lon="2.892715">
        <ele>200.217</ele>
        <time>2020-10-17T10:43:39Z</time>
      </trkpt>
      <trkpt lat="42.295417" lon="2.892647">
        <ele>200.789</ele>
        <time>2020-10-17T10:43:41Z</time>
      </trkpt>
      <trkpt lat="42.295628" lon="2.892620">
        <ele>202.385</ele>
        <time>2020-10-17T10:43:43Z</time>
      </trkpt>
      <trkpt lat="42.295733" lon="2.892604">
        <ele>203.084</ele>
        <time>2020-10-17T10:43:44Z</time>
      </trkpt>
      <trkpt lat="42.295814" lon="2.892585">
        <ele>203.595</ele>
        <time>2020-10-17T10:43:45Z</time>
      </trkpt>
      <trkpt lat="42.295894" lon="2.892528">
        <ele>203.747</ele>
        <time>2020-10-17T10:43:47Z</time>
      </trkpt>
      <trkpt lat="42.295902" lon="2.892409">
        <ele>204.429</ele>
        <time>2020-10-17T10:43:49Z</time>
      </trkpt>
      <trkpt lat="42.295840" lon="2.892252">
        <ele>205.021</ele>
        <time>2020-10-17T10:43:51Z</time>
      </trkpt>
      <trkpt lat="42.295819" lon="2.892093">
        <ele>206.208</ele>
        <time>2020-10-17T10:43:53Z</time>
      </trkpt>
      <trkpt lat="42.295868" lon="2.891973">
        <ele>206.939</ele>
        <time>2020-10-17T10:43:55Z</time>
      </trkpt>
      <trkpt lat="42.295984" lon="2.891924">
        <ele>207.892</ele>
        <time>2020-10-17T10:43:57Z</time>
      </trkpt>
      <trkpt lat="42.296052" lon="2.891927">
        <ele>208.591</ele>
        <time>2020-10-17T10:43:58Z</time>
      </trkpt>
      <trkpt lat="42.296189" lon="2.891931">
        <ele>209.394</ele>
        <time>2020-10-17T10:44:00Z</time>
      </trkpt>
      <trkpt lat="42.296255" lon="2.891924">
        <ele>209.716</ele>
        <time>2020-10-17T10:44:01Z</time>
      </trkpt>
      <trkpt lat="42.296315" lon="2.891908">
        <ele>209.952</ele>
        <time>2020-10-17T10:44:02Z</time>
      </trkpt>
      <trkpt lat="42.296391" lon="2.891826">
        <ele>209.971</ele>
        <time>2020-10-17T10:44:04Z</time>
      </trkpt>
      <trkpt lat="42.296402" lon="2.891757">
        <ele>210.122</ele>
        <time>2020-10-17T10:44:05Z</time>
      </trkpt>
      <trkpt lat="42.296398" lon="2.891685">
        <ele>210.238</ele>
        <time>2020-10-17T10:44:06Z</time>
      </trkpt>
      <trkpt lat="42.296378" lon="2.891553">
        <ele>210.670</ele>
        <time>2020-10-17T10:44:08Z</time>
      </trkpt>
      <trkpt lat="42.296366" lon="2.891491">
        <ele>211.417</ele>
        <time>2020-10-17T10:44:09Z</time>
      </trkpt>
      <trkpt lat="42.296366" lon="2.891491">
        <ele>211.408</ele>
        <time>2020-10-17T10:44:09Z</time>
      </trkpt>
      <trkpt lat="42.296343" lon="2.891367">
        <ele>211.248</ele>
        <time>2020-10-17T10:44:11Z</time>
      </trkpt>
      <trkpt lat="42.296321" lon="2.891266">
        <ele>210.941</ele>
        <time>2020-10-17T10:44:13Z</time>
      </trkpt>
      <trkpt lat="42.296307" lon="2.891181">
        <ele>211.010</ele>
        <time>2020-10-17T10:44:15Z</time>
      </trkpt>
      <trkpt lat="42.296293" lon="2.891111">
        <ele>210.913</ele>
        <time>2020-10-17T10:44:17Z</time>
      </trkpt>
      <trkpt lat="42.296280" lon="2.891028">
        <ele>210.385</ele>
        <time>2020-10-17T10:44:21Z</time>
      </trkpt>
      <trkpt lat="42.296276" lon="2.890955">
        <ele>209.771</ele>
        <time>2020-10-17T10:44:23Z</time>
      </trkpt>
      <trkpt lat="42.296272" lon="2.890876">
        <ele>209.830</ele>
        <time>2020-10-17T10:44:25Z</time>
      </trkpt>
      <trkpt lat="42.296261" lon="2.890804">
        <ele>210.031</ele>
        <time>2020-10-17T10:44:27Z</time>
      </trkpt>
      <trkpt lat="42.296249" lon="2.890733">
        <ele>210.622</ele>
        <time>2020-10-17T10:44:29Z</time>
      </trkpt>
      <trkpt lat="42.296235" lon="2.890644">
        <ele>210.962</ele>
        <time>2020-10-17T10:44:31Z</time>
      </trkpt>
      <trkpt lat="42.296217" lon="2.890551">
        <ele>211.108</ele>
        <time>2020-10-17T10:44:33Z</time>
      </trkpt>
      <trkpt lat="42.296200" lon="2.890459">
        <ele>211.408</ele>
        <time>2020-10-17T10:44:35Z</time>
      </trkpt>
      <trkpt lat="42.296189" lon="2.890389">
        <ele>211.897</ele>
        <time>2020-10-17T10:44:36Z</time>
      </trkpt>
      <trkpt lat="42.296166" lon="2.890258">
        <ele>212.020</ele>
        <time>2020-10-17T10:44:38Z</time>
      </trkpt>
      <trkpt lat="42.296145" lon="2.890151">
        <ele>211.619</ele>
        <time>2020-10-17T10:44:40Z</time>
      </trkpt>
      <trkpt lat="42.296127" lon="2.890055">
        <ele>211.672</ele>
        <time>2020-10-17T10:44:42Z</time>
      </trkpt>
      <trkpt lat="42.296105" lon="2.889946">
        <ele>211.874</ele>
        <time>2020-10-17T10:44:44Z</time>
      </trkpt>
      <trkpt lat="42.296089" lon="2.889866">
        <ele>212.180</ele>
        <time>2020-10-17T10:44:46Z</time>
      </trkpt>
      <trkpt lat="42.296086" lon="2.889789">
        <ele>212.049</ele>
        <time>2020-10-17T10:44:48Z</time>
      </trkpt>
      <trkpt lat="42.296072" lon="2.889703">
        <ele>212.160</ele>
        <time>2020-10-17T10:44:51Z</time>
      </trkpt>
      <trkpt lat="42.296061" lon="2.889620">
        <ele>211.626</ele>
        <time>2020-10-17T10:44:53Z</time>
      </trkpt>
      <trkpt lat="42.296079" lon="2.889525">
        <ele>210.947</ele>
        <time>2020-10-17T10:44:55Z</time>
      </trkpt>
      <trkpt lat="42.296127" lon="2.889470">
        <ele>210.211</ele>
        <time>2020-10-17T10:44:57Z</time>
      </trkpt>
      <trkpt lat="42.296189" lon="2.889437">
        <ele>209.908</ele>
        <time>2020-10-17T10:44:59Z</time>
      </trkpt>
      <trkpt lat="42.296279" lon="2.889395">
        <ele>208.837</ele>
        <time>2020-10-17T10:45:01Z</time>
      </trkpt>
      <trkpt lat="42.296365" lon="2.889362">
        <ele>207.830</ele>
        <time>2020-10-17T10:45:03Z</time>
      </trkpt>
      <trkpt lat="42.296413" lon="2.889341">
        <ele>207.519</ele>
        <time>2020-10-17T10:45:04Z</time>
      </trkpt>
      <trkpt lat="42.296464" lon="2.889318">
        <ele>207.912</ele>
        <time>2020-10-17T10:45:05Z</time>
      </trkpt>
      <trkpt lat="42.296521" lon="2.889305">
        <ele>207.734</ele>
        <time>2020-10-17T10:45:07Z</time>
      </trkpt>
      <trkpt lat="42.296572" lon="2.889264">
        <ele>207.760</ele>
        <time>2020-10-17T10:45:11Z</time>
      </trkpt>
      <trkpt lat="42.296681" lon="2.889093">
        <ele>209.569</ele>
        <time>2020-10-17T10:45:13Z</time>
      </trkpt>
      <trkpt lat="42.296722" lon="2.889008">
        <ele>210.780</ele>
        <time>2020-10-17T10:45:14Z</time>
      </trkpt>
      <trkpt lat="42.296749" lon="2.888932">
        <ele>211.739</ele>
        <time>2020-10-17T10:45:15Z</time>
      </trkpt>
      <trkpt lat="42.296792" lon="2.888825">
        <ele>211.901</ele>
        <time>2020-10-17T10:45:17Z</time>
      </trkpt>
      <trkpt lat="42.296877" lon="2.888709">
        <ele>212.321</ele>
        <time>2020-10-17T10:45:19Z</time>
      </trkpt>
      <trkpt lat="42.296916" lon="2.888667">
        <ele>212.608</ele>
        <time>2020-10-17T10:45:20Z</time>
      </trkpt>
      <trkpt lat="42.296950" lon="2.888626">
        <ele>213.128</ele>
        <time>2020-10-17T10:45:23Z</time>
      </trkpt>
      <trkpt lat="42.296991" lon="2.888562">
        <ele>212.961</ele>
        <time>2020-10-17T10:45:25Z</time>
      </trkpt>
      <trkpt lat="42.297054" lon="2.888488">
        <ele>214.180</ele>
        <time>2020-10-17T10:45:26Z</time>
      </trkpt>
      <trkpt lat="42.297124" lon="2.888414">
        <ele>214.783</ele>
        <time>2020-10-17T10:45:27Z</time>
      </trkpt>
      <trkpt lat="42.297195" lon="2.888334">
        <ele>215.095</ele>
        <time>2020-10-17T10:45:28Z</time>
      </trkpt>
      <trkpt lat="42.297256" lon="2.888248">
        <ele>215.681</ele>
        <time>2020-10-17T10:45:29Z</time>
      </trkpt>
      <trkpt lat="42.297337" lon="2.888093">
        <ele>215.990</ele>
        <time>2020-10-17T10:45:31Z</time>
      </trkpt>
      <trkpt lat="42.297371" lon="2.888018">
        <ele>215.831</ele>
        <time>2020-10-17T10:45:32Z</time>
      </trkpt>
      <trkpt lat="42.297413" lon="2.887935">
        <ele>216.088</ele>
        <time>2020-10-17T10:45:33Z</time>
      </trkpt>
      <trkpt lat="42.297472" lon="2.887799">
        <ele>216.324</ele>
        <time>2020-10-17T10:45:35Z</time>
      </trkpt>
      <trkpt lat="42.297449" lon="2.887692">
        <ele>216.226</ele>
        <time>2020-10-17T10:45:37Z</time>
      </trkpt>
      <trkpt lat="42.297398" lon="2.887608">
        <ele>216.308</ele>
        <time>2020-10-17T10:45:39Z</time>
      </trkpt>
      <trkpt lat="42.297415" lon="2.887525">
        <ele>215.563</ele>
        <time>2020-10-17T10:45:41Z</time>
      </trkpt>
      <trkpt lat="42.297465" lon="2.887424">
        <ele>214.276</ele>
        <time>2020-10-17T10:45:43Z</time>
      </trkpt>
      <trkpt lat="42.297502" lon="2.887360">
        <ele>213.585</ele>
        <time>2020-10-17T10:45:44Z</time>
      </trkpt>
      <trkpt lat="42.297538" lon="2.887292">
        <ele>213.018</ele>
        <time>2020-10-17T10:45:45Z</time>
      </trkpt>
      <trkpt lat="42.297584" lon="2.887213">
        <ele>212.720</ele>
        <time>2020-10-17T10:45:47Z</time>
      </trkpt>
      <trkpt lat="42.297603" lon="2.887151">
        <ele>212.396</ele>
        <time>2020-10-17T10:45:50Z</time>
      </trkpt>
      <trkpt lat="42.297626" lon="2.887047">
        <ele>211.755</ele>
        <time>2020-10-17T10:45:52Z</time>
      </trkpt>
      <trkpt lat="42.297656" lon="2.886948">
        <ele>211.426</ele>
        <time>2020-10-17T10:45:53Z</time>
      </trkpt>
      <trkpt lat="42.297728" lon="2.886756">
        <ele>210.922</ele>
        <time>2020-10-17T10:45:55Z</time>
      </trkpt>
      <trkpt lat="42.297770" lon="2.886665">
        <ele>210.162</ele>
        <time>2020-10-17T10:45:56Z</time>
      </trkpt>
      <trkpt lat="42.297820" lon="2.886508">
        <ele>209.608</ele>
        <time>2020-10-17T10:45:58Z</time>
      </trkpt>
      <trkpt lat="42.297816" lon="2.886386">
        <ele>208.908</ele>
        <time>2020-10-17T10:46:00Z</time>
      </trkpt>
      <trkpt lat="42.297760" lon="2.886319">
        <ele>208.847</ele>
        <time>2020-10-17T10:46:02Z</time>
      </trkpt>
      <trkpt lat="42.297692" lon="2.886261">
        <ele>208.320</ele>
        <time>2020-10-17T10:46:04Z</time>
      </trkpt>
      <trkpt lat="42.297654" lon="2.886223">
        <ele>207.949</ele>
        <time>2020-10-17T10:46:05Z</time>
      </trkpt>
      <trkpt lat="42.297606" lon="2.886178">
        <ele>207.642</ele>
        <time>2020-10-17T10:46:06Z</time>
      </trkpt>
      <trkpt lat="42.297505" lon="2.886096">
        <ele>207.544</ele>
        <time>2020-10-17T10:46:08Z</time>
      </trkpt>
      <trkpt lat="42.297412" lon="2.886036">
        <ele>207.920</ele>
        <time>2020-10-17T10:46:10Z</time>
      </trkpt>
      <trkpt lat="42.297329" lon="2.886006">
        <ele>207.439</ele>
        <time>2020-10-17T10:46:12Z</time>
      </trkpt>
      <trkpt lat="42.297281" lon="2.885995">
        <ele>207.160</ele>
        <time>2020-10-17T10:46:13Z</time>
      </trkpt>
      <trkpt lat="42.297224" lon="2.885984">
        <ele>206.346</ele>
        <time>2020-10-17T10:46:15Z</time>
      </trkpt>
      <trkpt lat="42.297160" lon="2.885958">
        <ele>205.388</ele>
        <time>2020-10-17T10:46:18Z</time>
      </trkpt>
      <trkpt lat="42.297107" lon="2.885946">
        <ele>204.816</ele>
        <time>2020-10-17T10:46:20Z</time>
      </trkpt>
      <trkpt lat="42.297051" lon="2.885919">
        <ele>203.708</ele>
        <time>2020-10-17T10:46:22Z</time>
      </trkpt>
      <trkpt lat="42.297017" lon="2.885865">
        <ele>202.749</ele>
        <time>2020-10-17T10:46:28Z</time>
      </trkpt>
      <trkpt lat="42.296987" lon="2.885795">
        <ele>202.342</ele>
        <time>2020-10-17T10:46:32Z</time>
      </trkpt>
      <trkpt lat="42.296950" lon="2.885728">
        <ele>201.561</ele>
        <time>2020-10-17T10:46:35Z</time>
      </trkpt>
      <trkpt lat="42.296901" lon="2.885653">
        <ele>201.144</ele>
        <time>2020-10-17T10:46:37Z</time>
      </trkpt>
      <trkpt lat="42.296847" lon="2.885586">
        <ele>200.626</ele>
        <time>2020-10-17T10:46:38Z</time>
      </trkpt>
      <trkpt lat="42.296743" lon="2.885464">
        <ele>200.462</ele>
        <time>2020-10-17T10:46:40Z</time>
      </trkpt>
      <trkpt lat="42.296696" lon="2.885400">
        <ele>200.171</ele>
        <time>2020-10-17T10:46:41Z</time>
      </trkpt>
      <trkpt lat="42.296658" lon="2.885343">
        <ele>200.122</ele>
        <time>2020-10-17T10:46:42Z</time>
      </trkpt>
      <trkpt lat="42.296623" lon="2.885291">
        <ele>200.192</ele>
        <time>2020-10-17T10:46:43Z</time>
      </trkpt>
      <trkpt lat="42.296586" lon="2.885241">
        <ele>199.873</ele>
        <time>2020-10-17T10:46:44Z</time>
      </trkpt>
      <trkpt lat="42.296521" lon="2.885182">
        <ele>199.320</ele>
        <time>2020-10-17T10:46:46Z</time>
      </trkpt>
      <trkpt lat="42.296460" lon="2.885117">
        <ele>199.608</ele>
        <time>2020-10-17T10:46:48Z</time>
      </trkpt>
      <trkpt lat="42.296375" lon="2.885030">
        <ele>199.794</ele>
        <time>2020-10-17T10:46:50Z</time>
      </trkpt>
      <trkpt lat="42.296325" lon="2.884987">
        <ele>199.597</ele>
        <time>2020-10-17T10:46:51Z</time>
      </trkpt>
      <trkpt lat="42.296243" lon="2.884932">
        <ele>199.966</ele>
        <time>2020-10-17T10:46:53Z</time>
      </trkpt>
      <trkpt lat="42.296181" lon="2.884887">
        <ele>199.859</ele>
        <time>2020-10-17T10:46:55Z</time>
      </trkpt>
      <trkpt lat="42.296086" lon="2.884821">
        <ele>199.671</ele>
        <time>2020-10-17T10:46:57Z</time>
      </trkpt>
      <trkpt lat="42.295990" lon="2.884750">
        <ele>199.487</ele>
        <time>2020-10-17T10:46:59Z</time>
      </trkpt>
      <trkpt lat="42.295897" lon="2.884687">
        <ele>199.226</ele>
        <time>2020-10-17T10:47:01Z</time>
      </trkpt>
      <trkpt lat="42.295819" lon="2.884636">
        <ele>198.357</ele>
        <time>2020-10-17T10:47:03Z</time>
      </trkpt>
      <trkpt lat="42.295771" lon="2.884600">
        <ele>198.142</ele>
        <time>2020-10-17T10:47:04Z</time>
      </trkpt>
      <trkpt lat="42.295733" lon="2.884492">
        <ele>197.022</ele>
        <time>2020-10-17T10:47:06Z</time>
      </trkpt>
      <trkpt lat="42.295763" lon="2.884379">
        <ele>197.014</ele>
        <time>2020-10-17T10:47:08Z</time>
      </trkpt>
      <trkpt lat="42.295802" lon="2.884235">
        <ele>195.608</ele>
        <time>2020-10-17T10:47:10Z</time>
      </trkpt>
      <trkpt lat="42.295824" lon="2.884160">
        <ele>194.549</ele>
        <time>2020-10-17T10:47:11Z</time>
      </trkpt>
      <trkpt lat="42.295847" lon="2.884090">
        <ele>193.582</ele>
        <time>2020-10-17T10:47:12Z</time>
      </trkpt>
      <trkpt lat="42.295910" lon="2.883943">
        <ele>192.351</ele>
        <time>2020-10-17T10:47:14Z</time>
      </trkpt>
      <trkpt lat="42.295938" lon="2.883875">
        <ele>191.834</ele>
        <time>2020-10-17T10:47:15Z</time>
      </trkpt>
      <trkpt lat="42.295990" lon="2.883753">
        <ele>191.256</ele>
        <time>2020-10-17T10:47:17Z</time>
      </trkpt>
      <trkpt lat="42.296043" lon="2.883625">
        <ele>190.682</ele>
        <time>2020-10-17T10:47:19Z</time>
      </trkpt>
      <trkpt lat="42.296069" lon="2.883561">
        <ele>189.991</ele>
        <time>2020-10-17T10:47:20Z</time>
      </trkpt>
      <trkpt lat="42.296096" lon="2.883497">
        <ele>189.732</ele>
        <time>2020-10-17T10:47:21Z</time>
      </trkpt>
      <trkpt lat="42.296119" lon="2.883437">
        <ele>189.218</ele>
        <time>2020-10-17T10:47:22Z</time>
      </trkpt>
      <trkpt lat="42.296170" lon="2.883320">
        <ele>188.598</ele>
        <time>2020-10-17T10:47:24Z</time>
      </trkpt>
      <trkpt lat="42.296226" lon="2.883190">
        <ele>188.017</ele>
        <time>2020-10-17T10:47:26Z</time>
      </trkpt>
      <trkpt lat="42.296254" lon="2.883124">
        <ele>187.508</ele>
        <time>2020-10-17T10:47:27Z</time>
      </trkpt>
      <trkpt lat="42.296290" lon="2.883008">
        <ele>186.936</ele>
        <time>2020-10-17T10:47:29Z</time>
      </trkpt>
      <trkpt lat="42.296300" lon="2.882933">
        <ele>187.179</ele>
        <time>2020-10-17T10:47:31Z</time>
      </trkpt>
      <trkpt lat="42.296311" lon="2.882843">
        <ele>187.918</ele>
        <time>2020-10-17T10:47:33Z</time>
      </trkpt>
      <trkpt lat="42.296272" lon="2.882736">
        <ele>188.631</ele>
        <time>2020-10-17T10:47:35Z</time>
      </trkpt>
      <trkpt lat="42.296234" lon="2.882643">
        <ele>188.723</ele>
        <time>2020-10-17T10:47:37Z</time>
      </trkpt>
      <trkpt lat="42.296212" lon="2.882569">
        <ele>188.669</ele>
        <time>2020-10-17T10:47:39Z</time>
      </trkpt>
      <trkpt lat="42.296175" lon="2.882522">
        <ele>192.848</ele>
        <time>2020-10-17T10:48:44Z</time>
      </trkpt>
      <trkpt lat="42.296166" lon="2.882589">
        <ele>192.939</ele>
        <time>2020-10-17T10:48:59Z</time>
      </trkpt>
      <trkpt lat="42.296187" lon="2.882644">
        <ele>191.063</ele>
        <time>2020-10-17T10:49:13Z</time>
      </trkpt>
      <trkpt lat="42.296204" lon="2.882711">
        <ele>190.644</ele>
        <time>2020-10-17T10:49:17Z</time>
      </trkpt>
      <trkpt lat="42.296216" lon="2.882777">
        <ele>190.018</ele>
        <time>2020-10-17T10:49:22Z</time>
      </trkpt>
      <trkpt lat="42.296205" lon="2.882714">
        <ele>189.708</ele>
        <time>2020-10-17T10:50:13Z</time>
      </trkpt>
      <trkpt lat="42.296205" lon="2.882714">
        <ele>189.751</ele>
        <time>2020-10-17T10:50:13Z</time>
      </trkpt>
      <trkpt lat="42.296193" lon="2.882653">
        <ele>189.524</ele>
        <time>2020-10-17T10:50:17Z</time>
      </trkpt>
      <trkpt lat="42.296168" lon="2.882594">
        <ele>190.193</ele>
        <time>2020-10-17T10:50:21Z</time>
      </trkpt>
      <trkpt lat="42.296168" lon="2.882594">
        <ele>190.146</ele>
        <time>2020-10-17T10:50:21Z</time>
      </trkpt>
      <trkpt lat="42.296148" lon="2.882538">
        <ele>189.948</ele>
        <time>2020-10-17T10:50:24Z</time>
      </trkpt>
      <trkpt lat="42.296128" lon="2.882480">
        <ele>188.514</ele>
        <time>2020-10-17T10:50:29Z</time>
      </trkpt>
      <trkpt lat="42.296128" lon="2.882480">
        <ele>188.573</ele>
        <time>2020-10-17T10:50:29Z</time>
      </trkpt>
      <trkpt lat="42.296148" lon="2.882424">
        <ele>189.634</ele>
        <time>2020-10-17T10:50:48Z</time>
      </trkpt>
      <trkpt lat="42.296096" lon="2.882421">
        <ele>190.193</ele>
        <time>2020-10-17T10:50:56Z</time>
      </trkpt>
      <trkpt lat="42.296070" lon="2.882312">
        <ele>191.265</ele>
        <time>2020-10-17T10:51:14Z</time>
      </trkpt>
      <trkpt lat="42.296050" lon="2.882243">
        <ele>191.821</ele>
        <time>2020-10-17T10:51:17Z</time>
      </trkpt>
      <trkpt lat="42.296022" lon="2.882154">
        <ele>192.108</ele>
        <time>2020-10-17T10:51:19Z</time>
      </trkpt>
      <trkpt lat="42.295983" lon="2.882009">
        <ele>191.444</ele>
        <time>2020-10-17T10:51:22Z</time>
      </trkpt>
      <trkpt lat="42.295925" lon="2.881779">
        <ele>191.697</ele>
        <time>2020-10-17T10:51:24Z</time>
      </trkpt>
      <trkpt lat="42.295911" lon="2.881707">
        <ele>191.436</ele>
        <time>2020-10-17T10:51:25Z</time>
      </trkpt>
      <trkpt lat="42.295896" lon="2.881620">
        <ele>190.639</ele>
        <time>2020-10-17T10:51:27Z</time>
      </trkpt>
      <trkpt lat="42.295879" lon="2.881540">
        <ele>189.631</ele>
        <time>2020-10-17T10:51:28Z</time>
      </trkpt>
      <trkpt lat="42.295854" lon="2.881467">
        <ele>188.657</ele>
        <time>2020-10-17T10:51:30Z</time>
      </trkpt>
      <trkpt lat="42.295631" lon="2.880879">
        <ele>190.336</ele>
        <time>2020-10-17T10:51:49Z</time>
      </trkpt>
      <trkpt lat="42.295629" lon="2.880799">
        <ele>191.087</ele>
        <time>2020-10-17T10:51:53Z</time>
      </trkpt>
      <trkpt lat="42.295606" lon="2.880736">
        <ele>191.415</ele>
        <time>2020-10-17T10:51:56Z</time>
      </trkpt>
      <trkpt lat="42.295583" lon="2.880622">
        <ele>190.665</ele>
        <time>2020-10-17T10:52:01Z</time>
      </trkpt>
      <trkpt lat="42.295572" lon="2.880534">
        <ele>189.811</ele>
        <time>2020-10-17T10:52:03Z</time>
      </trkpt>
      <trkpt lat="42.295564" lon="2.880437">
        <ele>188.808</ele>
        <time>2020-10-17T10:52:04Z</time>
      </trkpt>
      <trkpt lat="42.295565" lon="2.880362">
        <ele>188.096</ele>
        <time>2020-10-17T10:52:05Z</time>
      </trkpt>
      <trkpt lat="42.295587" lon="2.880125">
        <ele>186.279</ele>
        <time>2020-10-17T10:52:08Z</time>
      </trkpt>
      <trkpt lat="42.295592" lon="2.880040">
        <ele>186.458</ele>
        <time>2020-10-17T10:52:10Z</time>
      </trkpt>
      <trkpt lat="42.295561" lon="2.879982">
        <ele>186.091</ele>
        <time>2020-10-17T10:52:13Z</time>
      </trkpt>
      <trkpt lat="42.295502" lon="2.879763">
        <ele>186.153</ele>
        <time>2020-10-17T10:52:18Z</time>
      </trkpt>
      <trkpt lat="42.295496" lon="2.879565">
        <ele>185.519</ele>
        <time>2020-10-17T10:52:20Z</time>
      </trkpt>
      <trkpt lat="42.295487" lon="2.879467">
        <ele>184.918</ele>
        <time>2020-10-17T10:52:21Z</time>
      </trkpt>
      <trkpt lat="42.295484" lon="2.879368">
        <ele>185.369</ele>
        <time>2020-10-17T10:52:22Z</time>
      </trkpt>
      <trkpt lat="42.295479" lon="2.879271">
        <ele>184.885</ele>
        <time>2020-10-17T10:52:23Z</time>
      </trkpt>
      <trkpt lat="42.295473" lon="2.879105">
        <ele>184.289</ele>
        <time>2020-10-17T10:52:25Z</time>
      </trkpt>
      <trkpt lat="42.295470" lon="2.878942">
        <ele>184.417</ele>
        <time>2020-10-17T10:52:27Z</time>
      </trkpt>
      <trkpt lat="42.295478" lon="2.878848">
        <ele>184.908</ele>
        <time>2020-10-17T10:52:28Z</time>
      </trkpt>
      <trkpt lat="42.295489" lon="2.878682">
        <ele>186.043</ele>
        <time>2020-10-17T10:52:30Z</time>
      </trkpt>
      <trkpt lat="42.295490" lon="2.878599">
        <ele>186.416</ele>
        <time>2020-10-17T10:52:31Z</time>
      </trkpt>
      <trkpt lat="42.295483" lon="2.878512">
        <ele>187.415</ele>
        <time>2020-10-17T10:52:32Z</time>
      </trkpt>
      <trkpt lat="42.295463" lon="2.878335">
        <ele>187.318</ele>
        <time>2020-10-17T10:52:34Z</time>
      </trkpt>
      <trkpt lat="42.295486" lon="2.878207">
        <ele>186.550</ele>
        <time>2020-10-17T10:52:36Z</time>
      </trkpt>
      <trkpt lat="42.295499" lon="2.878109">
        <ele>185.096</ele>
        <time>2020-10-17T10:52:38Z</time>
      </trkpt>
      <trkpt lat="42.295507" lon="2.878015">
        <ele>183.855</ele>
        <time>2020-10-17T10:52:40Z</time>
      </trkpt>
      <trkpt lat="42.295511" lon="2.877916">
        <ele>183.226</ele>
        <time>2020-10-17T10:52:42Z</time>
      </trkpt>
      <trkpt lat="42.295193" lon="2.877702">
        <ele>182.155</ele>
        <time>2020-10-17T10:53:05Z</time>
      </trkpt>
      <trkpt lat="42.295221" lon="2.877620">
        <ele>181.207</ele>
        <time>2020-10-17T10:55:32Z</time>
      </trkpt>
      <trkpt lat="42.295279" lon="2.877588">
        <ele>180.917</ele>
        <time>2020-10-17T10:55:34Z</time>
      </trkpt>
      <trkpt lat="42.295355" lon="2.877558">
        <ele>181.208</ele>
        <time>2020-10-17T10:55:36Z</time>
      </trkpt>
      <trkpt lat="42.295429" lon="2.877534">
        <ele>181.310</ele>
        <time>2020-10-17T10:55:38Z</time>
      </trkpt>
      <trkpt lat="42.295517" lon="2.877493">
        <ele>180.183</ele>
        <time>2020-10-17T10:55:40Z</time>
      </trkpt>
      <trkpt lat="42.295645" lon="2.877449">
        <ele>179.862</ele>
        <time>2020-10-17T10:55:42Z</time>
      </trkpt>
      <trkpt lat="42.295706" lon="2.877419">
        <ele>179.315</ele>
        <time>2020-10-17T10:55:43Z</time>
      </trkpt>
      <trkpt lat="42.295759" lon="2.877397">
        <ele>179.097</ele>
        <time>2020-10-17T10:55:44Z</time>
      </trkpt>
      <trkpt lat="42.295834" lon="2.877370">
        <ele>179.693</ele>
        <time>2020-10-17T10:55:46Z</time>
      </trkpt>
      <trkpt lat="42.295887" lon="2.877341">
        <ele>180.362</ele>
        <time>2020-10-17T10:55:48Z</time>
      </trkpt>
      <trkpt lat="42.295969" lon="2.877299">
        <ele>180.253</ele>
        <time>2020-10-17T10:55:50Z</time>
      </trkpt>
      <trkpt lat="42.296058" lon="2.877248">
        <ele>179.337</ele>
        <time>2020-10-17T10:55:52Z</time>
      </trkpt>
      <trkpt lat="42.296126" lon="2.877209">
        <ele>179.049</ele>
        <time>2020-10-17T10:55:54Z</time>
      </trkpt>
      <trkpt lat="42.296192" lon="2.877191">
        <ele>179.213</ele>
        <time>2020-10-17T10:55:56Z</time>
      </trkpt>
      <trkpt lat="42.296238" lon="2.877167">
        <ele>178.708</ele>
        <time>2020-10-17T10:55:58Z</time>
      </trkpt>
      <trkpt lat="42.296291" lon="2.877122">
        <ele>179.648</ele>
        <time>2020-10-17T10:56:00Z</time>
      </trkpt>
      <trkpt lat="42.296331" lon="2.877059">
        <ele>181.011</ele>
        <time>2020-10-17T10:56:02Z</time>
      </trkpt>
      <trkpt lat="42.296350" lon="2.876976">
        <ele>181.370</ele>
        <time>2020-10-17T10:56:04Z</time>
      </trkpt>
      <trkpt lat="42.296330" lon="2.876876">
        <ele>181.863</ele>
        <time>2020-10-17T10:56:06Z</time>
      </trkpt>
      <trkpt lat="42.296305" lon="2.876814">
        <ele>182.335</ele>
        <time>2020-10-17T10:56:08Z</time>
      </trkpt>
      <trkpt lat="42.296280" lon="2.876744">
        <ele>182.281</ele>
        <time>2020-10-17T10:56:12Z</time>
      </trkpt>
      <trkpt lat="42.296252" lon="2.876576">
        <ele>183.670</ele>
        <time>2020-10-17T10:56:14Z</time>
      </trkpt>
      <trkpt lat="42.296235" lon="2.876455">
        <ele>184.921</ele>
        <time>2020-10-17T10:56:15Z</time>
      </trkpt>
      <trkpt lat="42.296222" lon="2.876323">
        <ele>186.022</ele>
        <time>2020-10-17T10:56:16Z</time>
      </trkpt>
      <trkpt lat="42.296208" lon="2.876068">
        <ele>186.762</ele>
        <time>2020-10-17T10:56:18Z</time>
      </trkpt>
      <trkpt lat="42.296197" lon="2.875851">
        <ele>186.908</ele>
        <time>2020-10-17T10:56:20Z</time>
      </trkpt>
      <trkpt lat="42.296196" lon="2.875749">
        <ele>187.008</ele>
        <time>2020-10-17T10:56:21Z</time>
      </trkpt>
      <trkpt lat="42.296208" lon="2.875554">
        <ele>186.667</ele>
        <time>2020-10-17T10:56:23Z</time>
      </trkpt>
      <trkpt lat="42.296209" lon="2.875462">
        <ele>187.080</ele>
        <time>2020-10-17T10:56:24Z</time>
      </trkpt>
      <trkpt lat="42.296215" lon="2.875373">
        <ele>187.249</ele>
        <time>2020-10-17T10:56:25Z</time>
      </trkpt>
      <trkpt lat="42.296225" lon="2.875296">
        <ele>187.562</ele>
        <time>2020-10-17T10:56:26Z</time>
      </trkpt>
      <trkpt lat="42.296235" lon="2.875229">
        <ele>188.274</ele>
        <time>2020-10-17T10:56:28Z</time>
      </trkpt>
      <trkpt lat="42.296230" lon="2.875135">
        <ele>188.680</ele>
        <time>2020-10-17T10:56:32Z</time>
      </trkpt>
      <trkpt lat="42.296232" lon="2.874928">
        <ele>188.669</ele>
        <time>2020-10-17T10:56:34Z</time>
      </trkpt>
      <trkpt lat="42.296229" lon="2.874849">
        <ele>188.660</ele>
        <time>2020-10-17T10:56:35Z</time>
      </trkpt>
      <trkpt lat="42.296223" lon="2.874718">
        <ele>188.195</ele>
        <time>2020-10-17T10:56:37Z</time>
      </trkpt>
      <trkpt lat="42.296222" lon="2.874653">
        <ele>188.249</ele>
        <time>2020-10-17T10:56:38Z</time>
      </trkpt>
      <trkpt lat="42.296225" lon="2.874582">
        <ele>189.123</ele>
        <time>2020-10-17T10:56:39Z</time>
      </trkpt>
      <trkpt lat="42.296221" lon="2.874509">
        <ele>189.008</ele>
        <time>2020-10-17T10:56:40Z</time>
      </trkpt>
      <trkpt lat="42.296199" lon="2.874370">
        <ele>188.994</ele>
        <time>2020-10-17T10:56:42Z</time>
      </trkpt>
      <trkpt lat="42.296179" lon="2.874254">
        <ele>189.547</ele>
        <time>2020-10-17T10:56:44Z</time>
      </trkpt>
      <trkpt lat="42.296171" lon="2.874173">
        <ele>189.846</ele>
        <time>2020-10-17T10:56:46Z</time>
      </trkpt>
      <trkpt lat="42.296121" lon="2.874219">
        <ele>190.899</ele>
        <time>2020-10-17T10:56:49Z</time>
      </trkpt>
      <trkpt lat="42.296065" lon="2.874293">
        <ele>192.491</ele>
        <time>2020-10-17T10:56:52Z</time>
      </trkpt>
      <trkpt lat="42.296017" lon="2.874335">
        <ele>192.467</ele>
        <time>2020-10-17T10:56:53Z</time>
      </trkpt>
      <trkpt lat="42.295846" lon="2.874406">
        <ele>190.336</ele>
        <time>2020-10-17T10:56:55Z</time>
      </trkpt>
      <trkpt lat="42.295766" lon="2.874434">
        <ele>189.397</ele>
        <time>2020-10-17T10:56:56Z</time>
      </trkpt>
      <trkpt lat="42.295691" lon="2.874455">
        <ele>188.526</ele>
        <time>2020-10-17T10:56:57Z</time>
      </trkpt>
      <trkpt lat="42.295559" lon="2.874501">
        <ele>187.447</ele>
        <time>2020-10-17T10:56:59Z</time>
      </trkpt>
      <trkpt lat="42.295493" lon="2.874515">
        <ele>186.811</ele>
        <time>2020-10-17T10:57:00Z</time>
      </trkpt>
      <trkpt lat="42.295434" lon="2.874526">
        <ele>186.608</ele>
        <time>2020-10-17T10:57:01Z</time>
      </trkpt>
      <trkpt lat="42.295382" lon="2.874541">
        <ele>186.427</ele>
        <time>2020-10-17T10:57:02Z</time>
      </trkpt>
      <trkpt lat="42.295280" lon="2.874583">
        <ele>186.620</ele>
        <time>2020-10-17T10:57:04Z</time>
      </trkpt>
      <trkpt lat="42.295180" lon="2.874618">
        <ele>186.519</ele>
        <time>2020-10-17T10:57:06Z</time>
      </trkpt>
      <trkpt lat="42.295126" lon="2.874636">
        <ele>186.262</ele>
        <time>2020-10-17T10:57:07Z</time>
      </trkpt>
      <trkpt lat="42.295020" lon="2.874674">
        <ele>185.794</ele>
        <time>2020-10-17T10:57:09Z</time>
      </trkpt>
      <trkpt lat="42.294908" lon="2.874713">
        <ele>185.310</ele>
        <time>2020-10-17T10:57:11Z</time>
      </trkpt>
      <trkpt lat="42.294795" lon="2.874764">
        <ele>185.279</ele>
        <time>2020-10-17T10:57:13Z</time>
      </trkpt>
      <trkpt lat="42.294674" lon="2.874829">
        <ele>184.770</ele>
        <time>2020-10-17T10:57:15Z</time>
      </trkpt>
      <trkpt lat="42.294550" lon="2.874895">
        <ele>184.633</ele>
        <time>2020-10-17T10:57:17Z</time>
      </trkpt>
      <trkpt lat="42.294419" lon="2.874960">
        <ele>183.823</ele>
        <time>2020-10-17T10:57:19Z</time>
      </trkpt>
      <trkpt lat="42.294353" lon="2.874991">
        <ele>183.415</ele>
        <time>2020-10-17T10:57:20Z</time>
      </trkpt>
      <trkpt lat="42.294243" lon="2.875065">
        <ele>183.308</ele>
        <time>2020-10-17T10:57:22Z</time>
      </trkpt>
      <trkpt lat="42.294192" lon="2.875181">
        <ele>183.298</ele>
        <time>2020-10-17T10:57:24Z</time>
      </trkpt>
      <trkpt lat="42.294169" lon="2.875263">
        <ele>183.521</ele>
        <time>2020-10-17T10:57:26Z</time>
      </trkpt>
      <trkpt lat="42.294132" lon="2.875314">
        <ele>182.740</ele>
        <time>2020-10-17T10:57:29Z</time>
      </trkpt>
      <trkpt lat="42.294051" lon="2.875296">
        <ele>182.013</ele>
        <time>2020-10-17T10:57:34Z</time>
      </trkpt>
      <trkpt lat="42.293977" lon="2.875291">
        <ele>181.645</ele>
        <time>2020-10-17T10:57:36Z</time>
      </trkpt>
      <trkpt lat="42.293829" lon="2.875291">
        <ele>181.291</ele>
        <time>2020-10-17T10:57:38Z</time>
      </trkpt>
      <trkpt lat="42.293697" lon="2.875295">
        <ele>179.870</ele>
        <time>2020-10-17T10:57:40Z</time>
      </trkpt>
      <trkpt lat="42.293770" lon="2.875317">
        <ele>177.651</ele>
        <time>2020-10-17T10:57:47Z</time>
      </trkpt>
      <trkpt lat="42.293843" lon="2.875325">
        <ele>177.077</ele>
        <time>2020-10-17T10:57:49Z</time>
      </trkpt>
      <trkpt lat="42.293897" lon="2.875329">
        <ele>176.961</ele>
        <time>2020-10-17T10:57:51Z</time>
      </trkpt>
      <trkpt lat="42.293959" lon="2.875328">
        <ele>176.727</ele>
        <time>2020-10-17T10:57:53Z</time>
      </trkpt>
      <trkpt lat="42.294016" lon="2.875327">
        <ele>176.808</ele>
        <time>2020-10-17T10:57:55Z</time>
      </trkpt>
      <trkpt lat="42.294072" lon="2.875323">
        <ele>176.562</ele>
        <time>2020-10-17T10:57:57Z</time>
      </trkpt>
      <trkpt lat="42.294124" lon="2.875317">
        <ele>176.785</ele>
        <time>2020-10-17T10:57:59Z</time>
      </trkpt>
      <trkpt lat="42.294184" lon="2.875295">
        <ele>177.074</ele>
        <time>2020-10-17T10:58:02Z</time>
      </trkpt>
      <trkpt lat="42.294175" lon="2.875201">
        <ele>177.467</ele>
        <time>2020-10-17T10:58:19Z</time>
      </trkpt>
      <trkpt lat="42.294174" lon="2.875127">
        <ele>177.859</ele>
        <time>2020-10-17T10:58:21Z</time>
      </trkpt>
      <trkpt lat="42.294175" lon="2.875042">
        <ele>177.455</ele>
        <time>2020-10-17T10:58:23Z</time>
      </trkpt>
      <trkpt lat="42.294184" lon="2.874941">
        <ele>177.654</ele>
        <time>2020-10-17T10:58:25Z</time>
      </trkpt>
      <trkpt lat="42.294194" lon="2.874841">
        <ele>178.175</ele>
        <time>2020-10-17T10:58:27Z</time>
      </trkpt>
      <trkpt lat="42.294195" lon="2.874769">
        <ele>178.628</ele>
        <time>2020-10-17T10:58:30Z</time>
      </trkpt>
      <trkpt lat="42.294198" lon="2.874701">
        <ele>178.889</ele>
        <time>2020-10-17T10:58:34Z</time>
      </trkpt>
      <trkpt lat="42.294206" lon="2.874630">
        <ele>178.217</ele>
        <time>2020-10-17T10:58:36Z</time>
      </trkpt>
      <trkpt lat="42.294205" lon="2.874549">
        <ele>178.708</ele>
        <time>2020-10-17T10:58:39Z</time>
      </trkpt>
      <trkpt lat="42.294205" lon="2.874483">
        <ele>179.837</ele>
        <time>2020-10-17T10:58:41Z</time>
      </trkpt>
      <trkpt lat="42.294209" lon="2.874347">
        <ele>181.720</ele>
        <time>2020-10-17T10:58:43Z</time>
      </trkpt>
      <trkpt lat="42.294225" lon="2.874080">
        <ele>181.479</ele>
        <time>2020-10-17T10:58:45Z</time>
      </trkpt>
      <trkpt lat="42.294230" lon="2.873978">
        <ele>181.582</ele>
        <time>2020-10-17T10:58:46Z</time>
      </trkpt>
      <trkpt lat="42.294232" lon="2.873909">
        <ele>181.664</ele>
        <time>2020-10-17T10:58:47Z</time>
      </trkpt>
      <trkpt lat="42.294239" lon="2.873775">
        <ele>181.240</ele>
        <time>2020-10-17T10:58:49Z</time>
      </trkpt>
      <trkpt lat="42.294245" lon="2.873665">
        <ele>181.439</ele>
        <time>2020-10-17T10:58:51Z</time>
      </trkpt>
      <trkpt lat="42.294250" lon="2.873547">
        <ele>181.740</ele>
        <time>2020-10-17T10:58:53Z</time>
      </trkpt>
      <trkpt lat="42.294245" lon="2.873441">
        <ele>182.335</ele>
        <time>2020-10-17T10:58:55Z</time>
      </trkpt>
      <trkpt lat="42.294243" lon="2.873343">
        <ele>182.486</ele>
        <time>2020-10-17T10:58:57Z</time>
      </trkpt>
      <trkpt lat="42.294247" lon="2.873244">
        <ele>181.114</ele>
        <time>2020-10-17T10:58:59Z</time>
      </trkpt>
      <trkpt lat="42.294258" lon="2.873129">
        <ele>180.108</ele>
        <time>2020-10-17T10:59:01Z</time>
      </trkpt>
      <trkpt lat="42.294260" lon="2.873060">
        <ele>179.818</ele>
        <time>2020-10-17T10:59:04Z</time>
      </trkpt>
      <trkpt lat="42.294316" lon="2.873081">
        <ele>179.521</ele>
        <time>2020-10-17T10:59:10Z</time>
      </trkpt>
      <trkpt lat="42.294407" lon="2.873130">
        <ele>180.150</ele>
        <time>2020-10-17T10:59:12Z</time>
      </trkpt>
      <trkpt lat="42.294466" lon="2.873142">
        <ele>180.023</ele>
        <time>2020-10-17T10:59:13Z</time>
      </trkpt>
      <trkpt lat="42.294586" lon="2.873166">
        <ele>180.365</ele>
        <time>2020-10-17T10:59:15Z</time>
      </trkpt>
      <trkpt lat="42.294732" lon="2.873172">
        <ele>180.741</ele>
        <time>2020-10-17T10:59:17Z</time>
      </trkpt>
      <trkpt lat="42.294879" lon="2.873168">
        <ele>180.970</ele>
        <time>2020-10-17T10:59:19Z</time>
      </trkpt>
      <trkpt lat="42.295023" lon="2.873166">
        <ele>181.761</ele>
        <time>2020-10-17T10:59:21Z</time>
      </trkpt>
      <trkpt lat="42.295094" lon="2.873167">
        <ele>182.183</ele>
        <time>2020-10-17T10:59:22Z</time>
      </trkpt>
      <trkpt lat="42.295164" lon="2.873170">
        <ele>182.225</ele>
        <time>2020-10-17T10:59:23Z</time>
      </trkpt>
      <trkpt lat="42.295232" lon="2.873175">
        <ele>182.617</ele>
        <time>2020-10-17T10:59:24Z</time>
      </trkpt>
      <trkpt lat="42.295295" lon="2.873183">
        <ele>183.008</ele>
        <time>2020-10-17T10:59:25Z</time>
      </trkpt>
      <trkpt lat="42.295394" lon="2.873205">
        <ele>183.663</ele>
        <time>2020-10-17T10:59:27Z</time>
      </trkpt>
      <trkpt lat="42.295478" lon="2.873220">
        <ele>184.296</ele>
        <time>2020-10-17T10:59:29Z</time>
      </trkpt>
      <trkpt lat="42.295526" lon="2.873227">
        <ele>184.485</ele>
        <time>2020-10-17T10:59:30Z</time>
      </trkpt>
      <trkpt lat="42.295621" lon="2.873249">
        <ele>184.948</ele>
        <time>2020-10-17T10:59:32Z</time>
      </trkpt>
      <trkpt lat="42.295697" lon="2.873283">
        <ele>185.380</ele>
        <time>2020-10-17T10:59:34Z</time>
      </trkpt>
      <trkpt lat="42.295743" lon="2.873312">
        <ele>186.126</ele>
        <time>2020-10-17T10:59:36Z</time>
      </trkpt>
      <trkpt lat="42.295803" lon="2.873313">
        <ele>186.915</ele>
        <time>2020-10-17T10:59:38Z</time>
      </trkpt>
      <trkpt lat="42.295856" lon="2.873309">
        <ele>187.416</ele>
        <time>2020-10-17T10:59:39Z</time>
      </trkpt>
      <trkpt lat="42.295961" lon="2.873322">
        <ele>187.286</ele>
        <time>2020-10-17T10:59:41Z</time>
      </trkpt>
      <trkpt lat="42.296019" lon="2.873360">
        <ele>187.760</ele>
        <time>2020-10-17T10:59:43Z</time>
      </trkpt>
      <trkpt lat="42.296032" lon="2.873451">
        <ele>187.826</ele>
        <time>2020-10-17T10:59:46Z</time>
      </trkpt>
      <trkpt lat="42.296047" lon="2.873571">
        <ele>187.808</ele>
        <time>2020-10-17T10:59:48Z</time>
      </trkpt>
      <trkpt lat="42.296049" lon="2.873647">
        <ele>187.783</ele>
        <time>2020-10-17T10:59:49Z</time>
      </trkpt>
      <trkpt lat="42.296067" lon="2.873848">
        <ele>187.966</ele>
        <time>2020-10-17T10:59:51Z</time>
      </trkpt>
      <trkpt lat="42.296100" lon="2.874047">
        <ele>187.475</ele>
        <time>2020-10-17T10:59:53Z</time>
      </trkpt>
      <trkpt lat="42.296131" lon="2.874116">
        <ele>187.388</ele>
        <time>2020-10-17T10:59:54Z</time>
      </trkpt>
      <trkpt lat="42.296173" lon="2.874154">
        <ele>186.980</ele>
        <time>2020-10-17T10:59:56Z</time>
      </trkpt>
      <trkpt lat="42.296077" lon="2.874199">
        <ele>190.156</ele>
        <time>2020-10-17T11:01:11Z</time>
      </trkpt>
      <trkpt lat="42.296023" lon="2.874244">
        <ele>189.735</ele>
        <time>2020-10-17T11:01:14Z</time>
      </trkpt>
      <trkpt lat="42.295982" lon="2.874278">
        <ele>189.516</ele>
        <time>2020-10-17T11:01:17Z</time>
      </trkpt>
      <trkpt lat="42.295894" lon="2.874321">
        <ele>188.049</ele>
        <time>2020-10-17T11:01:29Z</time>
      </trkpt>
      <trkpt lat="42.295847" lon="2.874343">
        <ele>186.502</ele>
        <time>2020-10-17T11:01:31Z</time>
      </trkpt>
      <trkpt lat="42.295758" lon="2.874378">
        <ele>186.222</ele>
        <time>2020-10-17T11:01:33Z</time>
      </trkpt>
      <trkpt lat="42.295629" lon="2.874420">
        <ele>185.608</ele>
        <time>2020-10-17T11:01:34Z</time>
      </trkpt>
      <trkpt lat="42.295536" lon="2.874445">
        <ele>184.889</ele>
        <time>2020-10-17T11:01:35Z</time>
      </trkpt>
      <trkpt lat="42.295407" lon="2.874492">
        <ele>185.052</ele>
        <time>2020-10-17T11:01:37Z</time>
      </trkpt>
      <trkpt lat="42.295346" lon="2.874513">
        <ele>185.121</ele>
        <time>2020-10-17T11:01:38Z</time>
      </trkpt>
      <trkpt lat="42.295262" lon="2.874552">
        <ele>186.494</ele>
        <time>2020-10-17T11:01:40Z</time>
      </trkpt>
      <trkpt lat="42.295209" lon="2.874574">
        <ele>187.266</ele>
        <time>2020-10-17T11:01:41Z</time>
      </trkpt>
      <trkpt lat="42.295080" lon="2.874629">
        <ele>186.832</ele>
        <time>2020-10-17T11:01:43Z</time>
      </trkpt>
      <trkpt lat="42.294932" lon="2.874687">
        <ele>187.081</ele>
        <time>2020-10-17T11:01:45Z</time>
      </trkpt>
      <trkpt lat="42.294877" lon="2.874706">
        <ele>187.192</ele>
        <time>2020-10-17T11:01:46Z</time>
      </trkpt>
      <trkpt lat="42.294776" lon="2.874767">
        <ele>187.088</ele>
        <time>2020-10-17T11:01:48Z</time>
      </trkpt>
      <trkpt lat="42.294706" lon="2.874812">
        <ele>187.024</ele>
        <time>2020-10-17T11:01:49Z</time>
      </trkpt>
      <trkpt lat="42.294557" lon="2.874867">
        <ele>186.626</ele>
        <time>2020-10-17T11:01:51Z</time>
      </trkpt>
      <trkpt lat="42.294463" lon="2.874910">
        <ele>185.808</ele>
        <time>2020-10-17T11:01:52Z</time>
      </trkpt>
      <trkpt lat="42.294320" lon="2.874996">
        <ele>184.163</ele>
        <time>2020-10-17T11:01:54Z</time>
      </trkpt>
      <trkpt lat="42.294287" lon="2.875052">
        <ele>183.496</ele>
        <time>2020-10-17T11:01:55Z</time>
      </trkpt>
      <trkpt lat="42.294234" lon="2.875171">
        <ele>183.165</ele>
        <time>2020-10-17T11:01:57Z</time>
      </trkpt>
      <trkpt lat="42.294204" lon="2.875246">
        <ele>183.058</ele>
        <time>2020-10-17T11:01:59Z</time>
      </trkpt>
      <trkpt lat="42.294167" lon="2.875289">
        <ele>182.690</ele>
        <time>2020-10-17T11:02:01Z</time>
      </trkpt>
      <trkpt lat="42.294103" lon="2.875315">
        <ele>182.576</ele>
        <time>2020-10-17T11:02:03Z</time>
      </trkpt>
      <trkpt lat="42.294049" lon="2.875328">
        <ele>182.595</ele>
        <time>2020-10-17T11:02:04Z</time>
      </trkpt>
      <trkpt lat="42.293976" lon="2.875335">
        <ele>181.856</ele>
        <time>2020-10-17T11:02:05Z</time>
      </trkpt>
      <trkpt lat="42.293891" lon="2.875334">
        <ele>181.515</ele>
        <time>2020-10-17T11:02:06Z</time>
      </trkpt>
      <trkpt lat="42.293717" lon="2.875335">
        <ele>181.265</ele>
        <time>2020-10-17T11:02:08Z</time>
      </trkpt>
      <trkpt lat="42.293555" lon="2.875336">
        <ele>181.111</ele>
        <time>2020-10-17T11:02:10Z</time>
      </trkpt>
      <trkpt lat="42.293401" lon="2.875328">
        <ele>180.308</ele>
        <time>2020-10-17T11:02:12Z</time>
      </trkpt>
      <trkpt lat="42.293315" lon="2.875326">
        <ele>179.466</ele>
        <time>2020-10-17T11:02:13Z</time>
      </trkpt>
      <trkpt lat="42.293157" lon="2.875323">
        <ele>177.949</ele>
        <time>2020-10-17T11:02:15Z</time>
      </trkpt>
      <trkpt lat="42.293076" lon="2.875320">
        <ele>177.458</ele>
        <time>2020-10-17T11:02:16Z</time>
      </trkpt>
      <trkpt lat="42.292933" lon="2.875349">
        <ele>177.131</ele>
        <time>2020-10-17T11:02:18Z</time>
      </trkpt>
      <trkpt lat="42.292873" lon="2.875345">
        <ele>177.573</ele>
        <time>2020-10-17T11:02:19Z</time>
      </trkpt>
      <trkpt lat="42.292761" lon="2.875307">
        <ele>178.719</ele>
        <time>2020-10-17T11:02:21Z</time>
      </trkpt>
      <trkpt lat="42.292686" lon="2.875289">
        <ele>179.638</ele>
        <time>2020-10-17T11:02:22Z</time>
      </trkpt>
      <trkpt lat="42.292520" lon="2.875254">
        <ele>179.269</ele>
        <time>2020-10-17T11:02:24Z</time>
      </trkpt>
      <trkpt lat="42.292432" lon="2.875234">
        <ele>178.671</ele>
        <time>2020-10-17T11:02:25Z</time>
      </trkpt>
      <trkpt lat="42.292256" lon="2.875188">
        <ele>179.241</ele>
        <time>2020-10-17T11:02:27Z</time>
      </trkpt>
      <trkpt lat="42.292165" lon="2.875158">
        <ele>179.415</ele>
        <time>2020-10-17T11:02:28Z</time>
      </trkpt>
      <trkpt lat="42.292005" lon="2.875100">
        <ele>179.508</ele>
        <time>2020-10-17T11:02:30Z</time>
      </trkpt>
      <trkpt lat="42.291934" lon="2.875073">
        <ele>179.192</ele>
        <time>2020-10-17T11:02:31Z</time>
      </trkpt>
      <trkpt lat="42.291823" lon="2.875040">
        <ele>178.945</ele>
        <time>2020-10-17T11:02:33Z</time>
      </trkpt>
      <trkpt lat="42.291764" lon="2.875042">
        <ele>178.644</ele>
        <time>2020-10-17T11:02:35Z</time>
      </trkpt>
      <trkpt lat="42.291702" lon="2.875064">
        <ele>177.757</ele>
        <time>2020-10-17T11:02:37Z</time>
      </trkpt>
      <trkpt lat="42.291652" lon="2.875059">
        <ele>176.749</ele>
        <time>2020-10-17T11:02:40Z</time>
      </trkpt>
      <trkpt lat="42.291603" lon="2.875047">
        <ele>175.825</ele>
        <time>2020-10-17T11:02:42Z</time>
      </trkpt>
      <trkpt lat="42.291450" lon="2.874993">
        <ele>176.294</ele>
        <time>2020-10-17T11:02:44Z</time>
      </trkpt>
      <trkpt lat="42.291391" lon="2.874975">
        <ele>175.715</ele>
        <time>2020-10-17T11:02:45Z</time>
      </trkpt>
      <trkpt lat="42.291345" lon="2.874957">
        <ele>174.813</ele>
        <time>2020-10-17T11:02:46Z</time>
      </trkpt>
      <trkpt lat="42.291251" lon="2.874920">
        <ele>173.443</ele>
        <time>2020-10-17T11:02:48Z</time>
      </trkpt>
      <trkpt lat="42.291202" lon="2.874913">
        <ele>172.107</ele>
        <time>2020-10-17T11:02:49Z</time>
      </trkpt>
      <trkpt lat="42.291156" lon="2.874914">
        <ele>171.108</ele>
        <time>2020-10-17T11:02:50Z</time>
      </trkpt>
      <trkpt lat="42.291105" lon="2.874925">
        <ele>170.536</ele>
        <time>2020-10-17T11:02:53Z</time>
      </trkpt>
      <trkpt lat="42.291061" lon="2.874942">
        <ele>170.469</ele>
        <time>2020-10-17T11:02:56Z</time>
      </trkpt>
      <trkpt lat="42.291015" lon="2.874905">
        <ele>170.518</ele>
        <time>2020-10-17T11:03:00Z</time>
      </trkpt>
      <trkpt lat="42.291001" lon="2.874840">
        <ele>171.511</ele>
        <time>2020-10-17T11:03:03Z</time>
      </trkpt>
      <trkpt lat="42.290989" lon="2.874760">
        <ele>171.313</ele>
        <time>2020-10-17T11:03:06Z</time>
      </trkpt>
      <trkpt lat="42.290971" lon="2.874674">
        <ele>171.889</ele>
        <time>2020-10-17T11:03:09Z</time>
      </trkpt>
      <trkpt lat="42.290956" lon="2.874617">
        <ele>171.988</ele>
        <time>2020-10-17T11:03:11Z</time>
      </trkpt>
      <trkpt lat="42.290929" lon="2.874512">
        <ele>171.599</ele>
        <time>2020-10-17T11:03:13Z</time>
      </trkpt>
      <trkpt lat="42.290901" lon="2.874421">
        <ele>170.443</ele>
        <time>2020-10-17T11:03:15Z</time>
      </trkpt>
      <trkpt lat="42.290833" lon="2.874190">
        <ele>170.564</ele>
        <time>2020-10-17T11:03:17Z</time>
      </trkpt>
      <trkpt lat="42.290797" lon="2.874070">
        <ele>170.310</ele>
        <time>2020-10-17T11:03:18Z</time>
      </trkpt>
      <trkpt lat="42.290765" lon="2.873977">
        <ele>170.808</ele>
        <time>2020-10-17T11:03:19Z</time>
      </trkpt>
      <trkpt lat="42.290718" lon="2.873813">
        <ele>171.599</ele>
        <time>2020-10-17T11:03:21Z</time>
      </trkpt>
      <trkpt lat="42.290700" lon="2.873729">
        <ele>171.592</ele>
        <time>2020-10-17T11:03:22Z</time>
      </trkpt>
      <trkpt lat="42.290686" lon="2.873650">
        <ele>170.961</ele>
        <time>2020-10-17T11:03:23Z</time>
      </trkpt>
      <trkpt lat="42.290679" lon="2.873579">
        <ele>170.454</ele>
        <time>2020-10-17T11:03:24Z</time>
      </trkpt>
      <trkpt lat="42.290674" lon="2.873473">
        <ele>170.366</ele>
        <time>2020-10-17T11:03:26Z</time>
      </trkpt>
      <trkpt lat="42.290672" lon="2.873393">
        <ele>171.372</ele>
        <time>2020-10-17T11:03:29Z</time>
      </trkpt>
      <trkpt lat="42.290670" lon="2.873292">
        <ele>172.031</ele>
        <time>2020-10-17T11:03:31Z</time>
      </trkpt>
      <trkpt lat="42.290669" lon="2.873075">
        <ele>172.712</ele>
        <time>2020-10-17T11:03:33Z</time>
      </trkpt>
      <trkpt lat="42.290651" lon="2.872878">
        <ele>173.395</ele>
        <time>2020-10-17T11:03:35Z</time>
      </trkpt>
      <trkpt lat="42.290639" lon="2.872689">
        <ele>174.149</ele>
        <time>2020-10-17T11:03:37Z</time>
      </trkpt>
      <trkpt lat="42.290636" lon="2.872597">
        <ele>174.123</ele>
        <time>2020-10-17T11:03:38Z</time>
      </trkpt>
      <trkpt lat="42.290636" lon="2.872432">
        <ele>173.808</ele>
        <time>2020-10-17T11:03:40Z</time>
      </trkpt>
      <trkpt lat="42.290639" lon="2.872350">
        <ele>174.184</ele>
        <time>2020-10-17T11:03:41Z</time>
      </trkpt>
      <trkpt lat="42.290642" lon="2.872269">
        <ele>174.417</ele>
        <time>2020-10-17T11:03:42Z</time>
      </trkpt>
      <trkpt lat="42.290645" lon="2.872110">
        <ele>173.826</ele>
        <time>2020-10-17T11:03:44Z</time>
      </trkpt>
      <trkpt lat="42.290647" lon="2.871960">
        <ele>173.439</ele>
        <time>2020-10-17T11:03:46Z</time>
      </trkpt>
      <trkpt lat="42.290634" lon="2.871865">
        <ele>173.971</ele>
        <time>2020-10-17T11:03:48Z</time>
      </trkpt>
      <trkpt lat="42.290577" lon="2.871757">
        <ele>174.327</ele>
        <time>2020-10-17T11:03:50Z</time>
      </trkpt>
      <trkpt lat="42.290531" lon="2.871703">
        <ele>174.476</ele>
        <time>2020-10-17T11:03:51Z</time>
      </trkpt>
      <trkpt lat="42.290424" lon="2.871623">
        <ele>174.727</ele>
        <time>2020-10-17T11:03:53Z</time>
      </trkpt>
      <trkpt lat="42.290374" lon="2.871617">
        <ele>174.551</ele>
        <time>2020-10-17T11:03:54Z</time>
      </trkpt>
      <trkpt lat="42.290321" lon="2.871603">
        <ele>174.401</ele>
        <time>2020-10-17T11:03:55Z</time>
      </trkpt>
      <trkpt lat="42.290208" lon="2.871628">
        <ele>174.411</ele>
        <time>2020-10-17T11:03:57Z</time>
      </trkpt>
      <trkpt lat="42.290154" lon="2.871647">
        <ele>174.408</ele>
        <time>2020-10-17T11:03:58Z</time>
      </trkpt>
      <trkpt lat="42.290098" lon="2.871666">
        <ele>174.830</ele>
        <time>2020-10-17T11:03:59Z</time>
      </trkpt>
      <trkpt lat="42.289991" lon="2.871684">
        <ele>175.813</ele>
        <time>2020-10-17T11:04:01Z</time>
      </trkpt>
      <trkpt lat="42.289938" lon="2.871681">
        <ele>176.532</ele>
        <time>2020-10-17T11:04:02Z</time>
      </trkpt>
      <trkpt lat="42.289882" lon="2.871669">
        <ele>177.045</ele>
        <time>2020-10-17T11:04:03Z</time>
      </trkpt>
      <trkpt lat="42.289796" lon="2.871622">
        <ele>177.787</ele>
        <time>2020-10-17T11:04:05Z</time>
      </trkpt>
      <trkpt lat="42.289763" lon="2.871565">
        <ele>178.143</ele>
        <time>2020-10-17T11:04:07Z</time>
      </trkpt>
      <trkpt lat="42.289730" lon="2.871522">
        <ele>178.222</ele>
        <time>2020-10-17T11:04:09Z</time>
      </trkpt>
      <trkpt lat="42.289675" lon="2.871545">
        <ele>178.243</ele>
        <time>2020-10-17T11:04:11Z</time>
      </trkpt>
      <trkpt lat="42.289614" lon="2.871514">
        <ele>178.239</ele>
        <time>2020-10-17T11:04:14Z</time>
      </trkpt>
      <trkpt lat="42.289575" lon="2.871466">
        <ele>177.201</ele>
        <time>2020-10-17T11:04:17Z</time>
      </trkpt>
      <trkpt lat="42.289552" lon="2.871394">
        <ele>176.621</ele>
        <time>2020-10-17T11:04:20Z</time>
      </trkpt>
      <trkpt lat="42.289509" lon="2.871416">
        <ele>177.308</ele>
        <time>2020-10-17T11:04:30Z</time>
      </trkpt>
      <trkpt lat="42.289528" lon="2.871286">
        <ele>184.168</ele>
        <time>2020-10-17T11:05:14Z</time>
      </trkpt>
      <trkpt lat="42.289543" lon="2.871198">
        <ele>186.011</ele>
        <time>2020-10-17T11:05:16Z</time>
      </trkpt>
      <trkpt lat="42.289543" lon="2.871198">
        <ele>186.050</ele>
        <time>2020-10-17T11:05:16Z</time>
      </trkpt>
      <trkpt lat="42.289546" lon="2.871115">
        <ele>186.653</ele>
        <time>2020-10-17T11:05:19Z</time>
      </trkpt>
      <trkpt lat="42.289546" lon="2.871115">
        <ele>186.635</ele>
        <time>2020-10-17T11:05:19Z</time>
      </trkpt>
      <trkpt lat="42.289537" lon="2.871031">
        <ele>187.591</ele>
        <time>2020-10-17T11:05:22Z</time>
      </trkpt>
      <trkpt lat="42.289537" lon="2.871031">
        <ele>187.590</ele>
        <time>2020-10-17T11:05:22Z</time>
      </trkpt>
      <trkpt lat="42.289501" lon="2.870986">
        <ele>188.361</ele>
        <time>2020-10-17T11:05:24Z</time>
      </trkpt>
      <trkpt lat="42.289451" lon="2.870974">
        <ele>189.471</ele>
        <time>2020-10-17T11:05:26Z</time>
      </trkpt>
      <trkpt lat="42.289451" lon="2.870974">
        <ele>189.441</ele>
        <time>2020-10-17T11:05:26Z</time>
      </trkpt>
      <trkpt lat="42.289361" lon="2.870972">
        <ele>191.715</ele>
        <time>2020-10-17T11:05:29Z</time>
      </trkpt>
      <trkpt lat="42.289292" lon="2.870970">
        <ele>193.308</ele>
        <time>2020-10-17T11:05:30Z</time>
      </trkpt>
      <trkpt lat="42.289212" lon="2.870965">
        <ele>193.782</ele>
        <time>2020-10-17T11:05:32Z</time>
      </trkpt>
      <trkpt lat="42.289145" lon="2.870963">
        <ele>194.285</ele>
        <time>2020-10-17T11:05:34Z</time>
      </trkpt>
      <trkpt lat="42.289080" lon="2.870968">
        <ele>194.684</ele>
        <time>2020-10-17T11:05:36Z</time>
      </trkpt>
      <trkpt lat="42.289009" lon="2.870956">
        <ele>195.397</ele>
        <time>2020-10-17T11:05:38Z</time>
      </trkpt>
      <trkpt lat="42.288958" lon="2.870923">
        <ele>195.539</ele>
        <time>2020-10-17T11:05:40Z</time>
      </trkpt>
      <trkpt lat="42.288934" lon="2.870841">
        <ele>195.445</ele>
        <time>2020-10-17T11:05:42Z</time>
      </trkpt>
      <trkpt lat="42.288917" lon="2.870778">
        <ele>195.494</ele>
        <time>2020-10-17T11:05:44Z</time>
      </trkpt>
      <trkpt lat="42.288899" lon="2.870713">
        <ele>195.435</ele>
        <time>2020-10-17T11:05:45Z</time>
      </trkpt>
      <trkpt lat="42.288878" lon="2.870659">
        <ele>194.891</ele>
        <time>2020-10-17T11:05:46Z</time>
      </trkpt>
      <trkpt lat="42.288853" lon="2.870586">
        <ele>193.681</ele>
        <time>2020-10-17T11:05:48Z</time>
      </trkpt>
      <trkpt lat="42.288845" lon="2.870508">
        <ele>192.719</ele>
        <time>2020-10-17T11:05:50Z</time>
      </trkpt>
      <trkpt lat="42.288841" lon="2.870389">
        <ele>191.408</ele>
        <time>2020-10-17T11:05:53Z</time>
      </trkpt>
      <trkpt lat="42.288821" lon="2.870309">
        <ele>191.244</ele>
        <time>2020-10-17T11:05:54Z</time>
      </trkpt>
      <trkpt lat="42.288795" lon="2.870212">
        <ele>190.837</ele>
        <time>2020-10-17T11:05:56Z</time>
      </trkpt>
      <trkpt lat="42.288625" lon="2.869836">
        <ele>192.046</ele>
        <time>2020-10-17T11:06:04Z</time>
      </trkpt>
      <trkpt lat="42.288604" lon="2.869780">
        <ele>192.819</ele>
        <time>2020-10-17T11:06:05Z</time>
      </trkpt>
      <trkpt lat="42.288639" lon="2.869693">
        <ele>193.981</ele>
        <time>2020-10-17T11:06:07Z</time>
      </trkpt>
      <trkpt lat="42.288650" lon="2.869576">
        <ele>196.387</ele>
        <time>2020-10-17T11:06:09Z</time>
      </trkpt>
      <trkpt lat="42.288665" lon="2.869458">
        <ele>197.916</ele>
        <time>2020-10-17T11:06:11Z</time>
      </trkpt>
      <trkpt lat="42.288720" lon="2.869250">
        <ele>199.427</ele>
        <time>2020-10-17T11:06:13Z</time>
      </trkpt>
      <trkpt lat="42.288741" lon="2.869181">
        <ele>200.182</ele>
        <time>2020-10-17T11:06:14Z</time>
      </trkpt>
      <trkpt lat="42.288778" lon="2.869049">
        <ele>199.643</ele>
        <time>2020-10-17T11:06:16Z</time>
      </trkpt>
      <trkpt lat="42.288797" lon="2.868968">
        <ele>199.517</ele>
        <time>2020-10-17T11:06:17Z</time>
      </trkpt>
      <trkpt lat="42.288823" lon="2.868843">
        <ele>199.608</ele>
        <time>2020-10-17T11:06:19Z</time>
      </trkpt>
      <trkpt lat="42.288822" lon="2.868780">
        <ele>200.553</ele>
        <time>2020-10-17T11:06:22Z</time>
      </trkpt>
      <trkpt lat="42.288806" lon="2.868705">
        <ele>201.386</ele>
        <time>2020-10-17T11:06:25Z</time>
      </trkpt>
      <trkpt lat="42.288778" lon="2.868644">
        <ele>200.815</ele>
        <time>2020-10-17T11:06:28Z</time>
      </trkpt>
      <trkpt lat="42.288760" lon="2.868585">
        <ele>199.168</ele>
        <time>2020-10-17T11:06:30Z</time>
      </trkpt>
      <trkpt lat="42.288723" lon="2.868500">
        <ele>197.760</ele>
        <time>2020-10-17T11:06:32Z</time>
      </trkpt>
      <trkpt lat="42.288690" lon="2.868427">
        <ele>195.676</ele>
        <time>2020-10-17T11:06:34Z</time>
      </trkpt>
      <trkpt lat="42.288665" lon="2.868344">
        <ele>193.075</ele>
        <time>2020-10-17T11:06:37Z</time>
      </trkpt>
      <trkpt lat="42.288647" lon="2.868288">
        <ele>191.486</ele>
        <time>2020-10-17T11:06:39Z</time>
      </trkpt>
      <trkpt lat="42.288622" lon="2.868233">
        <ele>191.134</ele>
        <time>2020-10-17T11:06:41Z</time>
      </trkpt>
      <trkpt lat="42.288579" lon="2.868172">
        <ele>190.155</ele>
        <time>2020-10-17T11:06:43Z</time>
      </trkpt>
      <trkpt lat="42.288525" lon="2.868111">
        <ele>190.610</ele>
        <time>2020-10-17T11:06:45Z</time>
      </trkpt>
      <trkpt lat="42.288453" lon="2.868026">
        <ele>191.408</ele>
        <time>2020-10-17T11:06:47Z</time>
      </trkpt>
      <trkpt lat="42.288379" lon="2.867870">
        <ele>193.628</ele>
        <time>2020-10-17T11:06:49Z</time>
      </trkpt>
      <trkpt lat="42.288368" lon="2.867751">
        <ele>196.361</ele>
        <time>2020-10-17T11:06:51Z</time>
      </trkpt>
      <trkpt lat="42.288418" lon="2.867670">
        <ele>198.180</ele>
        <time>2020-10-17T11:06:53Z</time>
      </trkpt>
      <trkpt lat="42.288454" lon="2.867624">
        <ele>199.233</ele>
        <time>2020-10-17T11:06:54Z</time>
      </trkpt>
      <trkpt lat="42.288519" lon="2.867549">
        <ele>200.175</ele>
        <time>2020-10-17T11:06:56Z</time>
      </trkpt>
      <trkpt lat="42.288615" lon="2.867517">
        <ele>199.761</ele>
        <time>2020-10-17T11:06:58Z</time>
      </trkpt>
      <trkpt lat="42.288665" lon="2.867516">
        <ele>199.140</ele>
        <time>2020-10-17T11:06:59Z</time>
      </trkpt>
      <trkpt lat="42.288712" lon="2.867519">
        <ele>199.371</ele>
        <time>2020-10-17T11:07:00Z</time>
      </trkpt>
      <trkpt lat="42.288763" lon="2.867512">
        <ele>199.263</ele>
        <time>2020-10-17T11:07:01Z</time>
      </trkpt>
      <trkpt lat="42.288817" lon="2.867505">
        <ele>199.044</ele>
        <time>2020-10-17T11:07:02Z</time>
      </trkpt>
      <trkpt lat="42.288867" lon="2.867494">
        <ele>199.018</ele>
        <time>2020-10-17T11:07:03Z</time>
      </trkpt>
      <trkpt lat="42.288916" lon="2.867483">
        <ele>198.208</ele>
        <time>2020-10-17T11:07:05Z</time>
      </trkpt>
      <trkpt lat="42.288974" lon="2.867447">
        <ele>198.051</ele>
        <time>2020-10-17T11:07:09Z</time>
      </trkpt>
      <trkpt lat="42.289010" lon="2.867404">
        <ele>198.444</ele>
        <time>2020-10-17T11:07:11Z</time>
      </trkpt>
      <trkpt lat="42.289045" lon="2.867352">
        <ele>199.243</ele>
        <time>2020-10-17T11:07:13Z</time>
      </trkpt>
      <trkpt lat="42.289090" lon="2.867304">
        <ele>199.566</ele>
        <time>2020-10-17T11:07:15Z</time>
      </trkpt>
      <trkpt lat="42.289156" lon="2.867255">
        <ele>200.238</ele>
        <time>2020-10-17T11:07:17Z</time>
      </trkpt>
      <trkpt lat="42.289199" lon="2.867228">
        <ele>200.714</ele>
        <time>2020-10-17T11:07:18Z</time>
      </trkpt>
      <trkpt lat="42.289255" lon="2.867197">
        <ele>201.443</ele>
        <time>2020-10-17T11:07:19Z</time>
      </trkpt>
      <trkpt lat="42.289349" lon="2.867152">
        <ele>201.414</ele>
        <time>2020-10-17T11:07:20Z</time>
      </trkpt>
      <trkpt lat="42.289471" lon="2.867098">
        <ele>200.946</ele>
        <time>2020-10-17T11:07:21Z</time>
      </trkpt>
      <trkpt lat="42.289733" lon="2.866991">
        <ele>203.088</ele>
        <time>2020-10-17T11:07:23Z</time>
      </trkpt>
      <trkpt lat="42.289857" lon="2.866928">
        <ele>203.916</ele>
        <time>2020-10-17T11:07:24Z</time>
      </trkpt>
      <trkpt lat="42.289965" lon="2.866848">
        <ele>204.508</ele>
        <time>2020-10-17T11:07:25Z</time>
      </trkpt>
      <trkpt lat="42.290043" lon="2.866777">
        <ele>204.929</ele>
        <time>2020-10-17T11:07:26Z</time>
      </trkpt>
      <trkpt lat="42.290147" lon="2.866685">
        <ele>204.172</ele>
        <time>2020-10-17T11:07:28Z</time>
      </trkpt>
      <trkpt lat="42.290195" lon="2.866644">
        <ele>202.421</ele>
        <time>2020-10-17T11:07:29Z</time>
      </trkpt>
      <trkpt lat="42.290306" lon="2.866540">
        <ele>201.384</ele>
        <time>2020-10-17T11:07:31Z</time>
      </trkpt>
      <trkpt lat="42.290431" lon="2.866530">
        <ele>200.716</ele>
        <time>2020-10-17T11:07:33Z</time>
      </trkpt>
      <trkpt lat="42.290501" lon="2.866560">
        <ele>200.992</ele>
        <time>2020-10-17T11:07:34Z</time>
      </trkpt>
      <trkpt lat="42.290613" lon="2.866570">
        <ele>201.371</ele>
        <time>2020-10-17T11:07:36Z</time>
      </trkpt>
      <trkpt lat="42.290718" lon="2.866489">
        <ele>201.722</ele>
        <time>2020-10-17T11:07:38Z</time>
      </trkpt>
      <trkpt lat="42.290780" lon="2.866440">
        <ele>201.947</ele>
        <time>2020-10-17T11:07:39Z</time>
      </trkpt>
      <trkpt lat="42.290894" lon="2.866352">
        <ele>202.429</ele>
        <time>2020-10-17T11:07:41Z</time>
      </trkpt>
      <trkpt lat="42.291022" lon="2.866290">
        <ele>202.621</ele>
        <time>2020-10-17T11:07:43Z</time>
      </trkpt>
      <trkpt lat="42.291091" lon="2.866258">
        <ele>202.708</ele>
        <time>2020-10-17T11:07:44Z</time>
      </trkpt>
      <trkpt lat="42.291249" lon="2.866208">
        <ele>202.459</ele>
        <time>2020-10-17T11:07:46Z</time>
      </trkpt>
      <trkpt lat="42.291370" lon="2.866193">
        <ele>202.612</ele>
        <time>2020-10-17T11:07:48Z</time>
      </trkpt>
      <trkpt lat="42.291470" lon="2.866228">
        <ele>202.551</ele>
        <time>2020-10-17T11:07:50Z</time>
      </trkpt>
      <trkpt lat="42.291524" lon="2.866247">
        <ele>202.414</ele>
        <time>2020-10-17T11:07:51Z</time>
      </trkpt>
      <trkpt lat="42.291587" lon="2.866264">
        <ele>201.596</ele>
        <time>2020-10-17T11:07:52Z</time>
      </trkpt>
      <trkpt lat="42.291653" lon="2.866282">
        <ele>200.792</ele>
        <time>2020-10-17T11:07:53Z</time>
      </trkpt>
      <trkpt lat="42.291781" lon="2.866300">
        <ele>199.831</ele>
        <time>2020-10-17T11:07:55Z</time>
      </trkpt>
      <trkpt lat="42.291848" lon="2.866313">
        <ele>199.772</ele>
        <time>2020-10-17T11:07:56Z</time>
      </trkpt>
      <trkpt lat="42.291911" lon="2.866315">
        <ele>199.875</ele>
        <time>2020-10-17T11:07:57Z</time>
      </trkpt>
      <trkpt lat="42.292034" lon="2.866292">
        <ele>199.728</ele>
        <time>2020-10-17T11:07:59Z</time>
      </trkpt>
      <trkpt lat="42.292100" lon="2.866271">
        <ele>199.720</ele>
        <time>2020-10-17T11:08:00Z</time>
      </trkpt>
      <trkpt lat="42.292261" lon="2.866192">
        <ele>199.608</ele>
        <time>2020-10-17T11:08:02Z</time>
      </trkpt>
      <trkpt lat="42.292349" lon="2.866156">
        <ele>199.832</ele>
        <time>2020-10-17T11:08:03Z</time>
      </trkpt>
      <trkpt lat="42.292427" lon="2.866122">
        <ele>199.815</ele>
        <time>2020-10-17T11:08:04Z</time>
      </trkpt>
      <trkpt lat="42.292546" lon="2.866057">
        <ele>199.924</ele>
        <time>2020-10-17T11:08:06Z</time>
      </trkpt>
      <trkpt lat="42.292593" lon="2.866026">
        <ele>198.887</ele>
        <time>2020-10-17T11:08:07Z</time>
      </trkpt>
      <trkpt lat="42.292708" lon="2.865951">
        <ele>197.259</ele>
        <time>2020-10-17T11:08:10Z</time>
      </trkpt>
      <trkpt lat="42.292781" lon="2.865929">
        <ele>196.325</ele>
        <time>2020-10-17T11:08:12Z</time>
      </trkpt>
      <trkpt lat="42.292895" lon="2.865848">
        <ele>196.514</ele>
        <time>2020-10-17T11:08:15Z</time>
      </trkpt>
      <trkpt lat="42.292943" lon="2.865804">
        <ele>196.685</ele>
        <time>2020-10-17T11:08:16Z</time>
      </trkpt>
      <trkpt lat="42.292988" lon="2.865758">
        <ele>197.064</ele>
        <time>2020-10-17T11:08:17Z</time>
      </trkpt>
      <trkpt lat="42.293018" lon="2.865711">
        <ele>197.406</ele>
        <time>2020-10-17T11:08:18Z</time>
      </trkpt>
      <trkpt lat="42.293063" lon="2.865637">
        <ele>197.316</ele>
        <time>2020-10-17T11:08:20Z</time>
      </trkpt>
      <trkpt lat="42.293148" lon="2.865538">
        <ele>192.808</ele>
        <time>2020-10-17T11:09:14Z</time>
      </trkpt>
      <trkpt lat="42.293246" lon="2.865484">
        <ele>192.221</ele>
        <time>2020-10-17T11:09:16Z</time>
      </trkpt>
      <trkpt lat="42.293454" lon="2.865341">
        <ele>191.384</ele>
        <time>2020-10-17T11:09:19Z</time>
      </trkpt>
      <trkpt lat="42.293612" lon="2.865223">
        <ele>190.793</ele>
        <time>2020-10-17T11:09:21Z</time>
      </trkpt>
      <trkpt lat="42.293746" lon="2.865107">
        <ele>190.536</ele>
        <time>2020-10-17T11:09:23Z</time>
      </trkpt>
      <trkpt lat="42.293815" lon="2.865047">
        <ele>190.468</ele>
        <time>2020-10-17T11:09:24Z</time>
      </trkpt>
      <trkpt lat="42.293956" lon="2.864928">
        <ele>190.294</ele>
        <time>2020-10-17T11:09:26Z</time>
      </trkpt>
      <trkpt lat="42.294029" lon="2.864873">
        <ele>190.563</ele>
        <time>2020-10-17T11:09:27Z</time>
      </trkpt>
      <trkpt lat="42.294137" lon="2.864807">
        <ele>190.144</ele>
        <time>2020-10-17T11:09:29Z</time>
      </trkpt>
      <trkpt lat="42.294118" lon="2.864864">
        <ele>191.022</ele>
        <time>2020-10-17T11:09:43Z</time>
      </trkpt>
      <trkpt lat="42.294189" lon="2.864807">
        <ele>190.562</ele>
        <time>2020-10-17T11:09:53Z</time>
      </trkpt>
      <trkpt lat="42.294226" lon="2.864765">
        <ele>190.008</ele>
        <time>2020-10-17T11:09:56Z</time>
      </trkpt>
      <trkpt lat="42.294194" lon="2.864814">
        <ele>190.108</ele>
        <time>2020-10-17T11:10:00Z</time>
      </trkpt>
      <trkpt lat="42.294142" lon="2.864794">
        <ele>190.427</ele>
        <time>2020-10-17T11:10:10Z</time>
      </trkpt>
      <trkpt lat="42.294079" lon="2.864840">
        <ele>190.070</ele>
        <time>2020-10-17T11:10:19Z</time>
      </trkpt>
      <trkpt lat="42.293999" lon="2.864889">
        <ele>189.919</ele>
        <time>2020-10-17T11:10:21Z</time>
      </trkpt>
      <trkpt lat="42.293924" lon="2.864942">
        <ele>189.872</ele>
        <time>2020-10-17T11:10:23Z</time>
      </trkpt>
      <trkpt lat="42.293845" lon="2.865016">
        <ele>189.684</ele>
        <time>2020-10-17T11:10:25Z</time>
      </trkpt>
      <trkpt lat="42.293788" lon="2.865061">
        <ele>189.710</ele>
        <time>2020-10-17T11:10:26Z</time>
      </trkpt>
      <trkpt lat="42.293731" lon="2.865106">
        <ele>190.399</ele>
        <time>2020-10-17T11:10:27Z</time>
      </trkpt>
      <trkpt lat="42.293629" lon="2.865180">
        <ele>190.530</ele>
        <time>2020-10-17T11:10:29Z</time>
      </trkpt>
      <trkpt lat="42.293520" lon="2.865262">
        <ele>190.581</ele>
        <time>2020-10-17T11:10:31Z</time>
      </trkpt>
      <trkpt lat="42.293409" lon="2.865343">
        <ele>190.761</ele>
        <time>2020-10-17T11:10:33Z</time>
      </trkpt>
      <trkpt lat="42.293354" lon="2.865384">
        <ele>191.017</ele>
        <time>2020-10-17T11:10:34Z</time>
      </trkpt>
      <trkpt lat="42.293257" lon="2.865460">
        <ele>192.108</ele>
        <time>2020-10-17T11:10:36Z</time>
      </trkpt>
      <trkpt lat="42.293186" lon="2.865508">
        <ele>192.983</ele>
        <time>2020-10-17T11:10:38Z</time>
      </trkpt>
      <trkpt lat="42.293113" lon="2.865488">
        <ele>193.496</ele>
        <time>2020-10-17T11:10:40Z</time>
      </trkpt>
      <trkpt lat="42.293039" lon="2.865399">
        <ele>193.485</ele>
        <time>2020-10-17T11:10:42Z</time>
      </trkpt>
      <trkpt lat="42.292934" lon="2.865270">
        <ele>193.198</ele>
        <time>2020-10-17T11:10:44Z</time>
      </trkpt>
      <trkpt lat="42.292876" lon="2.865187">
        <ele>193.190</ele>
        <time>2020-10-17T11:10:45Z</time>
      </trkpt>
      <trkpt lat="42.292822" lon="2.865104">
        <ele>193.136</ele>
        <time>2020-10-17T11:10:46Z</time>
      </trkpt>
      <trkpt lat="42.292771" lon="2.864960">
        <ele>192.715</ele>
        <time>2020-10-17T11:10:48Z</time>
      </trkpt>
      <trkpt lat="42.292753" lon="2.864877">
        <ele>192.366</ele>
        <time>2020-10-17T11:10:49Z</time>
      </trkpt>
      <trkpt lat="42.292733" lon="2.864789">
        <ele>191.588</ele>
        <time>2020-10-17T11:10:50Z</time>
      </trkpt>
      <trkpt lat="42.292654" lon="2.864536">
        <ele>190.024</ele>
        <time>2020-10-17T11:10:53Z</time>
      </trkpt>
      <trkpt lat="42.292630" lon="2.864448">
        <ele>189.226</ele>
        <time>2020-10-17T11:10:54Z</time>
      </trkpt>
      <trkpt lat="42.292603" lon="2.864360">
        <ele>188.508</ele>
        <time>2020-10-17T11:10:55Z</time>
      </trkpt>
      <trkpt lat="42.292549" lon="2.864183">
        <ele>187.763</ele>
        <time>2020-10-17T11:10:57Z</time>
      </trkpt>
      <trkpt lat="42.292520" lon="2.864085">
        <ele>187.296</ele>
        <time>2020-10-17T11:10:58Z</time>
      </trkpt>
      <trkpt lat="42.292486" lon="2.863989">
        <ele>185.985</ele>
        <time>2020-10-17T11:10:59Z</time>
      </trkpt>
      <trkpt lat="42.292462" lon="2.863899">
        <ele>185.168</ele>
        <time>2020-10-17T11:11:00Z</time>
      </trkpt>
      <trkpt lat="42.292437" lon="2.863747">
        <ele>185.090</ele>
        <time>2020-10-17T11:11:02Z</time>
      </trkpt>
      <trkpt lat="42.292412" lon="2.863646">
        <ele>184.816</ele>
        <time>2020-10-17T11:11:04Z</time>
      </trkpt>
      <trkpt lat="42.292495" lon="2.863773">
        <ele>180.525</ele>
        <time>2020-10-17T11:11:28Z</time>
      </trkpt>
      <trkpt lat="42.292525" lon="2.863867">
        <ele>181.016</ele>
        <time>2020-10-17T11:11:30Z</time>
      </trkpt>
      <trkpt lat="42.292545" lon="2.863943">
        <ele>180.823</ele>
        <time>2020-10-17T11:11:32Z</time>
      </trkpt>
      <trkpt lat="42.292568" lon="2.864044">
        <ele>182.083</ele>
        <time>2020-10-17T11:11:34Z</time>
      </trkpt>
      <trkpt lat="42.292590" lon="2.864139">
        <ele>183.211</ele>
        <time>2020-10-17T11:11:36Z</time>
      </trkpt>
      <trkpt lat="42.292613" lon="2.864238">
        <ele>184.008</ele>
        <time>2020-10-17T11:11:38Z</time>
      </trkpt>
      <trkpt lat="42.292638" lon="2.864343">
        <ele>183.777</ele>
        <time>2020-10-17T11:11:40Z</time>
      </trkpt>
      <trkpt lat="42.292678" lon="2.864500">
        <ele>183.160</ele>
        <time>2020-10-17T11:11:43Z</time>
      </trkpt>
      <trkpt lat="42.292697" lon="2.864601">
        <ele>184.499</ele>
        <time>2020-10-17T11:11:45Z</time>
      </trkpt>
      <trkpt lat="42.292722" lon="2.864710">
        <ele>184.512</ele>
        <time>2020-10-17T11:11:47Z</time>
      </trkpt>
      <trkpt lat="42.292745" lon="2.864804">
        <ele>184.924</ele>
        <time>2020-10-17T11:11:49Z</time>
      </trkpt>
      <trkpt lat="42.292766" lon="2.864905">
        <ele>185.370</ele>
        <time>2020-10-17T11:11:51Z</time>
      </trkpt>
      <trkpt lat="42.292789" lon="2.864998">
        <ele>186.429</ele>
        <time>2020-10-17T11:11:53Z</time>
      </trkpt>
      <trkpt lat="42.292815" lon="2.865088">
        <ele>187.570</ele>
        <time>2020-10-17T11:11:55Z</time>
      </trkpt>
      <trkpt lat="42.292846" lon="2.865171">
        <ele>188.595</ele>
        <time>2020-10-17T11:11:57Z</time>
      </trkpt>
      <trkpt lat="42.292881" lon="2.865241">
        <ele>188.949</ele>
        <time>2020-10-17T11:11:59Z</time>
      </trkpt>
      <trkpt lat="42.292922" lon="2.865306">
        <ele>189.423</ele>
        <time>2020-10-17T11:12:01Z</time>
      </trkpt>
      <trkpt lat="42.292976" lon="2.865380">
        <ele>190.108</ele>
        <time>2020-10-17T11:12:03Z</time>
      </trkpt>
      <trkpt lat="42.293029" lon="2.865443">
        <ele>191.154</ele>
        <time>2020-10-17T11:12:05Z</time>
      </trkpt>
      <trkpt lat="42.293077" lon="2.865492">
        <ele>192.197</ele>
        <time>2020-10-17T11:12:07Z</time>
      </trkpt>
      <trkpt lat="42.293123" lon="2.865537">
        <ele>192.336</ele>
        <time>2020-10-17T11:12:10Z</time>
      </trkpt>
      <trkpt lat="42.293143" lon="2.865593">
        <ele>192.349</ele>
        <time>2020-10-17T11:12:14Z</time>
      </trkpt>
      <trkpt lat="42.293229" lon="2.865540">
        <ele>192.031</ele>
        <time>2020-10-17T11:12:21Z</time>
      </trkpt>
      <trkpt lat="42.293332" lon="2.865473">
        <ele>191.517</ele>
        <time>2020-10-17T11:12:23Z</time>
      </trkpt>
      <trkpt lat="42.293393" lon="2.865428">
        <ele>191.086</ele>
        <time>2020-10-17T11:12:24Z</time>
      </trkpt>
      <trkpt lat="42.293519" lon="2.865334">
        <ele>191.057</ele>
        <time>2020-10-17T11:12:26Z</time>
      </trkpt>
      <trkpt lat="42.293630" lon="2.865233">
        <ele>191.022</ele>
        <time>2020-10-17T11:12:28Z</time>
      </trkpt>
      <trkpt lat="42.293729" lon="2.865141">
        <ele>191.362</ele>
        <time>2020-10-17T11:12:30Z</time>
      </trkpt>
      <trkpt lat="42.293785" lon="2.865089">
        <ele>191.508</ele>
        <time>2020-10-17T11:12:31Z</time>
      </trkpt>
      <trkpt lat="42.293908" lon="2.864973">
        <ele>191.608</ele>
        <time>2020-10-17T11:12:33Z</time>
      </trkpt>
      <trkpt lat="42.294030" lon="2.864879">
        <ele>191.857</ele>
        <time>2020-10-17T11:12:35Z</time>
      </trkpt>
      <trkpt lat="42.294092" lon="2.864843">
        <ele>191.880</ele>
        <time>2020-10-17T11:12:36Z</time>
      </trkpt>
      <trkpt lat="42.294159" lon="2.864791">
        <ele>191.849</ele>
        <time>2020-10-17T11:12:37Z</time>
      </trkpt>
      <trkpt lat="42.294302" lon="2.864669">
        <ele>191.862</ele>
        <time>2020-10-17T11:12:39Z</time>
      </trkpt>
      <trkpt lat="42.294351" lon="2.864613">
        <ele>191.724</ele>
        <time>2020-10-17T11:12:40Z</time>
      </trkpt>
      <trkpt lat="42.294373" lon="2.864550">
        <ele>191.520</ele>
        <time>2020-10-17T11:12:41Z</time>
      </trkpt>
      <trkpt lat="42.294429" lon="2.864417">
        <ele>191.629</ele>
        <time>2020-10-17T11:12:43Z</time>
      </trkpt>
      <trkpt lat="42.294494" lon="2.864287">
        <ele>192.140</ele>
        <time>2020-10-17T11:12:45Z</time>
      </trkpt>
      <trkpt lat="42.294529" lon="2.864213">
        <ele>192.596</ele>
        <time>2020-10-17T11:12:46Z</time>
      </trkpt>
      <trkpt lat="42.294575" lon="2.864141">
        <ele>192.731</ele>
        <time>2020-10-17T11:12:47Z</time>
      </trkpt>
      <trkpt lat="42.294667" lon="2.864005">
        <ele>193.324</ele>
        <time>2020-10-17T11:12:49Z</time>
      </trkpt>
      <trkpt lat="42.294745" lon="2.863912">
        <ele>194.208</ele>
        <time>2020-10-17T11:12:51Z</time>
      </trkpt>
      <trkpt lat="42.294786" lon="2.863872">
        <ele>194.584</ele>
        <time>2020-10-17T11:12:53Z</time>
      </trkpt>
      <trkpt lat="42.294845" lon="2.863834">
        <ele>194.677</ele>
        <time>2020-10-17T11:12:56Z</time>
      </trkpt>
      <trkpt lat="42.294928" lon="2.863804">
        <ele>194.886</ele>
        <time>2020-10-17T11:12:58Z</time>
      </trkpt>
      <trkpt lat="42.294972" lon="2.863819">
        <ele>195.389</ele>
        <time>2020-10-17T11:12:59Z</time>
      </trkpt>
      <trkpt lat="42.295063" lon="2.863859">
        <ele>196.011</ele>
        <time>2020-10-17T11:13:01Z</time>
      </trkpt>
      <trkpt lat="42.295152" lon="2.863923">
        <ele>196.937</ele>
        <time>2020-10-17T11:13:03Z</time>
      </trkpt>
      <trkpt lat="42.295203" lon="2.863950">
        <ele>197.996</ele>
        <time>2020-10-17T11:13:04Z</time>
      </trkpt>
      <trkpt lat="42.295258" lon="2.863967">
        <ele>198.747</ele>
        <time>2020-10-17T11:13:05Z</time>
      </trkpt>
      <trkpt lat="42.295378" lon="2.864021">
        <ele>199.277</ele>
        <time>2020-10-17T11:13:07Z</time>
      </trkpt>
      <trkpt lat="42.295479" lon="2.864059">
        <ele>199.961</ele>
        <time>2020-10-17T11:13:09Z</time>
      </trkpt>
      <trkpt lat="42.295534" lon="2.864058">
        <ele>199.927</ele>
        <time>2020-10-17T11:13:10Z</time>
      </trkpt>
      <trkpt lat="42.295635" lon="2.864024">
        <ele>199.608</ele>
        <time>2020-10-17T11:13:12Z</time>
      </trkpt>
      <trkpt lat="42.295717" lon="2.863994">
        <ele>199.412</ele>
        <time>2020-10-17T11:13:14Z</time>
      </trkpt>
      <trkpt lat="42.295794" lon="2.863950">
        <ele>199.475</ele>
        <time>2020-10-17T11:13:16Z</time>
      </trkpt>
      <trkpt lat="42.295843" lon="2.863942">
        <ele>199.374</ele>
        <time>2020-10-17T11:13:18Z</time>
      </trkpt>
      <trkpt lat="42.295910" lon="2.863963">
        <ele>199.397</ele>
        <time>2020-10-17T11:13:19Z</time>
      </trkpt>
      <trkpt lat="42.295955" lon="2.863991">
        <ele>199.469</ele>
        <time>2020-10-17T11:13:20Z</time>
      </trkpt>
      <trkpt lat="42.296013" lon="2.864017">
        <ele>199.455</ele>
        <time>2020-10-17T11:13:21Z</time>
      </trkpt>
      <trkpt lat="42.296128" lon="2.864054">
        <ele>200.244</ele>
        <time>2020-10-17T11:13:23Z</time>
      </trkpt>
      <trkpt lat="42.296284" lon="2.864071">
        <ele>200.325</ele>
        <time>2020-10-17T11:13:25Z</time>
      </trkpt>
      <trkpt lat="42.296368" lon="2.864085">
        <ele>200.033</ele>
        <time>2020-10-17T11:13:26Z</time>
      </trkpt>
      <trkpt lat="42.296470" lon="2.864098">
        <ele>199.623</ele>
        <time>2020-10-17T11:13:28Z</time>
      </trkpt>
      <trkpt lat="42.296526" lon="2.864127">
        <ele>199.615</ele>
        <time>2020-10-17T11:13:29Z</time>
      </trkpt>
      <trkpt lat="42.296618" lon="2.864176">
        <ele>199.308</ele>
        <time>2020-10-17T11:13:31Z</time>
      </trkpt>
      <trkpt lat="42.296675" lon="2.864185">
        <ele>199.268</ele>
        <time>2020-10-17T11:13:33Z</time>
      </trkpt>
      <trkpt lat="42.296721" lon="2.864190">
        <ele>198.481</ele>
        <time>2020-10-17T11:13:35Z</time>
      </trkpt>
      <trkpt lat="42.296776" lon="2.864187">
        <ele>197.470</ele>
        <time>2020-10-17T11:13:37Z</time>
      </trkpt>
      <trkpt lat="42.296820" lon="2.864208">
        <ele>196.883</ele>
        <time>2020-10-17T11:13:39Z</time>
      </trkpt>
      <trkpt lat="42.296873" lon="2.864221">
        <ele>196.235</ele>
        <time>2020-10-17T11:13:41Z</time>
      </trkpt>
      <trkpt lat="42.296952" lon="2.864210">
        <ele>196.061</ele>
        <time>2020-10-17T11:13:43Z</time>
      </trkpt>
      <trkpt lat="42.297034" lon="2.864168">
        <ele>196.220</ele>
        <time>2020-10-17T11:13:45Z</time>
      </trkpt>
      <trkpt lat="42.297080" lon="2.864134">
        <ele>196.021</ele>
        <time>2020-10-17T11:13:46Z</time>
      </trkpt>
      <trkpt lat="42.297133" lon="2.864103">
        <ele>195.843</ele>
        <time>2020-10-17T11:13:47Z</time>
      </trkpt>
      <trkpt lat="42.297207" lon="2.864081">
        <ele>195.464</ele>
        <time>2020-10-17T11:13:49Z</time>
      </trkpt>
      <trkpt lat="42.297274" lon="2.864080">
        <ele>196.710</ele>
        <time>2020-10-17T11:13:51Z</time>
      </trkpt>
      <trkpt lat="42.297334" lon="2.864116">
        <ele>201.308</ele>
        <time>2020-10-17T11:14:02Z</time>
      </trkpt>
      <trkpt lat="42.297400" lon="2.864090">
        <ele>201.729</ele>
        <time>2020-10-17T11:14:05Z</time>
      </trkpt>
      <trkpt lat="42.297446" lon="2.864055">
        <ele>201.832</ele>
        <time>2020-10-17T11:14:07Z</time>
      </trkpt>
      <trkpt lat="42.297480" lon="2.863987">
        <ele>202.581</ele>
        <time>2020-10-17T11:14:10Z</time>
      </trkpt>
      <trkpt lat="42.297516" lon="2.863921">
        <ele>203.524</ele>
        <time>2020-10-17T11:14:13Z</time>
      </trkpt>
      <trkpt lat="42.297557" lon="2.863894">
        <ele>204.386</ele>
        <time>2020-10-17T11:14:16Z</time>
      </trkpt>
      <trkpt lat="42.297601" lon="2.863874">
        <ele>205.492</ele>
        <time>2020-10-17T11:14:20Z</time>
      </trkpt>
      <trkpt lat="42.297646" lon="2.863856">
        <ele>206.631</ele>
        <time>2020-10-17T11:14:26Z</time>
      </trkpt>
      <trkpt lat="42.297679" lon="2.863799">
        <ele>207.722</ele>
        <time>2020-10-17T11:14:31Z</time>
      </trkpt>
      <trkpt lat="42.297695" lon="2.863589">
        <ele>208.171</ele>
        <time>2020-10-17T11:14:33Z</time>
      </trkpt>
      <trkpt lat="42.297699" lon="2.863496">
        <ele>207.941</ele>
        <time>2020-10-17T11:14:34Z</time>
      </trkpt>
      <trkpt lat="42.297701" lon="2.863400">
        <ele>207.415</ele>
        <time>2020-10-17T11:14:35Z</time>
      </trkpt>
      <trkpt lat="42.297693" lon="2.863237">
        <ele>207.208</ele>
        <time>2020-10-17T11:14:37Z</time>
      </trkpt>
      <trkpt lat="42.297685" lon="2.863171">
        <ele>207.452</ele>
        <time>2020-10-17T11:14:38Z</time>
      </trkpt>
      <trkpt lat="42.297636" lon="2.863092">
        <ele>207.665</ele>
        <time>2020-10-17T11:14:40Z</time>
      </trkpt>
      <trkpt lat="42.297549" lon="2.863090">
        <ele>209.344</ele>
        <time>2020-10-17T11:14:42Z</time>
      </trkpt>
      <trkpt lat="42.297499" lon="2.863096">
        <ele>210.647</ele>
        <time>2020-10-17T11:14:43Z</time>
      </trkpt>
      <trkpt lat="42.297419" lon="2.863062">
        <ele>211.569</ele>
        <time>2020-10-17T11:14:45Z</time>
      </trkpt>
      <trkpt lat="42.297383" lon="2.863000">
        <ele>211.715</ele>
        <time>2020-10-17T11:14:46Z</time>
      </trkpt>
      <trkpt lat="42.297353" lon="2.862919">
        <ele>211.684</ele>
        <time>2020-10-17T11:14:47Z</time>
      </trkpt>
      <trkpt lat="42.297297" lon="2.862701">
        <ele>212.485</ele>
        <time>2020-10-17T11:14:49Z</time>
      </trkpt>
      <trkpt lat="42.297263" lon="2.862581">
        <ele>213.038</ele>
        <time>2020-10-17T11:14:50Z</time>
      </trkpt>
      <trkpt lat="42.297205" lon="2.862367">
        <ele>213.670</ele>
        <time>2020-10-17T11:14:52Z</time>
      </trkpt>
      <trkpt lat="42.297162" lon="2.862182">
        <ele>213.917</ele>
        <time>2020-10-17T11:14:54Z</time>
      </trkpt>
      <trkpt lat="42.297143" lon="2.862087">
        <ele>214.608</ele>
        <time>2020-10-17T11:14:55Z</time>
      </trkpt>
      <trkpt lat="42.297126" lon="2.861987">
        <ele>214.648</ele>
        <time>2020-10-17T11:14:56Z</time>
      </trkpt>
      <trkpt lat="42.297109" lon="2.861885">
        <ele>214.581</ele>
        <time>2020-10-17T11:14:57Z</time>
      </trkpt>
      <trkpt lat="42.297086" lon="2.861691">
        <ele>215.090</ele>
        <time>2020-10-17T11:14:59Z</time>
      </trkpt>
      <trkpt lat="42.297098" lon="2.861603">
        <ele>215.153</ele>
        <time>2020-10-17T11:15:00Z</time>
      </trkpt>
      <trkpt lat="42.297196" lon="2.861471">
        <ele>215.365</ele>
        <time>2020-10-17T11:15:02Z</time>
      </trkpt>
      <trkpt lat="42.297298" lon="2.861324">
        <ele>215.921</ele>
        <time>2020-10-17T11:15:04Z</time>
      </trkpt>
      <trkpt lat="42.297333" lon="2.861237">
        <ele>216.330</ele>
        <time>2020-10-17T11:15:05Z</time>
      </trkpt>
      <trkpt lat="42.297348" lon="2.861147">
        <ele>216.521</ele>
        <time>2020-10-17T11:15:06Z</time>
      </trkpt>
      <trkpt lat="42.297240" lon="2.861011">
        <ele>215.967</ele>
        <time>2020-10-17T11:15:08Z</time>
      </trkpt>
      <trkpt lat="42.297093" lon="2.860939">
        <ele>215.181</ele>
        <time>2020-10-17T11:15:10Z</time>
      </trkpt>
      <trkpt lat="42.297024" lon="2.860908">
        <ele>215.019</ele>
        <time>2020-10-17T11:15:11Z</time>
      </trkpt>
      <trkpt lat="42.296951" lon="2.860826">
        <ele>215.808</ele>
        <time>2020-10-17T11:15:13Z</time>
      </trkpt>
      <trkpt lat="42.296938" lon="2.860732">
        <ele>217.261</ele>
        <time>2020-10-17T11:15:15Z</time>
      </trkpt>
      <trkpt lat="42.296884" lon="2.860640">
        <ele>218.854</ele>
        <time>2020-10-17T11:15:42Z</time>
      </trkpt>
      <trkpt lat="42.296840" lon="2.860572">
        <ele>217.613</ele>
        <time>2020-10-17T11:15:44Z</time>
      </trkpt>
      <trkpt lat="42.296800" lon="2.860517">
        <ele>216.666</ele>
        <time>2020-10-17T11:15:45Z</time>
      </trkpt>
      <trkpt lat="42.296727" lon="2.860440">
        <ele>215.618</ele>
        <time>2020-10-17T11:15:48Z</time>
      </trkpt>
      <trkpt lat="42.296649" lon="2.860434">
        <ele>215.754</ele>
        <time>2020-10-17T11:15:50Z</time>
      </trkpt>
      <trkpt lat="42.296586" lon="2.860461">
        <ele>216.013</ele>
        <time>2020-10-17T11:15:52Z</time>
      </trkpt>
      <trkpt lat="42.296517" lon="2.860492">
        <ele>215.924</ele>
        <time>2020-10-17T11:15:54Z</time>
      </trkpt>
      <trkpt lat="42.296446" lon="2.860519">
        <ele>217.023</ele>
        <time>2020-10-17T11:15:56Z</time>
      </trkpt>
      <trkpt lat="42.296352" lon="2.860649">
        <ele>220.283</ele>
        <time>2020-10-17T11:16:22Z</time>
      </trkpt>
      <trkpt lat="42.296336" lon="2.860714">
        <ele>219.811</ele>
        <time>2020-10-17T11:16:27Z</time>
      </trkpt>
      <trkpt lat="42.296317" lon="2.860788">
        <ele>219.808</ele>
        <time>2020-10-17T11:16:34Z</time>
      </trkpt>
      <trkpt lat="42.296288" lon="2.860838">
        <ele>219.967</ele>
        <time>2020-10-17T11:16:36Z</time>
      </trkpt>
      <trkpt lat="42.296254" lon="2.860895">
        <ele>219.840</ele>
        <time>2020-10-17T11:16:38Z</time>
      </trkpt>
      <trkpt lat="42.296216" lon="2.860947">
        <ele>219.129</ele>
        <time>2020-10-17T11:16:40Z</time>
      </trkpt>
      <trkpt lat="42.296178" lon="2.860993">
        <ele>218.662</ele>
        <time>2020-10-17T11:16:42Z</time>
      </trkpt>
      <trkpt lat="42.296096" lon="2.861110">
        <ele>217.694</ele>
        <time>2020-10-17T11:16:57Z</time>
      </trkpt>
      <trkpt lat="42.296059" lon="2.861146">
        <ele>217.760</ele>
        <time>2020-10-17T11:17:00Z</time>
      </trkpt>
      <trkpt lat="42.296010" lon="2.861207">
        <ele>216.429</ele>
        <time>2020-10-17T11:17:04Z</time>
      </trkpt>
      <trkpt lat="42.295972" lon="2.861271">
        <ele>215.450</ele>
        <time>2020-10-17T11:17:06Z</time>
      </trkpt>
      <trkpt lat="42.295915" lon="2.861352">
        <ele>214.173</ele>
        <time>2020-10-17T11:17:08Z</time>
      </trkpt>
      <trkpt lat="42.295876" lon="2.861400">
        <ele>213.885</ele>
        <time>2020-10-17T11:17:09Z</time>
      </trkpt>
      <trkpt lat="42.295800" lon="2.861473">
        <ele>213.313</ele>
        <time>2020-10-17T11:17:11Z</time>
      </trkpt>
      <trkpt lat="42.295725" lon="2.861527">
        <ele>212.408</ele>
        <time>2020-10-17T11:17:13Z</time>
      </trkpt>
      <trkpt lat="42.295642" lon="2.861571">
        <ele>211.032</ele>
        <time>2020-10-17T11:17:15Z</time>
      </trkpt>
      <trkpt lat="42.295590" lon="2.861592">
        <ele>210.115</ele>
        <time>2020-10-17T11:17:16Z</time>
      </trkpt>
      <trkpt lat="42.295539" lon="2.861613">
        <ele>209.624</ele>
        <time>2020-10-17T11:17:17Z</time>
      </trkpt>
      <trkpt lat="42.295488" lon="2.861636">
        <ele>209.127</ele>
        <time>2020-10-17T11:17:18Z</time>
      </trkpt>
      <trkpt lat="42.295435" lon="2.861658">
        <ele>208.679</ele>
        <time>2020-10-17T11:17:19Z</time>
      </trkpt>
      <trkpt lat="42.295336" lon="2.861694">
        <ele>207.855</ele>
        <time>2020-10-17T11:17:21Z</time>
      </trkpt>
      <trkpt lat="42.295258" lon="2.861715">
        <ele>207.484</ele>
        <time>2020-10-17T11:17:23Z</time>
      </trkpt>
      <trkpt lat="42.295179" lon="2.861742">
        <ele>206.985</ele>
        <time>2020-10-17T11:17:25Z</time>
      </trkpt>
      <trkpt lat="42.295114" lon="2.861792">
        <ele>206.316</ele>
        <time>2020-10-17T11:17:27Z</time>
      </trkpt>
      <trkpt lat="42.295040" lon="2.861890">
        <ele>205.476</ele>
        <time>2020-10-17T11:17:30Z</time>
      </trkpt>
      <trkpt lat="42.294994" lon="2.861905">
        <ele>204.513</ele>
        <time>2020-10-17T11:17:32Z</time>
      </trkpt>
      <trkpt lat="42.294972" lon="2.861844">
        <ele>203.508</ele>
        <time>2020-10-17T11:17:42Z</time>
      </trkpt>
      <trkpt lat="42.294984" lon="2.861903">
        <ele>201.916</ele>
        <time>2020-10-17T11:17:50Z</time>
      </trkpt>
      <trkpt lat="42.295050" lon="2.861878">
        <ele>200.889</ele>
        <time>2020-10-17T11:17:52Z</time>
      </trkpt>
      <trkpt lat="42.295120" lon="2.861834">
        <ele>200.228</ele>
        <time>2020-10-17T11:17:54Z</time>
      </trkpt>
      <trkpt lat="42.295196" lon="2.861776">
        <ele>200.251</ele>
        <time>2020-10-17T11:17:56Z</time>
      </trkpt>
      <trkpt lat="42.295267" lon="2.861725">
        <ele>200.633</ele>
        <time>2020-10-17T11:17:58Z</time>
      </trkpt>
      <trkpt lat="42.295352" lon="2.861701">
        <ele>201.639</ele>
        <time>2020-10-17T11:18:00Z</time>
      </trkpt>
      <trkpt lat="42.295414" lon="2.861699">
        <ele>202.398</ele>
        <time>2020-10-17T11:18:01Z</time>
      </trkpt>
      <trkpt lat="42.295541" lon="2.861652">
        <ele>202.349</ele>
        <time>2020-10-17T11:18:03Z</time>
      </trkpt>
      <trkpt lat="42.295604" lon="2.861618">
        <ele>202.722</ele>
        <time>2020-10-17T11:18:04Z</time>
      </trkpt>
      <trkpt lat="42.295657" lon="2.861586">
        <ele>202.962</ele>
        <time>2020-10-17T11:18:05Z</time>
      </trkpt>
      <trkpt lat="42.295730" lon="2.861542">
        <ele>202.908</ele>
        <time>2020-10-17T11:18:07Z</time>
      </trkpt>
      <trkpt lat="42.295805" lon="2.861511">
        <ele>203.208</ele>
        <time>2020-10-17T11:18:09Z</time>
      </trkpt>
      <trkpt lat="42.295805" lon="2.861511">
        <ele>203.257</ele>
        <time>2020-10-17T11:18:09Z</time>
      </trkpt>
      <trkpt lat="42.295848" lon="2.861477">
        <ele>203.420</ele>
        <time>2020-10-17T11:18:10Z</time>
      </trkpt>
      <trkpt lat="42.295928" lon="2.861373">
        <ele>203.589</ele>
        <time>2020-10-17T11:18:12Z</time>
      </trkpt>
      <trkpt lat="42.295972" lon="2.861313">
        <ele>203.732</ele>
        <time>2020-10-17T11:18:13Z</time>
      </trkpt>
      <trkpt lat="42.296054" lon="2.861185">
        <ele>204.834</ele>
        <time>2020-10-17T11:18:15Z</time>
      </trkpt>
      <trkpt lat="42.296093" lon="2.861124">
        <ele>206.150</ele>
        <time>2020-10-17T11:18:16Z</time>
      </trkpt>
      <trkpt lat="42.296131" lon="2.861064">
        <ele>207.529</ele>
        <time>2020-10-17T11:18:17Z</time>
      </trkpt>
      <trkpt lat="42.296184" lon="2.860963">
        <ele>209.090</ele>
        <time>2020-10-17T11:18:19Z</time>
      </trkpt>
      <trkpt lat="42.296221" lon="2.860899">
        <ele>210.248</ele>
        <time>2020-10-17T11:18:21Z</time>
      </trkpt>
      <trkpt lat="42.296261" lon="2.860813">
        <ele>211.961</ele>
        <time>2020-10-17T11:18:23Z</time>
      </trkpt>
      <trkpt lat="42.296316" lon="2.860720">
        <ele>213.017</ele>
        <time>2020-10-17T11:18:25Z</time>
      </trkpt>
      <trkpt lat="42.296343" lon="2.860670">
        <ele>214.408</ele>
        <time>2020-10-17T11:18:26Z</time>
      </trkpt>
      <trkpt lat="42.296369" lon="2.860620">
        <ele>216.059</ele>
        <time>2020-10-17T11:18:28Z</time>
      </trkpt>
      <trkpt lat="42.296386" lon="2.860563">
        <ele>216.662</ele>
        <time>2020-10-17T11:18:32Z</time>
      </trkpt>
      <trkpt lat="42.296338" lon="2.860524">
        <ele>217.431</ele>
        <time>2020-10-17T11:18:43Z</time>
      </trkpt>
      <trkpt lat="42.296324" lon="2.860462">
        <ele>217.514</ele>
        <time>2020-10-17T11:18:45Z</time>
      </trkpt>
      <trkpt lat="42.296244" lon="2.860315">
        <ele>216.926</ele>
        <time>2020-10-17T11:18:51Z</time>
      </trkpt>
      <trkpt lat="42.296192" lon="2.860297">
        <ele>216.792</ele>
        <time>2020-10-17T11:18:52Z</time>
      </trkpt>
      <trkpt lat="42.296088" lon="2.860273">
        <ele>216.431</ele>
        <time>2020-10-17T11:18:54Z</time>
      </trkpt>
      <trkpt lat="42.295977" lon="2.860281">
        <ele>215.822</ele>
        <time>2020-10-17T11:18:56Z</time>
      </trkpt>
      <trkpt lat="42.295914" lon="2.860283">
        <ele>215.784</ele>
        <time>2020-10-17T11:18:57Z</time>
      </trkpt>
      <trkpt lat="42.295855" lon="2.860284">
        <ele>215.407</ele>
        <time>2020-10-17T11:18:58Z</time>
      </trkpt>
      <trkpt lat="42.295796" lon="2.860287">
        <ele>214.917</ele>
        <time>2020-10-17T11:18:59Z</time>
      </trkpt>
      <trkpt lat="42.295736" lon="2.860290">
        <ele>214.408</ele>
        <time>2020-10-17T11:19:00Z</time>
      </trkpt>
      <trkpt lat="42.295619" lon="2.860291">
        <ele>213.863</ele>
        <time>2020-10-17T11:19:02Z</time>
      </trkpt>
      <trkpt lat="42.295560" lon="2.860291">
        <ele>213.456</ele>
        <time>2020-10-17T11:19:03Z</time>
      </trkpt>
      <trkpt lat="42.295445" lon="2.860296">
        <ele>212.955</ele>
        <time>2020-10-17T11:19:05Z</time>
      </trkpt>
      <trkpt lat="42.295320" lon="2.860301">
        <ele>211.998</ele>
        <time>2020-10-17T11:19:07Z</time>
      </trkpt>
      <trkpt lat="42.295255" lon="2.860299">
        <ele>211.220</ele>
        <time>2020-10-17T11:19:08Z</time>
      </trkpt>
      <trkpt lat="42.295192" lon="2.860297">
        <ele>211.046</ele>
        <time>2020-10-17T11:19:09Z</time>
      </trkpt>
      <trkpt lat="42.295085" lon="2.860299">
        <ele>210.135</ele>
        <time>2020-10-17T11:19:11Z</time>
      </trkpt>
      <trkpt lat="42.295005" lon="2.860286">
        <ele>208.736</ele>
        <time>2020-10-17T11:19:13Z</time>
      </trkpt>
      <trkpt lat="42.294961" lon="2.860274">
        <ele>207.112</ele>
        <time>2020-10-17T11:19:15Z</time>
      </trkpt>
      <trkpt lat="42.294912" lon="2.860260">
        <ele>205.732</ele>
        <time>2020-10-17T11:19:18Z</time>
      </trkpt>
      <trkpt lat="42.294878" lon="2.860209">
        <ele>205.005</ele>
        <time>2020-10-17T11:19:20Z</time>
      </trkpt>
      <trkpt lat="42.294865" lon="2.860144">
        <ele>204.508</ele>
        <time>2020-10-17T11:19:22Z</time>
      </trkpt>
      <trkpt lat="42.294865" lon="2.860055">
        <ele>204.086</ele>
        <time>2020-10-17T11:19:24Z</time>
      </trkpt>
      <trkpt lat="42.294887" lon="2.859896">
        <ele>203.129</ele>
        <time>2020-10-17T11:19:27Z</time>
      </trkpt>
      <trkpt lat="42.294884" lon="2.859737">
        <ele>203.178</ele>
        <time>2020-10-17T11:19:29Z</time>
      </trkpt>
      <trkpt lat="42.294874" lon="2.859607">
        <ele>202.421</ele>
        <time>2020-10-17T11:19:31Z</time>
      </trkpt>
      <trkpt lat="42.294868" lon="2.859544">
        <ele>201.853</ele>
        <time>2020-10-17T11:19:32Z</time>
      </trkpt>
      <trkpt lat="42.294832" lon="2.859476">
        <ele>200.519</ele>
        <time>2020-10-17T11:19:34Z</time>
      </trkpt>
      <trkpt lat="42.294787" lon="2.859440">
        <ele>199.578</ele>
        <time>2020-10-17T11:19:35Z</time>
      </trkpt>
      <trkpt lat="42.294741" lon="2.859395">
        <ele>198.929</ele>
        <time>2020-10-17T11:19:36Z</time>
      </trkpt>
      <trkpt lat="42.294694" lon="2.859345">
        <ele>198.159</ele>
        <time>2020-10-17T11:19:37Z</time>
      </trkpt>
      <trkpt lat="42.294621" lon="2.859253">
        <ele>197.403</ele>
        <time>2020-10-17T11:19:39Z</time>
      </trkpt>
      <trkpt lat="42.294547" lon="2.859204">
        <ele>197.123</ele>
        <time>2020-10-17T11:19:41Z</time>
      </trkpt>
      <trkpt lat="42.294478" lon="2.859227">
        <ele>197.108</ele>
        <time>2020-10-17T11:19:43Z</time>
      </trkpt>
      <trkpt lat="42.294409" lon="2.859255">
        <ele>196.310</ele>
        <time>2020-10-17T11:19:45Z</time>
      </trkpt>
      <trkpt lat="42.294352" lon="2.859255">
        <ele>195.823</ele>
        <time>2020-10-17T11:19:47Z</time>
      </trkpt>
      <trkpt lat="42.294268" lon="2.859260">
        <ele>195.982</ele>
        <time>2020-10-17T11:19:49Z</time>
      </trkpt>
      <trkpt lat="42.294186" lon="2.859272">
        <ele>195.655</ele>
        <time>2020-10-17T11:19:51Z</time>
      </trkpt>
      <trkpt lat="42.294139" lon="2.859284">
        <ele>195.657</ele>
        <time>2020-10-17T11:19:52Z</time>
      </trkpt>
      <trkpt lat="42.294093" lon="2.859294">
        <ele>195.173</ele>
        <time>2020-10-17T11:19:53Z</time>
      </trkpt>
      <trkpt lat="42.294048" lon="2.859304">
        <ele>194.452</ele>
        <time>2020-10-17T11:19:54Z</time>
      </trkpt>
      <trkpt lat="42.293968" lon="2.859317">
        <ele>194.093</ele>
        <time>2020-10-17T11:19:56Z</time>
      </trkpt>
      <trkpt lat="42.293921" lon="2.859317">
        <ele>192.875</ele>
        <time>2020-10-17T11:19:58Z</time>
      </trkpt>
      <trkpt lat="42.293909" lon="2.859253">
        <ele>191.228</ele>
        <time>2020-10-17T11:20:01Z</time>
      </trkpt>
      <trkpt lat="42.293903" lon="2.859146">
        <ele>190.620</ele>
        <time>2020-10-17T11:20:03Z</time>
      </trkpt>
      <trkpt lat="42.293887" lon="2.859032">
        <ele>190.608</ele>
        <time>2020-10-17T11:20:05Z</time>
      </trkpt>
      <trkpt lat="42.293878" lon="2.858967">
        <ele>190.652</ele>
        <time>2020-10-17T11:20:06Z</time>
      </trkpt>
      <trkpt lat="42.293861" lon="2.858827">
        <ele>190.785</ele>
        <time>2020-10-17T11:20:08Z</time>
      </trkpt>
      <trkpt lat="42.293840" lon="2.858663">
        <ele>190.064</ele>
        <time>2020-10-17T11:20:10Z</time>
      </trkpt>
      <trkpt lat="42.293825" lon="2.858539">
        <ele>189.757</ele>
        <time>2020-10-17T11:20:12Z</time>
      </trkpt>
      <trkpt lat="42.293813" lon="2.858446">
        <ele>189.029</ele>
        <time>2020-10-17T11:20:14Z</time>
      </trkpt>
      <trkpt lat="42.293809" lon="2.858385">
        <ele>188.895</ele>
        <time>2020-10-17T11:20:18Z</time>
      </trkpt>
      <trkpt lat="42.293793" lon="2.858328">
        <ele>188.874</ele>
        <time>2020-10-17T11:20:25Z</time>
      </trkpt>
      <trkpt lat="42.293770" lon="2.858222">
        <ele>188.595</ele>
        <time>2020-10-17T11:20:32Z</time>
      </trkpt>
      <trkpt lat="42.293751" lon="2.858150">
        <ele>186.815</ele>
        <time>2020-10-17T11:20:40Z</time>
      </trkpt>
      <trkpt lat="42.293703" lon="2.858118">
        <ele>186.665</ele>
        <time>2020-10-17T11:20:46Z</time>
      </trkpt>
      <trkpt lat="42.293652" lon="2.858109">
        <ele>187.611</ele>
        <time>2020-10-17T11:20:48Z</time>
      </trkpt>
      <trkpt lat="42.293519" lon="2.858051">
        <ele>187.108</ele>
        <time>2020-10-17T11:20:50Z</time>
      </trkpt>
      <trkpt lat="42.293296" lon="2.857986">
        <ele>187.056</ele>
        <time>2020-10-17T11:20:52Z</time>
      </trkpt>
      <trkpt lat="42.293158" lon="2.857935">
        <ele>186.369</ele>
        <time>2020-10-17T11:20:54Z</time>
      </trkpt>
      <trkpt lat="42.293078" lon="2.857904">
        <ele>185.568</ele>
        <time>2020-10-17T11:20:56Z</time>
      </trkpt>
      <trkpt lat="42.293005" lon="2.857833">
        <ele>184.061</ele>
        <time>2020-10-17T11:20:58Z</time>
      </trkpt>
      <trkpt lat="42.292935" lon="2.857771">
        <ele>183.543</ele>
        <time>2020-10-17T11:21:00Z</time>
      </trkpt>
      <trkpt lat="42.292890" lon="2.857738">
        <ele>183.339</ele>
        <time>2020-10-17T11:21:03Z</time>
      </trkpt>
      <trkpt lat="42.292776" lon="2.857728">
        <ele>183.528</ele>
        <time>2020-10-17T11:21:06Z</time>
      </trkpt>
      <trkpt lat="42.292719" lon="2.857749">
        <ele>184.079</ele>
        <time>2020-10-17T11:21:07Z</time>
      </trkpt>
      <trkpt lat="42.292621" lon="2.857814">
        <ele>185.046</ele>
        <time>2020-10-17T11:21:09Z</time>
      </trkpt>
      <trkpt lat="42.292512" lon="2.857894">
        <ele>185.888</ele>
        <time>2020-10-17T11:21:11Z</time>
      </trkpt>
      <trkpt lat="42.292411" lon="2.857965">
        <ele>186.216</ele>
        <time>2020-10-17T11:21:13Z</time>
      </trkpt>
      <trkpt lat="42.292340" lon="2.857981">
        <ele>186.408</ele>
        <time>2020-10-17T11:21:15Z</time>
      </trkpt>
      <trkpt lat="42.292251" lon="2.857981">
        <ele>185.819</ele>
        <time>2020-10-17T11:21:17Z</time>
      </trkpt>
      <trkpt lat="42.292200" lon="2.857984">
        <ele>185.082</ele>
        <time>2020-10-17T11:21:18Z</time>
      </trkpt>
      <trkpt lat="42.292151" lon="2.858003">
        <ele>184.621</ele>
        <time>2020-10-17T11:21:19Z</time>
      </trkpt>
      <trkpt lat="42.292067" lon="2.858069">
        <ele>183.084</ele>
        <time>2020-10-17T11:21:21Z</time>
      </trkpt>
      <trkpt lat="42.291986" lon="2.858113">
        <ele>182.596</ele>
        <time>2020-10-17T11:21:23Z</time>
      </trkpt>
      <trkpt lat="42.291947" lon="2.858146">
        <ele>182.722</ele>
        <time>2020-10-17T11:21:24Z</time>
      </trkpt>
      <trkpt lat="42.291866" lon="2.858199">
        <ele>182.671</ele>
        <time>2020-10-17T11:21:26Z</time>
      </trkpt>
      <trkpt lat="42.291817" lon="2.858234">
        <ele>182.472</ele>
        <time>2020-10-17T11:21:27Z</time>
      </trkpt>
      <trkpt lat="42.291730" lon="2.858286">
        <ele>182.476</ele>
        <time>2020-10-17T11:21:29Z</time>
      </trkpt>
      <trkpt lat="42.291676" lon="2.858350">
        <ele>182.390</ele>
        <time>2020-10-17T11:21:31Z</time>
      </trkpt>
      <trkpt lat="42.291655" lon="2.858416">
        <ele>181.519</ele>
        <time>2020-10-17T11:21:33Z</time>
      </trkpt>
      <trkpt lat="42.291638" lon="2.858472">
        <ele>181.408</ele>
        <time>2020-10-17T11:21:35Z</time>
      </trkpt>
      <trkpt lat="42.291640" lon="2.858552">
        <ele>182.222</ele>
        <time>2020-10-17T11:21:38Z</time>
      </trkpt>
      <trkpt lat="42.291603" lon="2.858607">
        <ele>182.145</ele>
        <time>2020-10-17T11:21:51Z</time>
      </trkpt>
      <trkpt lat="42.291556" lon="2.858648">
        <ele>182.294</ele>
        <time>2020-10-17T11:21:54Z</time>
      </trkpt>
      <trkpt lat="42.291541" lon="2.858711">
        <ele>181.697</ele>
        <time>2020-10-17T11:21:57Z</time>
      </trkpt>
      <trkpt lat="42.291534" lon="2.858774">
        <ele>180.489</ele>
        <time>2020-10-17T11:22:02Z</time>
      </trkpt>
      <trkpt lat="42.291542" lon="2.858712">
        <ele>180.625</ele>
        <time>2020-10-17T11:22:28Z</time>
      </trkpt>
      <trkpt lat="42.291504" lon="2.858612">
        <ele>179.834</ele>
        <time>2020-10-17T11:22:30Z</time>
      </trkpt>
      <trkpt lat="42.291477" lon="2.858557">
        <ele>179.125</ele>
        <time>2020-10-17T11:22:31Z</time>
      </trkpt>
      <trkpt lat="42.291450" lon="2.858490">
        <ele>178.787</ele>
        <time>2020-10-17T11:22:32Z</time>
      </trkpt>
      <trkpt lat="42.291421" lon="2.858392">
        <ele>178.542</ele>
        <time>2020-10-17T11:22:34Z</time>
      </trkpt>
      <trkpt lat="42.291389" lon="2.858281">
        <ele>176.926</ele>
        <time>2020-10-17T11:22:37Z</time>
      </trkpt>
      <trkpt lat="42.291371" lon="2.858197">
        <ele>175.908</ele>
        <time>2020-10-17T11:22:38Z</time>
      </trkpt>
      <trkpt lat="42.291337" lon="2.857989">
        <ele>175.223</ele>
        <time>2020-10-17T11:22:40Z</time>
      </trkpt>
      <trkpt lat="42.291317" lon="2.857889">
        <ele>175.066</ele>
        <time>2020-10-17T11:22:41Z</time>
      </trkpt>
      <trkpt lat="42.291298" lon="2.857827">
        <ele>174.655</ele>
        <time>2020-10-17T11:22:42Z</time>
      </trkpt>
      <trkpt lat="42.291234" lon="2.857728">
        <ele>174.628</ele>
        <time>2020-10-17T11:22:44Z</time>
      </trkpt>
      <trkpt lat="42.291180" lon="2.857634">
        <ele>174.160</ele>
        <time>2020-10-17T11:22:46Z</time>
      </trkpt>
      <trkpt lat="42.291136" lon="2.857566">
        <ele>173.946</ele>
        <time>2020-10-17T11:22:48Z</time>
      </trkpt>
      <trkpt lat="42.291109" lon="2.857500">
        <ele>173.555</ele>
        <time>2020-10-17T11:22:52Z</time>
      </trkpt>
      <trkpt lat="42.291054" lon="2.857421">
        <ele>173.286</ele>
        <time>2020-10-17T11:22:55Z</time>
      </trkpt>
      <trkpt lat="42.291002" lon="2.857372">
        <ele>172.663</ele>
        <time>2020-10-17T11:22:57Z</time>
      </trkpt>
      <trkpt lat="42.290946" lon="2.857306">
        <ele>172.544</ele>
        <time>2020-10-17T11:22:59Z</time>
      </trkpt>
      <trkpt lat="42.290915" lon="2.857241">
        <ele>172.018</ele>
        <time>2020-10-17T11:23:00Z</time>
      </trkpt>
      <trkpt lat="42.290889" lon="2.857167">
        <ele>171.208</ele>
        <time>2020-10-17T11:23:01Z</time>
      </trkpt>
      <trkpt lat="42.290846" lon="2.856992">
        <ele>170.611</ele>
        <time>2020-10-17T11:23:03Z</time>
      </trkpt>
      <trkpt lat="42.290826" lon="2.856840">
        <ele>171.584</ele>
        <time>2020-10-17T11:23:05Z</time>
      </trkpt>
      <trkpt lat="42.290818" lon="2.856771">
        <ele>171.413</ele>
        <time>2020-10-17T11:23:06Z</time>
      </trkpt>
      <trkpt lat="42.290807" lon="2.856644">
        <ele>171.996</ele>
        <time>2020-10-17T11:23:08Z</time>
      </trkpt>
      <trkpt lat="42.290792" lon="2.856541">
        <ele>173.528</ele>
        <time>2020-10-17T11:23:10Z</time>
      </trkpt>
      <trkpt lat="42.290770" lon="2.856446">
        <ele>174.294</ele>
        <time>2020-10-17T11:23:12Z</time>
      </trkpt>
      <trkpt lat="42.290753" lon="2.856323">
        <ele>174.863</ele>
        <time>2020-10-17T11:23:14Z</time>
      </trkpt>
      <trkpt lat="42.290742" lon="2.856254">
        <ele>175.624</ele>
        <time>2020-10-17T11:23:15Z</time>
      </trkpt>
      <trkpt lat="42.290728" lon="2.856177">
        <ele>176.216</ele>
        <time>2020-10-17T11:23:16Z</time>
      </trkpt>
      <trkpt lat="42.290714" lon="2.856104">
        <ele>176.576</ele>
        <time>2020-10-17T11:23:17Z</time>
      </trkpt>
      <trkpt lat="42.290696" lon="2.855991">
        <ele>177.413</ele>
        <time>2020-10-17T11:23:19Z</time>
      </trkpt>
      <trkpt lat="42.290676" lon="2.855889">
        <ele>177.808</ele>
        <time>2020-10-17T11:23:21Z</time>
      </trkpt>
      <trkpt lat="42.290673" lon="2.855754">
        <ele>178.016</ele>
        <time>2020-10-17T11:23:23Z</time>
      </trkpt>
      <trkpt lat="42.290683" lon="2.855617">
        <ele>178.349</ele>
        <time>2020-10-17T11:23:25Z</time>
      </trkpt>
      <trkpt lat="42.290713" lon="2.855539">
        <ele>179.058</ele>
        <time>2020-10-17T11:23:27Z</time>
      </trkpt>
      <trkpt lat="42.290727" lon="2.855460">
        <ele>179.311</ele>
        <time>2020-10-17T11:23:29Z</time>
      </trkpt>
      <trkpt lat="42.290731" lon="2.855352">
        <ele>180.093</ele>
        <time>2020-10-17T11:23:31Z</time>
      </trkpt>
      <trkpt lat="42.290760" lon="2.855268">
        <ele>180.559</ele>
        <time>2020-10-17T11:23:33Z</time>
      </trkpt>
      <trkpt lat="42.290790" lon="2.855205">
        <ele>181.328</ele>
        <time>2020-10-17T11:23:35Z</time>
      </trkpt>
      <trkpt lat="42.290820" lon="2.855120">
        <ele>182.989</ele>
        <time>2020-10-17T11:23:37Z</time>
      </trkpt>
      <trkpt lat="42.290843" lon="2.855042">
        <ele>184.127</ele>
        <time>2020-10-17T11:23:39Z</time>
      </trkpt>
      <trkpt lat="42.290834" lon="2.854952">
        <ele>185.468</ele>
        <time>2020-10-17T11:23:42Z</time>
      </trkpt>
      <trkpt lat="42.290812" lon="2.854892">
        <ele>186.314</ele>
        <time>2020-10-17T11:23:44Z</time>
      </trkpt>
      <trkpt lat="42.290754" lon="2.854776">
        <ele>195.008</ele>
        <time>2020-10-17T11:25:08Z</time>
      </trkpt>
      <trkpt lat="42.290725" lon="2.854693">
        <ele>194.727</ele>
        <time>2020-10-17T11:25:10Z</time>
      </trkpt>
      <trkpt lat="42.290693" lon="2.854613">
        <ele>194.830</ele>
        <time>2020-10-17T11:25:12Z</time>
      </trkpt>
      <trkpt lat="42.290669" lon="2.854558">
        <ele>194.859</ele>
        <time>2020-10-17T11:25:15Z</time>
      </trkpt>
      <trkpt lat="42.290606" lon="2.854558">
        <ele>194.942</ele>
        <time>2020-10-17T11:25:44Z</time>
      </trkpt>
      <trkpt lat="42.290461" lon="2.854570">
        <ele>194.234</ele>
        <time>2020-10-17T11:25:46Z</time>
      </trkpt>
      <trkpt lat="42.290386" lon="2.854588">
        <ele>194.160</ele>
        <time>2020-10-17T11:25:47Z</time>
      </trkpt>
      <trkpt lat="42.290321" lon="2.854614">
        <ele>193.819</ele>
        <time>2020-10-17T11:25:48Z</time>
      </trkpt>
      <trkpt lat="42.290252" lon="2.854644">
        <ele>192.980</ele>
        <time>2020-10-17T11:25:49Z</time>
      </trkpt>
      <trkpt lat="42.290139" lon="2.854725">
        <ele>192.669</ele>
        <time>2020-10-17T11:25:51Z</time>
      </trkpt>
      <trkpt lat="42.290096" lon="2.854781">
        <ele>194.104</ele>
        <time>2020-10-17T11:25:52Z</time>
      </trkpt>
      <trkpt lat="42.290054" lon="2.854834">
        <ele>195.124</ele>
        <time>2020-10-17T11:25:53Z</time>
      </trkpt>
      <trkpt lat="42.289930" lon="2.854897">
        <ele>195.708</ele>
        <time>2020-10-17T11:25:55Z</time>
      </trkpt>
      <trkpt lat="42.289853" lon="2.854882">
        <ele>195.311</ele>
        <time>2020-10-17T11:25:56Z</time>
      </trkpt>
      <trkpt lat="42.289773" lon="2.854850">
        <ele>194.844</ele>
        <time>2020-10-17T11:25:57Z</time>
      </trkpt>
      <trkpt lat="42.289609" lon="2.854769">
        <ele>194.413</ele>
        <time>2020-10-17T11:25:59Z</time>
      </trkpt>
      <trkpt lat="42.289541" lon="2.854740">
        <ele>194.446</ele>
        <time>2020-10-17T11:26:00Z</time>
      </trkpt>
      <trkpt lat="42.289443" lon="2.854689">
        <ele>195.368</ele>
        <time>2020-10-17T11:26:02Z</time>
      </trkpt>
      <trkpt lat="42.289361" lon="2.854602">
        <ele>195.464</ele>
        <time>2020-10-17T11:26:04Z</time>
      </trkpt>
      <trkpt lat="42.289336" lon="2.854551">
        <ele>195.243</ele>
        <time>2020-10-17T11:26:05Z</time>
      </trkpt>
      <trkpt lat="42.289293" lon="2.854497">
        <ele>194.834</ele>
        <time>2020-10-17T11:26:07Z</time>
      </trkpt>
      <trkpt lat="42.289221" lon="2.854490">
        <ele>193.521</ele>
        <time>2020-10-17T11:26:09Z</time>
      </trkpt>
      <trkpt lat="42.289175" lon="2.854510">
        <ele>193.141</ele>
        <time>2020-10-17T11:26:10Z</time>
      </trkpt>
      <trkpt lat="42.289122" lon="2.854512">
        <ele>192.705</ele>
        <time>2020-10-17T11:26:11Z</time>
      </trkpt>
      <trkpt lat="42.289024" lon="2.854503">
        <ele>191.608</ele>
        <time>2020-10-17T11:26:13Z</time>
      </trkpt>
      <trkpt lat="42.288915" lon="2.854408">
        <ele>190.757</ele>
        <time>2020-10-17T11:26:15Z</time>
      </trkpt>
      <trkpt lat="42.288778" lon="2.854250">
        <ele>189.710</ele>
        <time>2020-10-17T11:26:17Z</time>
      </trkpt>
      <trkpt lat="42.288778" lon="2.854250">
        <ele>189.729</ele>
        <time>2020-10-17T11:26:17Z</time>
      </trkpt>
      <trkpt lat="42.288639" lon="2.854136">
        <ele>190.362</ele>
        <time>2020-10-17T11:26:19Z</time>
      </trkpt>
      <trkpt lat="42.288580" lon="2.854106">
        <ele>190.464</ele>
        <time>2020-10-17T11:26:20Z</time>
      </trkpt>
      <trkpt lat="42.288526" lon="2.854085">
        <ele>190.320</ele>
        <time>2020-10-17T11:26:21Z</time>
      </trkpt>
      <trkpt lat="42.288390" lon="2.854052">
        <ele>189.919</ele>
        <time>2020-10-17T11:26:23Z</time>
      </trkpt>
      <trkpt lat="42.288269" lon="2.854101">
        <ele>189.970</ele>
        <time>2020-10-17T11:26:25Z</time>
      </trkpt>
      <trkpt lat="42.288228" lon="2.854132">
        <ele>189.233</ele>
        <time>2020-10-17T11:26:26Z</time>
      </trkpt>
      <trkpt lat="42.288160" lon="2.854204">
        <ele>189.223</ele>
        <time>2020-10-17T11:26:28Z</time>
      </trkpt>
      <trkpt lat="42.288127" lon="2.854261">
        <ele>189.815</ele>
        <time>2020-10-17T11:26:29Z</time>
      </trkpt>
      <trkpt lat="42.288078" lon="2.854377">
        <ele>189.908</ele>
        <time>2020-10-17T11:26:31Z</time>
      </trkpt>
      <trkpt lat="42.288023" lon="2.854502">
        <ele>189.738</ele>
        <time>2020-10-17T11:26:33Z</time>
      </trkpt>
      <trkpt lat="42.287972" lon="2.854624">
        <ele>189.121</ele>
        <time>2020-10-17T11:26:35Z</time>
      </trkpt>
      <trkpt lat="42.287945" lon="2.854689">
        <ele>189.180</ele>
        <time>2020-10-17T11:26:36Z</time>
      </trkpt>
      <trkpt lat="42.287827" lon="2.854715">
        <ele>190.223</ele>
        <time>2020-10-17T11:26:38Z</time>
      </trkpt>
      <trkpt lat="42.287688" lon="2.854718">
        <ele>190.815</ele>
        <time>2020-10-17T11:26:40Z</time>
      </trkpt>
      <trkpt lat="42.287607" lon="2.854738">
        <ele>191.171</ele>
        <time>2020-10-17T11:26:41Z</time>
      </trkpt>
      <trkpt lat="42.287444" lon="2.854820">
        <ele>191.730</ele>
        <time>2020-10-17T11:26:43Z</time>
      </trkpt>
      <trkpt lat="42.287352" lon="2.854868">
        <ele>193.991</ele>
        <time>2020-10-17T11:26:44Z</time>
      </trkpt>
      <trkpt lat="42.287186" lon="2.854971">
        <ele>195.078</ele>
        <time>2020-10-17T11:26:46Z</time>
      </trkpt>
      <trkpt lat="42.287036" lon="2.855018">
        <ele>196.333</ele>
        <time>2020-10-17T11:26:48Z</time>
      </trkpt>
      <trkpt lat="42.286962" lon="2.855033">
        <ele>196.426</ele>
        <time>2020-10-17T11:26:49Z</time>
      </trkpt>
      <trkpt lat="42.286894" lon="2.855045">
        <ele>196.408</ele>
        <time>2020-10-17T11:26:51Z</time>
      </trkpt>
      <trkpt lat="42.286850" lon="2.855075">
        <ele>196.532</ele>
        <time>2020-10-17T11:27:03Z</time>
      </trkpt>
      <trkpt lat="42.286789" lon="2.855059">
        <ele>196.475</ele>
        <time>2020-10-17T11:27:06Z</time>
      </trkpt>
      <trkpt lat="42.286742" lon="2.855053">
        <ele>196.374</ele>
        <time>2020-10-17T11:27:09Z</time>
      </trkpt>
      <trkpt lat="42.286688" lon="2.855091">
        <ele>195.577</ele>
        <time>2020-10-17T11:27:11Z</time>
      </trkpt>
      <trkpt lat="42.286599" lon="2.855223">
        <ele>195.089</ele>
        <time>2020-10-17T11:27:13Z</time>
      </trkpt>
      <trkpt lat="42.286559" lon="2.855284">
        <ele>194.565</ele>
        <time>2020-10-17T11:27:14Z</time>
      </trkpt>
      <trkpt lat="42.286479" lon="2.855410">
        <ele>193.814</ele>
        <time>2020-10-17T11:27:16Z</time>
      </trkpt>
      <trkpt lat="42.286399" lon="2.855531">
        <ele>193.645</ele>
        <time>2020-10-17T11:27:18Z</time>
      </trkpt>
      <trkpt lat="42.286338" lon="2.855647">
        <ele>194.258</ele>
        <time>2020-10-17T11:27:20Z</time>
      </trkpt>
      <trkpt lat="42.286307" lon="2.855707">
        <ele>195.152</ele>
        <time>2020-10-17T11:27:21Z</time>
      </trkpt>
      <trkpt lat="42.286276" lon="2.855766">
        <ele>196.217</ele>
        <time>2020-10-17T11:27:22Z</time>
      </trkpt>
      <trkpt lat="42.286231" lon="2.855875">
        <ele>196.908</ele>
        <time>2020-10-17T11:27:24Z</time>
      </trkpt>
      <trkpt lat="42.286158" lon="2.855966">
        <ele>197.390</ele>
        <time>2020-10-17T11:27:26Z</time>
      </trkpt>
      <trkpt lat="42.286062" lon="2.856033">
        <ele>198.213</ele>
        <time>2020-10-17T11:27:28Z</time>
      </trkpt>
      <trkpt lat="42.286009" lon="2.856054">
        <ele>198.872</ele>
        <time>2020-10-17T11:27:29Z</time>
      </trkpt>
      <trkpt lat="42.285893" lon="2.856082">
        <ele>198.525</ele>
        <time>2020-10-17T11:27:31Z</time>
      </trkpt>
      <trkpt lat="42.285824" lon="2.856112">
        <ele>198.447</ele>
        <time>2020-10-17T11:27:32Z</time>
      </trkpt>
      <trkpt lat="42.285711" lon="2.856212">
        <ele>198.513</ele>
        <time>2020-10-17T11:27:34Z</time>
      </trkpt>
      <trkpt lat="42.285618" lon="2.856322">
        <ele>198.972</ele>
        <time>2020-10-17T11:27:36Z</time>
      </trkpt>
      <trkpt lat="42.285555" lon="2.856379">
        <ele>199.183</ele>
        <time>2020-10-17T11:27:38Z</time>
      </trkpt>
      <trkpt lat="42.285480" lon="2.856479">
        <ele>199.086</ele>
        <time>2020-10-17T11:27:40Z</time>
      </trkpt>
      <trkpt lat="42.285418" lon="2.856537">
        <ele>198.960</ele>
        <time>2020-10-17T11:27:41Z</time>
      </trkpt>
      <trkpt lat="42.285290" lon="2.856641">
        <ele>198.926</ele>
        <time>2020-10-17T11:27:43Z</time>
      </trkpt>
      <trkpt lat="42.285214" lon="2.856691">
        <ele>198.508</ele>
        <time>2020-10-17T11:27:44Z</time>
      </trkpt>
      <trkpt lat="42.285051" lon="2.856751">
        <ele>198.273</ele>
        <time>2020-10-17T11:27:46Z</time>
      </trkpt>
      <trkpt lat="42.284891" lon="2.856790">
        <ele>198.166</ele>
        <time>2020-10-17T11:27:48Z</time>
      </trkpt>
      <trkpt lat="42.284751" lon="2.856833">
        <ele>197.975</ele>
        <time>2020-10-17T11:27:50Z</time>
      </trkpt>
      <trkpt lat="42.284653" lon="2.856949">
        <ele>198.168</ele>
        <time>2020-10-17T11:27:52Z</time>
      </trkpt>
      <trkpt lat="42.284617" lon="2.857028">
        <ele>198.230</ele>
        <time>2020-10-17T11:27:53Z</time>
      </trkpt>
      <trkpt lat="42.284582" lon="2.857109">
        <ele>198.376</ele>
        <time>2020-10-17T11:27:54Z</time>
      </trkpt>
      <trkpt lat="42.284518" lon="2.857251">
        <ele>198.855</ele>
        <time>2020-10-17T11:27:56Z</time>
      </trkpt>
      <trkpt lat="42.284447" lon="2.857348">
        <ele>199.476</ele>
        <time>2020-10-17T11:27:58Z</time>
      </trkpt>
      <trkpt lat="42.284405" lon="2.857395">
        <ele>199.435</ele>
        <time>2020-10-17T11:27:59Z</time>
      </trkpt>
      <trkpt lat="42.284289" lon="2.857487">
        <ele>200.586</ele>
        <time>2020-10-17T11:28:01Z</time>
      </trkpt>
      <trkpt lat="42.284154" lon="2.857556">
        <ele>201.014</ele>
        <time>2020-10-17T11:28:03Z</time>
      </trkpt>
      <trkpt lat="42.284081" lon="2.857584">
        <ele>201.408</ele>
        <time>2020-10-17T11:28:04Z</time>
      </trkpt>
      <trkpt lat="42.284017" lon="2.857634">
        <ele>201.748</ele>
        <time>2020-10-17T11:28:05Z</time>
      </trkpt>
      <trkpt lat="42.283973" lon="2.857676">
        <ele>202.381</ele>
        <time>2020-10-17T11:28:07Z</time>
      </trkpt>
      <trkpt lat="42.283978" lon="2.857745">
        <ele>202.410</ele>
        <time>2020-10-17T11:28:11Z</time>
      </trkpt>
      <trkpt lat="42.283946" lon="2.857843">
        <ele>202.993</ele>
        <time>2020-10-17T11:28:13Z</time>
      </trkpt>
      <trkpt lat="42.283897" lon="2.857919">
        <ele>203.245</ele>
        <time>2020-10-17T11:28:15Z</time>
      </trkpt>
      <trkpt lat="42.283872" lon="2.857972">
        <ele>203.031</ele>
        <time>2020-10-17T11:28:16Z</time>
      </trkpt>
      <trkpt lat="42.283847" lon="2.858024">
        <ele>203.070</ele>
        <time>2020-10-17T11:28:17Z</time>
      </trkpt>
      <trkpt lat="42.283811" lon="2.858088">
        <ele>203.551</ele>
        <time>2020-10-17T11:28:18Z</time>
      </trkpt>
      <trkpt lat="42.283779" lon="2.858146">
        <ele>203.241</ele>
        <time>2020-10-17T11:28:20Z</time>
      </trkpt>
      <trkpt lat="42.283779" lon="2.858146">
        <ele>203.281</ele>
        <time>2020-10-17T11:28:20Z</time>
      </trkpt>
      <trkpt lat="42.283736" lon="2.858170">
        <ele>205.009</ele>
        <time>2020-10-17T11:28:29Z</time>
      </trkpt>
      <trkpt lat="42.283690" lon="2.858136">
        <ele>207.208</ele>
        <time>2020-10-17T11:28:39Z</time>
      </trkpt>
      <trkpt lat="42.283657" lon="2.858089">
        <ele>209.269</ele>
        <time>2020-10-17T11:28:42Z</time>
      </trkpt>
      <trkpt lat="42.283625" lon="2.858139">
        <ele>210.862</ele>
        <time>2020-10-17T11:28:47Z</time>
      </trkpt>
      <trkpt lat="42.283606" lon="2.858221">
        <ele>211.321</ele>
        <time>2020-10-17T11:28:55Z</time>
      </trkpt>
      <trkpt lat="42.283578" lon="2.858279">
        <ele>212.174</ele>
        <time>2020-10-17T11:28:57Z</time>
      </trkpt>
      <trkpt lat="42.283545" lon="2.858341">
        <ele>212.856</ele>
        <time>2020-10-17T11:29:00Z</time>
      </trkpt>
      <trkpt lat="42.283485" lon="2.858425">
        <ele>215.362</ele>
        <time>2020-10-17T11:29:03Z</time>
      </trkpt>
      <trkpt lat="42.283369" lon="2.858581">
        <ele>216.641</ele>
        <time>2020-10-17T11:29:05Z</time>
      </trkpt>
      <trkpt lat="42.283275" lon="2.858697">
        <ele>217.342</ele>
        <time>2020-10-17T11:29:07Z</time>
      </trkpt>
      <trkpt lat="42.283173" lon="2.858803">
        <ele>218.365</ele>
        <time>2020-10-17T11:29:09Z</time>
      </trkpt>
      <trkpt lat="42.283092" lon="2.858922">
        <ele>219.668</ele>
        <time>2020-10-17T11:29:11Z</time>
      </trkpt>
      <trkpt lat="42.282987" lon="2.859008">
        <ele>219.814</ele>
        <time>2020-10-17T11:29:13Z</time>
      </trkpt>
      <trkpt lat="42.282928" lon="2.859042">
        <ele>221.708</ele>
        <time>2020-10-17T11:29:14Z</time>
      </trkpt>
      <trkpt lat="42.282832" lon="2.859118">
        <ele>222.731</ele>
        <time>2020-10-17T11:29:16Z</time>
      </trkpt>
      <trkpt lat="42.282777" lon="2.859155">
        <ele>223.964</ele>
        <time>2020-10-17T11:29:17Z</time>
      </trkpt>
      <trkpt lat="42.282720" lon="2.859195">
        <ele>224.693</ele>
        <time>2020-10-17T11:29:18Z</time>
      </trkpt>
      <trkpt lat="42.282617" lon="2.859273">
        <ele>225.016</ele>
        <time>2020-10-17T11:29:20Z</time>
      </trkpt>
      <trkpt lat="42.282569" lon="2.859286">
        <ele>225.388</ele>
        <time>2020-10-17T11:29:22Z</time>
      </trkpt>
      <trkpt lat="42.282538" lon="2.859346">
        <ele>225.754</ele>
        <time>2020-10-17T11:29:27Z</time>
      </trkpt>
      <trkpt lat="42.282489" lon="2.859372">
        <ele>227.363</ele>
        <time>2020-10-17T11:29:29Z</time>
      </trkpt>
      <trkpt lat="42.282442" lon="2.859415">
        <ele>227.944</ele>
        <time>2020-10-17T11:29:32Z</time>
      </trkpt>
      <trkpt lat="42.282397" lon="2.859451">
        <ele>227.969</ele>
        <time>2020-10-17T11:29:35Z</time>
      </trkpt>
      <trkpt lat="42.282365" lon="2.859495">
        <ele>226.804</ele>
        <time>2020-10-17T11:29:37Z</time>
      </trkpt>
      <trkpt lat="42.282331" lon="2.859549">
        <ele>225.724</ele>
        <time>2020-10-17T11:29:39Z</time>
      </trkpt>
      <trkpt lat="42.282296" lon="2.859618">
        <ele>224.008</ele>
        <time>2020-10-17T11:29:41Z</time>
      </trkpt>
      <trkpt lat="42.282267" lon="2.859667">
        <ele>222.591</ele>
        <time>2020-10-17T11:29:43Z</time>
      </trkpt>
      <trkpt lat="42.282234" lon="2.859741">
        <ele>220.584</ele>
        <time>2020-10-17T11:29:46Z</time>
      </trkpt>
      <trkpt lat="42.282200" lon="2.859813">
        <ele>218.863</ele>
        <time>2020-10-17T11:29:49Z</time>
      </trkpt>
      <trkpt lat="42.282164" lon="2.859877">
        <ele>217.736</ele>
        <time>2020-10-17T11:29:52Z</time>
      </trkpt>
      <trkpt lat="42.282131" lon="2.859944">
        <ele>215.518</ele>
        <time>2020-10-17T11:29:55Z</time>
      </trkpt>
      <trkpt lat="42.282100" lon="2.860002">
        <ele>213.634</ele>
        <time>2020-10-17T11:29:57Z</time>
      </trkpt>
      <trkpt lat="42.282064" lon="2.860068">
        <ele>211.583</ele>
        <time>2020-10-17T11:29:59Z</time>
      </trkpt>
      <trkpt lat="42.282032" lon="2.860126">
        <ele>210.684</ele>
        <time>2020-10-17T11:30:02Z</time>
      </trkpt>
      <trkpt lat="42.281995" lon="2.860193">
        <ele>209.557</ele>
        <time>2020-10-17T11:30:05Z</time>
      </trkpt>
      <trkpt lat="42.281961" lon="2.860261">
        <ele>207.700</ele>
        <time>2020-10-17T11:30:07Z</time>
      </trkpt>
      <trkpt lat="42.281468" lon="2.861021">
        <ele>206.120</ele>
        <time>2020-10-17T11:30:19Z</time>
      </trkpt>
      <trkpt lat="42.281362" lon="2.861167">
        <ele>204.908</ele>
        <time>2020-10-17T11:30:21Z</time>
      </trkpt>
      <trkpt lat="42.281251" lon="2.861288">
        <ele>205.310</ele>
        <time>2020-10-17T11:30:23Z</time>
      </trkpt>
      <trkpt lat="42.281197" lon="2.861316">
        <ele>206.073</ele>
        <time>2020-10-17T11:30:24Z</time>
      </trkpt>
      <trkpt lat="42.281153" lon="2.861269">
        <ele>205.892</ele>
        <time>2020-10-17T11:30:27Z</time>
      </trkpt>
      <trkpt lat="42.281111" lon="2.861227">
        <ele>206.595</ele>
        <time>2020-10-17T11:30:28Z</time>
      </trkpt>
      <trkpt lat="42.281055" lon="2.861124">
        <ele>207.467</ele>
        <time>2020-10-17T11:30:30Z</time>
      </trkpt>
      <trkpt lat="42.281021" lon="2.861073">
        <ele>207.123</ele>
        <time>2020-10-17T11:30:31Z</time>
      </trkpt>
      <trkpt lat="42.280979" lon="2.861034">
        <ele>206.652</ele>
        <time>2020-10-17T11:30:33Z</time>
      </trkpt>
      <trkpt lat="42.280942" lon="2.860993">
        <ele>206.223</ele>
        <time>2020-10-17T11:30:34Z</time>
      </trkpt>
      <trkpt lat="42.280713" lon="2.860727">
        <ele>206.573</ele>
        <time>2020-10-17T11:30:41Z</time>
      </trkpt>
      <trkpt lat="42.280666" lon="2.860656">
        <ele>207.185</ele>
        <time>2020-10-17T11:30:43Z</time>
      </trkpt>
      <trkpt lat="42.280619" lon="2.860583">
        <ele>208.013</ele>
        <time>2020-10-17T11:30:48Z</time>
      </trkpt>
      <trkpt lat="42.280584" lon="2.860495">
        <ele>209.208</ele>
        <time>2020-10-17T11:30:50Z</time>
      </trkpt>
      <trkpt lat="42.280566" lon="2.860429">
        <ele>209.462</ele>
        <time>2020-10-17T11:30:51Z</time>
      </trkpt>
      <trkpt lat="42.280538" lon="2.860347">
        <ele>208.325</ele>
        <time>2020-10-17T11:30:53Z</time>
      </trkpt>
      <trkpt lat="42.280454" lon="2.860164">
        <ele>205.024</ele>
        <time>2020-10-17T11:30:57Z</time>
      </trkpt>
      <trkpt lat="42.280423" lon="2.860094">
        <ele>203.597</ele>
        <time>2020-10-17T11:30:59Z</time>
      </trkpt>
      <trkpt lat="42.280385" lon="2.860041">
        <ele>201.429</ele>
        <time>2020-10-17T11:31:01Z</time>
      </trkpt>
      <trkpt lat="42.280306" lon="2.860011">
        <ele>198.025</ele>
        <time>2020-10-17T11:31:03Z</time>
      </trkpt>
      <trkpt lat="42.280254" lon="2.860020">
        <ele>195.224</ele>
        <time>2020-10-17T11:31:04Z</time>
      </trkpt>
      <trkpt lat="42.280158" lon="2.860011">
        <ele>193.285</ele>
        <time>2020-10-17T11:31:06Z</time>
      </trkpt>
      <trkpt lat="42.280086" lon="2.859984">
        <ele>192.611</ele>
        <time>2020-10-17T11:31:08Z</time>
      </trkpt>
      <trkpt lat="42.280064" lon="2.859926">
        <ele>192.821</ele>
        <time>2020-10-17T11:31:13Z</time>
      </trkpt>
      <trkpt lat="42.280051" lon="2.859853">
        <ele>193.103</ele>
        <time>2020-10-17T11:31:16Z</time>
      </trkpt>
      <trkpt lat="42.280043" lon="2.859766">
        <ele>192.208</ele>
        <time>2020-10-17T11:31:19Z</time>
      </trkpt>
      <trkpt lat="42.280020" lon="2.859701">
        <ele>191.856</ele>
        <time>2020-10-17T11:31:21Z</time>
      </trkpt>
      <trkpt lat="42.279989" lon="2.859639">
        <ele>191.939</ele>
        <time>2020-10-17T11:31:23Z</time>
      </trkpt>
      <trkpt lat="42.279964" lon="2.859573">
        <ele>191.188</ele>
        <time>2020-10-17T11:31:25Z</time>
      </trkpt>
      <trkpt lat="42.279940" lon="2.859493">
        <ele>190.671</ele>
        <time>2020-10-17T11:31:27Z</time>
      </trkpt>
      <trkpt lat="42.279912" lon="2.859401">
        <ele>190.073</ele>
        <time>2020-10-17T11:31:30Z</time>
      </trkpt>
      <trkpt lat="42.279889" lon="2.859307">
        <ele>189.749</ele>
        <time>2020-10-17T11:31:32Z</time>
      </trkpt>
      <trkpt lat="42.279861" lon="2.859212">
        <ele>189.758</ele>
        <time>2020-10-17T11:31:34Z</time>
      </trkpt>
      <trkpt lat="42.279826" lon="2.859137">
        <ele>189.139</ele>
        <time>2020-10-17T11:31:37Z</time>
      </trkpt>
      <trkpt lat="42.279811" lon="2.859069">
        <ele>188.859</ele>
        <time>2020-10-17T11:31:39Z</time>
      </trkpt>
      <trkpt lat="42.279803" lon="2.858984">
        <ele>188.603</ele>
        <time>2020-10-17T11:31:41Z</time>
      </trkpt>
      <trkpt lat="42.279802" lon="2.858906">
        <ele>187.523</ele>
        <time>2020-10-17T11:31:43Z</time>
      </trkpt>
      <trkpt lat="42.279804" lon="2.858788">
        <ele>186.708</ele>
        <time>2020-10-17T11:31:45Z</time>
      </trkpt>
      <trkpt lat="42.279826" lon="2.858656">
        <ele>186.010</ele>
        <time>2020-10-17T11:31:47Z</time>
      </trkpt>
      <trkpt lat="42.279864" lon="2.858559">
        <ele>185.343</ele>
        <time>2020-10-17T11:31:49Z</time>
      </trkpt>
      <trkpt lat="42.279935" lon="2.858465">
        <ele>184.182</ele>
        <time>2020-10-17T11:31:51Z</time>
      </trkpt>
      <trkpt lat="42.280016" lon="2.858374">
        <ele>183.045</ele>
        <time>2020-10-17T11:31:53Z</time>
      </trkpt>
      <trkpt lat="42.280097" lon="2.858278">
        <ele>182.857</ele>
        <time>2020-10-17T11:31:55Z</time>
      </trkpt>
      <trkpt lat="42.280130" lon="2.858177">
        <ele>182.883</ele>
        <time>2020-10-17T11:31:57Z</time>
      </trkpt>
      <trkpt lat="42.280121" lon="2.858103">
        <ele>182.612</ele>
        <time>2020-10-17T11:31:59Z</time>
      </trkpt>
      <trkpt lat="42.280078" lon="2.858066">
        <ele>182.143</ele>
        <time>2020-10-17T11:32:01Z</time>
      </trkpt>
      <trkpt lat="42.280020" lon="2.858036">
        <ele>182.164</ele>
        <time>2020-10-17T11:32:03Z</time>
      </trkpt>
      <trkpt lat="42.279953" lon="2.857994">
        <ele>182.606</ele>
        <time>2020-10-17T11:32:05Z</time>
      </trkpt>
      <trkpt lat="42.279895" lon="2.857958">
        <ele>182.516</ele>
        <time>2020-10-17T11:32:07Z</time>
      </trkpt>
      <trkpt lat="42.279809" lon="2.857915">
        <ele>183.308</ele>
        <time>2020-10-17T11:32:09Z</time>
      </trkpt>
      <trkpt lat="42.279750" lon="2.857890">
        <ele>183.711</ele>
        <time>2020-10-17T11:32:10Z</time>
      </trkpt>
      <trkpt lat="42.279625" lon="2.857820">
        <ele>183.894</ele>
        <time>2020-10-17T11:32:12Z</time>
      </trkpt>
      <trkpt lat="42.279568" lon="2.857769">
        <ele>183.873</ele>
        <time>2020-10-17T11:32:13Z</time>
      </trkpt>
      <trkpt lat="42.279462" lon="2.857654">
        <ele>183.726</ele>
        <time>2020-10-17T11:32:15Z</time>
      </trkpt>
      <trkpt lat="42.279354" lon="2.857543">
        <ele>183.898</ele>
        <time>2020-10-17T11:32:17Z</time>
      </trkpt>
      <trkpt lat="42.279304" lon="2.857508">
        <ele>183.274</ele>
        <time>2020-10-17T11:32:19Z</time>
      </trkpt>
      <trkpt lat="42.279253" lon="2.857512">
        <ele>183.893</ele>
        <time>2020-10-17T11:32:24Z</time>
      </trkpt>
      <trkpt lat="42.279202" lon="2.857520">
        <ele>183.924</ele>
        <time>2020-10-17T11:32:26Z</time>
      </trkpt>
      <trkpt lat="42.279109" lon="2.857547">
        <ele>182.626</ele>
        <time>2020-10-17T11:32:28Z</time>
      </trkpt>
      <trkpt lat="42.279018" lon="2.857579">
        <ele>182.447</ele>
        <time>2020-10-17T11:32:29Z</time>
      </trkpt>
      <trkpt lat="42.278920" lon="2.857615">
        <ele>182.811</ele>
        <time>2020-10-17T11:32:30Z</time>
      </trkpt>
      <trkpt lat="42.278757" lon="2.857669">
        <ele>182.008</ele>
        <time>2020-10-17T11:32:32Z</time>
      </trkpt>
      <trkpt lat="42.278630" lon="2.857701">
        <ele>181.117</ele>
        <time>2020-10-17T11:32:34Z</time>
      </trkpt>
      <trkpt lat="42.278567" lon="2.857718">
        <ele>180.330</ele>
        <time>2020-10-17T11:32:35Z</time>
      </trkpt>
      <trkpt lat="42.278508" lon="2.857738">
        <ele>180.439</ele>
        <time>2020-10-17T11:32:36Z</time>
      </trkpt>
      <trkpt lat="42.278461" lon="2.857746">
        <ele>181.162</ele>
        <time>2020-10-17T11:32:37Z</time>
      </trkpt>
      <trkpt lat="42.278428" lon="2.857684">
        <ele>180.884</ele>
        <time>2020-10-17T11:32:40Z</time>
      </trkpt>
      <trkpt lat="42.278382" lon="2.857633">
        <ele>180.730</ele>
        <time>2020-10-17T11:32:43Z</time>
      </trkpt>
      <trkpt lat="42.278332" lon="2.857630">
        <ele>180.849</ele>
        <time>2020-10-17T11:32:45Z</time>
      </trkpt>
      <trkpt lat="42.278269" lon="2.857662">
        <ele>181.070</ele>
        <time>2020-10-17T11:32:49Z</time>
      </trkpt>
      <trkpt lat="42.278207" lon="2.857669">
        <ele>181.291</ele>
        <time>2020-10-17T11:32:51Z</time>
      </trkpt>
      <trkpt lat="42.278150" lon="2.857669">
        <ele>181.781</ele>
        <time>2020-10-17T11:32:53Z</time>
      </trkpt>
      <trkpt lat="42.278094" lon="2.857660">
        <ele>183.019</ele>
        <time>2020-10-17T11:32:56Z</time>
      </trkpt>
      <trkpt lat="42.278033" lon="2.857638">
        <ele>183.808</ele>
        <time>2020-10-17T11:32:59Z</time>
      </trkpt>
      <trkpt lat="42.277978" lon="2.857616">
        <ele>184.124</ele>
        <time>2020-10-17T11:33:01Z</time>
      </trkpt>
      <trkpt lat="42.277907" lon="2.857579">
        <ele>183.957</ele>
        <time>2020-10-17T11:33:03Z</time>
      </trkpt>
      <trkpt lat="42.277825" lon="2.857533">
        <ele>183.336</ele>
        <time>2020-10-17T11:33:05Z</time>
      </trkpt>
      <trkpt lat="42.277726" lon="2.857487">
        <ele>183.989</ele>
        <time>2020-10-17T11:33:07Z</time>
      </trkpt>
      <trkpt lat="42.277637" lon="2.857453">
        <ele>184.181</ele>
        <time>2020-10-17T11:33:09Z</time>
      </trkpt>
      <trkpt lat="42.277576" lon="2.857433">
        <ele>184.657</ele>
        <time>2020-10-17T11:33:11Z</time>
      </trkpt>
      <trkpt lat="42.277527" lon="2.857441">
        <ele>183.766</ele>
        <time>2020-10-17T11:33:15Z</time>
      </trkpt>
      <trkpt lat="42.277480" lon="2.857457">
        <ele>182.747</ele>
        <time>2020-10-17T11:33:18Z</time>
      </trkpt>
      <trkpt lat="42.277430" lon="2.857449">
        <ele>181.881</ele>
        <time>2020-10-17T11:33:20Z</time>
      </trkpt>
      <trkpt lat="42.277372" lon="2.857431">
        <ele>180.561</ele>
        <time>2020-10-17T11:33:22Z</time>
      </trkpt>
      <trkpt lat="42.277274" lon="2.857355">
        <ele>179.217</ele>
        <time>2020-10-17T11:33:24Z</time>
      </trkpt>
      <trkpt lat="42.277079" lon="2.857232">
        <ele>177.808</ele>
        <time>2020-10-17T11:33:26Z</time>
      </trkpt>
      <trkpt lat="42.277001" lon="2.857215">
        <ele>177.083</ele>
        <time>2020-10-17T11:33:27Z</time>
      </trkpt>
      <trkpt lat="42.276916" lon="2.857202">
        <ele>176.416</ele>
        <time>2020-10-17T11:33:29Z</time>
      </trkpt>
      <trkpt lat="42.276861" lon="2.857216">
        <ele>176.535</ele>
        <time>2020-10-17T11:33:31Z</time>
      </trkpt>
      <trkpt lat="42.276784" lon="2.857217">
        <ele>177.558</ele>
        <time>2020-10-17T11:33:33Z</time>
      </trkpt>
      <trkpt lat="42.276679" lon="2.857184">
        <ele>177.930</ele>
        <time>2020-10-17T11:33:35Z</time>
      </trkpt>
      <trkpt lat="42.276632" lon="2.857169">
        <ele>177.256</ele>
        <time>2020-10-17T11:33:36Z</time>
      </trkpt>
      <trkpt lat="42.276557" lon="2.857145">
        <ele>175.775</ele>
        <time>2020-10-17T11:33:38Z</time>
      </trkpt>
      <trkpt lat="42.276495" lon="2.857135">
        <ele>175.356</ele>
        <time>2020-10-17T11:33:40Z</time>
      </trkpt>
      <trkpt lat="42.276417" lon="2.857126">
        <ele>174.353</ele>
        <time>2020-10-17T11:33:42Z</time>
      </trkpt>
      <trkpt lat="42.276338" lon="2.857125">
        <ele>170.304</ele>
        <time>2020-10-17T11:33:44Z</time>
      </trkpt>
      <trkpt lat="42.276289" lon="2.857121">
        <ele>168.014</ele>
        <time>2020-10-17T11:33:45Z</time>
      </trkpt>
      <trkpt lat="42.276163" lon="2.857086">
        <ele>166.708</ele>
        <time>2020-10-17T11:33:47Z</time>
      </trkpt>
      <trkpt lat="42.276079" lon="2.857042">
        <ele>166.090</ele>
        <time>2020-10-17T11:33:48Z</time>
      </trkpt>
      <trkpt lat="42.275857" lon="2.856921">
        <ele>164.323</ele>
        <time>2020-10-17T11:33:50Z</time>
      </trkpt>
      <trkpt lat="42.275636" lon="2.856828">
        <ele>162.452</ele>
        <time>2020-10-17T11:33:52Z</time>
      </trkpt>
      <trkpt lat="42.275528" lon="2.856785">
        <ele>159.545</ele>
        <time>2020-10-17T11:33:53Z</time>
      </trkpt>
      <trkpt lat="42.275425" lon="2.856747">
        <ele>157.547</ele>
        <time>2020-10-17T11:33:54Z</time>
      </trkpt>
      <trkpt lat="42.275271" lon="2.856714">
        <ele>153.633</ele>
        <time>2020-10-17T11:33:56Z</time>
      </trkpt>
      <trkpt lat="42.275121" lon="2.856662">
        <ele>151.262</ele>
        <time>2020-10-17T11:33:58Z</time>
      </trkpt>
      <trkpt lat="42.274964" lon="2.856601">
        <ele>148.793</ele>
        <time>2020-10-17T11:34:00Z</time>
      </trkpt>
      <trkpt lat="42.274882" lon="2.856559">
        <ele>147.226</ele>
        <time>2020-10-17T11:34:01Z</time>
      </trkpt>
      <trkpt lat="42.274798" lon="2.856509">
        <ele>144.747</ele>
        <time>2020-10-17T11:34:02Z</time>
      </trkpt>
      <trkpt lat="42.274643" lon="2.856456">
        <ele>144.311</ele>
        <time>2020-10-17T11:34:04Z</time>
      </trkpt>
      <trkpt lat="42.274490" lon="2.856416">
        <ele>144.908</ele>
        <time>2020-10-17T11:34:06Z</time>
      </trkpt>
      <trkpt lat="42.274344" lon="2.856382">
        <ele>145.447</ele>
        <time>2020-10-17T11:34:08Z</time>
      </trkpt>
      <trkpt lat="42.274203" lon="2.856350">
        <ele>146.910</ele>
        <time>2020-10-17T11:34:10Z</time>
      </trkpt>
      <trkpt lat="42.274135" lon="2.856330">
        <ele>148.029</ele>
        <time>2020-10-17T11:34:11Z</time>
      </trkpt>
      <trkpt lat="42.274068" lon="2.856303">
        <ele>149.272</ele>
        <time>2020-10-17T11:34:12Z</time>
      </trkpt>
      <trkpt lat="42.273999" lon="2.856272">
        <ele>150.194</ele>
        <time>2020-10-17T11:34:13Z</time>
      </trkpt>
      <trkpt lat="42.273939" lon="2.856241">
        <ele>150.050</ele>
        <time>2020-10-17T11:34:14Z</time>
      </trkpt>
      <trkpt lat="42.273889" lon="2.856210">
        <ele>150.459</ele>
        <time>2020-10-17T11:34:15Z</time>
      </trkpt>
      <trkpt lat="42.273821" lon="2.856173">
        <ele>151.550</ele>
        <time>2020-10-17T11:34:17Z</time>
      </trkpt>
      <trkpt lat="42.273765" lon="2.856167">
        <ele>153.069</ele>
        <time>2020-10-17T11:34:19Z</time>
      </trkpt>
      <trkpt lat="42.273726" lon="2.856207">
        <ele>153.504</ele>
        <time>2020-10-17T11:34:22Z</time>
      </trkpt>
      <trkpt lat="42.273681" lon="2.856257">
        <ele>153.624</ele>
        <time>2020-10-17T11:34:25Z</time>
      </trkpt>
      <trkpt lat="42.273636" lon="2.856308">
        <ele>153.508</ele>
        <time>2020-10-17T11:34:28Z</time>
      </trkpt>
      <trkpt lat="42.273595" lon="2.856365">
        <ele>153.551</ele>
        <time>2020-10-17T11:34:31Z</time>
      </trkpt>
      <trkpt lat="42.273543" lon="2.856423">
        <ele>152.824</ele>
        <time>2020-10-17T11:34:34Z</time>
      </trkpt>
      <trkpt lat="42.273499" lon="2.856443">
        <ele>152.533</ele>
        <time>2020-10-17T11:34:37Z</time>
      </trkpt>
      <trkpt lat="42.273456" lon="2.856481">
        <ele>152.076</ele>
        <time>2020-10-17T11:34:50Z</time>
      </trkpt>
      <trkpt lat="42.273416" lon="2.856515">
        <ele>151.778</ele>
        <time>2020-10-17T11:34:54Z</time>
      </trkpt>
      <trkpt lat="42.273426" lon="2.856586">
        <ele>151.554</ele>
        <time>2020-10-17T11:34:57Z</time>
      </trkpt>
      <trkpt lat="42.273449" lon="2.856643">
        <ele>150.393</ele>
        <time>2020-10-17T11:34:59Z</time>
      </trkpt>
      <trkpt lat="42.273489" lon="2.856673">
        <ele>149.964</ele>
        <time>2020-10-17T11:35:02Z</time>
      </trkpt>
      <trkpt lat="42.273535" lon="2.856663">
        <ele>149.489</ele>
        <time>2020-10-17T11:35:05Z</time>
      </trkpt>
      <trkpt lat="42.273561" lon="2.856742">
        <ele>148.706</ele>
        <time>2020-10-17T11:35:09Z</time>
      </trkpt>
      <trkpt lat="42.273537" lon="2.856810">
        <ele>148.226</ele>
        <time>2020-10-17T11:35:11Z</time>
      </trkpt>
      <trkpt lat="42.273498" lon="2.856845">
        <ele>147.808</ele>
        <time>2020-10-17T11:35:14Z</time>
      </trkpt>
      <trkpt lat="42.273443" lon="2.856855">
        <ele>148.063</ele>
        <time>2020-10-17T11:35:17Z</time>
      </trkpt>
      <trkpt lat="42.273386" lon="2.856868">
        <ele>148.196</ele>
        <time>2020-10-17T11:35:19Z</time>
      </trkpt>
      <trkpt lat="42.273325" lon="2.856910">
        <ele>148.285</ele>
        <time>2020-10-17T11:35:21Z</time>
      </trkpt>
      <trkpt lat="42.273296" lon="2.856958">
        <ele>147.468</ele>
        <time>2020-10-17T11:35:24Z</time>
      </trkpt>
      <trkpt lat="42.273245" lon="2.856937">
        <ele>146.280</ele>
        <time>2020-10-17T11:35:28Z</time>
      </trkpt>
      <trkpt lat="42.273163" lon="2.856901">
        <ele>144.846</ele>
        <time>2020-10-17T11:35:30Z</time>
      </trkpt>
      <trkpt lat="42.273084" lon="2.856838">
        <ele>143.695</ele>
        <time>2020-10-17T11:35:31Z</time>
      </trkpt>
      <trkpt lat="42.273033" lon="2.856770">
        <ele>143.656</ele>
        <time>2020-10-17T11:35:33Z</time>
      </trkpt>
      <trkpt lat="42.272998" lon="2.856701">
        <ele>143.698</ele>
        <time>2020-10-17T11:35:35Z</time>
      </trkpt>
      <trkpt lat="42.272973" lon="2.856617">
        <ele>143.715</ele>
        <time>2020-10-17T11:35:38Z</time>
      </trkpt>
      <trkpt lat="42.272937" lon="2.856549">
        <ele>144.026</ele>
        <time>2020-10-17T11:35:41Z</time>
      </trkpt>
      <trkpt lat="42.272925" lon="2.856472">
        <ele>143.408</ele>
        <time>2020-10-17T11:35:44Z</time>
      </trkpt>
      <trkpt lat="42.272884" lon="2.856414">
        <ele>141.464</ele>
        <time>2020-10-17T11:35:47Z</time>
      </trkpt>
      <trkpt lat="42.272829" lon="2.856387">
        <ele>141.167</ele>
        <time>2020-10-17T11:35:49Z</time>
      </trkpt>
      <trkpt lat="42.272781" lon="2.856372">
        <ele>140.386</ele>
        <time>2020-10-17T11:35:51Z</time>
      </trkpt>
      <trkpt lat="42.272715" lon="2.856329">
        <ele>138.489</ele>
        <time>2020-10-17T11:35:53Z</time>
      </trkpt>
      <trkpt lat="42.272646" lon="2.856256">
        <ele>137.021</ele>
        <time>2020-10-17T11:35:55Z</time>
      </trkpt>
      <trkpt lat="42.272611" lon="2.856216">
        <ele>136.487</ele>
        <time>2020-10-17T11:35:56Z</time>
      </trkpt>
      <trkpt lat="42.272557" lon="2.856139">
        <ele>136.456</ele>
        <time>2020-10-17T11:35:58Z</time>
      </trkpt>
      <trkpt lat="42.272505" lon="2.856060">
        <ele>136.327</ele>
        <time>2020-10-17T11:36:00Z</time>
      </trkpt>
      <trkpt lat="42.272469" lon="2.856019">
        <ele>136.248</ele>
        <time>2020-10-17T11:36:01Z</time>
      </trkpt>
      <trkpt lat="42.272416" lon="2.855960">
        <ele>136.061</ele>
        <time>2020-10-17T11:36:03Z</time>
      </trkpt>
      <trkpt lat="42.272372" lon="2.855875">
        <ele>135.517</ele>
        <time>2020-10-17T11:36:05Z</time>
      </trkpt>
      <trkpt lat="42.272345" lon="2.855794">
        <ele>135.308</ele>
        <time>2020-10-17T11:36:07Z</time>
      </trkpt>
      <trkpt lat="42.272296" lon="2.855738">
        <ele>135.769</ele>
        <time>2020-10-17T11:36:09Z</time>
      </trkpt>
      <trkpt lat="42.272226" lon="2.855696">
        <ele>136.412</ele>
        <time>2020-10-17T11:36:11Z</time>
      </trkpt>
      <trkpt lat="42.272175" lon="2.855692">
        <ele>136.961</ele>
        <time>2020-10-17T11:36:12Z</time>
      </trkpt>
      <trkpt lat="42.272130" lon="2.855692">
        <ele>136.054</ele>
        <time>2020-10-17T11:36:13Z</time>
      </trkpt>
      <trkpt lat="42.272048" lon="2.855674">
        <ele>133.686</ele>
        <time>2020-10-17T11:36:15Z</time>
      </trkpt>
      <trkpt lat="42.272008" lon="2.855645">
        <ele>132.742</ele>
        <time>2020-10-17T11:36:16Z</time>
      </trkpt>
      <trkpt lat="42.271936" lon="2.855579">
        <ele>132.221</ele>
        <time>2020-10-17T11:36:18Z</time>
      </trkpt>
      <trkpt lat="42.271888" lon="2.855547">
        <ele>131.592</ele>
        <time>2020-10-17T11:36:19Z</time>
      </trkpt>
      <trkpt lat="42.271839" lon="2.855461">
        <ele>129.331</ele>
        <time>2020-10-17T11:36:21Z</time>
      </trkpt>
      <trkpt lat="42.271820" lon="2.855367">
        <ele>128.261</ele>
        <time>2020-10-17T11:36:23Z</time>
      </trkpt>
      <trkpt lat="42.271804" lon="2.855258">
        <ele>126.607</ele>
        <time>2020-10-17T11:36:25Z</time>
      </trkpt>
      <trkpt lat="42.271800" lon="2.855181">
        <ele>125.908</ele>
        <time>2020-10-17T11:36:26Z</time>
      </trkpt>
      <trkpt lat="42.271818" lon="2.855071">
        <ele>126.478</ele>
        <time>2020-10-17T11:36:28Z</time>
      </trkpt>
      <trkpt lat="42.271814" lon="2.855008">
        <ele>127.291</ele>
        <time>2020-10-17T11:36:29Z</time>
      </trkpt>
      <trkpt lat="42.271788" lon="2.854906">
        <ele>126.470</ele>
        <time>2020-10-17T11:36:31Z</time>
      </trkpt>
      <trkpt lat="42.271752" lon="2.854764">
        <ele>124.193</ele>
        <time>2020-10-17T11:36:33Z</time>
      </trkpt>
      <trkpt lat="42.271724" lon="2.854571">
        <ele>122.345</ele>
        <time>2020-10-17T11:36:35Z</time>
      </trkpt>
      <trkpt lat="42.271692" lon="2.854409">
        <ele>121.341</ele>
        <time>2020-10-17T11:36:37Z</time>
      </trkpt>
      <trkpt lat="42.271677" lon="2.854329">
        <ele>121.130</ele>
        <time>2020-10-17T11:36:38Z</time>
      </trkpt>
      <trkpt lat="42.271661" lon="2.854197">
        <ele>121.471</ele>
        <time>2020-10-17T11:36:40Z</time>
      </trkpt>
      <trkpt lat="42.271638" lon="2.854109">
        <ele>121.638</ele>
        <time>2020-10-17T11:36:42Z</time>
      </trkpt>
      <trkpt lat="42.271638" lon="2.854109">
        <ele>121.670</ele>
        <time>2020-10-17T11:36:42Z</time>
      </trkpt>
      <trkpt lat="42.271612" lon="2.854038">
        <ele>120.917</ele>
        <time>2020-10-17T11:36:45Z</time>
      </trkpt>
      <trkpt lat="42.271617" lon="2.853973">
        <ele>119.608</ele>
        <time>2020-10-17T11:36:50Z</time>
      </trkpt>
      <trkpt lat="42.271613" lon="2.853898">
        <ele>117.668</ele>
        <time>2020-10-17T11:36:53Z</time>
      </trkpt>
      <trkpt lat="42.271590" lon="2.853845">
        <ele>116.481</ele>
        <time>2020-10-17T11:38:04Z</time>
      </trkpt>
      <trkpt lat="42.271598" lon="2.853936">
        <ele>124.840</ele>
        <time>2020-10-17T11:38:22Z</time>
      </trkpt>
      <trkpt lat="42.271658" lon="2.853889">
        <ele>123.853</ele>
        <time>2020-10-17T11:38:36Z</time>
      </trkpt>
      <trkpt lat="42.271697" lon="2.853830">
        <ele>121.915</ele>
        <time>2020-10-17T11:38:39Z</time>
      </trkpt>
      <trkpt lat="42.271736" lon="2.853769">
        <ele>120.481</ele>
        <time>2020-10-17T11:38:41Z</time>
      </trkpt>
      <trkpt lat="42.271791" lon="2.853703">
        <ele>118.950</ele>
        <time>2020-10-17T11:38:43Z</time>
      </trkpt>
      <trkpt lat="42.271844" lon="2.853642">
        <ele>117.051</ele>
        <time>2020-10-17T11:38:45Z</time>
      </trkpt>
      <trkpt lat="42.271888" lon="2.853563">
        <ele>116.281</ele>
        <time>2020-10-17T11:38:47Z</time>
      </trkpt>
      <trkpt lat="42.271919" lon="2.853456">
        <ele>116.161</ele>
        <time>2020-10-17T11:38:49Z</time>
      </trkpt>
      <trkpt lat="42.271936" lon="2.853390">
        <ele>115.617</ele>
        <time>2020-10-17T11:38:51Z</time>
      </trkpt>
      <trkpt lat="42.271961" lon="2.853325">
        <ele>115.508</ele>
        <time>2020-10-17T11:38:54Z</time>
      </trkpt>
      <trkpt lat="42.272005" lon="2.853248">
        <ele>115.083</ele>
        <time>2020-10-17T11:38:56Z</time>
      </trkpt>
      <trkpt lat="42.272053" lon="2.853150">
        <ele>114.686</ele>
        <time>2020-10-17T11:38:58Z</time>
      </trkpt>
      <trkpt lat="42.272071" lon="2.853053">
        <ele>114.985</ele>
        <time>2020-10-17T11:39:00Z</time>
      </trkpt>
      <trkpt lat="42.272098" lon="2.852985">
        <ele>115.488</ele>
        <time>2020-10-17T11:39:02Z</time>
      </trkpt>
      <trkpt lat="42.272131" lon="2.852938">
        <ele>115.570</ele>
        <time>2020-10-17T11:39:05Z</time>
      </trkpt>
      <trkpt lat="42.272188" lon="2.852875">
        <ele>116.336</ele>
        <time>2020-10-17T11:39:08Z</time>
      </trkpt>
      <trkpt lat="42.272235" lon="2.852830">
        <ele>117.235</ele>
        <time>2020-10-17T11:39:10Z</time>
      </trkpt>
      <trkpt lat="42.272196" lon="2.852871">
        <ele>122.516</ele>
        <time>2020-10-17T11:39:27Z</time>
      </trkpt>
      <trkpt lat="42.272110" lon="2.852898">
        <ele>121.558</ele>
        <time>2020-10-17T11:39:31Z</time>
      </trkpt>
      <trkpt lat="42.272022" lon="2.852883">
        <ele>120.952</ele>
        <time>2020-10-17T11:39:32Z</time>
      </trkpt>
      <trkpt lat="42.271963" lon="2.852863">
        <ele>120.417</ele>
        <time>2020-10-17T11:39:33Z</time>
      </trkpt>
      <trkpt lat="42.271852" lon="2.852806">
        <ele>120.108</ele>
        <time>2020-10-17T11:39:35Z</time>
      </trkpt>
      <trkpt lat="42.271779" lon="2.852763">
        <ele>120.410</ele>
        <time>2020-10-17T11:39:37Z</time>
      </trkpt>
      <trkpt lat="42.271721" lon="2.852678">
        <ele>120.733</ele>
        <time>2020-10-17T11:39:39Z</time>
      </trkpt>
      <trkpt lat="42.271667" lon="2.852597">
        <ele>121.412</ele>
        <time>2020-10-17T11:39:41Z</time>
      </trkpt>
      <trkpt lat="42.271639" lon="2.852548">
        <ele>120.895</ele>
        <time>2020-10-17T11:39:42Z</time>
      </trkpt>
      <trkpt lat="42.271592" lon="2.852463">
        <ele>119.247</ele>
        <time>2020-10-17T11:39:44Z</time>
      </trkpt>
      <trkpt lat="42.271566" lon="2.852401">
        <ele>118.083</ele>
        <time>2020-10-17T11:39:45Z</time>
      </trkpt>
      <trkpt lat="42.271490" lon="2.852255">
        <ele>117.582</ele>
        <time>2020-10-17T11:39:47Z</time>
      </trkpt>
      <trkpt lat="42.271451" lon="2.852165">
        <ele>116.943</ele>
        <time>2020-10-17T11:39:48Z</time>
      </trkpt>
      <trkpt lat="42.271398" lon="2.852013">
        <ele>115.243</ele>
        <time>2020-10-17T11:39:50Z</time>
      </trkpt>
      <trkpt lat="42.271352" lon="2.851893">
        <ele>115.464</ele>
        <time>2020-10-17T11:39:52Z</time>
      </trkpt>
      <trkpt lat="42.271352" lon="2.851893">
        <ele>115.410</ele>
        <time>2020-10-17T11:39:52Z</time>
      </trkpt>
      <trkpt lat="42.271287" lon="2.851778">
        <ele>116.608</ele>
        <time>2020-10-17T11:39:54Z</time>
      </trkpt>
      <trkpt lat="42.271250" lon="2.851696">
        <ele>118.139</ele>
        <time>2020-10-17T11:39:55Z</time>
      </trkpt>
      <trkpt lat="42.271218" lon="2.851625">
        <ele>118.772</ele>
        <time>2020-10-17T11:39:56Z</time>
      </trkpt>
      <trkpt lat="42.271158" lon="2.851518">
        <ele>119.361</ele>
        <time>2020-10-17T11:39:58Z</time>
      </trkpt>
      <trkpt lat="42.271120" lon="2.851461">
        <ele>119.294</ele>
        <time>2020-10-17T11:39:59Z</time>
      </trkpt>
      <trkpt lat="42.271013" lon="2.851282">
        <ele>120.196</ele>
        <time>2020-10-17T11:40:01Z</time>
      </trkpt>
      <trkpt lat="42.270916" lon="2.851072">
        <ele>121.052</ele>
        <time>2020-10-17T11:40:03Z</time>
      </trkpt>
      <trkpt lat="42.270836" lon="2.850865">
        <ele>121.561</ele>
        <time>2020-10-17T11:40:05Z</time>
      </trkpt>
      <trkpt lat="42.270753" lon="2.850684">
        <ele>122.542</ele>
        <time>2020-10-17T11:40:07Z</time>
      </trkpt>
      <trkpt lat="42.270721" lon="2.850626">
        <ele>122.841</ele>
        <time>2020-10-17T11:40:08Z</time>
      </trkpt>
      <trkpt lat="42.270646" lon="2.850497">
        <ele>122.381</ele>
        <time>2020-10-17T11:40:10Z</time>
      </trkpt>
      <trkpt lat="42.270600" lon="2.850400">
        <ele>122.109</ele>
        <time>2020-10-17T11:40:11Z</time>
      </trkpt>
      <trkpt lat="42.270504" lon="2.850213">
        <ele>121.908</ele>
        <time>2020-10-17T11:40:13Z</time>
      </trkpt>
      <trkpt lat="42.270413" lon="2.850024">
        <ele>122.029</ele>
        <time>2020-10-17T11:40:15Z</time>
      </trkpt>
      <trkpt lat="42.270324" lon="2.849833">
        <ele>122.852</ele>
        <time>2020-10-17T11:40:17Z</time>
      </trkpt>
      <trkpt lat="42.270287" lon="2.849750">
        <ele>123.441</ele>
        <time>2020-10-17T11:40:18Z</time>
      </trkpt>
      <trkpt lat="42.270209" lon="2.849592">
        <ele>123.994</ele>
        <time>2020-10-17T11:40:20Z</time>
      </trkpt>
      <trkpt lat="42.270134" lon="2.849458">
        <ele>125.026</ele>
        <time>2020-10-17T11:40:22Z</time>
      </trkpt>
      <trkpt lat="42.270076" lon="2.849362">
        <ele>126.332</ele>
        <time>2020-10-17T11:40:24Z</time>
      </trkpt>
      <trkpt lat="42.270026" lon="2.849300">
        <ele>128.941</ele>
        <time>2020-10-17T11:40:27Z</time>
      </trkpt>
    </trkseg>
  </trk>
</gpx>
